<?xml version="1.0" encoding="UTF-8" standalone="no" ?>
<gpx xmlns="http://www.topografix.com/GPX/1/1" xmlns:xsi="http://www.w3.org/2001/XMLSchema-instance" xsi:schemaLocation="http://www.topografix.com/GPX/1/1 http://www.topografix.com/GPX/1/1/gpx.xsd" version="1.1" creator="VisuGPX - https://www.visugpx.com">
  <metadata>
    <name>lundi 2015 02</name>
    <desc><![CDATA[cumul février 2015]]></desc>
  </metadata>
  <trk>
    <name><![CDATA[23/02/2015 20:19]]></name>
    <extensions>
      <line xmlns="http://www.topografix.com/GPX/gpx_style/0/2">
        <color>000000</color>
      </line>
    </extensions>
    <trkseg>
      <trkpt lat="48.8573" lon="2.34715">
        <ele>115.1</ele>
        <time>2015-02-23T19:19:16.264Z</time>
      </trkpt>
      <trkpt lat="48.8573" lon="2.34712">
        <ele>114.7</ele>
        <time>2015-02-23T19:19:53.203Z</time>
      </trkpt>
      <trkpt lat="48.8573" lon="2.34711">
        <ele>114.5</ele>
        <time>2015-02-23T19:19:54.253Z</time>
      </trkpt>
      <trkpt lat="48.8573" lon="2.3471">
        <ele>114.3</ele>
        <time>2015-02-23T19:19:55.277Z</time>
      </trkpt>
      <trkpt lat="48.8573" lon="2.3471">
        <ele>114</ele>
        <time>2015-02-23T19:19:56.200Z</time>
      </trkpt>
      <trkpt lat="48.85726" lon="2.34698">
        <ele>111.8</ele>
        <time>2015-02-23T19:20:02.203Z</time>
      </trkpt>
      <trkpt lat="48.85723" lon="2.34698">
        <ele>111.5</ele>
        <time>2015-02-23T19:20:03.185Z</time>
      </trkpt>
      <trkpt lat="48.85718" lon="2.34708">
        <ele>99.3</ele>
        <time>2015-02-23T19:20:09.368Z</time>
      </trkpt>
      <trkpt lat="48.85717" lon="2.34709">
        <ele>98.9</ele>
        <time>2015-02-23T19:20:10.261Z</time>
      </trkpt>
      <trkpt lat="48.85716" lon="2.34709">
        <ele>98.6</ele>
        <time>2015-02-23T19:20:11.298Z</time>
      </trkpt>
      <trkpt lat="48.85716" lon="2.34709">
        <ele>98.2</ele>
        <time>2015-02-23T19:20:17.283Z</time>
      </trkpt>
      <trkpt lat="48.85718" lon="2.34711">
        <ele>95.5</ele>
        <time>2015-02-23T19:20:18.285Z</time>
      </trkpt>
      <trkpt lat="48.85715" lon="2.34724">
        <ele>94.6</ele>
        <time>2015-02-23T19:20:23.201Z</time>
      </trkpt>
      <trkpt lat="48.85714" lon="2.34727">
        <ele>94.7</ele>
        <time>2015-02-23T19:20:24.228Z</time>
      </trkpt>
      <trkpt lat="48.85711" lon="2.34736">
        <ele>94.3</ele>
        <time>2015-02-23T19:20:26.264Z</time>
      </trkpt>
      <trkpt lat="48.8571" lon="2.34741">
        <ele>94.1</ele>
        <time>2015-02-23T19:20:27.388Z</time>
      </trkpt>
      <trkpt lat="48.85707" lon="2.34751">
        <ele>93.4</ele>
        <time>2015-02-23T19:20:29.224Z</time>
      </trkpt>
      <trkpt lat="48.85705" lon="2.34756">
        <ele>93.1</ele>
        <time>2015-02-23T19:20:30.273Z</time>
      </trkpt>
      <trkpt lat="48.85702" lon="2.34767">
        <ele>92.7</ele>
        <time>2015-02-23T19:20:32.221Z</time>
      </trkpt>
      <trkpt lat="48.85701" lon="2.34773">
        <ele>92.4</ele>
        <time>2015-02-23T19:20:33.299Z</time>
      </trkpt>
      <trkpt lat="48.85698" lon="2.34785">
        <ele>91.6</ele>
        <time>2015-02-23T19:20:35.225Z</time>
      </trkpt>
      <trkpt lat="48.85699" lon="2.34793">
        <ele>91.6</ele>
        <time>2015-02-23T19:20:36.230Z</time>
      </trkpt>
      <trkpt lat="48.85699" lon="2.34801">
        <ele>91.5</ele>
        <time>2015-02-23T19:20:37.321Z</time>
      </trkpt>
      <trkpt lat="48.85698" lon="2.34808">
        <ele>91.5</ele>
        <time>2015-02-23T19:20:38.209Z</time>
      </trkpt>
      <trkpt lat="48.85696" lon="2.34821">
        <ele>91.8</ele>
        <time>2015-02-23T19:20:40.219Z</time>
      </trkpt>
      <trkpt lat="48.85695" lon="2.34827">
        <ele>91.8</ele>
        <time>2015-02-23T19:20:41.229Z</time>
      </trkpt>
      <trkpt lat="48.85692" lon="2.34839">
        <ele>91.9</ele>
        <time>2015-02-23T19:20:43.307Z</time>
      </trkpt>
      <trkpt lat="48.85691" lon="2.34844">
        <ele>91.9</ele>
        <time>2015-02-23T19:20:44.208Z</time>
      </trkpt>
      <trkpt lat="48.85687" lon="2.34856">
        <ele>92.2</ele>
        <time>2015-02-23T19:20:46.258Z</time>
      </trkpt>
      <trkpt lat="48.85685" lon="2.34861">
        <ele>92.2</ele>
        <time>2015-02-23T19:20:47.191Z</time>
      </trkpt>
      <trkpt lat="48.85681" lon="2.34872">
        <ele>92.3</ele>
        <time>2015-02-23T19:20:49.262Z</time>
      </trkpt>
      <trkpt lat="48.8568" lon="2.34878">
        <ele>92.3</ele>
        <time>2015-02-23T19:20:50.267Z</time>
      </trkpt>
      <trkpt lat="48.85677" lon="2.34889">
        <ele>92.2</ele>
        <time>2015-02-23T19:20:53.270Z</time>
      </trkpt>
      <trkpt lat="48.85675" lon="2.34894">
        <ele>92.1</ele>
        <time>2015-02-23T19:20:53.355Z</time>
      </trkpt>
      <trkpt lat="48.85672" lon="2.34903">
        <ele>92.3</ele>
        <time>2015-02-23T19:20:55.235Z</time>
      </trkpt>
      <trkpt lat="48.8567" lon="2.34908">
        <ele>92.4</ele>
        <time>2015-02-23T19:20:56.170Z</time>
      </trkpt>
      <trkpt lat="48.85666" lon="2.34918">
        <ele>92.6</ele>
        <time>2015-02-23T19:20:58.312Z</time>
      </trkpt>
      <trkpt lat="48.85665" lon="2.34924">
        <ele>92.9</ele>
        <time>2015-02-23T19:20:59.201Z</time>
      </trkpt>
      <trkpt lat="48.8566" lon="2.34934">
        <ele>92.9</ele>
        <time>2015-02-23T19:21:01.233Z</time>
      </trkpt>
      <trkpt lat="48.85658" lon="2.34939">
        <ele>92.9</ele>
        <time>2015-02-23T19:21:02.242Z</time>
      </trkpt>
      <trkpt lat="48.85653" lon="2.34946">
        <ele>92.8</ele>
        <time>2015-02-23T19:21:04.197Z</time>
      </trkpt>
      <trkpt lat="48.85651" lon="2.3495">
        <ele>92.9</ele>
        <time>2015-02-23T19:21:05.217Z</time>
      </trkpt>
      <trkpt lat="48.85648" lon="2.34955">
        <ele>93</ele>
        <time>2015-02-23T19:21:06.225Z</time>
      </trkpt>
      <trkpt lat="48.85645" lon="2.3496">
        <ele>93.3</ele>
        <time>2015-02-23T19:21:07.235Z</time>
      </trkpt>
      <trkpt lat="48.85642" lon="2.34966">
        <ele>93.4</ele>
        <time>2015-02-23T19:21:08.410Z</time>
      </trkpt>
      <trkpt lat="48.85639" lon="2.34974">
        <ele>93.7</ele>
        <time>2015-02-23T19:21:09.273Z</time>
      </trkpt>
      <trkpt lat="48.85636" lon="2.34981">
        <ele>93.9</ele>
        <time>2015-02-23T19:21:10.192Z</time>
      </trkpt>
      <trkpt lat="48.85634" lon="2.34987">
        <ele>94</ele>
        <time>2015-02-23T19:21:11.165Z</time>
      </trkpt>
      <trkpt lat="48.85632" lon="2.34994">
        <ele>94</ele>
        <time>2015-02-23T19:21:12.179Z</time>
      </trkpt>
      <trkpt lat="48.85629" lon="2.35001">
        <ele>94.1</ele>
        <time>2015-02-23T19:21:13.213Z</time>
      </trkpt>
      <trkpt lat="48.85627" lon="2.35008">
        <ele>94.1</ele>
        <time>2015-02-23T19:21:14.216Z</time>
      </trkpt>
      <trkpt lat="48.85624" lon="2.35016">
        <ele>93.9</ele>
        <time>2015-02-23T19:21:15.236Z</time>
      </trkpt>
      <trkpt lat="48.85621" lon="2.35025">
        <ele>93.6</ele>
        <time>2015-02-23T19:21:16.243Z</time>
      </trkpt>
      <trkpt lat="48.85618" lon="2.35032">
        <ele>93.4</ele>
        <time>2015-02-23T19:21:17.251Z</time>
      </trkpt>
      <trkpt lat="48.85615" lon="2.3504">
        <ele>93</ele>
        <time>2015-02-23T19:21:18.255Z</time>
      </trkpt>
      <trkpt lat="48.85614" lon="2.35047">
        <ele>92.3</ele>
        <time>2015-02-23T19:21:19.260Z</time>
      </trkpt>
      <trkpt lat="48.85612" lon="2.35053">
        <ele>92</ele>
        <time>2015-02-23T19:21:20.285Z</time>
      </trkpt>
      <trkpt lat="48.85609" lon="2.35059">
        <ele>91.9</ele>
        <time>2015-02-23T19:21:21.467Z</time>
      </trkpt>
      <trkpt lat="48.85607" lon="2.35065">
        <ele>91.9</ele>
        <time>2015-02-23T19:21:22.185Z</time>
      </trkpt>
      <trkpt lat="48.85604" lon="2.35071">
        <ele>91.6</ele>
        <time>2015-02-23T19:21:23.203Z</time>
      </trkpt>
      <trkpt lat="48.856" lon="2.35081">
        <ele>91</ele>
        <time>2015-02-23T19:21:25.240Z</time>
      </trkpt>
      <trkpt lat="48.85598" lon="2.35083">
        <ele>90.9</ele>
        <time>2015-02-23T19:21:26.291Z</time>
      </trkpt>
      <trkpt lat="48.85595" lon="2.35095">
        <ele>91.3</ele>
        <time>2015-02-23T19:21:30.233Z</time>
      </trkpt>
      <trkpt lat="48.85593" lon="2.35099">
        <ele>91.6</ele>
        <time>2015-02-23T19:21:31.276Z</time>
      </trkpt>
      <trkpt lat="48.85589" lon="2.35108">
        <ele>91.9</ele>
        <time>2015-02-23T19:21:33.274Z</time>
      </trkpt>
      <trkpt lat="48.85587" lon="2.35114">
        <ele>91.9</ele>
        <time>2015-02-23T19:21:34.191Z</time>
      </trkpt>
      <trkpt lat="48.85583" lon="2.35124">
        <ele>92.1</ele>
        <time>2015-02-23T19:21:36.207Z</time>
      </trkpt>
      <trkpt lat="48.85581" lon="2.3513">
        <ele>92.1</ele>
        <time>2015-02-23T19:21:37.342Z</time>
      </trkpt>
      <trkpt lat="48.85576" lon="2.35141">
        <ele>91.9</ele>
        <time>2015-02-23T19:21:39.242Z</time>
      </trkpt>
      <trkpt lat="48.85574" lon="2.35146">
        <ele>91.8</ele>
        <time>2015-02-23T19:21:40.260Z</time>
      </trkpt>
      <trkpt lat="48.85572" lon="2.35152">
        <ele>91.8</ele>
        <time>2015-02-23T19:21:41.282Z</time>
      </trkpt>
      <trkpt lat="48.85569" lon="2.35159">
        <ele>91.9</ele>
        <time>2015-02-23T19:21:42.285Z</time>
      </trkpt>
      <trkpt lat="48.85567" lon="2.35166">
        <ele>92.1</ele>
        <time>2015-02-23T19:21:43.300Z</time>
      </trkpt>
      <trkpt lat="48.85564" lon="2.35172">
        <ele>92.2</ele>
        <time>2015-02-23T19:21:44.211Z</time>
      </trkpt>
      <trkpt lat="48.85562" lon="2.35179">
        <ele>92.3</ele>
        <time>2015-02-23T19:21:45.213Z</time>
      </trkpt>
      <trkpt lat="48.85559" lon="2.35185">
        <ele>92.3</ele>
        <time>2015-02-23T19:21:46.219Z</time>
      </trkpt>
      <trkpt lat="48.85557" lon="2.35191">
        <ele>92.4</ele>
        <time>2015-02-23T19:21:47.226Z</time>
      </trkpt>
      <trkpt lat="48.85554" lon="2.35198">
        <ele>92.6</ele>
        <time>2015-02-23T19:21:48.233Z</time>
      </trkpt>
      <trkpt lat="48.85552" lon="2.35205">
        <ele>92.6</ele>
        <time>2015-02-23T19:21:49.301Z</time>
      </trkpt>
      <trkpt lat="48.85551" lon="2.35212">
        <ele>92.8</ele>
        <time>2015-02-23T19:21:50.194Z</time>
      </trkpt>
      <trkpt lat="48.85549" lon="2.35222">
        <ele>92.4</ele>
        <time>2015-02-23T19:21:52.301Z</time>
      </trkpt>
      <trkpt lat="48.85548" lon="2.35227">
        <ele>92.3</ele>
        <time>2015-02-23T19:21:53.228Z</time>
      </trkpt>
      <trkpt lat="48.85545" lon="2.35236">
        <ele>92.1</ele>
        <time>2015-02-23T19:21:55.294Z</time>
      </trkpt>
      <trkpt lat="48.85544" lon="2.3524">
        <ele>92</ele>
        <time>2015-02-23T19:21:56.218Z</time>
      </trkpt>
      <trkpt lat="48.85541" lon="2.35253">
        <ele>92</ele>
        <time>2015-02-23T19:21:59.251Z</time>
      </trkpt>
      <trkpt lat="48.85539" lon="2.35257">
        <ele>92</ele>
        <time>2015-02-23T19:22:00.285Z</time>
      </trkpt>
      <trkpt lat="48.85535" lon="2.35264">
        <ele>91.9</ele>
        <time>2015-02-23T19:22:02.202Z</time>
      </trkpt>
      <trkpt lat="48.85533" lon="2.35268">
        <ele>91.7</ele>
        <time>2015-02-23T19:22:03.212Z</time>
      </trkpt>
      <trkpt lat="48.85528" lon="2.35279">
        <ele>91.6</ele>
        <time>2015-02-23T19:22:06.215Z</time>
      </trkpt>
      <trkpt lat="48.85527" lon="2.35281">
        <ele>91.6</ele>
        <time>2015-02-23T19:22:07.251Z</time>
      </trkpt>
      <trkpt lat="48.85519" lon="2.35283">
        <ele>89.9</ele>
        <time>2015-02-23T19:22:12.216Z</time>
      </trkpt>
      <trkpt lat="48.85518" lon="2.35284">
        <ele>89.8</ele>
        <time>2015-02-23T19:22:13.254Z</time>
      </trkpt>
      <trkpt lat="48.8551" lon="2.35291">
        <ele>89.3</ele>
        <time>2015-02-23T19:22:18.214Z</time>
      </trkpt>
      <trkpt lat="48.85507" lon="2.3529">
        <ele>88.9</ele>
        <time>2015-02-23T19:22:19.249Z</time>
      </trkpt>
      <trkpt lat="48.85498" lon="2.3529">
        <ele>89.4</ele>
        <time>2015-02-23T19:22:22.217Z</time>
      </trkpt>
      <trkpt lat="48.85496" lon="2.35292">
        <ele>89.3</ele>
        <time>2015-02-23T19:22:23.248Z</time>
      </trkpt>
      <trkpt lat="48.85492" lon="2.35302">
        <ele>88.7</ele>
        <time>2015-02-23T19:22:27.235Z</time>
      </trkpt>
      <trkpt lat="48.85491" lon="2.35306">
        <ele>88.7</ele>
        <time>2015-02-23T19:22:28.291Z</time>
      </trkpt>
      <trkpt lat="48.85486" lon="2.35315">
        <ele>88.4</ele>
        <time>2015-02-23T19:22:31.286Z</time>
      </trkpt>
      <trkpt lat="48.85485" lon="2.35319">
        <ele>88.3</ele>
        <time>2015-02-23T19:22:32.296Z</time>
      </trkpt>
      <trkpt lat="48.8548" lon="2.3533">
        <ele>87.8</ele>
        <time>2015-02-23T19:22:35.206Z</time>
      </trkpt>
      <trkpt lat="48.85478" lon="2.35332">
        <ele>87.8</ele>
        <time>2015-02-23T19:22:36.228Z</time>
      </trkpt>
      <trkpt lat="48.8547" lon="2.35339">
        <ele>87.7</ele>
        <time>2015-02-23T19:22:39.258Z</time>
      </trkpt>
      <trkpt lat="48.85468" lon="2.35342">
        <ele>87.6</ele>
        <time>2015-02-23T19:22:40.246Z</time>
      </trkpt>
      <trkpt lat="48.85465" lon="2.35352">
        <ele>88</ele>
        <time>2015-02-23T19:22:43.314Z</time>
      </trkpt>
      <trkpt lat="48.85464" lon="2.35356">
        <ele>87.9</ele>
        <time>2015-02-23T19:22:44.232Z</time>
      </trkpt>
      <trkpt lat="48.85459" lon="2.35365">
        <ele>87.8</ele>
        <time>2015-02-23T19:22:48.255Z</time>
      </trkpt>
      <trkpt lat="48.85459" lon="2.35367">
        <ele>87.9</ele>
        <time>2015-02-23T19:22:49.346Z</time>
      </trkpt>
      <trkpt lat="48.85454" lon="2.35375">
        <ele>87.6</ele>
        <time>2015-02-23T19:22:52.203Z</time>
      </trkpt>
      <trkpt lat="48.85452" lon="2.35377">
        <ele>87.6</ele>
        <time>2015-02-23T19:22:53.238Z</time>
      </trkpt>
      <trkpt lat="48.85447" lon="2.35388">
        <ele>87.6</ele>
        <time>2015-02-23T19:22:56.245Z</time>
      </trkpt>
      <trkpt lat="48.85446" lon="2.35391">
        <ele>87.7</ele>
        <time>2015-02-23T19:22:57.240Z</time>
      </trkpt>
      <trkpt lat="48.85442" lon="2.35403">
        <ele>88.1</ele>
        <time>2015-02-23T19:23:01.245Z</time>
      </trkpt>
      <trkpt lat="48.85442" lon="2.35405">
        <ele>87.6</ele>
        <time>2015-02-23T19:23:02.249Z</time>
      </trkpt>
      <trkpt lat="48.85439" lon="2.35418">
        <ele>87.2</ele>
        <time>2015-02-23T19:23:07.264Z</time>
      </trkpt>
      <trkpt lat="48.85438" lon="2.3542">
        <ele>86.7</ele>
        <time>2015-02-23T19:23:08.375Z</time>
      </trkpt>
      <trkpt lat="48.85433" lon="2.35428">
        <ele>85.6</ele>
        <time>2015-02-23T19:23:11.218Z</time>
      </trkpt>
      <trkpt lat="48.85431" lon="2.35432">
        <ele>85.3</ele>
        <time>2015-02-23T19:23:12.222Z</time>
      </trkpt>
      <trkpt lat="48.85427" lon="2.35439">
        <ele>85.5</ele>
        <time>2015-02-23T19:23:14.266Z</time>
      </trkpt>
      <trkpt lat="48.85425" lon="2.35443">
        <ele>85.7</ele>
        <time>2015-02-23T19:23:15.275Z</time>
      </trkpt>
      <trkpt lat="48.85419" lon="2.35451">
        <ele>85.7</ele>
        <time>2015-02-23T19:23:17.206Z</time>
      </trkpt>
      <trkpt lat="48.85416" lon="2.35455">
        <ele>85.7</ele>
        <time>2015-02-23T19:23:18.215Z</time>
      </trkpt>
      <trkpt lat="48.85411" lon="2.3546">
        <ele>85.3</ele>
        <time>2015-02-23T19:23:19.234Z</time>
      </trkpt>
      <trkpt lat="48.85407" lon="2.35465">
        <ele>85.1</ele>
        <time>2015-02-23T19:23:20.243Z</time>
      </trkpt>
      <trkpt lat="48.85404" lon="2.35472">
        <ele>84.9</ele>
        <time>2015-02-23T19:23:21.257Z</time>
      </trkpt>
      <trkpt lat="48.85402" lon="2.35479">
        <ele>84.7</ele>
        <time>2015-02-23T19:23:22.267Z</time>
      </trkpt>
      <trkpt lat="48.854" lon="2.35486">
        <ele>84.7</ele>
        <time>2015-02-23T19:23:23.284Z</time>
      </trkpt>
      <trkpt lat="48.85399" lon="2.35493">
        <ele>84.9</ele>
        <time>2015-02-23T19:23:24.287Z</time>
      </trkpt>
      <trkpt lat="48.85396" lon="2.35499">
        <ele>85.1</ele>
        <time>2015-02-23T19:23:25.296Z</time>
      </trkpt>
      <trkpt lat="48.85394" lon="2.35506">
        <ele>85.2</ele>
        <time>2015-02-23T19:23:26.196Z</time>
      </trkpt>
      <trkpt lat="48.85392" lon="2.35513">
        <ele>85.3</ele>
        <time>2015-02-23T19:23:27.196Z</time>
      </trkpt>
      <trkpt lat="48.8539" lon="2.3552">
        <ele>85.3</ele>
        <time>2015-02-23T19:23:28.214Z</time>
      </trkpt>
      <trkpt lat="48.85388" lon="2.35528">
        <ele>85.1</ele>
        <time>2015-02-23T19:23:29.214Z</time>
      </trkpt>
      <trkpt lat="48.85386" lon="2.35535">
        <ele>84.8</ele>
        <time>2015-02-23T19:23:30.229Z</time>
      </trkpt>
      <trkpt lat="48.85383" lon="2.35542">
        <ele>84.5</ele>
        <time>2015-02-23T19:23:31.243Z</time>
      </trkpt>
      <trkpt lat="48.85381" lon="2.35549">
        <ele>84.3</ele>
        <time>2015-02-23T19:23:32.250Z</time>
      </trkpt>
      <trkpt lat="48.85379" lon="2.35556">
        <ele>84.2</ele>
        <time>2015-02-23T19:23:33.284Z</time>
      </trkpt>
      <trkpt lat="48.85377" lon="2.35563">
        <ele>84.1</ele>
        <time>2015-02-23T19:23:34.194Z</time>
      </trkpt>
      <trkpt lat="48.85374" lon="2.35575">
        <ele>84.4</ele>
        <time>2015-02-23T19:23:36.209Z</time>
      </trkpt>
      <trkpt lat="48.85373" lon="2.35582">
        <ele>84.5</ele>
        <time>2015-02-23T19:23:37.266Z</time>
      </trkpt>
      <trkpt lat="48.85369" lon="2.35593">
        <ele>84.1</ele>
        <time>2015-02-23T19:23:39.214Z</time>
      </trkpt>
      <trkpt lat="48.85368" lon="2.35599">
        <ele>84.3</ele>
        <time>2015-02-23T19:23:40.380Z</time>
      </trkpt>
      <trkpt lat="48.85365" lon="2.35609">
        <ele>84.2</ele>
        <time>2015-02-23T19:23:42.222Z</time>
      </trkpt>
      <trkpt lat="48.85365" lon="2.35614">
        <ele>84.3</ele>
        <time>2015-02-23T19:23:43.271Z</time>
      </trkpt>
      <trkpt lat="48.85361" lon="2.35624">
        <ele>84</ele>
        <time>2015-02-23T19:23:45.215Z</time>
      </trkpt>
      <trkpt lat="48.8536" lon="2.35628">
        <ele>83.8</ele>
        <time>2015-02-23T19:23:46.242Z</time>
      </trkpt>
      <trkpt lat="48.85357" lon="2.35637">
        <ele>83.4</ele>
        <time>2015-02-23T19:23:48.261Z</time>
      </trkpt>
      <trkpt lat="48.85356" lon="2.35642">
        <ele>83.4</ele>
        <time>2015-02-23T19:23:49.277Z</time>
      </trkpt>
      <trkpt lat="48.85352" lon="2.35652">
        <ele>83.3</ele>
        <time>2015-02-23T19:23:51.310Z</time>
      </trkpt>
      <trkpt lat="48.85351" lon="2.35657">
        <ele>83.5</ele>
        <time>2015-02-23T19:23:52.278Z</time>
      </trkpt>
      <trkpt lat="48.85347" lon="2.35669">
        <ele>83.7</ele>
        <time>2015-02-23T19:23:54.265Z</time>
      </trkpt>
      <trkpt lat="48.85346" lon="2.35674">
        <ele>83.8</ele>
        <time>2015-02-23T19:23:55.231Z</time>
      </trkpt>
      <trkpt lat="48.85342" lon="2.35684">
        <ele>84</ele>
        <time>2015-02-23T19:23:57.220Z</time>
      </trkpt>
      <trkpt lat="48.85341" lon="2.35689">
        <ele>84.3</ele>
        <time>2015-02-23T19:23:58.236Z</time>
      </trkpt>
      <trkpt lat="48.85338" lon="2.357">
        <ele>84.4</ele>
        <time>2015-02-23T19:24:00.190Z</time>
      </trkpt>
      <trkpt lat="48.85337" lon="2.35705">
        <ele>84.1</ele>
        <time>2015-02-23T19:24:01.274Z</time>
      </trkpt>
      <trkpt lat="48.85334" lon="2.35716">
        <ele>84.7</ele>
        <time>2015-02-23T19:24:03.291Z</time>
      </trkpt>
      <trkpt lat="48.85335" lon="2.35726">
        <ele>86.4</ele>
        <time>2015-02-23T19:24:04.304Z</time>
      </trkpt>
      <trkpt lat="48.85332" lon="2.35736">
        <ele>86.4</ele>
        <time>2015-02-23T19:24:06.261Z</time>
      </trkpt>
      <trkpt lat="48.8533" lon="2.35741">
        <ele>86.4</ele>
        <time>2015-02-23T19:24:07.320Z</time>
      </trkpt>
      <trkpt lat="48.85328" lon="2.35749">
        <ele>86.4</ele>
        <time>2015-02-23T19:24:09.216Z</time>
      </trkpt>
      <trkpt lat="48.85326" lon="2.35753">
        <ele>86.4</ele>
        <time>2015-02-23T19:24:10.239Z</time>
      </trkpt>
      <trkpt lat="48.85325" lon="2.35758">
        <ele>86.3</ele>
        <time>2015-02-23T19:24:11.210Z</time>
      </trkpt>
      <trkpt lat="48.85319" lon="2.35789">
        <ele>86</ele>
        <time>2015-02-23T19:24:19.247Z</time>
      </trkpt>
      <trkpt lat="48.85315" lon="2.35796">
        <ele>85.5</ele>
        <time>2015-02-23T19:24:20.764Z</time>
      </trkpt>
      <trkpt lat="48.85313" lon="2.358">
        <ele>85.3</ele>
        <time>2015-02-23T19:24:21.279Z</time>
      </trkpt>
      <trkpt lat="48.8531" lon="2.35806">
        <ele>85.2</ele>
        <time>2015-02-23T19:24:22.211Z</time>
      </trkpt>
      <trkpt lat="48.85307" lon="2.35811">
        <ele>85.5</ele>
        <time>2015-02-23T19:24:23.224Z</time>
      </trkpt>
      <trkpt lat="48.85302" lon="2.35821">
        <ele>87</ele>
        <time>2015-02-23T19:24:25.248Z</time>
      </trkpt>
      <trkpt lat="48.853" lon="2.35826">
        <ele>87.4</ele>
        <time>2015-02-23T19:24:26.244Z</time>
      </trkpt>
      <trkpt lat="48.85295" lon="2.35836">
        <ele>87.8</ele>
        <time>2015-02-23T19:24:28.274Z</time>
      </trkpt>
      <trkpt lat="48.85292" lon="2.35842">
        <ele>87.9</ele>
        <time>2015-02-23T19:24:29.353Z</time>
      </trkpt>
      <trkpt lat="48.85288" lon="2.35847">
        <ele>87.7</ele>
        <time>2015-02-23T19:24:30.955Z</time>
      </trkpt>
      <trkpt lat="48.85285" lon="2.35852">
        <ele>87.8</ele>
        <time>2015-02-23T19:24:31.246Z</time>
      </trkpt>
      <trkpt lat="48.8528" lon="2.35861">
        <ele>87.5</ele>
        <time>2015-02-23T19:24:33.254Z</time>
      </trkpt>
      <trkpt lat="48.85278" lon="2.35866">
        <ele>86.9</ele>
        <time>2015-02-23T19:24:34.174Z</time>
      </trkpt>
      <trkpt lat="48.85273" lon="2.35875">
        <ele>85.8</ele>
        <time>2015-02-23T19:24:36.181Z</time>
      </trkpt>
      <trkpt lat="48.85271" lon="2.35879">
        <ele>85.7</ele>
        <time>2015-02-23T19:24:37.294Z</time>
      </trkpt>
      <trkpt lat="48.85268" lon="2.35888">
        <ele>84.8</ele>
        <time>2015-02-23T19:24:39.231Z</time>
      </trkpt>
      <trkpt lat="48.85265" lon="2.35893">
        <ele>84.4</ele>
        <time>2015-02-23T19:24:40.221Z</time>
      </trkpt>
      <trkpt lat="48.85262" lon="2.35903">
        <ele>84.3</ele>
        <time>2015-02-23T19:24:42.235Z</time>
      </trkpt>
      <trkpt lat="48.8526" lon="2.35907">
        <ele>84.3</ele>
        <time>2015-02-23T19:24:43.296Z</time>
      </trkpt>
      <trkpt lat="48.85256" lon="2.35915">
        <ele>85</ele>
        <time>2015-02-23T19:24:45.248Z</time>
      </trkpt>
      <trkpt lat="48.85256" lon="2.3592">
        <ele>85.6</ele>
        <time>2015-02-23T19:24:46.269Z</time>
      </trkpt>
      <trkpt lat="48.85254" lon="2.35932">
        <ele>87.6</ele>
        <time>2015-02-23T19:24:50.474Z</time>
      </trkpt>
      <trkpt lat="48.85253" lon="2.35934">
        <ele>87.7</ele>
        <time>2015-02-23T19:24:51.245Z</time>
      </trkpt>
      <trkpt lat="48.8525" lon="2.35946">
        <ele>86.5</ele>
        <time>2015-02-23T19:24:55.287Z</time>
      </trkpt>
      <trkpt lat="48.85248" lon="2.3595">
        <ele>86.5</ele>
        <time>2015-02-23T19:24:56.217Z</time>
      </trkpt>
      <trkpt lat="48.85244" lon="2.3596">
        <ele>85.9</ele>
        <time>2015-02-23T19:24:59.241Z</time>
      </trkpt>
      <trkpt lat="48.85242" lon="2.35964">
        <ele>85.9</ele>
        <time>2015-02-23T19:25:00.221Z</time>
      </trkpt>
      <trkpt lat="48.85238" lon="2.35973">
        <ele>85.4</ele>
        <time>2015-02-23T19:25:02.351Z</time>
      </trkpt>
      <trkpt lat="48.85236" lon="2.35978">
        <ele>85.2</ele>
        <time>2015-02-23T19:25:03.224Z</time>
      </trkpt>
      <trkpt lat="48.85232" lon="2.35986">
        <ele>84.4</ele>
        <time>2015-02-23T19:25:05.251Z</time>
      </trkpt>
      <trkpt lat="48.8523" lon="2.3599">
        <ele>84.3</ele>
        <time>2015-02-23T19:25:06.254Z</time>
      </trkpt>
      <trkpt lat="48.85227" lon="2.35999">
        <ele>84.3</ele>
        <time>2015-02-23T19:25:08.283Z</time>
      </trkpt>
      <trkpt lat="48.85225" lon="2.36004">
        <ele>84.1</ele>
        <time>2015-02-23T19:25:09.296Z</time>
      </trkpt>
      <trkpt lat="48.85222" lon="2.36013">
        <ele>83.9</ele>
        <time>2015-02-23T19:25:11.190Z</time>
      </trkpt>
      <trkpt lat="48.8522" lon="2.36018">
        <ele>83.9</ele>
        <time>2015-02-23T19:25:12.217Z</time>
      </trkpt>
      <trkpt lat="48.85217" lon="2.36027">
        <ele>84.2</ele>
        <time>2015-02-23T19:25:14.243Z</time>
      </trkpt>
      <trkpt lat="48.85215" lon="2.36032">
        <ele>84.1</ele>
        <time>2015-02-23T19:25:15.250Z</time>
      </trkpt>
      <trkpt lat="48.85212" lon="2.36043">
        <ele>84.1</ele>
        <time>2015-02-23T19:25:17.303Z</time>
      </trkpt>
      <trkpt lat="48.85209" lon="2.36048">
        <ele>84.2</ele>
        <time>2015-02-23T19:25:18.219Z</time>
      </trkpt>
      <trkpt lat="48.85205" lon="2.36056">
        <ele>84.4</ele>
        <time>2015-02-23T19:25:20.260Z</time>
      </trkpt>
      <trkpt lat="48.85203" lon="2.3606">
        <ele>84.4</ele>
        <time>2015-02-23T19:25:21.254Z</time>
      </trkpt>
      <trkpt lat="48.85199" lon="2.36068">
        <ele>84.5</ele>
        <time>2015-02-23T19:25:23.286Z</time>
      </trkpt>
      <trkpt lat="48.85197" lon="2.36071">
        <ele>84.4</ele>
        <time>2015-02-23T19:25:24.302Z</time>
      </trkpt>
      <trkpt lat="48.85189" lon="2.36079">
        <ele>84.1</ele>
        <time>2015-02-23T19:25:27.242Z</time>
      </trkpt>
      <trkpt lat="48.85187" lon="2.36083">
        <ele>83.8</ele>
        <time>2015-02-23T19:25:28.260Z</time>
      </trkpt>
      <trkpt lat="48.85181" lon="2.36087">
        <ele>83.7</ele>
        <time>2015-02-23T19:25:30.282Z</time>
      </trkpt>
      <trkpt lat="48.85178" lon="2.36089">
        <ele>83.6</ele>
        <time>2015-02-23T19:25:31.306Z</time>
      </trkpt>
      <trkpt lat="48.8517" lon="2.36093">
        <ele>84.1</ele>
        <time>2015-02-23T19:25:34.263Z</time>
      </trkpt>
      <trkpt lat="48.85166" lon="2.36093">
        <ele>84.3</ele>
        <time>2015-02-23T19:25:35.200Z</time>
      </trkpt>
      <trkpt lat="48.85161" lon="2.36095">
        <ele>84.4</ele>
        <time>2015-02-23T19:25:37.245Z</time>
      </trkpt>
      <trkpt lat="48.85157" lon="2.36096">
        <ele>84.5</ele>
        <time>2015-02-23T19:25:38.283Z</time>
      </trkpt>
      <trkpt lat="48.8515" lon="2.36101">
        <ele>85.1</ele>
        <time>2015-02-23T19:25:40.220Z</time>
      </trkpt>
      <trkpt lat="48.85147" lon="2.36102">
        <ele>85.1</ele>
        <time>2015-02-23T19:25:41.249Z</time>
      </trkpt>
      <trkpt lat="48.85141" lon="2.36104">
        <ele>85.1</ele>
        <time>2015-02-23T19:25:43.293Z</time>
      </trkpt>
      <trkpt lat="48.85138" lon="2.36105">
        <ele>85.4</ele>
        <time>2015-02-23T19:25:44.189Z</time>
      </trkpt>
      <trkpt lat="48.85131" lon="2.36106">
        <ele>85.7</ele>
        <time>2015-02-23T19:25:46.217Z</time>
      </trkpt>
      <trkpt lat="48.85127" lon="2.36106">
        <ele>85.5</ele>
        <time>2015-02-23T19:25:47.217Z</time>
      </trkpt>
      <trkpt lat="48.85119" lon="2.36106">
        <ele>85.6</ele>
        <time>2015-02-23T19:25:49.274Z</time>
      </trkpt>
      <trkpt lat="48.85115" lon="2.36106">
        <ele>85.7</ele>
        <time>2015-02-23T19:25:50.265Z</time>
      </trkpt>
      <trkpt lat="48.85108" lon="2.36106">
        <ele>85.9</ele>
        <time>2015-02-23T19:25:52.409Z</time>
      </trkpt>
      <trkpt lat="48.85104" lon="2.36106">
        <ele>85.9</ele>
        <time>2015-02-23T19:25:53.214Z</time>
      </trkpt>
      <trkpt lat="48.85097" lon="2.36106">
        <ele>85.8</ele>
        <time>2015-02-23T19:25:55.291Z</time>
      </trkpt>
      <trkpt lat="48.85094" lon="2.36105">
        <ele>86.2</ele>
        <time>2015-02-23T19:25:56.310Z</time>
      </trkpt>
      <trkpt lat="48.85088" lon="2.36105">
        <ele>86.3</ele>
        <time>2015-02-23T19:25:58.257Z</time>
      </trkpt>
      <trkpt lat="48.85084" lon="2.36104">
        <ele>86.3</ele>
        <time>2015-02-23T19:25:59.292Z</time>
      </trkpt>
      <trkpt lat="48.85067" lon="2.36098">
        <ele>86.3</ele>
        <time>2015-02-23T19:26:04.213Z</time>
      </trkpt>
      <trkpt lat="48.8506" lon="2.36097">
        <ele>86.5</ele>
        <time>2015-02-23T19:26:07.608Z</time>
      </trkpt>
      <trkpt lat="48.85057" lon="2.36097">
        <ele>86.7</ele>
        <time>2015-02-23T19:26:08.306Z</time>
      </trkpt>
      <trkpt lat="48.85049" lon="2.361">
        <ele>87.2</ele>
        <time>2015-02-23T19:26:10.225Z</time>
      </trkpt>
      <trkpt lat="48.85046" lon="2.36101">
        <ele>87.5</ele>
        <time>2015-02-23T19:26:11.299Z</time>
      </trkpt>
      <trkpt lat="48.8504" lon="2.36102">
        <ele>87.9</ele>
        <time>2015-02-23T19:26:13.230Z</time>
      </trkpt>
      <trkpt lat="48.85037" lon="2.36102">
        <ele>87.8</ele>
        <time>2015-02-23T19:26:14.244Z</time>
      </trkpt>
      <trkpt lat="48.8503" lon="2.36102">
        <ele>87.2</ele>
        <time>2015-02-23T19:26:16.177Z</time>
      </trkpt>
      <trkpt lat="48.85026" lon="2.36102">
        <ele>87.2</ele>
        <time>2015-02-23T19:26:17.191Z</time>
      </trkpt>
      <trkpt lat="48.8502" lon="2.36102">
        <ele>88</ele>
        <time>2015-02-23T19:26:19.209Z</time>
      </trkpt>
      <trkpt lat="48.85016" lon="2.36102">
        <ele>88.6</ele>
        <time>2015-02-23T19:26:20.224Z</time>
      </trkpt>
      <trkpt lat="48.85008" lon="2.36104">
        <ele>88.9</ele>
        <time>2015-02-23T19:26:22.266Z</time>
      </trkpt>
      <trkpt lat="48.85004" lon="2.36105">
        <ele>90.3</ele>
        <time>2015-02-23T19:26:23.279Z</time>
      </trkpt>
      <trkpt lat="48.84997" lon="2.36107">
        <ele>91.4</ele>
        <time>2015-02-23T19:26:25.204Z</time>
      </trkpt>
      <trkpt lat="48.84993" lon="2.36108">
        <ele>91.6</ele>
        <time>2015-02-23T19:26:26.214Z</time>
      </trkpt>
      <trkpt lat="48.84986" lon="2.3611">
        <ele>93.3</ele>
        <time>2015-02-23T19:26:28.182Z</time>
      </trkpt>
      <trkpt lat="48.84983" lon="2.36111">
        <ele>93.6</ele>
        <time>2015-02-23T19:26:29.200Z</time>
      </trkpt>
      <trkpt lat="48.84976" lon="2.36115">
        <ele>93.3</ele>
        <time>2015-02-23T19:26:31.235Z</time>
      </trkpt>
      <trkpt lat="48.84974" lon="2.36116">
        <ele>92.7</ele>
        <time>2015-02-23T19:26:32.249Z</time>
      </trkpt>
      <trkpt lat="48.84966" lon="2.3612">
        <ele>90.2</ele>
        <time>2015-02-23T19:26:35.188Z</time>
      </trkpt>
      <trkpt lat="48.84963" lon="2.36121">
        <ele>90.4</ele>
        <time>2015-02-23T19:26:36.220Z</time>
      </trkpt>
      <trkpt lat="48.84958" lon="2.36125">
        <ele>90.2</ele>
        <time>2015-02-23T19:26:38.170Z</time>
      </trkpt>
      <trkpt lat="48.84954" lon="2.36127">
        <ele>90</ele>
        <time>2015-02-23T19:26:39.182Z</time>
      </trkpt>
      <trkpt lat="48.84947" lon="2.36132">
        <ele>90</ele>
        <time>2015-02-23T19:26:42.155Z</time>
      </trkpt>
      <trkpt lat="48.84945" lon="2.36133">
        <ele>90</ele>
        <time>2015-02-23T19:26:43.182Z</time>
      </trkpt>
      <trkpt lat="48.84937" lon="2.36136">
        <ele>90</ele>
        <time>2015-02-23T19:26:50.259Z</time>
      </trkpt>
      <trkpt lat="48.84935" lon="2.36137">
        <ele>89.8</ele>
        <time>2015-02-23T19:26:51.256Z</time>
      </trkpt>
      <trkpt lat="48.84931" lon="2.36146">
        <ele>89.7</ele>
        <time>2015-02-23T19:26:55.234Z</time>
      </trkpt>
      <trkpt lat="48.84929" lon="2.36149">
        <ele>89.4</ele>
        <time>2015-02-23T19:26:56.228Z</time>
      </trkpt>
      <trkpt lat="48.84924" lon="2.36153">
        <ele>91.1</ele>
        <time>2015-02-23T19:26:59.196Z</time>
      </trkpt>
      <trkpt lat="48.84922" lon="2.36153">
        <ele>91.4</ele>
        <time>2015-02-23T19:27:00.202Z</time>
      </trkpt>
      <trkpt lat="48.84921" lon="2.36154">
        <ele>91.6</ele>
        <time>2015-02-23T19:27:01.300Z</time>
      </trkpt>
      <trkpt lat="48.84916" lon="2.36163">
        <ele>90.7</ele>
        <time>2015-02-23T19:27:06.248Z</time>
      </trkpt>
      <trkpt lat="48.84915" lon="2.36165">
        <ele>91.3</ele>
        <time>2015-02-23T19:27:07.365Z</time>
      </trkpt>
      <trkpt lat="48.84915" lon="2.36169">
        <ele>88.8</ele>
        <time>2015-02-23T19:27:11.277Z</time>
      </trkpt>
      <trkpt lat="48.84915" lon="2.36169">
        <ele>87.9</ele>
        <time>2015-02-23T19:27:12.200Z</time>
      </trkpt>
      <trkpt lat="48.84915" lon="2.36169">
        <ele>87</ele>
        <time>2015-02-23T19:27:13.232Z</time>
      </trkpt>
      <trkpt lat="48.84916" lon="2.36169">
        <ele>86.7</ele>
        <time>2015-02-23T19:27:14.245Z</time>
      </trkpt>
      <trkpt lat="48.84924" lon="2.36168">
        <ele>82.1</ele>
        <time>2015-02-23T19:27:30.220Z</time>
      </trkpt>
      <trkpt lat="48.84924" lon="2.36168">
        <ele>82</ele>
        <time>2015-02-23T19:27:31.233Z</time>
      </trkpt>
      <trkpt lat="48.84924" lon="2.36168">
        <ele>81.7</ele>
        <time>2015-02-23T19:27:32.190Z</time>
      </trkpt>
      <trkpt lat="48.84925" lon="2.36167">
        <ele>81.7</ele>
        <time>2015-02-23T19:27:33.192Z</time>
      </trkpt>
      <trkpt lat="48.84925" lon="2.36168">
        <ele>82.2</ele>
        <time>2015-02-23T19:27:36.318Z</time>
      </trkpt>
      <trkpt lat="48.84926" lon="2.36167">
        <ele>82.4</ele>
        <time>2015-02-23T19:27:37.243Z</time>
      </trkpt>
      <trkpt lat="48.84923" lon="2.3618">
        <ele>82.3</ele>
        <time>2015-02-23T19:27:43.237Z</time>
      </trkpt>
      <trkpt lat="48.84922" lon="2.36182">
        <ele>82.8</ele>
        <time>2015-02-23T19:27:44.235Z</time>
      </trkpt>
      <trkpt lat="48.84914" lon="2.36189">
        <ele>83.4</ele>
        <time>2015-02-23T19:27:47.274Z</time>
      </trkpt>
      <trkpt lat="48.84912" lon="2.36192">
        <ele>83.5</ele>
        <time>2015-02-23T19:27:48.205Z</time>
      </trkpt>
      <trkpt lat="48.84909" lon="2.362">
        <ele>84.6</ele>
        <time>2015-02-23T19:27:50.193Z</time>
      </trkpt>
      <trkpt lat="48.84908" lon="2.36204">
        <ele>85</ele>
        <time>2015-02-23T19:27:51.202Z</time>
      </trkpt>
      <trkpt lat="48.84904" lon="2.36213">
        <ele>85.9</ele>
        <time>2015-02-23T19:27:53.194Z</time>
      </trkpt>
      <trkpt lat="48.84902" lon="2.36217">
        <ele>86.3</ele>
        <time>2015-02-23T19:27:54.265Z</time>
      </trkpt>
      <trkpt lat="48.84895" lon="2.36224">
        <ele>86.7</ele>
        <time>2015-02-23T19:27:57.216Z</time>
      </trkpt>
      <trkpt lat="48.84893" lon="2.36227">
        <ele>86.8</ele>
        <time>2015-02-23T19:27:58.212Z</time>
      </trkpt>
      <trkpt lat="48.84886" lon="2.36233">
        <ele>88.2</ele>
        <time>2015-02-23T19:28:01.271Z</time>
      </trkpt>
      <trkpt lat="48.84884" lon="2.36237">
        <ele>88</ele>
        <time>2015-02-23T19:28:02.281Z</time>
      </trkpt>
      <trkpt lat="48.84879" lon="2.36244">
        <ele>88.3</ele>
        <time>2015-02-23T19:28:04.243Z</time>
      </trkpt>
      <trkpt lat="48.84877" lon="2.36247">
        <ele>88.2</ele>
        <time>2015-02-23T19:28:05.276Z</time>
      </trkpt>
      <trkpt lat="48.84872" lon="2.36254">
        <ele>88.4</ele>
        <time>2015-02-23T19:28:07.243Z</time>
      </trkpt>
      <trkpt lat="48.84871" lon="2.36258">
        <ele>89</ele>
        <time>2015-02-23T19:28:08.280Z</time>
      </trkpt>
      <trkpt lat="48.84865" lon="2.36268">
        <ele>90.2</ele>
        <time>2015-02-23T19:28:11.185Z</time>
      </trkpt>
      <trkpt lat="48.84862" lon="2.36271">
        <ele>90.4</ele>
        <time>2015-02-23T19:28:12.242Z</time>
      </trkpt>
      <trkpt lat="48.84856" lon="2.36281">
        <ele>91.2</ele>
        <time>2015-02-23T19:28:15.185Z</time>
      </trkpt>
      <trkpt lat="48.84855" lon="2.36284">
        <ele>91.3</ele>
        <time>2015-02-23T19:28:16.194Z</time>
      </trkpt>
      <trkpt lat="48.84849" lon="2.36292">
        <ele>91</ele>
        <time>2015-02-23T19:28:19.329Z</time>
      </trkpt>
      <trkpt lat="48.84847" lon="2.36295">
        <ele>91.2</ele>
        <time>2015-02-23T19:28:20.217Z</time>
      </trkpt>
      <trkpt lat="48.84842" lon="2.36302">
        <ele>91.6</ele>
        <time>2015-02-23T19:28:22.295Z</time>
      </trkpt>
      <trkpt lat="48.84839" lon="2.36306">
        <ele>91.5</ele>
        <time>2015-02-23T19:28:23.217Z</time>
      </trkpt>
      <trkpt lat="48.84832" lon="2.36315">
        <ele>91</ele>
        <time>2015-02-23T19:28:26.268Z</time>
      </trkpt>
      <trkpt lat="48.8483" lon="2.36319">
        <ele>90.9</ele>
        <time>2015-02-23T19:28:27.293Z</time>
      </trkpt>
      <trkpt lat="48.84827" lon="2.36327">
        <ele>90.6</ele>
        <time>2015-02-23T19:28:29.265Z</time>
      </trkpt>
      <trkpt lat="48.84824" lon="2.3633">
        <ele>90.5</ele>
        <time>2015-02-23T19:28:30.348Z</time>
      </trkpt>
      <trkpt lat="48.84819" lon="2.36335">
        <ele>90.5</ele>
        <time>2015-02-23T19:28:32.213Z</time>
      </trkpt>
      <trkpt lat="48.84817" lon="2.36338">
        <ele>90.5</ele>
        <time>2015-02-23T19:28:33.212Z</time>
      </trkpt>
      <trkpt lat="48.8481" lon="2.36346">
        <ele>90.4</ele>
        <time>2015-02-23T19:28:36.228Z</time>
      </trkpt>
      <trkpt lat="48.84808" lon="2.3635">
        <ele>90.5</ele>
        <time>2015-02-23T19:28:37.284Z</time>
      </trkpt>
      <trkpt lat="48.84803" lon="2.3636">
        <ele>90.5</ele>
        <time>2015-02-23T19:28:40.202Z</time>
      </trkpt>
      <trkpt lat="48.84801" lon="2.36363">
        <ele>90.6</ele>
        <time>2015-02-23T19:28:41.221Z</time>
      </trkpt>
      <trkpt lat="48.84798" lon="2.36372">
        <ele>91</ele>
        <time>2015-02-23T19:28:44.263Z</time>
      </trkpt>
      <trkpt lat="48.84797" lon="2.36377">
        <ele>91.3</ele>
        <time>2015-02-23T19:28:45.286Z</time>
      </trkpt>
      <trkpt lat="48.84794" lon="2.36389">
        <ele>91.9</ele>
        <time>2015-02-23T19:28:49.365Z</time>
      </trkpt>
      <trkpt lat="48.84793" lon="2.36392">
        <ele>92.1</ele>
        <time>2015-02-23T19:28:50.204Z</time>
      </trkpt>
      <trkpt lat="48.84787" lon="2.36398">
        <ele>91.8</ele>
        <time>2015-02-23T19:28:53.286Z</time>
      </trkpt>
      <trkpt lat="48.84785" lon="2.36402">
        <ele>91.8</ele>
        <time>2015-02-23T19:28:54.242Z</time>
      </trkpt>
      <trkpt lat="48.84782" lon="2.36408">
        <ele>91.8</ele>
        <time>2015-02-23T19:28:56.274Z</time>
      </trkpt>
      <trkpt lat="48.84779" lon="2.36413">
        <ele>91.7</ele>
        <time>2015-02-23T19:28:57.283Z</time>
      </trkpt>
      <trkpt lat="48.84774" lon="2.36419">
        <ele>91.6</ele>
        <time>2015-02-23T19:28:59.192Z</time>
      </trkpt>
      <trkpt lat="48.84772" lon="2.36421">
        <ele>91.5</ele>
        <time>2015-02-23T19:29:00.233Z</time>
      </trkpt>
      <trkpt lat="48.84765" lon="2.36429">
        <ele>91.4</ele>
        <time>2015-02-23T19:29:03.190Z</time>
      </trkpt>
      <trkpt lat="48.84764" lon="2.36433">
        <ele>91.1</ele>
        <time>2015-02-23T19:29:04.158Z</time>
      </trkpt>
      <trkpt lat="48.84757" lon="2.36442">
        <ele>90.6</ele>
        <time>2015-02-23T19:29:07.278Z</time>
      </trkpt>
      <trkpt lat="48.84755" lon="2.36445">
        <ele>90.2</ele>
        <time>2015-02-23T19:29:08.162Z</time>
      </trkpt>
      <trkpt lat="48.84752" lon="2.36456">
        <ele>87.1</ele>
        <time>2015-02-23T19:29:10.180Z</time>
      </trkpt>
      <trkpt lat="48.84751" lon="2.3646">
        <ele>87.1</ele>
        <time>2015-02-23T19:29:11.239Z</time>
      </trkpt>
      <trkpt lat="48.84746" lon="2.36467">
        <ele>86.7</ele>
        <time>2015-02-23T19:29:14.178Z</time>
      </trkpt>
      <trkpt lat="48.84743" lon="2.3647">
        <ele>87</ele>
        <time>2015-02-23T19:29:15.191Z</time>
      </trkpt>
      <trkpt lat="48.84736" lon="2.36477">
        <ele>87.4</ele>
        <time>2015-02-23T19:29:18.208Z</time>
      </trkpt>
      <trkpt lat="48.84733" lon="2.3648">
        <ele>87.9</ele>
        <time>2015-02-23T19:29:19.274Z</time>
      </trkpt>
      <trkpt lat="48.84733" lon="2.36481">
        <ele>88</ele>
        <time>2015-02-23T19:29:20.200Z</time>
      </trkpt>
      <trkpt lat="48.84734" lon="2.3648">
        <ele>87.6</ele>
        <time>2015-02-23T19:29:21.193Z</time>
      </trkpt>
      <trkpt lat="48.84735" lon="2.3648">
        <ele>87.3</ele>
        <time>2015-02-23T19:29:22.209Z</time>
      </trkpt>
      <trkpt lat="48.84741" lon="2.36489">
        <ele>84.3</ele>
        <time>2015-02-23T19:29:42.216Z</time>
      </trkpt>
      <trkpt lat="48.84742" lon="2.36492">
        <ele>84.2</ele>
        <time>2015-02-23T19:29:43.260Z</time>
      </trkpt>
      <trkpt lat="48.84743" lon="2.36505">
        <ele>83.7</ele>
        <time>2015-02-23T19:29:46.220Z</time>
      </trkpt>
      <trkpt lat="48.84745" lon="2.36509">
        <ele>83.2</ele>
        <time>2015-02-23T19:29:47.219Z</time>
      </trkpt>
      <trkpt lat="48.84747" lon="2.36522">
        <ele>82.3</ele>
        <time>2015-02-23T19:29:51.238Z</time>
      </trkpt>
      <trkpt lat="48.84746" lon="2.36525">
        <ele>82.5</ele>
        <time>2015-02-23T19:29:52.243Z</time>
      </trkpt>
      <trkpt lat="48.84744" lon="2.36536">
        <ele>82.8</ele>
        <time>2015-02-23T19:29:55.230Z</time>
      </trkpt>
      <trkpt lat="48.84743" lon="2.3654">
        <ele>82.9</ele>
        <time>2015-02-23T19:29:56.199Z</time>
      </trkpt>
      <trkpt lat="48.84739" lon="2.36551">
        <ele>83.7</ele>
        <time>2015-02-23T19:30:01.321Z</time>
      </trkpt>
      <trkpt lat="48.84738" lon="2.36554">
        <ele>83.9</ele>
        <time>2015-02-23T19:30:02.194Z</time>
      </trkpt>
      <trkpt lat="48.84734" lon="2.36565">
        <ele>84.5</ele>
        <time>2015-02-23T19:30:07.328Z</time>
      </trkpt>
      <trkpt lat="48.84732" lon="2.36568">
        <ele>84.5</ele>
        <time>2015-02-23T19:30:08.215Z</time>
      </trkpt>
      <trkpt lat="48.84726" lon="2.36576">
        <ele>84.8</ele>
        <time>2015-02-23T19:30:11.262Z</time>
      </trkpt>
      <trkpt lat="48.84724" lon="2.36579">
        <ele>84.9</ele>
        <time>2015-02-23T19:30:12.275Z</time>
      </trkpt>
      <trkpt lat="48.84718" lon="2.36586">
        <ele>84.8</ele>
        <time>2015-02-23T19:30:15.266Z</time>
      </trkpt>
      <trkpt lat="48.84716" lon="2.36589">
        <ele>84.9</ele>
        <time>2015-02-23T19:30:16.357Z</time>
      </trkpt>
      <trkpt lat="48.84709" lon="2.36596">
        <ele>85.1</ele>
        <time>2015-02-23T19:30:19.300Z</time>
      </trkpt>
      <trkpt lat="48.84707" lon="2.36599">
        <ele>85.1</ele>
        <time>2015-02-23T19:30:20.215Z</time>
      </trkpt>
      <trkpt lat="48.84701" lon="2.36606">
        <ele>85.1</ele>
        <time>2015-02-23T19:30:23.289Z</time>
      </trkpt>
      <trkpt lat="48.84699" lon="2.36608">
        <ele>85.2</ele>
        <time>2015-02-23T19:30:24.306Z</time>
      </trkpt>
      <trkpt lat="48.84692" lon="2.36614">
        <ele>85.4</ele>
        <time>2015-02-23T19:30:27.264Z</time>
      </trkpt>
      <trkpt lat="48.84691" lon="2.36616">
        <ele>85.6</ele>
        <time>2015-02-23T19:30:28.287Z</time>
      </trkpt>
      <trkpt lat="48.84685" lon="2.36621">
        <ele>85.9</ele>
        <time>2015-02-23T19:30:31.274Z</time>
      </trkpt>
      <trkpt lat="48.84682" lon="2.36623">
        <ele>86</ele>
        <time>2015-02-23T19:30:32.215Z</time>
      </trkpt>
      <trkpt lat="48.84675" lon="2.36628">
        <ele>86</ele>
        <time>2015-02-23T19:30:36.298Z</time>
      </trkpt>
      <trkpt lat="48.84673" lon="2.36629">
        <ele>86.3</ele>
        <time>2015-02-23T19:30:37.292Z</time>
      </trkpt>
      <trkpt lat="48.84666" lon="2.36634">
        <ele>87.2</ele>
        <time>2015-02-23T19:30:40.269Z</time>
      </trkpt>
      <trkpt lat="48.84663" lon="2.36635">
        <ele>87.4</ele>
        <time>2015-02-23T19:30:41.192Z</time>
      </trkpt>
      <trkpt lat="48.84654" lon="2.36639">
        <ele>88</ele>
        <time>2015-02-23T19:30:44.216Z</time>
      </trkpt>
      <trkpt lat="48.84651" lon="2.36641">
        <ele>88.2</ele>
        <time>2015-02-23T19:30:45.181Z</time>
      </trkpt>
      <trkpt lat="48.84646" lon="2.36647">
        <ele>88.7</ele>
        <time>2015-02-23T19:30:47.250Z</time>
      </trkpt>
      <trkpt lat="48.84643" lon="2.36648">
        <ele>88.8</ele>
        <time>2015-02-23T19:30:48.270Z</time>
      </trkpt>
      <trkpt lat="48.84638" lon="2.3665">
        <ele>88.8</ele>
        <time>2015-02-23T19:30:50.203Z</time>
      </trkpt>
      <trkpt lat="48.84635" lon="2.36652">
        <ele>88.9</ele>
        <time>2015-02-23T19:30:51.277Z</time>
      </trkpt>
      <trkpt lat="48.84627" lon="2.36655">
        <ele>89</ele>
        <time>2015-02-23T19:30:53.241Z</time>
      </trkpt>
      <trkpt lat="48.84624" lon="2.36657">
        <ele>89.1</ele>
        <time>2015-02-23T19:30:54.262Z</time>
      </trkpt>
      <trkpt lat="48.84617" lon="2.36657">
        <ele>89.1</ele>
        <time>2015-02-23T19:30:56.216Z</time>
      </trkpt>
      <trkpt lat="48.84613" lon="2.36656">
        <ele>89</ele>
        <time>2015-02-23T19:30:57.269Z</time>
      </trkpt>
      <trkpt lat="48.84605" lon="2.3666">
        <ele>88.6</ele>
        <time>2015-02-23T19:31:00.259Z</time>
      </trkpt>
      <trkpt lat="48.84604" lon="2.36663">
        <ele>88.5</ele>
        <time>2015-02-23T19:31:01.271Z</time>
      </trkpt>
      <trkpt lat="48.846" lon="2.36671">
        <ele>88.3</ele>
        <time>2015-02-23T19:31:03.215Z</time>
      </trkpt>
      <trkpt lat="48.84598" lon="2.36674">
        <ele>88.3</ele>
        <time>2015-02-23T19:31:04.249Z</time>
      </trkpt>
      <trkpt lat="48.84592" lon="2.36684">
        <ele>88.4</ele>
        <time>2015-02-23T19:31:07.338Z</time>
      </trkpt>
      <trkpt lat="48.8459" lon="2.36687">
        <ele>88.2</ele>
        <time>2015-02-23T19:31:08.213Z</time>
      </trkpt>
      <trkpt lat="48.84581" lon="2.3669">
        <ele>88.6</ele>
        <time>2015-02-23T19:31:12.218Z</time>
      </trkpt>
      <trkpt lat="48.84579" lon="2.3669">
        <ele>88.8</ele>
        <time>2015-02-23T19:31:13.417Z</time>
      </trkpt>
      <trkpt lat="48.84571" lon="2.36688">
        <ele>89.1</ele>
        <time>2015-02-23T19:31:16.216Z</time>
      </trkpt>
      <trkpt lat="48.84568" lon="2.36686">
        <ele>89.1</ele>
        <time>2015-02-23T19:31:17.242Z</time>
      </trkpt>
      <trkpt lat="48.8456" lon="2.36681">
        <ele>89.2</ele>
        <time>2015-02-23T19:31:20.294Z</time>
      </trkpt>
      <trkpt lat="48.84557" lon="2.36678">
        <ele>89.1</ele>
        <time>2015-02-23T19:31:21.178Z</time>
      </trkpt>
      <trkpt lat="48.84553" lon="2.36673">
        <ele>89</ele>
        <time>2015-02-23T19:31:23.301Z</time>
      </trkpt>
      <trkpt lat="48.8455" lon="2.3667">
        <ele>89</ele>
        <time>2015-02-23T19:31:24.180Z</time>
      </trkpt>
      <trkpt lat="48.84546" lon="2.36663">
        <ele>88.9</ele>
        <time>2015-02-23T19:31:26.245Z</time>
      </trkpt>
      <trkpt lat="48.84543" lon="2.3666">
        <ele>89</ele>
        <time>2015-02-23T19:31:27.273Z</time>
      </trkpt>
      <trkpt lat="48.84538" lon="2.36653">
        <ele>89.3</ele>
        <time>2015-02-23T19:31:29.202Z</time>
      </trkpt>
      <trkpt lat="48.84536" lon="2.36649">
        <ele>89.2</ele>
        <time>2015-02-23T19:31:30.253Z</time>
      </trkpt>
      <trkpt lat="48.8453" lon="2.3664">
        <ele>89.2</ele>
        <time>2015-02-23T19:31:33.285Z</time>
      </trkpt>
      <trkpt lat="48.84528" lon="2.36636">
        <ele>89</ele>
        <time>2015-02-23T19:31:34.209Z</time>
      </trkpt>
      <trkpt lat="48.84523" lon="2.36629">
        <ele>88.9</ele>
        <time>2015-02-23T19:31:36.212Z</time>
      </trkpt>
      <trkpt lat="48.84521" lon="2.36625">
        <ele>88.9</ele>
        <time>2015-02-23T19:31:37.259Z</time>
      </trkpt>
      <trkpt lat="48.84517" lon="2.36617">
        <ele>88.9</ele>
        <time>2015-02-23T19:31:39.206Z</time>
      </trkpt>
      <trkpt lat="48.84515" lon="2.36613">
        <ele>88.9</ele>
        <time>2015-02-23T19:31:40.211Z</time>
      </trkpt>
      <trkpt lat="48.84511" lon="2.36606">
        <ele>89</ele>
        <time>2015-02-23T19:31:42.241Z</time>
      </trkpt>
      <trkpt lat="48.84509" lon="2.36602">
        <ele>88.9</ele>
        <time>2015-02-23T19:31:43.351Z</time>
      </trkpt>
      <trkpt lat="48.84506" lon="2.36594">
        <ele>88.9</ele>
        <time>2015-02-23T19:31:45.250Z</time>
      </trkpt>
      <trkpt lat="48.84503" lon="2.36591">
        <ele>88.8</ele>
        <time>2015-02-23T19:31:46.181Z</time>
      </trkpt>
      <trkpt lat="48.845" lon="2.36583">
        <ele>89</ele>
        <time>2015-02-23T19:31:48.260Z</time>
      </trkpt>
      <trkpt lat="48.84498" lon="2.36579">
        <ele>89.2</ele>
        <time>2015-02-23T19:31:49.299Z</time>
      </trkpt>
      <trkpt lat="48.84494" lon="2.36572">
        <ele>89.3</ele>
        <time>2015-02-23T19:31:51.182Z</time>
      </trkpt>
      <trkpt lat="48.84492" lon="2.36569">
        <ele>89.3</ele>
        <time>2015-02-23T19:31:52.250Z</time>
      </trkpt>
      <trkpt lat="48.84487" lon="2.36558">
        <ele>89.5</ele>
        <time>2015-02-23T19:31:55.303Z</time>
      </trkpt>
      <trkpt lat="48.84485" lon="2.36555">
        <ele>89.5</ele>
        <time>2015-02-23T19:31:56.217Z</time>
      </trkpt>
      <trkpt lat="48.8448" lon="2.36549">
        <ele>89.4</ele>
        <time>2015-02-23T19:31:58.240Z</time>
      </trkpt>
      <trkpt lat="48.84478" lon="2.36546">
        <ele>89.3</ele>
        <time>2015-02-23T19:31:59.177Z</time>
      </trkpt>
      <trkpt lat="48.84472" lon="2.36536">
        <ele>89.2</ele>
        <time>2015-02-23T19:32:02.257Z</time>
      </trkpt>
      <trkpt lat="48.84469" lon="2.36533">
        <ele>89.1</ele>
        <time>2015-02-23T19:32:03.268Z</time>
      </trkpt>
      <trkpt lat="48.84463" lon="2.36523">
        <ele>88.7</ele>
        <time>2015-02-23T19:32:06.241Z</time>
      </trkpt>
      <trkpt lat="48.84461" lon="2.3652">
        <ele>88.8</ele>
        <time>2015-02-23T19:32:07.276Z</time>
      </trkpt>
      <trkpt lat="48.84457" lon="2.36513">
        <ele>88.8</ele>
        <time>2015-02-23T19:32:09.243Z</time>
      </trkpt>
      <trkpt lat="48.84455" lon="2.3651">
        <ele>88.7</ele>
        <time>2015-02-23T19:32:10.256Z</time>
      </trkpt>
      <trkpt lat="48.84451" lon="2.36499">
        <ele>89.1</ele>
        <time>2015-02-23T19:32:13.284Z</time>
      </trkpt>
      <trkpt lat="48.8445" lon="2.36496">
        <ele>89.1</ele>
        <time>2015-02-23T19:32:14.294Z</time>
      </trkpt>
      <trkpt lat="48.84449" lon="2.36486">
        <ele>89.1</ele>
        <time>2015-02-23T19:32:17.331Z</time>
      </trkpt>
      <trkpt lat="48.8445" lon="2.36482">
        <ele>88.1</ele>
        <time>2015-02-23T19:32:18.264Z</time>
      </trkpt>
      <trkpt lat="48.84454" lon="2.3647">
        <ele>86.2</ele>
        <time>2015-02-23T19:32:21.262Z</time>
      </trkpt>
      <trkpt lat="48.84456" lon="2.36468">
        <ele>86.2</ele>
        <time>2015-02-23T19:32:22.203Z</time>
      </trkpt>
      <trkpt lat="48.84461" lon="2.36462">
        <ele>86</ele>
        <time>2015-02-23T19:32:24.341Z</time>
      </trkpt>
      <trkpt lat="48.84463" lon="2.36458">
        <ele>85.9</ele>
        <time>2015-02-23T19:32:25.393Z</time>
      </trkpt>
      <trkpt lat="48.84469" lon="2.36453">
        <ele>85.9</ele>
        <time>2015-02-23T19:32:27.202Z</time>
      </trkpt>
      <trkpt lat="48.84472" lon="2.3645">
        <ele>85.8</ele>
        <time>2015-02-23T19:32:28.353Z</time>
      </trkpt>
      <trkpt lat="48.84477" lon="2.36446">
        <ele>86</ele>
        <time>2015-02-23T19:32:30.197Z</time>
      </trkpt>
      <trkpt lat="48.8448" lon="2.36444">
        <ele>86</ele>
        <time>2015-02-23T19:32:31.290Z</time>
      </trkpt>
      <trkpt lat="48.84486" lon="2.36435">
        <ele>85.6</ele>
        <time>2015-02-23T19:32:35.211Z</time>
      </trkpt>
      <trkpt lat="48.84488" lon="2.36432">
        <ele>84.7</ele>
        <time>2015-02-23T19:32:36.206Z</time>
      </trkpt>
      <trkpt lat="48.84491" lon="2.36422">
        <ele>84.2</ele>
        <time>2015-02-23T19:32:39.298Z</time>
      </trkpt>
      <trkpt lat="48.84491" lon="2.36418">
        <ele>84.3</ele>
        <time>2015-02-23T19:32:40.235Z</time>
      </trkpt>
      <trkpt lat="48.84494" lon="2.36406">
        <ele>84.2</ele>
        <time>2015-02-23T19:32:43.297Z</time>
      </trkpt>
      <trkpt lat="48.84495" lon="2.36404">
        <ele>84.2</ele>
        <time>2015-02-23T19:32:44.203Z</time>
      </trkpt>
      <trkpt lat="48.84501" lon="2.36396">
        <ele>84.1</ele>
        <time>2015-02-23T19:32:48.273Z</time>
      </trkpt>
      <trkpt lat="48.84504" lon="2.36394">
        <ele>84.4</ele>
        <time>2015-02-23T19:32:49.268Z</time>
      </trkpt>
      <trkpt lat="48.8451" lon="2.36388">
        <ele>84.8</ele>
        <time>2015-02-23T19:32:51.217Z</time>
      </trkpt>
      <trkpt lat="48.84513" lon="2.36386">
        <ele>84.9</ele>
        <time>2015-02-23T19:32:52.240Z</time>
      </trkpt>
      <trkpt lat="48.84519" lon="2.36377">
        <ele>85.2</ele>
        <time>2015-02-23T19:32:54.289Z</time>
      </trkpt>
      <trkpt lat="48.84522" lon="2.36373">
        <ele>85.3</ele>
        <time>2015-02-23T19:32:55.294Z</time>
      </trkpt>
      <trkpt lat="48.84526" lon="2.36364">
        <ele>85.3</ele>
        <time>2015-02-23T19:32:57.201Z</time>
      </trkpt>
      <trkpt lat="48.84529" lon="2.3636">
        <ele>85.4</ele>
        <time>2015-02-23T19:32:58.211Z</time>
      </trkpt>
      <trkpt lat="48.84534" lon="2.3635">
        <ele>85.7</ele>
        <time>2015-02-23T19:33:00.241Z</time>
      </trkpt>
      <trkpt lat="48.84537" lon="2.36345">
        <ele>85.8</ele>
        <time>2015-02-23T19:33:01.249Z</time>
      </trkpt>
      <trkpt lat="48.84543" lon="2.36335">
        <ele>86.1</ele>
        <time>2015-02-23T19:33:03.325Z</time>
      </trkpt>
      <trkpt lat="48.84546" lon="2.3633">
        <ele>86.3</ele>
        <time>2015-02-23T19:33:04.197Z</time>
      </trkpt>
      <trkpt lat="48.84549" lon="2.36325">
        <ele>86.3</ele>
        <time>2015-02-23T19:33:05.219Z</time>
      </trkpt>
      <trkpt lat="48.84553" lon="2.36319">
        <ele>86.3</ele>
        <time>2015-02-23T19:33:06.213Z</time>
      </trkpt>
      <trkpt lat="48.84557" lon="2.36313">
        <ele>86.4</ele>
        <time>2015-02-23T19:33:07.271Z</time>
      </trkpt>
      <trkpt lat="48.84561" lon="2.36308">
        <ele>86.7</ele>
        <time>2015-02-23T19:33:08.278Z</time>
      </trkpt>
      <trkpt lat="48.84567" lon="2.36303">
        <ele>87</ele>
        <time>2015-02-23T19:33:09.283Z</time>
      </trkpt>
      <trkpt lat="48.84572" lon="2.36297">
        <ele>87.1</ele>
        <time>2015-02-23T19:33:10.176Z</time>
      </trkpt>
      <trkpt lat="48.84578" lon="2.3629">
        <ele>87.3</ele>
        <time>2015-02-23T19:33:11.269Z</time>
      </trkpt>
      <trkpt lat="48.84585" lon="2.36283">
        <ele>87.2</ele>
        <time>2015-02-23T19:33:12.215Z</time>
      </trkpt>
      <trkpt lat="48.8459" lon="2.36276">
        <ele>87.3</ele>
        <time>2015-02-23T19:33:13.254Z</time>
      </trkpt>
      <trkpt lat="48.84596" lon="2.36269">
        <ele>87.3</ele>
        <time>2015-02-23T19:33:14.253Z</time>
      </trkpt>
      <trkpt lat="48.84601" lon="2.36262">
        <ele>87.4</ele>
        <time>2015-02-23T19:33:15.260Z</time>
      </trkpt>
      <trkpt lat="48.84606" lon="2.36255">
        <ele>87.3</ele>
        <time>2015-02-23T19:33:16.197Z</time>
      </trkpt>
      <trkpt lat="48.84611" lon="2.36247">
        <ele>87.4</ele>
        <time>2015-02-23T19:33:17.198Z</time>
      </trkpt>
      <trkpt lat="48.84615" lon="2.36238">
        <ele>87.4</ele>
        <time>2015-02-23T19:33:18.204Z</time>
      </trkpt>
      <trkpt lat="48.84619" lon="2.3623">
        <ele>87.4</ele>
        <time>2015-02-23T19:33:19.244Z</time>
      </trkpt>
      <trkpt lat="48.84623" lon="2.36222">
        <ele>87.4</ele>
        <time>2015-02-23T19:33:20.254Z</time>
      </trkpt>
      <trkpt lat="48.84627" lon="2.36213">
        <ele>87.4</ele>
        <time>2015-02-23T19:33:21.278Z</time>
      </trkpt>
      <trkpt lat="48.84632" lon="2.36207">
        <ele>87.3</ele>
        <time>2015-02-23T19:33:22.176Z</time>
      </trkpt>
      <trkpt lat="48.84636" lon="2.362">
        <ele>87.3</ele>
        <time>2015-02-23T19:33:23.205Z</time>
      </trkpt>
      <trkpt lat="48.8464" lon="2.36193">
        <ele>87.4</ele>
        <time>2015-02-23T19:33:24.226Z</time>
      </trkpt>
      <trkpt lat="48.84645" lon="2.36187">
        <ele>87.4</ele>
        <time>2015-02-23T19:33:25.242Z</time>
      </trkpt>
      <trkpt lat="48.84649" lon="2.36181">
        <ele>87.5</ele>
        <time>2015-02-23T19:33:26.253Z</time>
      </trkpt>
      <trkpt lat="48.84653" lon="2.36177">
        <ele>87.6</ele>
        <time>2015-02-23T19:33:27.257Z</time>
      </trkpt>
      <trkpt lat="48.84657" lon="2.36172">
        <ele>87.5</ele>
        <time>2015-02-23T19:33:28.228Z</time>
      </trkpt>
      <trkpt lat="48.84661" lon="2.36167">
        <ele>87.5</ele>
        <time>2015-02-23T19:33:29.198Z</time>
      </trkpt>
      <trkpt lat="48.84665" lon="2.36162">
        <ele>87.7</ele>
        <time>2015-02-23T19:33:30.202Z</time>
      </trkpt>
      <trkpt lat="48.84669" lon="2.36157">
        <ele>87.6</ele>
        <time>2015-02-23T19:33:31.354Z</time>
      </trkpt>
      <trkpt lat="48.84673" lon="2.36151">
        <ele>87.5</ele>
        <time>2015-02-23T19:33:32.258Z</time>
      </trkpt>
      <trkpt lat="48.84677" lon="2.36146">
        <ele>87.4</ele>
        <time>2015-02-23T19:33:33.275Z</time>
      </trkpt>
      <trkpt lat="48.84681" lon="2.36141">
        <ele>87.4</ele>
        <time>2015-02-23T19:33:34.287Z</time>
      </trkpt>
      <trkpt lat="48.84685" lon="2.36136">
        <ele>87.4</ele>
        <time>2015-02-23T19:33:35.197Z</time>
      </trkpt>
      <trkpt lat="48.84689" lon="2.36131">
        <ele>87.4</ele>
        <time>2015-02-23T19:33:36.228Z</time>
      </trkpt>
      <trkpt lat="48.84694" lon="2.36125">
        <ele>87.3</ele>
        <time>2015-02-23T19:33:37.237Z</time>
      </trkpt>
      <trkpt lat="48.84698" lon="2.36118">
        <ele>87.2</ele>
        <time>2015-02-23T19:33:38.250Z</time>
      </trkpt>
      <trkpt lat="48.84702" lon="2.36105">
        <ele>87.3</ele>
        <time>2015-02-23T19:33:39.189Z</time>
      </trkpt>
      <trkpt lat="48.84706" lon="2.36097">
        <ele>87.2</ele>
        <time>2015-02-23T19:33:40.212Z</time>
      </trkpt>
      <trkpt lat="48.84711" lon="2.3609">
        <ele>87.2</ele>
        <time>2015-02-23T19:33:41.235Z</time>
      </trkpt>
      <trkpt lat="48.84716" lon="2.36082">
        <ele>87.2</ele>
        <time>2015-02-23T19:33:42.271Z</time>
      </trkpt>
      <trkpt lat="48.84724" lon="2.3607">
        <ele>87.1</ele>
        <time>2015-02-23T19:33:43.297Z</time>
      </trkpt>
      <trkpt lat="48.84727" lon="2.36063">
        <ele>87.2</ele>
        <time>2015-02-23T19:33:44.200Z</time>
      </trkpt>
      <trkpt lat="48.84731" lon="2.36056">
        <ele>87.1</ele>
        <time>2015-02-23T19:33:45.208Z</time>
      </trkpt>
      <trkpt lat="48.84735" lon="2.3605">
        <ele>87.3</ele>
        <time>2015-02-23T19:33:46.226Z</time>
      </trkpt>
      <trkpt lat="48.84739" lon="2.36043">
        <ele>87.4</ele>
        <time>2015-02-23T19:33:47.256Z</time>
      </trkpt>
      <trkpt lat="48.84745" lon="2.36037">
        <ele>87.5</ele>
        <time>2015-02-23T19:33:48.274Z</time>
      </trkpt>
      <trkpt lat="48.8475" lon="2.3603">
        <ele>87.8</ele>
        <time>2015-02-23T19:33:49.287Z</time>
      </trkpt>
      <trkpt lat="48.84755" lon="2.36023">
        <ele>88</ele>
        <time>2015-02-23T19:33:50.295Z</time>
      </trkpt>
      <trkpt lat="48.8476" lon="2.36015">
        <ele>88.3</ele>
        <time>2015-02-23T19:33:51.210Z</time>
      </trkpt>
      <trkpt lat="48.84765" lon="2.36009">
        <ele>88.6</ele>
        <time>2015-02-23T19:33:52.220Z</time>
      </trkpt>
      <trkpt lat="48.84771" lon="2.36001">
        <ele>88.9</ele>
        <time>2015-02-23T19:33:53.265Z</time>
      </trkpt>
      <trkpt lat="48.84776" lon="2.35994">
        <ele>89.3</ele>
        <time>2015-02-23T19:33:54.270Z</time>
      </trkpt>
      <trkpt lat="48.84781" lon="2.35986">
        <ele>89.5</ele>
        <time>2015-02-23T19:33:55.279Z</time>
      </trkpt>
      <trkpt lat="48.84785" lon="2.35978">
        <ele>89.5</ele>
        <time>2015-02-23T19:33:56.284Z</time>
      </trkpt>
      <trkpt lat="48.84789" lon="2.35971">
        <ele>89.6</ele>
        <time>2015-02-23T19:33:57.192Z</time>
      </trkpt>
      <trkpt lat="48.84793" lon="2.35963">
        <ele>89.6</ele>
        <time>2015-02-23T19:33:58.205Z</time>
      </trkpt>
      <trkpt lat="48.84798" lon="2.35957">
        <ele>89.6</ele>
        <time>2015-02-23T19:33:59.222Z</time>
      </trkpt>
      <trkpt lat="48.84804" lon="2.3595">
        <ele>89.5</ele>
        <time>2015-02-23T19:34:00.255Z</time>
      </trkpt>
      <trkpt lat="48.84809" lon="2.35942">
        <ele>89.6</ele>
        <time>2015-02-23T19:34:01.277Z</time>
      </trkpt>
      <trkpt lat="48.84814" lon="2.35933">
        <ele>90</ele>
        <time>2015-02-23T19:34:02.210Z</time>
      </trkpt>
      <trkpt lat="48.84819" lon="2.35924">
        <ele>90.3</ele>
        <time>2015-02-23T19:34:03.259Z</time>
      </trkpt>
      <trkpt lat="48.84824" lon="2.35916">
        <ele>90.6</ele>
        <time>2015-02-23T19:34:04.293Z</time>
      </trkpt>
      <trkpt lat="48.84829" lon="2.35906">
        <ele>91.1</ele>
        <time>2015-02-23T19:34:05.198Z</time>
      </trkpt>
      <trkpt lat="48.84833" lon="2.35898">
        <ele>91.2</ele>
        <time>2015-02-23T19:34:06.204Z</time>
      </trkpt>
      <trkpt lat="48.84838" lon="2.35889">
        <ele>91.4</ele>
        <time>2015-02-23T19:34:07.253Z</time>
      </trkpt>
      <trkpt lat="48.84843" lon="2.35881">
        <ele>91.6</ele>
        <time>2015-02-23T19:34:08.195Z</time>
      </trkpt>
      <trkpt lat="48.84848" lon="2.35872">
        <ele>91.9</ele>
        <time>2015-02-23T19:34:09.196Z</time>
      </trkpt>
      <trkpt lat="48.84851" lon="2.35862">
        <ele>91.3</ele>
        <time>2015-02-23T19:34:10.248Z</time>
      </trkpt>
      <trkpt lat="48.84856" lon="2.35854">
        <ele>91.2</ele>
        <time>2015-02-23T19:34:11.255Z</time>
      </trkpt>
      <trkpt lat="48.84861" lon="2.35846">
        <ele>91.3</ele>
        <time>2015-02-23T19:34:12.260Z</time>
      </trkpt>
      <trkpt lat="48.84866" lon="2.35838">
        <ele>91.2</ele>
        <time>2015-02-23T19:34:13.266Z</time>
      </trkpt>
      <trkpt lat="48.84872" lon="2.3583">
        <ele>91</ele>
        <time>2015-02-23T19:34:14.198Z</time>
      </trkpt>
      <trkpt lat="48.84873" lon="2.35823">
        <ele>90.4</ele>
        <time>2015-02-23T19:34:15.199Z</time>
      </trkpt>
      <trkpt lat="48.84878" lon="2.35815">
        <ele>90.3</ele>
        <time>2015-02-23T19:34:16.228Z</time>
      </trkpt>
      <trkpt lat="48.84886" lon="2.35807">
        <ele>88.6</ele>
        <time>2015-02-23T19:34:17.234Z</time>
      </trkpt>
      <trkpt lat="48.84893" lon="2.35801">
        <ele>87.6</ele>
        <time>2015-02-23T19:34:18.244Z</time>
      </trkpt>
      <trkpt lat="48.849" lon="2.35794">
        <ele>86.8</ele>
        <time>2015-02-23T19:34:19.328Z</time>
      </trkpt>
      <trkpt lat="48.84906" lon="2.35788">
        <ele>86.3</ele>
        <time>2015-02-23T19:34:20.206Z</time>
      </trkpt>
      <trkpt lat="48.84912" lon="2.35781">
        <ele>85.6</ele>
        <time>2015-02-23T19:34:21.195Z</time>
      </trkpt>
      <trkpt lat="48.84916" lon="2.35775">
        <ele>85.2</ele>
        <time>2015-02-23T19:34:22.210Z</time>
      </trkpt>
      <trkpt lat="48.8492" lon="2.35769">
        <ele>85</ele>
        <time>2015-02-23T19:34:23.297Z</time>
      </trkpt>
      <trkpt lat="48.84924" lon="2.35764">
        <ele>84.9</ele>
        <time>2015-02-23T19:34:24.203Z</time>
      </trkpt>
      <trkpt lat="48.84927" lon="2.35759">
        <ele>84.9</ele>
        <time>2015-02-23T19:34:25.242Z</time>
      </trkpt>
      <trkpt lat="48.8493" lon="2.35753">
        <ele>84.9</ele>
        <time>2015-02-23T19:34:26.253Z</time>
      </trkpt>
      <trkpt lat="48.84934" lon="2.35746">
        <ele>85</ele>
        <time>2015-02-23T19:34:27.259Z</time>
      </trkpt>
      <trkpt lat="48.84938" lon="2.3574">
        <ele>85.3</ele>
        <time>2015-02-23T19:34:28.200Z</time>
      </trkpt>
      <trkpt lat="48.84941" lon="2.35735">
        <ele>85.3</ele>
        <time>2015-02-23T19:34:29.194Z</time>
      </trkpt>
      <trkpt lat="48.84947" lon="2.35726">
        <ele>85.5</ele>
        <time>2015-02-23T19:34:31.220Z</time>
      </trkpt>
      <trkpt lat="48.84948" lon="2.35722">
        <ele>85.5</ele>
        <time>2015-02-23T19:34:32.232Z</time>
      </trkpt>
      <trkpt lat="48.84944" lon="2.35714">
        <ele>82.1</ele>
        <time>2015-02-23T19:35:01.314Z</time>
      </trkpt>
      <trkpt lat="48.84939" lon="2.35711">
        <ele>82.5</ele>
        <time>2015-02-23T19:35:02.181Z</time>
      </trkpt>
      <trkpt lat="48.84938" lon="2.35711">
        <ele>82.5</ele>
        <time>2015-02-23T19:35:03.197Z</time>
      </trkpt>
      <trkpt lat="48.84938" lon="2.35711">
        <ele>82.5</ele>
        <time>2015-02-23T19:35:14.307Z</time>
      </trkpt>
      <trkpt lat="48.84938" lon="2.35705">
        <ele>83.1</ele>
        <time>2015-02-23T19:35:15.197Z</time>
      </trkpt>
      <trkpt lat="48.84941" lon="2.35693">
        <ele>82.8</ele>
        <time>2015-02-23T19:35:18.198Z</time>
      </trkpt>
      <trkpt lat="48.84941" lon="2.35689">
        <ele>82.6</ele>
        <time>2015-02-23T19:35:19.234Z</time>
      </trkpt>
      <trkpt lat="48.84943" lon="2.35677">
        <ele>82.7</ele>
        <time>2015-02-23T19:35:21.216Z</time>
      </trkpt>
      <trkpt lat="48.84944" lon="2.35671">
        <ele>82.7</ele>
        <time>2015-02-23T19:35:22.212Z</time>
      </trkpt>
      <trkpt lat="48.84946" lon="2.35664">
        <ele>82.8</ele>
        <time>2015-02-23T19:35:23.270Z</time>
      </trkpt>
      <trkpt lat="48.84948" lon="2.35658">
        <ele>83</ele>
        <time>2015-02-23T19:35:24.281Z</time>
      </trkpt>
      <trkpt lat="48.84953" lon="2.35647">
        <ele>83.2</ele>
        <time>2015-02-23T19:35:26.238Z</time>
      </trkpt>
      <trkpt lat="48.84956" lon="2.35642">
        <ele>83.1</ele>
        <time>2015-02-23T19:35:27.245Z</time>
      </trkpt>
      <trkpt lat="48.84961" lon="2.35632">
        <ele>83</ele>
        <time>2015-02-23T19:35:29.204Z</time>
      </trkpt>
      <trkpt lat="48.84963" lon="2.35628">
        <ele>83.1</ele>
        <time>2015-02-23T19:35:30.225Z</time>
      </trkpt>
      <trkpt lat="48.84968" lon="2.35618">
        <ele>82.9</ele>
        <time>2015-02-23T19:35:32.259Z</time>
      </trkpt>
      <trkpt lat="48.8497" lon="2.35612">
        <ele>83</ele>
        <time>2015-02-23T19:35:33.288Z</time>
      </trkpt>
      <trkpt lat="48.84971" lon="2.35605">
        <ele>83.2</ele>
        <time>2015-02-23T19:35:34.213Z</time>
      </trkpt>
      <trkpt lat="48.84973" lon="2.35599">
        <ele>83.3</ele>
        <time>2015-02-23T19:35:35.223Z</time>
      </trkpt>
      <trkpt lat="48.84975" lon="2.35592">
        <ele>83.4</ele>
        <time>2015-02-23T19:35:36.229Z</time>
      </trkpt>
      <trkpt lat="48.84978" lon="2.35586">
        <ele>82.8</ele>
        <time>2015-02-23T19:35:37.251Z</time>
      </trkpt>
      <trkpt lat="48.8498" lon="2.35579">
        <ele>82.2</ele>
        <time>2015-02-23T19:35:38.218Z</time>
      </trkpt>
      <trkpt lat="48.84983" lon="2.35574">
        <ele>82</ele>
        <time>2015-02-23T19:35:39.225Z</time>
      </trkpt>
      <trkpt lat="48.84986" lon="2.35562">
        <ele>81.3</ele>
        <time>2015-02-23T19:35:41.257Z</time>
      </trkpt>
      <trkpt lat="48.84987" lon="2.35555">
        <ele>81.2</ele>
        <time>2015-02-23T19:35:42.285Z</time>
      </trkpt>
      <trkpt lat="48.84989" lon="2.35549">
        <ele>81.1</ele>
        <time>2015-02-23T19:35:43.298Z</time>
      </trkpt>
      <trkpt lat="48.84992" lon="2.35543">
        <ele>80.6</ele>
        <time>2015-02-23T19:35:44.198Z</time>
      </trkpt>
      <trkpt lat="48.84994" lon="2.35537">
        <ele>80.3</ele>
        <time>2015-02-23T19:35:45.215Z</time>
      </trkpt>
      <trkpt lat="48.84996" lon="2.35531">
        <ele>80.2</ele>
        <time>2015-02-23T19:35:46.255Z</time>
      </trkpt>
      <trkpt lat="48.85" lon="2.35519">
        <ele>80.4</ele>
        <time>2015-02-23T19:35:48.272Z</time>
      </trkpt>
      <trkpt lat="48.85002" lon="2.35513">
        <ele>80.2</ele>
        <time>2015-02-23T19:35:49.283Z</time>
      </trkpt>
      <trkpt lat="48.85004" lon="2.355">
        <ele>80.2</ele>
        <time>2015-02-23T19:35:51.225Z</time>
      </trkpt>
      <trkpt lat="48.85005" lon="2.35493">
        <ele>80.5</ele>
        <time>2015-02-23T19:35:52.218Z</time>
      </trkpt>
      <trkpt lat="48.85008" lon="2.35486">
        <ele>80.7</ele>
        <time>2015-02-23T19:35:53.201Z</time>
      </trkpt>
      <trkpt lat="48.8501" lon="2.3548">
        <ele>80.5</ele>
        <time>2015-02-23T19:35:54.205Z</time>
      </trkpt>
      <trkpt lat="48.85012" lon="2.35473">
        <ele>80.1</ele>
        <time>2015-02-23T19:35:55.348Z</time>
      </trkpt>
      <trkpt lat="48.85014" lon="2.35467">
        <ele>80</ele>
        <time>2015-02-23T19:35:56.217Z</time>
      </trkpt>
      <trkpt lat="48.85016" lon="2.3546">
        <ele>80</ele>
        <time>2015-02-23T19:35:57.214Z</time>
      </trkpt>
      <trkpt lat="48.85018" lon="2.35453">
        <ele>79.8</ele>
        <time>2015-02-23T19:35:58.232Z</time>
      </trkpt>
      <trkpt lat="48.8502" lon="2.35445">
        <ele>79.5</ele>
        <time>2015-02-23T19:35:59.288Z</time>
      </trkpt>
      <trkpt lat="48.85023" lon="2.35439">
        <ele>79.4</ele>
        <time>2015-02-23T19:36:00.207Z</time>
      </trkpt>
      <trkpt lat="48.85026" lon="2.35432">
        <ele>79.3</ele>
        <time>2015-02-23T19:36:01.259Z</time>
      </trkpt>
      <trkpt lat="48.85029" lon="2.35426">
        <ele>79.4</ele>
        <time>2015-02-23T19:36:02.247Z</time>
      </trkpt>
      <trkpt lat="48.85033" lon="2.3542">
        <ele>79.5</ele>
        <time>2015-02-23T19:36:03.259Z</time>
      </trkpt>
      <trkpt lat="48.85037" lon="2.35414">
        <ele>79.4</ele>
        <time>2015-02-23T19:36:04.266Z</time>
      </trkpt>
      <trkpt lat="48.85041" lon="2.35408">
        <ele>79.4</ele>
        <time>2015-02-23T19:36:05.273Z</time>
      </trkpt>
      <trkpt lat="48.85045" lon="2.35402">
        <ele>79.4</ele>
        <time>2015-02-23T19:36:06.198Z</time>
      </trkpt>
      <trkpt lat="48.8505" lon="2.35396">
        <ele>79.4</ele>
        <time>2015-02-23T19:36:07.290Z</time>
      </trkpt>
      <trkpt lat="48.85054" lon="2.35391">
        <ele>79.5</ele>
        <time>2015-02-23T19:36:08.199Z</time>
      </trkpt>
      <trkpt lat="48.85058" lon="2.35386">
        <ele>79.5</ele>
        <time>2015-02-23T19:36:09.219Z</time>
      </trkpt>
      <trkpt lat="48.85062" lon="2.35381">
        <ele>79.4</ele>
        <time>2015-02-23T19:36:10.212Z</time>
      </trkpt>
      <trkpt lat="48.85066" lon="2.35375">
        <ele>79.4</ele>
        <time>2015-02-23T19:36:11.281Z</time>
      </trkpt>
      <trkpt lat="48.85067" lon="2.35369">
        <ele>78.6</ele>
        <time>2015-02-23T19:36:12.294Z</time>
      </trkpt>
      <trkpt lat="48.85069" lon="2.35363">
        <ele>77.9</ele>
        <time>2015-02-23T19:36:13.215Z</time>
      </trkpt>
      <trkpt lat="48.85074" lon="2.35358">
        <ele>77.8</ele>
        <time>2015-02-23T19:36:14.230Z</time>
      </trkpt>
      <trkpt lat="48.85079" lon="2.35352">
        <ele>77.7</ele>
        <time>2015-02-23T19:36:15.277Z</time>
      </trkpt>
      <trkpt lat="48.85084" lon="2.35346">
        <ele>77.6</ele>
        <time>2015-02-23T19:36:16.198Z</time>
      </trkpt>
      <trkpt lat="48.85089" lon="2.35341">
        <ele>77.4</ele>
        <time>2015-02-23T19:36:17.279Z</time>
      </trkpt>
      <trkpt lat="48.85094" lon="2.35336">
        <ele>77.2</ele>
        <time>2015-02-23T19:36:18.342Z</time>
      </trkpt>
      <trkpt lat="48.85098" lon="2.35331">
        <ele>77</ele>
        <time>2015-02-23T19:36:19.234Z</time>
      </trkpt>
      <trkpt lat="48.85101" lon="2.35325">
        <ele>77</ele>
        <time>2015-02-23T19:36:20.245Z</time>
      </trkpt>
      <trkpt lat="48.85104" lon="2.35319">
        <ele>77</ele>
        <time>2015-02-23T19:36:21.176Z</time>
      </trkpt>
      <trkpt lat="48.85108" lon="2.35313">
        <ele>77</ele>
        <time>2015-02-23T19:36:22.214Z</time>
      </trkpt>
      <trkpt lat="48.8511" lon="2.35305">
        <ele>76.8</ele>
        <time>2015-02-23T19:36:23.197Z</time>
      </trkpt>
      <trkpt lat="48.85113" lon="2.35299">
        <ele>76.7</ele>
        <time>2015-02-23T19:36:24.244Z</time>
      </trkpt>
      <trkpt lat="48.85112" lon="2.35292">
        <ele>76.1</ele>
        <time>2015-02-23T19:36:25.270Z</time>
      </trkpt>
      <trkpt lat="48.85108" lon="2.35285">
        <ele>75</ele>
        <time>2015-02-23T19:36:26.285Z</time>
      </trkpt>
      <trkpt lat="48.85109" lon="2.35277">
        <ele>74.8</ele>
        <time>2015-02-23T19:36:27.180Z</time>
      </trkpt>
      <trkpt lat="48.8511" lon="2.3527">
        <ele>74.7</ele>
        <time>2015-02-23T19:36:28.225Z</time>
      </trkpt>
      <trkpt lat="48.85113" lon="2.35258">
        <ele>75</ele>
        <time>2015-02-23T19:36:30.198Z</time>
      </trkpt>
      <trkpt lat="48.85113" lon="2.35251">
        <ele>74.9</ele>
        <time>2015-02-23T19:36:31.240Z</time>
      </trkpt>
      <trkpt lat="48.85111" lon="2.35244">
        <ele>74.7</ele>
        <time>2015-02-23T19:36:32.210Z</time>
      </trkpt>
      <trkpt lat="48.85111" lon="2.35237">
        <ele>74.5</ele>
        <time>2015-02-23T19:36:33.208Z</time>
      </trkpt>
      <trkpt lat="48.85111" lon="2.35223">
        <ele>75.6</ele>
        <time>2015-02-23T19:36:35.387Z</time>
      </trkpt>
      <trkpt lat="48.85113" lon="2.35217">
        <ele>75.6</ele>
        <time>2015-02-23T19:36:36.201Z</time>
      </trkpt>
      <trkpt lat="48.85116" lon="2.35204">
        <ele>75.7</ele>
        <time>2015-02-23T19:36:38.239Z</time>
      </trkpt>
      <trkpt lat="48.85117" lon="2.35199">
        <ele>76.1</ele>
        <time>2015-02-23T19:36:39.228Z</time>
      </trkpt>
      <trkpt lat="48.85118" lon="2.35189">
        <ele>76.8</ele>
        <time>2015-02-23T19:36:41.287Z</time>
      </trkpt>
      <trkpt lat="48.85119" lon="2.35184">
        <ele>77.3</ele>
        <time>2015-02-23T19:36:42.297Z</time>
      </trkpt>
      <trkpt lat="48.8512" lon="2.35176">
        <ele>78.3</ele>
        <time>2015-02-23T19:36:44.318Z</time>
      </trkpt>
      <trkpt lat="48.85122" lon="2.35171">
        <ele>78.3</ele>
        <time>2015-02-23T19:36:45.210Z</time>
      </trkpt>
      <trkpt lat="48.85125" lon="2.35161">
        <ele>78.4</ele>
        <time>2015-02-23T19:36:47.258Z</time>
      </trkpt>
      <trkpt lat="48.85126" lon="2.35156">
        <ele>78.2</ele>
        <time>2015-02-23T19:36:48.215Z</time>
      </trkpt>
      <trkpt lat="48.8513" lon="2.35145">
        <ele>78.1</ele>
        <time>2015-02-23T19:36:50.210Z</time>
      </trkpt>
      <trkpt lat="48.85132" lon="2.35139">
        <ele>78.1</ele>
        <time>2015-02-23T19:36:51.245Z</time>
      </trkpt>
      <trkpt lat="48.85135" lon="2.35133">
        <ele>78.2</ele>
        <time>2015-02-23T19:36:52.193Z</time>
      </trkpt>
      <trkpt lat="48.85138" lon="2.35127">
        <ele>78.3</ele>
        <time>2015-02-23T19:36:53.193Z</time>
      </trkpt>
      <trkpt lat="48.85143" lon="2.35122">
        <ele>78.4</ele>
        <time>2015-02-23T19:36:54.209Z</time>
      </trkpt>
      <trkpt lat="48.85147" lon="2.35116">
        <ele>78.4</ele>
        <time>2015-02-23T19:36:55.323Z</time>
      </trkpt>
      <trkpt lat="48.85152" lon="2.35111">
        <ele>78.4</ele>
        <time>2015-02-23T19:36:56.198Z</time>
      </trkpt>
      <trkpt lat="48.85157" lon="2.35105">
        <ele>78.2</ele>
        <time>2015-02-23T19:36:57.202Z</time>
      </trkpt>
      <trkpt lat="48.85161" lon="2.35099">
        <ele>78.3</ele>
        <time>2015-02-23T19:36:58.238Z</time>
      </trkpt>
      <trkpt lat="48.85164" lon="2.35092">
        <ele>78.2</ele>
        <time>2015-02-23T19:36:59.267Z</time>
      </trkpt>
      <trkpt lat="48.85168" lon="2.35086">
        <ele>78.1</ele>
        <time>2015-02-23T19:37:00.180Z</time>
      </trkpt>
      <trkpt lat="48.85171" lon="2.3508">
        <ele>77.9</ele>
        <time>2015-02-23T19:37:01.312Z</time>
      </trkpt>
      <trkpt lat="48.85173" lon="2.35074">
        <ele>77.9</ele>
        <time>2015-02-23T19:37:02.196Z</time>
      </trkpt>
      <trkpt lat="48.85176" lon="2.35067">
        <ele>77.9</ele>
        <time>2015-02-23T19:37:03.193Z</time>
      </trkpt>
      <trkpt lat="48.85177" lon="2.3506">
        <ele>78</ele>
        <time>2015-02-23T19:37:04.228Z</time>
      </trkpt>
      <trkpt lat="48.85179" lon="2.35052">
        <ele>77.9</ele>
        <time>2015-02-23T19:37:05.236Z</time>
      </trkpt>
      <trkpt lat="48.85181" lon="2.35043">
        <ele>78</ele>
        <time>2015-02-23T19:37:06.258Z</time>
      </trkpt>
      <trkpt lat="48.85184" lon="2.35036">
        <ele>78.2</ele>
        <time>2015-02-23T19:37:07.264Z</time>
      </trkpt>
      <trkpt lat="48.85186" lon="2.35028">
        <ele>78.4</ele>
        <time>2015-02-23T19:37:08.271Z</time>
      </trkpt>
      <trkpt lat="48.85189" lon="2.35021">
        <ele>78.6</ele>
        <time>2015-02-23T19:37:09.287Z</time>
      </trkpt>
      <trkpt lat="48.8519" lon="2.35013">
        <ele>78.7</ele>
        <time>2015-02-23T19:37:10.206Z</time>
      </trkpt>
      <trkpt lat="48.85192" lon="2.35006">
        <ele>78.8</ele>
        <time>2015-02-23T19:37:11.201Z</time>
      </trkpt>
      <trkpt lat="48.85193" lon="2.34997">
        <ele>79.2</ele>
        <time>2015-02-23T19:37:12.206Z</time>
      </trkpt>
      <trkpt lat="48.85194" lon="2.34989">
        <ele>79.4</ele>
        <time>2015-02-23T19:37:13.242Z</time>
      </trkpt>
      <trkpt lat="48.85195" lon="2.34981">
        <ele>79.1</ele>
        <time>2015-02-23T19:37:14.241Z</time>
      </trkpt>
      <trkpt lat="48.85197" lon="2.34974">
        <ele>79.1</ele>
        <time>2015-02-23T19:37:15.261Z</time>
      </trkpt>
      <trkpt lat="48.85198" lon="2.34966">
        <ele>79</ele>
        <time>2015-02-23T19:37:16.210Z</time>
      </trkpt>
      <trkpt lat="48.852" lon="2.34958">
        <ele>79.1</ele>
        <time>2015-02-23T19:37:17.215Z</time>
      </trkpt>
      <trkpt lat="48.85203" lon="2.34951">
        <ele>79.1</ele>
        <time>2015-02-23T19:37:18.258Z</time>
      </trkpt>
      <trkpt lat="48.85205" lon="2.34945">
        <ele>79.3</ele>
        <time>2015-02-23T19:37:19.354Z</time>
      </trkpt>
      <trkpt lat="48.85209" lon="2.3494">
        <ele>79.5</ele>
        <time>2015-02-23T19:37:20.172Z</time>
      </trkpt>
      <trkpt lat="48.85213" lon="2.34935">
        <ele>79.5</ele>
        <time>2015-02-23T19:37:21.181Z</time>
      </trkpt>
      <trkpt lat="48.85215" lon="2.34929">
        <ele>79.7</ele>
        <time>2015-02-23T19:37:22.188Z</time>
      </trkpt>
      <trkpt lat="48.85218" lon="2.34923">
        <ele>80</ele>
        <time>2015-02-23T19:37:23.213Z</time>
      </trkpt>
      <trkpt lat="48.85221" lon="2.34917">
        <ele>80.2</ele>
        <time>2015-02-23T19:37:24.282Z</time>
      </trkpt>
      <trkpt lat="48.85224" lon="2.3491">
        <ele>80.3</ele>
        <time>2015-02-23T19:37:25.281Z</time>
      </trkpt>
      <trkpt lat="48.85226" lon="2.34902">
        <ele>80.3</ele>
        <time>2015-02-23T19:37:26.169Z</time>
      </trkpt>
      <trkpt lat="48.85228" lon="2.34895">
        <ele>80.2</ele>
        <time>2015-02-23T19:37:27.178Z</time>
      </trkpt>
      <trkpt lat="48.8523" lon="2.34888">
        <ele>80.3</ele>
        <time>2015-02-23T19:37:28.231Z</time>
      </trkpt>
      <trkpt lat="48.85233" lon="2.34882">
        <ele>80.4</ele>
        <time>2015-02-23T19:37:29.242Z</time>
      </trkpt>
      <trkpt lat="48.85235" lon="2.34875">
        <ele>80.2</ele>
        <time>2015-02-23T19:37:30.260Z</time>
      </trkpt>
      <trkpt lat="48.85237" lon="2.34867">
        <ele>80.3</ele>
        <time>2015-02-23T19:37:31.267Z</time>
      </trkpt>
      <trkpt lat="48.8524" lon="2.3486">
        <ele>80.4</ele>
        <time>2015-02-23T19:37:32.296Z</time>
      </trkpt>
      <trkpt lat="48.85243" lon="2.34853">
        <ele>80.3</ele>
        <time>2015-02-23T19:37:33.205Z</time>
      </trkpt>
      <trkpt lat="48.85246" lon="2.34846">
        <ele>80.4</ele>
        <time>2015-02-23T19:37:34.240Z</time>
      </trkpt>
      <trkpt lat="48.85248" lon="2.34839">
        <ele>80.6</ele>
        <time>2015-02-23T19:37:35.252Z</time>
      </trkpt>
      <trkpt lat="48.85251" lon="2.34831">
        <ele>80.5</ele>
        <time>2015-02-23T19:37:36.270Z</time>
      </trkpt>
      <trkpt lat="48.85252" lon="2.34823">
        <ele>80.4</ele>
        <time>2015-02-23T19:37:37.321Z</time>
      </trkpt>
      <trkpt lat="48.85255" lon="2.34816">
        <ele>80.4</ele>
        <time>2015-02-23T19:37:38.190Z</time>
      </trkpt>
      <trkpt lat="48.85257" lon="2.34807">
        <ele>80.1</ele>
        <time>2015-02-23T19:37:39.192Z</time>
      </trkpt>
      <trkpt lat="48.8526" lon="2.348">
        <ele>80</ele>
        <time>2015-02-23T19:37:40.202Z</time>
      </trkpt>
      <trkpt lat="48.85263" lon="2.34793">
        <ele>80</ele>
        <time>2015-02-23T19:37:41.236Z</time>
      </trkpt>
      <trkpt lat="48.85265" lon="2.34787">
        <ele>80.1</ele>
        <time>2015-02-23T19:37:42.269Z</time>
      </trkpt>
      <trkpt lat="48.85268" lon="2.3478">
        <ele>80.1</ele>
        <time>2015-02-23T19:37:43.278Z</time>
      </trkpt>
      <trkpt lat="48.85271" lon="2.34773">
        <ele>79.8</ele>
        <time>2015-02-23T19:37:44.288Z</time>
      </trkpt>
      <trkpt lat="48.85274" lon="2.34767">
        <ele>79.6</ele>
        <time>2015-02-23T19:37:45.265Z</time>
      </trkpt>
      <trkpt lat="48.85278" lon="2.3476">
        <ele>79.8</ele>
        <time>2015-02-23T19:37:46.194Z</time>
      </trkpt>
      <trkpt lat="48.85282" lon="2.34755">
        <ele>79.9</ele>
        <time>2015-02-23T19:37:47.197Z</time>
      </trkpt>
      <trkpt lat="48.85285" lon="2.34749">
        <ele>79.8</ele>
        <time>2015-02-23T19:37:48.203Z</time>
      </trkpt>
      <trkpt lat="48.85289" lon="2.34743">
        <ele>79.8</ele>
        <time>2015-02-23T19:37:49.236Z</time>
      </trkpt>
      <trkpt lat="48.85291" lon="2.34736">
        <ele>79.7</ele>
        <time>2015-02-23T19:37:50.243Z</time>
      </trkpt>
      <trkpt lat="48.85294" lon="2.3473">
        <ele>79.7</ele>
        <time>2015-02-23T19:37:51.252Z</time>
      </trkpt>
      <trkpt lat="48.85299" lon="2.3472">
        <ele>79.8</ele>
        <time>2015-02-23T19:37:53.193Z</time>
      </trkpt>
      <trkpt lat="48.853" lon="2.34714">
        <ele>79.7</ele>
        <time>2015-02-23T19:37:54.258Z</time>
      </trkpt>
      <trkpt lat="48.85303" lon="2.34704">
        <ele>79.7</ele>
        <time>2015-02-23T19:37:56.193Z</time>
      </trkpt>
      <trkpt lat="48.85304" lon="2.34698">
        <ele>80</ele>
        <time>2015-02-23T19:37:57.205Z</time>
      </trkpt>
      <trkpt lat="48.85308" lon="2.34688">
        <ele>80.2</ele>
        <time>2015-02-23T19:37:59.243Z</time>
      </trkpt>
      <trkpt lat="48.8531" lon="2.34683">
        <ele>80.4</ele>
        <time>2015-02-23T19:38:00.175Z</time>
      </trkpt>
      <trkpt lat="48.85314" lon="2.34674">
        <ele>80.7</ele>
        <time>2015-02-23T19:38:02.194Z</time>
      </trkpt>
      <trkpt lat="48.85316" lon="2.3467">
        <ele>80.8</ele>
        <time>2015-02-23T19:38:03.204Z</time>
      </trkpt>
      <trkpt lat="48.85321" lon="2.34658">
        <ele>81</ele>
        <time>2015-02-23T19:38:05.239Z</time>
      </trkpt>
      <trkpt lat="48.85323" lon="2.34652">
        <ele>81</ele>
        <time>2015-02-23T19:38:06.210Z</time>
      </trkpt>
      <trkpt lat="48.85325" lon="2.34646">
        <ele>81</ele>
        <time>2015-02-23T19:38:07.259Z</time>
      </trkpt>
      <trkpt lat="48.85327" lon="2.3464">
        <ele>81.2</ele>
        <time>2015-02-23T19:38:08.222Z</time>
      </trkpt>
      <trkpt lat="48.85329" lon="2.34633">
        <ele>81.2</ele>
        <time>2015-02-23T19:38:09.200Z</time>
      </trkpt>
      <trkpt lat="48.85332" lon="2.34627">
        <ele>81.2</ele>
        <time>2015-02-23T19:38:10.214Z</time>
      </trkpt>
      <trkpt lat="48.85334" lon="2.3462">
        <ele>81.4</ele>
        <time>2015-02-23T19:38:11.214Z</time>
      </trkpt>
      <trkpt lat="48.85337" lon="2.34613">
        <ele>81.4</ele>
        <time>2015-02-23T19:38:12.218Z</time>
      </trkpt>
      <trkpt lat="48.85339" lon="2.34606">
        <ele>81.5</ele>
        <time>2015-02-23T19:38:13.238Z</time>
      </trkpt>
      <trkpt lat="48.85341" lon="2.346">
        <ele>81.6</ele>
        <time>2015-02-23T19:38:14.247Z</time>
      </trkpt>
      <trkpt lat="48.85345" lon="2.34594">
        <ele>81.6</ele>
        <time>2015-02-23T19:38:15.282Z</time>
      </trkpt>
      <trkpt lat="48.85348" lon="2.34589">
        <ele>81.7</ele>
        <time>2015-02-23T19:38:16.210Z</time>
      </trkpt>
      <trkpt lat="48.85352" lon="2.34583">
        <ele>81.7</ele>
        <time>2015-02-23T19:38:17.228Z</time>
      </trkpt>
      <trkpt lat="48.85356" lon="2.34577">
        <ele>81.7</ele>
        <time>2015-02-23T19:38:18.238Z</time>
      </trkpt>
      <trkpt lat="48.85359" lon="2.3457">
        <ele>81.7</ele>
        <time>2015-02-23T19:38:19.250Z</time>
      </trkpt>
      <trkpt lat="48.85362" lon="2.34564">
        <ele>81.7</ele>
        <time>2015-02-23T19:38:20.290Z</time>
      </trkpt>
      <trkpt lat="48.85366" lon="2.34557">
        <ele>81.8</ele>
        <time>2015-02-23T19:38:21.194Z</time>
      </trkpt>
      <trkpt lat="48.85368" lon="2.3455">
        <ele>81.8</ele>
        <time>2015-02-23T19:38:22.210Z</time>
      </trkpt>
      <trkpt lat="48.8537" lon="2.34543">
        <ele>81.7</ele>
        <time>2015-02-23T19:38:23.200Z</time>
      </trkpt>
      <trkpt lat="48.85373" lon="2.34537">
        <ele>81.7</ele>
        <time>2015-02-23T19:38:24.198Z</time>
      </trkpt>
      <trkpt lat="48.85376" lon="2.3453">
        <ele>81.5</ele>
        <time>2015-02-23T19:38:25.234Z</time>
      </trkpt>
      <trkpt lat="48.85379" lon="2.34523">
        <ele>81.5</ele>
        <time>2015-02-23T19:38:26.273Z</time>
      </trkpt>
      <trkpt lat="48.85381" lon="2.34517">
        <ele>81.7</ele>
        <time>2015-02-23T19:38:27.189Z</time>
      </trkpt>
      <trkpt lat="48.85383" lon="2.34511">
        <ele>81.8</ele>
        <time>2015-02-23T19:38:28.200Z</time>
      </trkpt>
      <trkpt lat="48.85385" lon="2.34499">
        <ele>82.1</ele>
        <time>2015-02-23T19:38:30.223Z</time>
      </trkpt>
      <trkpt lat="48.85386" lon="2.34494">
        <ele>82.2</ele>
        <time>2015-02-23T19:38:31.288Z</time>
      </trkpt>
      <trkpt lat="48.85389" lon="2.34486">
        <ele>82.2</ele>
        <time>2015-02-23T19:38:33.196Z</time>
      </trkpt>
      <trkpt lat="48.85391" lon="2.34483">
        <ele>82.4</ele>
        <time>2015-02-23T19:38:34.190Z</time>
      </trkpt>
      <trkpt lat="48.85389" lon="2.34473">
        <ele>82</ele>
        <time>2015-02-23T19:38:37.251Z</time>
      </trkpt>
      <trkpt lat="48.85387" lon="2.34469">
        <ele>81.7</ele>
        <time>2015-02-23T19:38:38.223Z</time>
      </trkpt>
      <trkpt lat="48.85384" lon="2.34463">
        <ele>81.3</ele>
        <time>2015-02-23T19:38:41.329Z</time>
      </trkpt>
      <trkpt lat="48.85382" lon="2.34461">
        <ele>80.9</ele>
        <time>2015-02-23T19:38:42.276Z</time>
      </trkpt>
      <trkpt lat="48.85382" lon="2.3446">
        <ele>81.1</ele>
        <time>2015-02-23T19:38:52.210Z</time>
      </trkpt>
      <trkpt lat="48.85379" lon="2.34454">
        <ele>81.1</ele>
        <time>2015-02-23T19:38:53.260Z</time>
      </trkpt>
      <trkpt lat="48.85382" lon="2.34443">
        <ele>81.4</ele>
        <time>2015-02-23T19:39:00.182Z</time>
      </trkpt>
      <trkpt lat="48.85383" lon="2.34441">
        <ele>81.5</ele>
        <time>2015-02-23T19:39:01.326Z</time>
      </trkpt>
      <trkpt lat="48.85387" lon="2.34429">
        <ele>81.6</ele>
        <time>2015-02-23T19:39:07.319Z</time>
      </trkpt>
      <trkpt lat="48.85387" lon="2.34426">
        <ele>81.5</ele>
        <time>2015-02-23T19:39:08.281Z</time>
      </trkpt>
      <trkpt lat="48.85391" lon="2.34414">
        <ele>80.9</ele>
        <time>2015-02-23T19:39:12.278Z</time>
      </trkpt>
      <trkpt lat="48.85391" lon="2.34411">
        <ele>81</ele>
        <time>2015-02-23T19:39:13.364Z</time>
      </trkpt>
      <trkpt lat="48.85395" lon="2.34401">
        <ele>80.8</ele>
        <time>2015-02-23T19:39:16.225Z</time>
      </trkpt>
      <trkpt lat="48.85397" lon="2.34397">
        <ele>80.8</ele>
        <time>2015-02-23T19:39:17.277Z</time>
      </trkpt>
      <trkpt lat="48.85402" lon="2.34388">
        <ele>80.8</ele>
        <time>2015-02-23T19:39:20.204Z</time>
      </trkpt>
      <trkpt lat="48.85405" lon="2.34383">
        <ele>80.6</ele>
        <time>2015-02-23T19:39:21.297Z</time>
      </trkpt>
      <trkpt lat="48.85411" lon="2.34373">
        <ele>80.7</ele>
        <time>2015-02-23T19:39:23.252Z</time>
      </trkpt>
      <trkpt lat="48.85414" lon="2.34367">
        <ele>80.6</ele>
        <time>2015-02-23T19:39:24.264Z</time>
      </trkpt>
      <trkpt lat="48.85418" lon="2.34361">
        <ele>80.7</ele>
        <time>2015-02-23T19:39:25.290Z</time>
      </trkpt>
      <trkpt lat="48.85422" lon="2.34355">
        <ele>80.9</ele>
        <time>2015-02-23T19:39:26.183Z</time>
      </trkpt>
      <trkpt lat="48.85425" lon="2.34348">
        <ele>81</ele>
        <time>2015-02-23T19:39:27.201Z</time>
      </trkpt>
      <trkpt lat="48.85429" lon="2.34341">
        <ele>81.1</ele>
        <time>2015-02-23T19:39:28.216Z</time>
      </trkpt>
      <trkpt lat="48.85433" lon="2.34334">
        <ele>81.1</ele>
        <time>2015-02-23T19:39:29.226Z</time>
      </trkpt>
      <trkpt lat="48.85437" lon="2.34327">
        <ele>81.1</ele>
        <time>2015-02-23T19:39:30.182Z</time>
      </trkpt>
      <trkpt lat="48.85441" lon="2.34321">
        <ele>80.4</ele>
        <time>2015-02-23T19:39:31.304Z</time>
      </trkpt>
      <trkpt lat="48.85443" lon="2.34314">
        <ele>80.2</ele>
        <time>2015-02-23T19:39:32.189Z</time>
      </trkpt>
      <trkpt lat="48.85446" lon="2.34308">
        <ele>80.1</ele>
        <time>2015-02-23T19:39:33.216Z</time>
      </trkpt>
      <trkpt lat="48.85449" lon="2.34303">
        <ele>80</ele>
        <time>2015-02-23T19:39:34.229Z</time>
      </trkpt>
      <trkpt lat="48.85453" lon="2.34292">
        <ele>79.8</ele>
        <time>2015-02-23T19:39:36.215Z</time>
      </trkpt>
      <trkpt lat="48.85455" lon="2.34288">
        <ele>79.9</ele>
        <time>2015-02-23T19:39:37.254Z</time>
      </trkpt>
      <trkpt lat="48.8546" lon="2.34278">
        <ele>79.9</ele>
        <time>2015-02-23T19:39:39.204Z</time>
      </trkpt>
      <trkpt lat="48.85462" lon="2.34273">
        <ele>80</ele>
        <time>2015-02-23T19:39:40.204Z</time>
      </trkpt>
      <trkpt lat="48.85467" lon="2.34263">
        <ele>79.8</ele>
        <time>2015-02-23T19:39:42.205Z</time>
      </trkpt>
      <trkpt lat="48.85469" lon="2.34257">
        <ele>79.8</ele>
        <time>2015-02-23T19:39:43.355Z</time>
      </trkpt>
      <trkpt lat="48.85472" lon="2.34251">
        <ele>79.9</ele>
        <time>2015-02-23T19:39:44.208Z</time>
      </trkpt>
      <trkpt lat="48.85475" lon="2.34246">
        <ele>79.9</ele>
        <time>2015-02-23T19:39:45.210Z</time>
      </trkpt>
      <trkpt lat="48.85479" lon="2.34242">
        <ele>79.9</ele>
        <time>2015-02-23T19:39:46.239Z</time>
      </trkpt>
      <trkpt lat="48.85483" lon="2.34236">
        <ele>79.9</ele>
        <time>2015-02-23T19:39:47.241Z</time>
      </trkpt>
      <trkpt lat="48.85486" lon="2.34231">
        <ele>79.8</ele>
        <time>2015-02-23T19:39:48.282Z</time>
      </trkpt>
      <trkpt lat="48.8549" lon="2.34226">
        <ele>79.7</ele>
        <time>2015-02-23T19:39:49.299Z</time>
      </trkpt>
      <trkpt lat="48.85493" lon="2.34221">
        <ele>79.9</ele>
        <time>2015-02-23T19:39:50.274Z</time>
      </trkpt>
      <trkpt lat="48.85497" lon="2.34216">
        <ele>79.9</ele>
        <time>2015-02-23T19:39:51.245Z</time>
      </trkpt>
      <trkpt lat="48.85504" lon="2.34208">
        <ele>80.1</ele>
        <time>2015-02-23T19:39:53.270Z</time>
      </trkpt>
      <trkpt lat="48.85507" lon="2.34203">
        <ele>80.1</ele>
        <time>2015-02-23T19:39:54.194Z</time>
      </trkpt>
      <trkpt lat="48.85513" lon="2.34193">
        <ele>80.3</ele>
        <time>2015-02-23T19:39:56.263Z</time>
      </trkpt>
      <trkpt lat="48.85516" lon="2.34188">
        <ele>80.3</ele>
        <time>2015-02-23T19:39:57.328Z</time>
      </trkpt>
      <trkpt lat="48.85519" lon="2.34182">
        <ele>80.3</ele>
        <time>2015-02-23T19:39:58.355Z</time>
      </trkpt>
      <trkpt lat="48.85522" lon="2.34177">
        <ele>80.3</ele>
        <time>2015-02-23T19:39:59.201Z</time>
      </trkpt>
      <trkpt lat="48.85527" lon="2.34169">
        <ele>80.5</ele>
        <time>2015-02-23T19:40:01.744Z</time>
      </trkpt>
      <trkpt lat="48.85529" lon="2.34165">
        <ele>80.6</ele>
        <time>2015-02-23T19:40:02.259Z</time>
      </trkpt>
      <trkpt lat="48.85534" lon="2.34155">
        <ele>80.9</ele>
        <time>2015-02-23T19:40:04.195Z</time>
      </trkpt>
      <trkpt lat="48.85537" lon="2.3415">
        <ele>80.8</ele>
        <time>2015-02-23T19:40:05.205Z</time>
      </trkpt>
      <trkpt lat="48.85544" lon="2.34141">
        <ele>80.8</ele>
        <time>2015-02-23T19:40:07.235Z</time>
      </trkpt>
      <trkpt lat="48.85547" lon="2.34137">
        <ele>80.9</ele>
        <time>2015-02-23T19:40:08.247Z</time>
      </trkpt>
      <trkpt lat="48.85553" lon="2.34128">
        <ele>81</ele>
        <time>2015-02-23T19:40:10.228Z</time>
      </trkpt>
      <trkpt lat="48.85556" lon="2.34123">
        <ele>81</ele>
        <time>2015-02-23T19:40:11.220Z</time>
      </trkpt>
      <trkpt lat="48.85562" lon="2.34115">
        <ele>80.8</ele>
        <time>2015-02-23T19:40:13.248Z</time>
      </trkpt>
      <trkpt lat="48.85565" lon="2.3411">
        <ele>80.9</ele>
        <time>2015-02-23T19:40:14.205Z</time>
      </trkpt>
      <trkpt lat="48.8557" lon="2.34101">
        <ele>81</ele>
        <time>2015-02-23T19:40:16.216Z</time>
      </trkpt>
      <trkpt lat="48.85573" lon="2.34098">
        <ele>81</ele>
        <time>2015-02-23T19:40:17.235Z</time>
      </trkpt>
      <trkpt lat="48.85578" lon="2.3409">
        <ele>80.9</ele>
        <time>2015-02-23T19:40:19.293Z</time>
      </trkpt>
      <trkpt lat="48.85581" lon="2.34086">
        <ele>80.6</ele>
        <time>2015-02-23T19:40:20.207Z</time>
      </trkpt>
      <trkpt lat="48.85585" lon="2.34078">
        <ele>80.4</ele>
        <time>2015-02-23T19:40:22.259Z</time>
      </trkpt>
      <trkpt lat="48.85587" lon="2.34075">
        <ele>80</ele>
        <time>2015-02-23T19:40:23.280Z</time>
      </trkpt>
      <trkpt lat="48.85592" lon="2.34068">
        <ele>79.3</ele>
        <time>2015-02-23T19:40:25.311Z</time>
      </trkpt>
      <trkpt lat="48.85594" lon="2.34064">
        <ele>79.1</ele>
        <time>2015-02-23T19:40:26.237Z</time>
      </trkpt>
      <trkpt lat="48.85597" lon="2.34053">
        <ele>78.6</ele>
        <time>2015-02-23T19:40:29.284Z</time>
      </trkpt>
      <trkpt lat="48.85599" lon="2.3405">
        <ele>78.9</ele>
        <time>2015-02-23T19:40:30.314Z</time>
      </trkpt>
      <trkpt lat="48.85604" lon="2.34043">
        <ele>79.2</ele>
        <time>2015-02-23T19:40:32.852Z</time>
      </trkpt>
      <trkpt lat="48.85607" lon="2.34037">
        <ele>79.3</ele>
        <time>2015-02-23T19:40:33.274Z</time>
      </trkpt>
      <trkpt lat="48.85614" lon="2.34031">
        <ele>79.8</ele>
        <time>2015-02-23T19:40:35.206Z</time>
      </trkpt>
      <trkpt lat="48.85618" lon="2.34028">
        <ele>80.1</ele>
        <time>2015-02-23T19:40:36.234Z</time>
      </trkpt>
      <trkpt lat="48.85624" lon="2.34022">
        <ele>79.7</ele>
        <time>2015-02-23T19:40:38.265Z</time>
      </trkpt>
      <trkpt lat="48.85627" lon="2.34017">
        <ele>79.8</ele>
        <time>2015-02-23T19:40:39.271Z</time>
      </trkpt>
      <trkpt lat="48.85633" lon="2.34008">
        <ele>79.3</ele>
        <time>2015-02-23T19:40:41.287Z</time>
      </trkpt>
      <trkpt lat="48.85636" lon="2.34004">
        <ele>79.3</ele>
        <time>2015-02-23T19:40:42.294Z</time>
      </trkpt>
      <trkpt lat="48.85642" lon="2.33996">
        <ele>79.2</ele>
        <time>2015-02-23T19:40:44.301Z</time>
      </trkpt>
      <trkpt lat="48.85645" lon="2.33991">
        <ele>78.9</ele>
        <time>2015-02-23T19:40:45.229Z</time>
      </trkpt>
      <trkpt lat="48.85651" lon="2.33981">
        <ele>78.3</ele>
        <time>2015-02-23T19:40:48.014Z</time>
      </trkpt>
      <trkpt lat="48.85654" lon="2.33975">
        <ele>78.1</ele>
        <time>2015-02-23T19:40:48.240Z</time>
      </trkpt>
      <trkpt lat="48.85657" lon="2.33969">
        <ele>77.8</ele>
        <time>2015-02-23T19:40:49.252Z</time>
      </trkpt>
      <trkpt lat="48.85659" lon="2.33963">
        <ele>77.5</ele>
        <time>2015-02-23T19:40:50.265Z</time>
      </trkpt>
      <trkpt lat="48.85662" lon="2.33957">
        <ele>77.3</ele>
        <time>2015-02-23T19:40:51.204Z</time>
      </trkpt>
      <trkpt lat="48.85665" lon="2.33951">
        <ele>77</ele>
        <time>2015-02-23T19:40:52.216Z</time>
      </trkpt>
      <trkpt lat="48.85668" lon="2.33945">
        <ele>76.7</ele>
        <time>2015-02-23T19:40:53.179Z</time>
      </trkpt>
      <trkpt lat="48.85671" lon="2.33939">
        <ele>76.6</ele>
        <time>2015-02-23T19:40:54.190Z</time>
      </trkpt>
      <trkpt lat="48.85674" lon="2.33933">
        <ele>76.7</ele>
        <time>2015-02-23T19:40:55.250Z</time>
      </trkpt>
      <trkpt lat="48.85677" lon="2.33926">
        <ele>76.9</ele>
        <time>2015-02-23T19:40:56.266Z</time>
      </trkpt>
      <trkpt lat="48.8568" lon="2.33921">
        <ele>76.8</ele>
        <time>2015-02-23T19:40:57.287Z</time>
      </trkpt>
      <trkpt lat="48.85683" lon="2.33915">
        <ele>76.8</ele>
        <time>2015-02-23T19:40:58.203Z</time>
      </trkpt>
      <trkpt lat="48.85686" lon="2.3391">
        <ele>76.7</ele>
        <time>2015-02-23T19:40:59.203Z</time>
      </trkpt>
      <trkpt lat="48.85689" lon="2.33905">
        <ele>76.8</ele>
        <time>2015-02-23T19:41:00.268Z</time>
      </trkpt>
      <trkpt lat="48.85696" lon="2.33896">
        <ele>76.8</ele>
        <time>2015-02-23T19:41:02.185Z</time>
      </trkpt>
      <trkpt lat="48.85699" lon="2.33892">
        <ele>76.7</ele>
        <time>2015-02-23T19:41:03.303Z</time>
      </trkpt>
      <trkpt lat="48.85706" lon="2.33884">
        <ele>76.7</ele>
        <time>2015-02-23T19:41:05.201Z</time>
      </trkpt>
      <trkpt lat="48.8571" lon="2.3388">
        <ele>76.7</ele>
        <time>2015-02-23T19:41:06.213Z</time>
      </trkpt>
      <trkpt lat="48.85717" lon="2.33873">
        <ele>76.7</ele>
        <time>2015-02-23T19:41:08.247Z</time>
      </trkpt>
      <trkpt lat="48.85721" lon="2.33869">
        <ele>76.6</ele>
        <time>2015-02-23T19:41:09.191Z</time>
      </trkpt>
      <trkpt lat="48.85726" lon="2.33861">
        <ele>76.2</ele>
        <time>2015-02-23T19:41:11.192Z</time>
      </trkpt>
      <trkpt lat="48.85727" lon="2.33855">
        <ele>75.4</ele>
        <time>2015-02-23T19:41:12.205Z</time>
      </trkpt>
      <trkpt lat="48.8573" lon="2.3385">
        <ele>75.6</ele>
        <time>2015-02-23T19:41:13.235Z</time>
      </trkpt>
      <trkpt lat="48.85734" lon="2.33845">
        <ele>76.1</ele>
        <time>2015-02-23T19:41:14.249Z</time>
      </trkpt>
      <trkpt lat="48.85737" lon="2.3384">
        <ele>76.2</ele>
        <time>2015-02-23T19:41:15.269Z</time>
      </trkpt>
      <trkpt lat="48.8574" lon="2.33835">
        <ele>76.5</ele>
        <time>2015-02-23T19:41:16.170Z</time>
      </trkpt>
      <trkpt lat="48.85747" lon="2.33827">
        <ele>76.8</ele>
        <time>2015-02-23T19:41:18.608Z</time>
      </trkpt>
      <trkpt lat="48.8575" lon="2.33822">
        <ele>76.8</ele>
        <time>2015-02-23T19:41:19.276Z</time>
      </trkpt>
      <trkpt lat="48.85755" lon="2.33813">
        <ele>76.8</ele>
        <time>2015-02-23T19:41:21.811Z</time>
      </trkpt>
      <trkpt lat="48.85757" lon="2.33807">
        <ele>76.8</ele>
        <time>2015-02-23T19:41:22.223Z</time>
      </trkpt>
      <trkpt lat="48.85758" lon="2.338">
        <ele>76.9</ele>
        <time>2015-02-23T19:41:23.263Z</time>
      </trkpt>
      <trkpt lat="48.8576" lon="2.33794">
        <ele>77.1</ele>
        <time>2015-02-23T19:41:24.273Z</time>
      </trkpt>
      <trkpt lat="48.85762" lon="2.33787">
        <ele>77.2</ele>
        <time>2015-02-23T19:41:25.406Z</time>
      </trkpt>
      <trkpt lat="48.85764" lon="2.33781">
        <ele>77.3</ele>
        <time>2015-02-23T19:41:26.200Z</time>
      </trkpt>
      <trkpt lat="48.85766" lon="2.33774">
        <ele>77.5</ele>
        <time>2015-02-23T19:41:27.209Z</time>
      </trkpt>
      <trkpt lat="48.85768" lon="2.33768">
        <ele>77.5</ele>
        <time>2015-02-23T19:41:28.213Z</time>
      </trkpt>
      <trkpt lat="48.8577" lon="2.33761">
        <ele>77.5</ele>
        <time>2015-02-23T19:41:29.221Z</time>
      </trkpt>
      <trkpt lat="48.85771" lon="2.33755">
        <ele>77.6</ele>
        <time>2015-02-23T19:41:30.241Z</time>
      </trkpt>
      <trkpt lat="48.85772" lon="2.33748">
        <ele>77.7</ele>
        <time>2015-02-23T19:41:31.868Z</time>
      </trkpt>
      <trkpt lat="48.85773" lon="2.33741">
        <ele>77.9</ele>
        <time>2015-02-23T19:41:32.276Z</time>
      </trkpt>
      <trkpt lat="48.85775" lon="2.33735">
        <ele>78.1</ele>
        <time>2015-02-23T19:41:33.193Z</time>
      </trkpt>
      <trkpt lat="48.85776" lon="2.33728">
        <ele>78.7</ele>
        <time>2015-02-23T19:41:34.194Z</time>
      </trkpt>
      <trkpt lat="48.85777" lon="2.33721">
        <ele>79.1</ele>
        <time>2015-02-23T19:41:35.211Z</time>
      </trkpt>
      <trkpt lat="48.85778" lon="2.33714">
        <ele>79.1</ele>
        <time>2015-02-23T19:41:36.224Z</time>
      </trkpt>
      <trkpt lat="48.8578" lon="2.33707">
        <ele>79.1</ele>
        <time>2015-02-23T19:41:37.251Z</time>
      </trkpt>
      <trkpt lat="48.85781" lon="2.337">
        <ele>79</ele>
        <time>2015-02-23T19:41:38.257Z</time>
      </trkpt>
      <trkpt lat="48.85782" lon="2.33693">
        <ele>78.7</ele>
        <time>2015-02-23T19:41:39.266Z</time>
      </trkpt>
      <trkpt lat="48.85783" lon="2.33686">
        <ele>78.9</ele>
        <time>2015-02-23T19:41:40.282Z</time>
      </trkpt>
      <trkpt lat="48.85784" lon="2.3368">
        <ele>79</ele>
        <time>2015-02-23T19:41:41.968Z</time>
      </trkpt>
      <trkpt lat="48.85785" lon="2.33673">
        <ele>79.1</ele>
        <time>2015-02-23T19:41:42.219Z</time>
      </trkpt>
      <trkpt lat="48.85786" lon="2.33666">
        <ele>79.1</ele>
        <time>2015-02-23T19:41:43.285Z</time>
      </trkpt>
      <trkpt lat="48.85788" lon="2.33659">
        <ele>79.2</ele>
        <time>2015-02-23T19:41:44.196Z</time>
      </trkpt>
      <trkpt lat="48.85791" lon="2.33646">
        <ele>79</ele>
        <time>2015-02-23T19:41:47.177Z</time>
      </trkpt>
      <trkpt lat="48.85792" lon="2.33639">
        <ele>79</ele>
        <time>2015-02-23T19:41:47.233Z</time>
      </trkpt>
      <trkpt lat="48.85792" lon="2.33629">
        <ele>79.2</ele>
        <time>2015-02-23T19:41:48.250Z</time>
      </trkpt>
      <trkpt lat="48.85791" lon="2.33622">
        <ele>79.1</ele>
        <time>2015-02-23T19:41:49.264Z</time>
      </trkpt>
      <trkpt lat="48.85791" lon="2.33609">
        <ele>79</ele>
        <time>2015-02-23T19:41:51.219Z</time>
      </trkpt>
      <trkpt lat="48.85791" lon="2.33603">
        <ele>78.9</ele>
        <time>2015-02-23T19:41:52.207Z</time>
      </trkpt>
      <trkpt lat="48.8579" lon="2.33591">
        <ele>79</ele>
        <time>2015-02-23T19:41:54.252Z</time>
      </trkpt>
      <trkpt lat="48.8579" lon="2.33584">
        <ele>79</ele>
        <time>2015-02-23T19:41:55.212Z</time>
      </trkpt>
      <trkpt lat="48.8579" lon="2.33577">
        <ele>79.2</ele>
        <time>2015-02-23T19:41:56.238Z</time>
      </trkpt>
      <trkpt lat="48.8579" lon="2.3357">
        <ele>79.5</ele>
        <time>2015-02-23T19:41:57.247Z</time>
      </trkpt>
      <trkpt lat="48.8579" lon="2.33563">
        <ele>79.6</ele>
        <time>2015-02-23T19:41:58.271Z</time>
      </trkpt>
      <trkpt lat="48.85789" lon="2.33556">
        <ele>79.7</ele>
        <time>2015-02-23T19:41:59.277Z</time>
      </trkpt>
      <trkpt lat="48.85789" lon="2.33548">
        <ele>79.8</ele>
        <time>2015-02-23T19:42:00.173Z</time>
      </trkpt>
      <trkpt lat="48.85789" lon="2.33541">
        <ele>79.9</ele>
        <time>2015-02-23T19:42:01.234Z</time>
      </trkpt>
      <trkpt lat="48.85789" lon="2.33534">
        <ele>79.9</ele>
        <time>2015-02-23T19:42:02.244Z</time>
      </trkpt>
      <trkpt lat="48.85789" lon="2.33526">
        <ele>79.9</ele>
        <time>2015-02-23T19:42:03.251Z</time>
      </trkpt>
      <trkpt lat="48.8579" lon="2.33519">
        <ele>79.9</ele>
        <time>2015-02-23T19:42:04.271Z</time>
      </trkpt>
      <trkpt lat="48.8579" lon="2.33512">
        <ele>80</ele>
        <time>2015-02-23T19:42:05.302Z</time>
      </trkpt>
      <trkpt lat="48.85789" lon="2.33504">
        <ele>80.2</ele>
        <time>2015-02-23T19:42:06.207Z</time>
      </trkpt>
      <trkpt lat="48.8579" lon="2.33498">
        <ele>80</ele>
        <time>2015-02-23T19:42:07.245Z</time>
      </trkpt>
      <trkpt lat="48.85791" lon="2.33491">
        <ele>79.9</ele>
        <time>2015-02-23T19:42:08.257Z</time>
      </trkpt>
      <trkpt lat="48.85793" lon="2.33485">
        <ele>79.8</ele>
        <time>2015-02-23T19:42:09.262Z</time>
      </trkpt>
      <trkpt lat="48.85795" lon="2.33474">
        <ele>79.7</ele>
        <time>2015-02-23T19:42:11.189Z</time>
      </trkpt>
      <trkpt lat="48.85796" lon="2.33468">
        <ele>79.7</ele>
        <time>2015-02-23T19:42:12.207Z</time>
      </trkpt>
      <trkpt lat="48.85796" lon="2.33457">
        <ele>79.7</ele>
        <time>2015-02-23T19:42:14.189Z</time>
      </trkpt>
      <trkpt lat="48.85796" lon="2.3345">
        <ele>79.7</ele>
        <time>2015-02-23T19:42:15.310Z</time>
      </trkpt>
      <trkpt lat="48.85797" lon="2.33438">
        <ele>79.7</ele>
        <time>2015-02-23T19:42:17.192Z</time>
      </trkpt>
      <trkpt lat="48.85798" lon="2.33432">
        <ele>79.9</ele>
        <time>2015-02-23T19:42:18.207Z</time>
      </trkpt>
      <trkpt lat="48.85801" lon="2.33426">
        <ele>79.9</ele>
        <time>2015-02-23T19:42:19.330Z</time>
      </trkpt>
      <trkpt lat="48.85805" lon="2.33422">
        <ele>80</ele>
        <time>2015-02-23T19:42:20.286Z</time>
      </trkpt>
      <trkpt lat="48.85808" lon="2.33418">
        <ele>80</ele>
        <time>2015-02-23T19:42:21.200Z</time>
      </trkpt>
      <trkpt lat="48.85812" lon="2.33413">
        <ele>80.1</ele>
        <time>2015-02-23T19:42:22.204Z</time>
      </trkpt>
      <trkpt lat="48.85818" lon="2.33406">
        <ele>79.9</ele>
        <time>2015-02-23T19:42:24.234Z</time>
      </trkpt>
      <trkpt lat="48.85821" lon="2.33403">
        <ele>80</ele>
        <time>2015-02-23T19:42:25.264Z</time>
      </trkpt>
      <trkpt lat="48.85826" lon="2.33394">
        <ele>79.9</ele>
        <time>2015-02-23T19:42:27.187Z</time>
      </trkpt>
      <trkpt lat="48.85828" lon="2.33389">
        <ele>79.7</ele>
        <time>2015-02-23T19:42:28.207Z</time>
      </trkpt>
      <trkpt lat="48.85832" lon="2.33378">
        <ele>79.2</ele>
        <time>2015-02-23T19:42:30.226Z</time>
      </trkpt>
      <trkpt lat="48.85833" lon="2.33372">
        <ele>79</ele>
        <time>2015-02-23T19:42:31.266Z</time>
      </trkpt>
      <trkpt lat="48.85836" lon="2.33362">
        <ele>78.7</ele>
        <time>2015-02-23T19:42:33.185Z</time>
      </trkpt>
      <trkpt lat="48.85838" lon="2.33356">
        <ele>78.5</ele>
        <time>2015-02-23T19:42:34.203Z</time>
      </trkpt>
      <trkpt lat="48.8584" lon="2.33343">
        <ele>78.4</ele>
        <time>2015-02-23T19:42:36.253Z</time>
      </trkpt>
      <trkpt lat="48.85842" lon="2.33337">
        <ele>78.4</ele>
        <time>2015-02-23T19:42:37.271Z</time>
      </trkpt>
      <trkpt lat="48.85846" lon="2.33325">
        <ele>78.6</ele>
        <time>2015-02-23T19:42:39.205Z</time>
      </trkpt>
      <trkpt lat="48.85848" lon="2.3332">
        <ele>78.7</ele>
        <time>2015-02-23T19:42:40.210Z</time>
      </trkpt>
      <trkpt lat="48.8585" lon="2.33309">
        <ele>79</ele>
        <time>2015-02-23T19:42:42.251Z</time>
      </trkpt>
      <trkpt lat="48.85851" lon="2.33304">
        <ele>79.1</ele>
        <time>2015-02-23T19:42:43.279Z</time>
      </trkpt>
      <trkpt lat="48.85854" lon="2.33292">
        <ele>78.9</ele>
        <time>2015-02-23T19:42:46.198Z</time>
      </trkpt>
      <trkpt lat="48.85855" lon="2.33288">
        <ele>79</ele>
        <time>2015-02-23T19:42:47.209Z</time>
      </trkpt>
      <trkpt lat="48.85854" lon="2.33279">
        <ele>79.1</ele>
        <time>2015-02-23T19:42:49.311Z</time>
      </trkpt>
      <trkpt lat="48.85854" lon="2.33274">
        <ele>79</ele>
        <time>2015-02-23T19:42:50.244Z</time>
      </trkpt>
      <trkpt lat="48.85856" lon="2.33262">
        <ele>79.2</ele>
        <time>2015-02-23T19:42:53.198Z</time>
      </trkpt>
      <trkpt lat="48.85857" lon="2.33258">
        <ele>79.3</ele>
        <time>2015-02-23T19:42:54.200Z</time>
      </trkpt>
      <trkpt lat="48.8586" lon="2.33248">
        <ele>79.3</ele>
        <time>2015-02-23T19:42:56.262Z</time>
      </trkpt>
      <trkpt lat="48.85861" lon="2.33242">
        <ele>79.2</ele>
        <time>2015-02-23T19:42:57.283Z</time>
      </trkpt>
      <trkpt lat="48.85864" lon="2.3323">
        <ele>79.2</ele>
        <time>2015-02-23T19:42:59.551Z</time>
      </trkpt>
      <trkpt lat="48.85866" lon="2.33224">
        <ele>79.1</ele>
        <time>2015-02-23T19:43:00.213Z</time>
      </trkpt>
      <trkpt lat="48.85869" lon="2.33212">
        <ele>79.2</ele>
        <time>2015-02-23T19:43:02.201Z</time>
      </trkpt>
      <trkpt lat="48.8587" lon="2.33207">
        <ele>79.1</ele>
        <time>2015-02-23T19:43:03.296Z</time>
      </trkpt>
      <trkpt lat="48.85875" lon="2.33195">
        <ele>79.2</ele>
        <time>2015-02-23T19:43:05.256Z</time>
      </trkpt>
      <trkpt lat="48.85876" lon="2.3319">
        <ele>79</ele>
        <time>2015-02-23T19:43:06.236Z</time>
      </trkpt>
      <trkpt lat="48.8588" lon="2.33179">
        <ele>78.5</ele>
        <time>2015-02-23T19:43:08.261Z</time>
      </trkpt>
      <trkpt lat="48.85882" lon="2.33174">
        <ele>78.4</ele>
        <time>2015-02-23T19:43:09.276Z</time>
      </trkpt>
      <trkpt lat="48.85884" lon="2.33167">
        <ele>78.2</ele>
        <time>2015-02-23T19:43:10.164Z</time>
      </trkpt>
      <trkpt lat="48.85887" lon="2.33161">
        <ele>78.2</ele>
        <time>2015-02-23T19:43:11.293Z</time>
      </trkpt>
      <trkpt lat="48.85889" lon="2.33155">
        <ele>78.3</ele>
        <time>2015-02-23T19:43:12.231Z</time>
      </trkpt>
      <trkpt lat="48.85891" lon="2.33148">
        <ele>78.3</ele>
        <time>2015-02-23T19:43:13.239Z</time>
      </trkpt>
      <trkpt lat="48.85894" lon="2.33143">
        <ele>78.1</ele>
        <time>2015-02-23T19:43:15.017Z</time>
      </trkpt>
      <trkpt lat="48.85896" lon="2.33137">
        <ele>78</ele>
        <time>2015-02-23T19:43:15.251Z</time>
      </trkpt>
      <trkpt lat="48.85899" lon="2.33131">
        <ele>78</ele>
        <time>2015-02-23T19:43:16.261Z</time>
      </trkpt>
      <trkpt lat="48.85901" lon="2.33125">
        <ele>78</ele>
        <time>2015-02-23T19:43:17.272Z</time>
      </trkpt>
      <trkpt lat="48.85904" lon="2.33119">
        <ele>78</ele>
        <time>2015-02-23T19:43:18.275Z</time>
      </trkpt>
      <trkpt lat="48.85906" lon="2.33113">
        <ele>77.9</ele>
        <time>2015-02-23T19:43:19.281Z</time>
      </trkpt>
      <trkpt lat="48.85909" lon="2.33106">
        <ele>77.7</ele>
        <time>2015-02-23T19:43:20.200Z</time>
      </trkpt>
      <trkpt lat="48.85911" lon="2.33099">
        <ele>77.7</ele>
        <time>2015-02-23T19:43:21.219Z</time>
      </trkpt>
      <trkpt lat="48.85913" lon="2.33091">
        <ele>77.6</ele>
        <time>2015-02-23T19:43:22.248Z</time>
      </trkpt>
      <trkpt lat="48.85915" lon="2.33084">
        <ele>77.4</ele>
        <time>2015-02-23T19:43:23.246Z</time>
      </trkpt>
      <trkpt lat="48.85917" lon="2.33077">
        <ele>77.4</ele>
        <time>2015-02-23T19:43:24.257Z</time>
      </trkpt>
      <trkpt lat="48.85919" lon="2.3307">
        <ele>77.5</ele>
        <time>2015-02-23T19:43:25.336Z</time>
      </trkpt>
      <trkpt lat="48.85921" lon="2.33063">
        <ele>77.6</ele>
        <time>2015-02-23T19:43:26.178Z</time>
      </trkpt>
      <trkpt lat="48.85923" lon="2.33057">
        <ele>77.8</ele>
        <time>2015-02-23T19:43:27.183Z</time>
      </trkpt>
      <trkpt lat="48.85927" lon="2.33045">
        <ele>78.1</ele>
        <time>2015-02-23T19:43:29.201Z</time>
      </trkpt>
      <trkpt lat="48.8593" lon="2.33039">
        <ele>78.2</ele>
        <time>2015-02-23T19:43:30.230Z</time>
      </trkpt>
      <trkpt lat="48.85934" lon="2.33028">
        <ele>78.3</ele>
        <time>2015-02-23T19:43:32.173Z</time>
      </trkpt>
      <trkpt lat="48.85936" lon="2.33022">
        <ele>78.3</ele>
        <time>2015-02-23T19:43:33.197Z</time>
      </trkpt>
      <trkpt lat="48.85939" lon="2.3301">
        <ele>78.3</ele>
        <time>2015-02-23T19:43:35.247Z</time>
      </trkpt>
      <trkpt lat="48.8594" lon="2.33005">
        <ele>78.3</ele>
        <time>2015-02-23T19:43:36.256Z</time>
      </trkpt>
      <trkpt lat="48.85943" lon="2.32996">
        <ele>78.4</ele>
        <time>2015-02-23T19:43:38.211Z</time>
      </trkpt>
      <trkpt lat="48.85944" lon="2.32991">
        <ele>78.4</ele>
        <time>2015-02-23T19:43:39.228Z</time>
      </trkpt>
      <trkpt lat="48.85946" lon="2.32981">
        <ele>78.5</ele>
        <time>2015-02-23T19:43:41.203Z</time>
      </trkpt>
      <trkpt lat="48.85947" lon="2.32976">
        <ele>78.6</ele>
        <time>2015-02-23T19:43:42.194Z</time>
      </trkpt>
      <trkpt lat="48.8595" lon="2.32966">
        <ele>78.7</ele>
        <time>2015-02-23T19:43:45.173Z</time>
      </trkpt>
      <trkpt lat="48.85951" lon="2.32962">
        <ele>78.7</ele>
        <time>2015-02-23T19:43:46.183Z</time>
      </trkpt>
      <trkpt lat="48.85953" lon="2.32949">
        <ele>78.3</ele>
        <time>2015-02-23T19:43:51.252Z</time>
      </trkpt>
      <trkpt lat="48.85953" lon="2.32948">
        <ele>78.2</ele>
        <time>2015-02-23T19:43:52.249Z</time>
      </trkpt>
      <trkpt lat="48.85955" lon="2.32935">
        <ele>78.6</ele>
        <time>2015-02-23T19:44:04.226Z</time>
      </trkpt>
      <trkpt lat="48.85957" lon="2.32933">
        <ele>78.5</ele>
        <time>2015-02-23T19:44:05.221Z</time>
      </trkpt>
      <trkpt lat="48.85962" lon="2.32924">
        <ele>78.3</ele>
        <time>2015-02-23T19:44:09.057Z</time>
      </trkpt>
      <trkpt lat="48.85964" lon="2.3292">
        <ele>78.4</ele>
        <time>2015-02-23T19:44:09.186Z</time>
      </trkpt>
      <trkpt lat="48.85966" lon="2.32911">
        <ele>78.1</ele>
        <time>2015-02-23T19:44:11.213Z</time>
      </trkpt>
      <trkpt lat="48.85968" lon="2.32907">
        <ele>78</ele>
        <time>2015-02-23T19:44:12.241Z</time>
      </trkpt>
      <trkpt lat="48.85972" lon="2.32896">
        <ele>78.1</ele>
        <time>2015-02-23T19:44:14.170Z</time>
      </trkpt>
      <trkpt lat="48.85974" lon="2.3289">
        <ele>78.1</ele>
        <time>2015-02-23T19:44:15.267Z</time>
      </trkpt>
      <trkpt lat="48.85978" lon="2.32879">
        <ele>78.2</ele>
        <time>2015-02-23T19:44:17.181Z</time>
      </trkpt>
      <trkpt lat="48.8598" lon="2.32873">
        <ele>78.2</ele>
        <time>2015-02-23T19:44:18.209Z</time>
      </trkpt>
      <trkpt lat="48.85984" lon="2.32862">
        <ele>78.2</ele>
        <time>2015-02-23T19:44:20.282Z</time>
      </trkpt>
      <trkpt lat="48.85986" lon="2.32856">
        <ele>78.3</ele>
        <time>2015-02-23T19:44:21.303Z</time>
      </trkpt>
      <trkpt lat="48.8599" lon="2.32845">
        <ele>78.5</ele>
        <time>2015-02-23T19:44:23.212Z</time>
      </trkpt>
      <trkpt lat="48.85991" lon="2.32839">
        <ele>78.6</ele>
        <time>2015-02-23T19:44:24.228Z</time>
      </trkpt>
      <trkpt lat="48.85994" lon="2.32829">
        <ele>78.7</ele>
        <time>2015-02-23T19:44:26.647Z</time>
      </trkpt>
      <trkpt lat="48.85995" lon="2.32824">
        <ele>78.7</ele>
        <time>2015-02-23T19:44:27.278Z</time>
      </trkpt>
      <trkpt lat="48.85998" lon="2.32815">
        <ele>78.5</ele>
        <time>2015-02-23T19:44:29.198Z</time>
      </trkpt>
      <trkpt lat="48.86" lon="2.3281">
        <ele>78.3</ele>
        <time>2015-02-23T19:44:30.280Z</time>
      </trkpt>
      <trkpt lat="48.86005" lon="2.32801">
        <ele>78.3</ele>
        <time>2015-02-23T19:44:33.227Z</time>
      </trkpt>
      <trkpt lat="48.86006" lon="2.32798">
        <ele>78.2</ele>
        <time>2015-02-23T19:44:34.227Z</time>
      </trkpt>
      <trkpt lat="48.86012" lon="2.32789">
        <ele>78.1</ele>
        <time>2015-02-23T19:44:39.245Z</time>
      </trkpt>
      <trkpt lat="48.86013" lon="2.32785">
        <ele>78</ele>
        <time>2015-02-23T19:44:40.264Z</time>
      </trkpt>
      <trkpt lat="48.86016" lon="2.32777">
        <ele>77.7</ele>
        <time>2015-02-23T19:44:42.257Z</time>
      </trkpt>
      <trkpt lat="48.86018" lon="2.32772">
        <ele>77.7</ele>
        <time>2015-02-23T19:44:43.209Z</time>
      </trkpt>
      <trkpt lat="48.86023" lon="2.32761">
        <ele>77.5</ele>
        <time>2015-02-23T19:44:45.223Z</time>
      </trkpt>
      <trkpt lat="48.86026" lon="2.32755">
        <ele>77.3</ele>
        <time>2015-02-23T19:44:46.235Z</time>
      </trkpt>
      <trkpt lat="48.86029" lon="2.32749">
        <ele>77.3</ele>
        <time>2015-02-23T19:44:47.252Z</time>
      </trkpt>
      <trkpt lat="48.86032" lon="2.32742">
        <ele>77.3</ele>
        <time>2015-02-23T19:44:48.265Z</time>
      </trkpt>
      <trkpt lat="48.86036" lon="2.32734">
        <ele>77.2</ele>
        <time>2015-02-23T19:44:49.311Z</time>
      </trkpt>
      <trkpt lat="48.86039" lon="2.32726">
        <ele>77.1</ele>
        <time>2015-02-23T19:44:50.185Z</time>
      </trkpt>
      <trkpt lat="48.86042" lon="2.32718">
        <ele>77</ele>
        <time>2015-02-23T19:44:52.083Z</time>
      </trkpt>
      <trkpt lat="48.86046" lon="2.3271">
        <ele>76.9</ele>
        <time>2015-02-23T19:44:52.232Z</time>
      </trkpt>
      <trkpt lat="48.86049" lon="2.32702">
        <ele>76.9</ele>
        <time>2015-02-23T19:44:53.202Z</time>
      </trkpt>
      <trkpt lat="48.86051" lon="2.32694">
        <ele>76.9</ele>
        <time>2015-02-23T19:44:54.206Z</time>
      </trkpt>
      <trkpt lat="48.86054" lon="2.32686">
        <ele>77</ele>
        <time>2015-02-23T19:44:55.278Z</time>
      </trkpt>
      <trkpt lat="48.86056" lon="2.32678">
        <ele>76.7</ele>
        <time>2015-02-23T19:44:56.292Z</time>
      </trkpt>
      <trkpt lat="48.86058" lon="2.32671">
        <ele>76.8</ele>
        <time>2015-02-23T19:44:57.208Z</time>
      </trkpt>
      <trkpt lat="48.8606" lon="2.32664">
        <ele>76.6</ele>
        <time>2015-02-23T19:44:58.227Z</time>
      </trkpt>
      <trkpt lat="48.86064" lon="2.32653">
        <ele>76.5</ele>
        <time>2015-02-23T19:45:00.248Z</time>
      </trkpt>
      <trkpt lat="48.86066" lon="2.32647">
        <ele>76.5</ele>
        <time>2015-02-23T19:45:01.263Z</time>
      </trkpt>
      <trkpt lat="48.86069" lon="2.32636">
        <ele>76.4</ele>
        <time>2015-02-23T19:45:03.270Z</time>
      </trkpt>
      <trkpt lat="48.86071" lon="2.32631">
        <ele>76.2</ele>
        <time>2015-02-23T19:45:04.271Z</time>
      </trkpt>
      <trkpt lat="48.86074" lon="2.3262">
        <ele>75.9</ele>
        <time>2015-02-23T19:45:06.273Z</time>
      </trkpt>
      <trkpt lat="48.86076" lon="2.32615">
        <ele>75.6</ele>
        <time>2015-02-23T19:45:07.308Z</time>
      </trkpt>
      <trkpt lat="48.8608" lon="2.32605">
        <ele>75.3</ele>
        <time>2015-02-23T19:45:09.200Z</time>
      </trkpt>
      <trkpt lat="48.86083" lon="2.326">
        <ele>75.3</ele>
        <time>2015-02-23T19:45:10.209Z</time>
      </trkpt>
      <trkpt lat="48.86087" lon="2.32589">
        <ele>75.3</ele>
        <time>2015-02-23T19:45:12.267Z</time>
      </trkpt>
      <trkpt lat="48.86089" lon="2.32583">
        <ele>75.3</ele>
        <time>2015-02-23T19:45:13.275Z</time>
      </trkpt>
      <trkpt lat="48.86093" lon="2.32572">
        <ele>75.5</ele>
        <time>2015-02-23T19:45:15.193Z</time>
      </trkpt>
      <trkpt lat="48.86096" lon="2.32565">
        <ele>75.9</ele>
        <time>2015-02-23T19:45:16.196Z</time>
      </trkpt>
      <trkpt lat="48.86098" lon="2.32559">
        <ele>76</ele>
        <time>2015-02-23T19:45:17.206Z</time>
      </trkpt>
      <trkpt lat="48.86099" lon="2.32552">
        <ele>75.4</ele>
        <time>2015-02-23T19:45:18.229Z</time>
      </trkpt>
      <trkpt lat="48.86102" lon="2.3254">
        <ele>75.1</ele>
        <time>2015-02-23T19:45:20.269Z</time>
      </trkpt>
      <trkpt lat="48.86104" lon="2.32534">
        <ele>75.2</ele>
        <time>2015-02-23T19:45:21.278Z</time>
      </trkpt>
      <trkpt lat="48.86108" lon="2.32523">
        <ele>75.3</ele>
        <time>2015-02-23T19:45:23.234Z</time>
      </trkpt>
      <trkpt lat="48.8611" lon="2.32517">
        <ele>75.2</ele>
        <time>2015-02-23T19:45:24.243Z</time>
      </trkpt>
      <trkpt lat="48.86114" lon="2.32505">
        <ele>75.1</ele>
        <time>2015-02-23T19:45:26.263Z</time>
      </trkpt>
      <trkpt lat="48.86116" lon="2.32499">
        <ele>75.1</ele>
        <time>2015-02-23T19:45:27.274Z</time>
      </trkpt>
      <trkpt lat="48.86118" lon="2.32492">
        <ele>74.9</ele>
        <time>2015-02-23T19:45:28.256Z</time>
      </trkpt>
      <trkpt lat="48.8612" lon="2.32485">
        <ele>74.7</ele>
        <time>2015-02-23T19:45:29.196Z</time>
      </trkpt>
      <trkpt lat="48.86122" lon="2.32478">
        <ele>74.9</ele>
        <time>2015-02-23T19:45:30.193Z</time>
      </trkpt>
      <trkpt lat="48.86124" lon="2.32469">
        <ele>75.3</ele>
        <time>2015-02-23T19:45:31.233Z</time>
      </trkpt>
      <trkpt lat="48.86125" lon="2.3246">
        <ele>75.6</ele>
        <time>2015-02-23T19:45:32.262Z</time>
      </trkpt>
      <trkpt lat="48.86126" lon="2.32453">
        <ele>75.7</ele>
        <time>2015-02-23T19:45:33.175Z</time>
      </trkpt>
      <trkpt lat="48.86128" lon="2.32446">
        <ele>75.7</ele>
        <time>2015-02-23T19:45:34.180Z</time>
      </trkpt>
      <trkpt lat="48.8613" lon="2.3244">
        <ele>75.7</ele>
        <time>2015-02-23T19:45:35.183Z</time>
      </trkpt>
      <trkpt lat="48.86133" lon="2.32428">
        <ele>75.6</ele>
        <time>2015-02-23T19:45:37.257Z</time>
      </trkpt>
      <trkpt lat="48.86135" lon="2.32421">
        <ele>75.7</ele>
        <time>2015-02-23T19:45:38.186Z</time>
      </trkpt>
      <trkpt lat="48.86137" lon="2.32415">
        <ele>75.8</ele>
        <time>2015-02-23T19:45:39.202Z</time>
      </trkpt>
      <trkpt lat="48.86139" lon="2.32409">
        <ele>75.9</ele>
        <time>2015-02-23T19:45:40.218Z</time>
      </trkpt>
      <trkpt lat="48.86142" lon="2.32397">
        <ele>75.8</ele>
        <time>2015-02-23T19:45:42.245Z</time>
      </trkpt>
      <trkpt lat="48.86143" lon="2.3239">
        <ele>75.7</ele>
        <time>2015-02-23T19:45:43.271Z</time>
      </trkpt>
      <trkpt lat="48.86146" lon="2.32379">
        <ele>75.6</ele>
        <time>2015-02-23T19:45:46.422Z</time>
      </trkpt>
      <trkpt lat="48.86148" lon="2.32373">
        <ele>75.5</ele>
        <time>2015-02-23T19:45:46.471Z</time>
      </trkpt>
      <trkpt lat="48.8615" lon="2.32366">
        <ele>75.5</ele>
        <time>2015-02-23T19:45:47.195Z</time>
      </trkpt>
      <trkpt lat="48.86152" lon="2.3236">
        <ele>75.3</ele>
        <time>2015-02-23T19:45:48.195Z</time>
      </trkpt>
      <trkpt lat="48.86155" lon="2.32349">
        <ele>75.2</ele>
        <time>2015-02-23T19:45:50.259Z</time>
      </trkpt>
      <trkpt lat="48.86158" lon="2.32343">
        <ele>75.2</ele>
        <time>2015-02-23T19:45:51.174Z</time>
      </trkpt>
      <trkpt lat="48.86162" lon="2.32333">
        <ele>75.4</ele>
        <time>2015-02-23T19:45:53.874Z</time>
      </trkpt>
      <trkpt lat="48.86163" lon="2.32328">
        <ele>75.3</ele>
        <time>2015-02-23T19:45:54.204Z</time>
      </trkpt>
      <trkpt lat="48.86167" lon="2.32318">
        <ele>75.3</ele>
        <time>2015-02-23T19:45:56.635Z</time>
      </trkpt>
      <trkpt lat="48.86168" lon="2.32313">
        <ele>75.1</ele>
        <time>2015-02-23T19:45:57.237Z</time>
      </trkpt>
      <trkpt lat="48.86172" lon="2.32303">
        <ele>74.6</ele>
        <time>2015-02-23T19:45:59.264Z</time>
      </trkpt>
      <trkpt lat="48.86173" lon="2.32298">
        <ele>74.8</ele>
        <time>2015-02-23T19:46:00.186Z</time>
      </trkpt>
      <trkpt lat="48.86177" lon="2.32288">
        <ele>74.5</ele>
        <time>2015-02-23T19:46:02.965Z</time>
      </trkpt>
      <trkpt lat="48.86179" lon="2.32283">
        <ele>74.3</ele>
        <time>2015-02-23T19:46:03.165Z</time>
      </trkpt>
      <trkpt lat="48.86184" lon="2.32273">
        <ele>73.9</ele>
        <time>2015-02-23T19:46:05.231Z</time>
      </trkpt>
      <trkpt lat="48.86186" lon="2.32267">
        <ele>74</ele>
        <time>2015-02-23T19:46:06.240Z</time>
      </trkpt>
      <trkpt lat="48.8619" lon="2.32256">
        <ele>74.3</ele>
        <time>2015-02-23T19:46:08.161Z</time>
      </trkpt>
      <trkpt lat="48.86192" lon="2.32251">
        <ele>74.3</ele>
        <time>2015-02-23T19:46:09.213Z</time>
      </trkpt>
      <trkpt lat="48.86196" lon="2.32241">
        <ele>73.9</ele>
        <time>2015-02-23T19:46:11.789Z</time>
      </trkpt>
      <trkpt lat="48.86199" lon="2.32236">
        <ele>73.9</ele>
        <time>2015-02-23T19:46:12.163Z</time>
      </trkpt>
      <trkpt lat="48.86204" lon="2.32226">
        <ele>74</ele>
        <time>2015-02-23T19:46:14.166Z</time>
      </trkpt>
      <trkpt lat="48.86206" lon="2.3222">
        <ele>74.1</ele>
        <time>2015-02-23T19:46:15.220Z</time>
      </trkpt>
      <trkpt lat="48.8621" lon="2.32209">
        <ele>74</ele>
        <time>2015-02-23T19:46:17.206Z</time>
      </trkpt>
      <trkpt lat="48.86211" lon="2.32203">
        <ele>74.1</ele>
        <time>2015-02-23T19:46:18.245Z</time>
      </trkpt>
      <trkpt lat="48.86214" lon="2.32193">
        <ele>74</ele>
        <time>2015-02-23T19:46:20.269Z</time>
      </trkpt>
      <trkpt lat="48.86216" lon="2.32187">
        <ele>74.1</ele>
        <time>2015-02-23T19:46:21.304Z</time>
      </trkpt>
      <trkpt lat="48.86218" lon="2.32181">
        <ele>74.1</ele>
        <time>2015-02-23T19:46:22.194Z</time>
      </trkpt>
      <trkpt lat="48.8622" lon="2.32175">
        <ele>74.2</ele>
        <time>2015-02-23T19:46:23.210Z</time>
      </trkpt>
      <trkpt lat="48.86222" lon="2.32168">
        <ele>74</ele>
        <time>2015-02-23T19:46:24.234Z</time>
      </trkpt>
      <trkpt lat="48.86223" lon="2.32161">
        <ele>74</ele>
        <time>2015-02-23T19:46:25.233Z</time>
      </trkpt>
      <trkpt lat="48.86224" lon="2.32154">
        <ele>74.1</ele>
        <time>2015-02-23T19:46:26.721Z</time>
      </trkpt>
      <trkpt lat="48.86225" lon="2.32146">
        <ele>74.1</ele>
        <time>2015-02-23T19:46:27.160Z</time>
      </trkpt>
      <trkpt lat="48.86227" lon="2.32139">
        <ele>74</ele>
        <time>2015-02-23T19:46:28.224Z</time>
      </trkpt>
      <trkpt lat="48.86228" lon="2.32133">
        <ele>73.9</ele>
        <time>2015-02-23T19:46:29.226Z</time>
      </trkpt>
      <trkpt lat="48.86229" lon="2.32126">
        <ele>73.9</ele>
        <time>2015-02-23T19:46:30.189Z</time>
      </trkpt>
      <trkpt lat="48.8623" lon="2.3212">
        <ele>73.7</ele>
        <time>2015-02-23T19:46:31.267Z</time>
      </trkpt>
      <trkpt lat="48.86232" lon="2.32113">
        <ele>73.5</ele>
        <time>2015-02-23T19:46:32.269Z</time>
      </trkpt>
      <trkpt lat="48.86233" lon="2.32106">
        <ele>73.3</ele>
        <time>2015-02-23T19:46:33.284Z</time>
      </trkpt>
      <trkpt lat="48.86234" lon="2.321">
        <ele>73.1</ele>
        <time>2015-02-23T19:46:34.191Z</time>
      </trkpt>
      <trkpt lat="48.86236" lon="2.32093">
        <ele>72.9</ele>
        <time>2015-02-23T19:46:35.246Z</time>
      </trkpt>
      <trkpt lat="48.86239" lon="2.32081">
        <ele>72.4</ele>
        <time>2015-02-23T19:46:37.284Z</time>
      </trkpt>
      <trkpt lat="48.8624" lon="2.32074">
        <ele>72.4</ele>
        <time>2015-02-23T19:46:38.178Z</time>
      </trkpt>
      <trkpt lat="48.86242" lon="2.32068">
        <ele>72.4</ele>
        <time>2015-02-23T19:46:39.170Z</time>
      </trkpt>
      <trkpt lat="48.86244" lon="2.32061">
        <ele>72.4</ele>
        <time>2015-02-23T19:46:40.223Z</time>
      </trkpt>
      <trkpt lat="48.86245" lon="2.32055">
        <ele>72.3</ele>
        <time>2015-02-23T19:46:41.861Z</time>
      </trkpt>
      <trkpt lat="48.86247" lon="2.32048">
        <ele>72.1</ele>
        <time>2015-02-23T19:46:42.256Z</time>
      </trkpt>
      <trkpt lat="48.8625" lon="2.32043">
        <ele>72.1</ele>
        <time>2015-02-23T19:46:43.271Z</time>
      </trkpt>
      <trkpt lat="48.86252" lon="2.32037">
        <ele>72.1</ele>
        <time>2015-02-23T19:46:44.277Z</time>
      </trkpt>
      <trkpt lat="48.86254" lon="2.32031">
        <ele>72.1</ele>
        <time>2015-02-23T19:46:45.188Z</time>
      </trkpt>
      <trkpt lat="48.86256" lon="2.32024">
        <ele>72</ele>
        <time>2015-02-23T19:46:46.197Z</time>
      </trkpt>
      <trkpt lat="48.86258" lon="2.32017">
        <ele>72</ele>
        <time>2015-02-23T19:46:47.218Z</time>
      </trkpt>
      <trkpt lat="48.86259" lon="2.32011">
        <ele>71.9</ele>
        <time>2015-02-23T19:46:48.226Z</time>
      </trkpt>
      <trkpt lat="48.86262" lon="2.32004">
        <ele>72.2</ele>
        <time>2015-02-23T19:46:49.244Z</time>
      </trkpt>
      <trkpt lat="48.86264" lon="2.31996">
        <ele>72.3</ele>
        <time>2015-02-23T19:46:50.338Z</time>
      </trkpt>
      <trkpt lat="48.86266" lon="2.31989">
        <ele>72.1</ele>
        <time>2015-02-23T19:46:52.100Z</time>
      </trkpt>
      <trkpt lat="48.86268" lon="2.31982">
        <ele>72.5</ele>
        <time>2015-02-23T19:46:52.197Z</time>
      </trkpt>
      <trkpt lat="48.8627" lon="2.31975">
        <ele>72.7</ele>
        <time>2015-02-23T19:46:53.230Z</time>
      </trkpt>
      <trkpt lat="48.86272" lon="2.31967">
        <ele>72.7</ele>
        <time>2015-02-23T19:46:54.245Z</time>
      </trkpt>
      <trkpt lat="48.86275" lon="2.31961">
        <ele>72.8</ele>
        <time>2015-02-23T19:46:55.234Z</time>
      </trkpt>
      <trkpt lat="48.86278" lon="2.31954">
        <ele>72.7</ele>
        <time>2015-02-23T19:46:56.260Z</time>
      </trkpt>
      <trkpt lat="48.8628" lon="2.31948">
        <ele>72.7</ele>
        <time>2015-02-23T19:46:57.428Z</time>
      </trkpt>
      <trkpt lat="48.86298" lon="2.31893">
        <ele>73.2</ele>
        <time>2015-02-23T19:47:05.215Z</time>
      </trkpt>
      <trkpt lat="48.86302" lon="2.31881">
        <ele>72.9</ele>
        <time>2015-02-23T19:47:07.219Z</time>
      </trkpt>
      <trkpt lat="48.86303" lon="2.31875">
        <ele>72.6</ele>
        <time>2015-02-23T19:47:08.230Z</time>
      </trkpt>
      <trkpt lat="48.86306" lon="2.31864">
        <ele>72.2</ele>
        <time>2015-02-23T19:47:10.261Z</time>
      </trkpt>
      <trkpt lat="48.86308" lon="2.31858">
        <ele>72.7</ele>
        <time>2015-02-23T19:47:11.275Z</time>
      </trkpt>
      <trkpt lat="48.86311" lon="2.31846">
        <ele>72.6</ele>
        <time>2015-02-23T19:47:13.249Z</time>
      </trkpt>
      <trkpt lat="48.86313" lon="2.31839">
        <ele>72.7</ele>
        <time>2015-02-23T19:47:14.261Z</time>
      </trkpt>
      <trkpt lat="48.86314" lon="2.31833">
        <ele>72.7</ele>
        <time>2015-02-23T19:47:15.276Z</time>
      </trkpt>
      <trkpt lat="48.86316" lon="2.31827">
        <ele>73.4</ele>
        <time>2015-02-23T19:47:16.165Z</time>
      </trkpt>
      <trkpt lat="48.86319" lon="2.31814">
        <ele>73.5</ele>
        <time>2015-02-23T19:47:18.210Z</time>
      </trkpt>
      <trkpt lat="48.8632" lon="2.31809">
        <ele>73</ele>
        <time>2015-02-23T19:47:19.260Z</time>
      </trkpt>
      <trkpt lat="48.86322" lon="2.31796">
        <ele>72.9</ele>
        <time>2015-02-23T19:47:21.169Z</time>
      </trkpt>
      <trkpt lat="48.86323" lon="2.3179">
        <ele>72.4</ele>
        <time>2015-02-23T19:47:22.203Z</time>
      </trkpt>
      <trkpt lat="48.86324" lon="2.31777">
        <ele>72.3</ele>
        <time>2015-02-23T19:47:24.234Z</time>
      </trkpt>
      <trkpt lat="48.86324" lon="2.3177">
        <ele>72.7</ele>
        <time>2015-02-23T19:47:25.219Z</time>
      </trkpt>
      <trkpt lat="48.86324" lon="2.31757">
        <ele>72.6</ele>
        <time>2015-02-23T19:47:27.189Z</time>
      </trkpt>
      <trkpt lat="48.86324" lon="2.3175">
        <ele>73.1</ele>
        <time>2015-02-23T19:47:28.313Z</time>
      </trkpt>
      <trkpt lat="48.86324" lon="2.31738">
        <ele>73.3</ele>
        <time>2015-02-23T19:47:30.993Z</time>
      </trkpt>
      <trkpt lat="48.86324" lon="2.31732">
        <ele>73.5</ele>
        <time>2015-02-23T19:47:31.255Z</time>
      </trkpt>
      <trkpt lat="48.86323" lon="2.31718">
        <ele>72.9</ele>
        <time>2015-02-23T19:47:33.276Z</time>
      </trkpt>
      <trkpt lat="48.86323" lon="2.31712">
        <ele>72.7</ele>
        <time>2015-02-23T19:47:34.310Z</time>
      </trkpt>
      <trkpt lat="48.86322" lon="2.31698">
        <ele>73</ele>
        <time>2015-02-23T19:47:36.203Z</time>
      </trkpt>
      <trkpt lat="48.86322" lon="2.31692">
        <ele>73.1</ele>
        <time>2015-02-23T19:47:37.278Z</time>
      </trkpt>
      <trkpt lat="48.86321" lon="2.31678">
        <ele>73.4</ele>
        <time>2015-02-23T19:47:39.169Z</time>
      </trkpt>
      <trkpt lat="48.86321" lon="2.31672">
        <ele>73.5</ele>
        <time>2015-02-23T19:47:40.274Z</time>
      </trkpt>
      <trkpt lat="48.8632" lon="2.31658">
        <ele>72.9</ele>
        <time>2015-02-23T19:47:42.222Z</time>
      </trkpt>
      <trkpt lat="48.8632" lon="2.31652">
        <ele>73.1</ele>
        <time>2015-02-23T19:47:43.244Z</time>
      </trkpt>
      <trkpt lat="48.8632" lon="2.31639">
        <ele>73.1</ele>
        <time>2015-02-23T19:47:45.264Z</time>
      </trkpt>
      <trkpt lat="48.8632" lon="2.31633">
        <ele>73.3</ele>
        <time>2015-02-23T19:47:46.175Z</time>
      </trkpt>
      <trkpt lat="48.86319" lon="2.3162">
        <ele>73.6</ele>
        <time>2015-02-23T19:47:48.204Z</time>
      </trkpt>
      <trkpt lat="48.86319" lon="2.31614">
        <ele>73.5</ele>
        <time>2015-02-23T19:47:49.264Z</time>
      </trkpt>
      <trkpt lat="48.86319" lon="2.31602">
        <ele>73.5</ele>
        <time>2015-02-23T19:47:51.332Z</time>
      </trkpt>
      <trkpt lat="48.86319" lon="2.31597">
        <ele>73.4</ele>
        <time>2015-02-23T19:47:52.230Z</time>
      </trkpt>
      <trkpt lat="48.86318" lon="2.31587">
        <ele>73.3</ele>
        <time>2015-02-23T19:47:54.217Z</time>
      </trkpt>
      <trkpt lat="48.86318" lon="2.31582">
        <ele>73.6</ele>
        <time>2015-02-23T19:47:55.305Z</time>
      </trkpt>
      <trkpt lat="48.86319" lon="2.31572">
        <ele>73.6</ele>
        <time>2015-02-23T19:47:57.220Z</time>
      </trkpt>
      <trkpt lat="48.86319" lon="2.31567">
        <ele>73.7</ele>
        <time>2015-02-23T19:47:58.241Z</time>
      </trkpt>
      <trkpt lat="48.86319" lon="2.31556">
        <ele>73.8</ele>
        <time>2015-02-23T19:48:00.168Z</time>
      </trkpt>
      <trkpt lat="48.86318" lon="2.3155">
        <ele>73.7</ele>
        <time>2015-02-23T19:48:01.238Z</time>
      </trkpt>
      <trkpt lat="48.86318" lon="2.31539">
        <ele>74</ele>
        <time>2015-02-23T19:48:03.199Z</time>
      </trkpt>
      <trkpt lat="48.86318" lon="2.31534">
        <ele>74.1</ele>
        <time>2015-02-23T19:48:04.202Z</time>
      </trkpt>
      <trkpt lat="48.86317" lon="2.31523">
        <ele>74.2</ele>
        <time>2015-02-23T19:48:06.667Z</time>
      </trkpt>
      <trkpt lat="48.86317" lon="2.31517">
        <ele>74.3</ele>
        <time>2015-02-23T19:48:07.250Z</time>
      </trkpt>
      <trkpt lat="48.86317" lon="2.31507">
        <ele>74.3</ele>
        <time>2015-02-23T19:48:09.185Z</time>
      </trkpt>
      <trkpt lat="48.86318" lon="2.31501">
        <ele>74.1</ele>
        <time>2015-02-23T19:48:10.228Z</time>
      </trkpt>
      <trkpt lat="48.86317" lon="2.31489">
        <ele>74</ele>
        <time>2015-02-23T19:48:12.245Z</time>
      </trkpt>
      <trkpt lat="48.86317" lon="2.31483">
        <ele>73.9</ele>
        <time>2015-02-23T19:48:13.240Z</time>
      </trkpt>
      <trkpt lat="48.86316" lon="2.31471">
        <ele>74</ele>
        <time>2015-02-23T19:48:15.278Z</time>
      </trkpt>
      <trkpt lat="48.86316" lon="2.31465">
        <ele>74.1</ele>
        <time>2015-02-23T19:48:16.228Z</time>
      </trkpt>
      <trkpt lat="48.86316" lon="2.31452">
        <ele>74.3</ele>
        <time>2015-02-23T19:48:18.262Z</time>
      </trkpt>
      <trkpt lat="48.86316" lon="2.31446">
        <ele>74.4</ele>
        <time>2015-02-23T19:48:19.287Z</time>
      </trkpt>
      <trkpt lat="48.86315" lon="2.31433">
        <ele>74.7</ele>
        <time>2015-02-23T19:48:21.232Z</time>
      </trkpt>
      <trkpt lat="48.86315" lon="2.31427">
        <ele>74.8</ele>
        <time>2015-02-23T19:48:22.250Z</time>
      </trkpt>
      <trkpt lat="48.86314" lon="2.31414">
        <ele>75</ele>
        <time>2015-02-23T19:48:24.211Z</time>
      </trkpt>
      <trkpt lat="48.86314" lon="2.31408">
        <ele>75.1</ele>
        <time>2015-02-23T19:48:25.211Z</time>
      </trkpt>
      <trkpt lat="48.86315" lon="2.31398">
        <ele>75.4</ele>
        <time>2015-02-23T19:48:27.198Z</time>
      </trkpt>
      <trkpt lat="48.86315" lon="2.31394">
        <ele>75.5</ele>
        <time>2015-02-23T19:48:28.192Z</time>
      </trkpt>
      <trkpt lat="48.86317" lon="2.31389">
        <ele>75.6</ele>
        <time>2015-02-23T19:48:29.216Z</time>
      </trkpt>
      <trkpt lat="48.86326" lon="2.31318">
        <ele>75.2</ele>
        <time>2015-02-23T19:48:43.243Z</time>
      </trkpt>
      <trkpt lat="48.86323" lon="2.31303">
        <ele>74.9</ele>
        <time>2015-02-23T19:48:44.150Z</time>
      </trkpt>
      <trkpt lat="48.86321" lon="2.31291">
        <ele>74.5</ele>
        <time>2015-02-23T19:48:45.160Z</time>
      </trkpt>
      <trkpt lat="48.86319" lon="2.31282">
        <ele>74</ele>
        <time>2015-02-23T19:48:46.194Z</time>
      </trkpt>
      <trkpt lat="48.86318" lon="2.31272">
        <ele>73.2</ele>
        <time>2015-02-23T19:48:47.243Z</time>
      </trkpt>
      <trkpt lat="48.86316" lon="2.31263">
        <ele>72.6</ele>
        <time>2015-02-23T19:48:48.256Z</time>
      </trkpt>
      <trkpt lat="48.86315" lon="2.31256">
        <ele>72.6</ele>
        <time>2015-02-23T19:48:49.259Z</time>
      </trkpt>
      <trkpt lat="48.86314" lon="2.31249">
        <ele>72.6</ele>
        <time>2015-02-23T19:48:50.157Z</time>
      </trkpt>
      <trkpt lat="48.86313" lon="2.31235">
        <ele>72.3</ele>
        <time>2015-02-23T19:48:52.187Z</time>
      </trkpt>
      <trkpt lat="48.86312" lon="2.31228">
        <ele>72.4</ele>
        <time>2015-02-23T19:48:53.249Z</time>
      </trkpt>
      <trkpt lat="48.86311" lon="2.31214">
        <ele>73.6</ele>
        <time>2015-02-23T19:48:55.227Z</time>
      </trkpt>
      <trkpt lat="48.86311" lon="2.31209">
        <ele>73.9</ele>
        <time>2015-02-23T19:48:56.243Z</time>
      </trkpt>
      <trkpt lat="48.8631" lon="2.31195">
        <ele>73.9</ele>
        <time>2015-02-23T19:48:58.201Z</time>
      </trkpt>
      <trkpt lat="48.86309" lon="2.31189">
        <ele>74</ele>
        <time>2015-02-23T19:48:59.214Z</time>
      </trkpt>
      <trkpt lat="48.86308" lon="2.31175">
        <ele>74.2</ele>
        <time>2015-02-23T19:49:01.222Z</time>
      </trkpt>
      <trkpt lat="48.86308" lon="2.31168">
        <ele>74.5</ele>
        <time>2015-02-23T19:49:02.244Z</time>
      </trkpt>
      <trkpt lat="48.86307" lon="2.31155">
        <ele>75.2</ele>
        <time>2015-02-23T19:49:04.180Z</time>
      </trkpt>
      <trkpt lat="48.86307" lon="2.31148">
        <ele>75.1</ele>
        <time>2015-02-23T19:49:05.200Z</time>
      </trkpt>
      <trkpt lat="48.86306" lon="2.31135">
        <ele>75.7</ele>
        <time>2015-02-23T19:49:07.329Z</time>
      </trkpt>
      <trkpt lat="48.86307" lon="2.31128">
        <ele>76.6</ele>
        <time>2015-02-23T19:49:08.194Z</time>
      </trkpt>
      <trkpt lat="48.86307" lon="2.31115">
        <ele>77</ele>
        <time>2015-02-23T19:49:10.209Z</time>
      </trkpt>
      <trkpt lat="48.86306" lon="2.31107">
        <ele>77</ele>
        <time>2015-02-23T19:49:11.221Z</time>
      </trkpt>
      <trkpt lat="48.86306" lon="2.31101">
        <ele>76.8</ele>
        <time>2015-02-23T19:49:12.265Z</time>
      </trkpt>
      <trkpt lat="48.86305" lon="2.31093">
        <ele>76.8</ele>
        <time>2015-02-23T19:49:13.258Z</time>
      </trkpt>
      <trkpt lat="48.86304" lon="2.31086">
        <ele>76.7</ele>
        <time>2015-02-23T19:49:14.262Z</time>
      </trkpt>
      <trkpt lat="48.86303" lon="2.31078">
        <ele>76.8</ele>
        <time>2015-02-23T19:49:15.269Z</time>
      </trkpt>
      <trkpt lat="48.86302" lon="2.31071">
        <ele>76.9</ele>
        <time>2015-02-23T19:49:16.176Z</time>
      </trkpt>
      <trkpt lat="48.86302" lon="2.31064">
        <ele>77.1</ele>
        <time>2015-02-23T19:49:17.187Z</time>
      </trkpt>
      <trkpt lat="48.86301" lon="2.31051">
        <ele>77.1</ele>
        <time>2015-02-23T19:49:19.235Z</time>
      </trkpt>
      <trkpt lat="48.863" lon="2.31043">
        <ele>77.1</ele>
        <time>2015-02-23T19:49:20.207Z</time>
      </trkpt>
      <trkpt lat="48.863" lon="2.31036">
        <ele>77.2</ele>
        <time>2015-02-23T19:49:21.196Z</time>
      </trkpt>
      <trkpt lat="48.863" lon="2.31029">
        <ele>77.1</ele>
        <time>2015-02-23T19:49:22.258Z</time>
      </trkpt>
      <trkpt lat="48.863" lon="2.31022">
        <ele>76.8</ele>
        <time>2015-02-23T19:49:23.182Z</time>
      </trkpt>
      <trkpt lat="48.863" lon="2.31014">
        <ele>76.5</ele>
        <time>2015-02-23T19:49:24.189Z</time>
      </trkpt>
      <trkpt lat="48.863" lon="2.31007">
        <ele>76.4</ele>
        <time>2015-02-23T19:49:25.241Z</time>
      </trkpt>
      <trkpt lat="48.863" lon="2.31001">
        <ele>76.1</ele>
        <time>2015-02-23T19:49:26.197Z</time>
      </trkpt>
      <trkpt lat="48.863" lon="2.30988">
        <ele>76</ele>
        <time>2015-02-23T19:49:28.256Z</time>
      </trkpt>
      <trkpt lat="48.863" lon="2.30982">
        <ele>75.9</ele>
        <time>2015-02-23T19:49:29.277Z</time>
      </trkpt>
      <trkpt lat="48.86299" lon="2.30968">
        <ele>75.7</ele>
        <time>2015-02-23T19:49:31.265Z</time>
      </trkpt>
      <trkpt lat="48.863" lon="2.30962">
        <ele>75.7</ele>
        <time>2015-02-23T19:49:32.181Z</time>
      </trkpt>
      <trkpt lat="48.863" lon="2.30949">
        <ele>75.8</ele>
        <time>2015-02-23T19:49:34.235Z</time>
      </trkpt>
      <trkpt lat="48.863" lon="2.30943">
        <ele>76.1</ele>
        <time>2015-02-23T19:49:35.279Z</time>
      </trkpt>
      <trkpt lat="48.863" lon="2.30931">
        <ele>76.3</ele>
        <time>2015-02-23T19:49:37.225Z</time>
      </trkpt>
      <trkpt lat="48.863" lon="2.30925">
        <ele>76.5</ele>
        <time>2015-02-23T19:49:38.223Z</time>
      </trkpt>
      <trkpt lat="48.863" lon="2.30913">
        <ele>76.3</ele>
        <time>2015-02-23T19:49:40.260Z</time>
      </trkpt>
      <trkpt lat="48.863" lon="2.30907">
        <ele>75.9</ele>
        <time>2015-02-23T19:49:41.196Z</time>
      </trkpt>
      <trkpt lat="48.863" lon="2.30895">
        <ele>76.3</ele>
        <time>2015-02-23T19:49:43.230Z</time>
      </trkpt>
      <trkpt lat="48.863" lon="2.30889">
        <ele>76.3</ele>
        <time>2015-02-23T19:49:44.177Z</time>
      </trkpt>
      <trkpt lat="48.86299" lon="2.30876">
        <ele>76</ele>
        <time>2015-02-23T19:49:46.224Z</time>
      </trkpt>
      <trkpt lat="48.86299" lon="2.30869">
        <ele>76</ele>
        <time>2015-02-23T19:49:47.251Z</time>
      </trkpt>
      <trkpt lat="48.86299" lon="2.30856">
        <ele>76.3</ele>
        <time>2015-02-23T19:49:49.232Z</time>
      </trkpt>
      <trkpt lat="48.86299" lon="2.3085">
        <ele>76.1</ele>
        <time>2015-02-23T19:49:50.325Z</time>
      </trkpt>
      <trkpt lat="48.863" lon="2.30837">
        <ele>76.3</ele>
        <time>2015-02-23T19:49:52.223Z</time>
      </trkpt>
      <trkpt lat="48.863" lon="2.30831">
        <ele>76.3</ele>
        <time>2015-02-23T19:49:53.227Z</time>
      </trkpt>
      <trkpt lat="48.86299" lon="2.30818">
        <ele>76.2</ele>
        <time>2015-02-23T19:49:55.267Z</time>
      </trkpt>
      <trkpt lat="48.86298" lon="2.30811">
        <ele>76.1</ele>
        <time>2015-02-23T19:49:56.283Z</time>
      </trkpt>
      <trkpt lat="48.86298" lon="2.30798">
        <ele>76.2</ele>
        <time>2015-02-23T19:49:59.230Z</time>
      </trkpt>
      <trkpt lat="48.86297" lon="2.30791">
        <ele>76.2</ele>
        <time>2015-02-23T19:49:59.284Z</time>
      </trkpt>
      <trkpt lat="48.86296" lon="2.30778">
        <ele>76.4</ele>
        <time>2015-02-23T19:50:01.245Z</time>
      </trkpt>
      <trkpt lat="48.86296" lon="2.30772">
        <ele>76.6</ele>
        <time>2015-02-23T19:50:02.277Z</time>
      </trkpt>
      <trkpt lat="48.86295" lon="2.30761">
        <ele>77</ele>
        <time>2015-02-23T19:50:04.268Z</time>
      </trkpt>
      <trkpt lat="48.86294" lon="2.30755">
        <ele>77</ele>
        <time>2015-02-23T19:50:05.241Z</time>
      </trkpt>
      <trkpt lat="48.86294" lon="2.30745">
        <ele>76.9</ele>
        <time>2015-02-23T19:50:07.261Z</time>
      </trkpt>
      <trkpt lat="48.86294" lon="2.30739">
        <ele>77.2</ele>
        <time>2015-02-23T19:50:08.290Z</time>
      </trkpt>
      <trkpt lat="48.86293" lon="2.30727">
        <ele>77.3</ele>
        <time>2015-02-23T19:50:10.217Z</time>
      </trkpt>
      <trkpt lat="48.86292" lon="2.30722">
        <ele>77.5</ele>
        <time>2015-02-23T19:50:11.235Z</time>
      </trkpt>
      <trkpt lat="48.86292" lon="2.3071">
        <ele>77.8</ele>
        <time>2015-02-23T19:50:14.393Z</time>
      </trkpt>
      <trkpt lat="48.86292" lon="2.30705">
        <ele>77.9</ele>
        <time>2015-02-23T19:50:14.433Z</time>
      </trkpt>
      <trkpt lat="48.86291" lon="2.30694">
        <ele>77.7</ele>
        <time>2015-02-23T19:50:16.457Z</time>
      </trkpt>
      <trkpt lat="48.86291" lon="2.30688">
        <ele>77.6</ele>
        <time>2015-02-23T19:50:17.193Z</time>
      </trkpt>
      <trkpt lat="48.86291" lon="2.30677">
        <ele>77.5</ele>
        <time>2015-02-23T19:50:19.230Z</time>
      </trkpt>
      <trkpt lat="48.86291" lon="2.3067">
        <ele>77.3</ele>
        <time>2015-02-23T19:50:20.227Z</time>
      </trkpt>
      <trkpt lat="48.86291" lon="2.30658">
        <ele>77.4</ele>
        <time>2015-02-23T19:50:22.241Z</time>
      </trkpt>
      <trkpt lat="48.8629" lon="2.30652">
        <ele>77.5</ele>
        <time>2015-02-23T19:50:23.265Z</time>
      </trkpt>
      <trkpt lat="48.8629" lon="2.3064">
        <ele>77.5</ele>
        <time>2015-02-23T19:50:25.284Z</time>
      </trkpt>
      <trkpt lat="48.8629" lon="2.30633">
        <ele>77.4</ele>
        <time>2015-02-23T19:50:26.310Z</time>
      </trkpt>
      <trkpt lat="48.86289" lon="2.30621">
        <ele>77.3</ele>
        <time>2015-02-23T19:50:28.236Z</time>
      </trkpt>
      <trkpt lat="48.8629" lon="2.30615">
        <ele>77.1</ele>
        <time>2015-02-23T19:50:29.247Z</time>
      </trkpt>
      <trkpt lat="48.8629" lon="2.30603">
        <ele>76.9</ele>
        <time>2015-02-23T19:50:31.759Z</time>
      </trkpt>
      <trkpt lat="48.8629" lon="2.30596">
        <ele>76.9</ele>
        <time>2015-02-23T19:50:32.221Z</time>
      </trkpt>
      <trkpt lat="48.86291" lon="2.30585">
        <ele>77</ele>
        <time>2015-02-23T19:50:34.261Z</time>
      </trkpt>
      <trkpt lat="48.86291" lon="2.30579">
        <ele>77</ele>
        <time>2015-02-23T19:50:35.220Z</time>
      </trkpt>
      <trkpt lat="48.86291" lon="2.30569">
        <ele>76.9</ele>
        <time>2015-02-23T19:50:37.199Z</time>
      </trkpt>
      <trkpt lat="48.8629" lon="2.30565">
        <ele>76.7</ele>
        <time>2015-02-23T19:50:38.249Z</time>
      </trkpt>
      <trkpt lat="48.8629" lon="2.30553">
        <ele>76.7</ele>
        <time>2015-02-23T19:50:41.971Z</time>
      </trkpt>
      <trkpt lat="48.8629" lon="2.3055">
        <ele>76.9</ele>
        <time>2015-02-23T19:50:42.201Z</time>
      </trkpt>
      <trkpt lat="48.86292" lon="2.30539">
        <ele>76.5</ele>
        <time>2015-02-23T19:50:47.044Z</time>
      </trkpt>
      <trkpt lat="48.86292" lon="2.30536">
        <ele>76.3</ele>
        <time>2015-02-23T19:50:47.203Z</time>
      </trkpt>
      <trkpt lat="48.86294" lon="2.30523">
        <ele>76.1</ele>
        <time>2015-02-23T19:50:52.122Z</time>
      </trkpt>
      <trkpt lat="48.86295" lon="2.30519">
        <ele>76.1</ele>
        <time>2015-02-23T19:50:52.194Z</time>
      </trkpt>
      <trkpt lat="48.86295" lon="2.3051">
        <ele>76</ele>
        <time>2015-02-23T19:50:54.222Z</time>
      </trkpt>
      <trkpt lat="48.86294" lon="2.30505">
        <ele>76</ele>
        <time>2015-02-23T19:50:55.237Z</time>
      </trkpt>
      <trkpt lat="48.86294" lon="2.30495">
        <ele>75.9</ele>
        <time>2015-02-23T19:50:57.245Z</time>
      </trkpt>
      <trkpt lat="48.86294" lon="2.3049">
        <ele>75.9</ele>
        <time>2015-02-23T19:50:58.184Z</time>
      </trkpt>
      <trkpt lat="48.86293" lon="2.30479">
        <ele>75.6</ele>
        <time>2015-02-23T19:51:00.204Z</time>
      </trkpt>
      <trkpt lat="48.86293" lon="2.30474">
        <ele>75.7</ele>
        <time>2015-02-23T19:51:01.260Z</time>
      </trkpt>
      <trkpt lat="48.86292" lon="2.30462">
        <ele>75.6</ele>
        <time>2015-02-23T19:51:03.183Z</time>
      </trkpt>
      <trkpt lat="48.86292" lon="2.30456">
        <ele>75.6</ele>
        <time>2015-02-23T19:51:04.185Z</time>
      </trkpt>
      <trkpt lat="48.86292" lon="2.30443">
        <ele>75.3</ele>
        <time>2015-02-23T19:51:07.357Z</time>
      </trkpt>
      <trkpt lat="48.86292" lon="2.30437">
        <ele>75.5</ele>
        <time>2015-02-23T19:51:07.391Z</time>
      </trkpt>
      <trkpt lat="48.86292" lon="2.30425">
        <ele>75.3</ele>
        <time>2015-02-23T19:51:09.187Z</time>
      </trkpt>
      <trkpt lat="48.86292" lon="2.30419">
        <ele>75.3</ele>
        <time>2015-02-23T19:51:10.219Z</time>
      </trkpt>
      <trkpt lat="48.86292" lon="2.30409">
        <ele>75.4</ele>
        <time>2015-02-23T19:51:12.374Z</time>
      </trkpt>
      <trkpt lat="48.86292" lon="2.30404">
        <ele>75.2</ele>
        <time>2015-02-23T19:51:13.273Z</time>
      </trkpt>
      <trkpt lat="48.86292" lon="2.30394">
        <ele>75</ele>
        <time>2015-02-23T19:51:15.221Z</time>
      </trkpt>
      <trkpt lat="48.86292" lon="2.30389">
        <ele>75</ele>
        <time>2015-02-23T19:51:16.220Z</time>
      </trkpt>
      <trkpt lat="48.86291" lon="2.3038">
        <ele>75.4</ele>
        <time>2015-02-23T19:51:18.193Z</time>
      </trkpt>
      <trkpt lat="48.86291" lon="2.30375">
        <ele>75.7</ele>
        <time>2015-02-23T19:51:19.228Z</time>
      </trkpt>
      <trkpt lat="48.86292" lon="2.30364">
        <ele>76.1</ele>
        <time>2015-02-23T19:51:21.406Z</time>
      </trkpt>
      <trkpt lat="48.86292" lon="2.30358">
        <ele>75.9</ele>
        <time>2015-02-23T19:51:22.168Z</time>
      </trkpt>
      <trkpt lat="48.86291" lon="2.30345">
        <ele>75.7</ele>
        <time>2015-02-23T19:51:24.274Z</time>
      </trkpt>
      <trkpt lat="48.86291" lon="2.30338">
        <ele>75.7</ele>
        <time>2015-02-23T19:51:25.270Z</time>
      </trkpt>
      <trkpt lat="48.86291" lon="2.30326">
        <ele>75.7</ele>
        <time>2015-02-23T19:51:27.232Z</time>
      </trkpt>
      <trkpt lat="48.86292" lon="2.3032">
        <ele>75.7</ele>
        <time>2015-02-23T19:51:28.290Z</time>
      </trkpt>
      <trkpt lat="48.86292" lon="2.30312">
        <ele>75.7</ele>
        <time>2015-02-23T19:51:29.284Z</time>
      </trkpt>
      <trkpt lat="48.86291" lon="2.30305">
        <ele>75.8</ele>
        <time>2015-02-23T19:51:30.190Z</time>
      </trkpt>
      <trkpt lat="48.86291" lon="2.30298">
        <ele>75.8</ele>
        <time>2015-02-23T19:51:31.553Z</time>
      </trkpt>
      <trkpt lat="48.86292" lon="2.3029">
        <ele>75.9</ele>
        <time>2015-02-23T19:51:32.181Z</time>
      </trkpt>
      <trkpt lat="48.86292" lon="2.30277">
        <ele>75.8</ele>
        <time>2015-02-23T19:51:34.157Z</time>
      </trkpt>
      <trkpt lat="48.86292" lon="2.30269">
        <ele>75.7</ele>
        <time>2015-02-23T19:51:35.167Z</time>
      </trkpt>
      <trkpt lat="48.86292" lon="2.30262">
        <ele>75.7</ele>
        <time>2015-02-23T19:51:36.675Z</time>
      </trkpt>
      <trkpt lat="48.86291" lon="2.30254">
        <ele>75.7</ele>
        <time>2015-02-23T19:51:37.230Z</time>
      </trkpt>
      <trkpt lat="48.86291" lon="2.30246">
        <ele>75.8</ele>
        <time>2015-02-23T19:51:38.254Z</time>
      </trkpt>
      <trkpt lat="48.8629" lon="2.30239">
        <ele>76</ele>
        <time>2015-02-23T19:51:39.257Z</time>
      </trkpt>
      <trkpt lat="48.86289" lon="2.30227">
        <ele>76.2</ele>
        <time>2015-02-23T19:51:40.158Z</time>
      </trkpt>
      <trkpt lat="48.86288" lon="2.30219">
        <ele>76.5</ele>
        <time>2015-02-23T19:51:41.179Z</time>
      </trkpt>
      <trkpt lat="48.86288" lon="2.30208">
        <ele>76.4</ele>
        <time>2015-02-23T19:51:43.282Z</time>
      </trkpt>
      <trkpt lat="48.86288" lon="2.30205">
        <ele>76.4</ele>
        <time>2015-02-23T19:51:44.329Z</time>
      </trkpt>
      <trkpt lat="48.86288" lon="2.30201">
        <ele>76.4</ele>
        <time>2015-02-23T19:51:45.249Z</time>
      </trkpt>
      <trkpt lat="48.86288" lon="2.30177">
        <ele>76.3</ele>
        <time>2015-02-23T19:51:52.223Z</time>
      </trkpt>
      <trkpt lat="48.86289" lon="2.30171">
        <ele>76.3</ele>
        <time>2015-02-23T19:51:53.238Z</time>
      </trkpt>
      <trkpt lat="48.8629" lon="2.30163">
        <ele>76.3</ele>
        <time>2015-02-23T19:51:54.269Z</time>
      </trkpt>
      <trkpt lat="48.86289" lon="2.30155">
        <ele>76.4</ele>
        <time>2015-02-23T19:51:55.229Z</time>
      </trkpt>
      <trkpt lat="48.86288" lon="2.30146">
        <ele>76.4</ele>
        <time>2015-02-23T19:51:56.237Z</time>
      </trkpt>
      <trkpt lat="48.86287" lon="2.30138">
        <ele>76.4</ele>
        <time>2015-02-23T19:51:57.302Z</time>
      </trkpt>
      <trkpt lat="48.86286" lon="2.30131">
        <ele>76.4</ele>
        <time>2015-02-23T19:51:58.220Z</time>
      </trkpt>
      <trkpt lat="48.86286" lon="2.30118">
        <ele>76.7</ele>
        <time>2015-02-23T19:52:00.253Z</time>
      </trkpt>
      <trkpt lat="48.86285" lon="2.30113">
        <ele>76.9</ele>
        <time>2015-02-23T19:52:01.259Z</time>
      </trkpt>
      <trkpt lat="48.86284" lon="2.30103">
        <ele>77.1</ele>
        <time>2015-02-23T19:52:03.299Z</time>
      </trkpt>
      <trkpt lat="48.86284" lon="2.30098">
        <ele>77.1</ele>
        <time>2015-02-23T19:52:04.195Z</time>
      </trkpt>
      <trkpt lat="48.86283" lon="2.30087">
        <ele>77.5</ele>
        <time>2015-02-23T19:52:06.959Z</time>
      </trkpt>
      <trkpt lat="48.86282" lon="2.30082">
        <ele>77.5</ele>
        <time>2015-02-23T19:52:07.254Z</time>
      </trkpt>
      <trkpt lat="48.8628" lon="2.30069">
        <ele>77.5</ele>
        <time>2015-02-23T19:52:10.315Z</time>
      </trkpt>
      <trkpt lat="48.8628" lon="2.30066">
        <ele>77.4</ele>
        <time>2015-02-23T19:52:11.185Z</time>
      </trkpt>
      <trkpt lat="48.86278" lon="2.30054">
        <ele>77.1</ele>
        <time>2015-02-23T19:52:15.228Z</time>
      </trkpt>
      <trkpt lat="48.86278" lon="2.30051">
        <ele>77.1</ele>
        <time>2015-02-23T19:52:16.243Z</time>
      </trkpt>
      <trkpt lat="48.86276" lon="2.3004">
        <ele>77.3</ele>
        <time>2015-02-23T19:52:20.280Z</time>
      </trkpt>
      <trkpt lat="48.86276" lon="2.30036">
        <ele>77.6</ele>
        <time>2015-02-23T19:52:21.312Z</time>
      </trkpt>
      <trkpt lat="48.86275" lon="2.30025">
        <ele>77.9</ele>
        <time>2015-02-23T19:52:24.157Z</time>
      </trkpt>
      <trkpt lat="48.86274" lon="2.30021">
        <ele>78.1</ele>
        <time>2015-02-23T19:52:25.284Z</time>
      </trkpt>
      <trkpt lat="48.86272" lon="2.30009">
        <ele>78.5</ele>
        <time>2015-02-23T19:52:29.258Z</time>
      </trkpt>
      <trkpt lat="48.86271" lon="2.30006">
        <ele>78.5</ele>
        <time>2015-02-23T19:52:30.176Z</time>
      </trkpt>
      <trkpt lat="48.86269" lon="2.29996">
        <ele>78.5</ele>
        <time>2015-02-23T19:52:34.195Z</time>
      </trkpt>
      <trkpt lat="48.86268" lon="2.29993">
        <ele>78.8</ele>
        <time>2015-02-23T19:52:35.212Z</time>
      </trkpt>
      <trkpt lat="48.86264" lon="2.29981">
        <ele>78.5</ele>
        <time>2015-02-23T19:52:40.272Z</time>
      </trkpt>
      <trkpt lat="48.86263" lon="2.29979">
        <ele>78.4</ele>
        <time>2015-02-23T19:52:41.151Z</time>
      </trkpt>
      <trkpt lat="48.86258" lon="2.29969">
        <ele>78</ele>
        <time>2015-02-23T19:52:45.624Z</time>
      </trkpt>
      <trkpt lat="48.86256" lon="2.29965">
        <ele>78</ele>
        <time>2015-02-23T19:52:46.254Z</time>
      </trkpt>
      <trkpt lat="48.86256" lon="2.29964">
        <ele>78.2</ele>
        <time>2015-02-23T19:52:47.182Z</time>
      </trkpt>
      <trkpt lat="48.86255" lon="2.29963">
        <ele>78.2</ele>
        <time>2015-02-23T19:52:48.244Z</time>
      </trkpt>
      <trkpt lat="48.86254" lon="2.29963">
        <ele>78.8</ele>
        <time>2015-02-23T19:53:12.215Z</time>
      </trkpt>
      <trkpt lat="48.86248" lon="2.29966">
        <ele>80.6</ele>
        <time>2015-02-23T19:53:13.227Z</time>
      </trkpt>
      <trkpt lat="48.86244" lon="2.29955">
        <ele>83.4</ele>
        <time>2015-02-23T19:53:59.230Z</time>
      </trkpt>
      <trkpt lat="48.86242" lon="2.29953">
        <ele>83.3</ele>
        <time>2015-02-23T19:54:00.268Z</time>
      </trkpt>
      <trkpt lat="48.86236" lon="2.29943">
        <ele>83.4</ele>
        <time>2015-02-23T19:54:04.146Z</time>
      </trkpt>
      <trkpt lat="48.86234" lon="2.2994">
        <ele>83.5</ele>
        <time>2015-02-23T19:54:05.174Z</time>
      </trkpt>
      <trkpt lat="48.86228" lon="2.29931">
        <ele>83.6</ele>
        <time>2015-02-23T19:54:08.222Z</time>
      </trkpt>
      <trkpt lat="48.86227" lon="2.29927">
        <ele>83.6</ele>
        <time>2015-02-23T19:54:09.244Z</time>
      </trkpt>
      <trkpt lat="48.86223" lon="2.29918">
        <ele>83.6</ele>
        <time>2015-02-23T19:54:11.161Z</time>
      </trkpt>
      <trkpt lat="48.86222" lon="2.29913">
        <ele>83.7</ele>
        <time>2015-02-23T19:54:12.204Z</time>
      </trkpt>
      <trkpt lat="48.86219" lon="2.29902">
        <ele>83.7</ele>
        <time>2015-02-23T19:54:14.165Z</time>
      </trkpt>
      <trkpt lat="48.86218" lon="2.29896">
        <ele>83.5</ele>
        <time>2015-02-23T19:54:15.177Z</time>
      </trkpt>
      <trkpt lat="48.86215" lon="2.29887">
        <ele>83.5</ele>
        <time>2015-02-23T19:54:17.242Z</time>
      </trkpt>
      <trkpt lat="48.86213" lon="2.29882">
        <ele>83.5</ele>
        <time>2015-02-23T19:54:18.195Z</time>
      </trkpt>
      <trkpt lat="48.8621" lon="2.29874">
        <ele>83.8</ele>
        <time>2015-02-23T19:54:20.220Z</time>
      </trkpt>
      <trkpt lat="48.86208" lon="2.2987">
        <ele>84</ele>
        <time>2015-02-23T19:54:21.229Z</time>
      </trkpt>
      <trkpt lat="48.86204" lon="2.29862">
        <ele>84.5</ele>
        <time>2015-02-23T19:54:23.265Z</time>
      </trkpt>
      <trkpt lat="48.86203" lon="2.29858">
        <ele>84.5</ele>
        <time>2015-02-23T19:54:24.178Z</time>
      </trkpt>
      <trkpt lat="48.862" lon="2.2985">
        <ele>84.5</ele>
        <time>2015-02-23T19:54:26.218Z</time>
      </trkpt>
      <trkpt lat="48.86199" lon="2.29845">
        <ele>84.6</ele>
        <time>2015-02-23T19:54:27.226Z</time>
      </trkpt>
      <trkpt lat="48.86196" lon="2.29835">
        <ele>84.8</ele>
        <time>2015-02-23T19:54:29.168Z</time>
      </trkpt>
      <trkpt lat="48.86195" lon="2.2983">
        <ele>84.8</ele>
        <time>2015-02-23T19:54:30.177Z</time>
      </trkpt>
      <trkpt lat="48.86192" lon="2.29821">
        <ele>84.4</ele>
        <time>2015-02-23T19:54:32.239Z</time>
      </trkpt>
      <trkpt lat="48.86191" lon="2.29817">
        <ele>84.5</ele>
        <time>2015-02-23T19:54:33.215Z</time>
      </trkpt>
      <trkpt lat="48.86189" lon="2.29808">
        <ele>84.2</ele>
        <time>2015-02-23T19:54:35.171Z</time>
      </trkpt>
      <trkpt lat="48.86187" lon="2.29803">
        <ele>84.2</ele>
        <time>2015-02-23T19:54:36.174Z</time>
      </trkpt>
      <trkpt lat="48.86182" lon="2.29792">
        <ele>84.7</ele>
        <time>2015-02-23T19:54:38.217Z</time>
      </trkpt>
      <trkpt lat="48.86181" lon="2.29788">
        <ele>84.5</ele>
        <time>2015-02-23T19:54:39.227Z</time>
      </trkpt>
      <trkpt lat="48.86179" lon="2.29775">
        <ele>84</ele>
        <time>2015-02-23T19:54:44.196Z</time>
      </trkpt>
      <trkpt lat="48.8618" lon="2.29773">
        <ele>83.5</ele>
        <time>2015-02-23T19:54:45.208Z</time>
      </trkpt>
      <trkpt lat="48.86186" lon="2.29764">
        <ele>80.3</ele>
        <time>2015-02-23T19:54:50.206Z</time>
      </trkpt>
      <trkpt lat="48.86187" lon="2.29762">
        <ele>79.3</ele>
        <time>2015-02-23T19:54:51.160Z</time>
      </trkpt>
      <trkpt lat="48.86192" lon="2.29752">
        <ele>79.1</ele>
        <time>2015-02-23T19:55:00.339Z</time>
      </trkpt>
      <trkpt lat="48.86194" lon="2.2975">
        <ele>79</ele>
        <time>2015-02-23T19:55:01.310Z</time>
      </trkpt>
      <trkpt lat="48.86199" lon="2.29745">
        <ele>78.9</ele>
        <time>2015-02-23T19:55:04.170Z</time>
      </trkpt>
      <trkpt lat="48.86201" lon="2.29742">
        <ele>78.9</ele>
        <time>2015-02-23T19:55:05.181Z</time>
      </trkpt>
      <trkpt lat="48.86208" lon="2.29737">
        <ele>78.8</ele>
        <time>2015-02-23T19:55:08.229Z</time>
      </trkpt>
      <trkpt lat="48.8621" lon="2.29735">
        <ele>78.8</ele>
        <time>2015-02-23T19:55:09.239Z</time>
      </trkpt>
      <trkpt lat="48.86218" lon="2.29728">
        <ele>79</ele>
        <time>2015-02-23T19:55:12.191Z</time>
      </trkpt>
      <trkpt lat="48.8622" lon="2.29726">
        <ele>79.2</ele>
        <time>2015-02-23T19:55:13.201Z</time>
      </trkpt>
      <trkpt lat="48.86227" lon="2.2972">
        <ele>79.3</ele>
        <time>2015-02-23T19:55:16.249Z</time>
      </trkpt>
      <trkpt lat="48.86229" lon="2.29719">
        <ele>79.2</ele>
        <time>2015-02-23T19:55:17.268Z</time>
      </trkpt>
      <trkpt lat="48.86236" lon="2.29712">
        <ele>79.8</ele>
        <time>2015-02-23T19:55:21.258Z</time>
      </trkpt>
      <trkpt lat="48.86238" lon="2.2971">
        <ele>80.2</ele>
        <time>2015-02-23T19:55:22.153Z</time>
      </trkpt>
      <trkpt lat="48.86245" lon="2.29703">
        <ele>81.5</ele>
        <time>2015-02-23T19:55:26.176Z</time>
      </trkpt>
      <trkpt lat="48.86246" lon="2.29701">
        <ele>82.3</ele>
        <time>2015-02-23T19:55:27.176Z</time>
      </trkpt>
      <trkpt lat="48.86254" lon="2.29695">
        <ele>84.2</ele>
        <time>2015-02-23T19:55:32.174Z</time>
      </trkpt>
      <trkpt lat="48.86256" lon="2.29694">
        <ele>84.6</ele>
        <time>2015-02-23T19:55:33.187Z</time>
      </trkpt>
      <trkpt lat="48.86261" lon="2.2969">
        <ele>84.7</ele>
        <time>2015-02-23T19:55:36.158Z</time>
      </trkpt>
      <trkpt lat="48.86264" lon="2.29687">
        <ele>83.8</ele>
        <time>2015-02-23T19:55:37.218Z</time>
      </trkpt>
      <trkpt lat="48.8627" lon="2.29683">
        <ele>83.1</ele>
        <time>2015-02-23T19:55:39.241Z</time>
      </trkpt>
      <trkpt lat="48.86273" lon="2.29681">
        <ele>82.9</ele>
        <time>2015-02-23T19:55:40.265Z</time>
      </trkpt>
      <trkpt lat="48.8628" lon="2.29674">
        <ele>82.3</ele>
        <time>2015-02-23T19:55:43.213Z</time>
      </trkpt>
      <trkpt lat="48.86282" lon="2.29672">
        <ele>82.1</ele>
        <time>2015-02-23T19:55:44.222Z</time>
      </trkpt>
      <trkpt lat="48.86288" lon="2.29665">
        <ele>82.3</ele>
        <time>2015-02-23T19:55:47.249Z</time>
      </trkpt>
      <trkpt lat="48.8629" lon="2.29663">
        <ele>82.2</ele>
        <time>2015-02-23T19:55:48.196Z</time>
      </trkpt>
      <trkpt lat="48.86298" lon="2.29657">
        <ele>82</ele>
        <time>2015-02-23T19:55:52.176Z</time>
      </trkpt>
      <trkpt lat="48.86299" lon="2.29655">
        <ele>82</ele>
        <time>2015-02-23T19:55:53.200Z</time>
      </trkpt>
      <trkpt lat="48.86306" lon="2.2965">
        <ele>82.5</ele>
        <time>2015-02-23T19:55:57.207Z</time>
      </trkpt>
      <trkpt lat="48.86308" lon="2.29649">
        <ele>82.7</ele>
        <time>2015-02-23T19:55:58.188Z</time>
      </trkpt>
      <trkpt lat="48.86308" lon="2.29649">
        <ele>83.1</ele>
        <time>2015-02-23T19:55:59.206Z</time>
      </trkpt>
      <trkpt lat="48.86308" lon="2.29649">
        <ele>83.2</ele>
        <time>2015-02-23T19:56:00.235Z</time>
      </trkpt>
      <trkpt lat="48.86309" lon="2.29649">
        <ele>83.5</ele>
        <time>2015-02-23T19:56:01.276Z</time>
      </trkpt>
      <trkpt lat="48.86309" lon="2.29649">
        <ele>83.6</ele>
        <time>2015-02-23T19:56:02.159Z</time>
      </trkpt>
      <trkpt lat="48.8631" lon="2.29649">
        <ele>83.9</ele>
        <time>2015-02-23T19:56:04.211Z</time>
      </trkpt>
      <trkpt lat="48.86311" lon="2.29649">
        <ele>84</ele>
        <time>2015-02-23T19:56:05.229Z</time>
      </trkpt>
      <trkpt lat="48.86311" lon="2.2965">
        <ele>84.1</ele>
        <time>2015-02-23T19:56:06.262Z</time>
      </trkpt>
      <trkpt lat="48.86312" lon="2.2965">
        <ele>84.2</ele>
        <time>2015-02-23T19:56:07.286Z</time>
      </trkpt>
      <trkpt lat="48.86319" lon="2.29643">
        <ele>84.4</ele>
        <time>2015-02-23T19:56:16.177Z</time>
      </trkpt>
      <trkpt lat="48.8632" lon="2.29642">
        <ele>84.3</ele>
        <time>2015-02-23T19:56:17.283Z</time>
      </trkpt>
      <trkpt lat="48.86322" lon="2.2964">
        <ele>84.4</ele>
        <time>2015-02-23T19:56:21.509Z</time>
      </trkpt>
      <trkpt lat="48.86322" lon="2.2964">
        <ele>84.3</ele>
        <time>2015-02-23T19:56:22.251Z</time>
      </trkpt>
      <trkpt lat="48.86322" lon="2.2964">
        <ele>84.2</ele>
        <time>2015-02-23T19:56:55.214Z</time>
      </trkpt>
      <trkpt lat="48.86322" lon="2.29646">
        <ele>83.3</ele>
        <time>2015-02-23T19:56:56.213Z</time>
      </trkpt>
      <trkpt lat="48.8633" lon="2.29653">
        <ele>82.8</ele>
        <time>2015-02-23T19:57:05.202Z</time>
      </trkpt>
      <trkpt lat="48.86331" lon="2.29652">
        <ele>82.9</ele>
        <time>2015-02-23T19:57:06.215Z</time>
      </trkpt>
      <trkpt lat="48.86337" lon="2.29642">
        <ele>82.4</ele>
        <time>2015-02-23T19:57:12.254Z</time>
      </trkpt>
      <trkpt lat="48.86339" lon="2.2964">
        <ele>82.4</ele>
        <time>2015-02-23T19:57:13.278Z</time>
      </trkpt>
      <trkpt lat="48.86347" lon="2.29637">
        <ele>82.7</ele>
        <time>2015-02-23T19:57:17.186Z</time>
      </trkpt>
      <trkpt lat="48.86349" lon="2.29636">
        <ele>83</ele>
        <time>2015-02-23T19:57:18.196Z</time>
      </trkpt>
      <trkpt lat="48.86355" lon="2.2963">
        <ele>81.7</ele>
        <time>2015-02-23T19:57:20.229Z</time>
      </trkpt>
      <trkpt lat="48.86357" lon="2.29628">
        <ele>81.4</ele>
        <time>2015-02-23T19:57:21.271Z</time>
      </trkpt>
      <trkpt lat="48.86365" lon="2.29624">
        <ele>82.1</ele>
        <time>2015-02-23T19:57:26.219Z</time>
      </trkpt>
      <trkpt lat="48.86366" lon="2.29623">
        <ele>82.4</ele>
        <time>2015-02-23T19:57:27.138Z</time>
      </trkpt>
      <trkpt lat="48.86374" lon="2.29624">
        <ele>83.5</ele>
        <time>2015-02-23T19:57:31.213Z</time>
      </trkpt>
      <trkpt lat="48.86376" lon="2.29623">
        <ele>83.9</ele>
        <time>2015-02-23T19:57:32.243Z</time>
      </trkpt>
      <trkpt lat="48.86383" lon="2.29616">
        <ele>85.7</ele>
        <time>2015-02-23T19:57:36.164Z</time>
      </trkpt>
      <trkpt lat="48.86384" lon="2.29615">
        <ele>86</ele>
        <time>2015-02-23T19:57:37.177Z</time>
      </trkpt>
      <trkpt lat="48.86389" lon="2.29609">
        <ele>87.5</ele>
        <time>2015-02-23T19:57:41.194Z</time>
      </trkpt>
      <trkpt lat="48.86393" lon="2.29607">
        <ele>87.9</ele>
        <time>2015-02-23T19:57:42.228Z</time>
      </trkpt>
      <trkpt lat="48.86402" lon="2.29603">
        <ele>88.7</ele>
        <time>2015-02-23T19:57:45.166Z</time>
      </trkpt>
      <trkpt lat="48.86404" lon="2.29603">
        <ele>89</ele>
        <time>2015-02-23T19:57:46.213Z</time>
      </trkpt>
      <trkpt lat="48.86412" lon="2.29602">
        <ele>89.3</ele>
        <time>2015-02-23T19:57:50.216Z</time>
      </trkpt>
      <trkpt lat="48.86414" lon="2.29602">
        <ele>89.4</ele>
        <time>2015-02-23T19:57:51.159Z</time>
      </trkpt>
      <trkpt lat="48.8642" lon="2.29598">
        <ele>90.7</ele>
        <time>2015-02-23T19:57:57.262Z</time>
      </trkpt>
      <trkpt lat="48.86422" lon="2.29598">
        <ele>90.8</ele>
        <time>2015-02-23T19:57:58.365Z</time>
      </trkpt>
      <trkpt lat="48.86426" lon="2.29595">
        <ele>91.1</ele>
        <time>2015-02-23T19:58:02.190Z</time>
      </trkpt>
      <trkpt lat="48.86427" lon="2.29594">
        <ele>91.1</ele>
        <time>2015-02-23T19:58:03.188Z</time>
      </trkpt>
      <trkpt lat="48.86428" lon="2.29594">
        <ele>91.1</ele>
        <time>2015-02-23T19:58:04.208Z</time>
      </trkpt>
      <trkpt lat="48.86434" lon="2.29592">
        <ele>91.9</ele>
        <time>2015-02-23T19:58:14.149Z</time>
      </trkpt>
      <trkpt lat="48.86438" lon="2.2959">
        <ele>92.1</ele>
        <time>2015-02-23T19:58:15.166Z</time>
      </trkpt>
      <trkpt lat="48.8644" lon="2.29587">
        <ele>92.3</ele>
        <time>2015-02-23T19:58:18.212Z</time>
      </trkpt>
      <trkpt lat="48.86441" lon="2.29586">
        <ele>92.6</ele>
        <time>2015-02-23T19:58:19.217Z</time>
      </trkpt>
      <trkpt lat="48.86443" lon="2.29584">
        <ele>92.8</ele>
        <time>2015-02-23T19:58:20.233Z</time>
      </trkpt>
      <trkpt lat="48.86449" lon="2.29577">
        <ele>92.9</ele>
        <time>2015-02-23T19:58:26.588Z</time>
      </trkpt>
      <trkpt lat="48.86451" lon="2.29576">
        <ele>92.8</ele>
        <time>2015-02-23T19:58:27.167Z</time>
      </trkpt>
      <trkpt lat="48.86451" lon="2.29576">
        <ele>92.8</ele>
        <time>2015-02-23T19:58:33.218Z</time>
      </trkpt>
      <trkpt lat="48.86459" lon="2.29567">
        <ele>89.1</ele>
        <time>2015-02-23T19:58:34.232Z</time>
      </trkpt>
      <trkpt lat="48.86463" lon="2.29566">
        <ele>88.8</ele>
        <time>2015-02-23T19:58:37.276Z</time>
      </trkpt>
      <trkpt lat="48.86465" lon="2.29568">
        <ele>88.2</ele>
        <time>2015-02-23T19:58:38.167Z</time>
      </trkpt>
      <trkpt lat="48.86465" lon="2.29568">
        <ele>88</ele>
        <time>2015-02-23T19:59:24.210Z</time>
      </trkpt>
      <trkpt lat="48.86475" lon="2.29571">
        <ele>90.8</ele>
        <time>2015-02-23T19:59:25.211Z</time>
      </trkpt>
      <trkpt lat="48.86479" lon="2.29581">
        <ele>90.4</ele>
        <time>2015-02-23T19:59:30.162Z</time>
      </trkpt>
      <trkpt lat="48.86479" lon="2.29585">
        <ele>90.5</ele>
        <time>2015-02-23T19:59:31.221Z</time>
      </trkpt>
      <trkpt lat="48.86478" lon="2.29598">
        <ele>90.8</ele>
        <time>2015-02-23T19:59:34.174Z</time>
      </trkpt>
      <trkpt lat="48.86478" lon="2.29603">
        <ele>90.9</ele>
        <time>2015-02-23T19:59:35.298Z</time>
      </trkpt>
      <trkpt lat="48.86478" lon="2.29613">
        <ele>90.9</ele>
        <time>2015-02-23T19:59:37.231Z</time>
      </trkpt>
      <trkpt lat="48.86478" lon="2.29619">
        <ele>90.9</ele>
        <time>2015-02-23T19:59:38.234Z</time>
      </trkpt>
      <trkpt lat="48.86478" lon="2.29625">
        <ele>90.8</ele>
        <time>2015-02-23T19:59:39.241Z</time>
      </trkpt>
      <trkpt lat="48.86479" lon="2.29633">
        <ele>90.6</ele>
        <time>2015-02-23T19:59:40.344Z</time>
      </trkpt>
      <trkpt lat="48.86478" lon="2.29646">
        <ele>90.8</ele>
        <time>2015-02-23T19:59:42.161Z</time>
      </trkpt>
      <trkpt lat="48.86479" lon="2.29652">
        <ele>90.8</ele>
        <time>2015-02-23T19:59:43.234Z</time>
      </trkpt>
      <trkpt lat="48.86479" lon="2.29659">
        <ele>90.9</ele>
        <time>2015-02-23T19:59:44.245Z</time>
      </trkpt>
      <trkpt lat="48.86479" lon="2.29666">
        <ele>91</ele>
        <time>2015-02-23T19:59:45.259Z</time>
      </trkpt>
      <trkpt lat="48.86479" lon="2.29674">
        <ele>91</ele>
        <time>2015-02-23T19:59:46.842Z</time>
      </trkpt>
      <trkpt lat="48.86479" lon="2.29681">
        <ele>91.2</ele>
        <time>2015-02-23T19:59:47.229Z</time>
      </trkpt>
      <trkpt lat="48.86478" lon="2.29688">
        <ele>91.4</ele>
        <time>2015-02-23T19:59:48.235Z</time>
      </trkpt>
      <trkpt lat="48.86477" lon="2.29695">
        <ele>91.5</ele>
        <time>2015-02-23T19:59:49.251Z</time>
      </trkpt>
      <trkpt lat="48.86476" lon="2.29701">
        <ele>91.5</ele>
        <time>2015-02-23T19:59:50.164Z</time>
      </trkpt>
      <trkpt lat="48.86475" lon="2.29709">
        <ele>91.5</ele>
        <time>2015-02-23T19:59:51.169Z</time>
      </trkpt>
      <trkpt lat="48.86474" lon="2.29716">
        <ele>91.7</ele>
        <time>2015-02-23T19:59:52.178Z</time>
      </trkpt>
      <trkpt lat="48.86473" lon="2.29723">
        <ele>91.8</ele>
        <time>2015-02-23T19:59:53.189Z</time>
      </trkpt>
      <trkpt lat="48.86473" lon="2.29731">
        <ele>91.9</ele>
        <time>2015-02-23T19:59:54.199Z</time>
      </trkpt>
      <trkpt lat="48.86472" lon="2.29738">
        <ele>92</ele>
        <time>2015-02-23T19:59:55.199Z</time>
      </trkpt>
      <trkpt lat="48.8647" lon="2.29745">
        <ele>92.3</ele>
        <time>2015-02-23T19:59:56.928Z</time>
      </trkpt>
      <trkpt lat="48.86469" lon="2.29751">
        <ele>92.6</ele>
        <time>2015-02-23T19:59:57.237Z</time>
      </trkpt>
      <trkpt lat="48.86467" lon="2.29758">
        <ele>92.8</ele>
        <time>2015-02-23T19:59:58.145Z</time>
      </trkpt>
      <trkpt lat="48.86465" lon="2.29764">
        <ele>93</ele>
        <time>2015-02-23T19:59:59.156Z</time>
      </trkpt>
      <trkpt lat="48.86464" lon="2.29771">
        <ele>93.2</ele>
        <time>2015-02-23T20:00:00.156Z</time>
      </trkpt>
      <trkpt lat="48.86462" lon="2.29778">
        <ele>93.2</ele>
        <time>2015-02-23T20:00:01.229Z</time>
      </trkpt>
      <trkpt lat="48.86461" lon="2.29785">
        <ele>93.3</ele>
        <time>2015-02-23T20:00:02.293Z</time>
      </trkpt>
      <trkpt lat="48.86461" lon="2.29793">
        <ele>93.4</ele>
        <time>2015-02-23T20:00:03.155Z</time>
      </trkpt>
      <trkpt lat="48.86462" lon="2.29802">
        <ele>93.3</ele>
        <time>2015-02-23T20:00:04.163Z</time>
      </trkpt>
      <trkpt lat="48.86462" lon="2.2981">
        <ele>93.2</ele>
        <time>2015-02-23T20:00:05.160Z</time>
      </trkpt>
      <trkpt lat="48.86462" lon="2.29818">
        <ele>93.2</ele>
        <time>2015-02-23T20:00:06.177Z</time>
      </trkpt>
      <trkpt lat="48.86461" lon="2.29827">
        <ele>93.2</ele>
        <time>2015-02-23T20:00:07.191Z</time>
      </trkpt>
      <trkpt lat="48.8646" lon="2.29835">
        <ele>93.4</ele>
        <time>2015-02-23T20:00:08.272Z</time>
      </trkpt>
      <trkpt lat="48.86459" lon="2.29844">
        <ele>93.6</ele>
        <time>2015-02-23T20:00:09.136Z</time>
      </trkpt>
      <trkpt lat="48.86458" lon="2.29853">
        <ele>93.9</ele>
        <time>2015-02-23T20:00:10.178Z</time>
      </trkpt>
      <trkpt lat="48.86457" lon="2.29861">
        <ele>94.2</ele>
        <time>2015-02-23T20:00:11.182Z</time>
      </trkpt>
      <trkpt lat="48.86457" lon="2.29869">
        <ele>94.4</ele>
        <time>2015-02-23T20:00:12.209Z</time>
      </trkpt>
      <trkpt lat="48.86456" lon="2.29877">
        <ele>94.7</ele>
        <time>2015-02-23T20:00:13.223Z</time>
      </trkpt>
      <trkpt lat="48.86459" lon="2.29883">
        <ele>92.9</ele>
        <time>2015-02-23T20:00:14.157Z</time>
      </trkpt>
      <trkpt lat="48.86459" lon="2.2989">
        <ele>93.1</ele>
        <time>2015-02-23T20:00:15.170Z</time>
      </trkpt>
      <trkpt lat="48.86458" lon="2.29903">
        <ele>93.4</ele>
        <time>2015-02-23T20:00:17.173Z</time>
      </trkpt>
      <trkpt lat="48.86458" lon="2.29909">
        <ele>93.3</ele>
        <time>2015-02-23T20:00:18.179Z</time>
      </trkpt>
      <trkpt lat="48.86458" lon="2.29921">
        <ele>93.2</ele>
        <time>2015-02-23T20:00:20.222Z</time>
      </trkpt>
      <trkpt lat="48.86459" lon="2.29927">
        <ele>93.1</ele>
        <time>2015-02-23T20:00:21.233Z</time>
      </trkpt>
      <trkpt lat="48.86459" lon="2.29939">
        <ele>93.3</ele>
        <time>2015-02-23T20:00:23.258Z</time>
      </trkpt>
      <trkpt lat="48.86459" lon="2.29945">
        <ele>93.5</ele>
        <time>2015-02-23T20:00:24.168Z</time>
      </trkpt>
      <trkpt lat="48.86458" lon="2.29957">
        <ele>93.6</ele>
        <time>2015-02-23T20:00:26.194Z</time>
      </trkpt>
      <trkpt lat="48.86458" lon="2.29962">
        <ele>93.6</ele>
        <time>2015-02-23T20:00:27.245Z</time>
      </trkpt>
      <trkpt lat="48.86459" lon="2.29973">
        <ele>93.9</ele>
        <time>2015-02-23T20:00:29.157Z</time>
      </trkpt>
      <trkpt lat="48.86459" lon="2.29979">
        <ele>94</ele>
        <time>2015-02-23T20:00:30.174Z</time>
      </trkpt>
      <trkpt lat="48.86459" lon="2.2999">
        <ele>94.3</ele>
        <time>2015-02-23T20:00:32.219Z</time>
      </trkpt>
      <trkpt lat="48.86461" lon="2.29995">
        <ele>94.4</ele>
        <time>2015-02-23T20:00:33.233Z</time>
      </trkpt>
      <trkpt lat="48.86459" lon="2.30007">
        <ele>94.9</ele>
        <time>2015-02-23T20:00:36.184Z</time>
      </trkpt>
      <trkpt lat="48.86458" lon="2.3001">
        <ele>95.3</ele>
        <time>2015-02-23T20:00:37.204Z</time>
      </trkpt>
      <trkpt lat="48.86455" lon="2.30018">
        <ele>95.7</ele>
        <time>2015-02-23T20:00:39.160Z</time>
      </trkpt>
      <trkpt lat="48.86454" lon="2.30023">
        <ele>95.9</ele>
        <time>2015-02-23T20:00:40.172Z</time>
      </trkpt>
      <trkpt lat="48.86451" lon="2.30033">
        <ele>95.9</ele>
        <time>2015-02-23T20:00:42.174Z</time>
      </trkpt>
      <trkpt lat="48.8645" lon="2.30039">
        <ele>96</ele>
        <time>2015-02-23T20:00:43.205Z</time>
      </trkpt>
      <trkpt lat="48.86448" lon="2.3005">
        <ele>95.8</ele>
        <time>2015-02-23T20:00:45.132Z</time>
      </trkpt>
      <trkpt lat="48.86446" lon="2.30055">
        <ele>95.6</ele>
        <time>2015-02-23T20:00:46.223Z</time>
      </trkpt>
      <trkpt lat="48.86443" lon="2.30064">
        <ele>95.3</ele>
        <time>2015-02-23T20:00:48.179Z</time>
      </trkpt>
      <trkpt lat="48.86442" lon="2.30068">
        <ele>95</ele>
        <time>2015-02-23T20:00:49.209Z</time>
      </trkpt>
      <trkpt lat="48.86442" lon="2.30081">
        <ele>91.8</ele>
        <time>2015-02-23T20:00:54.154Z</time>
      </trkpt>
      <trkpt lat="48.86443" lon="2.30086">
        <ele>91</ele>
        <time>2015-02-23T20:00:55.193Z</time>
      </trkpt>
      <trkpt lat="48.86439" lon="2.30098">
        <ele>89.1</ele>
        <time>2015-02-23T20:00:58.243Z</time>
      </trkpt>
      <trkpt lat="48.86438" lon="2.30102">
        <ele>88.7</ele>
        <time>2015-02-23T20:00:59.170Z</time>
      </trkpt>
      <trkpt lat="48.86432" lon="2.30111">
        <ele>88</ele>
        <time>2015-02-23T20:01:02.221Z</time>
      </trkpt>
      <trkpt lat="48.86429" lon="2.30114">
        <ele>87.9</ele>
        <time>2015-02-23T20:01:03.244Z</time>
      </trkpt>
      <trkpt lat="48.86424" lon="2.30121">
        <ele>87.1</ele>
        <time>2015-02-23T20:01:06.174Z</time>
      </trkpt>
      <trkpt lat="48.86421" lon="2.30123">
        <ele>87.1</ele>
        <time>2015-02-23T20:01:07.205Z</time>
      </trkpt>
      <trkpt lat="48.86414" lon="2.30129">
        <ele>85.4</ele>
        <time>2015-02-23T20:01:15.165Z</time>
      </trkpt>
      <trkpt lat="48.86413" lon="2.30131">
        <ele>85.3</ele>
        <time>2015-02-23T20:01:16.177Z</time>
      </trkpt>
      <trkpt lat="48.86408" lon="2.3014">
        <ele>85.1</ele>
        <time>2015-02-23T20:01:20.172Z</time>
      </trkpt>
      <trkpt lat="48.86407" lon="2.30142">
        <ele>85.1</ele>
        <time>2015-02-23T20:01:21.183Z</time>
      </trkpt>
      <trkpt lat="48.864" lon="2.30145">
        <ele>85.6</ele>
        <time>2015-02-23T20:01:24.245Z</time>
      </trkpt>
      <trkpt lat="48.86397" lon="2.30146">
        <ele>85.7</ele>
        <time>2015-02-23T20:01:25.256Z</time>
      </trkpt>
      <trkpt lat="48.86391" lon="2.30146">
        <ele>85.5</ele>
        <time>2015-02-23T20:01:27.158Z</time>
      </trkpt>
      <trkpt lat="48.86388" lon="2.30146">
        <ele>85.5</ele>
        <time>2015-02-23T20:01:28.172Z</time>
      </trkpt>
      <trkpt lat="48.86382" lon="2.30147">
        <ele>85.4</ele>
        <time>2015-02-23T20:01:30.191Z</time>
      </trkpt>
      <trkpt lat="48.86379" lon="2.30148">
        <ele>85.4</ele>
        <time>2015-02-23T20:01:31.210Z</time>
      </trkpt>
      <trkpt lat="48.86373" lon="2.30149">
        <ele>85.3</ele>
        <time>2015-02-23T20:01:33.156Z</time>
      </trkpt>
      <trkpt lat="48.8637" lon="2.3015">
        <ele>85.4</ele>
        <time>2015-02-23T20:01:34.191Z</time>
      </trkpt>
      <trkpt lat="48.86363" lon="2.3015">
        <ele>85.3</ele>
        <time>2015-02-23T20:01:36.133Z</time>
      </trkpt>
      <trkpt lat="48.8636" lon="2.30151">
        <ele>85.4</ele>
        <time>2015-02-23T20:01:37.172Z</time>
      </trkpt>
      <trkpt lat="48.86354" lon="2.30151">
        <ele>85.4</ele>
        <time>2015-02-23T20:01:39.227Z</time>
      </trkpt>
      <trkpt lat="48.86351" lon="2.30151">
        <ele>85.5</ele>
        <time>2015-02-23T20:01:40.201Z</time>
      </trkpt>
      <trkpt lat="48.86344" lon="2.30151">
        <ele>85.5</ele>
        <time>2015-02-23T20:01:42.226Z</time>
      </trkpt>
      <trkpt lat="48.86341" lon="2.30152">
        <ele>85.5</ele>
        <time>2015-02-23T20:01:43.244Z</time>
      </trkpt>
      <trkpt lat="48.86335" lon="2.30153">
        <ele>85.7</ele>
        <time>2015-02-23T20:01:45.159Z</time>
      </trkpt>
      <trkpt lat="48.86332" lon="2.30153">
        <ele>85.6</ele>
        <time>2015-02-23T20:01:46.180Z</time>
      </trkpt>
      <trkpt lat="48.86325" lon="2.30154">
        <ele>85.5</ele>
        <time>2015-02-23T20:01:48.216Z</time>
      </trkpt>
      <trkpt lat="48.86322" lon="2.30154">
        <ele>85.4</ele>
        <time>2015-02-23T20:01:49.223Z</time>
      </trkpt>
      <trkpt lat="48.86314" lon="2.30154">
        <ele>85.1</ele>
        <time>2015-02-23T20:01:52.131Z</time>
      </trkpt>
      <trkpt lat="48.86311" lon="2.30155">
        <ele>85</ele>
        <time>2015-02-23T20:01:53.167Z</time>
      </trkpt>
      <trkpt lat="48.86303" lon="2.30157">
        <ele>84.8</ele>
        <time>2015-02-23T20:01:56.168Z</time>
      </trkpt>
      <trkpt lat="48.863" lon="2.30158">
        <ele>84.7</ele>
        <time>2015-02-23T20:01:57.172Z</time>
      </trkpt>
      <trkpt lat="48.86292" lon="2.3016">
        <ele>84.9</ele>
        <time>2015-02-23T20:02:00.168Z</time>
      </trkpt>
      <trkpt lat="48.86288" lon="2.30161">
        <ele>85</ele>
        <time>2015-02-23T20:02:01.225Z</time>
      </trkpt>
      <trkpt lat="48.86282" lon="2.30162">
        <ele>85.1</ele>
        <time>2015-02-23T20:02:03.245Z</time>
      </trkpt>
      <trkpt lat="48.86279" lon="2.30162">
        <ele>85</ele>
        <time>2015-02-23T20:02:04.257Z</time>
      </trkpt>
      <trkpt lat="48.86271" lon="2.30159">
        <ele>85</ele>
        <time>2015-02-23T20:02:07.206Z</time>
      </trkpt>
      <trkpt lat="48.86269" lon="2.30158">
        <ele>85.1</ele>
        <time>2015-02-23T20:02:08.230Z</time>
      </trkpt>
      <trkpt lat="48.8626" lon="2.30156">
        <ele>85.4</ele>
        <time>2015-02-23T20:02:11.171Z</time>
      </trkpt>
      <trkpt lat="48.86257" lon="2.30156">
        <ele>85.4</ele>
        <time>2015-02-23T20:02:12.176Z</time>
      </trkpt>
      <trkpt lat="48.86249" lon="2.30156">
        <ele>85.7</ele>
        <time>2015-02-23T20:02:15.261Z</time>
      </trkpt>
      <trkpt lat="48.86246" lon="2.30156">
        <ele>85.7</ele>
        <time>2015-02-23T20:02:16.166Z</time>
      </trkpt>
      <trkpt lat="48.86239" lon="2.30156">
        <ele>85.9</ele>
        <time>2015-02-23T20:02:18.212Z</time>
      </trkpt>
      <trkpt lat="48.86236" lon="2.30156">
        <ele>86.1</ele>
        <time>2015-02-23T20:02:19.229Z</time>
      </trkpt>
      <trkpt lat="48.86228" lon="2.30156">
        <ele>86.4</ele>
        <time>2015-02-23T20:02:21.153Z</time>
      </trkpt>
      <trkpt lat="48.86224" lon="2.30156">
        <ele>86.4</ele>
        <time>2015-02-23T20:02:22.165Z</time>
      </trkpt>
      <trkpt lat="48.86216" lon="2.30155">
        <ele>86.5</ele>
        <time>2015-02-23T20:02:24.200Z</time>
      </trkpt>
      <trkpt lat="48.86212" lon="2.30154">
        <ele>86.6</ele>
        <time>2015-02-23T20:02:25.212Z</time>
      </trkpt>
      <trkpt lat="48.86204" lon="2.30153">
        <ele>86.9</ele>
        <time>2015-02-23T20:02:27.235Z</time>
      </trkpt>
      <trkpt lat="48.862" lon="2.30152">
        <ele>86.9</ele>
        <time>2015-02-23T20:02:28.249Z</time>
      </trkpt>
      <trkpt lat="48.86194" lon="2.30151">
        <ele>87.2</ele>
        <time>2015-02-23T20:02:30.154Z</time>
      </trkpt>
      <trkpt lat="48.8619" lon="2.30151">
        <ele>87.3</ele>
        <time>2015-02-23T20:02:31.230Z</time>
      </trkpt>
      <trkpt lat="48.86183" lon="2.30149">
        <ele>87.3</ele>
        <time>2015-02-23T20:02:33.145Z</time>
      </trkpt>
      <trkpt lat="48.86179" lon="2.30149">
        <ele>87.5</ele>
        <time>2015-02-23T20:02:34.223Z</time>
      </trkpt>
      <trkpt lat="48.86172" lon="2.30147">
        <ele>87.9</ele>
        <time>2015-02-23T20:02:36.253Z</time>
      </trkpt>
      <trkpt lat="48.86169" lon="2.30146">
        <ele>88</ele>
        <time>2015-02-23T20:02:37.294Z</time>
      </trkpt>
      <trkpt lat="48.86164" lon="2.30144">
        <ele>88.4</ele>
        <time>2015-02-23T20:02:39.175Z</time>
      </trkpt>
      <trkpt lat="48.8616" lon="2.30144">
        <ele>88.5</ele>
        <time>2015-02-23T20:02:40.189Z</time>
      </trkpt>
      <trkpt lat="48.86154" lon="2.30143">
        <ele>88.9</ele>
        <time>2015-02-23T20:02:42.258Z</time>
      </trkpt>
      <trkpt lat="48.8615" lon="2.30142">
        <ele>89</ele>
        <time>2015-02-23T20:02:43.279Z</time>
      </trkpt>
      <trkpt lat="48.86144" lon="2.30138">
        <ele>88.9</ele>
        <time>2015-02-23T20:02:45.162Z</time>
      </trkpt>
      <trkpt lat="48.86141" lon="2.30137">
        <ele>88.8</ele>
        <time>2015-02-23T20:02:46.209Z</time>
      </trkpt>
      <trkpt lat="48.86134" lon="2.30133">
        <ele>88.8</ele>
        <time>2015-02-23T20:02:48.153Z</time>
      </trkpt>
      <trkpt lat="48.86129" lon="2.30131">
        <ele>88.9</ele>
        <time>2015-02-23T20:02:49.269Z</time>
      </trkpt>
      <trkpt lat="48.86122" lon="2.30129">
        <ele>89</ele>
        <time>2015-02-23T20:02:51.156Z</time>
      </trkpt>
      <trkpt lat="48.86119" lon="2.30127">
        <ele>89.1</ele>
        <time>2015-02-23T20:02:52.166Z</time>
      </trkpt>
      <trkpt lat="48.8611" lon="2.30124">
        <ele>89.3</ele>
        <time>2015-02-23T20:02:54.238Z</time>
      </trkpt>
      <trkpt lat="48.86106" lon="2.30121">
        <ele>89.3</ele>
        <time>2015-02-23T20:02:55.257Z</time>
      </trkpt>
      <trkpt lat="48.861" lon="2.30111">
        <ele>88.8</ele>
        <time>2015-02-23T20:02:57.156Z</time>
      </trkpt>
      <trkpt lat="48.86099" lon="2.30106">
        <ele>88.5</ele>
        <time>2015-02-23T20:02:58.169Z</time>
      </trkpt>
      <trkpt lat="48.86096" lon="2.30096">
        <ele>88.3</ele>
        <time>2015-02-23T20:03:00.196Z</time>
      </trkpt>
      <trkpt lat="48.86094" lon="2.30091">
        <ele>88.1</ele>
        <time>2015-02-23T20:03:01.224Z</time>
      </trkpt>
      <trkpt lat="48.8609" lon="2.30081">
        <ele>87.7</ele>
        <time>2015-02-23T20:03:03.159Z</time>
      </trkpt>
      <trkpt lat="48.86088" lon="2.30076">
        <ele>87.6</ele>
        <time>2015-02-23T20:03:04.163Z</time>
      </trkpt>
      <trkpt lat="48.86085" lon="2.30067">
        <ele>87.5</ele>
        <time>2015-02-23T20:03:06.191Z</time>
      </trkpt>
      <trkpt lat="48.86084" lon="2.30062">
        <ele>87.4</ele>
        <time>2015-02-23T20:03:07.211Z</time>
      </trkpt>
      <trkpt lat="48.86081" lon="2.30052">
        <ele>87</ele>
        <time>2015-02-23T20:03:09.132Z</time>
      </trkpt>
      <trkpt lat="48.86079" lon="2.30046">
        <ele>86.6</ele>
        <time>2015-02-23T20:03:10.149Z</time>
      </trkpt>
      <trkpt lat="48.86076" lon="2.30035">
        <ele>85.9</ele>
        <time>2015-02-23T20:03:12.188Z</time>
      </trkpt>
      <trkpt lat="48.86074" lon="2.30029">
        <ele>85.7</ele>
        <time>2015-02-23T20:03:13.208Z</time>
      </trkpt>
      <trkpt lat="48.8607" lon="2.30018">
        <ele>85.2</ele>
        <time>2015-02-23T20:03:15.144Z</time>
      </trkpt>
      <trkpt lat="48.86069" lon="2.30013">
        <ele>85</ele>
        <time>2015-02-23T20:03:16.157Z</time>
      </trkpt>
      <trkpt lat="48.86069" lon="2.30002">
        <ele>84.2</ele>
        <time>2015-02-23T20:03:18.185Z</time>
      </trkpt>
      <trkpt lat="48.86068" lon="2.29997">
        <ele>84.2</ele>
        <time>2015-02-23T20:03:19.207Z</time>
      </trkpt>
      <trkpt lat="48.86066" lon="2.29985">
        <ele>84.1</ele>
        <time>2015-02-23T20:03:21.146Z</time>
      </trkpt>
      <trkpt lat="48.86065" lon="2.29978">
        <ele>83.9</ele>
        <time>2015-02-23T20:03:22.190Z</time>
      </trkpt>
      <trkpt lat="48.86064" lon="2.2997">
        <ele>83.7</ele>
        <time>2015-02-23T20:03:23.142Z</time>
      </trkpt>
      <trkpt lat="48.86062" lon="2.29964">
        <ele>83.7</ele>
        <time>2015-02-23T20:03:24.140Z</time>
      </trkpt>
      <trkpt lat="48.8606" lon="2.29952">
        <ele>83.2</ele>
        <time>2015-02-23T20:03:26.167Z</time>
      </trkpt>
      <trkpt lat="48.86059" lon="2.29947">
        <ele>83</ele>
        <time>2015-02-23T20:03:27.186Z</time>
      </trkpt>
      <trkpt lat="48.86059" lon="2.29941">
        <ele>82.7</ele>
        <time>2015-02-23T20:03:28.135Z</time>
      </trkpt>
      <trkpt lat="48.86058" lon="2.29933">
        <ele>83.1</ele>
        <time>2015-02-23T20:03:29.130Z</time>
      </trkpt>
      <trkpt lat="48.86057" lon="2.29919">
        <ele>82.7</ele>
        <time>2015-02-23T20:03:31.176Z</time>
      </trkpt>
      <trkpt lat="48.86057" lon="2.29909">
        <ele>82.5</ele>
        <time>2015-02-23T20:03:32.179Z</time>
      </trkpt>
      <trkpt lat="48.86056" lon="2.29896">
        <ele>82.4</ele>
        <time>2015-02-23T20:03:34.200Z</time>
      </trkpt>
      <trkpt lat="48.86056" lon="2.2989">
        <ele>82.8</ele>
        <time>2015-02-23T20:03:35.218Z</time>
      </trkpt>
      <trkpt lat="48.86053" lon="2.29877">
        <ele>83.1</ele>
        <time>2015-02-23T20:03:37.196Z</time>
      </trkpt>
      <trkpt lat="48.86052" lon="2.29871">
        <ele>83.3</ele>
        <time>2015-02-23T20:03:38.213Z</time>
      </trkpt>
      <trkpt lat="48.8605" lon="2.29858">
        <ele>83.6</ele>
        <time>2015-02-23T20:03:40.127Z</time>
      </trkpt>
      <trkpt lat="48.86049" lon="2.29851">
        <ele>83.9</ele>
        <time>2015-02-23T20:03:41.158Z</time>
      </trkpt>
      <trkpt lat="48.86046" lon="2.29838">
        <ele>84.6</ele>
        <time>2015-02-23T20:03:43.219Z</time>
      </trkpt>
      <trkpt lat="48.86043" lon="2.29831">
        <ele>85.4</ele>
        <time>2015-02-23T20:03:44.244Z</time>
      </trkpt>
      <trkpt lat="48.86041" lon="2.29823">
        <ele>86.5</ele>
        <time>2015-02-23T20:03:45.176Z</time>
      </trkpt>
      <trkpt lat="48.86038" lon="2.29814">
        <ele>87.7</ele>
        <time>2015-02-23T20:03:46.173Z</time>
      </trkpt>
      <trkpt lat="48.86036" lon="2.29802">
        <ele>88.3</ele>
        <time>2015-02-23T20:03:48.184Z</time>
      </trkpt>
      <trkpt lat="48.86034" lon="2.29797">
        <ele>88.3</ele>
        <time>2015-02-23T20:03:49.207Z</time>
      </trkpt>
      <trkpt lat="48.86031" lon="2.29785">
        <ele>89.6</ele>
        <time>2015-02-23T20:03:51.156Z</time>
      </trkpt>
      <trkpt lat="48.86029" lon="2.2978">
        <ele>90.4</ele>
        <time>2015-02-23T20:03:52.164Z</time>
      </trkpt>
      <trkpt lat="48.86025" lon="2.2977">
        <ele>91</ele>
        <time>2015-02-23T20:03:54.186Z</time>
      </trkpt>
      <trkpt lat="48.86025" lon="2.29766">
        <ele>91.3</ele>
        <time>2015-02-23T20:03:55.209Z</time>
      </trkpt>
      <trkpt lat="48.86022" lon="2.29757">
        <ele>91.7</ele>
        <time>2015-02-23T20:03:57.234Z</time>
      </trkpt>
      <trkpt lat="48.86021" lon="2.29753">
        <ele>91.7</ele>
        <time>2015-02-23T20:03:58.134Z</time>
      </trkpt>
      <trkpt lat="48.86019" lon="2.29742">
        <ele>92</ele>
        <time>2015-02-23T20:04:01.175Z</time>
      </trkpt>
      <trkpt lat="48.86018" lon="2.29738">
        <ele>92.1</ele>
        <time>2015-02-23T20:04:02.185Z</time>
      </trkpt>
      <trkpt lat="48.86016" lon="2.29726">
        <ele>92.5</ele>
        <time>2015-02-23T20:04:05.227Z</time>
      </trkpt>
      <trkpt lat="48.86014" lon="2.29723">
        <ele>92.6</ele>
        <time>2015-02-23T20:04:06.172Z</time>
      </trkpt>
      <trkpt lat="48.86009" lon="2.29713">
        <ele>92.7</ele>
        <time>2015-02-23T20:04:09.225Z</time>
      </trkpt>
      <trkpt lat="48.86006" lon="2.29709">
        <ele>92.5</ele>
        <time>2015-02-23T20:04:10.202Z</time>
      </trkpt>
      <trkpt lat="48.86" lon="2.297">
        <ele>92.4</ele>
        <time>2015-02-23T20:04:13.280Z</time>
      </trkpt>
      <trkpt lat="48.85998" lon="2.29696">
        <ele>92.9</ele>
        <time>2015-02-23T20:04:14.133Z</time>
      </trkpt>
      <trkpt lat="48.85991" lon="2.29687">
        <ele>93.9</ele>
        <time>2015-02-23T20:04:18.161Z</time>
      </trkpt>
      <trkpt lat="48.8599" lon="2.29685">
        <ele>94.1</ele>
        <time>2015-02-23T20:04:19.270Z</time>
      </trkpt>
      <trkpt lat="48.85983" lon="2.29684">
        <ele>93.5</ele>
        <time>2015-02-23T20:04:24.256Z</time>
      </trkpt>
      <trkpt lat="48.8598" lon="2.29685">
        <ele>93.4</ele>
        <time>2015-02-23T20:04:25.215Z</time>
      </trkpt>
      <trkpt lat="48.85972" lon="2.29689">
        <ele>92.9</ele>
        <time>2015-02-23T20:04:28.238Z</time>
      </trkpt>
      <trkpt lat="48.8597" lon="2.2969">
        <ele>92.9</ele>
        <time>2015-02-23T20:04:29.249Z</time>
      </trkpt>
      <trkpt lat="48.85965" lon="2.29696">
        <ele>93</ele>
        <time>2015-02-23T20:04:31.205Z</time>
      </trkpt>
      <trkpt lat="48.85962" lon="2.29699">
        <ele>92.9</ele>
        <time>2015-02-23T20:04:32.200Z</time>
      </trkpt>
      <trkpt lat="48.85957" lon="2.29708">
        <ele>92.8</ele>
        <time>2015-02-23T20:04:34.234Z</time>
      </trkpt>
      <trkpt lat="48.85955" lon="2.29712">
        <ele>92.5</ele>
        <time>2015-02-23T20:04:35.168Z</time>
      </trkpt>
      <trkpt lat="48.8595" lon="2.2972">
        <ele>92.3</ele>
        <time>2015-02-23T20:04:37.194Z</time>
      </trkpt>
      <trkpt lat="48.85948" lon="2.29724">
        <ele>92</ele>
        <time>2015-02-23T20:04:38.193Z</time>
      </trkpt>
      <trkpt lat="48.85943" lon="2.29731">
        <ele>92</ele>
        <time>2015-02-23T20:04:40.187Z</time>
      </trkpt>
      <trkpt lat="48.8594" lon="2.29735">
        <ele>92.2</ele>
        <time>2015-02-23T20:04:41.200Z</time>
      </trkpt>
      <trkpt lat="48.85937" lon="2.29743">
        <ele>92.4</ele>
        <time>2015-02-23T20:04:43.244Z</time>
      </trkpt>
      <trkpt lat="48.85935" lon="2.29748">
        <ele>92.1</ele>
        <time>2015-02-23T20:04:44.165Z</time>
      </trkpt>
      <trkpt lat="48.85931" lon="2.29758">
        <ele>91.3</ele>
        <time>2015-02-23T20:04:46.151Z</time>
      </trkpt>
      <trkpt lat="48.85929" lon="2.29763">
        <ele>91.1</ele>
        <time>2015-02-23T20:04:47.214Z</time>
      </trkpt>
      <trkpt lat="48.85924" lon="2.29769">
        <ele>91.2</ele>
        <time>2015-02-23T20:04:49.236Z</time>
      </trkpt>
      <trkpt lat="48.85921" lon="2.29772">
        <ele>91.1</ele>
        <time>2015-02-23T20:04:50.253Z</time>
      </trkpt>
      <trkpt lat="48.85913" lon="2.29779">
        <ele>91.1</ele>
        <time>2015-02-23T20:04:53.172Z</time>
      </trkpt>
      <trkpt lat="48.85911" lon="2.29783">
        <ele>91.1</ele>
        <time>2015-02-23T20:04:54.186Z</time>
      </trkpt>
      <trkpt lat="48.85906" lon="2.29791">
        <ele>91</ele>
        <time>2015-02-23T20:04:56.209Z</time>
      </trkpt>
      <trkpt lat="48.85903" lon="2.29795">
        <ele>91.1</ele>
        <time>2015-02-23T20:04:57.224Z</time>
      </trkpt>
      <trkpt lat="48.85896" lon="2.29801">
        <ele>91.4</ele>
        <time>2015-02-23T20:04:59.153Z</time>
      </trkpt>
      <trkpt lat="48.85893" lon="2.29804">
        <ele>91.5</ele>
        <time>2015-02-23T20:05:00.202Z</time>
      </trkpt>
      <trkpt lat="48.85888" lon="2.2981">
        <ele>91.7</ele>
        <time>2015-02-23T20:05:02.150Z</time>
      </trkpt>
      <trkpt lat="48.85885" lon="2.29814">
        <ele>91.7</ele>
        <time>2015-02-23T20:05:03.153Z</time>
      </trkpt>
      <trkpt lat="48.8588" lon="2.29823">
        <ele>91.8</ele>
        <time>2015-02-23T20:05:05.175Z</time>
      </trkpt>
      <trkpt lat="48.85878" lon="2.29829">
        <ele>91.8</ele>
        <time>2015-02-23T20:05:06.196Z</time>
      </trkpt>
      <trkpt lat="48.85873" lon="2.29838">
        <ele>91.4</ele>
        <time>2015-02-23T20:05:08.128Z</time>
      </trkpt>
      <trkpt lat="48.85871" lon="2.29841">
        <ele>91.3</ele>
        <time>2015-02-23T20:05:09.169Z</time>
      </trkpt>
      <trkpt lat="48.85865" lon="2.29849">
        <ele>91.2</ele>
        <time>2015-02-23T20:05:11.177Z</time>
      </trkpt>
      <trkpt lat="48.85863" lon="2.29852">
        <ele>91.2</ele>
        <time>2015-02-23T20:05:12.194Z</time>
      </trkpt>
      <trkpt lat="48.85859" lon="2.2986">
        <ele>91.4</ele>
        <time>2015-02-23T20:05:14.228Z</time>
      </trkpt>
      <trkpt lat="48.85857" lon="2.29864">
        <ele>91.3</ele>
        <time>2015-02-23T20:05:15.171Z</time>
      </trkpt>
      <trkpt lat="48.85852" lon="2.29871">
        <ele>91.4</ele>
        <time>2015-02-23T20:05:17.160Z</time>
      </trkpt>
      <trkpt lat="48.85849" lon="2.29875">
        <ele>91.4</ele>
        <time>2015-02-23T20:05:18.213Z</time>
      </trkpt>
      <trkpt lat="48.85843" lon="2.29882">
        <ele>91.1</ele>
        <time>2015-02-23T20:05:20.228Z</time>
      </trkpt>
      <trkpt lat="48.8584" lon="2.29885">
        <ele>90.7</ele>
        <time>2015-02-23T20:05:21.243Z</time>
      </trkpt>
      <trkpt lat="48.85834" lon="2.2989">
        <ele>90.7</ele>
        <time>2015-02-23T20:05:23.161Z</time>
      </trkpt>
      <trkpt lat="48.85831" lon="2.29892">
        <ele>90.9</ele>
        <time>2015-02-23T20:05:24.171Z</time>
      </trkpt>
      <trkpt lat="48.85826" lon="2.29899">
        <ele>91.3</ele>
        <time>2015-02-23T20:05:26.243Z</time>
      </trkpt>
      <trkpt lat="48.85823" lon="2.29903">
        <ele>91.3</ele>
        <time>2015-02-23T20:05:27.255Z</time>
      </trkpt>
      <trkpt lat="48.85817" lon="2.29909">
        <ele>91.3</ele>
        <time>2015-02-23T20:05:29.154Z</time>
      </trkpt>
      <trkpt lat="48.85814" lon="2.29912">
        <ele>91.4</ele>
        <time>2015-02-23T20:05:30.171Z</time>
      </trkpt>
      <trkpt lat="48.85808" lon="2.29919">
        <ele>91.7</ele>
        <time>2015-02-23T20:05:32.217Z</time>
      </trkpt>
      <trkpt lat="48.85805" lon="2.29922">
        <ele>91.8</ele>
        <time>2015-02-23T20:05:33.225Z</time>
      </trkpt>
      <trkpt lat="48.858" lon="2.29929">
        <ele>92</ele>
        <time>2015-02-23T20:05:35.152Z</time>
      </trkpt>
      <trkpt lat="48.85797" lon="2.29933">
        <ele>92.2</ele>
        <time>2015-02-23T20:05:36.154Z</time>
      </trkpt>
      <trkpt lat="48.85791" lon="2.29942">
        <ele>92.1</ele>
        <time>2015-02-23T20:05:38.147Z</time>
      </trkpt>
      <trkpt lat="48.85789" lon="2.29947">
        <ele>91.6</ele>
        <time>2015-02-23T20:05:39.178Z</time>
      </trkpt>
      <trkpt lat="48.85788" lon="2.29956">
        <ele>90</ele>
        <time>2015-02-23T20:05:40.190Z</time>
      </trkpt>
      <trkpt lat="48.85786" lon="2.29962">
        <ele>89.8</ele>
        <time>2015-02-23T20:05:41.199Z</time>
      </trkpt>
      <trkpt lat="48.85782" lon="2.29971">
        <ele>89.6</ele>
        <time>2015-02-23T20:05:43.213Z</time>
      </trkpt>
      <trkpt lat="48.85779" lon="2.29975">
        <ele>89.5</ele>
        <time>2015-02-23T20:05:44.220Z</time>
      </trkpt>
      <trkpt lat="48.85775" lon="2.29984">
        <ele>88.5</ele>
        <time>2015-02-23T20:05:46.249Z</time>
      </trkpt>
      <trkpt lat="48.85772" lon="2.29989">
        <ele>89.1</ele>
        <time>2015-02-23T20:05:47.163Z</time>
      </trkpt>
      <trkpt lat="48.85768" lon="2.29999">
        <ele>89.7</ele>
        <time>2015-02-23T20:05:49.188Z</time>
      </trkpt>
      <trkpt lat="48.85766" lon="2.30003">
        <ele>90</ele>
        <time>2015-02-23T20:05:50.241Z</time>
      </trkpt>
      <trkpt lat="48.85761" lon="2.30011">
        <ele>90.6</ele>
        <time>2015-02-23T20:05:52.156Z</time>
      </trkpt>
      <trkpt lat="48.85757" lon="2.30018">
        <ele>93.9</ele>
        <time>2015-02-23T20:05:53.167Z</time>
      </trkpt>
      <trkpt lat="48.85752" lon="2.30025">
        <ele>94.3</ele>
        <time>2015-02-23T20:05:55.199Z</time>
      </trkpt>
      <trkpt lat="48.8575" lon="2.30029">
        <ele>94.5</ele>
        <time>2015-02-23T20:05:56.214Z</time>
      </trkpt>
      <trkpt lat="48.85745" lon="2.30039">
        <ele>94.9</ele>
        <time>2015-02-23T20:05:58.151Z</time>
      </trkpt>
      <trkpt lat="48.85743" lon="2.30044">
        <ele>95.1</ele>
        <time>2015-02-23T20:05:59.171Z</time>
      </trkpt>
      <trkpt lat="48.85737" lon="2.30051">
        <ele>95.2</ele>
        <time>2015-02-23T20:06:01.204Z</time>
      </trkpt>
      <trkpt lat="48.85735" lon="2.30053">
        <ele>95.1</ele>
        <time>2015-02-23T20:06:02.217Z</time>
      </trkpt>
      <trkpt lat="48.8573" lon="2.30057">
        <ele>95</ele>
        <time>2015-02-23T20:06:04.149Z</time>
      </trkpt>
      <trkpt lat="48.85728" lon="2.30061">
        <ele>95</ele>
        <time>2015-02-23T20:06:05.175Z</time>
      </trkpt>
      <trkpt lat="48.85722" lon="2.30069">
        <ele>95</ele>
        <time>2015-02-23T20:06:07.234Z</time>
      </trkpt>
      <trkpt lat="48.85719" lon="2.30074">
        <ele>94.9</ele>
        <time>2015-02-23T20:06:08.239Z</time>
      </trkpt>
      <trkpt lat="48.85716" lon="2.3008">
        <ele>94.7</ele>
        <time>2015-02-23T20:06:09.137Z</time>
      </trkpt>
      <trkpt lat="48.85713" lon="2.30086">
        <ele>94.6</ele>
        <time>2015-02-23T20:06:10.141Z</time>
      </trkpt>
      <trkpt lat="48.85711" lon="2.30092">
        <ele>94.4</ele>
        <time>2015-02-23T20:06:11.155Z</time>
      </trkpt>
      <trkpt lat="48.8571" lon="2.30099">
        <ele>94.3</ele>
        <time>2015-02-23T20:06:12.177Z</time>
      </trkpt>
      <trkpt lat="48.85708" lon="2.30106">
        <ele>94.2</ele>
        <time>2015-02-23T20:06:13.201Z</time>
      </trkpt>
      <trkpt lat="48.85707" lon="2.30112">
        <ele>94</ele>
        <time>2015-02-23T20:06:14.216Z</time>
      </trkpt>
      <trkpt lat="48.85701" lon="2.30121">
        <ele>93.8</ele>
        <time>2015-02-23T20:06:16.136Z</time>
      </trkpt>
      <trkpt lat="48.85697" lon="2.30126">
        <ele>93.7</ele>
        <time>2015-02-23T20:06:17.356Z</time>
      </trkpt>
      <trkpt lat="48.85694" lon="2.3013">
        <ele>93.8</ele>
        <time>2015-02-23T20:06:18.157Z</time>
      </trkpt>
      <trkpt lat="48.8569" lon="2.30135">
        <ele>93.7</ele>
        <time>2015-02-23T20:06:19.178Z</time>
      </trkpt>
      <trkpt lat="48.85686" lon="2.30141">
        <ele>93.6</ele>
        <time>2015-02-23T20:06:20.192Z</time>
      </trkpt>
      <trkpt lat="48.85683" lon="2.30148">
        <ele>93.3</ele>
        <time>2015-02-23T20:06:21.240Z</time>
      </trkpt>
      <trkpt lat="48.85679" lon="2.30153">
        <ele>93.2</ele>
        <time>2015-02-23T20:06:22.148Z</time>
      </trkpt>
      <trkpt lat="48.85675" lon="2.30159">
        <ele>93.1</ele>
        <time>2015-02-23T20:06:23.146Z</time>
      </trkpt>
      <trkpt lat="48.85672" lon="2.30164">
        <ele>92.9</ele>
        <time>2015-02-23T20:06:24.156Z</time>
      </trkpt>
      <trkpt lat="48.85668" lon="2.30169">
        <ele>92.7</ele>
        <time>2015-02-23T20:06:25.336Z</time>
      </trkpt>
      <trkpt lat="48.85664" lon="2.30175">
        <ele>92.7</ele>
        <time>2015-02-23T20:06:26.148Z</time>
      </trkpt>
      <trkpt lat="48.85661" lon="2.30179">
        <ele>92.5</ele>
        <time>2015-02-23T20:06:27.157Z</time>
      </trkpt>
      <trkpt lat="48.85657" lon="2.30184">
        <ele>92.3</ele>
        <time>2015-02-23T20:06:28.186Z</time>
      </trkpt>
      <trkpt lat="48.85654" lon="2.30189">
        <ele>92.1</ele>
        <time>2015-02-23T20:06:29.237Z</time>
      </trkpt>
      <trkpt lat="48.85647" lon="2.30196">
        <ele>92</ele>
        <time>2015-02-23T20:06:31.183Z</time>
      </trkpt>
      <trkpt lat="48.85643" lon="2.30199">
        <ele>91.9</ele>
        <time>2015-02-23T20:06:32.194Z</time>
      </trkpt>
      <trkpt lat="48.85636" lon="2.30206">
        <ele>91.9</ele>
        <time>2015-02-23T20:06:34.274Z</time>
      </trkpt>
      <trkpt lat="48.85632" lon="2.3021">
        <ele>91.8</ele>
        <time>2015-02-23T20:06:35.206Z</time>
      </trkpt>
      <trkpt lat="48.85629" lon="2.30214">
        <ele>91.7</ele>
        <time>2015-02-23T20:06:36.182Z</time>
      </trkpt>
      <trkpt lat="48.85625" lon="2.30221">
        <ele>91.3</ele>
        <time>2015-02-23T20:06:37.202Z</time>
      </trkpt>
      <trkpt lat="48.85619" lon="2.30231">
        <ele>91.6</ele>
        <time>2015-02-23T20:06:39.233Z</time>
      </trkpt>
      <trkpt lat="48.85617" lon="2.30235">
        <ele>91.4</ele>
        <time>2015-02-23T20:06:40.260Z</time>
      </trkpt>
      <trkpt lat="48.85612" lon="2.30243">
        <ele>91.1</ele>
        <time>2015-02-23T20:06:42.166Z</time>
      </trkpt>
      <trkpt lat="48.85608" lon="2.30248">
        <ele>91.1</ele>
        <time>2015-02-23T20:06:43.200Z</time>
      </trkpt>
      <trkpt lat="48.85603" lon="2.30256">
        <ele>91.2</ele>
        <time>2015-02-23T20:06:45.219Z</time>
      </trkpt>
      <trkpt lat="48.856" lon="2.30259">
        <ele>91.2</ele>
        <time>2015-02-23T20:06:46.228Z</time>
      </trkpt>
      <trkpt lat="48.85595" lon="2.30266">
        <ele>91</ele>
        <time>2015-02-23T20:06:48.128Z</time>
      </trkpt>
      <trkpt lat="48.85592" lon="2.30271">
        <ele>91.1</ele>
        <time>2015-02-23T20:06:49.200Z</time>
      </trkpt>
      <trkpt lat="48.85586" lon="2.30281">
        <ele>91.1</ele>
        <time>2015-02-23T20:06:51.209Z</time>
      </trkpt>
      <trkpt lat="48.85582" lon="2.30285">
        <ele>91.1</ele>
        <time>2015-02-23T20:06:52.229Z</time>
      </trkpt>
      <trkpt lat="48.85575" lon="2.30291">
        <ele>91.1</ele>
        <time>2015-02-23T20:06:54.151Z</time>
      </trkpt>
      <trkpt lat="48.85571" lon="2.30294">
        <ele>91.1</ele>
        <time>2015-02-23T20:06:55.206Z</time>
      </trkpt>
      <trkpt lat="48.85564" lon="2.30303">
        <ele>90.8</ele>
        <time>2015-02-23T20:06:57.146Z</time>
      </trkpt>
      <trkpt lat="48.85561" lon="2.30309">
        <ele>90.4</ele>
        <time>2015-02-23T20:06:58.166Z</time>
      </trkpt>
      <trkpt lat="48.85556" lon="2.30315">
        <ele>89.9</ele>
        <time>2015-02-23T20:06:59.211Z</time>
      </trkpt>
      <trkpt lat="48.85553" lon="2.3032">
        <ele>89.6</ele>
        <time>2015-02-23T20:07:00.234Z</time>
      </trkpt>
      <trkpt lat="48.85549" lon="2.30326">
        <ele>89.5</ele>
        <time>2015-02-23T20:07:01.263Z</time>
      </trkpt>
      <trkpt lat="48.85545" lon="2.3033">
        <ele>89.3</ele>
        <time>2015-02-23T20:07:02.146Z</time>
      </trkpt>
      <trkpt lat="48.85542" lon="2.30336">
        <ele>89.3</ele>
        <time>2015-02-23T20:07:03.158Z</time>
      </trkpt>
      <trkpt lat="48.85539" lon="2.30341">
        <ele>89.8</ele>
        <time>2015-02-23T20:07:04.256Z</time>
      </trkpt>
      <trkpt lat="48.85533" lon="2.30351">
        <ele>89.7</ele>
        <time>2015-02-23T20:07:06.147Z</time>
      </trkpt>
      <trkpt lat="48.85531" lon="2.30356">
        <ele>89.8</ele>
        <time>2015-02-23T20:07:07.203Z</time>
      </trkpt>
      <trkpt lat="48.85527" lon="2.30365">
        <ele>90.1</ele>
        <time>2015-02-23T20:07:09.144Z</time>
      </trkpt>
      <trkpt lat="48.85526" lon="2.30369">
        <ele>90</ele>
        <time>2015-02-23T20:07:10.161Z</time>
      </trkpt>
      <trkpt lat="48.85522" lon="2.3038">
        <ele>89.6</ele>
        <time>2015-02-23T20:07:12.210Z</time>
      </trkpt>
      <trkpt lat="48.85519" lon="2.30386">
        <ele>89.3</ele>
        <time>2015-02-23T20:07:13.221Z</time>
      </trkpt>
      <trkpt lat="48.85515" lon="2.30391">
        <ele>89.4</ele>
        <time>2015-02-23T20:07:14.141Z</time>
      </trkpt>
      <trkpt lat="48.85511" lon="2.30397">
        <ele>89.4</ele>
        <time>2015-02-23T20:07:15.309Z</time>
      </trkpt>
      <trkpt lat="48.85507" lon="2.30402">
        <ele>89.4</ele>
        <time>2015-02-23T20:07:16.164Z</time>
      </trkpt>
      <trkpt lat="48.85502" lon="2.30408">
        <ele>89.4</ele>
        <time>2015-02-23T20:07:17.180Z</time>
      </trkpt>
      <trkpt lat="48.85498" lon="2.30413">
        <ele>89.4</ele>
        <time>2015-02-23T20:07:18.184Z</time>
      </trkpt>
      <trkpt lat="48.85495" lon="2.30418">
        <ele>89.5</ele>
        <time>2015-02-23T20:07:19.191Z</time>
      </trkpt>
      <trkpt lat="48.85491" lon="2.30423">
        <ele>89.6</ele>
        <time>2015-02-23T20:07:20.351Z</time>
      </trkpt>
      <trkpt lat="48.85487" lon="2.30428">
        <ele>89.7</ele>
        <time>2015-02-23T20:07:21.193Z</time>
      </trkpt>
      <trkpt lat="48.85484" lon="2.30433">
        <ele>89.9</ele>
        <time>2015-02-23T20:07:22.209Z</time>
      </trkpt>
      <trkpt lat="48.8548" lon="2.30438">
        <ele>90.1</ele>
        <time>2015-02-23T20:07:23.214Z</time>
      </trkpt>
      <trkpt lat="48.85476" lon="2.30443">
        <ele>90.1</ele>
        <time>2015-02-23T20:07:24.117Z</time>
      </trkpt>
      <trkpt lat="48.85473" lon="2.30447">
        <ele>90.1</ele>
        <time>2015-02-23T20:07:25.187Z</time>
      </trkpt>
      <trkpt lat="48.85466" lon="2.30456">
        <ele>90</ele>
        <time>2015-02-23T20:07:27.184Z</time>
      </trkpt>
      <trkpt lat="48.85464" lon="2.3046">
        <ele>89.7</ele>
        <time>2015-02-23T20:07:28.187Z</time>
      </trkpt>
      <trkpt lat="48.8546" lon="2.30468">
        <ele>89.2</ele>
        <time>2015-02-23T20:07:30.254Z</time>
      </trkpt>
      <trkpt lat="48.85458" lon="2.30472">
        <ele>89</ele>
        <time>2015-02-23T20:07:31.275Z</time>
      </trkpt>
      <trkpt lat="48.85454" lon="2.3048">
        <ele>88.3</ele>
        <time>2015-02-23T20:07:34.150Z</time>
      </trkpt>
      <trkpt lat="48.85454" lon="2.30485">
        <ele>87.3</ele>
        <time>2015-02-23T20:07:35.153Z</time>
      </trkpt>
      <trkpt lat="48.8545" lon="2.30497">
        <ele>86</ele>
        <time>2015-02-23T20:07:39.155Z</time>
      </trkpt>
      <trkpt lat="48.8545" lon="2.30499">
        <ele>86.1</ele>
        <time>2015-02-23T20:07:40.170Z</time>
      </trkpt>
      <trkpt lat="48.85444" lon="2.30506">
        <ele>86.6</ele>
        <time>2015-02-23T20:07:44.151Z</time>
      </trkpt>
      <trkpt lat="48.85442" lon="2.30509">
        <ele>86.4</ele>
        <time>2015-02-23T20:07:45.163Z</time>
      </trkpt>
      <trkpt lat="48.85436" lon="2.30518">
        <ele>85.6</ele>
        <time>2015-02-23T20:07:49.280Z</time>
      </trkpt>
      <trkpt lat="48.85434" lon="2.3052">
        <ele>85.7</ele>
        <time>2015-02-23T20:07:50.250Z</time>
      </trkpt>
      <trkpt lat="48.85428" lon="2.30525">
        <ele>86.8</ele>
        <time>2015-02-23T20:07:53.216Z</time>
      </trkpt>
      <trkpt lat="48.85426" lon="2.30528">
        <ele>87.1</ele>
        <time>2015-02-23T20:07:54.247Z</time>
      </trkpt>
      <trkpt lat="48.85421" lon="2.30537">
        <ele>87.4</ele>
        <time>2015-02-23T20:07:57.161Z</time>
      </trkpt>
      <trkpt lat="48.85419" lon="2.30541">
        <ele>86.4</ele>
        <time>2015-02-23T20:07:58.174Z</time>
      </trkpt>
      <trkpt lat="48.85417" lon="2.30551">
        <ele>85.5</ele>
        <time>2015-02-23T20:08:01.203Z</time>
      </trkpt>
      <trkpt lat="48.85417" lon="2.30555">
        <ele>84.9</ele>
        <time>2015-02-23T20:08:02.195Z</time>
      </trkpt>
      <trkpt lat="48.85415" lon="2.30566">
        <ele>84.9</ele>
        <time>2015-02-23T20:08:05.152Z</time>
      </trkpt>
      <trkpt lat="48.85414" lon="2.3057">
        <ele>85</ele>
        <time>2015-02-23T20:08:06.171Z</time>
      </trkpt>
      <trkpt lat="48.85412" lon="2.3058">
        <ele>85</ele>
        <time>2015-02-23T20:08:09.169Z</time>
      </trkpt>
      <trkpt lat="48.85411" lon="2.30583">
        <ele>85.1</ele>
        <time>2015-02-23T20:08:10.157Z</time>
      </trkpt>
      <trkpt lat="48.85409" lon="2.30594">
        <ele>85.2</ele>
        <time>2015-02-23T20:08:13.197Z</time>
      </trkpt>
      <trkpt lat="48.85409" lon="2.30597">
        <ele>85.3</ele>
        <time>2015-02-23T20:08:14.216Z</time>
      </trkpt>
      <trkpt lat="48.85407" lon="2.3061">
        <ele>85.6</ele>
        <time>2015-02-23T20:08:18.196Z</time>
      </trkpt>
      <trkpt lat="48.85406" lon="2.30612">
        <ele>85.6</ele>
        <time>2015-02-23T20:08:19.210Z</time>
      </trkpt>
      <trkpt lat="48.85406" lon="2.30624">
        <ele>86.4</ele>
        <time>2015-02-23T20:08:24.218Z</time>
      </trkpt>
      <trkpt lat="48.85406" lon="2.30626">
        <ele>86.3</ele>
        <time>2015-02-23T20:08:25.267Z</time>
      </trkpt>
      <trkpt lat="48.85407" lon="2.30638">
        <ele>86.9</ele>
        <time>2015-02-23T20:08:30.225Z</time>
      </trkpt>
      <trkpt lat="48.85407" lon="2.30641">
        <ele>87</ele>
        <time>2015-02-23T20:08:31.240Z</time>
      </trkpt>
      <trkpt lat="48.85406" lon="2.30652">
        <ele>87.2</ele>
        <time>2015-02-23T20:08:34.146Z</time>
      </trkpt>
      <trkpt lat="48.85406" lon="2.30656">
        <ele>87.1</ele>
        <time>2015-02-23T20:08:35.149Z</time>
      </trkpt>
      <trkpt lat="48.85407" lon="2.30665">
        <ele>86.9</ele>
        <time>2015-02-23T20:08:37.218Z</time>
      </trkpt>
      <trkpt lat="48.85408" lon="2.3067">
        <ele>86.8</ele>
        <time>2015-02-23T20:08:38.134Z</time>
      </trkpt>
      <trkpt lat="48.85408" lon="2.3068">
        <ele>86.6</ele>
        <time>2015-02-23T20:08:40.181Z</time>
      </trkpt>
      <trkpt lat="48.85409" lon="2.30686">
        <ele>86.3</ele>
        <time>2015-02-23T20:08:41.206Z</time>
      </trkpt>
      <trkpt lat="48.85411" lon="2.30697">
        <ele>85.7</ele>
        <time>2015-02-23T20:08:43.246Z</time>
      </trkpt>
      <trkpt lat="48.85411" lon="2.30702">
        <ele>85.5</ele>
        <time>2015-02-23T20:08:44.154Z</time>
      </trkpt>
      <trkpt lat="48.85411" lon="2.30713">
        <ele>85</ele>
        <time>2015-02-23T20:08:46.185Z</time>
      </trkpt>
      <trkpt lat="48.85411" lon="2.30718">
        <ele>84.9</ele>
        <time>2015-02-23T20:08:47.195Z</time>
      </trkpt>
      <trkpt lat="48.85409" lon="2.3073">
        <ele>85</ele>
        <time>2015-02-23T20:08:49.244Z</time>
      </trkpt>
      <trkpt lat="48.85407" lon="2.30736">
        <ele>84.8</ele>
        <time>2015-02-23T20:08:50.261Z</time>
      </trkpt>
      <trkpt lat="48.85404" lon="2.30747">
        <ele>84.6</ele>
        <time>2015-02-23T20:08:52.151Z</time>
      </trkpt>
      <trkpt lat="48.85402" lon="2.30753">
        <ele>84.6</ele>
        <time>2015-02-23T20:08:53.180Z</time>
      </trkpt>
      <trkpt lat="48.85399" lon="2.30765">
        <ele>84.6</ele>
        <time>2015-02-23T20:08:55.275Z</time>
      </trkpt>
      <trkpt lat="48.85398" lon="2.30771">
        <ele>84.6</ele>
        <time>2015-02-23T20:08:56.158Z</time>
      </trkpt>
      <trkpt lat="48.85395" lon="2.30783">
        <ele>84.6</ele>
        <time>2015-02-23T20:08:58.195Z</time>
      </trkpt>
      <trkpt lat="48.85394" lon="2.3079">
        <ele>84.8</ele>
        <time>2015-02-23T20:08:59.208Z</time>
      </trkpt>
      <trkpt lat="48.85392" lon="2.30797">
        <ele>85</ele>
        <time>2015-02-23T20:09:00.158Z</time>
      </trkpt>
      <trkpt lat="48.85389" lon="2.30805">
        <ele>85.5</ele>
        <time>2015-02-23T20:09:01.193Z</time>
      </trkpt>
      <trkpt lat="48.85388" lon="2.30812">
        <ele>85.6</ele>
        <time>2015-02-23T20:09:02.239Z</time>
      </trkpt>
      <trkpt lat="48.85387" lon="2.30818">
        <ele>85.9</ele>
        <time>2015-02-23T20:09:03.214Z</time>
      </trkpt>
      <trkpt lat="48.85385" lon="2.30825">
        <ele>86.3</ele>
        <time>2015-02-23T20:09:04.234Z</time>
      </trkpt>
      <trkpt lat="48.85386" lon="2.30832">
        <ele>86.4</ele>
        <time>2015-02-23T20:09:05.158Z</time>
      </trkpt>
      <trkpt lat="48.85385" lon="2.30838">
        <ele>86.4</ele>
        <time>2015-02-23T20:09:06.196Z</time>
      </trkpt>
      <trkpt lat="48.85384" lon="2.30846">
        <ele>86.4</ele>
        <time>2015-02-23T20:09:07.210Z</time>
      </trkpt>
      <trkpt lat="48.85381" lon="2.30853">
        <ele>86.5</ele>
        <time>2015-02-23T20:09:08.146Z</time>
      </trkpt>
      <trkpt lat="48.85381" lon="2.30861">
        <ele>86.4</ele>
        <time>2015-02-23T20:09:09.154Z</time>
      </trkpt>
      <trkpt lat="48.8538" lon="2.3087">
        <ele>86.3</ele>
        <time>2015-02-23T20:09:10.164Z</time>
      </trkpt>
      <trkpt lat="48.85379" lon="2.30877">
        <ele>86.4</ele>
        <time>2015-02-23T20:09:11.167Z</time>
      </trkpt>
      <trkpt lat="48.8538" lon="2.30884">
        <ele>86.5</ele>
        <time>2015-02-23T20:09:12.200Z</time>
      </trkpt>
      <trkpt lat="48.85383" lon="2.30892">
        <ele>86.7</ele>
        <time>2015-02-23T20:09:13.235Z</time>
      </trkpt>
      <trkpt lat="48.85384" lon="2.30899">
        <ele>86.7</ele>
        <time>2015-02-23T20:09:14.148Z</time>
      </trkpt>
      <trkpt lat="48.85385" lon="2.30905">
        <ele>86.7</ele>
        <time>2015-02-23T20:09:15.154Z</time>
      </trkpt>
      <trkpt lat="48.85387" lon="2.30912">
        <ele>86.4</ele>
        <time>2015-02-23T20:09:16.158Z</time>
      </trkpt>
      <trkpt lat="48.85388" lon="2.30919">
        <ele>86</ele>
        <time>2015-02-23T20:09:17.217Z</time>
      </trkpt>
      <trkpt lat="48.8539" lon="2.30931">
        <ele>85.2</ele>
        <time>2015-02-23T20:09:19.191Z</time>
      </trkpt>
      <trkpt lat="48.8539" lon="2.30937">
        <ele>84.9</ele>
        <time>2015-02-23T20:09:20.199Z</time>
      </trkpt>
      <trkpt lat="48.85385" lon="2.30944">
        <ele>84.9</ele>
        <time>2015-02-23T20:09:23.134Z</time>
      </trkpt>
      <trkpt lat="48.85382" lon="2.30945">
        <ele>85.3</ele>
        <time>2015-02-23T20:09:24.168Z</time>
      </trkpt>
      <trkpt lat="48.85375" lon="2.30945">
        <ele>84.9</ele>
        <time>2015-02-23T20:09:28.231Z</time>
      </trkpt>
      <trkpt lat="48.85372" lon="2.30945">
        <ele>84.8</ele>
        <time>2015-02-23T20:09:29.198Z</time>
      </trkpt>
      <trkpt lat="48.85365" lon="2.30944">
        <ele>84.8</ele>
        <time>2015-02-23T20:09:31.277Z</time>
      </trkpt>
      <trkpt lat="48.85361" lon="2.30943">
        <ele>84.9</ele>
        <time>2015-02-23T20:09:32.151Z</time>
      </trkpt>
      <trkpt lat="48.85353" lon="2.30946">
        <ele>85.2</ele>
        <time>2015-02-23T20:09:35.171Z</time>
      </trkpt>
      <trkpt lat="48.85351" lon="2.30952">
        <ele>85</ele>
        <time>2015-02-23T20:09:36.191Z</time>
      </trkpt>
      <trkpt lat="48.85348" lon="2.30962">
        <ele>85.2</ele>
        <time>2015-02-23T20:09:38.159Z</time>
      </trkpt>
      <trkpt lat="48.85347" lon="2.30966">
        <ele>85.4</ele>
        <time>2015-02-23T20:09:39.174Z</time>
      </trkpt>
      <trkpt lat="48.85343" lon="2.30977">
        <ele>85.4</ele>
        <time>2015-02-23T20:09:42.205Z</time>
      </trkpt>
      <trkpt lat="48.85342" lon="2.3098">
        <ele>85.6</ele>
        <time>2015-02-23T20:09:43.214Z</time>
      </trkpt>
      <trkpt lat="48.85337" lon="2.30988">
        <ele>85.5</ele>
        <time>2015-02-23T20:09:46.188Z</time>
      </trkpt>
      <trkpt lat="48.85335" lon="2.30989">
        <ele>85.7</ele>
        <time>2015-02-23T20:09:47.199Z</time>
      </trkpt>
      <trkpt lat="48.85329" lon="2.30993">
        <ele>86</ele>
        <time>2015-02-23T20:09:50.154Z</time>
      </trkpt>
      <trkpt lat="48.85326" lon="2.30995">
        <ele>86.1</ele>
        <time>2015-02-23T20:09:51.148Z</time>
      </trkpt>
      <trkpt lat="48.85319" lon="2.30998">
        <ele>86.5</ele>
        <time>2015-02-23T20:09:54.143Z</time>
      </trkpt>
      <trkpt lat="48.85317" lon="2.31001">
        <ele>86.6</ele>
        <time>2015-02-23T20:09:55.183Z</time>
      </trkpt>
      <trkpt lat="48.8531" lon="2.31007">
        <ele>86.8</ele>
        <time>2015-02-23T20:09:58.215Z</time>
      </trkpt>
      <trkpt lat="48.85307" lon="2.31009">
        <ele>86.9</ele>
        <time>2015-02-23T20:09:59.166Z</time>
      </trkpt>
      <trkpt lat="48.85299" lon="2.31015">
        <ele>87.4</ele>
        <time>2015-02-23T20:10:02.180Z</time>
      </trkpt>
      <trkpt lat="48.85295" lon="2.31017">
        <ele>87.5</ele>
        <time>2015-02-23T20:10:03.317Z</time>
      </trkpt>
      <trkpt lat="48.85291" lon="2.31019">
        <ele>87.6</ele>
        <time>2015-02-23T20:10:04.154Z</time>
      </trkpt>
      <trkpt lat="48.85287" lon="2.31024">
        <ele>87.5</ele>
        <time>2015-02-23T20:10:05.165Z</time>
      </trkpt>
      <trkpt lat="48.85281" lon="2.3103">
        <ele>87.5</ele>
        <time>2015-02-23T20:10:07.176Z</time>
      </trkpt>
      <trkpt lat="48.85278" lon="2.31033">
        <ele>87.5</ele>
        <time>2015-02-23T20:10:08.183Z</time>
      </trkpt>
      <trkpt lat="48.85271" lon="2.31038">
        <ele>87.6</ele>
        <time>2015-02-23T20:10:10.140Z</time>
      </trkpt>
      <trkpt lat="48.85267" lon="2.3104">
        <ele>87.5</ele>
        <time>2015-02-23T20:10:11.166Z</time>
      </trkpt>
      <trkpt lat="48.85259" lon="2.31043">
        <ele>87.7</ele>
        <time>2015-02-23T20:10:13.169Z</time>
      </trkpt>
      <trkpt lat="48.85254" lon="2.31043">
        <ele>87.6</ele>
        <time>2015-02-23T20:10:14.171Z</time>
      </trkpt>
      <trkpt lat="48.85246" lon="2.31042">
        <ele>87.7</ele>
        <time>2015-02-23T20:10:16.289Z</time>
      </trkpt>
      <trkpt lat="48.85242" lon="2.31043">
        <ele>88.1</ele>
        <time>2015-02-23T20:10:17.161Z</time>
      </trkpt>
      <trkpt lat="48.85239" lon="2.31055">
        <ele>88.8</ele>
        <time>2015-02-23T20:10:20.214Z</time>
      </trkpt>
      <trkpt lat="48.85238" lon="2.3106">
        <ele>89.2</ele>
        <time>2015-02-23T20:10:21.217Z</time>
      </trkpt>
      <trkpt lat="48.8524" lon="2.31074">
        <ele>90.1</ele>
        <time>2015-02-23T20:10:24.157Z</time>
      </trkpt>
      <trkpt lat="48.85242" lon="2.31077">
        <ele>90</ele>
        <time>2015-02-23T20:10:25.203Z</time>
      </trkpt>
      <trkpt lat="48.85249" lon="2.31086">
        <ele>90.3</ele>
        <time>2015-02-23T20:10:28.157Z</time>
      </trkpt>
      <trkpt lat="48.85252" lon="2.31088">
        <ele>90.1</ele>
        <time>2015-02-23T20:10:29.174Z</time>
      </trkpt>
      <trkpt lat="48.8526" lon="2.31091">
        <ele>90.1</ele>
        <time>2015-02-23T20:10:31.185Z</time>
      </trkpt>
      <trkpt lat="48.85263" lon="2.31093">
        <ele>90.2</ele>
        <time>2015-02-23T20:10:32.178Z</time>
      </trkpt>
      <trkpt lat="48.8527" lon="2.31096">
        <ele>90.4</ele>
        <time>2015-02-23T20:10:34.206Z</time>
      </trkpt>
      <trkpt lat="48.85273" lon="2.31099">
        <ele>90.9</ele>
        <time>2015-02-23T20:10:35.222Z</time>
      </trkpt>
      <trkpt lat="48.8528" lon="2.31103">
        <ele>91.7</ele>
        <time>2015-02-23T20:10:37.184Z</time>
      </trkpt>
      <trkpt lat="48.85283" lon="2.31105">
        <ele>91.9</ele>
        <time>2015-02-23T20:10:38.186Z</time>
      </trkpt>
      <trkpt lat="48.85289" lon="2.31112">
        <ele>92.1</ele>
        <time>2015-02-23T20:10:40.217Z</time>
      </trkpt>
      <trkpt lat="48.85292" lon="2.31116">
        <ele>92.1</ele>
        <time>2015-02-23T20:10:41.230Z</time>
      </trkpt>
      <trkpt lat="48.85298" lon="2.31124">
        <ele>92.2</ele>
        <time>2015-02-23T20:10:43.183Z</time>
      </trkpt>
      <trkpt lat="48.85301" lon="2.31128">
        <ele>92.4</ele>
        <time>2015-02-23T20:10:44.186Z</time>
      </trkpt>
      <trkpt lat="48.85307" lon="2.31134">
        <ele>92.4</ele>
        <time>2015-02-23T20:10:46.154Z</time>
      </trkpt>
      <trkpt lat="48.8531" lon="2.31138">
        <ele>92.5</ele>
        <time>2015-02-23T20:10:47.166Z</time>
      </trkpt>
      <trkpt lat="48.85317" lon="2.31146">
        <ele>91.8</ele>
        <time>2015-02-23T20:10:49.226Z</time>
      </trkpt>
      <trkpt lat="48.8532" lon="2.31149">
        <ele>91.7</ele>
        <time>2015-02-23T20:10:50.161Z</time>
      </trkpt>
      <trkpt lat="48.85323" lon="2.31162">
        <ele>91.4</ele>
        <time>2015-02-23T20:10:53.158Z</time>
      </trkpt>
      <trkpt lat="48.85322" lon="2.31165">
        <ele>91.3</ele>
        <time>2015-02-23T20:10:54.166Z</time>
      </trkpt>
      <trkpt lat="48.85319" lon="2.31175">
        <ele>90.5</ele>
        <time>2015-02-23T20:10:57.161Z</time>
      </trkpt>
      <trkpt lat="48.85318" lon="2.31178">
        <ele>90</ele>
        <time>2015-02-23T20:10:58.169Z</time>
      </trkpt>
      <trkpt lat="48.85312" lon="2.31185">
        <ele>89.3</ele>
        <time>2015-02-23T20:11:02.179Z</time>
      </trkpt>
      <trkpt lat="48.85309" lon="2.31186">
        <ele>88.8</ele>
        <time>2015-02-23T20:11:03.189Z</time>
      </trkpt>
      <trkpt lat="48.853" lon="2.31188">
        <ele>87.1</ele>
        <time>2015-02-23T20:11:06.124Z</time>
      </trkpt>
      <trkpt lat="48.85297" lon="2.31188">
        <ele>86.9</ele>
        <time>2015-02-23T20:11:07.199Z</time>
      </trkpt>
      <trkpt lat="48.85288" lon="2.31187">
        <ele>86.6</ele>
        <time>2015-02-23T20:11:10.124Z</time>
      </trkpt>
      <trkpt lat="48.85285" lon="2.31188">
        <ele>86.5</ele>
        <time>2015-02-23T20:11:11.151Z</time>
      </trkpt>
      <trkpt lat="48.85277" lon="2.31187">
        <ele>86.3</ele>
        <time>2015-02-23T20:11:14.201Z</time>
      </trkpt>
      <trkpt lat="48.85274" lon="2.31187">
        <ele>86.4</ele>
        <time>2015-02-23T20:11:15.229Z</time>
      </trkpt>
      <trkpt lat="48.85266" lon="2.31185">
        <ele>86.4</ele>
        <time>2015-02-23T20:11:18.233Z</time>
      </trkpt>
      <trkpt lat="48.85262" lon="2.31185">
        <ele>86.2</ele>
        <time>2015-02-23T20:11:19.267Z</time>
      </trkpt>
      <trkpt lat="48.85255" lon="2.31184">
        <ele>86.3</ele>
        <time>2015-02-23T20:11:21.151Z</time>
      </trkpt>
      <trkpt lat="48.85252" lon="2.31183">
        <ele>86.4</ele>
        <time>2015-02-23T20:11:22.154Z</time>
      </trkpt>
      <trkpt lat="48.85244" lon="2.31182">
        <ele>86.5</ele>
        <time>2015-02-23T20:11:24.186Z</time>
      </trkpt>
      <trkpt lat="48.85239" lon="2.31183">
        <ele>86.5</ele>
        <time>2015-02-23T20:11:25.194Z</time>
      </trkpt>
      <trkpt lat="48.8523" lon="2.31182">
        <ele>87</ele>
        <time>2015-02-23T20:11:27.145Z</time>
      </trkpt>
      <trkpt lat="48.85226" lon="2.31181">
        <ele>86.9</ele>
        <time>2015-02-23T20:11:28.161Z</time>
      </trkpt>
      <trkpt lat="48.85217" lon="2.31179">
        <ele>86.7</ele>
        <time>2015-02-23T20:11:30.173Z</time>
      </trkpt>
      <trkpt lat="48.85213" lon="2.31178">
        <ele>86.6</ele>
        <time>2015-02-23T20:11:31.192Z</time>
      </trkpt>
      <trkpt lat="48.85205" lon="2.31176">
        <ele>86.3</ele>
        <time>2015-02-23T20:11:33.221Z</time>
      </trkpt>
      <trkpt lat="48.852" lon="2.31175">
        <ele>86.2</ele>
        <time>2015-02-23T20:11:34.232Z</time>
      </trkpt>
      <trkpt lat="48.85192" lon="2.31176">
        <ele>86.1</ele>
        <time>2015-02-23T20:11:36.150Z</time>
      </trkpt>
      <trkpt lat="48.85187" lon="2.31177">
        <ele>86.1</ele>
        <time>2015-02-23T20:11:37.196Z</time>
      </trkpt>
      <trkpt lat="48.85182" lon="2.31178">
        <ele>86.1</ele>
        <time>2015-02-23T20:11:38.142Z</time>
      </trkpt>
      <trkpt lat="48.85177" lon="2.31178">
        <ele>86.2</ele>
        <time>2015-02-23T20:11:39.137Z</time>
      </trkpt>
      <trkpt lat="48.85168" lon="2.31179">
        <ele>86.5</ele>
        <time>2015-02-23T20:11:41.152Z</time>
      </trkpt>
      <trkpt lat="48.85163" lon="2.31179">
        <ele>86.6</ele>
        <time>2015-02-23T20:11:42.170Z</time>
      </trkpt>
      <trkpt lat="48.85154" lon="2.31179">
        <ele>86.8</ele>
        <time>2015-02-23T20:11:44.221Z</time>
      </trkpt>
      <trkpt lat="48.8515" lon="2.31178">
        <ele>86.9</ele>
        <time>2015-02-23T20:11:45.154Z</time>
      </trkpt>
      <trkpt lat="48.85145" lon="2.31178">
        <ele>87</ele>
        <time>2015-02-23T20:11:46.145Z</time>
      </trkpt>
      <trkpt lat="48.8514" lon="2.31178">
        <ele>86.9</ele>
        <time>2015-02-23T20:11:47.145Z</time>
      </trkpt>
      <trkpt lat="48.85135" lon="2.31178">
        <ele>86.8</ele>
        <time>2015-02-23T20:11:48.159Z</time>
      </trkpt>
      <trkpt lat="48.8513" lon="2.31178">
        <ele>86.8</ele>
        <time>2015-02-23T20:11:49.195Z</time>
      </trkpt>
      <trkpt lat="48.85125" lon="2.31178">
        <ele>86.7</ele>
        <time>2015-02-23T20:11:50.146Z</time>
      </trkpt>
      <trkpt lat="48.85121" lon="2.31177">
        <ele>86.7</ele>
        <time>2015-02-23T20:11:51.152Z</time>
      </trkpt>
      <trkpt lat="48.85116" lon="2.31176">
        <ele>86.7</ele>
        <time>2015-02-23T20:11:52.172Z</time>
      </trkpt>
      <trkpt lat="48.85111" lon="2.31174">
        <ele>86.6</ele>
        <time>2015-02-23T20:11:53.202Z</time>
      </trkpt>
      <trkpt lat="48.85107" lon="2.31173">
        <ele>86.7</ele>
        <time>2015-02-23T20:11:54.219Z</time>
      </trkpt>
      <trkpt lat="48.85102" lon="2.31172">
        <ele>86.7</ele>
        <time>2015-02-23T20:11:55.258Z</time>
      </trkpt>
      <trkpt lat="48.85098" lon="2.31171">
        <ele>86.7</ele>
        <time>2015-02-23T20:11:56.148Z</time>
      </trkpt>
      <trkpt lat="48.85093" lon="2.3117">
        <ele>86.8</ele>
        <time>2015-02-23T20:11:57.148Z</time>
      </trkpt>
      <trkpt lat="48.85088" lon="2.31171">
        <ele>87.1</ele>
        <time>2015-02-23T20:11:58.159Z</time>
      </trkpt>
      <trkpt lat="48.85083" lon="2.31173">
        <ele>87.1</ele>
        <time>2015-02-23T20:11:59.167Z</time>
      </trkpt>
      <trkpt lat="48.85079" lon="2.31175">
        <ele>87.2</ele>
        <time>2015-02-23T20:12:00.203Z</time>
      </trkpt>
      <trkpt lat="48.85075" lon="2.31178">
        <ele>87.2</ele>
        <time>2015-02-23T20:12:01.241Z</time>
      </trkpt>
      <trkpt lat="48.85071" lon="2.31182">
        <ele>87.3</ele>
        <time>2015-02-23T20:12:02.144Z</time>
      </trkpt>
      <trkpt lat="48.85066" lon="2.31187">
        <ele>87.6</ele>
        <time>2015-02-23T20:12:03.153Z</time>
      </trkpt>
      <trkpt lat="48.85063" lon="2.31192">
        <ele>87.4</ele>
        <time>2015-02-23T20:12:04.159Z</time>
      </trkpt>
      <trkpt lat="48.85059" lon="2.31197">
        <ele>87.4</ele>
        <time>2015-02-23T20:12:05.215Z</time>
      </trkpt>
      <trkpt lat="48.85055" lon="2.31201">
        <ele>87.4</ele>
        <time>2015-02-23T20:12:06.157Z</time>
      </trkpt>
      <trkpt lat="48.85052" lon="2.31206">
        <ele>87.4</ele>
        <time>2015-02-23T20:12:07.192Z</time>
      </trkpt>
      <trkpt lat="48.85046" lon="2.31214">
        <ele>87.3</ele>
        <time>2015-02-23T20:12:09.203Z</time>
      </trkpt>
      <trkpt lat="48.85043" lon="2.31218">
        <ele>87.3</ele>
        <time>2015-02-23T20:12:10.215Z</time>
      </trkpt>
      <trkpt lat="48.85036" lon="2.31226">
        <ele>87.3</ele>
        <time>2015-02-23T20:12:12.162Z</time>
      </trkpt>
      <trkpt lat="48.85033" lon="2.3123">
        <ele>87.2</ele>
        <time>2015-02-23T20:12:13.187Z</time>
      </trkpt>
      <trkpt lat="48.85027" lon="2.31237">
        <ele>87.1</ele>
        <time>2015-02-23T20:12:15.235Z</time>
      </trkpt>
      <trkpt lat="48.85024" lon="2.31242">
        <ele>86.9</ele>
        <time>2015-02-23T20:12:16.199Z</time>
      </trkpt>
      <trkpt lat="48.85018" lon="2.3125">
        <ele>86.8</ele>
        <time>2015-02-23T20:12:18.142Z</time>
      </trkpt>
      <trkpt lat="48.85016" lon="2.31254">
        <ele>86.7</ele>
        <time>2015-02-23T20:12:19.198Z</time>
      </trkpt>
      <trkpt lat="48.85012" lon="2.31262">
        <ele>86.2</ele>
        <time>2015-02-23T20:12:21.155Z</time>
      </trkpt>
      <trkpt lat="48.85009" lon="2.31265">
        <ele>86.2</ele>
        <time>2015-02-23T20:12:22.182Z</time>
      </trkpt>
      <trkpt lat="48.85003" lon="2.31271">
        <ele>86.4</ele>
        <time>2015-02-23T20:12:24.197Z</time>
      </trkpt>
      <trkpt lat="48.84999" lon="2.31273">
        <ele>86.8</ele>
        <time>2015-02-23T20:12:25.240Z</time>
      </trkpt>
      <trkpt lat="48.84992" lon="2.31276">
        <ele>87.1</ele>
        <time>2015-02-23T20:12:27.150Z</time>
      </trkpt>
      <trkpt lat="48.84989" lon="2.31278">
        <ele>87.1</ele>
        <time>2015-02-23T20:12:28.275Z</time>
      </trkpt>
      <trkpt lat="48.84983" lon="2.31284">
        <ele>87.9</ele>
        <time>2015-02-23T20:12:31.249Z</time>
      </trkpt>
      <trkpt lat="48.8498" lon="2.31287">
        <ele>88.1</ele>
        <time>2015-02-23T20:12:32.258Z</time>
      </trkpt>
      <trkpt lat="48.84974" lon="2.31295">
        <ele>88.1</ele>
        <time>2015-02-23T20:12:34.148Z</time>
      </trkpt>
      <trkpt lat="48.84971" lon="2.31299">
        <ele>88.1</ele>
        <time>2015-02-23T20:12:35.188Z</time>
      </trkpt>
      <trkpt lat="48.84968" lon="2.31305">
        <ele>87.9</ele>
        <time>2015-02-23T20:12:36.149Z</time>
      </trkpt>
      <trkpt lat="48.84964" lon="2.31311">
        <ele>87.7</ele>
        <time>2015-02-23T20:12:37.160Z</time>
      </trkpt>
      <trkpt lat="48.84961" lon="2.31317">
        <ele>87.7</ele>
        <time>2015-02-23T20:12:38.177Z</time>
      </trkpt>
      <trkpt lat="48.84958" lon="2.31323">
        <ele>87.6</ele>
        <time>2015-02-23T20:12:39.271Z</time>
      </trkpt>
      <trkpt lat="48.84953" lon="2.31333">
        <ele>87.8</ele>
        <time>2015-02-23T20:12:41.751Z</time>
      </trkpt>
      <trkpt lat="48.84949" lon="2.31338">
        <ele>88</ele>
        <time>2015-02-23T20:12:42.161Z</time>
      </trkpt>
      <trkpt lat="48.84946" lon="2.31342">
        <ele>88.3</ele>
        <time>2015-02-23T20:12:43.169Z</time>
      </trkpt>
      <trkpt lat="48.84943" lon="2.31347">
        <ele>88.6</ele>
        <time>2015-02-23T20:12:44.206Z</time>
      </trkpt>
      <trkpt lat="48.84936" lon="2.31355">
        <ele>89.2</ele>
        <time>2015-02-23T20:12:46.141Z</time>
      </trkpt>
      <trkpt lat="48.84933" lon="2.31362">
        <ele>89.3</ele>
        <time>2015-02-23T20:12:47.157Z</time>
      </trkpt>
      <trkpt lat="48.8493" lon="2.31369">
        <ele>89.5</ele>
        <time>2015-02-23T20:12:48.182Z</time>
      </trkpt>
      <trkpt lat="48.84927" lon="2.31373">
        <ele>89.9</ele>
        <time>2015-02-23T20:12:49.188Z</time>
      </trkpt>
      <trkpt lat="48.84918" lon="2.31376">
        <ele>90.7</ele>
        <time>2015-02-23T20:12:51.202Z</time>
      </trkpt>
      <trkpt lat="48.84914" lon="2.31376">
        <ele>91.3</ele>
        <time>2015-02-23T20:12:52.242Z</time>
      </trkpt>
      <trkpt lat="48.84906" lon="2.31377">
        <ele>92.1</ele>
        <time>2015-02-23T20:12:54.158Z</time>
      </trkpt>
      <trkpt lat="48.84902" lon="2.31379">
        <ele>92.6</ele>
        <time>2015-02-23T20:12:55.220Z</time>
      </trkpt>
      <trkpt lat="48.84897" lon="2.31381">
        <ele>93.1</ele>
        <time>2015-02-23T20:12:56.220Z</time>
      </trkpt>
      <trkpt lat="48.84891" lon="2.31386">
        <ele>93.1</ele>
        <time>2015-02-23T20:12:57.156Z</time>
      </trkpt>
      <trkpt lat="48.84885" lon="2.31392">
        <ele>93.2</ele>
        <time>2015-02-23T20:12:58.253Z</time>
      </trkpt>
      <trkpt lat="48.84878" lon="2.31397">
        <ele>93.5</ele>
        <time>2015-02-23T20:12:59.153Z</time>
      </trkpt>
      <trkpt lat="48.84874" lon="2.314">
        <ele>93.8</ele>
        <time>2015-02-23T20:13:00.159Z</time>
      </trkpt>
      <trkpt lat="48.8487" lon="2.31403">
        <ele>93.9</ele>
        <time>2015-02-23T20:13:01.248Z</time>
      </trkpt>
      <trkpt lat="48.84865" lon="2.31406">
        <ele>94</ele>
        <time>2015-02-23T20:13:02.153Z</time>
      </trkpt>
      <trkpt lat="48.84861" lon="2.31408">
        <ele>94.2</ele>
        <time>2015-02-23T20:13:03.151Z</time>
      </trkpt>
      <trkpt lat="48.84857" lon="2.31411">
        <ele>94.3</ele>
        <time>2015-02-23T20:13:04.171Z</time>
      </trkpt>
      <trkpt lat="48.84852" lon="2.31413">
        <ele>94.7</ele>
        <time>2015-02-23T20:13:05.207Z</time>
      </trkpt>
      <trkpt lat="48.84847" lon="2.31414">
        <ele>95.4</ele>
        <time>2015-02-23T20:13:06.156Z</time>
      </trkpt>
      <trkpt lat="48.84842" lon="2.31417">
        <ele>95.8</ele>
        <time>2015-02-23T20:13:07.200Z</time>
      </trkpt>
      <trkpt lat="48.84835" lon="2.31421">
        <ele>96</ele>
        <time>2015-02-23T20:13:09.216Z</time>
      </trkpt>
      <trkpt lat="48.84831" lon="2.31423">
        <ele>96.2</ele>
        <time>2015-02-23T20:13:10.245Z</time>
      </trkpt>
      <trkpt lat="48.84824" lon="2.31427">
        <ele>96.2</ele>
        <time>2015-02-23T20:13:12.144Z</time>
      </trkpt>
      <trkpt lat="48.8482" lon="2.31429">
        <ele>96.3</ele>
        <time>2015-02-23T20:13:13.190Z</time>
      </trkpt>
      <trkpt lat="48.84812" lon="2.31436">
        <ele>97.3</ele>
        <time>2015-02-23T20:13:15.200Z</time>
      </trkpt>
      <trkpt lat="48.84809" lon="2.31439">
        <ele>98.1</ele>
        <time>2015-02-23T20:13:16.204Z</time>
      </trkpt>
      <trkpt lat="48.84802" lon="2.31445">
        <ele>99.4</ele>
        <time>2015-02-23T20:13:18.143Z</time>
      </trkpt>
      <trkpt lat="48.84799" lon="2.31448">
        <ele>99.7</ele>
        <time>2015-02-23T20:13:19.194Z</time>
      </trkpt>
      <trkpt lat="48.84792" lon="2.31455">
        <ele>100.3</ele>
        <time>2015-02-23T20:13:22.213Z</time>
      </trkpt>
      <trkpt lat="48.84789" lon="2.31457">
        <ele>100.3</ele>
        <time>2015-02-23T20:13:23.153Z</time>
      </trkpt>
      <trkpt lat="48.84782" lon="2.31461">
        <ele>100.5</ele>
        <time>2015-02-23T20:13:26.306Z</time>
      </trkpt>
      <trkpt lat="48.8478" lon="2.31462">
        <ele>100.5</ele>
        <time>2015-02-23T20:13:27.154Z</time>
      </trkpt>
      <trkpt lat="48.84774" lon="2.31466">
        <ele>100.4</ele>
        <time>2015-02-23T20:13:29.189Z</time>
      </trkpt>
      <trkpt lat="48.84771" lon="2.31468">
        <ele>100.3</ele>
        <time>2015-02-23T20:13:30.219Z</time>
      </trkpt>
      <trkpt lat="48.84764" lon="2.31473">
        <ele>100.1</ele>
        <time>2015-02-23T20:13:32.138Z</time>
      </trkpt>
      <trkpt lat="48.84761" lon="2.31475">
        <ele>99.9</ele>
        <time>2015-02-23T20:13:33.160Z</time>
      </trkpt>
      <trkpt lat="48.84755" lon="2.31479">
        <ele>99.8</ele>
        <time>2015-02-23T20:13:35.192Z</time>
      </trkpt>
      <trkpt lat="48.84751" lon="2.31481">
        <ele>99.8</ele>
        <time>2015-02-23T20:13:36.199Z</time>
      </trkpt>
      <trkpt lat="48.84744" lon="2.31484">
        <ele>99.5</ele>
        <time>2015-02-23T20:13:38.143Z</time>
      </trkpt>
      <trkpt lat="48.84741" lon="2.31485">
        <ele>99.7</ele>
        <time>2015-02-23T20:13:39.153Z</time>
      </trkpt>
      <trkpt lat="48.84733" lon="2.31488">
        <ele>99.7</ele>
        <time>2015-02-23T20:13:41.163Z</time>
      </trkpt>
      <trkpt lat="48.8473" lon="2.31491">
        <ele>99.8</ele>
        <time>2015-02-23T20:13:42.169Z</time>
      </trkpt>
      <trkpt lat="48.84722" lon="2.31496">
        <ele>99.5</ele>
        <time>2015-02-23T20:13:44.199Z</time>
      </trkpt>
      <trkpt lat="48.84719" lon="2.31498">
        <ele>99.4</ele>
        <time>2015-02-23T20:13:45.210Z</time>
      </trkpt>
      <trkpt lat="48.84711" lon="2.31503">
        <ele>99.7</ele>
        <time>2015-02-23T20:13:47.142Z</time>
      </trkpt>
      <trkpt lat="48.84707" lon="2.31505">
        <ele>99.5</ele>
        <time>2015-02-23T20:13:48.154Z</time>
      </trkpt>
      <trkpt lat="48.84699" lon="2.31508">
        <ele>99.2</ele>
        <time>2015-02-23T20:13:50.145Z</time>
      </trkpt>
      <trkpt lat="48.84695" lon="2.3151">
        <ele>99.1</ele>
        <time>2015-02-23T20:13:51.160Z</time>
      </trkpt>
      <trkpt lat="48.84689" lon="2.31513">
        <ele>98.7</ele>
        <time>2015-02-23T20:13:53.239Z</time>
      </trkpt>
      <trkpt lat="48.84685" lon="2.31514">
        <ele>98.8</ele>
        <time>2015-02-23T20:13:54.266Z</time>
      </trkpt>
      <trkpt lat="48.84679" lon="2.31517">
        <ele>98.7</ele>
        <time>2015-02-23T20:13:56.188Z</time>
      </trkpt>
      <trkpt lat="48.84676" lon="2.31518">
        <ele>99.1</ele>
        <time>2015-02-23T20:13:57.208Z</time>
      </trkpt>
      <trkpt lat="48.8467" lon="2.31521">
        <ele>99.6</ele>
        <time>2015-02-23T20:13:59.174Z</time>
      </trkpt>
      <trkpt lat="48.84666" lon="2.31523">
        <ele>100.1</ele>
        <time>2015-02-23T20:14:00.174Z</time>
      </trkpt>
      <trkpt lat="48.84657" lon="2.31526">
        <ele>102.4</ele>
        <time>2015-02-23T20:14:02.121Z</time>
      </trkpt>
      <trkpt lat="48.84654" lon="2.31528">
        <ele>102.9</ele>
        <time>2015-02-23T20:14:03.153Z</time>
      </trkpt>
      <trkpt lat="48.84649" lon="2.31538">
        <ele>104.6</ele>
        <time>2015-02-23T20:14:07.183Z</time>
      </trkpt>
      <trkpt lat="48.84648" lon="2.31536">
        <ele>104.5</ele>
        <time>2015-02-23T20:14:08.129Z</time>
      </trkpt>
      <trkpt lat="48.84647" lon="2.31536">
        <ele>104.3</ele>
        <time>2015-02-23T20:14:23.170Z</time>
      </trkpt>
      <trkpt lat="48.84644" lon="2.3154">
        <ele>104.2</ele>
        <time>2015-02-23T20:14:24.198Z</time>
      </trkpt>
      <trkpt lat="48.8464" lon="2.31529">
        <ele>104.3</ele>
        <time>2015-02-23T20:14:28.188Z</time>
      </trkpt>
      <trkpt lat="48.84638" lon="2.31525">
        <ele>104.2</ele>
        <time>2015-02-23T20:14:29.195Z</time>
      </trkpt>
      <trkpt lat="48.84635" lon="2.31517">
        <ele>104.3</ele>
        <time>2015-02-23T20:14:31.191Z</time>
      </trkpt>
      <trkpt lat="48.84633" lon="2.31512">
        <ele>104.1</ele>
        <time>2015-02-23T20:14:32.195Z</time>
      </trkpt>
      <trkpt lat="48.84631" lon="2.31503">
        <ele>103.6</ele>
        <time>2015-02-23T20:14:34.209Z</time>
      </trkpt>
      <trkpt lat="48.8463" lon="2.31498">
        <ele>103.5</ele>
        <time>2015-02-23T20:14:35.193Z</time>
      </trkpt>
      <trkpt lat="48.84627" lon="2.31487">
        <ele>103.3</ele>
        <time>2015-02-23T20:14:37.264Z</time>
      </trkpt>
      <trkpt lat="48.84626" lon="2.31481">
        <ele>103.2</ele>
        <time>2015-02-23T20:14:38.155Z</time>
      </trkpt>
      <trkpt lat="48.84623" lon="2.3147">
        <ele>103</ele>
        <time>2015-02-23T20:14:40.196Z</time>
      </trkpt>
      <trkpt lat="48.84622" lon="2.31463">
        <ele>103</ele>
        <time>2015-02-23T20:14:41.205Z</time>
      </trkpt>
      <trkpt lat="48.8462" lon="2.3145">
        <ele>102.9</ele>
        <time>2015-02-23T20:14:43.253Z</time>
      </trkpt>
      <trkpt lat="48.84618" lon="2.31445">
        <ele>102.8</ele>
        <time>2015-02-23T20:14:44.151Z</time>
      </trkpt>
      <trkpt lat="48.84615" lon="2.31434">
        <ele>102.8</ele>
        <time>2015-02-23T20:14:46.212Z</time>
      </trkpt>
      <trkpt lat="48.84614" lon="2.31429">
        <ele>102.7</ele>
        <time>2015-02-23T20:14:47.217Z</time>
      </trkpt>
      <trkpt lat="48.84611" lon="2.3142">
        <ele>102.5</ele>
        <time>2015-02-23T20:14:49.177Z</time>
      </trkpt>
      <trkpt lat="48.8461" lon="2.31415">
        <ele>102.4</ele>
        <time>2015-02-23T20:14:50.178Z</time>
      </trkpt>
      <trkpt lat="48.84607" lon="2.31406">
        <ele>102.2</ele>
        <time>2015-02-23T20:14:52.135Z</time>
      </trkpt>
      <trkpt lat="48.84607" lon="2.31402">
        <ele>102.2</ele>
        <time>2015-02-23T20:14:53.243Z</time>
      </trkpt>
      <trkpt lat="48.84604" lon="2.31392">
        <ele>101.8</ele>
        <time>2015-02-23T20:14:55.178Z</time>
      </trkpt>
      <trkpt lat="48.84603" lon="2.31387">
        <ele>101.5</ele>
        <time>2015-02-23T20:14:56.234Z</time>
      </trkpt>
      <trkpt lat="48.846" lon="2.31377">
        <ele>101.3</ele>
        <time>2015-02-23T20:14:58.144Z</time>
      </trkpt>
      <trkpt lat="48.84597" lon="2.31373">
        <ele>101.6</ele>
        <time>2015-02-23T20:14:59.186Z</time>
      </trkpt>
      <trkpt lat="48.84592" lon="2.31366">
        <ele>102.1</ele>
        <time>2015-02-23T20:15:01.185Z</time>
      </trkpt>
      <trkpt lat="48.84589" lon="2.31363">
        <ele>102.3</ele>
        <time>2015-02-23T20:15:02.263Z</time>
      </trkpt>
      <trkpt lat="48.84583" lon="2.31354">
        <ele>102.8</ele>
        <time>2015-02-23T20:15:04.135Z</time>
      </trkpt>
      <trkpt lat="48.84581" lon="2.31348">
        <ele>102.9</ele>
        <time>2015-02-23T20:15:05.201Z</time>
      </trkpt>
      <trkpt lat="48.84577" lon="2.31336">
        <ele>103.1</ele>
        <time>2015-02-23T20:15:07.179Z</time>
      </trkpt>
      <trkpt lat="48.84575" lon="2.31329">
        <ele>103.1</ele>
        <time>2015-02-23T20:15:08.191Z</time>
      </trkpt>
      <trkpt lat="48.84573" lon="2.31322">
        <ele>103.1</ele>
        <time>2015-02-23T20:15:09.217Z</time>
      </trkpt>
      <trkpt lat="48.84572" lon="2.31316">
        <ele>103.1</ele>
        <time>2015-02-23T20:15:10.221Z</time>
      </trkpt>
      <trkpt lat="48.84569" lon="2.31304">
        <ele>103.2</ele>
        <time>2015-02-23T20:15:12.271Z</time>
      </trkpt>
      <trkpt lat="48.84567" lon="2.31297">
        <ele>103.3</ele>
        <time>2015-02-23T20:15:13.185Z</time>
      </trkpt>
      <trkpt lat="48.84564" lon="2.31285">
        <ele>103.6</ele>
        <time>2015-02-23T20:15:15.140Z</time>
      </trkpt>
      <trkpt lat="48.84563" lon="2.31279">
        <ele>103.7</ele>
        <time>2015-02-23T20:15:16.151Z</time>
      </trkpt>
      <trkpt lat="48.84561" lon="2.31268">
        <ele>103.5</ele>
        <time>2015-02-23T20:15:18.178Z</time>
      </trkpt>
      <trkpt lat="48.84559" lon="2.31263">
        <ele>103.2</ele>
        <time>2015-02-23T20:15:19.201Z</time>
      </trkpt>
      <trkpt lat="48.84557" lon="2.31253">
        <ele>103</ele>
        <time>2015-02-23T20:15:21.115Z</time>
      </trkpt>
      <trkpt lat="48.84555" lon="2.31249">
        <ele>103</ele>
        <time>2015-02-23T20:15:22.152Z</time>
      </trkpt>
      <trkpt lat="48.84552" lon="2.31239">
        <ele>102.8</ele>
        <time>2015-02-23T20:15:24.221Z</time>
      </trkpt>
      <trkpt lat="48.8455" lon="2.31233">
        <ele>102.9</ele>
        <time>2015-02-23T20:15:25.241Z</time>
      </trkpt>
      <trkpt lat="48.84546" lon="2.31224">
        <ele>103.3</ele>
        <time>2015-02-23T20:15:27.148Z</time>
      </trkpt>
      <trkpt lat="48.84544" lon="2.31219">
        <ele>103.4</ele>
        <time>2015-02-23T20:15:28.169Z</time>
      </trkpt>
      <trkpt lat="48.84541" lon="2.31209">
        <ele>103.4</ele>
        <time>2015-02-23T20:15:30.210Z</time>
      </trkpt>
      <trkpt lat="48.8454" lon="2.31204">
        <ele>103</ele>
        <time>2015-02-23T20:15:31.221Z</time>
      </trkpt>
      <trkpt lat="48.84538" lon="2.31194">
        <ele>102.8</ele>
        <time>2015-02-23T20:15:33.141Z</time>
      </trkpt>
      <trkpt lat="48.84538" lon="2.31189">
        <ele>102.2</ele>
        <time>2015-02-23T20:15:34.161Z</time>
      </trkpt>
      <trkpt lat="48.84537" lon="2.31179">
        <ele>101.2</ele>
        <time>2015-02-23T20:15:36.238Z</time>
      </trkpt>
      <trkpt lat="48.84536" lon="2.31174">
        <ele>101.2</ele>
        <time>2015-02-23T20:15:37.251Z</time>
      </trkpt>
      <trkpt lat="48.84534" lon="2.31163">
        <ele>100.5</ele>
        <time>2015-02-23T20:15:40.148Z</time>
      </trkpt>
      <trkpt lat="48.84533" lon="2.31159">
        <ele>100.1</ele>
        <time>2015-02-23T20:15:41.166Z</time>
      </trkpt>
      <trkpt lat="48.84531" lon="2.31146">
        <ele>99.1</ele>
        <time>2015-02-23T20:15:45.137Z</time>
      </trkpt>
      <trkpt lat="48.84531" lon="2.31142">
        <ele>99.2</ele>
        <time>2015-02-23T20:15:46.146Z</time>
      </trkpt>
      <trkpt lat="48.84527" lon="2.3113">
        <ele>98.9</ele>
        <time>2015-02-23T20:15:49.162Z</time>
      </trkpt>
      <trkpt lat="48.84526" lon="2.31126">
        <ele>98.6</ele>
        <time>2015-02-23T20:15:50.181Z</time>
      </trkpt>
      <trkpt lat="48.84522" lon="2.31114">
        <ele>98.4</ele>
        <time>2015-02-23T20:15:53.240Z</time>
      </trkpt>
      <trkpt lat="48.84521" lon="2.3111">
        <ele>98</ele>
        <time>2015-02-23T20:15:54.152Z</time>
      </trkpt>
      <trkpt lat="48.84516" lon="2.311">
        <ele>96.4</ele>
        <time>2015-02-23T20:16:02.214Z</time>
      </trkpt>
      <trkpt lat="48.84515" lon="2.31099">
        <ele>96</ele>
        <time>2015-02-23T20:16:03.433Z</time>
      </trkpt>
      <trkpt lat="48.8451" lon="2.31088">
        <ele>94.3</ele>
        <time>2015-02-23T20:16:12.192Z</time>
      </trkpt>
      <trkpt lat="48.8451" lon="2.31086">
        <ele>94.2</ele>
        <time>2015-02-23T20:16:13.196Z</time>
      </trkpt>
      <trkpt lat="48.84508" lon="2.31074">
        <ele>92.9</ele>
        <time>2015-02-23T20:16:19.191Z</time>
      </trkpt>
      <trkpt lat="48.84506" lon="2.31073">
        <ele>92.2</ele>
        <time>2015-02-23T20:16:20.213Z</time>
      </trkpt>
      <trkpt lat="48.845" lon="2.31063">
        <ele>92.7</ele>
        <time>2015-02-23T20:16:24.203Z</time>
      </trkpt>
      <trkpt lat="48.84498" lon="2.3106">
        <ele>92.7</ele>
        <time>2015-02-23T20:16:25.259Z</time>
      </trkpt>
      <trkpt lat="48.84494" lon="2.31049">
        <ele>92</ele>
        <time>2015-02-23T20:16:28.153Z</time>
      </trkpt>
      <trkpt lat="48.84492" lon="2.31043">
        <ele>91.7</ele>
        <time>2015-02-23T20:16:29.166Z</time>
      </trkpt>
      <trkpt lat="48.8449" lon="2.31033">
        <ele>91.5</ele>
        <time>2015-02-23T20:16:31.201Z</time>
      </trkpt>
      <trkpt lat="48.84489" lon="2.31028">
        <ele>91.4</ele>
        <time>2015-02-23T20:16:32.282Z</time>
      </trkpt>
      <trkpt lat="48.84486" lon="2.3102">
        <ele>91.8</ele>
        <time>2015-02-23T20:16:34.141Z</time>
      </trkpt>
      <trkpt lat="48.84484" lon="2.31015">
        <ele>91.8</ele>
        <time>2015-02-23T20:16:35.152Z</time>
      </trkpt>
      <trkpt lat="48.84482" lon="2.31006">
        <ele>91.6</ele>
        <time>2015-02-23T20:16:37.270Z</time>
      </trkpt>
      <trkpt lat="48.8448" lon="2.31001">
        <ele>91.5</ele>
        <time>2015-02-23T20:16:38.152Z</time>
      </trkpt>
      <trkpt lat="48.84477" lon="2.30992">
        <ele>91</ele>
        <time>2015-02-23T20:16:40.233Z</time>
      </trkpt>
      <trkpt lat="48.84476" lon="2.30987">
        <ele>90.9</ele>
        <time>2015-02-23T20:16:41.296Z</time>
      </trkpt>
      <trkpt lat="48.84473" lon="2.30978">
        <ele>90.7</ele>
        <time>2015-02-23T20:16:43.171Z</time>
      </trkpt>
      <trkpt lat="48.84471" lon="2.30973">
        <ele>90.7</ele>
        <time>2015-02-23T20:16:44.178Z</time>
      </trkpt>
      <trkpt lat="48.84469" lon="2.30963">
        <ele>90.6</ele>
        <time>2015-02-23T20:16:46.132Z</time>
      </trkpt>
      <trkpt lat="48.84468" lon="2.30958">
        <ele>90.6</ele>
        <time>2015-02-23T20:16:47.145Z</time>
      </trkpt>
      <trkpt lat="48.84465" lon="2.30948">
        <ele>90.6</ele>
        <time>2015-02-23T20:16:49.275Z</time>
      </trkpt>
      <trkpt lat="48.84464" lon="2.30943">
        <ele>90.9</ele>
        <time>2015-02-23T20:16:50.171Z</time>
      </trkpt>
      <trkpt lat="48.84461" lon="2.30933">
        <ele>91</ele>
        <time>2015-02-23T20:16:52.215Z</time>
      </trkpt>
      <trkpt lat="48.84459" lon="2.30928">
        <ele>91</ele>
        <time>2015-02-23T20:16:53.276Z</time>
      </trkpt>
      <trkpt lat="48.84453" lon="2.3092">
        <ele>91.1</ele>
        <time>2015-02-23T20:16:56.181Z</time>
      </trkpt>
      <trkpt lat="48.84452" lon="2.30918">
        <ele>91.2</ele>
        <time>2015-02-23T20:16:57.192Z</time>
      </trkpt>
      <trkpt lat="48.84446" lon="2.30924">
        <ele>91.3</ele>
        <time>2015-02-23T20:17:02.139Z</time>
      </trkpt>
      <trkpt lat="48.84444" lon="2.30926">
        <ele>91.3</ele>
        <time>2015-02-23T20:17:03.171Z</time>
      </trkpt>
      <trkpt lat="48.84436" lon="2.30929">
        <ele>91</ele>
        <time>2015-02-23T20:17:07.185Z</time>
      </trkpt>
      <trkpt lat="48.84433" lon="2.30931">
        <ele>90.9</ele>
        <time>2015-02-23T20:17:08.180Z</time>
      </trkpt>
      <trkpt lat="48.84428" lon="2.30935">
        <ele>90.6</ele>
        <time>2015-02-23T20:17:10.194Z</time>
      </trkpt>
      <trkpt lat="48.84425" lon="2.30937">
        <ele>90.4</ele>
        <time>2015-02-23T20:17:11.195Z</time>
      </trkpt>
      <trkpt lat="48.84418" lon="2.30943">
        <ele>89.7</ele>
        <time>2015-02-23T20:17:13.168Z</time>
      </trkpt>
      <trkpt lat="48.84415" lon="2.30945">
        <ele>89.5</ele>
        <time>2015-02-23T20:17:14.167Z</time>
      </trkpt>
      <trkpt lat="48.84409" lon="2.3095">
        <ele>89</ele>
        <time>2015-02-23T20:17:16.141Z</time>
      </trkpt>
      <trkpt lat="48.84406" lon="2.30953">
        <ele>88.7</ele>
        <time>2015-02-23T20:17:17.276Z</time>
      </trkpt>
      <trkpt lat="48.84399" lon="2.3096">
        <ele>88.3</ele>
        <time>2015-02-23T20:17:19.212Z</time>
      </trkpt>
      <trkpt lat="48.84394" lon="2.30961">
        <ele>88.4</ele>
        <time>2015-02-23T20:17:20.261Z</time>
      </trkpt>
      <trkpt lat="48.84387" lon="2.30963">
        <ele>88.6</ele>
        <time>2015-02-23T20:17:22.195Z</time>
      </trkpt>
      <trkpt lat="48.84384" lon="2.30964">
        <ele>88.8</ele>
        <time>2015-02-23T20:17:23.194Z</time>
      </trkpt>
      <trkpt lat="48.84377" lon="2.30967">
        <ele>89</ele>
        <time>2015-02-23T20:17:25.214Z</time>
      </trkpt>
      <trkpt lat="48.84374" lon="2.30969">
        <ele>89</ele>
        <time>2015-02-23T20:17:26.241Z</time>
      </trkpt>
      <trkpt lat="48.84367" lon="2.30972">
        <ele>89.4</ele>
        <time>2015-02-23T20:17:28.140Z</time>
      </trkpt>
      <trkpt lat="48.84364" lon="2.30973">
        <ele>89.7</ele>
        <time>2015-02-23T20:17:29.172Z</time>
      </trkpt>
      <trkpt lat="48.84358" lon="2.30975">
        <ele>90</ele>
        <time>2015-02-23T20:17:31.203Z</time>
      </trkpt>
      <trkpt lat="48.84355" lon="2.30977">
        <ele>90</ele>
        <time>2015-02-23T20:17:32.212Z</time>
      </trkpt>
      <trkpt lat="48.84347" lon="2.30983">
        <ele>90.4</ele>
        <time>2015-02-23T20:17:35.184Z</time>
      </trkpt>
      <trkpt lat="48.84344" lon="2.30985">
        <ele>90.5</ele>
        <time>2015-02-23T20:17:36.225Z</time>
      </trkpt>
      <trkpt lat="48.84338" lon="2.3099">
        <ele>90.7</ele>
        <time>2015-02-23T20:17:38.133Z</time>
      </trkpt>
      <trkpt lat="48.84335" lon="2.30993">
        <ele>90.9</ele>
        <time>2015-02-23T20:17:39.268Z</time>
      </trkpt>
      <trkpt lat="48.84329" lon="2.30999">
        <ele>91</ele>
        <time>2015-02-23T20:17:41.140Z</time>
      </trkpt>
      <trkpt lat="48.84327" lon="2.31001">
        <ele>91.1</ele>
        <time>2015-02-23T20:17:42.268Z</time>
      </trkpt>
      <trkpt lat="48.84322" lon="2.31006">
        <ele>91.4</ele>
        <time>2015-02-23T20:17:44.233Z</time>
      </trkpt>
      <trkpt lat="48.84319" lon="2.31008">
        <ele>91.3</ele>
        <time>2015-02-23T20:17:45.121Z</time>
      </trkpt>
      <trkpt lat="48.84313" lon="2.31011">
        <ele>91.4</ele>
        <time>2015-02-23T20:17:47.968Z</time>
      </trkpt>
      <trkpt lat="48.8431" lon="2.31013">
        <ele>91.5</ele>
        <time>2015-02-23T20:17:48.145Z</time>
      </trkpt>
      <trkpt lat="48.84304" lon="2.31018">
        <ele>91.8</ele>
        <time>2015-02-23T20:17:51.144Z</time>
      </trkpt>
      <trkpt lat="48.84301" lon="2.3102">
        <ele>91.9</ele>
        <time>2015-02-23T20:17:52.204Z</time>
      </trkpt>
      <trkpt lat="48.84295" lon="2.31023">
        <ele>91.9</ele>
        <time>2015-02-23T20:17:54.218Z</time>
      </trkpt>
      <trkpt lat="48.84292" lon="2.31024">
        <ele>91.9</ele>
        <time>2015-02-23T20:17:55.228Z</time>
      </trkpt>
      <trkpt lat="48.84285" lon="2.31027">
        <ele>92</ele>
        <time>2015-02-23T20:17:57.238Z</time>
      </trkpt>
      <trkpt lat="48.84282" lon="2.3103">
        <ele>92.1</ele>
        <time>2015-02-23T20:17:58.106Z</time>
      </trkpt>
      <trkpt lat="48.84275" lon="2.31037">
        <ele>92.4</ele>
        <time>2015-02-23T20:18:00.141Z</time>
      </trkpt>
      <trkpt lat="48.84272" lon="2.31039">
        <ele>92.5</ele>
        <time>2015-02-23T20:18:01.163Z</time>
      </trkpt>
      <trkpt lat="48.84268" lon="2.31042">
        <ele>92.7</ele>
        <time>2015-02-23T20:18:02.178Z</time>
      </trkpt>
      <trkpt lat="48.84264" lon="2.31047">
        <ele>94</ele>
        <time>2015-02-23T20:18:03.241Z</time>
      </trkpt>
      <trkpt lat="48.8426" lon="2.31052">
        <ele>95.4</ele>
        <time>2015-02-23T20:18:04.138Z</time>
      </trkpt>
      <trkpt lat="48.84255" lon="2.31056">
        <ele>97</ele>
        <time>2015-02-23T20:18:05.144Z</time>
      </trkpt>
      <trkpt lat="48.84249" lon="2.31059">
        <ele>98.6</ele>
        <time>2015-02-23T20:18:06.157Z</time>
      </trkpt>
      <trkpt lat="48.84245" lon="2.31061">
        <ele>99.8</ele>
        <time>2015-02-23T20:18:07.164Z</time>
      </trkpt>
      <trkpt lat="48.84239" lon="2.3106">
        <ele>101.5</ele>
        <time>2015-02-23T20:18:11.166Z</time>
      </trkpt>
      <trkpt lat="48.8424" lon="2.31059">
        <ele>101.6</ele>
        <time>2015-02-23T20:18:12.161Z</time>
      </trkpt>
      <trkpt lat="48.8424" lon="2.31059">
        <ele>101.6</ele>
        <time>2015-02-23T20:18:37.230Z</time>
      </trkpt>
      <trkpt lat="48.84235" lon="2.31063">
        <ele>104.2</ele>
        <time>2015-02-23T20:18:38.128Z</time>
      </trkpt>
      <trkpt lat="48.84228" lon="2.31059">
        <ele>104.5</ele>
        <time>2015-02-23T20:18:41.849Z</time>
      </trkpt>
      <trkpt lat="48.84226" lon="2.31056">
        <ele>104.4</ele>
        <time>2015-02-23T20:18:42.158Z</time>
      </trkpt>
      <trkpt lat="48.84221" lon="2.3105">
        <ele>104.5</ele>
        <time>2015-02-23T20:18:45.205Z</time>
      </trkpt>
      <trkpt lat="48.8422" lon="2.31046">
        <ele>104.5</ele>
        <time>2015-02-23T20:18:46.218Z</time>
      </trkpt>
      <trkpt lat="48.84217" lon="2.3104">
        <ele>104.3</ele>
        <time>2015-02-23T20:18:48.125Z</time>
      </trkpt>
      <trkpt lat="48.84215" lon="2.31035">
        <ele>103.9</ele>
        <time>2015-02-23T20:18:49.204Z</time>
      </trkpt>
      <trkpt lat="48.84212" lon="2.31025">
        <ele>103.5</ele>
        <time>2015-02-23T20:18:52.062Z</time>
      </trkpt>
      <trkpt lat="48.8421" lon="2.3102">
        <ele>103.2</ele>
        <time>2015-02-23T20:18:52.112Z</time>
      </trkpt>
      <trkpt lat="48.84208" lon="2.31009">
        <ele>102.9</ele>
        <time>2015-02-23T20:18:54.115Z</time>
      </trkpt>
      <trkpt lat="48.84206" lon="2.31005">
        <ele>102.8</ele>
        <time>2015-02-23T20:18:55.153Z</time>
      </trkpt>
      <trkpt lat="48.84204" lon="2.30994">
        <ele>102.3</ele>
        <time>2015-02-23T20:18:57.165Z</time>
      </trkpt>
      <trkpt lat="48.84203" lon="2.30988">
        <ele>102.3</ele>
        <time>2015-02-23T20:18:58.184Z</time>
      </trkpt>
      <trkpt lat="48.84201" lon="2.30977">
        <ele>102</ele>
        <time>2015-02-23T20:19:00.163Z</time>
      </trkpt>
      <trkpt lat="48.842" lon="2.30972">
        <ele>101.7</ele>
        <time>2015-02-23T20:19:01.209Z</time>
      </trkpt>
      <trkpt lat="48.84198" lon="2.30961">
        <ele>101.4</ele>
        <time>2015-02-23T20:19:03.135Z</time>
      </trkpt>
      <trkpt lat="48.84197" lon="2.30955">
        <ele>101.3</ele>
        <time>2015-02-23T20:19:04.140Z</time>
      </trkpt>
      <trkpt lat="48.84195" lon="2.30945">
        <ele>101.4</ele>
        <time>2015-02-23T20:19:06.166Z</time>
      </trkpt>
      <trkpt lat="48.84194" lon="2.3094">
        <ele>101.5</ele>
        <time>2015-02-23T20:19:07.207Z</time>
      </trkpt>
      <trkpt lat="48.84193" lon="2.30929">
        <ele>101.7</ele>
        <time>2015-02-23T20:19:09.156Z</time>
      </trkpt>
      <trkpt lat="48.84192" lon="2.30924">
        <ele>101.7</ele>
        <time>2015-02-23T20:19:10.159Z</time>
      </trkpt>
      <trkpt lat="48.84189" lon="2.30914">
        <ele>101.9</ele>
        <time>2015-02-23T20:19:12.621Z</time>
      </trkpt>
      <trkpt lat="48.84188" lon="2.30908">
        <ele>102.3</ele>
        <time>2015-02-23T20:19:13.202Z</time>
      </trkpt>
      <trkpt lat="48.84184" lon="2.30898">
        <ele>102.6</ele>
        <time>2015-02-23T20:19:15.226Z</time>
      </trkpt>
      <trkpt lat="48.84183" lon="2.30893">
        <ele>102.9</ele>
        <time>2015-02-23T20:19:16.243Z</time>
      </trkpt>
      <trkpt lat="48.84179" lon="2.30883">
        <ele>102.8</ele>
        <time>2015-02-23T20:19:18.146Z</time>
      </trkpt>
      <trkpt lat="48.84177" lon="2.30878">
        <ele>102.7</ele>
        <time>2015-02-23T20:19:19.228Z</time>
      </trkpt>
      <trkpt lat="48.84173" lon="2.30867">
        <ele>102.5</ele>
        <time>2015-02-23T20:19:21.709Z</time>
      </trkpt>
      <trkpt lat="48.84171" lon="2.30862">
        <ele>102.4</ele>
        <time>2015-02-23T20:19:22.174Z</time>
      </trkpt>
      <trkpt lat="48.84167" lon="2.30853">
        <ele>102</ele>
        <time>2015-02-23T20:19:24.141Z</time>
      </trkpt>
      <trkpt lat="48.84165" lon="2.30848">
        <ele>101.8</ele>
        <time>2015-02-23T20:19:25.164Z</time>
      </trkpt>
      <trkpt lat="48.84162" lon="2.30836">
        <ele>101.5</ele>
        <time>2015-02-23T20:19:27.226Z</time>
      </trkpt>
      <trkpt lat="48.84161" lon="2.30831">
        <ele>101.4</ele>
        <time>2015-02-23T20:19:28.341Z</time>
      </trkpt>
      <trkpt lat="48.84157" lon="2.30822">
        <ele>101.1</ele>
        <time>2015-02-23T20:19:30.181Z</time>
      </trkpt>
      <trkpt lat="48.84155" lon="2.30817">
        <ele>101</ele>
        <time>2015-02-23T20:19:31.329Z</time>
      </trkpt>
      <trkpt lat="48.8415" lon="2.30809">
        <ele>101</ele>
        <time>2015-02-23T20:19:33.152Z</time>
      </trkpt>
      <trkpt lat="48.84146" lon="2.30806">
        <ele>100.9</ele>
        <time>2015-02-23T20:19:34.162Z</time>
      </trkpt>
      <trkpt lat="48.84137" lon="2.30804">
        <ele>100.9</ele>
        <time>2015-02-23T20:19:38.232Z</time>
      </trkpt>
      <trkpt lat="48.84134" lon="2.30804">
        <ele>100.9</ele>
        <time>2015-02-23T20:19:39.143Z</time>
      </trkpt>
      <trkpt lat="48.84127" lon="2.30807">
        <ele>101.1</ele>
        <time>2015-02-23T20:19:42.115Z</time>
      </trkpt>
      <trkpt lat="48.84126" lon="2.30808">
        <ele>101.3</ele>
        <time>2015-02-23T20:19:43.184Z</time>
      </trkpt>
      <trkpt lat="48.84117" lon="2.30813">
        <ele>101.1</ele>
        <time>2015-02-23T20:19:47.110Z</time>
      </trkpt>
      <trkpt lat="48.84115" lon="2.30814">
        <ele>100.8</ele>
        <time>2015-02-23T20:19:48.221Z</time>
      </trkpt>
      <trkpt lat="48.84108" lon="2.30822">
        <ele>99.8</ele>
        <time>2015-02-23T20:19:52.148Z</time>
      </trkpt>
      <trkpt lat="48.84105" lon="2.30825">
        <ele>99.7</ele>
        <time>2015-02-23T20:19:53.168Z</time>
      </trkpt>
      <trkpt lat="48.841" lon="2.30829">
        <ele>99.2</ele>
        <time>2015-02-23T20:19:55.199Z</time>
      </trkpt>
      <trkpt lat="48.84096" lon="2.30831">
        <ele>98.5</ele>
        <time>2015-02-23T20:19:56.220Z</time>
      </trkpt>
      <trkpt lat="48.84088" lon="2.30838">
        <ele>97.2</ele>
        <time>2015-02-23T20:19:58.130Z</time>
      </trkpt>
      <trkpt lat="48.84085" lon="2.30842">
        <ele>96.6</ele>
        <time>2015-02-23T20:19:59.136Z</time>
      </trkpt>
      <trkpt lat="48.84079" lon="2.3085">
        <ele>96.3</ele>
        <time>2015-02-23T20:20:01.172Z</time>
      </trkpt>
      <trkpt lat="48.84076" lon="2.30854">
        <ele>96</ele>
        <time>2015-02-23T20:20:02.316Z</time>
      </trkpt>
      <trkpt lat="48.84069" lon="2.30859">
        <ele>96</ele>
        <time>2015-02-23T20:20:04.252Z</time>
      </trkpt>
      <trkpt lat="48.84066" lon="2.30861">
        <ele>96.1</ele>
        <time>2015-02-23T20:20:05.195Z</time>
      </trkpt>
      <trkpt lat="48.8406" lon="2.30865">
        <ele>96.4</ele>
        <time>2015-02-23T20:20:07.223Z</time>
      </trkpt>
      <trkpt lat="48.84057" lon="2.30867">
        <ele>96.5</ele>
        <time>2015-02-23T20:20:08.135Z</time>
      </trkpt>
      <trkpt lat="48.84051" lon="2.3087">
        <ele>97.2</ele>
        <time>2015-02-23T20:20:10.149Z</time>
      </trkpt>
      <trkpt lat="48.84048" lon="2.30872">
        <ele>97.8</ele>
        <time>2015-02-23T20:20:11.173Z</time>
      </trkpt>
      <trkpt lat="48.84042" lon="2.30876">
        <ele>98.9</ele>
        <time>2015-02-23T20:20:13.180Z</time>
      </trkpt>
      <trkpt lat="48.84039" lon="2.30878">
        <ele>99.5</ele>
        <time>2015-02-23T20:20:14.176Z</time>
      </trkpt>
      <trkpt lat="48.84033" lon="2.30882">
        <ele>100.3</ele>
        <time>2015-02-23T20:20:16.521Z</time>
      </trkpt>
      <trkpt lat="48.8403" lon="2.30884">
        <ele>100.5</ele>
        <time>2015-02-23T20:20:17.147Z</time>
      </trkpt>
      <trkpt lat="48.84023" lon="2.30888">
        <ele>101.5</ele>
        <time>2015-02-23T20:20:20.181Z</time>
      </trkpt>
      <trkpt lat="48.84021" lon="2.30889">
        <ele>101.5</ele>
        <time>2015-02-23T20:20:21.215Z</time>
      </trkpt>
      <trkpt lat="48.84012" lon="2.30892">
        <ele>102.3</ele>
        <time>2015-02-23T20:20:24.144Z</time>
      </trkpt>
      <trkpt lat="48.84009" lon="2.30894">
        <ele>102.6</ele>
        <time>2015-02-23T20:20:25.149Z</time>
      </trkpt>
      <trkpt lat="48.84002" lon="2.30901">
        <ele>102.7</ele>
        <time>2015-02-23T20:20:28.802Z</time>
      </trkpt>
      <trkpt lat="48.83998" lon="2.30904">
        <ele>102.8</ele>
        <time>2015-02-23T20:20:29.223Z</time>
      </trkpt>
      <trkpt lat="48.83995" lon="2.30908">
        <ele>101.9</ele>
        <time>2015-02-23T20:20:30.238Z</time>
      </trkpt>
      <trkpt lat="48.83991" lon="2.30912">
        <ele>101.3</ele>
        <time>2015-02-23T20:20:31.242Z</time>
      </trkpt>
      <trkpt lat="48.83985" lon="2.3092">
        <ele>100.4</ele>
        <time>2015-02-23T20:20:33.151Z</time>
      </trkpt>
      <trkpt lat="48.83982" lon="2.30923">
        <ele>100.6</ele>
        <time>2015-02-23T20:20:34.208Z</time>
      </trkpt>
      <trkpt lat="48.83976" lon="2.30931">
        <ele>100.1</ele>
        <time>2015-02-23T20:20:37.069Z</time>
      </trkpt>
      <trkpt lat="48.83974" lon="2.30933">
        <ele>100.2</ele>
        <time>2015-02-23T20:20:37.132Z</time>
      </trkpt>
      <trkpt lat="48.83967" lon="2.30941">
        <ele>100</ele>
        <time>2015-02-23T20:20:40.186Z</time>
      </trkpt>
      <trkpt lat="48.83966" lon="2.30944">
        <ele>99.8</ele>
        <time>2015-02-23T20:20:41.201Z</time>
      </trkpt>
      <trkpt lat="48.83961" lon="2.30954">
        <ele>99.8</ele>
        <time>2015-02-23T20:20:46.137Z</time>
      </trkpt>
      <trkpt lat="48.83959" lon="2.30955">
        <ele>99.9</ele>
        <time>2015-02-23T20:20:47.168Z</time>
      </trkpt>
      <trkpt lat="48.83954" lon="2.30953">
        <ele>101.2</ele>
        <time>2015-02-23T20:20:54.226Z</time>
      </trkpt>
      <trkpt lat="48.83954" lon="2.30953">
        <ele>101.5</ele>
        <time>2015-02-23T20:20:55.272Z</time>
      </trkpt>
      <trkpt lat="48.83954" lon="2.30953">
        <ele>101.5</ele>
        <time>2015-02-23T20:21:00.128Z</time>
      </trkpt>
      <trkpt lat="48.83955" lon="2.30955">
        <ele>102.4</ele>
        <time>2015-02-23T20:21:01.207Z</time>
      </trkpt>
      <trkpt lat="48.83955" lon="2.30955">
        <ele>103</ele>
        <time>2015-02-23T20:21:03.136Z</time>
      </trkpt>
      <trkpt lat="48.83955" lon="2.30956">
        <ele>103.3</ele>
        <time>2015-02-23T20:21:04.140Z</time>
      </trkpt>
      <trkpt lat="48.83955" lon="2.30956">
        <ele>103.3</ele>
        <time>2015-02-23T20:21:05.169Z</time>
      </trkpt>
      <trkpt lat="48.83955" lon="2.30955">
        <ele>103.3</ele>
        <time>2015-02-23T20:21:06.174Z</time>
      </trkpt>
      <trkpt lat="48.83955" lon="2.30956">
        <ele>103.6</ele>
        <time>2015-02-23T20:21:07.842Z</time>
      </trkpt>
      <trkpt lat="48.83955" lon="2.30957">
        <ele>104</ele>
        <time>2015-02-23T20:21:08.195Z</time>
      </trkpt>
      <trkpt lat="48.83956" lon="2.30957">
        <ele>104.3</ele>
        <time>2015-02-23T20:21:16.535Z</time>
      </trkpt>
      <trkpt lat="48.83954" lon="2.30958">
        <ele>105.8</ele>
        <time>2015-02-23T20:21:17.202Z</time>
      </trkpt>
      <trkpt lat="48.83949" lon="2.30967">
        <ele>104.9</ele>
        <time>2015-02-23T20:21:21.698Z</time>
      </trkpt>
      <trkpt lat="48.83947" lon="2.3097">
        <ele>104.8</ele>
        <time>2015-02-23T20:21:22.138Z</time>
      </trkpt>
      <trkpt lat="48.83942" lon="2.30975">
        <ele>104.7</ele>
        <time>2015-02-23T20:21:24.160Z</time>
      </trkpt>
      <trkpt lat="48.8394" lon="2.30979">
        <ele>104.6</ele>
        <time>2015-02-23T20:21:25.367Z</time>
      </trkpt>
      <trkpt lat="48.83934" lon="2.30989">
        <ele>104.4</ele>
        <time>2015-02-23T20:21:28.216Z</time>
      </trkpt>
      <trkpt lat="48.83932" lon="2.30992">
        <ele>104.2</ele>
        <time>2015-02-23T20:21:29.225Z</time>
      </trkpt>
      <trkpt lat="48.83927" lon="2.30999">
        <ele>104.2</ele>
        <time>2015-02-23T20:21:31.862Z</time>
      </trkpt>
      <trkpt lat="48.83925" lon="2.31002">
        <ele>104.2</ele>
        <time>2015-02-23T20:21:32.192Z</time>
      </trkpt>
      <trkpt lat="48.8392" lon="2.31008">
        <ele>104.4</ele>
        <time>2015-02-23T20:21:34.206Z</time>
      </trkpt>
      <trkpt lat="48.83918" lon="2.31011">
        <ele>104.3</ele>
        <time>2015-02-23T20:21:35.218Z</time>
      </trkpt>
      <trkpt lat="48.83914" lon="2.31019">
        <ele>104.4</ele>
        <time>2015-02-23T20:21:37.246Z</time>
      </trkpt>
      <trkpt lat="48.83911" lon="2.31023">
        <ele>104.4</ele>
        <time>2015-02-23T20:21:38.137Z</time>
      </trkpt>
      <trkpt lat="48.83908" lon="2.31033">
        <ele>104.2</ele>
        <time>2015-02-23T20:21:40.163Z</time>
      </trkpt>
      <trkpt lat="48.83907" lon="2.31039">
        <ele>104</ele>
        <time>2015-02-23T20:21:41.169Z</time>
      </trkpt>
      <trkpt lat="48.83905" lon="2.31048">
        <ele>103.9</ele>
        <time>2015-02-23T20:21:43.179Z</time>
      </trkpt>
      <trkpt lat="48.83904" lon="2.31053">
        <ele>103.7</ele>
        <time>2015-02-23T20:21:44.186Z</time>
      </trkpt>
      <trkpt lat="48.839" lon="2.31064">
        <ele>103.5</ele>
        <time>2015-02-23T20:21:47.344Z</time>
      </trkpt>
      <trkpt lat="48.83899" lon="2.31067">
        <ele>103.6</ele>
        <time>2015-02-23T20:21:48.161Z</time>
      </trkpt>
      <trkpt lat="48.83895" lon="2.31076">
        <ele>103.8</ele>
        <time>2015-02-23T20:21:51.232Z</time>
      </trkpt>
      <trkpt lat="48.83893" lon="2.31078">
        <ele>103.8</ele>
        <time>2015-02-23T20:21:52.249Z</time>
      </trkpt>
      <trkpt lat="48.83887" lon="2.31087">
        <ele>103.8</ele>
        <time>2015-02-23T20:21:55.177Z</time>
      </trkpt>
      <trkpt lat="48.83885" lon="2.31091">
        <ele>103.9</ele>
        <time>2015-02-23T20:21:56.179Z</time>
      </trkpt>
      <trkpt lat="48.8388" lon="2.31101">
        <ele>104.5</ele>
        <time>2015-02-23T20:21:59.200Z</time>
      </trkpt>
      <trkpt lat="48.83879" lon="2.31104">
        <ele>104.6</ele>
        <time>2015-02-23T20:22:00.290Z</time>
      </trkpt>
      <trkpt lat="48.83876" lon="2.31111">
        <ele>105.5</ele>
        <time>2015-02-23T20:22:02.979Z</time>
      </trkpt>
      <trkpt lat="48.83875" lon="2.31116">
        <ele>106.2</ele>
        <time>2015-02-23T20:22:03.134Z</time>
      </trkpt>
      <trkpt lat="48.83871" lon="2.31125">
        <ele>107.4</ele>
        <time>2015-02-23T20:22:05.168Z</time>
      </trkpt>
      <trkpt lat="48.83868" lon="2.31132">
        <ele>108.8</ele>
        <time>2015-02-23T20:22:06.244Z</time>
      </trkpt>
      <trkpt lat="48.83862" lon="2.31141">
        <ele>110.2</ele>
        <time>2015-02-23T20:22:09.288Z</time>
      </trkpt>
      <trkpt lat="48.83861" lon="2.31143">
        <ele>109.7</ele>
        <time>2015-02-23T20:22:10.328Z</time>
      </trkpt>
      <trkpt lat="48.8386" lon="2.31144">
        <ele>109.6</ele>
        <time>2015-02-23T20:22:11.185Z</time>
      </trkpt>
      <trkpt lat="48.8386" lon="2.31145">
        <ele>109.8</ele>
        <time>2015-02-23T20:22:12.194Z</time>
      </trkpt>
      <trkpt lat="48.83859" lon="2.31146">
        <ele>109.9</ele>
        <time>2015-02-23T20:22:24.181Z</time>
      </trkpt>
      <trkpt lat="48.83857" lon="2.31151">
        <ele>110.7</ele>
        <time>2015-02-23T20:22:25.234Z</time>
      </trkpt>
      <trkpt lat="48.83857" lon="2.31162">
        <ele>112.4</ele>
        <time>2015-02-23T20:22:30.277Z</time>
      </trkpt>
      <trkpt lat="48.83857" lon="2.31165">
        <ele>112.4</ele>
        <time>2015-02-23T20:22:31.284Z</time>
      </trkpt>
      <trkpt lat="48.83855" lon="2.31175">
        <ele>112</ele>
        <time>2015-02-23T20:22:34.154Z</time>
      </trkpt>
      <trkpt lat="48.83855" lon="2.31178">
        <ele>111.9</ele>
        <time>2015-02-23T20:22:35.284Z</time>
      </trkpt>
      <trkpt lat="48.83853" lon="2.31189">
        <ele>111.9</ele>
        <time>2015-02-23T20:22:38.193Z</time>
      </trkpt>
      <trkpt lat="48.83854" lon="2.31192">
        <ele>111.7</ele>
        <time>2015-02-23T20:22:39.205Z</time>
      </trkpt>
      <trkpt lat="48.83853" lon="2.31205">
        <ele>111.7</ele>
        <time>2015-02-23T20:22:43.245Z</time>
      </trkpt>
      <trkpt lat="48.83853" lon="2.31209">
        <ele>111.5</ele>
        <time>2015-02-23T20:22:44.137Z</time>
      </trkpt>
      <trkpt lat="48.83853" lon="2.31221">
        <ele>112.2</ele>
        <time>2015-02-23T20:22:47.182Z</time>
      </trkpt>
      <trkpt lat="48.83854" lon="2.31225">
        <ele>112.3</ele>
        <time>2015-02-23T20:22:48.198Z</time>
      </trkpt>
      <trkpt lat="48.83854" lon="2.31237">
        <ele>112</ele>
        <time>2015-02-23T20:22:52.108Z</time>
      </trkpt>
      <trkpt lat="48.83854" lon="2.3124">
        <ele>112.1</ele>
        <time>2015-02-23T20:22:53.135Z</time>
      </trkpt>
      <trkpt lat="48.83853" lon="2.31251">
        <ele>111.9</ele>
        <time>2015-02-23T20:22:57.074Z</time>
      </trkpt>
      <trkpt lat="48.83853" lon="2.31256">
        <ele>111.7</ele>
        <time>2015-02-23T20:22:57.149Z</time>
      </trkpt>
      <trkpt lat="48.83854" lon="2.31266">
        <ele>111.6</ele>
        <time>2015-02-23T20:22:59.176Z</time>
      </trkpt>
      <trkpt lat="48.83855" lon="2.31271">
        <ele>111.5</ele>
        <time>2015-02-23T20:23:00.196Z</time>
      </trkpt>
      <trkpt lat="48.83855" lon="2.31281">
        <ele>111.5</ele>
        <time>2015-02-23T20:23:02.160Z</time>
      </trkpt>
      <trkpt lat="48.83855" lon="2.31285">
        <ele>111.7</ele>
        <time>2015-02-23T20:23:03.158Z</time>
      </trkpt>
      <trkpt lat="48.83856" lon="2.31299">
        <ele>112.2</ele>
        <time>2015-02-23T20:23:07.297Z</time>
      </trkpt>
      <trkpt lat="48.83857" lon="2.31304">
        <ele>112.4</ele>
        <time>2015-02-23T20:23:07.340Z</time>
      </trkpt>
      <trkpt lat="48.83858" lon="2.31314">
        <ele>112.9</ele>
        <time>2015-02-23T20:23:09.163Z</time>
      </trkpt>
      <trkpt lat="48.83859" lon="2.3132">
        <ele>113.1</ele>
        <time>2015-02-23T20:23:10.184Z</time>
      </trkpt>
      <trkpt lat="48.83859" lon="2.3133">
        <ele>113.5</ele>
        <time>2015-02-23T20:23:12.441Z</time>
      </trkpt>
      <trkpt lat="48.83859" lon="2.31335">
        <ele>113.6</ele>
        <time>2015-02-23T20:23:13.162Z</time>
      </trkpt>
      <trkpt lat="48.83857" lon="2.31346">
        <ele>113.7</ele>
        <time>2015-02-23T20:23:15.328Z</time>
      </trkpt>
      <trkpt lat="48.83857" lon="2.31352">
        <ele>114.4</ele>
        <time>2015-02-23T20:23:16.112Z</time>
      </trkpt>
      <trkpt lat="48.83857" lon="2.3136">
        <ele>115.7</ele>
        <time>2015-02-23T20:23:17.128Z</time>
      </trkpt>
      <trkpt lat="48.83857" lon="2.3137">
        <ele>117</ele>
        <time>2015-02-23T20:23:18.222Z</time>
      </trkpt>
      <trkpt lat="48.83859" lon="2.31379">
        <ele>118.7</ele>
        <time>2015-02-23T20:23:19.242Z</time>
      </trkpt>
      <trkpt lat="48.83859" lon="2.31385">
        <ele>119.4</ele>
        <time>2015-02-23T20:23:20.122Z</time>
      </trkpt>
      <trkpt lat="48.83858" lon="2.31397">
        <ele>120.5</ele>
        <time>2015-02-23T20:23:23.101Z</time>
      </trkpt>
      <trkpt lat="48.83857" lon="2.314">
        <ele>120.9</ele>
        <time>2015-02-23T20:23:24.126Z</time>
      </trkpt>
      <trkpt lat="48.83855" lon="2.31411">
        <ele>121.4</ele>
        <time>2015-02-23T20:23:27.193Z</time>
      </trkpt>
      <trkpt lat="48.83854" lon="2.31415">
        <ele>121.6</ele>
        <time>2015-02-23T20:23:28.157Z</time>
      </trkpt>
      <trkpt lat="48.83852" lon="2.31426">
        <ele>122.2</ele>
        <time>2015-02-23T20:23:31.709Z</time>
      </trkpt>
      <trkpt lat="48.83852" lon="2.3143">
        <ele>122.2</ele>
        <time>2015-02-23T20:23:32.213Z</time>
      </trkpt>
      <trkpt lat="48.83852" lon="2.3144">
        <ele>122.6</ele>
        <time>2015-02-23T20:23:34.125Z</time>
      </trkpt>
      <trkpt lat="48.83847" lon="2.31449">
        <ele>124.8</ele>
        <time>2015-02-23T20:23:35.152Z</time>
      </trkpt>
      <trkpt lat="48.83842" lon="2.31457">
        <ele>126.8</ele>
        <time>2015-02-23T20:23:37.077Z</time>
      </trkpt>
      <trkpt lat="48.83842" lon="2.3146">
        <ele>127</ele>
        <time>2015-02-23T20:23:37.197Z</time>
      </trkpt>
      <trkpt lat="48.83841" lon="2.31473">
        <ele>127.9</ele>
        <time>2015-02-23T20:23:42.198Z</time>
      </trkpt>
      <trkpt lat="48.83841" lon="2.31475">
        <ele>128.3</ele>
        <time>2015-02-23T20:23:42.243Z</time>
      </trkpt>
      <trkpt lat="48.83842" lon="2.31476">
        <ele>129.6</ele>
        <time>2015-02-23T20:23:44.184Z</time>
      </trkpt>
      <trkpt lat="48.83844" lon="2.31477">
        <ele>130.7</ele>
        <time>2015-02-23T20:23:45.186Z</time>
      </trkpt>
      <trkpt lat="48.83844" lon="2.31478">
        <ele>131.5</ele>
        <time>2015-02-23T20:23:59.148Z</time>
      </trkpt>
      <trkpt lat="48.83843" lon="2.31482">
        <ele>134.3</ele>
        <time>2015-02-23T20:24:00.138Z</time>
      </trkpt>
      <trkpt lat="48.83849" lon="2.31489">
        <ele>134.7</ele>
        <time>2015-02-23T20:24:05.209Z</time>
      </trkpt>
      <trkpt lat="48.8385" lon="2.3149">
        <ele>135</ele>
        <time>2015-02-23T20:24:06.226Z</time>
      </trkpt>
      <trkpt lat="48.83855" lon="2.315">
        <ele>134.8</ele>
        <time>2015-02-23T20:24:10.170Z</time>
      </trkpt>
      <trkpt lat="48.83856" lon="2.31503">
        <ele>134.6</ele>
        <time>2015-02-23T20:24:11.195Z</time>
      </trkpt>
      <trkpt lat="48.83852" lon="2.31512">
        <ele>133.8</ele>
        <time>2015-02-23T20:24:13.162Z</time>
      </trkpt>
      <trkpt lat="48.8385" lon="2.31516">
        <ele>133.4</ele>
        <time>2015-02-23T20:24:14.166Z</time>
      </trkpt>
      <trkpt lat="48.83849" lon="2.31525">
        <ele>132.4</ele>
        <time>2015-02-23T20:24:16.557Z</time>
      </trkpt>
      <trkpt lat="48.83848" lon="2.31529">
        <ele>132.2</ele>
        <time>2015-02-23T20:24:17.168Z</time>
      </trkpt>
      <trkpt lat="48.83846" lon="2.31541">
        <ele>132.3</ele>
        <time>2015-02-23T20:24:19.175Z</time>
      </trkpt>
      <trkpt lat="48.83845" lon="2.31548">
        <ele>132.7</ele>
        <time>2015-02-23T20:24:20.188Z</time>
      </trkpt>
      <trkpt lat="48.83842" lon="2.31554">
        <ele>133.2</ele>
        <time>2015-02-23T20:24:21.630Z</time>
      </trkpt>
      <trkpt lat="48.83838" lon="2.3156">
        <ele>133.1</ele>
        <time>2015-02-23T20:24:22.204Z</time>
      </trkpt>
      <trkpt lat="48.83833" lon="2.31571">
        <ele>133</ele>
        <time>2015-02-23T20:24:24.157Z</time>
      </trkpt>
      <trkpt lat="48.83832" lon="2.31577">
        <ele>133.1</ele>
        <time>2015-02-23T20:24:25.175Z</time>
      </trkpt>
      <trkpt lat="48.83831" lon="2.31588">
        <ele>133.5</ele>
        <time>2015-02-23T20:24:27.114Z</time>
      </trkpt>
      <trkpt lat="48.83832" lon="2.31591">
        <ele>133.4</ele>
        <time>2015-02-23T20:24:28.133Z</time>
      </trkpt>
      <trkpt lat="48.83829" lon="2.316">
        <ele>132.9</ele>
        <time>2015-02-23T20:24:30.187Z</time>
      </trkpt>
      <trkpt lat="48.83828" lon="2.31603">
        <ele>132.7</ele>
        <time>2015-02-23T20:24:31.209Z</time>
      </trkpt>
      <trkpt lat="48.83833" lon="2.31607">
        <ele>133</ele>
        <time>2015-02-23T20:24:34.115Z</time>
      </trkpt>
      <trkpt lat="48.83837" lon="2.31607">
        <ele>133</ele>
        <time>2015-02-23T20:24:35.138Z</time>
      </trkpt>
      <trkpt lat="48.83837" lon="2.3162">
        <ele>134.5</ele>
        <time>2015-02-23T20:24:38.163Z</time>
      </trkpt>
      <trkpt lat="48.83835" lon="2.31625">
        <ele>135</ele>
        <time>2015-02-23T20:24:39.182Z</time>
      </trkpt>
      <trkpt lat="48.83833" lon="2.31637">
        <ele>135.5</ele>
        <time>2015-02-23T20:24:42.115Z</time>
      </trkpt>
      <trkpt lat="48.83833" lon="2.3164">
        <ele>135.3</ele>
        <time>2015-02-23T20:24:43.187Z</time>
      </trkpt>
      <trkpt lat="48.83838" lon="2.31648">
        <ele>134.6</ele>
        <time>2015-02-23T20:24:47.035Z</time>
      </trkpt>
      <trkpt lat="48.83844" lon="2.31648">
        <ele>133.8</ele>
        <time>2015-02-23T20:24:47.121Z</time>
      </trkpt>
      <trkpt lat="48.83851" lon="2.31648">
        <ele>133.3</ele>
        <time>2015-02-23T20:24:48.133Z</time>
      </trkpt>
      <trkpt lat="48.83856" lon="2.31649">
        <ele>132.7</ele>
        <time>2015-02-23T20:24:49.224Z</time>
      </trkpt>
      <trkpt lat="48.83865" lon="2.31653">
        <ele>131.7</ele>
        <time>2015-02-23T20:24:52.072Z</time>
      </trkpt>
      <trkpt lat="48.83871" lon="2.31656">
        <ele>129.3</ele>
        <time>2015-02-23T20:24:52.160Z</time>
      </trkpt>
      <trkpt lat="48.83878" lon="2.31659">
        <ele>127.8</ele>
        <time>2015-02-23T20:24:53.175Z</time>
      </trkpt>
      <trkpt lat="48.83884" lon="2.31662">
        <ele>127.8</ele>
        <time>2015-02-23T20:24:54.188Z</time>
      </trkpt>
      <trkpt lat="48.83891" lon="2.31669">
        <ele>129</ele>
        <time>2015-02-23T20:24:58.149Z</time>
      </trkpt>
      <trkpt lat="48.83891" lon="2.31671">
        <ele>129.3</ele>
        <time>2015-02-23T20:24:59.145Z</time>
      </trkpt>
      <trkpt lat="48.83891" lon="2.31671">
        <ele>129.2</ele>
        <time>2015-02-23T20:25:00.189Z</time>
      </trkpt>
      <trkpt lat="48.83892" lon="2.31671">
        <ele>129</ele>
        <time>2015-02-23T20:25:01.237Z</time>
      </trkpt>
      <trkpt lat="48.83892" lon="2.3167">
        <ele>129</ele>
        <time>2015-02-23T20:25:02.144Z</time>
      </trkpt>
      <trkpt lat="48.83884" lon="2.31665">
        <ele>128.4</ele>
        <time>2015-02-23T20:25:11.187Z</time>
      </trkpt>
      <trkpt lat="48.83883" lon="2.31666">
        <ele>128.4</ele>
        <time>2015-02-23T20:25:12.199Z</time>
      </trkpt>
      <trkpt lat="48.83879" lon="2.31673">
        <ele>128.1</ele>
        <time>2015-02-23T20:25:14.242Z</time>
      </trkpt>
      <trkpt lat="48.83876" lon="2.31676">
        <ele>127.9</ele>
        <time>2015-02-23T20:25:15.139Z</time>
      </trkpt>
      <trkpt lat="48.8387" lon="2.31683">
        <ele>127.1</ele>
        <time>2015-02-23T20:25:17.176Z</time>
      </trkpt>
      <trkpt lat="48.83866" lon="2.31687">
        <ele>126.6</ele>
        <time>2015-02-23T20:25:18.193Z</time>
      </trkpt>
      <trkpt lat="48.8386" lon="2.31694">
        <ele>126.7</ele>
        <time>2015-02-23T20:25:20.232Z</time>
      </trkpt>
      <trkpt lat="48.83856" lon="2.31698">
        <ele>126.8</ele>
        <time>2015-02-23T20:25:21.132Z</time>
      </trkpt>
      <trkpt lat="48.8385" lon="2.31704">
        <ele>127.3</ele>
        <time>2015-02-23T20:25:23.140Z</time>
      </trkpt>
      <trkpt lat="48.83847" lon="2.31706">
        <ele>128.2</ele>
        <time>2015-02-23T20:25:24.154Z</time>
      </trkpt>
      <trkpt lat="48.8384" lon="2.31712">
        <ele>129.2</ele>
        <time>2015-02-23T20:25:26.718Z</time>
      </trkpt>
      <trkpt lat="48.83837" lon="2.31715">
        <ele>129.5</ele>
        <time>2015-02-23T20:25:27.226Z</time>
      </trkpt>
      <trkpt lat="48.83833" lon="2.31721">
        <ele>130.7</ele>
        <time>2015-02-23T20:25:29.170Z</time>
      </trkpt>
      <trkpt lat="48.83831" lon="2.31726">
        <ele>132.3</ele>
        <time>2015-02-23T20:25:30.172Z</time>
      </trkpt>
      <trkpt lat="48.83828" lon="2.31734">
        <ele>134.1</ele>
        <time>2015-02-23T20:25:31.761Z</time>
      </trkpt>
      <trkpt lat="48.83824" lon="2.31741">
        <ele>135.6</ele>
        <time>2015-02-23T20:25:32.221Z</time>
      </trkpt>
      <trkpt lat="48.8382" lon="2.31749">
        <ele>136.6</ele>
        <time>2015-02-23T20:25:34.246Z</time>
      </trkpt>
      <trkpt lat="48.83817" lon="2.31752">
        <ele>136.5</ele>
        <time>2015-02-23T20:25:35.322Z</time>
      </trkpt>
      <trkpt lat="48.83812" lon="2.31758">
        <ele>136.1</ele>
        <time>2015-02-23T20:25:37.187Z</time>
      </trkpt>
      <trkpt lat="48.83809" lon="2.31759">
        <ele>136.1</ele>
        <time>2015-02-23T20:25:38.195Z</time>
      </trkpt>
      <trkpt lat="48.83802" lon="2.31763">
        <ele>135.6</ele>
        <time>2015-02-23T20:25:41.894Z</time>
      </trkpt>
      <trkpt lat="48.83799" lon="2.31765">
        <ele>135.7</ele>
        <time>2015-02-23T20:25:42.146Z</time>
      </trkpt>
      <trkpt lat="48.83792" lon="2.3177">
        <ele>135.9</ele>
        <time>2015-02-23T20:25:44.157Z</time>
      </trkpt>
      <trkpt lat="48.8379" lon="2.31773">
        <ele>136.2</ele>
        <time>2015-02-23T20:25:45.184Z</time>
      </trkpt>
      <trkpt lat="48.83784" lon="2.31781">
        <ele>136.6</ele>
        <time>2015-02-23T20:25:47.121Z</time>
      </trkpt>
      <trkpt lat="48.83781" lon="2.31783">
        <ele>136.7</ele>
        <time>2015-02-23T20:25:48.145Z</time>
      </trkpt>
      <trkpt lat="48.83776" lon="2.31788">
        <ele>136.7</ele>
        <time>2015-02-23T20:25:50.195Z</time>
      </trkpt>
      <trkpt lat="48.83774" lon="2.31791">
        <ele>136.6</ele>
        <time>2015-02-23T20:25:51.267Z</time>
      </trkpt>
      <trkpt lat="48.83769" lon="2.318">
        <ele>136.2</ele>
        <time>2015-02-23T20:25:54.143Z</time>
      </trkpt>
      <trkpt lat="48.83767" lon="2.31801">
        <ele>135.8</ele>
        <time>2015-02-23T20:25:55.217Z</time>
      </trkpt>
      <trkpt lat="48.8376" lon="2.31807">
        <ele>135.2</ele>
        <time>2015-02-23T20:25:58.143Z</time>
      </trkpt>
      <trkpt lat="48.83758" lon="2.31809">
        <ele>135.1</ele>
        <time>2015-02-23T20:25:59.151Z</time>
      </trkpt>
      <trkpt lat="48.83752" lon="2.31815">
        <ele>135.2</ele>
        <time>2015-02-23T20:26:01.233Z</time>
      </trkpt>
      <trkpt lat="48.83749" lon="2.31817">
        <ele>135.1</ele>
        <time>2015-02-23T20:26:02.130Z</time>
      </trkpt>
      <trkpt lat="48.83741" lon="2.31822">
        <ele>135</ele>
        <time>2015-02-23T20:26:05.252Z</time>
      </trkpt>
      <trkpt lat="48.83739" lon="2.31822">
        <ele>135.3</ele>
        <time>2015-02-23T20:26:06.134Z</time>
      </trkpt>
      <trkpt lat="48.83737" lon="2.31821">
        <ele>136.8</ele>
        <time>2015-02-23T20:26:15.176Z</time>
      </trkpt>
      <trkpt lat="48.83737" lon="2.31821">
        <ele>136.8</ele>
        <time>2015-02-23T20:26:16.133Z</time>
      </trkpt>
      <trkpt lat="48.83737" lon="2.3182">
        <ele>137</ele>
        <time>2015-02-23T20:26:18.184Z</time>
      </trkpt>
      <trkpt lat="48.83735" lon="2.31821">
        <ele>137.1</ele>
        <time>2015-02-23T20:26:19.204Z</time>
      </trkpt>
      <trkpt lat="48.83728" lon="2.31816">
        <ele>138.8</ele>
        <time>2015-02-23T20:26:24.162Z</time>
      </trkpt>
      <trkpt lat="48.83726" lon="2.31815">
        <ele>139</ele>
        <time>2015-02-23T20:26:25.174Z</time>
      </trkpt>
      <trkpt lat="48.8372" lon="2.31807">
        <ele>136.8</ele>
        <time>2015-02-23T20:26:30.165Z</time>
      </trkpt>
      <trkpt lat="48.83718" lon="2.31806">
        <ele>136.9</ele>
        <time>2015-02-23T20:26:31.197Z</time>
      </trkpt>
      <trkpt lat="48.8371" lon="2.31805">
        <ele>137</ele>
        <time>2015-02-23T20:26:34.106Z</time>
      </trkpt>
      <trkpt lat="48.83707" lon="2.31806">
        <ele>137</ele>
        <time>2015-02-23T20:26:35.160Z</time>
      </trkpt>
      <trkpt lat="48.83699" lon="2.3181">
        <ele>136.9</ele>
        <time>2015-02-23T20:26:38.206Z</time>
      </trkpt>
      <trkpt lat="48.83696" lon="2.31811">
        <ele>136.9</ele>
        <time>2015-02-23T20:26:39.107Z</time>
      </trkpt>
      <trkpt lat="48.83692" lon="2.31822">
        <ele>132.5</ele>
        <time>2015-02-23T20:26:43.171Z</time>
      </trkpt>
      <trkpt lat="48.83693" lon="2.31826">
        <ele>131.1</ele>
        <time>2015-02-23T20:26:44.170Z</time>
      </trkpt>
      <trkpt lat="48.83693" lon="2.31832">
        <ele>130</ele>
        <time>2015-02-23T20:26:45.231Z</time>
      </trkpt>
      <trkpt lat="48.83694" lon="2.31839">
        <ele>128.3</ele>
        <time>2015-02-23T20:26:46.150Z</time>
      </trkpt>
      <trkpt lat="48.83695" lon="2.31846">
        <ele>128</ele>
        <time>2015-02-23T20:26:47.138Z</time>
      </trkpt>
      <trkpt lat="48.83697" lon="2.31853">
        <ele>127.4</ele>
        <time>2015-02-23T20:26:48.134Z</time>
      </trkpt>
      <trkpt lat="48.83701" lon="2.31864">
        <ele>126.7</ele>
        <time>2015-02-23T20:26:50.165Z</time>
      </trkpt>
      <trkpt lat="48.83705" lon="2.31868">
        <ele>126.5</ele>
        <time>2015-02-23T20:26:51.210Z</time>
      </trkpt>
      <trkpt lat="48.83712" lon="2.31873">
        <ele>126.2</ele>
        <time>2015-02-23T20:26:53.129Z</time>
      </trkpt>
      <trkpt lat="48.83716" lon="2.31874">
        <ele>126.2</ele>
        <time>2015-02-23T20:26:54.144Z</time>
      </trkpt>
      <trkpt lat="48.83721" lon="2.31875">
        <ele>125.7</ele>
        <time>2015-02-23T20:26:55.177Z</time>
      </trkpt>
      <trkpt lat="48.83726" lon="2.31874">
        <ele>125.3</ele>
        <time>2015-02-23T20:26:56.190Z</time>
      </trkpt>
      <trkpt lat="48.83734" lon="2.31871">
        <ele>124.8</ele>
        <time>2015-02-23T20:26:58.141Z</time>
      </trkpt>
      <trkpt lat="48.83738" lon="2.31868">
        <ele>124.6</ele>
        <time>2015-02-23T20:26:59.152Z</time>
      </trkpt>
      <trkpt lat="48.83744" lon="2.31866">
        <ele>124.5</ele>
        <time>2015-02-23T20:27:01.234Z</time>
      </trkpt>
      <trkpt lat="48.83747" lon="2.31866">
        <ele>124.4</ele>
        <time>2015-02-23T20:27:02.147Z</time>
      </trkpt>
      <trkpt lat="48.8375" lon="2.31865">
        <ele>124.1</ele>
        <time>2015-02-23T20:27:05.149Z</time>
      </trkpt>
      <trkpt lat="48.8375" lon="2.31866">
        <ele>124.2</ele>
        <time>2015-02-23T20:27:06.136Z</time>
      </trkpt>
      <trkpt lat="48.8375" lon="2.31866">
        <ele>124.3</ele>
        <time>2015-02-23T20:27:07.178Z</time>
      </trkpt>
      <trkpt lat="48.83754" lon="2.31868">
        <ele>125.1</ele>
        <time>2015-02-23T20:27:18.272Z</time>
      </trkpt>
      <trkpt lat="48.83754" lon="2.31869">
        <ele>125.6</ele>
        <time>2015-02-23T20:27:19.180Z</time>
      </trkpt>
      <trkpt lat="48.83754" lon="2.3187">
        <ele>126</ele>
        <time>2015-02-23T20:27:26.212Z</time>
      </trkpt>
      <trkpt lat="48.83755" lon="2.31874">
        <ele>128.6</ele>
        <time>2015-02-23T20:27:27.135Z</time>
      </trkpt>
      <trkpt lat="48.83747" lon="2.31874">
        <ele>128.4</ele>
        <time>2015-02-23T20:27:39.185Z</time>
      </trkpt>
      <trkpt lat="48.83746" lon="2.31875">
        <ele>128</ele>
        <time>2015-02-23T20:27:40.202Z</time>
      </trkpt>
      <trkpt lat="48.83741" lon="2.31884">
        <ele>127.6</ele>
        <time>2015-02-23T20:27:46.147Z</time>
      </trkpt>
      <trkpt lat="48.8374" lon="2.31886">
        <ele>127.7</ele>
        <time>2015-02-23T20:27:47.161Z</time>
      </trkpt>
      <trkpt lat="48.83733" lon="2.31891">
        <ele>127.1</ele>
        <time>2015-02-23T20:27:50.140Z</time>
      </trkpt>
      <trkpt lat="48.8373" lon="2.31892">
        <ele>127</ele>
        <time>2015-02-23T20:27:51.211Z</time>
      </trkpt>
      <trkpt lat="48.83723" lon="2.31891">
        <ele>127</ele>
        <time>2015-02-23T20:27:53.127Z</time>
      </trkpt>
      <trkpt lat="48.83697" lon="2.31872">
        <ele>126.2</ele>
        <time>2015-02-23T20:28:00.134Z</time>
      </trkpt>
      <trkpt lat="48.83692" lon="2.31865">
        <ele>126</ele>
        <time>2015-02-23T20:28:02.210Z</time>
      </trkpt>
      <trkpt lat="48.83689" lon="2.31863">
        <ele>126</ele>
        <time>2015-02-23T20:28:03.167Z</time>
      </trkpt>
      <trkpt lat="48.8368" lon="2.31862">
        <ele>125.7</ele>
        <time>2015-02-23T20:28:11.139Z</time>
      </trkpt>
      <trkpt lat="48.83679" lon="2.31863">
        <ele>125.6</ele>
        <time>2015-02-23T20:28:12.382Z</time>
      </trkpt>
      <trkpt lat="48.83672" lon="2.31865">
        <ele>125.3</ele>
        <time>2015-02-23T20:28:15.211Z</time>
      </trkpt>
      <trkpt lat="48.8367" lon="2.31867">
        <ele>125.1</ele>
        <time>2015-02-23T20:28:16.162Z</time>
      </trkpt>
      <trkpt lat="48.83661" lon="2.3187">
        <ele>125.1</ele>
        <time>2015-02-23T20:28:20.129Z</time>
      </trkpt>
      <trkpt lat="48.83659" lon="2.31871">
        <ele>125</ele>
        <time>2015-02-23T20:28:21.165Z</time>
      </trkpt>
      <trkpt lat="48.83652" lon="2.31874">
        <ele>124.9</ele>
        <time>2015-02-23T20:28:23.149Z</time>
      </trkpt>
      <trkpt lat="48.83648" lon="2.31875">
        <ele>124.8</ele>
        <time>2015-02-23T20:28:24.169Z</time>
      </trkpt>
      <trkpt lat="48.8364" lon="2.31878">
        <ele>124.6</ele>
        <time>2015-02-23T20:28:27.226Z</time>
      </trkpt>
      <trkpt lat="48.83638" lon="2.31879">
        <ele>124.5</ele>
        <time>2015-02-23T20:28:28.132Z</time>
      </trkpt>
      <trkpt lat="48.83632" lon="2.31885">
        <ele>124.3</ele>
        <time>2015-02-23T20:28:31.270Z</time>
      </trkpt>
      <trkpt lat="48.8363" lon="2.31887">
        <ele>124.1</ele>
        <time>2015-02-23T20:28:32.130Z</time>
      </trkpt>
      <trkpt lat="48.83625" lon="2.31891">
        <ele>122.9</ele>
        <time>2015-02-23T20:28:33.178Z</time>
      </trkpt>
      <trkpt lat="48.83621" lon="2.31894">
        <ele>121.7</ele>
        <time>2015-02-23T20:28:34.177Z</time>
      </trkpt>
      <trkpt lat="48.83614" lon="2.31899">
        <ele>120.4</ele>
        <time>2015-02-23T20:28:36.188Z</time>
      </trkpt>
      <trkpt lat="48.83611" lon="2.31901">
        <ele>120.1</ele>
        <time>2015-02-23T20:28:37.194Z</time>
      </trkpt>
      <trkpt lat="48.83603" lon="2.31905">
        <ele>119.9</ele>
        <time>2015-02-23T20:28:41.129Z</time>
      </trkpt>
      <trkpt lat="48.83601" lon="2.31906">
        <ele>120</ele>
        <time>2015-02-23T20:28:42.192Z</time>
      </trkpt>
      <trkpt lat="48.83598" lon="2.31907">
        <ele>120.3</ele>
        <time>2015-02-23T20:28:46.251Z</time>
      </trkpt>
      <trkpt lat="48.83599" lon="2.31907">
        <ele>120.5</ele>
        <time>2015-02-23T20:28:47.134Z</time>
      </trkpt>
      <trkpt lat="48.83599" lon="2.31907">
        <ele>120.7</ele>
        <time>2015-02-23T20:29:09.209Z</time>
      </trkpt>
      <trkpt lat="48.836" lon="2.31901">
        <ele>120</ele>
        <time>2015-02-23T20:29:10.127Z</time>
      </trkpt>
      <trkpt lat="48.83597" lon="2.31888">
        <ele>120.5</ele>
        <time>2015-02-23T20:29:16.123Z</time>
      </trkpt>
      <trkpt lat="48.83596" lon="2.31887">
        <ele>120.6</ele>
        <time>2015-02-23T20:29:17.141Z</time>
      </trkpt>
      <trkpt lat="48.83591" lon="2.31879">
        <ele>120.9</ele>
        <time>2015-02-23T20:29:21.165Z</time>
      </trkpt>
      <trkpt lat="48.8359" lon="2.31877">
        <ele>120.9</ele>
        <time>2015-02-23T20:29:22.215Z</time>
      </trkpt>
      <trkpt lat="48.83585" lon="2.31868">
        <ele>121</ele>
        <time>2015-02-23T20:29:25.250Z</time>
      </trkpt>
      <trkpt lat="48.83583" lon="2.31865">
        <ele>121</ele>
        <time>2015-02-23T20:29:26.137Z</time>
      </trkpt>
      <trkpt lat="48.83577" lon="2.3186">
        <ele>121.1</ele>
        <time>2015-02-23T20:29:28.123Z</time>
      </trkpt>
      <trkpt lat="48.83574" lon="2.31858">
        <ele>121.1</ele>
        <time>2015-02-23T20:29:29.301Z</time>
      </trkpt>
      <trkpt lat="48.8357" lon="2.3185">
        <ele>121.1</ele>
        <time>2015-02-23T20:29:31.167Z</time>
      </trkpt>
      <trkpt lat="48.83568" lon="2.31846">
        <ele>121</ele>
        <time>2015-02-23T20:29:32.163Z</time>
      </trkpt>
      <trkpt lat="48.83563" lon="2.31835">
        <ele>120.9</ele>
        <time>2015-02-23T20:29:35.114Z</time>
      </trkpt>
      <trkpt lat="48.83562" lon="2.31831">
        <ele>120.7</ele>
        <time>2015-02-23T20:29:36.116Z</time>
      </trkpt>
      <trkpt lat="48.83558" lon="2.31821">
        <ele>120.4</ele>
        <time>2015-02-23T20:29:38.183Z</time>
      </trkpt>
      <trkpt lat="48.83556" lon="2.31817">
        <ele>120.2</ele>
        <time>2015-02-23T20:29:39.111Z</time>
      </trkpt>
      <trkpt lat="48.83552" lon="2.31809">
        <ele>120</ele>
        <time>2015-02-23T20:29:41.132Z</time>
      </trkpt>
      <trkpt lat="48.8355" lon="2.31806">
        <ele>119.9</ele>
        <time>2015-02-23T20:29:42.160Z</time>
      </trkpt>
      <trkpt lat="48.83544" lon="2.31796">
        <ele>121.1</ele>
        <time>2015-02-23T20:29:44.107Z</time>
      </trkpt>
      <trkpt lat="48.83541" lon="2.31791">
        <ele>121.8</ele>
        <time>2015-02-23T20:29:45.119Z</time>
      </trkpt>
      <trkpt lat="48.83533" lon="2.31787">
        <ele>121.7</ele>
        <time>2015-02-23T20:29:48.192Z</time>
      </trkpt>
      <trkpt lat="48.83529" lon="2.31789">
        <ele>120.8</ele>
        <time>2015-02-23T20:29:49.235Z</time>
      </trkpt>
      <trkpt lat="48.83522" lon="2.31794">
        <ele>119.8</ele>
        <time>2015-02-23T20:29:51.149Z</time>
      </trkpt>
      <trkpt lat="48.83518" lon="2.31797">
        <ele>119.4</ele>
        <time>2015-02-23T20:29:52.164Z</time>
      </trkpt>
      <trkpt lat="48.83511" lon="2.31804">
        <ele>118.8</ele>
        <time>2015-02-23T20:29:55.332Z</time>
      </trkpt>
      <trkpt lat="48.83509" lon="2.31807">
        <ele>118.6</ele>
        <time>2015-02-23T20:29:56.094Z</time>
      </trkpt>
      <trkpt lat="48.83504" lon="2.31813">
        <ele>118.3</ele>
        <time>2015-02-23T20:29:58.120Z</time>
      </trkpt>
      <trkpt lat="48.83501" lon="2.31818">
        <ele>118.1</ele>
        <time>2015-02-23T20:29:59.172Z</time>
      </trkpt>
      <trkpt lat="48.83495" lon="2.31825">
        <ele>117.7</ele>
        <time>2015-02-23T20:30:01.143Z</time>
      </trkpt>
      <trkpt lat="48.83492" lon="2.31829">
        <ele>117.6</ele>
        <time>2015-02-23T20:30:02.200Z</time>
      </trkpt>
      <trkpt lat="48.83487" lon="2.31837">
        <ele>117.1</ele>
        <time>2015-02-23T20:30:04.151Z</time>
      </trkpt>
      <trkpt lat="48.83484" lon="2.3184">
        <ele>117.1</ele>
        <time>2015-02-23T20:30:05.404Z</time>
      </trkpt>
      <trkpt lat="48.83479" lon="2.31849">
        <ele>116.3</ele>
        <time>2015-02-23T20:30:08.228Z</time>
      </trkpt>
      <trkpt lat="48.83477" lon="2.3185">
        <ele>116.2</ele>
        <time>2015-02-23T20:30:09.134Z</time>
      </trkpt>
      <trkpt lat="48.8347" lon="2.31854">
        <ele>116.8</ele>
        <time>2015-02-23T20:30:12.231Z</time>
      </trkpt>
      <trkpt lat="48.83468" lon="2.31856">
        <ele>116.9</ele>
        <time>2015-02-23T20:30:13.241Z</time>
      </trkpt>
      <trkpt lat="48.83462" lon="2.31864">
        <ele>117.1</ele>
        <time>2015-02-23T20:30:16.189Z</time>
      </trkpt>
      <trkpt lat="48.83461" lon="2.31866">
        <ele>117.2</ele>
        <time>2015-02-23T20:30:17.194Z</time>
      </trkpt>
      <trkpt lat="48.83456" lon="2.31873">
        <ele>117.5</ele>
        <time>2015-02-23T20:30:20.169Z</time>
      </trkpt>
      <trkpt lat="48.83455" lon="2.31877">
        <ele>117.7</ele>
        <time>2015-02-23T20:30:21.201Z</time>
      </trkpt>
      <trkpt lat="48.8345" lon="2.31887">
        <ele>117.6</ele>
        <time>2015-02-23T20:30:25.164Z</time>
      </trkpt>
      <trkpt lat="48.83448" lon="2.31888">
        <ele>117.8</ele>
        <time>2015-02-23T20:30:26.177Z</time>
      </trkpt>
      <trkpt lat="48.83441" lon="2.31887">
        <ele>118.6</ele>
        <time>2015-02-23T20:30:43.184Z</time>
      </trkpt>
      <trkpt lat="48.83439" lon="2.31886">
        <ele>118.6</ele>
        <time>2015-02-23T20:30:44.193Z</time>
      </trkpt>
      <trkpt lat="48.83434" lon="2.31876">
        <ele>118.7</ele>
        <time>2015-02-23T20:30:49.161Z</time>
      </trkpt>
      <trkpt lat="48.83433" lon="2.31873">
        <ele>118.8</ele>
        <time>2015-02-23T20:30:50.178Z</time>
      </trkpt>
      <trkpt lat="48.83427" lon="2.31864">
        <ele>118.9</ele>
        <time>2015-02-23T20:30:55.232Z</time>
      </trkpt>
      <trkpt lat="48.83424" lon="2.31863">
        <ele>119.3</ele>
        <time>2015-02-23T20:30:56.132Z</time>
      </trkpt>
      <trkpt lat="48.83417" lon="2.31868">
        <ele>122.1</ele>
        <time>2015-02-23T20:31:08.169Z</time>
      </trkpt>
      <trkpt lat="48.83417" lon="2.31873">
        <ele>121.7</ele>
        <time>2015-02-23T20:31:09.327Z</time>
      </trkpt>
      <trkpt lat="48.83415" lon="2.31885">
        <ele>120.9</ele>
        <time>2015-02-23T20:31:12.165Z</time>
      </trkpt>
      <trkpt lat="48.83413" lon="2.31889">
        <ele>120.7</ele>
        <time>2015-02-23T20:31:13.230Z</time>
      </trkpt>
      <trkpt lat="48.8341" lon="2.31897">
        <ele>120.2</ele>
        <time>2015-02-23T20:31:15.188Z</time>
      </trkpt>
      <trkpt lat="48.83408" lon="2.31901">
        <ele>120.3</ele>
        <time>2015-02-23T20:31:16.209Z</time>
      </trkpt>
      <trkpt lat="48.83403" lon="2.3191">
        <ele>120.5</ele>
        <time>2015-02-23T20:31:18.119Z</time>
      </trkpt>
      <trkpt lat="48.83401" lon="2.31914">
        <ele>120.4</ele>
        <time>2015-02-23T20:31:19.170Z</time>
      </trkpt>
      <trkpt lat="48.83395" lon="2.31922">
        <ele>120.6</ele>
        <time>2015-02-23T20:31:21.210Z</time>
      </trkpt>
      <trkpt lat="48.83394" lon="2.31924">
        <ele>120.6</ele>
        <time>2015-02-23T20:31:22.149Z</time>
      </trkpt>
      <trkpt lat="48.834" lon="2.31934">
        <ele>119.8</ele>
        <time>2015-02-23T20:31:27.154Z</time>
      </trkpt>
      <trkpt lat="48.83401" lon="2.31935">
        <ele>119.9</ele>
        <time>2015-02-23T20:31:28.183Z</time>
      </trkpt>
      <trkpt lat="48.83406" lon="2.31945">
        <ele>116.8</ele>
        <time>2015-02-23T20:31:45.127Z</time>
      </trkpt>
      <trkpt lat="48.83406" lon="2.31947">
        <ele>116.5</ele>
        <time>2015-02-23T20:31:46.140Z</time>
      </trkpt>
      <trkpt lat="48.83401" lon="2.31956">
        <ele>115</ele>
        <time>2015-02-23T20:31:50.149Z</time>
      </trkpt>
      <trkpt lat="48.83399" lon="2.31959">
        <ele>114.5</ele>
        <time>2015-02-23T20:31:51.150Z</time>
      </trkpt>
      <trkpt lat="48.83393" lon="2.31968">
        <ele>113.6</ele>
        <time>2015-02-23T20:31:54.221Z</time>
      </trkpt>
      <trkpt lat="48.83391" lon="2.31972">
        <ele>113.5</ele>
        <time>2015-02-23T20:31:55.237Z</time>
      </trkpt>
      <trkpt lat="48.83386" lon="2.31981">
        <ele>113.3</ele>
        <time>2015-02-23T20:31:57.130Z</time>
      </trkpt>
      <trkpt lat="48.83384" lon="2.31985">
        <ele>113.1</ele>
        <time>2015-02-23T20:31:58.149Z</time>
      </trkpt>
      <trkpt lat="48.83381" lon="2.31996">
        <ele>113</ele>
        <time>2015-02-23T20:32:01.229Z</time>
      </trkpt>
      <trkpt lat="48.83379" lon="2.31999">
        <ele>112.9</ele>
        <time>2015-02-23T20:32:02.118Z</time>
      </trkpt>
      <trkpt lat="48.83375" lon="2.32009">
        <ele>113</ele>
        <time>2015-02-23T20:32:06.149Z</time>
      </trkpt>
      <trkpt lat="48.83374" lon="2.32012">
        <ele>113.3</ele>
        <time>2015-02-23T20:32:07.169Z</time>
      </trkpt>
      <trkpt lat="48.8337" lon="2.32021">
        <ele>113.8</ele>
        <time>2015-02-23T20:32:10.212Z</time>
      </trkpt>
      <trkpt lat="48.83368" lon="2.32026">
        <ele>113.9</ele>
        <time>2015-02-23T20:32:11.144Z</time>
      </trkpt>
      <trkpt lat="48.83366" lon="2.32038">
        <ele>113.7</ele>
        <time>2015-02-23T20:32:14.160Z</time>
      </trkpt>
      <trkpt lat="48.83368" lon="2.32041">
        <ele>113.6</ele>
        <time>2015-02-23T20:32:15.130Z</time>
      </trkpt>
      <trkpt lat="48.83374" lon="2.3205">
        <ele>113.8</ele>
        <time>2015-02-23T20:32:18.163Z</time>
      </trkpt>
      <trkpt lat="48.83376" lon="2.32052">
        <ele>113.6</ele>
        <time>2015-02-23T20:32:19.194Z</time>
      </trkpt>
      <trkpt lat="48.83381" lon="2.3206">
        <ele>113.4</ele>
        <time>2015-02-23T20:32:22.265Z</time>
      </trkpt>
      <trkpt lat="48.83382" lon="2.32063">
        <ele>113.2</ele>
        <time>2015-02-23T20:32:23.131Z</time>
      </trkpt>
      <trkpt lat="48.83385" lon="2.32072">
        <ele>113.6</ele>
        <time>2015-02-23T20:32:26.163Z</time>
      </trkpt>
      <trkpt lat="48.83388" lon="2.32088">
        <ele>113.9</ele>
        <time>2015-02-23T20:32:32.216Z</time>
      </trkpt>
      <trkpt lat="48.83389" lon="2.321">
        <ele>114.1</ele>
        <time>2015-02-23T20:32:36.156Z</time>
      </trkpt>
      <trkpt lat="48.8339" lon="2.32103">
        <ele>114.3</ele>
        <time>2015-02-23T20:32:37.182Z</time>
      </trkpt>
      <trkpt lat="48.83396" lon="2.3211">
        <ele>115.1</ele>
        <time>2015-02-23T20:32:40.125Z</time>
      </trkpt>
      <trkpt lat="48.83398" lon="2.32109">
        <ele>115.4</ele>
        <time>2015-02-23T20:32:41.140Z</time>
      </trkpt>
      <trkpt lat="48.83404" lon="2.32116">
        <ele>116.3</ele>
        <time>2015-02-23T20:32:44.198Z</time>
      </trkpt>
      <trkpt lat="48.83405" lon="2.3212">
        <ele>116.7</ele>
        <time>2015-02-23T20:32:45.121Z</time>
      </trkpt>
      <trkpt lat="48.83406" lon="2.32125">
        <ele>116.7</ele>
        <time>2015-02-23T20:32:46.139Z</time>
      </trkpt>
      <trkpt lat="48.83408" lon="2.32135">
        <ele>116.6</ele>
        <time>2015-02-23T20:32:47.167Z</time>
      </trkpt>
      <trkpt lat="48.83411" lon="2.32146">
        <ele>116.4</ele>
        <time>2015-02-23T20:32:50.196Z</time>
      </trkpt>
      <trkpt lat="48.83412" lon="2.32148">
        <ele>116.5</ele>
        <time>2015-02-23T20:32:51.109Z</time>
      </trkpt>
      <trkpt lat="48.83417" lon="2.32156">
        <ele>117.2</ele>
        <time>2015-02-23T20:32:55.233Z</time>
      </trkpt>
      <trkpt lat="48.83418" lon="2.32159">
        <ele>117.8</ele>
        <time>2015-02-23T20:32:56.127Z</time>
      </trkpt>
      <trkpt lat="48.83418" lon="2.32172">
        <ele>118</ele>
        <time>2015-02-23T20:33:02.168Z</time>
      </trkpt>
      <trkpt lat="48.8342" lon="2.32173">
        <ele>117.7</ele>
        <time>2015-02-23T20:33:03.188Z</time>
      </trkpt>
      <trkpt lat="48.83423" lon="2.32178">
        <ele>117.4</ele>
        <time>2015-02-23T20:33:05.250Z</time>
      </trkpt>
      <trkpt lat="48.8343" lon="2.32182">
        <ele>116.6</ele>
        <time>2015-02-23T20:33:06.137Z</time>
      </trkpt>
      <trkpt lat="48.83429" lon="2.32195">
        <ele>119.2</ele>
        <time>2015-02-23T20:33:13.183Z</time>
      </trkpt>
      <trkpt lat="48.83426" lon="2.32196">
        <ele>119.4</ele>
        <time>2015-02-23T20:33:14.226Z</time>
      </trkpt>
      <trkpt lat="48.83421" lon="2.322">
        <ele>119.6</ele>
        <time>2015-02-23T20:33:16.145Z</time>
      </trkpt>
      <trkpt lat="48.83418" lon="2.32203">
        <ele>119.5</ele>
        <time>2015-02-23T20:33:17.168Z</time>
      </trkpt>
      <trkpt lat="48.83413" lon="2.32211">
        <ele>119.6</ele>
        <time>2015-02-23T20:33:19.185Z</time>
      </trkpt>
      <trkpt lat="48.83411" lon="2.32215">
        <ele>119.6</ele>
        <time>2015-02-23T20:33:20.200Z</time>
      </trkpt>
      <trkpt lat="48.83405" lon="2.32224">
        <ele>119.8</ele>
        <time>2015-02-23T20:33:22.135Z</time>
      </trkpt>
      <trkpt lat="48.83403" lon="2.32228">
        <ele>119.8</ele>
        <time>2015-02-23T20:33:23.147Z</time>
      </trkpt>
      <trkpt lat="48.83398" lon="2.32237">
        <ele>119.8</ele>
        <time>2015-02-23T20:33:25.181Z</time>
      </trkpt>
      <trkpt lat="48.83396" lon="2.32241">
        <ele>119.8</ele>
        <time>2015-02-23T20:33:26.203Z</time>
      </trkpt>
      <trkpt lat="48.83391" lon="2.32249">
        <ele>119.9</ele>
        <time>2015-02-23T20:33:28.141Z</time>
      </trkpt>
      <trkpt lat="48.83389" lon="2.32253">
        <ele>119.8</ele>
        <time>2015-02-23T20:33:29.219Z</time>
      </trkpt>
      <trkpt lat="48.83384" lon="2.32258">
        <ele>119.7</ele>
        <time>2015-02-23T20:33:31.219Z</time>
      </trkpt>
      <trkpt lat="48.83382" lon="2.32264">
        <ele>119.6</ele>
        <time>2015-02-23T20:33:32.096Z</time>
      </trkpt>
      <trkpt lat="48.83377" lon="2.32275">
        <ele>119.6</ele>
        <time>2015-02-23T20:33:34.164Z</time>
      </trkpt>
      <trkpt lat="48.83374" lon="2.3228">
        <ele>119.6</ele>
        <time>2015-02-23T20:33:35.168Z</time>
      </trkpt>
      <trkpt lat="48.8337" lon="2.32284">
        <ele>119.4</ele>
        <time>2015-02-23T20:33:36.204Z</time>
      </trkpt>
      <trkpt lat="48.83366" lon="2.3229">
        <ele>119.3</ele>
        <time>2015-02-23T20:33:37.217Z</time>
      </trkpt>
      <trkpt lat="48.83363" lon="2.32295">
        <ele>119.2</ele>
        <time>2015-02-23T20:33:38.160Z</time>
      </trkpt>
      <trkpt lat="48.8336" lon="2.32301">
        <ele>119</ele>
        <time>2015-02-23T20:33:39.149Z</time>
      </trkpt>
      <trkpt lat="48.83357" lon="2.32307">
        <ele>119</ele>
        <time>2015-02-23T20:33:40.166Z</time>
      </trkpt>
      <trkpt lat="48.83355" lon="2.32318">
        <ele>119.2</ele>
        <time>2015-02-23T20:33:41.208Z</time>
      </trkpt>
      <trkpt lat="48.83353" lon="2.32326">
        <ele>119.2</ele>
        <time>2015-02-23T20:33:42.124Z</time>
      </trkpt>
      <trkpt lat="48.8335" lon="2.32333">
        <ele>119.3</ele>
        <time>2015-02-23T20:33:43.155Z</time>
      </trkpt>
      <trkpt lat="48.83345" lon="2.32343">
        <ele>119.4</ele>
        <time>2015-02-23T20:33:45.173Z</time>
      </trkpt>
      <trkpt lat="48.83342" lon="2.32347">
        <ele>119.5</ele>
        <time>2015-02-23T20:33:46.180Z</time>
      </trkpt>
      <trkpt lat="48.83339" lon="2.32352">
        <ele>119.6</ele>
        <time>2015-02-23T20:33:47.215Z</time>
      </trkpt>
      <trkpt lat="48.83336" lon="2.32358">
        <ele>119.8</ele>
        <time>2015-02-23T20:33:48.114Z</time>
      </trkpt>
      <trkpt lat="48.83333" lon="2.32363">
        <ele>119.9</ele>
        <time>2015-02-23T20:33:49.147Z</time>
      </trkpt>
      <trkpt lat="48.83329" lon="2.32368">
        <ele>120.1</ele>
        <time>2015-02-23T20:33:50.194Z</time>
      </trkpt>
      <trkpt lat="48.83326" lon="2.32373">
        <ele>120.2</ele>
        <time>2015-02-23T20:33:51.216Z</time>
      </trkpt>
      <trkpt lat="48.83323" lon="2.32378">
        <ele>120.1</ele>
        <time>2015-02-23T20:33:52.208Z</time>
      </trkpt>
      <trkpt lat="48.8332" lon="2.32383">
        <ele>120.1</ele>
        <time>2015-02-23T20:33:53.187Z</time>
      </trkpt>
      <trkpt lat="48.83317" lon="2.32389">
        <ele>120.1</ele>
        <time>2015-02-23T20:33:54.193Z</time>
      </trkpt>
      <trkpt lat="48.83314" lon="2.32396">
        <ele>119.1</ele>
        <time>2015-02-23T20:33:55.203Z</time>
      </trkpt>
      <trkpt lat="48.83313" lon="2.32403">
        <ele>118.7</ele>
        <time>2015-02-23T20:33:56.106Z</time>
      </trkpt>
      <trkpt lat="48.83315" lon="2.32416">
        <ele>118.1</ele>
        <time>2015-02-23T20:33:57.150Z</time>
      </trkpt>
      <trkpt lat="48.83314" lon="2.32426">
        <ele>117.7</ele>
        <time>2015-02-23T20:33:58.165Z</time>
      </trkpt>
      <trkpt lat="48.83313" lon="2.32433">
        <ele>117.6</ele>
        <time>2015-02-23T20:33:59.198Z</time>
      </trkpt>
      <trkpt lat="48.8331" lon="2.32439">
        <ele>116.9</ele>
        <time>2015-02-23T20:34:00.207Z</time>
      </trkpt>
      <trkpt lat="48.83305" lon="2.32449">
        <ele>116.2</ele>
        <time>2015-02-23T20:34:04.157Z</time>
      </trkpt>
      <trkpt lat="48.83306" lon="2.32451">
        <ele>116.3</ele>
        <time>2015-02-23T20:34:05.167Z</time>
      </trkpt>
      <trkpt lat="48.83305" lon="2.32459">
        <ele>115.5</ele>
        <time>2015-02-23T20:34:09.155Z</time>
      </trkpt>
      <trkpt lat="48.83305" lon="2.32461">
        <ele>114.9</ele>
        <time>2015-02-23T20:34:10.275Z</time>
      </trkpt>
      <trkpt lat="48.83305" lon="2.32463">
        <ele>114.6</ele>
        <time>2015-02-23T20:34:17.108Z</time>
      </trkpt>
      <trkpt lat="48.83305" lon="2.32469">
        <ele>115</ele>
        <time>2015-02-23T20:34:18.123Z</time>
      </trkpt>
      <trkpt lat="48.83303" lon="2.32481">
        <ele>113.4</ele>
        <time>2015-02-23T20:34:24.168Z</time>
      </trkpt>
      <trkpt lat="48.83301" lon="2.32484">
        <ele>113.4</ele>
        <time>2015-02-23T20:34:25.146Z</time>
      </trkpt>
      <trkpt lat="48.83294" lon="2.3249">
        <ele>113.3</ele>
        <time>2015-02-23T20:34:28.199Z</time>
      </trkpt>
      <trkpt lat="48.83291" lon="2.32491">
        <ele>113.5</ele>
        <time>2015-02-23T20:34:29.223Z</time>
      </trkpt>
      <trkpt lat="48.83283" lon="2.32496">
        <ele>113.9</ele>
        <time>2015-02-23T20:34:32.151Z</time>
      </trkpt>
      <trkpt lat="48.8328" lon="2.32497">
        <ele>114.3</ele>
        <time>2015-02-23T20:34:33.162Z</time>
      </trkpt>
      <trkpt lat="48.83272" lon="2.32499">
        <ele>115</ele>
        <time>2015-02-23T20:34:35.214Z</time>
      </trkpt>
      <trkpt lat="48.83269" lon="2.32501">
        <ele>115.2</ele>
        <time>2015-02-23T20:34:36.121Z</time>
      </trkpt>
      <trkpt lat="48.83263" lon="2.32507">
        <ele>115.5</ele>
        <time>2015-02-23T20:34:39.177Z</time>
      </trkpt>
      <trkpt lat="48.83261" lon="2.32509">
        <ele>115.5</ele>
        <time>2015-02-23T20:34:40.359Z</time>
      </trkpt>
      <trkpt lat="48.83257" lon="2.32521">
        <ele>114.7</ele>
        <time>2015-02-23T20:34:44.168Z</time>
      </trkpt>
      <trkpt lat="48.83256" lon="2.32524">
        <ele>114.5</ele>
        <time>2015-02-23T20:34:45.174Z</time>
      </trkpt>
      <trkpt lat="48.83255" lon="2.32538">
        <ele>113.5</ele>
        <time>2015-02-23T20:34:50.279Z</time>
      </trkpt>
      <trkpt lat="48.83255" lon="2.3254">
        <ele>113.8</ele>
        <time>2015-02-23T20:34:51.124Z</time>
      </trkpt>
      <trkpt lat="48.83251" lon="2.3255">
        <ele>114.2</ele>
        <time>2015-02-23T20:34:55.204Z</time>
      </trkpt>
      <trkpt lat="48.8325" lon="2.32553">
        <ele>114.3</ele>
        <time>2015-02-23T20:34:56.130Z</time>
      </trkpt>
      <trkpt lat="48.83248" lon="2.32566">
        <ele>114.5</ele>
        <time>2015-02-23T20:35:00.183Z</time>
      </trkpt>
      <trkpt lat="48.83248" lon="2.32569">
        <ele>114.5</ele>
        <time>2015-02-23T20:35:01.174Z</time>
      </trkpt>
      <trkpt lat="48.83243" lon="2.32579">
        <ele>113.9</ele>
        <time>2015-02-23T20:35:04.129Z</time>
      </trkpt>
      <trkpt lat="48.83242" lon="2.32583">
        <ele>114.1</ele>
        <time>2015-02-23T20:35:05.147Z</time>
      </trkpt>
      <trkpt lat="48.83239" lon="2.32594">
        <ele>114.3</ele>
        <time>2015-02-23T20:35:08.210Z</time>
      </trkpt>
      <trkpt lat="48.83238" lon="2.32598">
        <ele>114.2</ele>
        <time>2015-02-23T20:35:09.224Z</time>
      </trkpt>
      <trkpt lat="48.83236" lon="2.32611">
        <ele>114</ele>
        <time>2015-02-23T20:35:12.129Z</time>
      </trkpt>
      <trkpt lat="48.83234" lon="2.32615">
        <ele>114.1</ele>
        <time>2015-02-23T20:35:13.187Z</time>
      </trkpt>
      <trkpt lat="48.83231" lon="2.32627">
        <ele>114.2</ele>
        <time>2015-02-23T20:35:16.202Z</time>
      </trkpt>
      <trkpt lat="48.8323" lon="2.3263">
        <ele>114.3</ele>
        <time>2015-02-23T20:35:17.351Z</time>
      </trkpt>
      <trkpt lat="48.83226" lon="2.32642">
        <ele>113.7</ele>
        <time>2015-02-23T20:35:20.218Z</time>
      </trkpt>
      <trkpt lat="48.83225" lon="2.32646">
        <ele>113.7</ele>
        <time>2015-02-23T20:35:21.132Z</time>
      </trkpt>
      <trkpt lat="48.83225" lon="2.32657">
        <ele>113.7</ele>
        <time>2015-02-23T20:35:24.171Z</time>
      </trkpt>
      <trkpt lat="48.83224" lon="2.32662">
        <ele>113.7</ele>
        <time>2015-02-23T20:35:25.184Z</time>
      </trkpt>
      <trkpt lat="48.83222" lon="2.32672">
        <ele>113.9</ele>
        <time>2015-02-23T20:35:27.114Z</time>
      </trkpt>
      <trkpt lat="48.83221" lon="2.32676">
        <ele>113.6</ele>
        <time>2015-02-23T20:35:28.112Z</time>
      </trkpt>
      <trkpt lat="48.83219" lon="2.32685">
        <ele>113.4</ele>
        <time>2015-02-23T20:35:30.161Z</time>
      </trkpt>
      <trkpt lat="48.83219" lon="2.3269">
        <ele>113.3</ele>
        <time>2015-02-23T20:35:31.198Z</time>
      </trkpt>
      <trkpt lat="48.83216" lon="2.32702">
        <ele>113.9</ele>
        <time>2015-02-23T20:35:34.174Z</time>
      </trkpt>
      <trkpt lat="48.83215" lon="2.32706">
        <ele>114</ele>
        <time>2015-02-23T20:35:35.186Z</time>
      </trkpt>
      <trkpt lat="48.83213" lon="2.32717">
        <ele>114</ele>
        <time>2015-02-23T20:35:37.224Z</time>
      </trkpt>
      <trkpt lat="48.83212" lon="2.32722">
        <ele>114.1</ele>
        <time>2015-02-23T20:35:38.131Z</time>
      </trkpt>
      <trkpt lat="48.83209" lon="2.32733">
        <ele>114.6</ele>
        <time>2015-02-23T20:35:41.145Z</time>
      </trkpt>
      <trkpt lat="48.83207" lon="2.32737">
        <ele>114.8</ele>
        <time>2015-02-23T20:35:42.150Z</time>
      </trkpt>
      <trkpt lat="48.83203" lon="2.32747">
        <ele>115.4</ele>
        <time>2015-02-23T20:35:45.190Z</time>
      </trkpt>
      <trkpt lat="48.83202" lon="2.32751">
        <ele>115.4</ele>
        <time>2015-02-23T20:35:46.203Z</time>
      </trkpt>
      <trkpt lat="48.83198" lon="2.32763">
        <ele>115.9</ele>
        <time>2015-02-23T20:35:49.171Z</time>
      </trkpt>
      <trkpt lat="48.83197" lon="2.32767">
        <ele>116.1</ele>
        <time>2015-02-23T20:35:50.170Z</time>
      </trkpt>
      <trkpt lat="48.83194" lon="2.32775">
        <ele>116.1</ele>
        <time>2015-02-23T20:35:52.203Z</time>
      </trkpt>
      <trkpt lat="48.83192" lon="2.3278">
        <ele>116</ele>
        <time>2015-02-23T20:35:53.216Z</time>
      </trkpt>
      <trkpt lat="48.83189" lon="2.32788">
        <ele>116.1</ele>
        <time>2015-02-23T20:35:55.153Z</time>
      </trkpt>
      <trkpt lat="48.83188" lon="2.32792">
        <ele>116.1</ele>
        <time>2015-02-23T20:35:56.161Z</time>
      </trkpt>
      <trkpt lat="48.83186" lon="2.32801">
        <ele>116</ele>
        <time>2015-02-23T20:35:58.208Z</time>
      </trkpt>
      <trkpt lat="48.83185" lon="2.32805">
        <ele>116.1</ele>
        <time>2015-02-23T20:35:59.225Z</time>
      </trkpt>
      <trkpt lat="48.83183" lon="2.32815">
        <ele>116.7</ele>
        <time>2015-02-23T20:36:02.168Z</time>
      </trkpt>
      <trkpt lat="48.83181" lon="2.32818">
        <ele>116.9</ele>
        <time>2015-02-23T20:36:03.172Z</time>
      </trkpt>
      <trkpt lat="48.83179" lon="2.3283">
        <ele>117.3</ele>
        <time>2015-02-23T20:36:06.137Z</time>
      </trkpt>
      <trkpt lat="48.83178" lon="2.32833">
        <ele>117.4</ele>
        <time>2015-02-23T20:36:07.161Z</time>
      </trkpt>
      <trkpt lat="48.83176" lon="2.32842">
        <ele>117.8</ele>
        <time>2015-02-23T20:36:09.117Z</time>
      </trkpt>
      <trkpt lat="48.83175" lon="2.32846">
        <ele>117.9</ele>
        <time>2015-02-23T20:36:10.110Z</time>
      </trkpt>
      <trkpt lat="48.83171" lon="2.32858">
        <ele>118.2</ele>
        <time>2015-02-23T20:36:13.259Z</time>
      </trkpt>
      <trkpt lat="48.8317" lon="2.32862">
        <ele>118.2</ele>
        <time>2015-02-23T20:36:14.131Z</time>
      </trkpt>
      <trkpt lat="48.83166" lon="2.32872">
        <ele>118.7</ele>
        <time>2015-02-23T20:36:17.181Z</time>
      </trkpt>
      <trkpt lat="48.83164" lon="2.32875">
        <ele>118.7</ele>
        <time>2015-02-23T20:36:18.204Z</time>
      </trkpt>
      <trkpt lat="48.8316" lon="2.32887">
        <ele>119.2</ele>
        <time>2015-02-23T20:36:21.148Z</time>
      </trkpt>
      <trkpt lat="48.83159" lon="2.32892">
        <ele>119.5</ele>
        <time>2015-02-23T20:36:22.162Z</time>
      </trkpt>
      <trkpt lat="48.83155" lon="2.32902">
        <ele>120.2</ele>
        <time>2015-02-23T20:36:25.209Z</time>
      </trkpt>
      <trkpt lat="48.83154" lon="2.32905">
        <ele>120.2</ele>
        <time>2015-02-23T20:36:26.213Z</time>
      </trkpt>
      <trkpt lat="48.83151" lon="2.32917">
        <ele>120.1</ele>
        <time>2015-02-23T20:36:29.133Z</time>
      </trkpt>
      <trkpt lat="48.83151" lon="2.32921">
        <ele>120.1</ele>
        <time>2015-02-23T20:36:30.203Z</time>
      </trkpt>
      <trkpt lat="48.83151" lon="2.32932">
        <ele>119.7</ele>
        <time>2015-02-23T20:36:32.136Z</time>
      </trkpt>
      <trkpt lat="48.8315" lon="2.32937">
        <ele>119.6</ele>
        <time>2015-02-23T20:36:33.199Z</time>
      </trkpt>
      <trkpt lat="48.83148" lon="2.32949">
        <ele>118.7</ele>
        <time>2015-02-23T20:36:35.121Z</time>
      </trkpt>
      <trkpt lat="48.83147" lon="2.32954">
        <ele>118.4</ele>
        <time>2015-02-23T20:36:36.133Z</time>
      </trkpt>
      <trkpt lat="48.83145" lon="2.32966">
        <ele>117.5</ele>
        <time>2015-02-23T20:36:39.177Z</time>
      </trkpt>
      <trkpt lat="48.83144" lon="2.32968">
        <ele>117.4</ele>
        <time>2015-02-23T20:36:40.191Z</time>
      </trkpt>
      <trkpt lat="48.83145" lon="2.32973">
        <ele>117.5</ele>
        <time>2015-02-23T20:36:43.167Z</time>
      </trkpt>
      <trkpt lat="48.83146" lon="2.32974">
        <ele>117.5</ele>
        <time>2015-02-23T20:36:44.092Z</time>
      </trkpt>
      <trkpt lat="48.83146" lon="2.32974">
        <ele>117.4</ele>
        <time>2015-02-23T20:37:10.098Z</time>
      </trkpt>
      <trkpt lat="48.83148" lon="2.32978">
        <ele>117.6</ele>
        <time>2015-02-23T20:37:11.127Z</time>
      </trkpt>
      <trkpt lat="48.8314" lon="2.32982">
        <ele>118.6</ele>
        <time>2015-02-23T20:37:17.187Z</time>
      </trkpt>
      <trkpt lat="48.83136" lon="2.32982">
        <ele>118.7</ele>
        <time>2015-02-23T20:37:18.210Z</time>
      </trkpt>
      <trkpt lat="48.83128" lon="2.32983">
        <ele>119.8</ele>
        <time>2015-02-23T20:37:24.093Z</time>
      </trkpt>
      <trkpt lat="48.83127" lon="2.32985">
        <ele>120.3</ele>
        <time>2015-02-23T20:37:25.163Z</time>
      </trkpt>
      <trkpt lat="48.83122" lon="2.32991">
        <ele>120.6</ele>
        <time>2015-02-23T20:37:28.209Z</time>
      </trkpt>
      <trkpt lat="48.83121" lon="2.32994">
        <ele>120.9</ele>
        <time>2015-02-23T20:37:29.174Z</time>
      </trkpt>
      <trkpt lat="48.83116" lon="2.33003">
        <ele>121.2</ele>
        <time>2015-02-23T20:37:31.287Z</time>
      </trkpt>
      <trkpt lat="48.83114" lon="2.33009">
        <ele>121.3</ele>
        <time>2015-02-23T20:37:32.282Z</time>
      </trkpt>
      <trkpt lat="48.8311" lon="2.3302">
        <ele>121.6</ele>
        <time>2015-02-23T20:37:34.124Z</time>
      </trkpt>
      <trkpt lat="48.83107" lon="2.33025">
        <ele>121.8</ele>
        <time>2015-02-23T20:37:35.146Z</time>
      </trkpt>
      <trkpt lat="48.83101" lon="2.33034">
        <ele>121.9</ele>
        <time>2015-02-23T20:37:37.204Z</time>
      </trkpt>
      <trkpt lat="48.83099" lon="2.3304">
        <ele>122.1</ele>
        <time>2015-02-23T20:37:38.112Z</time>
      </trkpt>
      <trkpt lat="48.83095" lon="2.33052">
        <ele>122.5</ele>
        <time>2015-02-23T20:37:40.117Z</time>
      </trkpt>
      <trkpt lat="48.83092" lon="2.33058">
        <ele>122.6</ele>
        <time>2015-02-23T20:37:41.140Z</time>
      </trkpt>
      <trkpt lat="48.83088" lon="2.33069">
        <ele>122.5</ele>
        <time>2015-02-23T20:37:43.169Z</time>
      </trkpt>
      <trkpt lat="48.83085" lon="2.33076">
        <ele>122.8</ele>
        <time>2015-02-23T20:37:44.178Z</time>
      </trkpt>
      <trkpt lat="48.83081" lon="2.33087">
        <ele>123</ele>
        <time>2015-02-23T20:37:46.103Z</time>
      </trkpt>
      <trkpt lat="48.83079" lon="2.33092">
        <ele>123</ele>
        <time>2015-02-23T20:37:47.114Z</time>
      </trkpt>
      <trkpt lat="48.83074" lon="2.33103">
        <ele>123.2</ele>
        <time>2015-02-23T20:37:49.170Z</time>
      </trkpt>
      <trkpt lat="48.83072" lon="2.33109">
        <ele>123.1</ele>
        <time>2015-02-23T20:37:50.189Z</time>
      </trkpt>
      <trkpt lat="48.8307" lon="2.33116">
        <ele>123</ele>
        <time>2015-02-23T20:37:51.129Z</time>
      </trkpt>
      <trkpt lat="48.83069" lon="2.33126">
        <ele>122</ele>
        <time>2015-02-23T20:37:52.143Z</time>
      </trkpt>
      <trkpt lat="48.83068" lon="2.33137">
        <ele>120.9</ele>
        <time>2015-02-23T20:37:53.155Z</time>
      </trkpt>
      <trkpt lat="48.83067" lon="2.33146">
        <ele>120.4</ele>
        <time>2015-02-23T20:37:54.181Z</time>
      </trkpt>
      <trkpt lat="48.83066" lon="2.33153">
        <ele>120.3</ele>
        <time>2015-02-23T20:37:55.137Z</time>
      </trkpt>
      <trkpt lat="48.83065" lon="2.3316">
        <ele>120.2</ele>
        <time>2015-02-23T20:37:56.131Z</time>
      </trkpt>
      <trkpt lat="48.83063" lon="2.33167">
        <ele>120</ele>
        <time>2015-02-23T20:37:57.163Z</time>
      </trkpt>
      <trkpt lat="48.83063" lon="2.33174">
        <ele>119.8</ele>
        <time>2015-02-23T20:37:58.176Z</time>
      </trkpt>
      <trkpt lat="48.83063" lon="2.33181">
        <ele>119.6</ele>
        <time>2015-02-23T20:37:59.100Z</time>
      </trkpt>
      <trkpt lat="48.83061" lon="2.33189">
        <ele>119.5</ele>
        <time>2015-02-23T20:38:00.108Z</time>
      </trkpt>
      <trkpt lat="48.8306" lon="2.33196">
        <ele>119.5</ele>
        <time>2015-02-23T20:38:01.152Z</time>
      </trkpt>
      <trkpt lat="48.83058" lon="2.33204">
        <ele>119.3</ele>
        <time>2015-02-23T20:38:02.156Z</time>
      </trkpt>
      <trkpt lat="48.83058" lon="2.33211">
        <ele>119.1</ele>
        <time>2015-02-23T20:38:03.174Z</time>
      </trkpt>
      <trkpt lat="48.83058" lon="2.33218">
        <ele>118.7</ele>
        <time>2015-02-23T20:38:04.091Z</time>
      </trkpt>
      <trkpt lat="48.8306" lon="2.33226">
        <ele>118.4</ele>
        <time>2015-02-23T20:38:05.086Z</time>
      </trkpt>
      <trkpt lat="48.83062" lon="2.33234">
        <ele>118.2</ele>
        <time>2015-02-23T20:38:06.131Z</time>
      </trkpt>
      <trkpt lat="48.83062" lon="2.33241">
        <ele>118</ele>
        <time>2015-02-23T20:38:07.140Z</time>
      </trkpt>
      <trkpt lat="48.83063" lon="2.33249">
        <ele>117.9</ele>
        <time>2015-02-23T20:38:08.148Z</time>
      </trkpt>
      <trkpt lat="48.83064" lon="2.33256">
        <ele>117.8</ele>
        <time>2015-02-23T20:38:09.161Z</time>
      </trkpt>
      <trkpt lat="48.83065" lon="2.33263">
        <ele>117.7</ele>
        <time>2015-02-23T20:38:10.127Z</time>
      </trkpt>
      <trkpt lat="48.83066" lon="2.33276">
        <ele>117.4</ele>
        <time>2015-02-23T20:38:12.076Z</time>
      </trkpt>
      <trkpt lat="48.83066" lon="2.33282">
        <ele>117.3</ele>
        <time>2015-02-23T20:38:13.133Z</time>
      </trkpt>
      <trkpt lat="48.83068" lon="2.33292">
        <ele>116.6</ele>
        <time>2015-02-23T20:38:15.089Z</time>
      </trkpt>
      <trkpt lat="48.83069" lon="2.33296">
        <ele>116</ele>
        <time>2015-02-23T20:38:16.112Z</time>
      </trkpt>
      <trkpt lat="48.8307" lon="2.33306">
        <ele>116.2</ele>
        <time>2015-02-23T20:38:18.107Z</time>
      </trkpt>
      <trkpt lat="48.83069" lon="2.33312">
        <ele>116.6</ele>
        <time>2015-02-23T20:38:19.169Z</time>
      </trkpt>
      <trkpt lat="48.8307" lon="2.33323">
        <ele>116.9</ele>
        <time>2015-02-23T20:38:21.188Z</time>
      </trkpt>
      <trkpt lat="48.83073" lon="2.33326">
        <ele>116.9</ele>
        <time>2015-02-23T20:38:22.187Z</time>
      </trkpt>
      <trkpt lat="48.83077" lon="2.33335">
        <ele>117.1</ele>
        <time>2015-02-23T20:38:24.179Z</time>
      </trkpt>
      <trkpt lat="48.83078" lon="2.33339">
        <ele>117.3</ele>
        <time>2015-02-23T20:38:25.255Z</time>
      </trkpt>
      <trkpt lat="48.83076" lon="2.33352">
        <ele>117.1</ele>
        <time>2015-02-23T20:38:32.115Z</time>
      </trkpt>
      <trkpt lat="48.83077" lon="2.33355">
        <ele>117.4</ele>
        <time>2015-02-23T20:38:33.130Z</time>
      </trkpt>
      <trkpt lat="48.8308" lon="2.33367">
        <ele>117.4</ele>
        <time>2015-02-23T20:38:38.229Z</time>
      </trkpt>
      <trkpt lat="48.83081" lon="2.3337">
        <ele>117.5</ele>
        <time>2015-02-23T20:38:39.125Z</time>
      </trkpt>
      <trkpt lat="48.83079" lon="2.33381">
        <ele>118.4</ele>
        <time>2015-02-23T20:38:42.176Z</time>
      </trkpt>
      <trkpt lat="48.8308" lon="2.33385">
        <ele>118.6</ele>
        <time>2015-02-23T20:38:43.183Z</time>
      </trkpt>
      <trkpt lat="48.83083" lon="2.33395">
        <ele>118.8</ele>
        <time>2015-02-23T20:38:46.211Z</time>
      </trkpt>
      <trkpt lat="48.83084" lon="2.33399">
        <ele>118.7</ele>
        <time>2015-02-23T20:38:47.123Z</time>
      </trkpt>
      <trkpt lat="48.83085" lon="2.33411">
        <ele>118.5</ele>
        <time>2015-02-23T20:38:50.177Z</time>
      </trkpt>
      <trkpt lat="48.83085" lon="2.33416">
        <ele>118.2</ele>
        <time>2015-02-23T20:38:51.199Z</time>
      </trkpt>
      <trkpt lat="48.83084" lon="2.33425">
        <ele>118</ele>
        <time>2015-02-23T20:38:53.166Z</time>
      </trkpt>
      <trkpt lat="48.83081" lon="2.33431">
        <ele>117.8</ele>
        <time>2015-02-23T20:38:54.259Z</time>
      </trkpt>
      <trkpt lat="48.83082" lon="2.33441">
        <ele>117.7</ele>
        <time>2015-02-23T20:39:03.166Z</time>
      </trkpt>
      <trkpt lat="48.83086" lon="2.33445">
        <ele>117.9</ele>
        <time>2015-02-23T20:39:04.181Z</time>
      </trkpt>
      <trkpt lat="48.83092" lon="2.33451">
        <ele>118</ele>
        <time>2015-02-23T20:39:06.132Z</time>
      </trkpt>
      <trkpt lat="48.83094" lon="2.33453">
        <ele>118</ele>
        <time>2015-02-23T20:39:07.207Z</time>
      </trkpt>
      <trkpt lat="48.83102" lon="2.33456">
        <ele>119.6</ele>
        <time>2015-02-23T20:39:11.166Z</time>
      </trkpt>
      <trkpt lat="48.83103" lon="2.33457">
        <ele>119.8</ele>
        <time>2015-02-23T20:39:12.314Z</time>
      </trkpt>
      <trkpt lat="48.83104" lon="2.33468">
        <ele>120.2</ele>
        <time>2015-02-23T20:39:17.186Z</time>
      </trkpt>
      <trkpt lat="48.83103" lon="2.33471">
        <ele>120.2</ele>
        <time>2015-02-23T20:39:18.217Z</time>
      </trkpt>
      <trkpt lat="48.83099" lon="2.33478">
        <ele>120.4</ele>
        <time>2015-02-23T20:39:20.172Z</time>
      </trkpt>
      <trkpt lat="48.83097" lon="2.33483">
        <ele>120.3</ele>
        <time>2015-02-23T20:39:21.212Z</time>
      </trkpt>
      <trkpt lat="48.83093" lon="2.33491">
        <ele>120.1</ele>
        <time>2015-02-23T20:39:23.089Z</time>
      </trkpt>
      <trkpt lat="48.8309" lon="2.33494">
        <ele>120.4</ele>
        <time>2015-02-23T20:39:24.148Z</time>
      </trkpt>
      <trkpt lat="48.83086" lon="2.33505">
        <ele>120.3</ele>
        <time>2015-02-23T20:39:27.175Z</time>
      </trkpt>
      <trkpt lat="48.83085" lon="2.3351">
        <ele>120.3</ele>
        <time>2015-02-23T20:39:28.185Z</time>
      </trkpt>
      <trkpt lat="48.83082" lon="2.33522">
        <ele>120.2</ele>
        <time>2015-02-23T20:39:31.171Z</time>
      </trkpt>
      <trkpt lat="48.83081" lon="2.33526">
        <ele>120.6</ele>
        <time>2015-02-23T20:39:32.259Z</time>
      </trkpt>
      <trkpt lat="48.83077" lon="2.33538">
        <ele>121.3</ele>
        <time>2015-02-23T20:39:35.192Z</time>
      </trkpt>
      <trkpt lat="48.83076" lon="2.33543">
        <ele>121.1</ele>
        <time>2015-02-23T20:39:36.142Z</time>
      </trkpt>
      <trkpt lat="48.83076" lon="2.33556">
        <ele>119.7</ele>
        <time>2015-02-23T20:39:38.139Z</time>
      </trkpt>
      <trkpt lat="48.83078" lon="2.33566">
        <ele>118.9</ele>
        <time>2015-02-23T20:39:39.154Z</time>
      </trkpt>
      <trkpt lat="48.83076" lon="2.33576">
        <ele>118.3</ele>
        <time>2015-02-23T20:39:41.089Z</time>
      </trkpt>
      <trkpt lat="48.83075" lon="2.33581">
        <ele>117.8</ele>
        <time>2015-02-23T20:39:42.103Z</time>
      </trkpt>
      <trkpt lat="48.83074" lon="2.33589">
        <ele>117.3</ele>
        <time>2015-02-23T20:39:44.121Z</time>
      </trkpt>
      <trkpt lat="48.83073" lon="2.33594">
        <ele>117.1</ele>
        <time>2015-02-23T20:39:45.136Z</time>
      </trkpt>
      <trkpt lat="48.83072" lon="2.33603">
        <ele>116.8</ele>
        <time>2015-02-23T20:39:47.091Z</time>
      </trkpt>
      <trkpt lat="48.83073" lon="2.33608">
        <ele>116.4</ele>
        <time>2015-02-23T20:39:48.107Z</time>
      </trkpt>
      <trkpt lat="48.83074" lon="2.33618">
        <ele>115.9</ele>
        <time>2015-02-23T20:39:50.141Z</time>
      </trkpt>
      <trkpt lat="48.83076" lon="2.33624">
        <ele>115.6</ele>
        <time>2015-02-23T20:39:51.158Z</time>
      </trkpt>
      <trkpt lat="48.83077" lon="2.33636">
        <ele>115.2</ele>
        <time>2015-02-23T20:39:53.192Z</time>
      </trkpt>
      <trkpt lat="48.83078" lon="2.33643">
        <ele>115.1</ele>
        <time>2015-02-23T20:39:54.097Z</time>
      </trkpt>
      <trkpt lat="48.8308" lon="2.33649">
        <ele>115.2</ele>
        <time>2015-02-23T20:39:55.134Z</time>
      </trkpt>
      <trkpt lat="48.8308" lon="2.33657">
        <ele>115.3</ele>
        <time>2015-02-23T20:39:56.141Z</time>
      </trkpt>
      <trkpt lat="48.83082" lon="2.33665">
        <ele>114.7</ele>
        <time>2015-02-23T20:39:57.174Z</time>
      </trkpt>
      <trkpt lat="48.83084" lon="2.33671">
        <ele>114.9</ele>
        <time>2015-02-23T20:39:58.173Z</time>
      </trkpt>
      <trkpt lat="48.83085" lon="2.33677">
        <ele>115.1</ele>
        <time>2015-02-23T20:39:59.190Z</time>
      </trkpt>
      <trkpt lat="48.83088" lon="2.33685">
        <ele>115.3</ele>
        <time>2015-02-23T20:40:00.235Z</time>
      </trkpt>
      <trkpt lat="48.8309" lon="2.33693">
        <ele>115.2</ele>
        <time>2015-02-23T20:40:01.170Z</time>
      </trkpt>
      <trkpt lat="48.83091" lon="2.33701">
        <ele>115.2</ele>
        <time>2015-02-23T20:40:02.167Z</time>
      </trkpt>
      <trkpt lat="48.83093" lon="2.3371">
        <ele>115.1</ele>
        <time>2015-02-23T20:40:03.184Z</time>
      </trkpt>
      <trkpt lat="48.83094" lon="2.33718">
        <ele>114.9</ele>
        <time>2015-02-23T20:40:04.197Z</time>
      </trkpt>
      <trkpt lat="48.83096" lon="2.33725">
        <ele>114.8</ele>
        <time>2015-02-23T20:40:05.096Z</time>
      </trkpt>
      <trkpt lat="48.83099" lon="2.33734">
        <ele>114.4</ele>
        <time>2015-02-23T20:40:06.095Z</time>
      </trkpt>
      <trkpt lat="48.831" lon="2.33743">
        <ele>114.4</ele>
        <time>2015-02-23T20:40:07.148Z</time>
      </trkpt>
      <trkpt lat="48.83101" lon="2.3375">
        <ele>114.4</ele>
        <time>2015-02-23T20:40:08.166Z</time>
      </trkpt>
      <trkpt lat="48.83104" lon="2.33755">
        <ele>114.7</ele>
        <time>2015-02-23T20:40:09.180Z</time>
      </trkpt>
      <trkpt lat="48.83104" lon="2.33763">
        <ele>114.7</ele>
        <time>2015-02-23T20:40:10.099Z</time>
      </trkpt>
      <trkpt lat="48.83108" lon="2.33773">
        <ele>113.6</ele>
        <time>2015-02-23T20:40:12.118Z</time>
      </trkpt>
      <trkpt lat="48.83111" lon="2.33778">
        <ele>113.3</ele>
        <time>2015-02-23T20:40:13.132Z</time>
      </trkpt>
      <trkpt lat="48.83115" lon="2.33783">
        <ele>113.5</ele>
        <time>2015-02-23T20:40:14.168Z</time>
      </trkpt>
      <trkpt lat="48.83125" lon="2.33779">
        <ele>112.9</ele>
        <time>2015-02-23T20:40:15.187Z</time>
      </trkpt>
      <trkpt lat="48.83132" lon="2.33778">
        <ele>113.1</ele>
        <time>2015-02-23T20:40:16.116Z</time>
      </trkpt>
      <trkpt lat="48.83139" lon="2.33774">
        <ele>112.9</ele>
        <time>2015-02-23T20:40:17.113Z</time>
      </trkpt>
      <trkpt lat="48.83144" lon="2.33771">
        <ele>112.7</ele>
        <time>2015-02-23T20:40:18.122Z</time>
      </trkpt>
      <trkpt lat="48.83148" lon="2.33768">
        <ele>112.4</ele>
        <time>2015-02-23T20:40:19.213Z</time>
      </trkpt>
      <trkpt lat="48.83151" lon="2.3376">
        <ele>112.5</ele>
        <time>2015-02-23T20:40:21.099Z</time>
      </trkpt>
      <trkpt lat="48.83152" lon="2.33755">
        <ele>112.9</ele>
        <time>2015-02-23T20:40:22.112Z</time>
      </trkpt>
      <trkpt lat="48.83155" lon="2.33746">
        <ele>113.4</ele>
        <time>2015-02-23T20:40:24.137Z</time>
      </trkpt>
      <trkpt lat="48.83156" lon="2.33741">
        <ele>113.9</ele>
        <time>2015-02-23T20:40:25.150Z</time>
      </trkpt>
      <trkpt lat="48.83157" lon="2.3373">
        <ele>114.8</ele>
        <time>2015-02-23T20:40:27.116Z</time>
      </trkpt>
      <trkpt lat="48.83159" lon="2.33727">
        <ele>115</ele>
        <time>2015-02-23T20:40:28.129Z</time>
      </trkpt>
      <trkpt lat="48.83163" lon="2.33719">
        <ele>115.2</ele>
        <time>2015-02-23T20:40:31.189Z</time>
      </trkpt>
      <trkpt lat="48.83163" lon="2.33715">
        <ele>114.9</ele>
        <time>2015-02-23T20:40:32.210Z</time>
      </trkpt>
      <trkpt lat="48.83164" lon="2.33702">
        <ele>114.5</ele>
        <time>2015-02-23T20:40:35.186Z</time>
      </trkpt>
      <trkpt lat="48.83165" lon="2.33697">
        <ele>114.4</ele>
        <time>2015-02-23T20:40:36.206Z</time>
      </trkpt>
      <trkpt lat="48.83169" lon="2.33691">
        <ele>114.6</ele>
        <time>2015-02-23T20:40:38.123Z</time>
      </trkpt>
      <trkpt lat="48.83171" lon="2.33687">
        <ele>114.6</ele>
        <time>2015-02-23T20:40:39.118Z</time>
      </trkpt>
      <trkpt lat="48.83175" lon="2.33678">
        <ele>114.8</ele>
        <time>2015-02-23T20:40:41.123Z</time>
      </trkpt>
      <trkpt lat="48.83177" lon="2.33672">
        <ele>115</ele>
        <time>2015-02-23T20:40:42.154Z</time>
      </trkpt>
      <trkpt lat="48.8318" lon="2.3366">
        <ele>115.5</ele>
        <time>2015-02-23T20:40:44.155Z</time>
      </trkpt>
      <trkpt lat="48.83181" lon="2.33654">
        <ele>115.7</ele>
        <time>2015-02-23T20:40:45.160Z</time>
      </trkpt>
      <trkpt lat="48.83184" lon="2.33642">
        <ele>116.1</ele>
        <time>2015-02-23T20:40:47.185Z</time>
      </trkpt>
      <trkpt lat="48.83186" lon="2.33637">
        <ele>116.5</ele>
        <time>2015-02-23T20:40:48.200Z</time>
      </trkpt>
      <trkpt lat="48.83189" lon="2.33628">
        <ele>117.1</ele>
        <time>2015-02-23T20:40:50.131Z</time>
      </trkpt>
      <trkpt lat="48.83191" lon="2.33624">
        <ele>117.4</ele>
        <time>2015-02-23T20:40:51.134Z</time>
      </trkpt>
      <trkpt lat="48.83193" lon="2.33611">
        <ele>118.7</ele>
        <time>2015-02-23T20:40:53.135Z</time>
      </trkpt>
      <trkpt lat="48.83192" lon="2.33601">
        <ele>120.1</ele>
        <time>2015-02-23T20:40:54.271Z</time>
      </trkpt>
      <trkpt lat="48.83192" lon="2.33592">
        <ele>121.3</ele>
        <time>2015-02-23T20:40:55.147Z</time>
      </trkpt>
      <trkpt lat="48.83192" lon="2.33586">
        <ele>122</ele>
        <time>2015-02-23T20:40:56.148Z</time>
      </trkpt>
      <trkpt lat="48.83194" lon="2.33576">
        <ele>122.8</ele>
        <time>2015-02-23T20:40:58.176Z</time>
      </trkpt>
      <trkpt lat="48.83195" lon="2.33571">
        <ele>123.6</ele>
        <time>2015-02-23T20:40:59.188Z</time>
      </trkpt>
      <trkpt lat="48.83198" lon="2.3356">
        <ele>124.1</ele>
        <time>2015-02-23T20:41:02.103Z</time>
      </trkpt>
      <trkpt lat="48.83198" lon="2.33557">
        <ele>123.8</ele>
        <time>2015-02-23T20:41:03.120Z</time>
      </trkpt>
      <trkpt lat="48.83202" lon="2.33545">
        <ele>123.5</ele>
        <time>2015-02-23T20:41:08.203Z</time>
      </trkpt>
      <trkpt lat="48.83203" lon="2.33542">
        <ele>123.8</ele>
        <time>2015-02-23T20:41:09.213Z</time>
      </trkpt>
      <trkpt lat="48.83207" lon="2.3353">
        <ele>127.3</ele>
        <time>2015-02-23T20:41:16.680Z</time>
      </trkpt>
      <trkpt lat="48.83207" lon="2.3353">
        <ele>127.6</ele>
        <time>2015-02-23T20:41:17.238Z</time>
      </trkpt>
      <trkpt lat="48.83209" lon="2.33535">
        <ele>132</ele>
        <time>2015-02-23T20:42:29.105Z</time>
      </trkpt>
      <trkpt lat="48.83209" lon="2.33536">
        <ele>132.2</ele>
        <time>2015-02-23T20:42:30.696Z</time>
      </trkpt>
      <trkpt lat="48.83209" lon="2.33535">
        <ele>132.4</ele>
        <time>2015-02-23T20:42:31.170Z</time>
      </trkpt>
      <trkpt lat="48.83209" lon="2.33534">
        <ele>132.7</ele>
        <time>2015-02-23T20:42:32.182Z</time>
      </trkpt>
      <trkpt lat="48.83209" lon="2.33534">
        <ele>132.8</ele>
        <time>2015-02-23T20:42:33.101Z</time>
      </trkpt>
      <trkpt lat="48.83209" lon="2.33534">
        <ele>133</ele>
        <time>2015-02-23T20:43:01.194Z</time>
      </trkpt>
      <trkpt lat="48.83205" lon="2.33532">
        <ele>132.8</ele>
        <time>2015-02-23T20:43:02.213Z</time>
      </trkpt>
      <trkpt lat="48.83204" lon="2.33532">
        <ele>132.8</ele>
        <time>2015-02-23T20:43:03.112Z</time>
      </trkpt>
      <trkpt lat="48.83204" lon="2.33531">
        <ele>132.8</ele>
        <time>2015-02-23T20:43:04.180Z</time>
      </trkpt>
      <trkpt lat="48.83204" lon="2.33531">
        <ele>133</ele>
        <time>2015-02-23T20:43:05.106Z</time>
      </trkpt>
      <trkpt lat="48.83212" lon="2.3353">
        <ele>132.9</ele>
        <time>2015-02-23T20:43:26.735Z</time>
      </trkpt>
      <trkpt lat="48.83213" lon="2.33531">
        <ele>132.6</ele>
        <time>2015-02-23T20:43:27.106Z</time>
      </trkpt>
      <trkpt lat="48.8322" lon="2.33536">
        <ele>131.9</ele>
        <time>2015-02-23T20:43:30.182Z</time>
      </trkpt>
      <trkpt lat="48.83223" lon="2.33538">
        <ele>131.8</ele>
        <time>2015-02-23T20:43:31.143Z</time>
      </trkpt>
      <trkpt lat="48.83228" lon="2.33543">
        <ele>131.2</ele>
        <time>2015-02-23T20:43:33.159Z</time>
      </trkpt>
      <trkpt lat="48.83231" lon="2.33545">
        <ele>130.8</ele>
        <time>2015-02-23T20:43:34.169Z</time>
      </trkpt>
      <trkpt lat="48.83238" lon="2.3355">
        <ele>130.5</ele>
        <time>2015-02-23T20:43:36.962Z</time>
      </trkpt>
      <trkpt lat="48.83241" lon="2.33553">
        <ele>130.2</ele>
        <time>2015-02-23T20:43:37.200Z</time>
      </trkpt>
      <trkpt lat="48.83248" lon="2.33558">
        <ele>129.8</ele>
        <time>2015-02-23T20:43:39.117Z</time>
      </trkpt>
      <trkpt lat="48.83251" lon="2.33561">
        <ele>129.6</ele>
        <time>2015-02-23T20:43:40.145Z</time>
      </trkpt>
      <trkpt lat="48.83257" lon="2.33566">
        <ele>129.3</ele>
        <time>2015-02-23T20:43:42.168Z</time>
      </trkpt>
      <trkpt lat="48.8326" lon="2.33569">
        <ele>129.1</ele>
        <time>2015-02-23T20:43:43.192Z</time>
      </trkpt>
      <trkpt lat="48.83266" lon="2.33573">
        <ele>129</ele>
        <time>2015-02-23T20:43:45.106Z</time>
      </trkpt>
      <trkpt lat="48.83269" lon="2.33576">
        <ele>129</ele>
        <time>2015-02-23T20:43:46.153Z</time>
      </trkpt>
      <trkpt lat="48.83277" lon="2.33579">
        <ele>129</ele>
        <time>2015-02-23T20:43:48.074Z</time>
      </trkpt>
      <trkpt lat="48.8328" lon="2.3358">
        <ele>128.8</ele>
        <time>2015-02-23T20:43:49.112Z</time>
      </trkpt>
      <trkpt lat="48.83286" lon="2.33585">
        <ele>128.5</ele>
        <time>2015-02-23T20:43:51.153Z</time>
      </trkpt>
      <trkpt lat="48.83289" lon="2.33587">
        <ele>128.3</ele>
        <time>2015-02-23T20:43:52.155Z</time>
      </trkpt>
      <trkpt lat="48.83295" lon="2.33591">
        <ele>127.8</ele>
        <time>2015-02-23T20:43:54.203Z</time>
      </trkpt>
      <trkpt lat="48.83298" lon="2.33593">
        <ele>127.6</ele>
        <time>2015-02-23T20:43:55.144Z</time>
      </trkpt>
      <trkpt lat="48.83304" lon="2.33594">
        <ele>127.5</ele>
        <time>2015-02-23T20:43:57.359Z</time>
      </trkpt>
      <trkpt lat="48.83308" lon="2.33595">
        <ele>127.6</ele>
        <time>2015-02-23T20:43:58.235Z</time>
      </trkpt>
      <trkpt lat="48.83315" lon="2.33599">
        <ele>127.4</ele>
        <time>2015-02-23T20:44:00.145Z</time>
      </trkpt>
      <trkpt lat="48.8332" lon="2.33601">
        <ele>127.6</ele>
        <time>2015-02-23T20:44:01.281Z</time>
      </trkpt>
      <trkpt lat="48.83327" lon="2.33605">
        <ele>127.9</ele>
        <time>2015-02-23T20:44:03.222Z</time>
      </trkpt>
      <trkpt lat="48.83331" lon="2.33604">
        <ele>127.8</ele>
        <time>2015-02-23T20:44:04.225Z</time>
      </trkpt>
      <trkpt lat="48.83338" lon="2.33598">
        <ele>127.4</ele>
        <time>2015-02-23T20:44:07.575Z</time>
      </trkpt>
      <trkpt lat="48.8334" lon="2.33595">
        <ele>127.2</ele>
        <time>2015-02-23T20:44:08.206Z</time>
      </trkpt>
      <trkpt lat="48.83342" lon="2.33584">
        <ele>126.3</ele>
        <time>2015-02-23T20:44:11.165Z</time>
      </trkpt>
      <trkpt lat="48.83343" lon="2.33579">
        <ele>125.9</ele>
        <time>2015-02-23T20:44:12.181Z</time>
      </trkpt>
      <trkpt lat="48.83345" lon="2.33568">
        <ele>125.4</ele>
        <time>2015-02-23T20:44:14.110Z</time>
      </trkpt>
      <trkpt lat="48.83346" lon="2.33563">
        <ele>125.2</ele>
        <time>2015-02-23T20:44:15.152Z</time>
      </trkpt>
      <trkpt lat="48.83349" lon="2.33553">
        <ele>124.7</ele>
        <time>2015-02-23T20:44:17.188Z</time>
      </trkpt>
      <trkpt lat="48.8335" lon="2.33548">
        <ele>124.4</ele>
        <time>2015-02-23T20:44:18.187Z</time>
      </trkpt>
      <trkpt lat="48.83354" lon="2.33536">
        <ele>123.9</ele>
        <time>2015-02-23T20:44:20.105Z</time>
      </trkpt>
      <trkpt lat="48.83355" lon="2.3353">
        <ele>123.7</ele>
        <time>2015-02-23T20:44:21.225Z</time>
      </trkpt>
      <trkpt lat="48.83359" lon="2.3352">
        <ele>123.7</ele>
        <time>2015-02-23T20:44:23.124Z</time>
      </trkpt>
      <trkpt lat="48.83361" lon="2.33514">
        <ele>123.5</ele>
        <time>2015-02-23T20:44:24.154Z</time>
      </trkpt>
      <trkpt lat="48.83365" lon="2.33502">
        <ele>123.1</ele>
        <time>2015-02-23T20:44:26.779Z</time>
      </trkpt>
      <trkpt lat="48.83367" lon="2.33496">
        <ele>122.9</ele>
        <time>2015-02-23T20:44:27.134Z</time>
      </trkpt>
      <trkpt lat="48.83369" lon="2.33486">
        <ele>122.5</ele>
        <time>2015-02-23T20:44:29.167Z</time>
      </trkpt>
      <trkpt lat="48.83371" lon="2.3348">
        <ele>122.2</ele>
        <time>2015-02-23T20:44:30.184Z</time>
      </trkpt>
      <trkpt lat="48.83374" lon="2.33469">
        <ele>121.9</ele>
        <time>2015-02-23T20:44:32.115Z</time>
      </trkpt>
      <trkpt lat="48.83375" lon="2.33463">
        <ele>121.8</ele>
        <time>2015-02-23T20:44:33.151Z</time>
      </trkpt>
      <trkpt lat="48.83378" lon="2.33454">
        <ele>121.8</ele>
        <time>2015-02-23T20:44:35.121Z</time>
      </trkpt>
      <trkpt lat="48.8338" lon="2.3345">
        <ele>122.1</ele>
        <time>2015-02-23T20:44:36.145Z</time>
      </trkpt>
      <trkpt lat="48.83382" lon="2.33442">
        <ele>121.9</ele>
        <time>2015-02-23T20:44:38.195Z</time>
      </trkpt>
      <trkpt lat="48.83383" lon="2.33437">
        <ele>121.9</ele>
        <time>2015-02-23T20:44:39.205Z</time>
      </trkpt>
      <trkpt lat="48.83386" lon="2.33429">
        <ele>121.8</ele>
        <time>2015-02-23T20:44:41.928Z</time>
      </trkpt>
      <trkpt lat="48.83387" lon="2.33424">
        <ele>121.9</ele>
        <time>2015-02-23T20:44:42.158Z</time>
      </trkpt>
      <trkpt lat="48.83391" lon="2.33413">
        <ele>121.8</ele>
        <time>2015-02-23T20:44:44.134Z</time>
      </trkpt>
      <trkpt lat="48.83393" lon="2.33407">
        <ele>121.8</ele>
        <time>2015-02-23T20:44:45.131Z</time>
      </trkpt>
      <trkpt lat="48.83397" lon="2.33399">
        <ele>121.9</ele>
        <time>2015-02-23T20:44:47.177Z</time>
      </trkpt>
      <trkpt lat="48.83399" lon="2.33394">
        <ele>122</ele>
        <time>2015-02-23T20:44:48.096Z</time>
      </trkpt>
      <trkpt lat="48.83402" lon="2.33386">
        <ele>122.1</ele>
        <time>2015-02-23T20:44:50.195Z</time>
      </trkpt>
      <trkpt lat="48.83403" lon="2.33382">
        <ele>122</ele>
        <time>2015-02-23T20:44:51.230Z</time>
      </trkpt>
      <trkpt lat="48.83405" lon="2.33372">
        <ele>121.7</ele>
        <time>2015-02-23T20:44:53.162Z</time>
      </trkpt>
      <trkpt lat="48.83406" lon="2.33368">
        <ele>121.7</ele>
        <time>2015-02-23T20:44:54.166Z</time>
      </trkpt>
      <trkpt lat="48.83408" lon="2.33355">
        <ele>121.6</ele>
        <time>2015-02-23T20:44:57.389Z</time>
      </trkpt>
      <trkpt lat="48.83408" lon="2.3335">
        <ele>121.7</ele>
        <time>2015-02-23T20:44:58.332Z</time>
      </trkpt>
      <trkpt lat="48.83408" lon="2.33337">
        <ele>124.7</ele>
        <time>2015-02-23T20:45:04.122Z</time>
      </trkpt>
      <trkpt lat="48.83407" lon="2.33337">
        <ele>125.1</ele>
        <time>2015-02-23T20:45:05.151Z</time>
      </trkpt>
      <trkpt lat="48.83408" lon="2.33337">
        <ele>125.3</ele>
        <time>2015-02-23T20:45:06.184Z</time>
      </trkpt>
      <trkpt lat="48.83407" lon="2.33346">
        <ele>126.2</ele>
        <time>2015-02-23T20:45:15.190Z</time>
      </trkpt>
      <trkpt lat="48.83407" lon="2.33346">
        <ele>126.4</ele>
        <time>2015-02-23T20:45:16.142Z</time>
      </trkpt>
      <trkpt lat="48.83408" lon="2.33344">
        <ele>126.9</ele>
        <time>2015-02-23T20:45:31.848Z</time>
      </trkpt>
      <trkpt lat="48.83412" lon="2.33333">
        <ele>130.8</ele>
        <time>2015-02-23T20:45:32.196Z</time>
      </trkpt>
      <trkpt lat="48.83412" lon="2.33333">
        <ele>130.8</ele>
        <time>2015-02-23T20:45:33.207Z</time>
      </trkpt>
      <trkpt lat="48.83412" lon="2.33333">
        <ele>131</ele>
        <time>2015-02-23T20:45:34.109Z</time>
      </trkpt>
      <trkpt lat="48.83412" lon="2.33332">
        <ele>131.1</ele>
        <time>2015-02-23T20:45:50.202Z</time>
      </trkpt>
      <trkpt lat="48.83411" lon="2.33326">
        <ele>134.3</ele>
        <time>2015-02-23T20:45:51.225Z</time>
      </trkpt>
      <trkpt lat="48.83409" lon="2.33333">
        <ele>136.1</ele>
        <time>2015-02-23T20:45:59.197Z</time>
      </trkpt>
      <trkpt lat="48.83409" lon="2.33333">
        <ele>136.2</ele>
        <time>2015-02-23T20:46:00.089Z</time>
      </trkpt>
      <trkpt lat="48.83409" lon="2.33333">
        <ele>136.6</ele>
        <time>2015-02-23T20:46:01.158Z</time>
      </trkpt>
      <trkpt lat="48.8341" lon="2.33334">
        <ele>136.4</ele>
        <time>2015-02-23T20:46:09.113Z</time>
      </trkpt>
      <trkpt lat="48.8341" lon="2.33334">
        <ele>136.9</ele>
        <time>2015-02-23T20:46:10.143Z</time>
      </trkpt>
      <trkpt lat="48.8341" lon="2.33334">
        <ele>137.4</ele>
        <time>2015-02-23T20:46:13.184Z</time>
      </trkpt>
      <trkpt lat="48.83408" lon="2.33334">
        <ele>137.9</ele>
        <time>2015-02-23T20:46:14.206Z</time>
      </trkpt>
      <trkpt lat="48.8341" lon="2.33323">
        <ele>139.8</ele>
        <time>2015-02-23T20:46:44.129Z</time>
      </trkpt>
      <trkpt lat="48.83411" lon="2.33321">
        <ele>139.8</ele>
        <time>2015-02-23T20:46:45.173Z</time>
      </trkpt>
      <trkpt lat="48.83416" lon="2.33313">
        <ele>140.1</ele>
        <time>2015-02-23T20:46:49.170Z</time>
      </trkpt>
      <trkpt lat="48.83418" lon="2.33311">
        <ele>140.2</ele>
        <time>2015-02-23T20:46:50.201Z</time>
      </trkpt>
      <trkpt lat="48.83424" lon="2.33304">
        <ele>140.4</ele>
        <time>2015-02-23T20:46:54.130Z</time>
      </trkpt>
      <trkpt lat="48.83426" lon="2.33303">
        <ele>140.6</ele>
        <time>2015-02-23T20:46:55.160Z</time>
      </trkpt>
      <trkpt lat="48.83433" lon="2.33295">
        <ele>137.6</ele>
        <time>2015-02-23T20:47:05.218Z</time>
      </trkpt>
      <trkpt lat="48.83433" lon="2.33294">
        <ele>137.2</ele>
        <time>2015-02-23T20:47:06.123Z</time>
      </trkpt>
      <trkpt lat="48.83441" lon="2.33288">
        <ele>135.9</ele>
        <time>2015-02-23T20:47:13.172Z</time>
      </trkpt>
      <trkpt lat="48.83443" lon="2.33287">
        <ele>135.7</ele>
        <time>2015-02-23T20:47:14.167Z</time>
      </trkpt>
      <trkpt lat="48.83451" lon="2.33283">
        <ele>134.8</ele>
        <time>2015-02-23T20:47:19.152Z</time>
      </trkpt>
      <trkpt lat="48.83453" lon="2.33282">
        <ele>134.4</ele>
        <time>2015-02-23T20:47:20.122Z</time>
      </trkpt>
      <trkpt lat="48.83461" lon="2.33278">
        <ele>135.4</ele>
        <time>2015-02-23T20:47:26.842Z</time>
      </trkpt>
      <trkpt lat="48.83461" lon="2.33277">
        <ele>135.7</ele>
        <time>2015-02-23T20:47:27.214Z</time>
      </trkpt>
      <trkpt lat="48.83461" lon="2.33274">
        <ele>135.8</ele>
        <time>2015-02-23T20:47:29.098Z</time>
      </trkpt>
      <trkpt lat="48.83461" lon="2.33273">
        <ele>135.6</ele>
        <time>2015-02-23T20:47:30.120Z</time>
      </trkpt>
      <trkpt lat="48.83462" lon="2.33273">
        <ele>135.6</ele>
        <time>2015-02-23T20:47:31.203Z</time>
      </trkpt>
      <trkpt lat="48.83469" lon="2.33279">
        <ele>134.8</ele>
        <time>2015-02-23T20:47:38.255Z</time>
      </trkpt>
      <trkpt lat="48.8347" lon="2.3328">
        <ele>134.9</ele>
        <time>2015-02-23T20:47:39.098Z</time>
      </trkpt>
      <trkpt lat="48.83478" lon="2.33283">
        <ele>134.2</ele>
        <time>2015-02-23T20:47:44.169Z</time>
      </trkpt>
      <trkpt lat="48.83479" lon="2.33286">
        <ele>132.7</ele>
        <time>2015-02-23T20:47:45.180Z</time>
      </trkpt>
      <trkpt lat="48.83486" lon="2.33292">
        <ele>129.2</ele>
        <time>2015-02-23T20:47:49.147Z</time>
      </trkpt>
      <trkpt lat="48.83487" lon="2.33294">
        <ele>129.2</ele>
        <time>2015-02-23T20:47:50.159Z</time>
      </trkpt>
      <trkpt lat="48.83493" lon="2.33297">
        <ele>128.9</ele>
        <time>2015-02-23T20:47:54.079Z</time>
      </trkpt>
      <trkpt lat="48.83496" lon="2.33298">
        <ele>128.8</ele>
        <time>2015-02-23T20:47:55.149Z</time>
      </trkpt>
      <trkpt lat="48.83501" lon="2.33299">
        <ele>128.3</ele>
        <time>2015-02-23T20:47:57.161Z</time>
      </trkpt>
      <trkpt lat="48.83504" lon="2.33303">
        <ele>126.4</ele>
        <time>2015-02-23T20:47:58.176Z</time>
      </trkpt>
      <trkpt lat="48.83511" lon="2.33311">
        <ele>123.1</ele>
        <time>2015-02-23T20:48:00.127Z</time>
      </trkpt>
      <trkpt lat="48.83513" lon="2.33313">
        <ele>123</ele>
        <time>2015-02-23T20:48:01.133Z</time>
      </trkpt>
      <trkpt lat="48.8352" lon="2.33321">
        <ele>123</ele>
        <time>2015-02-23T20:48:04.106Z</time>
      </trkpt>
      <trkpt lat="48.83522" lon="2.33323">
        <ele>122.9</ele>
        <time>2015-02-23T20:48:05.145Z</time>
      </trkpt>
      <trkpt lat="48.83524" lon="2.33328">
        <ele>122.1</ele>
        <time>2015-02-23T20:48:06.710Z</time>
      </trkpt>
      <trkpt lat="48.83528" lon="2.33333">
        <ele>120.8</ele>
        <time>2015-02-23T20:48:07.109Z</time>
      </trkpt>
      <trkpt lat="48.83532" lon="2.33338">
        <ele>119.9</ele>
        <time>2015-02-23T20:48:08.074Z</time>
      </trkpt>
      <trkpt lat="48.83537" lon="2.33342">
        <ele>119</ele>
        <time>2015-02-23T20:48:09.104Z</time>
      </trkpt>
      <trkpt lat="48.83542" lon="2.33346">
        <ele>118.4</ele>
        <time>2015-02-23T20:48:10.391Z</time>
      </trkpt>
      <trkpt lat="48.83546" lon="2.3335">
        <ele>117.8</ele>
        <time>2015-02-23T20:48:11.133Z</time>
      </trkpt>
      <trkpt lat="48.83551" lon="2.33355">
        <ele>117.5</ele>
        <time>2015-02-23T20:48:12.231Z</time>
      </trkpt>
      <trkpt lat="48.83554" lon="2.33358">
        <ele>117.5</ele>
        <time>2015-02-23T20:48:13.146Z</time>
      </trkpt>
      <trkpt lat="48.8356" lon="2.33364">
        <ele>117.7</ele>
        <time>2015-02-23T20:48:15.166Z</time>
      </trkpt>
      <trkpt lat="48.83563" lon="2.33368">
        <ele>116.9</ele>
        <time>2015-02-23T20:48:16.203Z</time>
      </trkpt>
      <trkpt lat="48.83567" lon="2.33372">
        <ele>116.5</ele>
        <time>2015-02-23T20:48:17.073Z</time>
      </trkpt>
      <trkpt lat="48.83571" lon="2.33376">
        <ele>116</ele>
        <time>2015-02-23T20:48:18.099Z</time>
      </trkpt>
      <trkpt lat="48.83575" lon="2.3338">
        <ele>115.5</ele>
        <time>2015-02-23T20:48:19.160Z</time>
      </trkpt>
      <trkpt lat="48.83578" lon="2.33384">
        <ele>115</ele>
        <time>2015-02-23T20:48:20.159Z</time>
      </trkpt>
      <trkpt lat="48.83585" lon="2.33392">
        <ele>114.1</ele>
        <time>2015-02-23T20:48:22.140Z</time>
      </trkpt>
      <trkpt lat="48.83589" lon="2.33395">
        <ele>114.2</ele>
        <time>2015-02-23T20:48:23.099Z</time>
      </trkpt>
      <trkpt lat="48.83596" lon="2.33403">
        <ele>113.7</ele>
        <time>2015-02-23T20:48:25.137Z</time>
      </trkpt>
      <trkpt lat="48.836" lon="2.33407">
        <ele>113.5</ele>
        <time>2015-02-23T20:48:26.143Z</time>
      </trkpt>
      <trkpt lat="48.83606" lon="2.33415">
        <ele>113.1</ele>
        <time>2015-02-23T20:48:28.183Z</time>
      </trkpt>
      <trkpt lat="48.8361" lon="2.33419">
        <ele>112.9</ele>
        <time>2015-02-23T20:48:29.201Z</time>
      </trkpt>
      <trkpt lat="48.83614" lon="2.33423">
        <ele>112.6</ele>
        <time>2015-02-23T20:48:30.126Z</time>
      </trkpt>
      <trkpt lat="48.83618" lon="2.33427">
        <ele>112.2</ele>
        <time>2015-02-23T20:48:31.178Z</time>
      </trkpt>
      <trkpt lat="48.83622" lon="2.33431">
        <ele>111.9</ele>
        <time>2015-02-23T20:48:32.149Z</time>
      </trkpt>
      <trkpt lat="48.83627" lon="2.33435">
        <ele>111.6</ele>
        <time>2015-02-23T20:48:33.167Z</time>
      </trkpt>
      <trkpt lat="48.83632" lon="2.33439">
        <ele>111.4</ele>
        <time>2015-02-23T20:48:34.278Z</time>
      </trkpt>
      <trkpt lat="48.83636" lon="2.33443">
        <ele>111.1</ele>
        <time>2015-02-23T20:48:35.102Z</time>
      </trkpt>
      <trkpt lat="48.83641" lon="2.33447">
        <ele>110.9</ele>
        <time>2015-02-23T20:48:36.824Z</time>
      </trkpt>
      <trkpt lat="48.83646" lon="2.3345">
        <ele>110.5</ele>
        <time>2015-02-23T20:48:37.137Z</time>
      </trkpt>
      <trkpt lat="48.83651" lon="2.33455">
        <ele>110.2</ele>
        <time>2015-02-23T20:48:38.150Z</time>
      </trkpt>
      <trkpt lat="48.83656" lon="2.33459">
        <ele>110.1</ele>
        <time>2015-02-23T20:48:39.161Z</time>
      </trkpt>
      <trkpt lat="48.83661" lon="2.33464">
        <ele>110</ele>
        <time>2015-02-23T20:48:40.169Z</time>
      </trkpt>
      <trkpt lat="48.83665" lon="2.33469">
        <ele>109.8</ele>
        <time>2015-02-23T20:48:41.220Z</time>
      </trkpt>
      <trkpt lat="48.8367" lon="2.33473">
        <ele>109.5</ele>
        <time>2015-02-23T20:48:42.111Z</time>
      </trkpt>
      <trkpt lat="48.83675" lon="2.33478">
        <ele>109.2</ele>
        <time>2015-02-23T20:48:43.151Z</time>
      </trkpt>
      <trkpt lat="48.8368" lon="2.33483">
        <ele>109</ele>
        <time>2015-02-23T20:48:44.163Z</time>
      </trkpt>
      <trkpt lat="48.83686" lon="2.33488">
        <ele>108.8</ele>
        <time>2015-02-23T20:48:45.173Z</time>
      </trkpt>
      <trkpt lat="48.83691" lon="2.33493">
        <ele>108.5</ele>
        <time>2015-02-23T20:48:46.098Z</time>
      </trkpt>
      <trkpt lat="48.83696" lon="2.33498">
        <ele>108.3</ele>
        <time>2015-02-23T20:48:47.101Z</time>
      </trkpt>
      <trkpt lat="48.83702" lon="2.33503">
        <ele>108.1</ele>
        <time>2015-02-23T20:48:48.097Z</time>
      </trkpt>
      <trkpt lat="48.83707" lon="2.33508">
        <ele>108</ele>
        <time>2015-02-23T20:48:49.156Z</time>
      </trkpt>
      <trkpt lat="48.83712" lon="2.33513">
        <ele>108</ele>
        <time>2015-02-23T20:48:50.100Z</time>
      </trkpt>
      <trkpt lat="48.83717" lon="2.33517">
        <ele>107.8</ele>
        <time>2015-02-23T20:48:51.097Z</time>
      </trkpt>
      <trkpt lat="48.83723" lon="2.33522">
        <ele>107.9</ele>
        <time>2015-02-23T20:48:52.103Z</time>
      </trkpt>
      <trkpt lat="48.83728" lon="2.33527">
        <ele>107.8</ele>
        <time>2015-02-23T20:48:53.107Z</time>
      </trkpt>
      <trkpt lat="48.83733" lon="2.33532">
        <ele>107.8</ele>
        <time>2015-02-23T20:48:54.118Z</time>
      </trkpt>
      <trkpt lat="48.83738" lon="2.33536">
        <ele>107.4</ele>
        <time>2015-02-23T20:48:55.133Z</time>
      </trkpt>
      <trkpt lat="48.83744" lon="2.33542">
        <ele>107.1</ele>
        <time>2015-02-23T20:48:56.144Z</time>
      </trkpt>
      <trkpt lat="48.83749" lon="2.33546">
        <ele>107.1</ele>
        <time>2015-02-23T20:48:57.146Z</time>
      </trkpt>
      <trkpt lat="48.83754" lon="2.33552">
        <ele>107</ele>
        <time>2015-02-23T20:48:58.156Z</time>
      </trkpt>
      <trkpt lat="48.83759" lon="2.33557">
        <ele>106.9</ele>
        <time>2015-02-23T20:48:59.168Z</time>
      </trkpt>
      <trkpt lat="48.83764" lon="2.33562">
        <ele>106.7</ele>
        <time>2015-02-23T20:49:00.212Z</time>
      </trkpt>
      <trkpt lat="48.83769" lon="2.33567">
        <ele>106.8</ele>
        <time>2015-02-23T20:49:01.219Z</time>
      </trkpt>
      <trkpt lat="48.83774" lon="2.33573">
        <ele>106.7</ele>
        <time>2015-02-23T20:49:02.179Z</time>
      </trkpt>
      <trkpt lat="48.83779" lon="2.33578">
        <ele>106.5</ele>
        <time>2015-02-23T20:49:03.145Z</time>
      </trkpt>
      <trkpt lat="48.83784" lon="2.33583">
        <ele>107</ele>
        <time>2015-02-23T20:49:04.169Z</time>
      </trkpt>
      <trkpt lat="48.83789" lon="2.33589">
        <ele>107.2</ele>
        <time>2015-02-23T20:49:05.175Z</time>
      </trkpt>
      <trkpt lat="48.83793" lon="2.33594">
        <ele>107</ele>
        <time>2015-02-23T20:49:06.108Z</time>
      </trkpt>
      <trkpt lat="48.83798" lon="2.33599">
        <ele>106.8</ele>
        <time>2015-02-23T20:49:07.154Z</time>
      </trkpt>
      <trkpt lat="48.83802" lon="2.33604">
        <ele>106.9</ele>
        <time>2015-02-23T20:49:08.182Z</time>
      </trkpt>
      <trkpt lat="48.83807" lon="2.33609">
        <ele>106.8</ele>
        <time>2015-02-23T20:49:09.201Z</time>
      </trkpt>
      <trkpt lat="48.83812" lon="2.33614">
        <ele>106.9</ele>
        <time>2015-02-23T20:49:10.124Z</time>
      </trkpt>
      <trkpt lat="48.83816" lon="2.33619">
        <ele>106.7</ele>
        <time>2015-02-23T20:49:11.120Z</time>
      </trkpt>
      <trkpt lat="48.83821" lon="2.33624">
        <ele>106.7</ele>
        <time>2015-02-23T20:49:12.131Z</time>
      </trkpt>
      <trkpt lat="48.83826" lon="2.33628">
        <ele>106.8</ele>
        <time>2015-02-23T20:49:13.148Z</time>
      </trkpt>
      <trkpt lat="48.8383" lon="2.33633">
        <ele>106.8</ele>
        <time>2015-02-23T20:49:14.160Z</time>
      </trkpt>
      <trkpt lat="48.83835" lon="2.33638">
        <ele>106.7</ele>
        <time>2015-02-23T20:49:15.179Z</time>
      </trkpt>
      <trkpt lat="48.83839" lon="2.33643">
        <ele>106.9</ele>
        <time>2015-02-23T20:49:16.184Z</time>
      </trkpt>
      <trkpt lat="48.83843" lon="2.33649">
        <ele>107.1</ele>
        <time>2015-02-23T20:49:17.191Z</time>
      </trkpt>
      <trkpt lat="48.83848" lon="2.33654">
        <ele>107.2</ele>
        <time>2015-02-23T20:49:18.202Z</time>
      </trkpt>
      <trkpt lat="48.83853" lon="2.33659">
        <ele>107.1</ele>
        <time>2015-02-23T20:49:19.209Z</time>
      </trkpt>
      <trkpt lat="48.83858" lon="2.33664">
        <ele>107.2</ele>
        <time>2015-02-23T20:49:20.145Z</time>
      </trkpt>
      <trkpt lat="48.83862" lon="2.33669">
        <ele>107.3</ele>
        <time>2015-02-23T20:49:21.126Z</time>
      </trkpt>
      <trkpt lat="48.83867" lon="2.33672">
        <ele>107.6</ele>
        <time>2015-02-23T20:49:22.167Z</time>
      </trkpt>
      <trkpt lat="48.83873" lon="2.33674">
        <ele>107.5</ele>
        <time>2015-02-23T20:49:23.179Z</time>
      </trkpt>
      <trkpt lat="48.83878" lon="2.33676">
        <ele>107.5</ele>
        <time>2015-02-23T20:49:24.209Z</time>
      </trkpt>
      <trkpt lat="48.83883" lon="2.33678">
        <ele>107.5</ele>
        <time>2015-02-23T20:49:25.220Z</time>
      </trkpt>
      <trkpt lat="48.83888" lon="2.33681">
        <ele>107.4</ele>
        <time>2015-02-23T20:49:26.115Z</time>
      </trkpt>
      <trkpt lat="48.83894" lon="2.33682">
        <ele>107.5</ele>
        <time>2015-02-23T20:49:27.111Z</time>
      </trkpt>
      <trkpt lat="48.839" lon="2.33681">
        <ele>107.5</ele>
        <time>2015-02-23T20:49:28.128Z</time>
      </trkpt>
      <trkpt lat="48.83905" lon="2.3368">
        <ele>107.5</ele>
        <time>2015-02-23T20:49:29.154Z</time>
      </trkpt>
      <trkpt lat="48.83913" lon="2.33679">
        <ele>107.6</ele>
        <time>2015-02-23T20:49:31.151Z</time>
      </trkpt>
      <trkpt lat="48.83918" lon="2.33679">
        <ele>107.6</ele>
        <time>2015-02-23T20:49:32.174Z</time>
      </trkpt>
      <trkpt lat="48.83923" lon="2.33678">
        <ele>107.8</ele>
        <time>2015-02-23T20:49:33.200Z</time>
      </trkpt>
      <trkpt lat="48.83927" lon="2.33678">
        <ele>108</ele>
        <time>2015-02-23T20:49:34.095Z</time>
      </trkpt>
      <trkpt lat="48.83935" lon="2.33675">
        <ele>108.2</ele>
        <time>2015-02-23T20:49:37.146Z</time>
      </trkpt>
      <trkpt lat="48.83938" lon="2.33675">
        <ele>108.1</ele>
        <time>2015-02-23T20:49:38.155Z</time>
      </trkpt>
      <trkpt lat="48.83945" lon="2.3368">
        <ele>107.8</ele>
        <time>2015-02-23T20:49:43.235Z</time>
      </trkpt>
      <trkpt lat="48.83947" lon="2.33682">
        <ele>107.2</ele>
        <time>2015-02-23T20:49:44.160Z</time>
      </trkpt>
      <trkpt lat="48.83952" lon="2.33694">
        <ele>105.5</ele>
        <time>2015-02-23T20:49:47.153Z</time>
      </trkpt>
      <trkpt lat="48.83951" lon="2.33697">
        <ele>105.3</ele>
        <time>2015-02-23T20:49:48.171Z</time>
      </trkpt>
      <trkpt lat="48.8395" lon="2.33709">
        <ele>105.1</ele>
        <time>2015-02-23T20:49:52.151Z</time>
      </trkpt>
      <trkpt lat="48.83949" lon="2.33712">
        <ele>104.9</ele>
        <time>2015-02-23T20:49:53.188Z</time>
      </trkpt>
      <trkpt lat="48.83944" lon="2.33721">
        <ele>104.5</ele>
        <time>2015-02-23T20:49:56.187Z</time>
      </trkpt>
      <trkpt lat="48.83942" lon="2.33724">
        <ele>104.2</ele>
        <time>2015-02-23T20:49:57.168Z</time>
      </trkpt>
      <trkpt lat="48.83939" lon="2.33737">
        <ele>104</ele>
        <time>2015-02-23T20:50:01.213Z</time>
      </trkpt>
      <trkpt lat="48.83939" lon="2.33739">
        <ele>104</ele>
        <time>2015-02-23T20:50:02.123Z</time>
      </trkpt>
      <trkpt lat="48.83937" lon="2.33752">
        <ele>104.1</ele>
        <time>2015-02-23T20:50:05.193Z</time>
      </trkpt>
      <trkpt lat="48.83936" lon="2.33757">
        <ele>104.1</ele>
        <time>2015-02-23T20:50:06.120Z</time>
      </trkpt>
      <trkpt lat="48.83933" lon="2.33769">
        <ele>104.2</ele>
        <time>2015-02-23T20:50:08.147Z</time>
      </trkpt>
      <trkpt lat="48.83932" lon="2.33775">
        <ele>104.3</ele>
        <time>2015-02-23T20:50:09.152Z</time>
      </trkpt>
      <trkpt lat="48.83929" lon="2.33787">
        <ele>104.6</ele>
        <time>2015-02-23T20:50:11.093Z</time>
      </trkpt>
      <trkpt lat="48.83928" lon="2.33793">
        <ele>104.5</ele>
        <time>2015-02-23T20:50:12.129Z</time>
      </trkpt>
      <trkpt lat="48.83926" lon="2.33805">
        <ele>104.7</ele>
        <time>2015-02-23T20:50:14.171Z</time>
      </trkpt>
      <trkpt lat="48.83924" lon="2.33812">
        <ele>105</ele>
        <time>2015-02-23T20:50:15.182Z</time>
      </trkpt>
      <trkpt lat="48.83923" lon="2.33818">
        <ele>105.2</ele>
        <time>2015-02-23T20:50:16.194Z</time>
      </trkpt>
      <trkpt lat="48.83921" lon="2.33825">
        <ele>105.3</ele>
        <time>2015-02-23T20:50:17.201Z</time>
      </trkpt>
      <trkpt lat="48.83919" lon="2.33832">
        <ele>105.4</ele>
        <time>2015-02-23T20:50:18.166Z</time>
      </trkpt>
      <trkpt lat="48.83918" lon="2.33838">
        <ele>105.7</ele>
        <time>2015-02-23T20:50:19.226Z</time>
      </trkpt>
      <trkpt lat="48.83916" lon="2.33846">
        <ele>105.6</ele>
        <time>2015-02-23T20:50:20.172Z</time>
      </trkpt>
      <trkpt lat="48.83914" lon="2.33853">
        <ele>105.7</ele>
        <time>2015-02-23T20:50:21.240Z</time>
      </trkpt>
      <trkpt lat="48.83913" lon="2.3386">
        <ele>105.9</ele>
        <time>2015-02-23T20:50:22.121Z</time>
      </trkpt>
      <trkpt lat="48.83912" lon="2.33867">
        <ele>106.3</ele>
        <time>2015-02-23T20:50:23.132Z</time>
      </trkpt>
      <trkpt lat="48.8391" lon="2.33873">
        <ele>106.7</ele>
        <time>2015-02-23T20:50:24.150Z</time>
      </trkpt>
      <trkpt lat="48.83909" lon="2.3388">
        <ele>107.1</ele>
        <time>2015-02-23T20:50:25.167Z</time>
      </trkpt>
      <trkpt lat="48.83906" lon="2.33891">
        <ele>107.5</ele>
        <time>2015-02-23T20:50:27.148Z</time>
      </trkpt>
      <trkpt lat="48.83905" lon="2.33897">
        <ele>107.6</ele>
        <time>2015-02-23T20:50:28.182Z</time>
      </trkpt>
      <trkpt lat="48.83902" lon="2.33907">
        <ele>107.7</ele>
        <time>2015-02-23T20:50:30.213Z</time>
      </trkpt>
      <trkpt lat="48.83901" lon="2.33914">
        <ele>108.3</ele>
        <time>2015-02-23T20:50:31.137Z</time>
      </trkpt>
      <trkpt lat="48.83899" lon="2.33927">
        <ele>109</ele>
        <time>2015-02-23T20:50:33.113Z</time>
      </trkpt>
      <trkpt lat="48.83897" lon="2.33932">
        <ele>109.1</ele>
        <time>2015-02-23T20:50:34.140Z</time>
      </trkpt>
      <trkpt lat="48.83895" lon="2.33941">
        <ele>109.3</ele>
        <time>2015-02-23T20:50:36.092Z</time>
      </trkpt>
      <trkpt lat="48.83894" lon="2.33946">
        <ele>109.4</ele>
        <time>2015-02-23T20:50:37.147Z</time>
      </trkpt>
      <trkpt lat="48.83892" lon="2.33955">
        <ele>109.8</ele>
        <time>2015-02-23T20:50:39.172Z</time>
      </trkpt>
      <trkpt lat="48.83891" lon="2.3396">
        <ele>109.9</ele>
        <time>2015-02-23T20:50:40.181Z</time>
      </trkpt>
      <trkpt lat="48.83888" lon="2.33969">
        <ele>110.2</ele>
        <time>2015-02-23T20:50:42.115Z</time>
      </trkpt>
      <trkpt lat="48.83887" lon="2.33973">
        <ele>110.3</ele>
        <time>2015-02-23T20:50:43.139Z</time>
      </trkpt>
      <trkpt lat="48.83884" lon="2.33982">
        <ele>110.6</ele>
        <time>2015-02-23T20:50:45.150Z</time>
      </trkpt>
      <trkpt lat="48.83883" lon="2.33987">
        <ele>110.7</ele>
        <time>2015-02-23T20:50:46.164Z</time>
      </trkpt>
      <trkpt lat="48.83881" lon="2.33998">
        <ele>111.1</ele>
        <time>2015-02-23T20:50:48.108Z</time>
      </trkpt>
      <trkpt lat="48.8388" lon="2.34004">
        <ele>111.2</ele>
        <time>2015-02-23T20:50:49.164Z</time>
      </trkpt>
      <trkpt lat="48.83878" lon="2.34017">
        <ele>111.2</ele>
        <time>2015-02-23T20:50:51.112Z</time>
      </trkpt>
      <trkpt lat="48.83877" lon="2.34023">
        <ele>111.2</ele>
        <time>2015-02-23T20:50:52.163Z</time>
      </trkpt>
      <trkpt lat="48.83874" lon="2.34035">
        <ele>110.9</ele>
        <time>2015-02-23T20:50:54.109Z</time>
      </trkpt>
      <trkpt lat="48.83872" lon="2.34041">
        <ele>110.9</ele>
        <time>2015-02-23T20:50:55.164Z</time>
      </trkpt>
      <trkpt lat="48.83871" lon="2.34048">
        <ele>110.9</ele>
        <time>2015-02-23T20:50:56.191Z</time>
      </trkpt>
      <trkpt lat="48.83869" lon="2.34056">
        <ele>110.7</ele>
        <time>2015-02-23T20:50:57.099Z</time>
      </trkpt>
      <trkpt lat="48.83867" lon="2.34063">
        <ele>110.7</ele>
        <time>2015-02-23T20:50:58.113Z</time>
      </trkpt>
      <trkpt lat="48.83866" lon="2.34073">
        <ele>110</ele>
        <time>2015-02-23T20:50:59.115Z</time>
      </trkpt>
      <trkpt lat="48.83864" lon="2.34081">
        <ele>110</ele>
        <time>2015-02-23T20:51:00.186Z</time>
      </trkpt>
      <trkpt lat="48.83862" lon="2.34088">
        <ele>109.9</ele>
        <time>2015-02-23T20:51:01.200Z</time>
      </trkpt>
      <trkpt lat="48.8386" lon="2.34096">
        <ele>109.9</ele>
        <time>2015-02-23T20:51:02.105Z</time>
      </trkpt>
      <trkpt lat="48.83859" lon="2.34103">
        <ele>109.7</ele>
        <time>2015-02-23T20:51:03.102Z</time>
      </trkpt>
      <trkpt lat="48.83857" lon="2.3411">
        <ele>109.5</ele>
        <time>2015-02-23T20:51:04.116Z</time>
      </trkpt>
      <trkpt lat="48.83856" lon="2.34118">
        <ele>109.3</ele>
        <time>2015-02-23T20:51:05.125Z</time>
      </trkpt>
      <trkpt lat="48.83855" lon="2.34125">
        <ele>109.2</ele>
        <time>2015-02-23T20:51:06.145Z</time>
      </trkpt>
      <trkpt lat="48.83853" lon="2.34132">
        <ele>109.1</ele>
        <time>2015-02-23T20:51:07.163Z</time>
      </trkpt>
      <trkpt lat="48.83851" lon="2.3414">
        <ele>109</ele>
        <time>2015-02-23T20:51:08.113Z</time>
      </trkpt>
      <trkpt lat="48.83849" lon="2.34148">
        <ele>109</ele>
        <time>2015-02-23T20:51:09.102Z</time>
      </trkpt>
      <trkpt lat="48.83847" lon="2.34157">
        <ele>109</ele>
        <time>2015-02-23T20:51:10.119Z</time>
      </trkpt>
      <trkpt lat="48.83845" lon="2.34165">
        <ele>109.1</ele>
        <time>2015-02-23T20:51:11.132Z</time>
      </trkpt>
      <trkpt lat="48.83843" lon="2.34173">
        <ele>109.1</ele>
        <time>2015-02-23T20:51:12.139Z</time>
      </trkpt>
      <trkpt lat="48.83841" lon="2.34182">
        <ele>109.1</ele>
        <time>2015-02-23T20:51:13.145Z</time>
      </trkpt>
      <trkpt lat="48.8384" lon="2.3419">
        <ele>109.1</ele>
        <time>2015-02-23T20:51:14.160Z</time>
      </trkpt>
      <trkpt lat="48.83839" lon="2.34198">
        <ele>109.1</ele>
        <time>2015-02-23T20:51:15.176Z</time>
      </trkpt>
      <trkpt lat="48.83838" lon="2.34207">
        <ele>109.1</ele>
        <time>2015-02-23T20:51:16.082Z</time>
      </trkpt>
      <trkpt lat="48.83837" lon="2.34215">
        <ele>109</ele>
        <time>2015-02-23T20:51:17.106Z</time>
      </trkpt>
      <trkpt lat="48.83835" lon="2.34224">
        <ele>109.3</ele>
        <time>2015-02-23T20:51:18.115Z</time>
      </trkpt>
      <trkpt lat="48.83834" lon="2.34233">
        <ele>109.3</ele>
        <time>2015-02-23T20:51:19.134Z</time>
      </trkpt>
      <trkpt lat="48.83832" lon="2.34243">
        <ele>109.5</ele>
        <time>2015-02-23T20:51:20.319Z</time>
      </trkpt>
      <trkpt lat="48.8383" lon="2.34252">
        <ele>109.7</ele>
        <time>2015-02-23T20:51:21.143Z</time>
      </trkpt>
      <trkpt lat="48.83828" lon="2.3426">
        <ele>109.6</ele>
        <time>2015-02-23T20:51:22.204Z</time>
      </trkpt>
      <trkpt lat="48.83826" lon="2.34269">
        <ele>109.7</ele>
        <time>2015-02-23T20:51:23.095Z</time>
      </trkpt>
      <trkpt lat="48.83825" lon="2.34277">
        <ele>109.6</ele>
        <time>2015-02-23T20:51:24.112Z</time>
      </trkpt>
      <trkpt lat="48.83823" lon="2.34285">
        <ele>109.6</ele>
        <time>2015-02-23T20:51:25.148Z</time>
      </trkpt>
      <trkpt lat="48.83821" lon="2.34292">
        <ele>109.3</ele>
        <time>2015-02-23T20:51:26.164Z</time>
      </trkpt>
      <trkpt lat="48.83819" lon="2.34299">
        <ele>109.1</ele>
        <time>2015-02-23T20:51:27.115Z</time>
      </trkpt>
      <trkpt lat="48.83817" lon="2.34306">
        <ele>109.3</ele>
        <time>2015-02-23T20:51:28.132Z</time>
      </trkpt>
      <trkpt lat="48.83815" lon="2.34312">
        <ele>109.2</ele>
        <time>2015-02-23T20:51:29.157Z</time>
      </trkpt>
      <trkpt lat="48.83812" lon="2.34324">
        <ele>109.1</ele>
        <time>2015-02-23T20:51:31.219Z</time>
      </trkpt>
      <trkpt lat="48.83812" lon="2.3433">
        <ele>108.9</ele>
        <time>2015-02-23T20:51:32.109Z</time>
      </trkpt>
      <trkpt lat="48.83809" lon="2.3434">
        <ele>109</ele>
        <time>2015-02-23T20:51:34.129Z</time>
      </trkpt>
      <trkpt lat="48.83808" lon="2.34345">
        <ele>109.2</ele>
        <time>2015-02-23T20:51:35.216Z</time>
      </trkpt>
      <trkpt lat="48.83805" lon="2.34356">
        <ele>109.3</ele>
        <time>2015-02-23T20:51:37.153Z</time>
      </trkpt>
      <trkpt lat="48.83804" lon="2.34361">
        <ele>109.4</ele>
        <time>2015-02-23T20:51:38.152Z</time>
      </trkpt>
      <trkpt lat="48.83801" lon="2.34372">
        <ele>109.4</ele>
        <time>2015-02-23T20:51:40.198Z</time>
      </trkpt>
      <trkpt lat="48.83799" lon="2.34379">
        <ele>109.7</ele>
        <time>2015-02-23T20:51:41.123Z</time>
      </trkpt>
      <trkpt lat="48.83797" lon="2.34391">
        <ele>109.5</ele>
        <time>2015-02-23T20:51:43.149Z</time>
      </trkpt>
      <trkpt lat="48.83796" lon="2.34397">
        <ele>109.2</ele>
        <time>2015-02-23T20:51:44.155Z</time>
      </trkpt>
      <trkpt lat="48.83795" lon="2.34404">
        <ele>109.1</ele>
        <time>2015-02-23T20:51:45.179Z</time>
      </trkpt>
      <trkpt lat="48.83794" lon="2.34412">
        <ele>108.9</ele>
        <time>2015-02-23T20:51:46.208Z</time>
      </trkpt>
      <trkpt lat="48.83793" lon="2.34418">
        <ele>108.7</ele>
        <time>2015-02-23T20:51:47.125Z</time>
      </trkpt>
      <trkpt lat="48.83792" lon="2.34425">
        <ele>108.5</ele>
        <time>2015-02-23T20:51:48.122Z</time>
      </trkpt>
      <trkpt lat="48.83791" lon="2.34432">
        <ele>108.6</ele>
        <time>2015-02-23T20:51:49.153Z</time>
      </trkpt>
      <trkpt lat="48.83789" lon="2.34439">
        <ele>108.7</ele>
        <time>2015-02-23T20:51:50.165Z</time>
      </trkpt>
      <trkpt lat="48.83788" lon="2.34446">
        <ele>108.6</ele>
        <time>2015-02-23T20:51:51.128Z</time>
      </trkpt>
      <trkpt lat="48.83786" lon="2.34454">
        <ele>108.8</ele>
        <time>2015-02-23T20:51:52.134Z</time>
      </trkpt>
      <trkpt lat="48.83785" lon="2.34461">
        <ele>108.7</ele>
        <time>2015-02-23T20:51:53.168Z</time>
      </trkpt>
      <trkpt lat="48.83784" lon="2.34468">
        <ele>108.9</ele>
        <time>2015-02-23T20:51:54.126Z</time>
      </trkpt>
      <trkpt lat="48.83782" lon="2.3448">
        <ele>109</ele>
        <time>2015-02-23T20:51:56.224Z</time>
      </trkpt>
      <trkpt lat="48.83781" lon="2.34486">
        <ele>109.1</ele>
        <time>2015-02-23T20:51:57.113Z</time>
      </trkpt>
      <trkpt lat="48.83778" lon="2.34499">
        <ele>109.2</ele>
        <time>2015-02-23T20:51:59.189Z</time>
      </trkpt>
      <trkpt lat="48.83776" lon="2.34506">
        <ele>109.1</ele>
        <time>2015-02-23T20:52:00.102Z</time>
      </trkpt>
      <trkpt lat="48.83775" lon="2.34513">
        <ele>109</ele>
        <time>2015-02-23T20:52:01.134Z</time>
      </trkpt>
      <trkpt lat="48.83774" lon="2.3452">
        <ele>108.9</ele>
        <time>2015-02-23T20:52:02.199Z</time>
      </trkpt>
      <trkpt lat="48.83773" lon="2.34527">
        <ele>109.1</ele>
        <time>2015-02-23T20:52:03.100Z</time>
      </trkpt>
      <trkpt lat="48.83772" lon="2.34534">
        <ele>109.4</ele>
        <time>2015-02-23T20:52:04.101Z</time>
      </trkpt>
      <trkpt lat="48.83769" lon="2.34546">
        <ele>109.6</ele>
        <time>2015-02-23T20:52:06.113Z</time>
      </trkpt>
      <trkpt lat="48.83768" lon="2.34551">
        <ele>109.6</ele>
        <time>2015-02-23T20:52:07.225Z</time>
      </trkpt>
      <trkpt lat="48.83765" lon="2.34562">
        <ele>109.4</ele>
        <time>2015-02-23T20:52:09.104Z</time>
      </trkpt>
      <trkpt lat="48.83763" lon="2.34568">
        <ele>109.3</ele>
        <time>2015-02-23T20:52:10.128Z</time>
      </trkpt>
      <trkpt lat="48.83761" lon="2.34575">
        <ele>109.2</ele>
        <time>2015-02-23T20:52:11.151Z</time>
      </trkpt>
      <trkpt lat="48.8376" lon="2.34582">
        <ele>108.8</ele>
        <time>2015-02-23T20:52:12.156Z</time>
      </trkpt>
      <trkpt lat="48.83756" lon="2.34595">
        <ele>109</ele>
        <time>2015-02-23T20:52:14.102Z</time>
      </trkpt>
      <trkpt lat="48.83755" lon="2.34601">
        <ele>109.2</ele>
        <time>2015-02-23T20:52:15.104Z</time>
      </trkpt>
      <trkpt lat="48.83753" lon="2.34608">
        <ele>109.3</ele>
        <time>2015-02-23T20:52:16.123Z</time>
      </trkpt>
      <trkpt lat="48.83752" lon="2.34614">
        <ele>109.3</ele>
        <time>2015-02-23T20:52:17.139Z</time>
      </trkpt>
      <trkpt lat="48.8375" lon="2.34621">
        <ele>109.5</ele>
        <time>2015-02-23T20:52:18.163Z</time>
      </trkpt>
      <trkpt lat="48.83748" lon="2.34628">
        <ele>109.7</ele>
        <time>2015-02-23T20:52:19.171Z</time>
      </trkpt>
      <trkpt lat="48.83746" lon="2.34634">
        <ele>109.9</ele>
        <time>2015-02-23T20:52:20.074Z</time>
      </trkpt>
      <trkpt lat="48.83744" lon="2.34641">
        <ele>110</ele>
        <time>2015-02-23T20:52:21.084Z</time>
      </trkpt>
      <trkpt lat="48.83742" lon="2.34649">
        <ele>110</ele>
        <time>2015-02-23T20:52:22.113Z</time>
      </trkpt>
      <trkpt lat="48.8374" lon="2.34656">
        <ele>110.1</ele>
        <time>2015-02-23T20:52:23.131Z</time>
      </trkpt>
      <trkpt lat="48.83738" lon="2.34664">
        <ele>110.2</ele>
        <time>2015-02-23T20:52:24.085Z</time>
      </trkpt>
      <trkpt lat="48.83737" lon="2.34671">
        <ele>110.2</ele>
        <time>2015-02-23T20:52:25.119Z</time>
      </trkpt>
      <trkpt lat="48.83735" lon="2.3468">
        <ele>109.8</ele>
        <time>2015-02-23T20:52:26.182Z</time>
      </trkpt>
      <trkpt lat="48.83734" lon="2.34688">
        <ele>109.7</ele>
        <time>2015-02-23T20:52:27.153Z</time>
      </trkpt>
      <trkpt lat="48.83733" lon="2.34696">
        <ele>109.6</ele>
        <time>2015-02-23T20:52:28.168Z</time>
      </trkpt>
      <trkpt lat="48.83732" lon="2.34704">
        <ele>109.6</ele>
        <time>2015-02-23T20:52:29.063Z</time>
      </trkpt>
      <trkpt lat="48.8373" lon="2.34712">
        <ele>109.7</ele>
        <time>2015-02-23T20:52:30.108Z</time>
      </trkpt>
      <trkpt lat="48.83729" lon="2.3472">
        <ele>109.5</ele>
        <time>2015-02-23T20:52:31.151Z</time>
      </trkpt>
      <trkpt lat="48.83727" lon="2.34728">
        <ele>109.4</ele>
        <time>2015-02-23T20:52:32.096Z</time>
      </trkpt>
      <trkpt lat="48.83727" lon="2.34735">
        <ele>109.5</ele>
        <time>2015-02-23T20:52:33.121Z</time>
      </trkpt>
      <trkpt lat="48.83726" lon="2.34743">
        <ele>109.6</ele>
        <time>2015-02-23T20:52:34.143Z</time>
      </trkpt>
      <trkpt lat="48.83725" lon="2.34751">
        <ele>109.7</ele>
        <time>2015-02-23T20:52:35.225Z</time>
      </trkpt>
      <trkpt lat="48.83725" lon="2.34758">
        <ele>109.6</ele>
        <time>2015-02-23T20:52:36.144Z</time>
      </trkpt>
      <trkpt lat="48.83724" lon="2.34766">
        <ele>109.7</ele>
        <time>2015-02-23T20:52:37.155Z</time>
      </trkpt>
      <trkpt lat="48.83724" lon="2.34773">
        <ele>109.5</ele>
        <time>2015-02-23T20:52:38.061Z</time>
      </trkpt>
      <trkpt lat="48.83724" lon="2.34782">
        <ele>109.4</ele>
        <time>2015-02-23T20:52:39.081Z</time>
      </trkpt>
      <trkpt lat="48.83723" lon="2.3479">
        <ele>109.4</ele>
        <time>2015-02-23T20:52:40.093Z</time>
      </trkpt>
      <trkpt lat="48.83723" lon="2.34798">
        <ele>109.3</ele>
        <time>2015-02-23T20:52:41.109Z</time>
      </trkpt>
      <trkpt lat="48.83722" lon="2.34807">
        <ele>109.5</ele>
        <time>2015-02-23T20:52:42.143Z</time>
      </trkpt>
      <trkpt lat="48.83722" lon="2.34815">
        <ele>109.4</ele>
        <time>2015-02-23T20:52:43.164Z</time>
      </trkpt>
      <trkpt lat="48.83721" lon="2.34822">
        <ele>109.2</ele>
        <time>2015-02-23T20:52:44.060Z</time>
      </trkpt>
      <trkpt lat="48.83721" lon="2.3483">
        <ele>109.3</ele>
        <time>2015-02-23T20:52:45.121Z</time>
      </trkpt>
      <trkpt lat="48.8372" lon="2.34838">
        <ele>109.4</ele>
        <time>2015-02-23T20:52:46.178Z</time>
      </trkpt>
      <trkpt lat="48.83719" lon="2.34846">
        <ele>109.4</ele>
        <time>2015-02-23T20:52:47.183Z</time>
      </trkpt>
      <trkpt lat="48.83719" lon="2.34854">
        <ele>109.4</ele>
        <time>2015-02-23T20:52:48.071Z</time>
      </trkpt>
      <trkpt lat="48.83718" lon="2.34862">
        <ele>109.4</ele>
        <time>2015-02-23T20:52:49.124Z</time>
      </trkpt>
      <trkpt lat="48.83717" lon="2.3487">
        <ele>109.4</ele>
        <time>2015-02-23T20:52:50.134Z</time>
      </trkpt>
      <trkpt lat="48.83716" lon="2.34878">
        <ele>109.5</ele>
        <time>2015-02-23T20:52:51.145Z</time>
      </trkpt>
      <trkpt lat="48.83715" lon="2.34886">
        <ele>109.3</ele>
        <time>2015-02-23T20:52:52.178Z</time>
      </trkpt>
      <trkpt lat="48.83715" lon="2.34894">
        <ele>109.2</ele>
        <time>2015-02-23T20:52:53.101Z</time>
      </trkpt>
      <trkpt lat="48.83714" lon="2.34902">
        <ele>109</ele>
        <time>2015-02-23T20:52:54.113Z</time>
      </trkpt>
      <trkpt lat="48.83714" lon="2.3491">
        <ele>108.7</ele>
        <time>2015-02-23T20:52:55.150Z</time>
      </trkpt>
      <trkpt lat="48.83713" lon="2.34918">
        <ele>108.4</ele>
        <time>2015-02-23T20:52:56.179Z</time>
      </trkpt>
      <trkpt lat="48.83713" lon="2.34925">
        <ele>108.3</ele>
        <time>2015-02-23T20:52:57.094Z</time>
      </trkpt>
      <trkpt lat="48.83713" lon="2.34932">
        <ele>108.1</ele>
        <time>2015-02-23T20:52:58.108Z</time>
      </trkpt>
      <trkpt lat="48.83713" lon="2.34939">
        <ele>108.1</ele>
        <time>2015-02-23T20:52:59.131Z</time>
      </trkpt>
      <trkpt lat="48.83712" lon="2.34946">
        <ele>107.8</ele>
        <time>2015-02-23T20:53:00.149Z</time>
      </trkpt>
      <trkpt lat="48.8371" lon="2.34953">
        <ele>107.7</ele>
        <time>2015-02-23T20:53:01.195Z</time>
      </trkpt>
      <trkpt lat="48.83709" lon="2.34961">
        <ele>107.5</ele>
        <time>2015-02-23T20:53:02.085Z</time>
      </trkpt>
      <trkpt lat="48.83708" lon="2.34968">
        <ele>107.2</ele>
        <time>2015-02-23T20:53:03.089Z</time>
      </trkpt>
      <trkpt lat="48.83707" lon="2.34975">
        <ele>107</ele>
        <time>2015-02-23T20:53:04.099Z</time>
      </trkpt>
      <trkpt lat="48.83706" lon="2.34982">
        <ele>106.8</ele>
        <time>2015-02-23T20:53:05.129Z</time>
      </trkpt>
      <trkpt lat="48.83705" lon="2.34989">
        <ele>106.5</ele>
        <time>2015-02-23T20:53:06.093Z</time>
      </trkpt>
      <trkpt lat="48.83704" lon="2.34996">
        <ele>106.3</ele>
        <time>2015-02-23T20:53:07.166Z</time>
      </trkpt>
      <trkpt lat="48.83703" lon="2.35009">
        <ele>105.9</ele>
        <time>2015-02-23T20:53:09.083Z</time>
      </trkpt>
      <trkpt lat="48.83702" lon="2.35016">
        <ele>105.8</ele>
        <time>2015-02-23T20:53:10.100Z</time>
      </trkpt>
      <trkpt lat="48.83701" lon="2.35023">
        <ele>105.8</ele>
        <time>2015-02-23T20:53:11.162Z</time>
      </trkpt>
      <trkpt lat="48.837" lon="2.3503">
        <ele>105.7</ele>
        <time>2015-02-23T20:53:12.167Z</time>
      </trkpt>
      <trkpt lat="48.83699" lon="2.35037">
        <ele>105.6</ele>
        <time>2015-02-23T20:53:13.186Z</time>
      </trkpt>
      <trkpt lat="48.83699" lon="2.35044">
        <ele>105.7</ele>
        <time>2015-02-23T20:53:14.094Z</time>
      </trkpt>
      <trkpt lat="48.83698" lon="2.35056">
        <ele>105.3</ele>
        <time>2015-02-23T20:53:16.105Z</time>
      </trkpt>
      <trkpt lat="48.83697" lon="2.35062">
        <ele>105.3</ele>
        <time>2015-02-23T20:53:17.173Z</time>
      </trkpt>
      <trkpt lat="48.83695" lon="2.35074">
        <ele>104.9</ele>
        <time>2015-02-23T20:53:19.130Z</time>
      </trkpt>
      <trkpt lat="48.83694" lon="2.3508">
        <ele>104.6</ele>
        <time>2015-02-23T20:53:20.162Z</time>
      </trkpt>
      <trkpt lat="48.83692" lon="2.35091">
        <ele>104.7</ele>
        <time>2015-02-23T20:53:22.086Z</time>
      </trkpt>
      <trkpt lat="48.8369" lon="2.35096">
        <ele>104.6</ele>
        <time>2015-02-23T20:53:23.098Z</time>
      </trkpt>
      <trkpt lat="48.83685" lon="2.35104">
        <ele>104.6</ele>
        <time>2015-02-23T20:53:25.129Z</time>
      </trkpt>
      <trkpt lat="48.83683" lon="2.35108">
        <ele>104.6</ele>
        <time>2015-02-23T20:53:26.139Z</time>
      </trkpt>
      <trkpt lat="48.83675" lon="2.35113">
        <ele>105</ele>
        <time>2015-02-23T20:53:29.106Z</time>
      </trkpt>
      <trkpt lat="48.83674" lon="2.35115">
        <ele>104.7</ele>
        <time>2015-02-23T20:53:30.139Z</time>
      </trkpt>
      <trkpt lat="48.83669" lon="2.35121">
        <ele>104.3</ele>
        <time>2015-02-23T20:53:32.081Z</time>
      </trkpt>
      <trkpt lat="48.83666" lon="2.35124">
        <ele>104.3</ele>
        <time>2015-02-23T20:53:33.094Z</time>
      </trkpt>
      <trkpt lat="48.83662" lon="2.35132">
        <ele>104</ele>
        <time>2015-02-23T20:53:35.122Z</time>
      </trkpt>
      <trkpt lat="48.83662" lon="2.35136">
        <ele>103.8</ele>
        <time>2015-02-23T20:53:36.224Z</time>
      </trkpt>
      <trkpt lat="48.83664" lon="2.35149">
        <ele>102.5</ele>
        <time>2015-02-23T20:53:39.157Z</time>
      </trkpt>
      <trkpt lat="48.83665" lon="2.35153">
        <ele>102.3</ele>
        <time>2015-02-23T20:53:40.174Z</time>
      </trkpt>
      <trkpt lat="48.83669" lon="2.35164">
        <ele>102.4</ele>
        <time>2015-02-23T20:53:44.123Z</time>
      </trkpt>
      <trkpt lat="48.8367" lon="2.35166">
        <ele>102.2</ele>
        <time>2015-02-23T20:53:45.134Z</time>
      </trkpt>
      <trkpt lat="48.83674" lon="2.35177">
        <ele>101.2</ele>
        <time>2015-02-23T20:53:52.149Z</time>
      </trkpt>
      <trkpt lat="48.83675" lon="2.35179">
        <ele>101.1</ele>
        <time>2015-02-23T20:53:53.161Z</time>
      </trkpt>
      <trkpt lat="48.83678" lon="2.3519">
        <ele>100.9</ele>
        <time>2015-02-23T20:53:57.150Z</time>
      </trkpt>
      <trkpt lat="48.8368" lon="2.35194">
        <ele>100.7</ele>
        <time>2015-02-23T20:53:58.167Z</time>
      </trkpt>
      <trkpt lat="48.83684" lon="2.35205">
        <ele>100.2</ele>
        <time>2015-02-23T20:54:01.148Z</time>
      </trkpt>
      <trkpt lat="48.83686" lon="2.35209">
        <ele>100.1</ele>
        <time>2015-02-23T20:54:02.179Z</time>
      </trkpt>
      <trkpt lat="48.8369" lon="2.3522">
        <ele>100</ele>
        <time>2015-02-23T20:54:05.136Z</time>
      </trkpt>
      <trkpt lat="48.8369" lon="2.35224">
        <ele>99.9</ele>
        <time>2015-02-23T20:54:06.165Z</time>
      </trkpt>
      <trkpt lat="48.83691" lon="2.35234">
        <ele>99.3</ele>
        <time>2015-02-23T20:54:08.187Z</time>
      </trkpt>
      <trkpt lat="48.83692" lon="2.3524">
        <ele>99</ele>
        <time>2015-02-23T20:54:09.207Z</time>
      </trkpt>
      <trkpt lat="48.83695" lon="2.35252">
        <ele>98.7</ele>
        <time>2015-02-23T20:54:11.108Z</time>
      </trkpt>
      <trkpt lat="48.83697" lon="2.35257">
        <ele>98.4</ele>
        <time>2015-02-23T20:54:12.111Z</time>
      </trkpt>
      <trkpt lat="48.83699" lon="2.35263">
        <ele>98.2</ele>
        <time>2015-02-23T20:54:13.145Z</time>
      </trkpt>
      <trkpt lat="48.83702" lon="2.35269">
        <ele>98.1</ele>
        <time>2015-02-23T20:54:14.144Z</time>
      </trkpt>
      <trkpt lat="48.83706" lon="2.3528">
        <ele>97.3</ele>
        <time>2015-02-23T20:54:16.117Z</time>
      </trkpt>
      <trkpt lat="48.83709" lon="2.35286">
        <ele>97.2</ele>
        <time>2015-02-23T20:54:17.132Z</time>
      </trkpt>
      <trkpt lat="48.83713" lon="2.35296">
        <ele>97</ele>
        <time>2015-02-23T20:54:19.173Z</time>
      </trkpt>
      <trkpt lat="48.83715" lon="2.35301">
        <ele>96.8</ele>
        <time>2015-02-23T20:54:20.151Z</time>
      </trkpt>
      <trkpt lat="48.83719" lon="2.35309">
        <ele>96.3</ele>
        <time>2015-02-23T20:54:22.119Z</time>
      </trkpt>
      <trkpt lat="48.83721" lon="2.35314">
        <ele>96.3</ele>
        <time>2015-02-23T20:54:23.144Z</time>
      </trkpt>
      <trkpt lat="48.83723" lon="2.35324">
        <ele>96.1</ele>
        <time>2015-02-23T20:54:25.171Z</time>
      </trkpt>
      <trkpt lat="48.83725" lon="2.35329">
        <ele>96</ele>
        <time>2015-02-23T20:54:26.208Z</time>
      </trkpt>
      <trkpt lat="48.83728" lon="2.3534">
        <ele>96</ele>
        <time>2015-02-23T20:54:28.119Z</time>
      </trkpt>
      <trkpt lat="48.83729" lon="2.35345">
        <ele>95.9</ele>
        <time>2015-02-23T20:54:29.130Z</time>
      </trkpt>
      <trkpt lat="48.83732" lon="2.35357">
        <ele>95.8</ele>
        <time>2015-02-23T20:54:31.155Z</time>
      </trkpt>
      <trkpt lat="48.83734" lon="2.35363">
        <ele>95.8</ele>
        <time>2015-02-23T20:54:32.202Z</time>
      </trkpt>
      <trkpt lat="48.83736" lon="2.35369">
        <ele>95.8</ele>
        <time>2015-02-23T20:54:33.099Z</time>
      </trkpt>
      <trkpt lat="48.83739" lon="2.35375">
        <ele>95.6</ele>
        <time>2015-02-23T20:54:34.107Z</time>
      </trkpt>
      <trkpt lat="48.83741" lon="2.35381">
        <ele>95.4</ele>
        <time>2015-02-23T20:54:35.109Z</time>
      </trkpt>
      <trkpt lat="48.83743" lon="2.35387">
        <ele>95.4</ele>
        <time>2015-02-23T20:54:36.118Z</time>
      </trkpt>
      <trkpt lat="48.83745" lon="2.35392">
        <ele>95.2</ele>
        <time>2015-02-23T20:54:37.138Z</time>
      </trkpt>
      <trkpt lat="48.83747" lon="2.35399">
        <ele>94.8</ele>
        <time>2015-02-23T20:54:38.159Z</time>
      </trkpt>
      <trkpt lat="48.83749" lon="2.35405">
        <ele>94.8</ele>
        <time>2015-02-23T20:54:39.177Z</time>
      </trkpt>
      <trkpt lat="48.83751" lon="2.35412">
        <ele>94.7</ele>
        <time>2015-02-23T20:54:40.091Z</time>
      </trkpt>
      <trkpt lat="48.83755" lon="2.35424">
        <ele>94.6</ele>
        <time>2015-02-23T20:54:42.190Z</time>
      </trkpt>
      <trkpt lat="48.83757" lon="2.35429">
        <ele>94.5</ele>
        <time>2015-02-23T20:54:43.207Z</time>
      </trkpt>
      <trkpt lat="48.8376" lon="2.35435">
        <ele>94.5</ele>
        <time>2015-02-23T20:54:44.168Z</time>
      </trkpt>
      <trkpt lat="48.83762" lon="2.35442">
        <ele>94.4</ele>
        <time>2015-02-23T20:54:45.180Z</time>
      </trkpt>
      <trkpt lat="48.83763" lon="2.35448">
        <ele>94.4</ele>
        <time>2015-02-23T20:54:46.092Z</time>
      </trkpt>
      <trkpt lat="48.83765" lon="2.35455">
        <ele>94.3</ele>
        <time>2015-02-23T20:54:47.110Z</time>
      </trkpt>
      <trkpt lat="48.83767" lon="2.35462">
        <ele>94.3</ele>
        <time>2015-02-23T20:54:48.141Z</time>
      </trkpt>
      <trkpt lat="48.83768" lon="2.35468">
        <ele>94.2</ele>
        <time>2015-02-23T20:54:49.171Z</time>
      </trkpt>
      <trkpt lat="48.8377" lon="2.35475">
        <ele>94.1</ele>
        <time>2015-02-23T20:54:50.090Z</time>
      </trkpt>
      <trkpt lat="48.83772" lon="2.35482">
        <ele>93.9</ele>
        <time>2015-02-23T20:54:51.093Z</time>
      </trkpt>
      <trkpt lat="48.83773" lon="2.35489">
        <ele>93.8</ele>
        <time>2015-02-23T20:54:52.097Z</time>
      </trkpt>
      <trkpt lat="48.83775" lon="2.35495">
        <ele>93.8</ele>
        <time>2015-02-23T20:54:53.102Z</time>
      </trkpt>
      <trkpt lat="48.83779" lon="2.35506">
        <ele>93.8</ele>
        <time>2015-02-23T20:54:55.220Z</time>
      </trkpt>
      <trkpt lat="48.83781" lon="2.35512">
        <ele>93.6</ele>
        <time>2015-02-23T20:54:56.105Z</time>
      </trkpt>
      <trkpt lat="48.83783" lon="2.35522">
        <ele>93.6</ele>
        <time>2015-02-23T20:54:58.140Z</time>
      </trkpt>
      <trkpt lat="48.83784" lon="2.35527">
        <ele>93.7</ele>
        <time>2015-02-23T20:54:59.147Z</time>
      </trkpt>
      <trkpt lat="48.83787" lon="2.35536">
        <ele>93.5</ele>
        <time>2015-02-23T20:55:01.183Z</time>
      </trkpt>
      <trkpt lat="48.83788" lon="2.3554">
        <ele>93.5</ele>
        <time>2015-02-23T20:55:02.076Z</time>
      </trkpt>
      <trkpt lat="48.83791" lon="2.3555">
        <ele>93.2</ele>
        <time>2015-02-23T20:55:04.111Z</time>
      </trkpt>
      <trkpt lat="48.83793" lon="2.35555">
        <ele>93.2</ele>
        <time>2015-02-23T20:55:05.125Z</time>
      </trkpt>
      <trkpt lat="48.83796" lon="2.35566">
        <ele>93.1</ele>
        <time>2015-02-23T20:55:07.171Z</time>
      </trkpt>
      <trkpt lat="48.83798" lon="2.35572">
        <ele>93.1</ele>
        <time>2015-02-23T20:55:08.179Z</time>
      </trkpt>
      <trkpt lat="48.83802" lon="2.35584">
        <ele>92.8</ele>
        <time>2015-02-23T20:55:10.107Z</time>
      </trkpt>
      <trkpt lat="48.83804" lon="2.3559">
        <ele>92.7</ele>
        <time>2015-02-23T20:55:11.206Z</time>
      </trkpt>
      <trkpt lat="48.83808" lon="2.35601">
        <ele>92.6</ele>
        <time>2015-02-23T20:55:13.135Z</time>
      </trkpt>
      <trkpt lat="48.8381" lon="2.35606">
        <ele>92.6</ele>
        <time>2015-02-23T20:55:14.163Z</time>
      </trkpt>
      <trkpt lat="48.83814" lon="2.35617">
        <ele>92.4</ele>
        <time>2015-02-23T20:55:16.080Z</time>
      </trkpt>
      <trkpt lat="48.83815" lon="2.35622">
        <ele>92.3</ele>
        <time>2015-02-23T20:55:17.091Z</time>
      </trkpt>
      <trkpt lat="48.83819" lon="2.35633">
        <ele>92.2</ele>
        <time>2015-02-23T20:55:19.138Z</time>
      </trkpt>
      <trkpt lat="48.83821" lon="2.35638">
        <ele>91.9</ele>
        <time>2015-02-23T20:55:20.149Z</time>
      </trkpt>
      <trkpt lat="48.83825" lon="2.35648">
        <ele>91.6</ele>
        <time>2015-02-23T20:55:22.103Z</time>
      </trkpt>
      <trkpt lat="48.83827" lon="2.35654">
        <ele>91.3</ele>
        <time>2015-02-23T20:55:23.125Z</time>
      </trkpt>
      <trkpt lat="48.83832" lon="2.35665">
        <ele>91.1</ele>
        <time>2015-02-23T20:55:25.176Z</time>
      </trkpt>
      <trkpt lat="48.83833" lon="2.3567">
        <ele>91</ele>
        <time>2015-02-23T20:55:26.091Z</time>
      </trkpt>
      <trkpt lat="48.83835" lon="2.35681">
        <ele>90.8</ele>
        <time>2015-02-23T20:55:28.139Z</time>
      </trkpt>
      <trkpt lat="48.83835" lon="2.35687">
        <ele>90.8</ele>
        <time>2015-02-23T20:55:29.150Z</time>
      </trkpt>
      <trkpt lat="48.83833" lon="2.35699">
        <ele>91.1</ele>
        <time>2015-02-23T20:55:32.235Z</time>
      </trkpt>
      <trkpt lat="48.83833" lon="2.35701">
        <ele>91.2</ele>
        <time>2015-02-23T20:55:33.365Z</time>
      </trkpt>
      <trkpt lat="48.83827" lon="2.35707">
        <ele>91.9</ele>
        <time>2015-02-23T20:55:37.190Z</time>
      </trkpt>
      <trkpt lat="48.83824" lon="2.35709">
        <ele>91.8</ele>
        <time>2015-02-23T20:55:38.103Z</time>
      </trkpt>
      <trkpt lat="48.83818" lon="2.35713">
        <ele>91.7</ele>
        <time>2015-02-23T20:55:40.161Z</time>
      </trkpt>
      <trkpt lat="48.83816" lon="2.35714">
        <ele>91.9</ele>
        <time>2015-02-23T20:55:41.103Z</time>
      </trkpt>
      <trkpt lat="48.83808" lon="2.3572">
        <ele>92.8</ele>
        <time>2015-02-23T20:55:45.115Z</time>
      </trkpt>
      <trkpt lat="48.83805" lon="2.35722">
        <ele>92.8</ele>
        <time>2015-02-23T20:55:46.137Z</time>
      </trkpt>
      <trkpt lat="48.83799" lon="2.35727">
        <ele>93.4</ele>
        <time>2015-02-23T20:55:48.183Z</time>
      </trkpt>
      <trkpt lat="48.83796" lon="2.3573">
        <ele>93.4</ele>
        <time>2015-02-23T20:55:49.199Z</time>
      </trkpt>
      <trkpt lat="48.8379" lon="2.35733">
        <ele>93.7</ele>
        <time>2015-02-23T20:55:51.096Z</time>
      </trkpt>
      <trkpt lat="48.83787" lon="2.35734">
        <ele>93.7</ele>
        <time>2015-02-23T20:55:52.136Z</time>
      </trkpt>
      <trkpt lat="48.83781" lon="2.35734">
        <ele>93.7</ele>
        <time>2015-02-23T20:55:54.174Z</time>
      </trkpt>
      <trkpt lat="48.83778" lon="2.35735">
        <ele>93.6</ele>
        <time>2015-02-23T20:55:55.199Z</time>
      </trkpt>
      <trkpt lat="48.83771" lon="2.3574">
        <ele>93.4</ele>
        <time>2015-02-23T20:55:58.105Z</time>
      </trkpt>
      <trkpt lat="48.8377" lon="2.35744">
        <ele>93.3</ele>
        <time>2015-02-23T20:55:59.212Z</time>
      </trkpt>
      <trkpt lat="48.83765" lon="2.35754">
        <ele>93.5</ele>
        <time>2015-02-23T20:56:01.737Z</time>
      </trkpt>
      <trkpt lat="48.83763" lon="2.35759">
        <ele>93.8</ele>
        <time>2015-02-23T20:56:02.163Z</time>
      </trkpt>
      <trkpt lat="48.83757" lon="2.35768">
        <ele>94.9</ele>
        <time>2015-02-23T20:56:04.128Z</time>
      </trkpt>
      <trkpt lat="48.83757" lon="2.35773">
        <ele>95.6</ele>
        <time>2015-02-23T20:56:05.154Z</time>
      </trkpt>
      <trkpt lat="48.83751" lon="2.35783">
        <ele>97</ele>
        <time>2015-02-23T20:56:09.214Z</time>
      </trkpt>
      <trkpt lat="48.8375" lon="2.35785">
        <ele>97.3</ele>
        <time>2015-02-23T20:56:10.158Z</time>
      </trkpt>
      <trkpt lat="48.83747" lon="2.35797">
        <ele>97.4</ele>
        <time>2015-02-23T20:56:14.146Z</time>
      </trkpt>
      <trkpt lat="48.83746" lon="2.35801">
        <ele>97.6</ele>
        <time>2015-02-23T20:56:15.134Z</time>
      </trkpt>
      <trkpt lat="48.83742" lon="2.3581">
        <ele>97.7</ele>
        <time>2015-02-23T20:56:18.115Z</time>
      </trkpt>
      <trkpt lat="48.8374" lon="2.35813">
        <ele>97.8</ele>
        <time>2015-02-23T20:56:19.130Z</time>
      </trkpt>
      <trkpt lat="48.83734" lon="2.35822">
        <ele>98</ele>
        <time>2015-02-23T20:56:22.164Z</time>
      </trkpt>
      <trkpt lat="48.83732" lon="2.35823">
        <ele>98.1</ele>
        <time>2015-02-23T20:56:23.165Z</time>
      </trkpt>
      <trkpt lat="48.83724" lon="2.35826">
        <ele>98.6</ele>
        <time>2015-02-23T20:56:26.782Z</time>
      </trkpt>
      <trkpt lat="48.83722" lon="2.35825">
        <ele>98.8</ele>
        <time>2015-02-23T20:56:27.098Z</time>
      </trkpt>
      <trkpt lat="48.83714" lon="2.35828">
        <ele>99.8</ele>
        <time>2015-02-23T20:56:30.217Z</time>
      </trkpt>
      <trkpt lat="48.83711" lon="2.3583">
        <ele>100</ele>
        <time>2015-02-23T20:56:31.243Z</time>
      </trkpt>
      <trkpt lat="48.83704" lon="2.35836">
        <ele>100.7</ele>
        <time>2015-02-23T20:56:35.126Z</time>
      </trkpt>
      <trkpt lat="48.83702" lon="2.35838">
        <ele>100.9</ele>
        <time>2015-02-23T20:56:36.140Z</time>
      </trkpt>
      <trkpt lat="48.83696" lon="2.35845">
        <ele>101.8</ele>
        <time>2015-02-23T20:56:40.096Z</time>
      </trkpt>
      <trkpt lat="48.83695" lon="2.35848">
        <ele>102</ele>
        <time>2015-02-23T20:56:41.123Z</time>
      </trkpt>
      <trkpt lat="48.83692" lon="2.35856">
        <ele>101.5</ele>
        <time>2015-02-23T20:56:43.094Z</time>
      </trkpt>
      <trkpt lat="48.83691" lon="2.35861">
        <ele>101.1</ele>
        <time>2015-02-23T20:56:44.136Z</time>
      </trkpt>
      <trkpt lat="48.83689" lon="2.35873">
        <ele>99.7</ele>
        <time>2015-02-23T20:56:47.189Z</time>
      </trkpt>
      <trkpt lat="48.83687" lon="2.35876">
        <ele>99.5</ele>
        <time>2015-02-23T20:56:48.131Z</time>
      </trkpt>
      <trkpt lat="48.83683" lon="2.35884">
        <ele>99.7</ele>
        <time>2015-02-23T20:56:51.065Z</time>
      </trkpt>
      <trkpt lat="48.83681" lon="2.35887">
        <ele>99.6</ele>
        <time>2015-02-23T20:56:52.078Z</time>
      </trkpt>
      <trkpt lat="48.83678" lon="2.35892">
        <ele>99.5</ele>
        <time>2015-02-23T20:57:13.166Z</time>
      </trkpt>
      <trkpt lat="48.83675" lon="2.35903">
        <ele>102.1</ele>
        <time>2015-02-23T20:57:14.094Z</time>
      </trkpt>
      <trkpt lat="48.83675" lon="2.35904">
        <ele>102.3</ele>
        <time>2015-02-23T20:57:15.116Z</time>
      </trkpt>
      <trkpt lat="48.83673" lon="2.35905">
        <ele>103.2</ele>
        <time>2015-02-23T20:57:16.154Z</time>
      </trkpt>
      <trkpt lat="48.83672" lon="2.35905">
        <ele>103.7</ele>
        <time>2015-02-23T20:57:28.174Z</time>
      </trkpt>
      <trkpt lat="48.83671" lon="2.35909">
        <ele>105.6</ele>
        <time>2015-02-23T20:57:29.087Z</time>
      </trkpt>
      <trkpt lat="48.83671" lon="2.35909">
        <ele>105.3</ele>
        <time>2015-02-23T20:57:30.109Z</time>
      </trkpt>
      <trkpt lat="48.83671" lon="2.35909">
        <ele>105.4</ele>
        <time>2015-02-23T20:57:36.850Z</time>
      </trkpt>
      <trkpt lat="48.83671" lon="2.35908">
        <ele>105.6</ele>
        <time>2015-02-23T20:57:37.233Z</time>
      </trkpt>
      <trkpt lat="48.83667" lon="2.35919">
        <ele>106.8</ele>
        <time>2015-02-23T20:58:07.945Z</time>
      </trkpt>
      <trkpt lat="48.83666" lon="2.3592">
        <ele>107.2</ele>
        <time>2015-02-23T20:58:08.257Z</time>
      </trkpt>
      <trkpt lat="48.83661" lon="2.3593">
        <ele>108.3</ele>
        <time>2015-02-23T20:58:13.048Z</time>
      </trkpt>
      <trkpt lat="48.83659" lon="2.35933">
        <ele>108.4</ele>
        <time>2015-02-23T20:58:13.194Z</time>
      </trkpt>
      <trkpt lat="48.83656" lon="2.35942">
        <ele>108.3</ele>
        <time>2015-02-23T20:58:16.581Z</time>
      </trkpt>
      <trkpt lat="48.83654" lon="2.35945">
        <ele>108.1</ele>
        <time>2015-02-23T20:58:17.226Z</time>
      </trkpt>
      <trkpt lat="48.83649" lon="2.35955">
        <ele>108.2</ele>
        <time>2015-02-23T20:58:21.706Z</time>
      </trkpt>
      <trkpt lat="48.83647" lon="2.35958">
        <ele>108.1</ele>
        <time>2015-02-23T20:58:22.306Z</time>
      </trkpt>
      <trkpt lat="48.83641" lon="2.35963">
        <ele>107.9</ele>
        <time>2015-02-23T20:58:25.316Z</time>
      </trkpt>
      <trkpt lat="48.83638" lon="2.35965">
        <ele>107.9</ele>
        <time>2015-02-23T20:58:26.216Z</time>
      </trkpt>
      <trkpt lat="48.83633" lon="2.35969">
        <ele>108.2</ele>
        <time>2015-02-23T20:58:28.241Z</time>
      </trkpt>
      <trkpt lat="48.83629" lon="2.35971">
        <ele>108.3</ele>
        <time>2015-02-23T20:58:29.274Z</time>
      </trkpt>
      <trkpt lat="48.83621" lon="2.35976">
        <ele>108.2</ele>
        <time>2015-02-23T20:58:32.248Z</time>
      </trkpt>
      <trkpt lat="48.83619" lon="2.35978">
        <ele>108.3</ele>
        <time>2015-02-23T20:58:33.262Z</time>
      </trkpt>
      <trkpt lat="48.83611" lon="2.35982">
        <ele>108.4</ele>
        <time>2015-02-23T20:58:36.978Z</time>
      </trkpt>
      <trkpt lat="48.83608" lon="2.35984">
        <ele>108.5</ele>
        <time>2015-02-23T20:58:37.271Z</time>
      </trkpt>
      <trkpt lat="48.83602" lon="2.35989">
        <ele>108.6</ele>
        <time>2015-02-23T20:58:39.204Z</time>
      </trkpt>
      <trkpt lat="48.83599" lon="2.35993">
        <ele>108.6</ele>
        <time>2015-02-23T20:58:40.210Z</time>
      </trkpt>
      <trkpt lat="48.83596" lon="2.36005">
        <ele>107.8</ele>
        <time>2015-02-23T20:58:43.241Z</time>
      </trkpt>
      <trkpt lat="48.83596" lon="2.3601">
        <ele>107.9</ele>
        <time>2015-02-23T20:58:44.251Z</time>
      </trkpt>
      <trkpt lat="48.83596" lon="2.36019">
        <ele>108</ele>
        <time>2015-02-23T20:58:47.280Z</time>
      </trkpt>
      <trkpt lat="48.83595" lon="2.36023">
        <ele>108.1</ele>
        <time>2015-02-23T20:58:47.330Z</time>
      </trkpt>
      <trkpt lat="48.83591" lon="2.36034">
        <ele>108.2</ele>
        <time>2015-02-23T20:58:50.254Z</time>
      </trkpt>
      <trkpt lat="48.83588" lon="2.36038">
        <ele>108.3</ele>
        <time>2015-02-23T20:58:51.258Z</time>
      </trkpt>
      <trkpt lat="48.83584" lon="2.36045">
        <ele>108.6</ele>
        <time>2015-02-23T20:58:54.176Z</time>
      </trkpt>
      <trkpt lat="48.83581" lon="2.36049">
        <ele>108.6</ele>
        <time>2015-02-23T20:58:54.280Z</time>
      </trkpt>
      <trkpt lat="48.83575" lon="2.36058">
        <ele>108.5</ele>
        <time>2015-02-23T20:58:56.171Z</time>
      </trkpt>
      <trkpt lat="48.83572" lon="2.36062">
        <ele>108.5</ele>
        <time>2015-02-23T20:58:57.202Z</time>
      </trkpt>
      <trkpt lat="48.83565" lon="2.36068">
        <ele>108.5</ele>
        <time>2015-02-23T20:58:59.313Z</time>
      </trkpt>
      <trkpt lat="48.83561" lon="2.36072">
        <ele>108.3</ele>
        <time>2015-02-23T20:59:00.245Z</time>
      </trkpt>
      <trkpt lat="48.83555" lon="2.36079">
        <ele>108.2</ele>
        <time>2015-02-23T20:59:02.190Z</time>
      </trkpt>
      <trkpt lat="48.83551" lon="2.36083">
        <ele>108.1</ele>
        <time>2015-02-23T20:59:03.224Z</time>
      </trkpt>
      <trkpt lat="48.83544" lon="2.36088">
        <ele>108.1</ele>
        <time>2015-02-23T20:59:05.264Z</time>
      </trkpt>
      <trkpt lat="48.83542" lon="2.3609">
        <ele>108.2</ele>
        <time>2015-02-23T20:59:06.321Z</time>
      </trkpt>
      <trkpt lat="48.83535" lon="2.36093">
        <ele>108.5</ele>
        <time>2015-02-23T20:59:08.190Z</time>
      </trkpt>
      <trkpt lat="48.83533" lon="2.36095">
        <ele>108.8</ele>
        <time>2015-02-23T20:59:09.206Z</time>
      </trkpt>
      <trkpt lat="48.83527" lon="2.36097">
        <ele>109.1</ele>
        <time>2015-02-23T20:59:11.268Z</time>
      </trkpt>
      <trkpt lat="48.83523" lon="2.361">
        <ele>109.4</ele>
        <time>2015-02-23T20:59:12.292Z</time>
      </trkpt>
      <trkpt lat="48.83519" lon="2.36104">
        <ele>109.6</ele>
        <time>2015-02-23T20:59:13.191Z</time>
      </trkpt>
      <trkpt lat="48.83516" lon="2.36107">
        <ele>109.6</ele>
        <time>2015-02-23T20:59:14.204Z</time>
      </trkpt>
      <trkpt lat="48.83508" lon="2.36114">
        <ele>109.5</ele>
        <time>2015-02-23T20:59:16.251Z</time>
      </trkpt>
      <trkpt lat="48.83504" lon="2.36117">
        <ele>109.5</ele>
        <time>2015-02-23T20:59:17.188Z</time>
      </trkpt>
      <trkpt lat="48.83498" lon="2.36121">
        <ele>108.6</ele>
        <time>2015-02-23T20:59:18.226Z</time>
      </trkpt>
      <trkpt lat="48.83494" lon="2.36124">
        <ele>108.6</ele>
        <time>2015-02-23T20:59:19.232Z</time>
      </trkpt>
      <trkpt lat="48.83487" lon="2.36133">
        <ele>109</ele>
        <time>2015-02-23T20:59:21.191Z</time>
      </trkpt>
      <trkpt lat="48.83484" lon="2.36138">
        <ele>108.9</ele>
        <time>2015-02-23T20:59:22.203Z</time>
      </trkpt>
      <trkpt lat="48.8348" lon="2.36144">
        <ele>109</ele>
        <time>2015-02-23T20:59:23.240Z</time>
      </trkpt>
      <trkpt lat="48.83477" lon="2.36151">
        <ele>108.7</ele>
        <time>2015-02-23T20:59:24.252Z</time>
      </trkpt>
      <trkpt lat="48.83473" lon="2.36158">
        <ele>108.6</ele>
        <time>2015-02-23T20:59:25.269Z</time>
      </trkpt>
      <trkpt lat="48.8347" lon="2.36163">
        <ele>108.7</ele>
        <time>2015-02-23T20:59:26.275Z</time>
      </trkpt>
      <trkpt lat="48.83466" lon="2.36173">
        <ele>108.3</ele>
        <time>2015-02-23T20:59:28.203Z</time>
      </trkpt>
      <trkpt lat="48.83465" lon="2.36178">
        <ele>108.2</ele>
        <time>2015-02-23T20:59:29.251Z</time>
      </trkpt>
      <trkpt lat="48.83461" lon="2.36187">
        <ele>109</ele>
        <time>2015-02-23T20:59:31.382Z</time>
      </trkpt>
      <trkpt lat="48.8346" lon="2.3619">
        <ele>109.3</ele>
        <time>2015-02-23T20:59:32.243Z</time>
      </trkpt>
      <trkpt lat="48.83455" lon="2.36199">
        <ele>110.1</ele>
        <time>2015-02-23T20:59:35.304Z</time>
      </trkpt>
      <trkpt lat="48.83453" lon="2.36201">
        <ele>110.2</ele>
        <time>2015-02-23T20:59:36.317Z</time>
      </trkpt>
      <trkpt lat="48.83448" lon="2.36207">
        <ele>110.5</ele>
        <time>2015-02-23T20:59:38.188Z</time>
      </trkpt>
      <trkpt lat="48.83446" lon="2.3621">
        <ele>110.7</ele>
        <time>2015-02-23T20:59:39.205Z</time>
      </trkpt>
      <trkpt lat="48.83439" lon="2.36217">
        <ele>111.2</ele>
        <time>2015-02-23T20:59:41.178Z</time>
      </trkpt>
      <trkpt lat="48.83435" lon="2.36221">
        <ele>111.4</ele>
        <time>2015-02-23T20:59:42.243Z</time>
      </trkpt>
      <trkpt lat="48.8343" lon="2.36225">
        <ele>111.8</ele>
        <time>2015-02-23T20:59:43.185Z</time>
      </trkpt>
      <trkpt lat="48.83426" lon="2.36229">
        <ele>112.1</ele>
        <time>2015-02-23T20:59:44.197Z</time>
      </trkpt>
      <trkpt lat="48.8342" lon="2.36236">
        <ele>112.9</ele>
        <time>2015-02-23T20:59:46.226Z</time>
      </trkpt>
      <trkpt lat="48.83415" lon="2.3624">
        <ele>113.2</ele>
        <time>2015-02-23T20:59:47.272Z</time>
      </trkpt>
      <trkpt lat="48.83411" lon="2.36244">
        <ele>113.3</ele>
        <time>2015-02-23T20:59:48.285Z</time>
      </trkpt>
      <trkpt lat="48.83407" lon="2.36247">
        <ele>113.2</ele>
        <time>2015-02-23T20:59:49.199Z</time>
      </trkpt>
      <trkpt lat="48.83404" lon="2.36256">
        <ele>112.9</ele>
        <time>2015-02-23T20:59:50.202Z</time>
      </trkpt>
      <trkpt lat="48.834" lon="2.36262">
        <ele>112.9</ele>
        <time>2015-02-23T20:59:51.245Z</time>
      </trkpt>
      <trkpt lat="48.83393" lon="2.36269">
        <ele>114.5</ele>
        <time>2015-02-23T20:59:52.178Z</time>
      </trkpt>
      <trkpt lat="48.83389" lon="2.36274">
        <ele>114.6</ele>
        <time>2015-02-23T20:59:53.194Z</time>
      </trkpt>
      <trkpt lat="48.83386" lon="2.36281">
        <ele>114.1</ele>
        <time>2015-02-23T20:59:54.245Z</time>
      </trkpt>
      <trkpt lat="48.83378" lon="2.3629">
        <ele>112.3</ele>
        <time>2015-02-23T20:59:55.258Z</time>
      </trkpt>
      <trkpt lat="48.83374" lon="2.36297">
        <ele>111.3</ele>
        <time>2015-02-23T20:59:56.190Z</time>
      </trkpt>
      <trkpt lat="48.83369" lon="2.36303">
        <ele>111</ele>
        <time>2015-02-23T20:59:57.196Z</time>
      </trkpt>
      <trkpt lat="48.83366" lon="2.36309">
        <ele>110.6</ele>
        <time>2015-02-23T20:59:58.206Z</time>
      </trkpt>
      <trkpt lat="48.83362" lon="2.36314">
        <ele>109.9</ele>
        <time>2015-02-23T20:59:59.217Z</time>
      </trkpt>
      <trkpt lat="48.83358" lon="2.36319">
        <ele>109.4</ele>
        <time>2015-02-23T21:00:00.249Z</time>
      </trkpt>
      <trkpt lat="48.83354" lon="2.36324">
        <ele>109.1</ele>
        <time>2015-02-23T21:00:01.269Z</time>
      </trkpt>
      <trkpt lat="48.83349" lon="2.36332">
        <ele>107.9</ele>
        <time>2015-02-23T21:00:03.296Z</time>
      </trkpt>
      <trkpt lat="48.83347" lon="2.36336">
        <ele>107.5</ele>
        <time>2015-02-23T21:00:04.208Z</time>
      </trkpt>
      <trkpt lat="48.83342" lon="2.36343">
        <ele>107.5</ele>
        <time>2015-02-23T21:00:06.240Z</time>
      </trkpt>
      <trkpt lat="48.83339" lon="2.36345">
        <ele>107.6</ele>
        <time>2015-02-23T21:00:07.243Z</time>
      </trkpt>
      <trkpt lat="48.83333" lon="2.36351">
        <ele>107.2</ele>
        <time>2015-02-23T21:00:10.218Z</time>
      </trkpt>
      <trkpt lat="48.83332" lon="2.36353">
        <ele>107.1</ele>
        <time>2015-02-23T21:00:11.272Z</time>
      </trkpt>
      <trkpt lat="48.83328" lon="2.36362">
        <ele>106.9</ele>
        <time>2015-02-23T21:00:14.202Z</time>
      </trkpt>
      <trkpt lat="48.83327" lon="2.36366">
        <ele>107</ele>
        <time>2015-02-23T21:00:15.218Z</time>
      </trkpt>
      <trkpt lat="48.83323" lon="2.36373">
        <ele>107.7</ele>
        <time>2015-02-23T21:00:17.268Z</time>
      </trkpt>
      <trkpt lat="48.83321" lon="2.36377">
        <ele>107.9</ele>
        <time>2015-02-23T21:00:18.282Z</time>
      </trkpt>
      <trkpt lat="48.83318" lon="2.36383">
        <ele>107.8</ele>
        <time>2015-02-23T21:00:20.224Z</time>
      </trkpt>
      <trkpt lat="48.83315" lon="2.36388">
        <ele>107.8</ele>
        <time>2015-02-23T21:00:21.236Z</time>
      </trkpt>
      <trkpt lat="48.83309" lon="2.36394">
        <ele>108.8</ele>
        <time>2015-02-23T21:00:24.260Z</time>
      </trkpt>
      <trkpt lat="48.83308" lon="2.36396">
        <ele>109</ele>
        <time>2015-02-23T21:00:25.255Z</time>
      </trkpt>
      <trkpt lat="48.83303" lon="2.36402">
        <ele>109.5</ele>
        <time>2015-02-23T21:00:27.228Z</time>
      </trkpt>
      <trkpt lat="48.833" lon="2.36405">
        <ele>109.9</ele>
        <time>2015-02-23T21:00:28.234Z</time>
      </trkpt>
      <trkpt lat="48.83294" lon="2.3641">
        <ele>110.5</ele>
        <time>2015-02-23T21:00:29.261Z</time>
      </trkpt>
      <trkpt lat="48.83291" lon="2.36414">
        <ele>110.9</ele>
        <time>2015-02-23T21:00:30.266Z</time>
      </trkpt>
      <trkpt lat="48.83284" lon="2.3642">
        <ele>111.4</ele>
        <time>2015-02-23T21:00:32.296Z</time>
      </trkpt>
      <trkpt lat="48.83282" lon="2.36423">
        <ele>111.6</ele>
        <time>2015-02-23T21:00:33.217Z</time>
      </trkpt>
      <trkpt lat="48.83278" lon="2.3643">
        <ele>112.1</ele>
        <time>2015-02-23T21:00:35.202Z</time>
      </trkpt>
      <trkpt lat="48.83276" lon="2.36436">
        <ele>112.1</ele>
        <time>2015-02-23T21:00:36.253Z</time>
      </trkpt>
      <trkpt lat="48.83273" lon="2.36442">
        <ele>111.6</ele>
        <time>2015-02-23T21:00:37.206Z</time>
      </trkpt>
      <trkpt lat="48.8327" lon="2.36449">
        <ele>111.2</ele>
        <time>2015-02-23T21:00:38.196Z</time>
      </trkpt>
      <trkpt lat="48.83265" lon="2.36454">
        <ele>111.4</ele>
        <time>2015-02-23T21:00:40.220Z</time>
      </trkpt>
      <trkpt lat="48.83262" lon="2.36456">
        <ele>111.8</ele>
        <time>2015-02-23T21:00:41.271Z</time>
      </trkpt>
      <trkpt lat="48.83255" lon="2.36461">
        <ele>112.4</ele>
        <time>2015-02-23T21:00:43.174Z</time>
      </trkpt>
      <trkpt lat="48.83253" lon="2.36465">
        <ele>113</ele>
        <time>2015-02-23T21:00:44.214Z</time>
      </trkpt>
      <trkpt lat="48.83247" lon="2.36474">
        <ele>113.3</ele>
        <time>2015-02-23T21:00:46.242Z</time>
      </trkpt>
      <trkpt lat="48.83244" lon="2.36479">
        <ele>113.3</ele>
        <time>2015-02-23T21:00:47.310Z</time>
      </trkpt>
      <trkpt lat="48.83241" lon="2.36484">
        <ele>113.4</ele>
        <time>2015-02-23T21:00:48.228Z</time>
      </trkpt>
      <trkpt lat="48.83239" lon="2.3649">
        <ele>113.1</ele>
        <time>2015-02-23T21:00:49.243Z</time>
      </trkpt>
      <trkpt lat="48.83235" lon="2.36497">
        <ele>113</ele>
        <time>2015-02-23T21:00:50.262Z</time>
      </trkpt>
      <trkpt lat="48.83232" lon="2.36502">
        <ele>113</ele>
        <time>2015-02-23T21:00:51.265Z</time>
      </trkpt>
      <trkpt lat="48.83227" lon="2.36508">
        <ele>113</ele>
        <time>2015-02-23T21:00:52.375Z</time>
      </trkpt>
      <trkpt lat="48.83223" lon="2.36514">
        <ele>113.1</ele>
        <time>2015-02-23T21:00:53.216Z</time>
      </trkpt>
      <trkpt lat="48.8322" lon="2.36519">
        <ele>113.3</ele>
        <time>2015-02-23T21:00:54.302Z</time>
      </trkpt>
      <trkpt lat="48.83216" lon="2.36524">
        <ele>113.5</ele>
        <time>2015-02-23T21:00:55.194Z</time>
      </trkpt>
      <trkpt lat="48.83212" lon="2.3653">
        <ele>113.7</ele>
        <time>2015-02-23T21:00:56.203Z</time>
      </trkpt>
      <trkpt lat="48.83207" lon="2.36535">
        <ele>113.7</ele>
        <time>2015-02-23T21:00:57.210Z</time>
      </trkpt>
      <trkpt lat="48.83203" lon="2.3654">
        <ele>113.8</ele>
        <time>2015-02-23T21:00:58.248Z</time>
      </trkpt>
      <trkpt lat="48.83198" lon="2.36545">
        <ele>113.7</ele>
        <time>2015-02-23T21:00:59.248Z</time>
      </trkpt>
      <trkpt lat="48.83194" lon="2.36552">
        <ele>113.4</ele>
        <time>2015-02-23T21:01:00.265Z</time>
      </trkpt>
      <trkpt lat="48.83189" lon="2.36563">
        <ele>112.2</ele>
        <time>2015-02-23T21:01:01.196Z</time>
      </trkpt>
      <trkpt lat="48.83184" lon="2.3657">
        <ele>112.1</ele>
        <time>2015-02-23T21:01:02.195Z</time>
      </trkpt>
      <trkpt lat="48.83179" lon="2.36576">
        <ele>111.8</ele>
        <time>2015-02-23T21:01:03.212Z</time>
      </trkpt>
      <trkpt lat="48.83175" lon="2.36582">
        <ele>111.8</ele>
        <time>2015-02-23T21:01:04.241Z</time>
      </trkpt>
      <trkpt lat="48.83171" lon="2.36588">
        <ele>111.9</ele>
        <time>2015-02-23T21:01:05.253Z</time>
      </trkpt>
      <trkpt lat="48.83167" lon="2.36594">
        <ele>111.8</ele>
        <time>2015-02-23T21:01:06.268Z</time>
      </trkpt>
      <trkpt lat="48.83163" lon="2.36604">
        <ele>110.9</ele>
        <time>2015-02-23T21:01:07.277Z</time>
      </trkpt>
      <trkpt lat="48.8316" lon="2.36609">
        <ele>110.8</ele>
        <time>2015-02-23T21:01:08.173Z</time>
      </trkpt>
      <trkpt lat="48.83155" lon="2.36614">
        <ele>110.9</ele>
        <time>2015-02-23T21:01:09.191Z</time>
      </trkpt>
      <trkpt lat="48.8315" lon="2.36619">
        <ele>111.2</ele>
        <time>2015-02-23T21:01:10.204Z</time>
      </trkpt>
      <trkpt lat="48.83145" lon="2.36623">
        <ele>111.4</ele>
        <time>2015-02-23T21:01:11.206Z</time>
      </trkpt>
      <trkpt lat="48.83139" lon="2.36626">
        <ele>111.5</ele>
        <time>2015-02-23T21:01:12.234Z</time>
      </trkpt>
      <trkpt lat="48.83135" lon="2.36628">
        <ele>111.6</ele>
        <time>2015-02-23T21:01:13.248Z</time>
      </trkpt>
      <trkpt lat="48.83128" lon="2.36633">
        <ele>111.8</ele>
        <time>2015-02-23T21:01:15.293Z</time>
      </trkpt>
      <trkpt lat="48.83126" lon="2.36637">
        <ele>112.1</ele>
        <time>2015-02-23T21:01:16.198Z</time>
      </trkpt>
      <trkpt lat="48.8312" lon="2.36644">
        <ele>112.6</ele>
        <time>2015-02-23T21:01:18.252Z</time>
      </trkpt>
      <trkpt lat="48.83117" lon="2.36648">
        <ele>112.8</ele>
        <time>2015-02-23T21:01:19.274Z</time>
      </trkpt>
      <trkpt lat="48.83111" lon="2.36654">
        <ele>112.9</ele>
        <time>2015-02-23T21:01:21.200Z</time>
      </trkpt>
      <trkpt lat="48.83108" lon="2.36656">
        <ele>113</ele>
        <time>2015-02-23T21:01:22.218Z</time>
      </trkpt>
      <trkpt lat="48.83101" lon="2.36664">
        <ele>113.3</ele>
        <time>2015-02-23T21:01:25.200Z</time>
      </trkpt>
      <trkpt lat="48.83098" lon="2.36666">
        <ele>113.6</ele>
        <time>2015-02-23T21:01:26.211Z</time>
      </trkpt>
      <trkpt lat="48.83093" lon="2.36673">
        <ele>114</ele>
        <time>2015-02-23T21:01:28.263Z</time>
      </trkpt>
      <trkpt lat="48.83091" lon="2.36677">
        <ele>114.2</ele>
        <time>2015-02-23T21:01:29.175Z</time>
      </trkpt>
      <trkpt lat="48.83085" lon="2.36686">
        <ele>114.6</ele>
        <time>2015-02-23T21:01:31.230Z</time>
      </trkpt>
      <trkpt lat="48.83082" lon="2.3669">
        <ele>114.8</ele>
        <time>2015-02-23T21:01:32.255Z</time>
      </trkpt>
      <trkpt lat="48.83077" lon="2.36697">
        <ele>115.5</ele>
        <time>2015-02-23T21:01:34.199Z</time>
      </trkpt>
      <trkpt lat="48.83075" lon="2.36702">
        <ele>115.5</ele>
        <time>2015-02-23T21:01:35.211Z</time>
      </trkpt>
      <trkpt lat="48.8307" lon="2.36713">
        <ele>115.4</ele>
        <time>2015-02-23T21:01:38.198Z</time>
      </trkpt>
      <trkpt lat="48.83067" lon="2.36717">
        <ele>115.6</ele>
        <time>2015-02-23T21:01:39.192Z</time>
      </trkpt>
      <trkpt lat="48.83061" lon="2.36726">
        <ele>114.7</ele>
        <time>2015-02-23T21:01:42.278Z</time>
      </trkpt>
      <trkpt lat="48.83059" lon="2.36728">
        <ele>114.2</ele>
        <time>2015-02-23T21:01:43.279Z</time>
      </trkpt>
      <trkpt lat="48.83051" lon="2.36734">
        <ele>112.5</ele>
        <time>2015-02-23T21:01:46.255Z</time>
      </trkpt>
      <trkpt lat="48.83049" lon="2.36737">
        <ele>112.3</ele>
        <time>2015-02-23T21:01:47.160Z</time>
      </trkpt>
      <trkpt lat="48.83045" lon="2.36748">
        <ele>112.5</ele>
        <time>2015-02-23T21:01:53.196Z</time>
      </trkpt>
      <trkpt lat="48.83044" lon="2.36751">
        <ele>112.8</ele>
        <time>2015-02-23T21:01:54.306Z</time>
      </trkpt>
      <trkpt lat="48.83045" lon="2.36762">
        <ele>112.9</ele>
        <time>2015-02-23T21:02:00.265Z</time>
      </trkpt>
      <trkpt lat="48.83047" lon="2.36763">
        <ele>112.6</ele>
        <time>2015-02-23T21:02:01.209Z</time>
      </trkpt>
      <trkpt lat="48.83047" lon="2.36764">
        <ele>112.6</ele>
        <time>2015-02-23T21:02:02.209Z</time>
      </trkpt>
      <trkpt lat="48.83047" lon="2.36764">
        <ele>112.5</ele>
        <time>2015-02-23T21:02:05.183Z</time>
      </trkpt>
      <trkpt lat="48.83045" lon="2.36765">
        <ele>112.7</ele>
        <time>2015-02-23T21:02:06.230Z</time>
      </trkpt>
      <trkpt lat="48.83045" lon="2.36764">
        <ele>112.7</ele>
        <time>2015-02-23T21:02:08.368Z</time>
      </trkpt>
      <trkpt lat="48.83047" lon="2.36762">
        <ele>112.7</ele>
        <time>2015-02-23T21:02:09.264Z</time>
      </trkpt>
      <trkpt lat="48.83053" lon="2.3676">
        <ele>112.5</ele>
        <time>2015-02-23T21:02:12.280Z</time>
      </trkpt>
      <trkpt lat="48.83056" lon="2.36759">
        <ele>112.5</ele>
        <time>2015-02-23T21:02:13.175Z</time>
      </trkpt>
      <trkpt lat="48.83063" lon="2.36755">
        <ele>112.1</ele>
        <time>2015-02-23T21:02:15.188Z</time>
      </trkpt>
      <trkpt lat="48.83069" lon="2.36753">
        <ele>112</ele>
        <time>2015-02-23T21:02:16.222Z</time>
      </trkpt>
      <trkpt lat="48.83076" lon="2.36747">
        <ele>111.8</ele>
        <time>2015-02-23T21:02:18.238Z</time>
      </trkpt>
      <trkpt lat="48.8308" lon="2.36744">
        <ele>111.7</ele>
        <time>2015-02-23T21:02:19.253Z</time>
      </trkpt>
      <trkpt lat="48.83084" lon="2.3674">
        <ele>111.7</ele>
        <time>2015-02-23T21:02:20.254Z</time>
      </trkpt>
      <trkpt lat="48.83088" lon="2.36736">
        <ele>111.6</ele>
        <time>2015-02-23T21:02:21.270Z</time>
      </trkpt>
      <trkpt lat="48.83094" lon="2.36731">
        <ele>111.4</ele>
        <time>2015-02-23T21:02:22.191Z</time>
      </trkpt>
      <trkpt lat="48.83098" lon="2.36726">
        <ele>111.4</ele>
        <time>2015-02-23T21:02:23.206Z</time>
      </trkpt>
      <trkpt lat="48.83103" lon="2.36722">
        <ele>111.4</ele>
        <time>2015-02-23T21:02:24.259Z</time>
      </trkpt>
      <trkpt lat="48.83107" lon="2.36717">
        <ele>111.3</ele>
        <time>2015-02-23T21:02:25.237Z</time>
      </trkpt>
      <trkpt lat="48.83112" lon="2.36713">
        <ele>111.2</ele>
        <time>2015-02-23T21:02:26.736Z</time>
      </trkpt>
      <trkpt lat="48.83116" lon="2.36709">
        <ele>111.2</ele>
        <time>2015-02-23T21:02:27.262Z</time>
      </trkpt>
      <trkpt lat="48.8312" lon="2.36703">
        <ele>111</ele>
        <time>2015-02-23T21:02:28.268Z</time>
      </trkpt>
      <trkpt lat="48.83124" lon="2.36698">
        <ele>111</ele>
        <time>2015-02-23T21:02:29.183Z</time>
      </trkpt>
      <trkpt lat="48.83128" lon="2.36691">
        <ele>110</ele>
        <time>2015-02-23T21:02:30.224Z</time>
      </trkpt>
      <trkpt lat="48.83131" lon="2.36686">
        <ele>109.8</ele>
        <time>2015-02-23T21:02:31.235Z</time>
      </trkpt>
      <trkpt lat="48.83134" lon="2.3668">
        <ele>109.5</ele>
        <time>2015-02-23T21:02:32.240Z</time>
      </trkpt>
      <trkpt lat="48.83132" lon="2.36672">
        <ele>106.7</ele>
        <time>2015-02-23T21:02:33.248Z</time>
      </trkpt>
      <trkpt lat="48.83134" lon="2.36666">
        <ele>106.4</ele>
        <time>2015-02-23T21:02:34.170Z</time>
      </trkpt>
      <trkpt lat="48.83137" lon="2.36661">
        <ele>106.4</ele>
        <time>2015-02-23T21:02:35.180Z</time>
      </trkpt>
      <trkpt lat="48.83141" lon="2.36656">
        <ele>106.4</ele>
        <time>2015-02-23T21:02:36.221Z</time>
      </trkpt>
      <trkpt lat="48.83145" lon="2.36652">
        <ele>106.3</ele>
        <time>2015-02-23T21:02:37.219Z</time>
      </trkpt>
      <trkpt lat="48.83154" lon="2.36652">
        <ele>106.2</ele>
        <time>2015-02-23T21:02:40.264Z</time>
      </trkpt>
      <trkpt lat="48.83156" lon="2.36655">
        <ele>106.1</ele>
        <time>2015-02-23T21:02:41.159Z</time>
      </trkpt>
      <trkpt lat="48.83162" lon="2.36664">
        <ele>105.7</ele>
        <time>2015-02-23T21:02:43.218Z</time>
      </trkpt>
      <trkpt lat="48.83165" lon="2.36668">
        <ele>105.6</ele>
        <time>2015-02-23T21:02:44.233Z</time>
      </trkpt>
      <trkpt lat="48.83168" lon="2.36678">
        <ele>104.7</ele>
        <time>2015-02-23T21:02:46.279Z</time>
      </trkpt>
      <trkpt lat="48.83171" lon="2.36684">
        <ele>104.7</ele>
        <time>2015-02-23T21:02:47.174Z</time>
      </trkpt>
      <trkpt lat="48.83174" lon="2.3669">
        <ele>104.4</ele>
        <time>2015-02-23T21:02:48.204Z</time>
      </trkpt>
      <trkpt lat="48.83178" lon="2.36695">
        <ele>104.2</ele>
        <time>2015-02-23T21:02:49.207Z</time>
      </trkpt>
      <trkpt lat="48.83181" lon="2.367">
        <ele>104.2</ele>
        <time>2015-02-23T21:02:50.237Z</time>
      </trkpt>
      <trkpt lat="48.83185" lon="2.36706">
        <ele>104</ele>
        <time>2015-02-23T21:02:51.248Z</time>
      </trkpt>
      <trkpt lat="48.83188" lon="2.36711">
        <ele>104.1</ele>
        <time>2015-02-23T21:02:52.269Z</time>
      </trkpt>
      <trkpt lat="48.83192" lon="2.36716">
        <ele>104</ele>
        <time>2015-02-23T21:02:53.185Z</time>
      </trkpt>
      <trkpt lat="48.83195" lon="2.36721">
        <ele>103.8</ele>
        <time>2015-02-23T21:02:54.276Z</time>
      </trkpt>
      <trkpt lat="48.83199" lon="2.36726">
        <ele>103.5</ele>
        <time>2015-02-23T21:02:55.177Z</time>
      </trkpt>
      <trkpt lat="48.83205" lon="2.36736">
        <ele>102.7</ele>
        <time>2015-02-23T21:02:57.253Z</time>
      </trkpt>
      <trkpt lat="48.83208" lon="2.3674">
        <ele>102.4</ele>
        <time>2015-02-23T21:02:58.266Z</time>
      </trkpt>
      <trkpt lat="48.83211" lon="2.36744">
        <ele>101.9</ele>
        <time>2015-02-23T21:02:59.159Z</time>
      </trkpt>
      <trkpt lat="48.83211" lon="2.36754">
        <ele>100.7</ele>
        <time>2015-02-23T21:03:00.188Z</time>
      </trkpt>
      <trkpt lat="48.83217" lon="2.36763">
        <ele>100.2</ele>
        <time>2015-02-23T21:03:02.214Z</time>
      </trkpt>
      <trkpt lat="48.83219" lon="2.36767">
        <ele>100</ele>
        <time>2015-02-23T21:03:03.231Z</time>
      </trkpt>
      <trkpt lat="48.83223" lon="2.36777">
        <ele>99.4</ele>
        <time>2015-02-23T21:03:05.173Z</time>
      </trkpt>
      <trkpt lat="48.83225" lon="2.36781">
        <ele>99</ele>
        <time>2015-02-23T21:03:06.193Z</time>
      </trkpt>
      <trkpt lat="48.83229" lon="2.36786">
        <ele>98.1</ele>
        <time>2015-02-23T21:03:07.210Z</time>
      </trkpt>
      <trkpt lat="48.83232" lon="2.36793">
        <ele>96.9</ele>
        <time>2015-02-23T21:03:08.229Z</time>
      </trkpt>
      <trkpt lat="48.83235" lon="2.36799">
        <ele>96.3</ele>
        <time>2015-02-23T21:03:09.174Z</time>
      </trkpt>
      <trkpt lat="48.83239" lon="2.36804">
        <ele>95.7</ele>
        <time>2015-02-23T21:03:10.203Z</time>
      </trkpt>
      <trkpt lat="48.83242" lon="2.36809">
        <ele>95.5</ele>
        <time>2015-02-23T21:03:11.218Z</time>
      </trkpt>
      <trkpt lat="48.83246" lon="2.36814">
        <ele>95.2</ele>
        <time>2015-02-23T21:03:12.228Z</time>
      </trkpt>
      <trkpt lat="48.8325" lon="2.36819">
        <ele>94.9</ele>
        <time>2015-02-23T21:03:13.246Z</time>
      </trkpt>
      <trkpt lat="48.83254" lon="2.36824">
        <ele>94.5</ele>
        <time>2015-02-23T21:03:14.164Z</time>
      </trkpt>
      <trkpt lat="48.8326" lon="2.36834">
        <ele>94</ele>
        <time>2015-02-23T21:03:16.245Z</time>
      </trkpt>
      <trkpt lat="48.83264" lon="2.36839">
        <ele>93.5</ele>
        <time>2015-02-23T21:03:17.213Z</time>
      </trkpt>
      <trkpt lat="48.83267" lon="2.36843">
        <ele>93.2</ele>
        <time>2015-02-23T21:03:18.217Z</time>
      </trkpt>
      <trkpt lat="48.8327" lon="2.36849">
        <ele>92.9</ele>
        <time>2015-02-23T21:03:19.230Z</time>
      </trkpt>
      <trkpt lat="48.83273" lon="2.36854">
        <ele>92.6</ele>
        <time>2015-02-23T21:03:20.161Z</time>
      </trkpt>
      <trkpt lat="48.83277" lon="2.36859">
        <ele>92.4</ele>
        <time>2015-02-23T21:03:21.163Z</time>
      </trkpt>
      <trkpt lat="48.83281" lon="2.36865">
        <ele>92.3</ele>
        <time>2015-02-23T21:03:22.225Z</time>
      </trkpt>
      <trkpt lat="48.83285" lon="2.3687">
        <ele>92.3</ele>
        <time>2015-02-23T21:03:23.235Z</time>
      </trkpt>
      <trkpt lat="48.8329" lon="2.36875">
        <ele>92.1</ele>
        <time>2015-02-23T21:03:24.258Z</time>
      </trkpt>
      <trkpt lat="48.83294" lon="2.36879">
        <ele>91.9</ele>
        <time>2015-02-23T21:03:25.154Z</time>
      </trkpt>
      <trkpt lat="48.83298" lon="2.36884">
        <ele>91.8</ele>
        <time>2015-02-23T21:03:26.203Z</time>
      </trkpt>
      <trkpt lat="48.83301" lon="2.3689">
        <ele>91.7</ele>
        <time>2015-02-23T21:03:27.212Z</time>
      </trkpt>
      <trkpt lat="48.83307" lon="2.36895">
        <ele>91.6</ele>
        <time>2015-02-23T21:03:28.222Z</time>
      </trkpt>
      <trkpt lat="48.83313" lon="2.369">
        <ele>91.8</ele>
        <time>2015-02-23T21:03:29.227Z</time>
      </trkpt>
      <trkpt lat="48.83319" lon="2.36904">
        <ele>91.9</ele>
        <time>2015-02-23T21:03:30.183Z</time>
      </trkpt>
      <trkpt lat="48.83325" lon="2.36907">
        <ele>91.7</ele>
        <time>2015-02-23T21:03:31.200Z</time>
      </trkpt>
      <trkpt lat="48.83331" lon="2.3691">
        <ele>91.5</ele>
        <time>2015-02-23T21:03:32.147Z</time>
      </trkpt>
      <trkpt lat="48.83336" lon="2.36914">
        <ele>91.3</ele>
        <time>2015-02-23T21:03:33.166Z</time>
      </trkpt>
      <trkpt lat="48.83341" lon="2.36917">
        <ele>91.1</ele>
        <time>2015-02-23T21:03:34.169Z</time>
      </trkpt>
      <trkpt lat="48.83342" lon="2.36924">
        <ele>91</ele>
        <time>2015-02-23T21:03:35.177Z</time>
      </trkpt>
      <trkpt lat="48.83338" lon="2.36936">
        <ele>90.8</ele>
        <time>2015-02-23T21:03:36.197Z</time>
      </trkpt>
      <trkpt lat="48.83338" lon="2.36944">
        <ele>90.7</ele>
        <time>2015-02-23T21:03:37.204Z</time>
      </trkpt>
      <trkpt lat="48.83335" lon="2.36955">
        <ele>90.5</ele>
        <time>2015-02-23T21:03:38.221Z</time>
      </trkpt>
      <trkpt lat="48.83337" lon="2.36966">
        <ele>90.6</ele>
        <time>2015-02-23T21:03:40.185Z</time>
      </trkpt>
      <trkpt lat="48.83337" lon="2.36971">
        <ele>90.7</ele>
        <time>2015-02-23T21:03:41.213Z</time>
      </trkpt>
      <trkpt lat="48.83343" lon="2.36979">
        <ele>90.6</ele>
        <time>2015-02-23T21:03:44.227Z</time>
      </trkpt>
      <trkpt lat="48.83347" lon="2.36981">
        <ele>91.3</ele>
        <time>2015-02-23T21:03:45.259Z</time>
      </trkpt>
      <trkpt lat="48.83352" lon="2.36989">
        <ele>91.5</ele>
        <time>2015-02-23T21:03:47.266Z</time>
      </trkpt>
      <trkpt lat="48.83354" lon="2.36994">
        <ele>91.3</ele>
        <time>2015-02-23T21:03:48.329Z</time>
      </trkpt>
      <trkpt lat="48.83356" lon="2.37004">
        <ele>91.4</ele>
        <time>2015-02-23T21:03:50.175Z</time>
      </trkpt>
      <trkpt lat="48.83357" lon="2.37009">
        <ele>91.9</ele>
        <time>2015-02-23T21:03:51.183Z</time>
      </trkpt>
      <trkpt lat="48.8336" lon="2.37018">
        <ele>92.2</ele>
        <time>2015-02-23T21:03:54.282Z</time>
      </trkpt>
      <trkpt lat="48.83362" lon="2.37021">
        <ele>92.5</ele>
        <time>2015-02-23T21:03:55.200Z</time>
      </trkpt>
      <trkpt lat="48.83367" lon="2.37029">
        <ele>94</ele>
        <time>2015-02-23T21:03:59.271Z</time>
      </trkpt>
      <trkpt lat="48.83368" lon="2.37031">
        <ele>94.2</ele>
        <time>2015-02-23T21:04:00.329Z</time>
      </trkpt>
      <trkpt lat="48.8336" lon="2.37028">
        <ele>92.3</ele>
        <time>2015-02-23T21:04:14.231Z</time>
      </trkpt>
      <trkpt lat="48.83358" lon="2.37029">
        <ele>92.2</ele>
        <time>2015-02-23T21:04:15.323Z</time>
      </trkpt>
      <trkpt lat="48.83352" lon="2.37035">
        <ele>92.8</ele>
        <time>2015-02-23T21:04:19.267Z</time>
      </trkpt>
      <trkpt lat="48.8335" lon="2.37037">
        <ele>92.9</ele>
        <time>2015-02-23T21:04:20.323Z</time>
      </trkpt>
      <trkpt lat="48.83342" lon="2.37042">
        <ele>94.4</ele>
        <time>2015-02-23T21:04:25.235Z</time>
      </trkpt>
      <trkpt lat="48.8334" lon="2.37042">
        <ele>94.7</ele>
        <time>2015-02-23T21:04:26.269Z</time>
      </trkpt>
      <trkpt lat="48.83332" lon="2.37046">
        <ele>95.9</ele>
        <time>2015-02-23T21:04:33.227Z</time>
      </trkpt>
      <trkpt lat="48.83331" lon="2.37046">
        <ele>96</ele>
        <time>2015-02-23T21:04:34.237Z</time>
      </trkpt>
      <trkpt lat="48.83322" lon="2.37049">
        <ele>96.5</ele>
        <time>2015-02-23T21:04:38.193Z</time>
      </trkpt>
      <trkpt lat="48.83322" lon="2.3705">
        <ele>96.6</ele>
        <time>2015-02-23T21:04:39.193Z</time>
      </trkpt>
      <trkpt lat="48.83319" lon="2.37057">
        <ele>98</ele>
        <time>2015-02-23T21:04:43.184Z</time>
      </trkpt>
      <trkpt lat="48.83316" lon="2.37063">
        <ele>98.1</ele>
        <time>2015-02-23T21:04:44.227Z</time>
      </trkpt>
      <trkpt lat="48.83312" lon="2.37071">
        <ele>98.5</ele>
        <time>2015-02-23T21:04:46.172Z</time>
      </trkpt>
      <trkpt lat="48.8331" lon="2.37075">
        <ele>98.7</ele>
        <time>2015-02-23T21:04:47.189Z</time>
      </trkpt>
      <trkpt lat="48.83304" lon="2.37083">
        <ele>99.1</ele>
        <time>2015-02-23T21:04:49.208Z</time>
      </trkpt>
      <trkpt lat="48.83301" lon="2.37087">
        <ele>99.3</ele>
        <time>2015-02-23T21:04:50.260Z</time>
      </trkpt>
      <trkpt lat="48.83298" lon="2.37093">
        <ele>99.2</ele>
        <time>2015-02-23T21:04:51.168Z</time>
      </trkpt>
      <trkpt lat="48.83292" lon="2.37106">
        <ele>97.2</ele>
        <time>2015-02-23T21:04:52.172Z</time>
      </trkpt>
      <trkpt lat="48.83285" lon="2.37119">
        <ele>95.1</ele>
        <time>2015-02-23T21:04:53.179Z</time>
      </trkpt>
      <trkpt lat="48.83279" lon="2.37129">
        <ele>94</ele>
        <time>2015-02-23T21:04:54.204Z</time>
      </trkpt>
      <trkpt lat="48.83271" lon="2.37138">
        <ele>93.5</ele>
        <time>2015-02-23T21:04:55.198Z</time>
      </trkpt>
      <trkpt lat="48.83265" lon="2.37147">
        <ele>93.6</ele>
        <time>2015-02-23T21:04:56.252Z</time>
      </trkpt>
      <trkpt lat="48.83259" lon="2.37154">
        <ele>93.5</ele>
        <time>2015-02-23T21:04:57.169Z</time>
      </trkpt>
      <trkpt lat="48.83255" lon="2.37161">
        <ele>93.4</ele>
        <time>2015-02-23T21:04:58.168Z</time>
      </trkpt>
      <trkpt lat="48.8325" lon="2.37166">
        <ele>93.3</ele>
        <time>2015-02-23T21:04:59.170Z</time>
      </trkpt>
      <trkpt lat="48.83246" lon="2.37172">
        <ele>93.1</ele>
        <time>2015-02-23T21:05:00.191Z</time>
      </trkpt>
      <trkpt lat="48.83243" lon="2.37178">
        <ele>92.8</ele>
        <time>2015-02-23T21:05:01.229Z</time>
      </trkpt>
      <trkpt lat="48.83239" lon="2.37183">
        <ele>92.7</ele>
        <time>2015-02-23T21:05:02.234Z</time>
      </trkpt>
      <trkpt lat="48.83236" lon="2.37187">
        <ele>92.4</ele>
        <time>2015-02-23T21:05:03.181Z</time>
      </trkpt>
      <trkpt lat="48.83231" lon="2.37196">
        <ele>92</ele>
        <time>2015-02-23T21:05:05.183Z</time>
      </trkpt>
      <trkpt lat="48.83228" lon="2.372">
        <ele>92</ele>
        <time>2015-02-23T21:05:06.213Z</time>
      </trkpt>
      <trkpt lat="48.83223" lon="2.37208">
        <ele>92.2</ele>
        <time>2015-02-23T21:05:08.226Z</time>
      </trkpt>
      <trkpt lat="48.8322" lon="2.37213">
        <ele>92.5</ele>
        <time>2015-02-23T21:05:09.254Z</time>
      </trkpt>
      <trkpt lat="48.83215" lon="2.37221">
        <ele>92.6</ele>
        <time>2015-02-23T21:05:11.185Z</time>
      </trkpt>
      <trkpt lat="48.83213" lon="2.37225">
        <ele>92.7</ele>
        <time>2015-02-23T21:05:12.237Z</time>
      </trkpt>
      <trkpt lat="48.83208" lon="2.37235">
        <ele>92.8</ele>
        <time>2015-02-23T21:05:14.263Z</time>
      </trkpt>
      <trkpt lat="48.83205" lon="2.3724">
        <ele>92.8</ele>
        <time>2015-02-23T21:05:15.323Z</time>
      </trkpt>
      <trkpt lat="48.83201" lon="2.37248">
        <ele>92.7</ele>
        <time>2015-02-23T21:05:17.234Z</time>
      </trkpt>
      <trkpt lat="48.83199" lon="2.37254">
        <ele>92.9</ele>
        <time>2015-02-23T21:05:18.286Z</time>
      </trkpt>
      <trkpt lat="48.83194" lon="2.37263">
        <ele>92.8</ele>
        <time>2015-02-23T21:05:20.179Z</time>
      </trkpt>
      <trkpt lat="48.83192" lon="2.37267">
        <ele>92.7</ele>
        <time>2015-02-23T21:05:21.199Z</time>
      </trkpt>
      <trkpt lat="48.83187" lon="2.37276">
        <ele>92.8</ele>
        <time>2015-02-23T21:05:23.232Z</time>
      </trkpt>
      <trkpt lat="48.83186" lon="2.3728">
        <ele>93</ele>
        <time>2015-02-23T21:05:24.240Z</time>
      </trkpt>
      <trkpt lat="48.83181" lon="2.37288">
        <ele>93.5</ele>
        <time>2015-02-23T21:05:28.245Z</time>
      </trkpt>
      <trkpt lat="48.8318" lon="2.37291">
        <ele>93.6</ele>
        <time>2015-02-23T21:05:29.262Z</time>
      </trkpt>
      <trkpt lat="48.83177" lon="2.37297">
        <ele>93.6</ele>
        <time>2015-02-23T21:05:31.192Z</time>
      </trkpt>
      <trkpt lat="48.83174" lon="2.37303">
        <ele>93.5</ele>
        <time>2015-02-23T21:05:32.198Z</time>
      </trkpt>
      <trkpt lat="48.83171" lon="2.37309">
        <ele>93.4</ele>
        <time>2015-02-23T21:05:33.250Z</time>
      </trkpt>
      <trkpt lat="48.83168" lon="2.37315">
        <ele>92.8</ele>
        <time>2015-02-23T21:05:34.169Z</time>
      </trkpt>
      <trkpt lat="48.83165" lon="2.37321">
        <ele>92.6</ele>
        <time>2015-02-23T21:05:35.179Z</time>
      </trkpt>
      <trkpt lat="48.83162" lon="2.37327">
        <ele>92.3</ele>
        <time>2015-02-23T21:05:36.205Z</time>
      </trkpt>
      <trkpt lat="48.83159" lon="2.37333">
        <ele>92.2</ele>
        <time>2015-02-23T21:05:37.216Z</time>
      </trkpt>
      <trkpt lat="48.83156" lon="2.37339">
        <ele>92</ele>
        <time>2015-02-23T21:05:38.225Z</time>
      </trkpt>
      <trkpt lat="48.83153" lon="2.37346">
        <ele>91.8</ele>
        <time>2015-02-23T21:05:39.171Z</time>
      </trkpt>
      <trkpt lat="48.83149" lon="2.37351">
        <ele>91.6</ele>
        <time>2015-02-23T21:05:40.164Z</time>
      </trkpt>
      <trkpt lat="48.83146" lon="2.37356">
        <ele>91.5</ele>
        <time>2015-02-23T21:05:41.169Z</time>
      </trkpt>
      <trkpt lat="48.83143" lon="2.37362">
        <ele>91.2</ele>
        <time>2015-02-23T21:05:42.228Z</time>
      </trkpt>
      <trkpt lat="48.83141" lon="2.37367">
        <ele>91.1</ele>
        <time>2015-02-23T21:05:43.224Z</time>
      </trkpt>
      <trkpt lat="48.83138" lon="2.37372">
        <ele>90.9</ele>
        <time>2015-02-23T21:05:44.240Z</time>
      </trkpt>
      <trkpt lat="48.83135" lon="2.37378">
        <ele>90.9</ele>
        <time>2015-02-23T21:05:45.269Z</time>
      </trkpt>
      <trkpt lat="48.83132" lon="2.37384">
        <ele>90.9</ele>
        <time>2015-02-23T21:05:46.176Z</time>
      </trkpt>
      <trkpt lat="48.83128" lon="2.37389">
        <ele>90.8</ele>
        <time>2015-02-23T21:05:47.179Z</time>
      </trkpt>
      <trkpt lat="48.83125" lon="2.37394">
        <ele>90.7</ele>
        <time>2015-02-23T21:05:48.321Z</time>
      </trkpt>
      <trkpt lat="48.8312" lon="2.37403">
        <ele>90.4</ele>
        <time>2015-02-23T21:05:50.178Z</time>
      </trkpt>
      <trkpt lat="48.83117" lon="2.37407">
        <ele>90.2</ele>
        <time>2015-02-23T21:05:51.325Z</time>
      </trkpt>
      <trkpt lat="48.83113" lon="2.37416">
        <ele>90.2</ele>
        <time>2015-02-23T21:05:53.233Z</time>
      </trkpt>
      <trkpt lat="48.83111" lon="2.3742">
        <ele>90.1</ele>
        <time>2015-02-23T21:05:54.240Z</time>
      </trkpt>
      <trkpt lat="48.83106" lon="2.37431">
        <ele>89.8</ele>
        <time>2015-02-23T21:05:57.413Z</time>
      </trkpt>
      <trkpt lat="48.83104" lon="2.37434">
        <ele>89.9</ele>
        <time>2015-02-23T21:05:58.224Z</time>
      </trkpt>
      <trkpt lat="48.83104" lon="2.37443">
        <ele>90.9</ele>
        <time>2015-02-23T21:06:40.187Z</time>
      </trkpt>
      <trkpt lat="48.83104" lon="2.37443">
        <ele>91.2</ele>
        <time>2015-02-23T21:06:41.187Z</time>
      </trkpt>
      <trkpt lat="48.83104" lon="2.37443">
        <ele>91.5</ele>
        <time>2015-02-23T21:06:47.472Z</time>
      </trkpt>
      <trkpt lat="48.83105" lon="2.37442">
        <ele>91.8</ele>
        <time>2015-02-23T21:06:48.265Z</time>
      </trkpt>
      <trkpt lat="48.83105" lon="2.37441">
        <ele>91.8</ele>
        <time>2015-02-23T21:06:52.603Z</time>
      </trkpt>
      <trkpt lat="48.83105" lon="2.37441">
        <ele>91.9</ele>
        <time>2015-02-23T21:06:53.263Z</time>
      </trkpt>
      <trkpt lat="48.83105" lon="2.37441">
        <ele>92</ele>
        <time>2015-02-23T21:06:54.279Z</time>
      </trkpt>
      <trkpt lat="48.83104" lon="2.3744">
        <ele>92.4</ele>
        <time>2015-02-23T21:06:59.260Z</time>
      </trkpt>
      <trkpt lat="48.83104" lon="2.3744">
        <ele>92.5</ele>
        <time>2015-02-23T21:07:00.279Z</time>
      </trkpt>
      <trkpt lat="48.83105" lon="2.37441">
        <ele>92.5</ele>
        <time>2015-02-23T21:07:01.181Z</time>
      </trkpt>
      <trkpt lat="48.8311" lon="2.3745">
        <ele>94</ele>
        <time>2015-02-23T21:07:31.197Z</time>
      </trkpt>
      <trkpt lat="48.8311" lon="2.37452">
        <ele>94</ele>
        <time>2015-02-23T21:07:32.227Z</time>
      </trkpt>
      <trkpt lat="48.83114" lon="2.37458">
        <ele>94.8</ele>
        <time>2015-02-23T21:07:39.234Z</time>
      </trkpt>
      <trkpt lat="48.83115" lon="2.37459">
        <ele>95</ele>
        <time>2015-02-23T21:07:40.249Z</time>
      </trkpt>
      <trkpt lat="48.83115" lon="2.37459">
        <ele>95.2</ele>
        <time>2015-02-23T21:07:42.498Z</time>
      </trkpt>
      <trkpt lat="48.83116" lon="2.3746">
        <ele>95.2</ele>
        <time>2015-02-23T21:07:43.196Z</time>
      </trkpt>
      <trkpt lat="48.83117" lon="2.37471">
        <ele>95.7</ele>
        <time>2015-02-23T21:07:47.472Z</time>
      </trkpt>
      <trkpt lat="48.83118" lon="2.37474">
        <ele>95.8</ele>
        <time>2015-02-23T21:07:48.275Z</time>
      </trkpt>
      <trkpt lat="48.83118" lon="2.37487">
        <ele>95.6</ele>
        <time>2015-02-23T21:07:53.227Z</time>
      </trkpt>
      <trkpt lat="48.83115" lon="2.37488">
        <ele>94.7</ele>
        <time>2015-02-23T21:07:54.298Z</time>
      </trkpt>
      <trkpt lat="48.83108" lon="2.37493">
        <ele>92.5</ele>
        <time>2015-02-23T21:07:57.551Z</time>
      </trkpt>
      <trkpt lat="48.83107" lon="2.37495">
        <ele>92.9</ele>
        <time>2015-02-23T21:07:58.203Z</time>
      </trkpt>
      <trkpt lat="48.83104" lon="2.37498">
        <ele>93.8</ele>
        <time>2015-02-23T21:08:00.221Z</time>
      </trkpt>
      <trkpt lat="48.83089" lon="2.37512">
        <ele>93.7</ele>
        <time>2015-02-23T21:08:06.356Z</time>
      </trkpt>
      <trkpt lat="48.83082" lon="2.37519">
        <ele>93.9</ele>
        <time>2015-02-23T21:08:09.217Z</time>
      </trkpt>
      <trkpt lat="48.83079" lon="2.37522">
        <ele>94</ele>
        <time>2015-02-23T21:08:10.237Z</time>
      </trkpt>
      <trkpt lat="48.83073" lon="2.37528">
        <ele>94.8</ele>
        <time>2015-02-23T21:08:13.195Z</time>
      </trkpt>
      <trkpt lat="48.8307" lon="2.37529">
        <ele>95.5</ele>
        <time>2015-02-23T21:08:14.218Z</time>
      </trkpt>
      <trkpt lat="48.83064" lon="2.3753">
        <ele>96.8</ele>
        <time>2015-02-23T21:08:16.733Z</time>
      </trkpt>
      <trkpt lat="48.83061" lon="2.37529">
        <ele>97.5</ele>
        <time>2015-02-23T21:08:17.285Z</time>
      </trkpt>
      <trkpt lat="48.83054" lon="2.37529">
        <ele>98.4</ele>
        <time>2015-02-23T21:08:19.174Z</time>
      </trkpt>
      <trkpt lat="48.83051" lon="2.3753">
        <ele>98.8</ele>
        <time>2015-02-23T21:08:20.221Z</time>
      </trkpt>
      <trkpt lat="48.83045" lon="2.37535">
        <ele>99.9</ele>
        <time>2015-02-23T21:08:23.284Z</time>
      </trkpt>
      <trkpt lat="48.83043" lon="2.37538">
        <ele>100.6</ele>
        <time>2015-02-23T21:08:24.292Z</time>
      </trkpt>
      <trkpt lat="48.83037" lon="2.37548">
        <ele>101</ele>
        <time>2015-02-23T21:08:26.270Z</time>
      </trkpt>
      <trkpt lat="48.8303" lon="2.37552">
        <ele>102</ele>
        <time>2015-02-23T21:08:27.177Z</time>
      </trkpt>
      <trkpt lat="48.83024" lon="2.37557">
        <ele>103</ele>
        <time>2015-02-23T21:08:29.190Z</time>
      </trkpt>
      <trkpt lat="48.83019" lon="2.37562">
        <ele>104.1</ele>
        <time>2015-02-23T21:08:30.225Z</time>
      </trkpt>
      <trkpt lat="48.83023" lon="2.37574">
        <ele>101.7</ele>
        <time>2015-02-23T21:08:34.227Z</time>
      </trkpt>
      <trkpt lat="48.83024" lon="2.37577">
        <ele>100.8</ele>
        <time>2015-02-23T21:08:35.241Z</time>
      </trkpt>
      <trkpt lat="48.83029" lon="2.37587">
        <ele>99.8</ele>
        <time>2015-02-23T21:08:38.249Z</time>
      </trkpt>
      <trkpt lat="48.83032" lon="2.37589">
        <ele>99.4</ele>
        <time>2015-02-23T21:08:39.257Z</time>
      </trkpt>
      <trkpt lat="48.83037" lon="2.37597">
        <ele>98.5</ele>
        <time>2015-02-23T21:08:42.344Z</time>
      </trkpt>
      <trkpt lat="48.83039" lon="2.376">
        <ele>98.3</ele>
        <time>2015-02-23T21:08:43.200Z</time>
      </trkpt>
      <trkpt lat="48.83044" lon="2.37606">
        <ele>98.2</ele>
        <time>2015-02-23T21:08:45.235Z</time>
      </trkpt>
      <trkpt lat="48.83047" lon="2.37609">
        <ele>98.1</ele>
        <time>2015-02-23T21:08:46.257Z</time>
      </trkpt>
      <trkpt lat="48.83052" lon="2.37617">
        <ele>97.6</ele>
        <time>2015-02-23T21:08:49.288Z</time>
      </trkpt>
      <trkpt lat="48.83053" lon="2.3762">
        <ele>97.3</ele>
        <time>2015-02-23T21:08:50.197Z</time>
      </trkpt>
      <trkpt lat="48.83059" lon="2.3763">
        <ele>97.3</ele>
        <time>2015-02-23T21:08:53.223Z</time>
      </trkpt>
      <trkpt lat="48.83061" lon="2.37633">
        <ele>97.5</ele>
        <time>2015-02-23T21:08:54.236Z</time>
      </trkpt>
      <trkpt lat="48.83067" lon="2.37638">
        <ele>97.4</ele>
        <time>2015-02-23T21:08:57.543Z</time>
      </trkpt>
      <trkpt lat="48.8307" lon="2.37639">
        <ele>97.3</ele>
        <time>2015-02-23T21:08:58.166Z</time>
      </trkpt>
      <trkpt lat="48.83072" lon="2.37652">
        <ele>97.9</ele>
        <time>2015-02-23T21:09:01.289Z</time>
      </trkpt>
      <trkpt lat="48.83074" lon="2.37655">
        <ele>98.2</ele>
        <time>2015-02-23T21:09:02.188Z</time>
      </trkpt>
      <trkpt lat="48.8308" lon="2.37664">
        <ele>100.8</ele>
        <time>2015-02-23T21:09:09.242Z</time>
      </trkpt>
      <trkpt lat="48.83081" lon="2.37666">
        <ele>101.1</ele>
        <time>2015-02-23T21:09:10.256Z</time>
      </trkpt>
      <trkpt lat="48.83085" lon="2.37676">
        <ele>101.7</ele>
        <time>2015-02-23T21:09:13.246Z</time>
      </trkpt>
      <trkpt lat="48.83087" lon="2.3768">
        <ele>101.7</ele>
        <time>2015-02-23T21:09:14.271Z</time>
      </trkpt>
      <trkpt lat="48.83092" lon="2.37687">
        <ele>101.9</ele>
        <time>2015-02-23T21:09:16.728Z</time>
      </trkpt>
      <trkpt lat="48.83093" lon="2.37691">
        <ele>102</ele>
        <time>2015-02-23T21:09:17.216Z</time>
      </trkpt>
      <trkpt lat="48.83096" lon="2.37699">
        <ele>102.3</ele>
        <time>2015-02-23T21:09:19.238Z</time>
      </trkpt>
      <trkpt lat="48.83097" lon="2.37703">
        <ele>102.4</ele>
        <time>2015-02-23T21:09:20.248Z</time>
      </trkpt>
      <trkpt lat="48.83103" lon="2.37714">
        <ele>102.7</ele>
        <time>2015-02-23T21:09:23.342Z</time>
      </trkpt>
      <trkpt lat="48.83104" lon="2.37717">
        <ele>103</ele>
        <time>2015-02-23T21:09:24.235Z</time>
      </trkpt>
      <trkpt lat="48.8311" lon="2.37727">
        <ele>103.2</ele>
        <time>2015-02-23T21:09:27.292Z</time>
      </trkpt>
      <trkpt lat="48.83115" lon="2.3773">
        <ele>103.5</ele>
        <time>2015-02-23T21:09:28.276Z</time>
      </trkpt>
      <trkpt lat="48.83118" lon="2.37736">
        <ele>103.5</ele>
        <time>2015-02-23T21:09:29.230Z</time>
      </trkpt>
      <trkpt lat="48.83122" lon="2.37741">
        <ele>103.6</ele>
        <time>2015-02-23T21:09:30.243Z</time>
      </trkpt>
      <trkpt lat="48.83126" lon="2.37745">
        <ele>103.8</ele>
        <time>2015-02-23T21:09:31.930Z</time>
      </trkpt>
      <trkpt lat="48.83129" lon="2.3775">
        <ele>104.1</ele>
        <time>2015-02-23T21:09:32.249Z</time>
      </trkpt>
      <trkpt lat="48.83132" lon="2.37755">
        <ele>104</ele>
        <time>2015-02-23T21:09:33.255Z</time>
      </trkpt>
      <trkpt lat="48.83135" lon="2.3776">
        <ele>104</ele>
        <time>2015-02-23T21:09:34.264Z</time>
      </trkpt>
      <trkpt lat="48.83139" lon="2.37765">
        <ele>104.1</ele>
        <time>2015-02-23T21:09:35.294Z</time>
      </trkpt>
      <trkpt lat="48.83142" lon="2.3777">
        <ele>104</ele>
        <time>2015-02-23T21:09:36.310Z</time>
      </trkpt>
      <trkpt lat="48.83145" lon="2.37776">
        <ele>103.8</ele>
        <time>2015-02-23T21:09:37.193Z</time>
      </trkpt>
      <trkpt lat="48.83148" lon="2.37782">
        <ele>103.7</ele>
        <time>2015-02-23T21:09:38.227Z</time>
      </trkpt>
      <trkpt lat="48.83151" lon="2.37787">
        <ele>103.6</ele>
        <time>2015-02-23T21:09:39.246Z</time>
      </trkpt>
      <trkpt lat="48.83154" lon="2.37792">
        <ele>103.5</ele>
        <time>2015-02-23T21:09:40.266Z</time>
      </trkpt>
      <trkpt lat="48.83157" lon="2.378">
        <ele>103.4</ele>
        <time>2015-02-23T21:09:42.284Z</time>
      </trkpt>
      <trkpt lat="48.83157" lon="2.37805">
        <ele>103.1</ele>
        <time>2015-02-23T21:09:43.306Z</time>
      </trkpt>
      <trkpt lat="48.8316" lon="2.37815">
        <ele>102.6</ele>
        <time>2015-02-23T21:09:45.205Z</time>
      </trkpt>
      <trkpt lat="48.83162" lon="2.37821">
        <ele>102.3</ele>
        <time>2015-02-23T21:09:46.229Z</time>
      </trkpt>
      <trkpt lat="48.83165" lon="2.37827">
        <ele>102</ele>
        <time>2015-02-23T21:09:47.261Z</time>
      </trkpt>
      <trkpt lat="48.83168" lon="2.37833">
        <ele>101.7</ele>
        <time>2015-02-23T21:09:48.271Z</time>
      </trkpt>
      <trkpt lat="48.83171" lon="2.3784">
        <ele>101.6</ele>
        <time>2015-02-23T21:09:49.166Z</time>
      </trkpt>
      <trkpt lat="48.83173" lon="2.37845">
        <ele>101.3</ele>
        <time>2015-02-23T21:09:50.193Z</time>
      </trkpt>
      <trkpt lat="48.83178" lon="2.37855">
        <ele>101.1</ele>
        <time>2015-02-23T21:09:52.148Z</time>
      </trkpt>
      <trkpt lat="48.83181" lon="2.37862">
        <ele>100.6</ele>
        <time>2015-02-23T21:09:53.229Z</time>
      </trkpt>
      <trkpt lat="48.83183" lon="2.37868">
        <ele>100.3</ele>
        <time>2015-02-23T21:09:54.259Z</time>
      </trkpt>
      <trkpt lat="48.83186" lon="2.37874">
        <ele>99.9</ele>
        <time>2015-02-23T21:09:55.270Z</time>
      </trkpt>
      <trkpt lat="48.83189" lon="2.3788">
        <ele>99.7</ele>
        <time>2015-02-23T21:09:56.180Z</time>
      </trkpt>
      <trkpt lat="48.83192" lon="2.37887">
        <ele>99.5</ele>
        <time>2015-02-23T21:09:57.185Z</time>
      </trkpt>
      <trkpt lat="48.83195" lon="2.37893">
        <ele>99.4</ele>
        <time>2015-02-23T21:09:58.199Z</time>
      </trkpt>
      <trkpt lat="48.83199" lon="2.37899">
        <ele>99.4</ele>
        <time>2015-02-23T21:09:59.213Z</time>
      </trkpt>
      <trkpt lat="48.83202" lon="2.37905">
        <ele>99.5</ele>
        <time>2015-02-23T21:10:00.325Z</time>
      </trkpt>
      <trkpt lat="48.83205" lon="2.37911">
        <ele>99.5</ele>
        <time>2015-02-23T21:10:01.183Z</time>
      </trkpt>
      <trkpt lat="48.83209" lon="2.37916">
        <ele>99.4</ele>
        <time>2015-02-23T21:10:02.189Z</time>
      </trkpt>
      <trkpt lat="48.83212" lon="2.37922">
        <ele>99.4</ele>
        <time>2015-02-23T21:10:03.206Z</time>
      </trkpt>
      <trkpt lat="48.83215" lon="2.37929">
        <ele>99.4</ele>
        <time>2015-02-23T21:10:04.230Z</time>
      </trkpt>
      <trkpt lat="48.83219" lon="2.37935">
        <ele>99.2</ele>
        <time>2015-02-23T21:10:05.262Z</time>
      </trkpt>
      <trkpt lat="48.83222" lon="2.3794">
        <ele>99.1</ele>
        <time>2015-02-23T21:10:06.274Z</time>
      </trkpt>
      <trkpt lat="48.83225" lon="2.37945">
        <ele>99</ele>
        <time>2015-02-23T21:10:07.197Z</time>
      </trkpt>
      <trkpt lat="48.83228" lon="2.37951">
        <ele>98.8</ele>
        <time>2015-02-23T21:10:08.213Z</time>
      </trkpt>
      <trkpt lat="48.83231" lon="2.37957">
        <ele>98.6</ele>
        <time>2015-02-23T21:10:09.227Z</time>
      </trkpt>
      <trkpt lat="48.83234" lon="2.37969">
        <ele>98.4</ele>
        <time>2015-02-23T21:10:11.256Z</time>
      </trkpt>
      <trkpt lat="48.83235" lon="2.37975">
        <ele>98.3</ele>
        <time>2015-02-23T21:10:12.265Z</time>
      </trkpt>
      <trkpt lat="48.83231" lon="2.37987">
        <ele>97.7</ele>
        <time>2015-02-23T21:10:16.203Z</time>
      </trkpt>
      <trkpt lat="48.83228" lon="2.37988">
        <ele>97.2</ele>
        <time>2015-02-23T21:10:17.198Z</time>
      </trkpt>
      <trkpt lat="48.83235" lon="2.37996">
        <ele>96.2</ele>
        <time>2015-02-23T21:10:37.163Z</time>
      </trkpt>
      <trkpt lat="48.83238" lon="2.38">
        <ele>95.9</ele>
        <time>2015-02-23T21:10:38.197Z</time>
      </trkpt>
      <trkpt lat="48.83243" lon="2.3801">
        <ele>95.4</ele>
        <time>2015-02-23T21:10:40.236Z</time>
      </trkpt>
      <trkpt lat="48.83246" lon="2.38016">
        <ele>95.1</ele>
        <time>2015-02-23T21:10:41.249Z</time>
      </trkpt>
      <trkpt lat="48.8325" lon="2.38027">
        <ele>94.7</ele>
        <time>2015-02-23T21:10:43.190Z</time>
      </trkpt>
      <trkpt lat="48.83253" lon="2.38032">
        <ele>94.7</ele>
        <time>2015-02-23T21:10:44.286Z</time>
      </trkpt>
      <trkpt lat="48.83255" lon="2.38038">
        <ele>94.6</ele>
        <time>2015-02-23T21:10:45.228Z</time>
      </trkpt>
      <trkpt lat="48.83257" lon="2.38044">
        <ele>94.2</ele>
        <time>2015-02-23T21:10:46.232Z</time>
      </trkpt>
      <trkpt lat="48.8326" lon="2.3805">
        <ele>94.1</ele>
        <time>2015-02-23T21:10:47.262Z</time>
      </trkpt>
      <trkpt lat="48.83263" lon="2.38056">
        <ele>93.9</ele>
        <time>2015-02-23T21:10:48.224Z</time>
      </trkpt>
      <trkpt lat="48.83266" lon="2.38062">
        <ele>93.7</ele>
        <time>2015-02-23T21:10:49.170Z</time>
      </trkpt>
      <trkpt lat="48.83269" lon="2.38068">
        <ele>93.5</ele>
        <time>2015-02-23T21:10:50.171Z</time>
      </trkpt>
      <trkpt lat="48.83272" lon="2.38074">
        <ele>93.5</ele>
        <time>2015-02-23T21:10:51.187Z</time>
      </trkpt>
      <trkpt lat="48.83275" lon="2.3808">
        <ele>93.5</ele>
        <time>2015-02-23T21:10:52.198Z</time>
      </trkpt>
      <trkpt lat="48.83278" lon="2.38086">
        <ele>93.4</ele>
        <time>2015-02-23T21:10:53.206Z</time>
      </trkpt>
      <trkpt lat="48.83281" lon="2.38091">
        <ele>93.4</ele>
        <time>2015-02-23T21:10:54.310Z</time>
      </trkpt>
      <trkpt lat="48.83285" lon="2.38097">
        <ele>93.4</ele>
        <time>2015-02-23T21:10:55.213Z</time>
      </trkpt>
      <trkpt lat="48.83288" lon="2.38102">
        <ele>93.5</ele>
        <time>2015-02-23T21:10:56.206Z</time>
      </trkpt>
      <trkpt lat="48.83291" lon="2.38108">
        <ele>93.4</ele>
        <time>2015-02-23T21:10:57.246Z</time>
      </trkpt>
      <trkpt lat="48.83294" lon="2.38113">
        <ele>93.4</ele>
        <time>2015-02-23T21:10:58.245Z</time>
      </trkpt>
      <trkpt lat="48.83297" lon="2.38119">
        <ele>93.3</ele>
        <time>2015-02-23T21:10:59.356Z</time>
      </trkpt>
      <trkpt lat="48.833" lon="2.38125">
        <ele>93.3</ele>
        <time>2015-02-23T21:11:00.230Z</time>
      </trkpt>
      <trkpt lat="48.83304" lon="2.38131">
        <ele>93.2</ele>
        <time>2015-02-23T21:11:01.264Z</time>
      </trkpt>
      <trkpt lat="48.83307" lon="2.38137">
        <ele>93.2</ele>
        <time>2015-02-23T21:11:02.229Z</time>
      </trkpt>
      <trkpt lat="48.8331" lon="2.38143">
        <ele>93</ele>
        <time>2015-02-23T21:11:03.252Z</time>
      </trkpt>
      <trkpt lat="48.83313" lon="2.38149">
        <ele>92.9</ele>
        <time>2015-02-23T21:11:04.261Z</time>
      </trkpt>
      <trkpt lat="48.83316" lon="2.38155">
        <ele>92.8</ele>
        <time>2015-02-23T21:11:05.180Z</time>
      </trkpt>
      <trkpt lat="48.83319" lon="2.38161">
        <ele>92.6</ele>
        <time>2015-02-23T21:11:06.283Z</time>
      </trkpt>
      <trkpt lat="48.83322" lon="2.38167">
        <ele>92.5</ele>
        <time>2015-02-23T21:11:07.179Z</time>
      </trkpt>
      <trkpt lat="48.83326" lon="2.38173">
        <ele>92.2</ele>
        <time>2015-02-23T21:11:08.190Z</time>
      </trkpt>
      <trkpt lat="48.83329" lon="2.38179">
        <ele>91.9</ele>
        <time>2015-02-23T21:11:09.206Z</time>
      </trkpt>
      <trkpt lat="48.83332" lon="2.38184">
        <ele>91.4</ele>
        <time>2015-02-23T21:11:10.215Z</time>
      </trkpt>
      <trkpt lat="48.83335" lon="2.3819">
        <ele>91.2</ele>
        <time>2015-02-23T21:11:11.222Z</time>
      </trkpt>
      <trkpt lat="48.83338" lon="2.38195">
        <ele>91.1</ele>
        <time>2015-02-23T21:11:12.231Z</time>
      </trkpt>
      <trkpt lat="48.83343" lon="2.38205">
        <ele>90.7</ele>
        <time>2015-02-23T21:11:14.262Z</time>
      </trkpt>
      <trkpt lat="48.83345" lon="2.38209">
        <ele>90.7</ele>
        <time>2015-02-23T21:11:15.287Z</time>
      </trkpt>
      <trkpt lat="48.8335" lon="2.38218">
        <ele>90.4</ele>
        <time>2015-02-23T21:11:17.201Z</time>
      </trkpt>
      <trkpt lat="48.83352" lon="2.38222">
        <ele>90.4</ele>
        <time>2015-02-23T21:11:18.336Z</time>
      </trkpt>
      <trkpt lat="48.83357" lon="2.38231">
        <ele>90.1</ele>
        <time>2015-02-23T21:11:20.182Z</time>
      </trkpt>
      <trkpt lat="48.8336" lon="2.38236">
        <ele>89.9</ele>
        <time>2015-02-23T21:11:21.263Z</time>
      </trkpt>
      <trkpt lat="48.83365" lon="2.38245">
        <ele>89.9</ele>
        <time>2015-02-23T21:11:23.180Z</time>
      </trkpt>
      <trkpt lat="48.83367" lon="2.3825">
        <ele>89.7</ele>
        <time>2015-02-23T21:11:24.234Z</time>
      </trkpt>
      <trkpt lat="48.83371" lon="2.38256">
        <ele>90.1</ele>
        <time>2015-02-23T21:11:26.263Z</time>
      </trkpt>
      <trkpt lat="48.83376" lon="2.38259">
        <ele>91.6</ele>
        <time>2015-02-23T21:11:27.278Z</time>
      </trkpt>
      <trkpt lat="48.83381" lon="2.38269">
        <ele>91.3</ele>
        <time>2015-02-23T21:11:30.335Z</time>
      </trkpt>
      <trkpt lat="48.83383" lon="2.38273">
        <ele>91.1</ele>
        <time>2015-02-23T21:11:31.237Z</time>
      </trkpt>
      <trkpt lat="48.83387" lon="2.38283">
        <ele>90.8</ele>
        <time>2015-02-23T21:11:33.182Z</time>
      </trkpt>
      <trkpt lat="48.83389" lon="2.38288">
        <ele>90.4</ele>
        <time>2015-02-23T21:11:34.203Z</time>
      </trkpt>
      <trkpt lat="48.8339" lon="2.38297">
        <ele>89.6</ele>
        <time>2015-02-23T21:11:36.291Z</time>
      </trkpt>
      <trkpt lat="48.83391" lon="2.38302">
        <ele>89.5</ele>
        <time>2015-02-23T21:11:37.256Z</time>
      </trkpt>
      <trkpt lat="48.83395" lon="2.38313">
        <ele>88.5</ele>
        <time>2015-02-23T21:11:40.248Z</time>
      </trkpt>
      <trkpt lat="48.83396" lon="2.38319">
        <ele>88.5</ele>
        <time>2015-02-23T21:11:41.211Z</time>
      </trkpt>
      <trkpt lat="48.83399" lon="2.38332">
        <ele>88.3</ele>
        <time>2015-02-23T21:11:43.233Z</time>
      </trkpt>
      <trkpt lat="48.834" lon="2.38338">
        <ele>88.1</ele>
        <time>2015-02-23T21:11:44.249Z</time>
      </trkpt>
      <trkpt lat="48.83403" lon="2.38344">
        <ele>88</ele>
        <time>2015-02-23T21:11:45.166Z</time>
      </trkpt>
      <trkpt lat="48.83409" lon="2.3835">
        <ele>87.8</ele>
        <time>2015-02-23T21:11:46.164Z</time>
      </trkpt>
      <trkpt lat="48.83412" lon="2.38356">
        <ele>87.7</ele>
        <time>2015-02-23T21:11:47.174Z</time>
      </trkpt>
      <trkpt lat="48.83414" lon="2.38361">
        <ele>87.6</ele>
        <time>2015-02-23T21:11:48.230Z</time>
      </trkpt>
      <trkpt lat="48.83416" lon="2.38368">
        <ele>87.4</ele>
        <time>2015-02-23T21:11:49.264Z</time>
      </trkpt>
      <trkpt lat="48.83419" lon="2.38373">
        <ele>87.3</ele>
        <time>2015-02-23T21:11:50.177Z</time>
      </trkpt>
      <trkpt lat="48.83423" lon="2.38379">
        <ele>87.3</ele>
        <time>2015-02-23T21:11:51.194Z</time>
      </trkpt>
      <trkpt lat="48.83427" lon="2.38385">
        <ele>87.2</ele>
        <time>2015-02-23T21:11:52.277Z</time>
      </trkpt>
      <trkpt lat="48.83431" lon="2.38391">
        <ele>87.1</ele>
        <time>2015-02-23T21:11:53.256Z</time>
      </trkpt>
      <trkpt lat="48.83433" lon="2.38396">
        <ele>87</ele>
        <time>2015-02-23T21:11:54.290Z</time>
      </trkpt>
      <trkpt lat="48.83436" lon="2.38409">
        <ele>86.6</ele>
        <time>2015-02-23T21:11:56.224Z</time>
      </trkpt>
      <trkpt lat="48.8344" lon="2.38414">
        <ele>86.6</ele>
        <time>2015-02-23T21:11:57.239Z</time>
      </trkpt>
      <trkpt lat="48.83443" lon="2.38421">
        <ele>86.5</ele>
        <time>2015-02-23T21:11:58.244Z</time>
      </trkpt>
      <trkpt lat="48.83446" lon="2.38426">
        <ele>86.5</ele>
        <time>2015-02-23T21:11:59.422Z</time>
      </trkpt>
      <trkpt lat="48.8345" lon="2.38431">
        <ele>86.7</ele>
        <time>2015-02-23T21:12:00.290Z</time>
      </trkpt>
      <trkpt lat="48.83453" lon="2.38436">
        <ele>86.9</ele>
        <time>2015-02-23T21:12:01.246Z</time>
      </trkpt>
      <trkpt lat="48.83457" lon="2.38447">
        <ele>87.1</ele>
        <time>2015-02-23T21:12:03.602Z</time>
      </trkpt>
      <trkpt lat="48.83459" lon="2.38453">
        <ele>87.2</ele>
        <time>2015-02-23T21:12:04.295Z</time>
      </trkpt>
      <trkpt lat="48.83462" lon="2.38458">
        <ele>87.3</ele>
        <time>2015-02-23T21:12:05.198Z</time>
      </trkpt>
      <trkpt lat="48.83465" lon="2.38464">
        <ele>87.3</ele>
        <time>2015-02-23T21:12:06.245Z</time>
      </trkpt>
      <trkpt lat="48.83469" lon="2.3847">
        <ele>87.2</ele>
        <time>2015-02-23T21:12:07.245Z</time>
      </trkpt>
      <trkpt lat="48.83475" lon="2.38475">
        <ele>86.9</ele>
        <time>2015-02-23T21:12:08.239Z</time>
      </trkpt>
      <trkpt lat="48.8348" lon="2.38482">
        <ele>86.8</ele>
        <time>2015-02-23T21:12:09.261Z</time>
      </trkpt>
      <trkpt lat="48.83487" lon="2.38488">
        <ele>86.7</ele>
        <time>2015-02-23T21:12:10.157Z</time>
      </trkpt>
      <trkpt lat="48.83494" lon="2.38494">
        <ele>86.5</ele>
        <time>2015-02-23T21:12:11.230Z</time>
      </trkpt>
      <trkpt lat="48.83499" lon="2.38499">
        <ele>86.5</ele>
        <time>2015-02-23T21:12:12.185Z</time>
      </trkpt>
      <trkpt lat="48.83504" lon="2.38505">
        <ele>86.5</ele>
        <time>2015-02-23T21:12:13.728Z</time>
      </trkpt>
      <trkpt lat="48.83507" lon="2.3851">
        <ele>86.5</ele>
        <time>2015-02-23T21:12:14.211Z</time>
      </trkpt>
      <trkpt lat="48.8351" lon="2.38516">
        <ele>86.6</ele>
        <time>2015-02-23T21:12:15.226Z</time>
      </trkpt>
      <trkpt lat="48.83514" lon="2.38523">
        <ele>86.3</ele>
        <time>2015-02-23T21:12:16.292Z</time>
      </trkpt>
      <trkpt lat="48.83519" lon="2.3853">
        <ele>86.1</ele>
        <time>2015-02-23T21:12:17.200Z</time>
      </trkpt>
      <trkpt lat="48.83525" lon="2.38537">
        <ele>86</ele>
        <time>2015-02-23T21:12:18.214Z</time>
      </trkpt>
      <trkpt lat="48.8353" lon="2.38544">
        <ele>86</ele>
        <time>2015-02-23T21:12:19.230Z</time>
      </trkpt>
      <trkpt lat="48.83536" lon="2.38551">
        <ele>85.7</ele>
        <time>2015-02-23T21:12:20.243Z</time>
      </trkpt>
      <trkpt lat="48.8354" lon="2.38557">
        <ele>85.6</ele>
        <time>2015-02-23T21:12:21.164Z</time>
      </trkpt>
      <trkpt lat="48.83546" lon="2.38562">
        <ele>85.6</ele>
        <time>2015-02-23T21:12:22.166Z</time>
      </trkpt>
      <trkpt lat="48.8355" lon="2.38568">
        <ele>85.8</ele>
        <time>2015-02-23T21:12:23.196Z</time>
      </trkpt>
      <trkpt lat="48.83554" lon="2.38573">
        <ele>85.9</ele>
        <time>2015-02-23T21:12:24.200Z</time>
      </trkpt>
      <trkpt lat="48.83558" lon="2.38577">
        <ele>85.9</ele>
        <time>2015-02-23T21:12:25.202Z</time>
      </trkpt>
      <trkpt lat="48.83563" lon="2.38581">
        <ele>86</ele>
        <time>2015-02-23T21:12:26.222Z</time>
      </trkpt>
      <trkpt lat="48.83567" lon="2.38586">
        <ele>85.7</ele>
        <time>2015-02-23T21:12:27.247Z</time>
      </trkpt>
      <trkpt lat="48.8357" lon="2.38591">
        <ele>85.5</ele>
        <time>2015-02-23T21:12:28.162Z</time>
      </trkpt>
      <trkpt lat="48.83573" lon="2.38595">
        <ele>85.5</ele>
        <time>2015-02-23T21:12:29.162Z</time>
      </trkpt>
      <trkpt lat="48.83576" lon="2.38601">
        <ele>85.5</ele>
        <time>2015-02-23T21:12:30.198Z</time>
      </trkpt>
      <trkpt lat="48.83578" lon="2.38608">
        <ele>85.3</ele>
        <time>2015-02-23T21:12:31.208Z</time>
      </trkpt>
      <trkpt lat="48.8358" lon="2.38614">
        <ele>85.3</ele>
        <time>2015-02-23T21:12:32.219Z</time>
      </trkpt>
      <trkpt lat="48.83584" lon="2.38623">
        <ele>85.4</ele>
        <time>2015-02-23T21:12:34.242Z</time>
      </trkpt>
      <trkpt lat="48.83586" lon="2.38626">
        <ele>85.4</ele>
        <time>2015-02-23T21:12:35.187Z</time>
      </trkpt>
      <trkpt lat="48.8359" lon="2.38636">
        <ele>85.5</ele>
        <time>2015-02-23T21:12:39.211Z</time>
      </trkpt>
      <trkpt lat="48.83592" lon="2.38638">
        <ele>85.2</ele>
        <time>2015-02-23T21:12:40.228Z</time>
      </trkpt>
      <trkpt lat="48.83597" lon="2.38645">
        <ele>84.3</ele>
        <time>2015-02-23T21:12:44.181Z</time>
      </trkpt>
      <trkpt lat="48.83598" lon="2.38648">
        <ele>84</ele>
        <time>2015-02-23T21:12:45.201Z</time>
      </trkpt>
      <trkpt lat="48.83603" lon="2.38654">
        <ele>83.7</ele>
        <time>2015-02-23T21:12:47.146Z</time>
      </trkpt>
      <trkpt lat="48.83604" lon="2.38658">
        <ele>83.6</ele>
        <time>2015-02-23T21:12:48.260Z</time>
      </trkpt>
      <trkpt lat="48.83606" lon="2.38669">
        <ele>83.7</ele>
        <time>2015-02-23T21:12:50.161Z</time>
      </trkpt>
      <trkpt lat="48.83607" lon="2.38675">
        <ele>83.8</ele>
        <time>2015-02-23T21:12:51.180Z</time>
      </trkpt>
      <trkpt lat="48.83609" lon="2.38686">
        <ele>84.2</ele>
        <time>2015-02-23T21:12:53.169Z</time>
      </trkpt>
      <trkpt lat="48.8361" lon="2.38691">
        <ele>84.2</ele>
        <time>2015-02-23T21:12:54.225Z</time>
      </trkpt>
      <trkpt lat="48.83614" lon="2.38703">
        <ele>84.7</ele>
        <time>2015-02-23T21:12:56.246Z</time>
      </trkpt>
      <trkpt lat="48.83616" lon="2.38708">
        <ele>84.7</ele>
        <time>2015-02-23T21:12:57.242Z</time>
      </trkpt>
      <trkpt lat="48.8362" lon="2.38718">
        <ele>84.7</ele>
        <time>2015-02-23T21:12:59.198Z</time>
      </trkpt>
      <trkpt lat="48.83621" lon="2.38724">
        <ele>84.7</ele>
        <time>2015-02-23T21:13:00.240Z</time>
      </trkpt>
      <trkpt lat="48.83625" lon="2.38734">
        <ele>84.5</ele>
        <time>2015-02-23T21:13:02.177Z</time>
      </trkpt>
      <trkpt lat="48.83627" lon="2.38739">
        <ele>84.6</ele>
        <time>2015-02-23T21:13:03.187Z</time>
      </trkpt>
      <trkpt lat="48.83632" lon="2.38748">
        <ele>84.7</ele>
        <time>2015-02-23T21:13:05.233Z</time>
      </trkpt>
      <trkpt lat="48.83635" lon="2.3875">
        <ele>85.1</ele>
        <time>2015-02-23T21:13:06.322Z</time>
      </trkpt>
      <trkpt lat="48.8364" lon="2.38758">
        <ele>86.1</ele>
        <time>2015-02-23T21:13:09.195Z</time>
      </trkpt>
      <trkpt lat="48.83643" lon="2.38762">
        <ele>86.3</ele>
        <time>2015-02-23T21:13:10.206Z</time>
      </trkpt>
      <trkpt lat="48.83647" lon="2.38769">
        <ele>86.6</ele>
        <time>2015-02-23T21:13:12.252Z</time>
      </trkpt>
      <trkpt lat="48.8365" lon="2.38774">
        <ele>86.5</ele>
        <time>2015-02-23T21:13:13.177Z</time>
      </trkpt>
      <trkpt lat="48.83653" lon="2.38779">
        <ele>86.6</ele>
        <time>2015-02-23T21:13:14.228Z</time>
      </trkpt>
      <trkpt lat="48.83655" lon="2.38785">
        <ele>86.2</ele>
        <time>2015-02-23T21:13:15.241Z</time>
      </trkpt>
      <trkpt lat="48.83657" lon="2.38792">
        <ele>85.9</ele>
        <time>2015-02-23T21:13:16.258Z</time>
      </trkpt>
      <trkpt lat="48.83657" lon="2.38799">
        <ele>85.8</ele>
        <time>2015-02-23T21:13:17.151Z</time>
      </trkpt>
      <trkpt lat="48.83653" lon="2.38811">
        <ele>86.3</ele>
        <time>2015-02-23T21:13:20.223Z</time>
      </trkpt>
      <trkpt lat="48.83653" lon="2.38813">
        <ele>86.4</ele>
        <time>2015-02-23T21:13:21.155Z</time>
      </trkpt>
      <trkpt lat="48.83654" lon="2.38822">
        <ele>86.7</ele>
        <time>2015-02-23T21:13:23.168Z</time>
      </trkpt>
      <trkpt lat="48.83655" lon="2.38827">
        <ele>86.8</ele>
        <time>2015-02-23T21:13:24.215Z</time>
      </trkpt>
      <trkpt lat="48.83656" lon="2.38838">
        <ele>87.3</ele>
        <time>2015-02-23T21:13:26.164Z</time>
      </trkpt>
      <trkpt lat="48.83658" lon="2.38845">
        <ele>88</ele>
        <time>2015-02-23T21:13:27.275Z</time>
      </trkpt>
      <trkpt lat="48.83659" lon="2.38856">
        <ele>87.9</ele>
        <time>2015-02-23T21:13:29.186Z</time>
      </trkpt>
      <trkpt lat="48.8366" lon="2.38859">
        <ele>87.9</ele>
        <time>2015-02-23T21:13:30.258Z</time>
      </trkpt>
      <trkpt lat="48.83663" lon="2.3887">
        <ele>88</ele>
        <time>2015-02-23T21:13:35.548Z</time>
      </trkpt>
      <trkpt lat="48.83663" lon="2.38872">
        <ele>87.9</ele>
        <time>2015-02-23T21:13:36.194Z</time>
      </trkpt>
      <trkpt lat="48.83664" lon="2.38885">
        <ele>88.1</ele>
        <time>2015-02-23T21:13:39.338Z</time>
      </trkpt>
      <trkpt lat="48.83664" lon="2.38891">
        <ele>88.5</ele>
        <time>2015-02-23T21:13:40.164Z</time>
      </trkpt>
      <trkpt lat="48.83666" lon="2.38903">
        <ele>88.8</ele>
        <time>2015-02-23T21:13:42.187Z</time>
      </trkpt>
      <trkpt lat="48.83666" lon="2.3891">
        <ele>88.7</ele>
        <time>2015-02-23T21:13:43.228Z</time>
      </trkpt>
      <trkpt lat="48.83668" lon="2.3892">
        <ele>88.3</ele>
        <time>2015-02-23T21:13:45.157Z</time>
      </trkpt>
      <trkpt lat="48.8367" lon="2.38924">
        <ele>88.1</ele>
        <time>2015-02-23T21:13:46.158Z</time>
      </trkpt>
      <trkpt lat="48.83677" lon="2.38932">
        <ele>87.3</ele>
        <time>2015-02-23T21:13:48.325Z</time>
      </trkpt>
      <trkpt lat="48.83684" lon="2.38939">
        <ele>85.8</ele>
        <time>2015-02-23T21:13:49.228Z</time>
      </trkpt>
      <trkpt lat="48.83686" lon="2.38949">
        <ele>84</ele>
        <time>2015-02-23T21:13:50.244Z</time>
      </trkpt>
      <trkpt lat="48.83689" lon="2.38957">
        <ele>83</ele>
        <time>2015-02-23T21:13:51.244Z</time>
      </trkpt>
      <trkpt lat="48.83691" lon="2.38966">
        <ele>82.3</ele>
        <time>2015-02-23T21:13:52.259Z</time>
      </trkpt>
      <trkpt lat="48.83694" lon="2.38974">
        <ele>81.8</ele>
        <time>2015-02-23T21:13:53.136Z</time>
      </trkpt>
      <trkpt lat="48.83697" lon="2.38983">
        <ele>81.6</ele>
        <time>2015-02-23T21:13:54.239Z</time>
      </trkpt>
      <trkpt lat="48.837" lon="2.38991">
        <ele>81.5</ele>
        <time>2015-02-23T21:13:55.202Z</time>
      </trkpt>
      <trkpt lat="48.83702" lon="2.39">
        <ele>81.4</ele>
        <time>2015-02-23T21:13:56.236Z</time>
      </trkpt>
      <trkpt lat="48.83703" lon="2.39013">
        <ele>82</ele>
        <time>2015-02-23T21:13:57.247Z</time>
      </trkpt>
      <trkpt lat="48.83704" lon="2.39022">
        <ele>82.1</ele>
        <time>2015-02-23T21:13:58.561Z</time>
      </trkpt>
      <trkpt lat="48.83706" lon="2.39033">
        <ele>82.5</ele>
        <time>2015-02-23T21:13:59.170Z</time>
      </trkpt>
      <trkpt lat="48.83708" lon="2.39043">
        <ele>82.9</ele>
        <time>2015-02-23T21:14:00.171Z</time>
      </trkpt>
      <trkpt lat="48.83709" lon="2.39051">
        <ele>83.2</ele>
        <time>2015-02-23T21:14:01.189Z</time>
      </trkpt>
      <trkpt lat="48.83712" lon="2.39064">
        <ele>83.1</ele>
        <time>2015-02-23T21:14:03.869Z</time>
      </trkpt>
      <trkpt lat="48.83713" lon="2.3907">
        <ele>83.2</ele>
        <time>2015-02-23T21:14:04.260Z</time>
      </trkpt>
      <trkpt lat="48.83716" lon="2.39083">
        <ele>83.8</ele>
        <time>2015-02-23T21:14:06.204Z</time>
      </trkpt>
      <trkpt lat="48.83718" lon="2.39089">
        <ele>84.3</ele>
        <time>2015-02-23T21:14:07.194Z</time>
      </trkpt>
      <trkpt lat="48.83721" lon="2.39101">
        <ele>85.3</ele>
        <time>2015-02-23T21:14:09.226Z</time>
      </trkpt>
      <trkpt lat="48.83723" lon="2.39106">
        <ele>85.7</ele>
        <time>2015-02-23T21:14:10.249Z</time>
      </trkpt>
      <trkpt lat="48.8373" lon="2.39115">
        <ele>86.4</ele>
        <time>2015-02-23T21:14:15.240Z</time>
      </trkpt>
      <trkpt lat="48.83732" lon="2.39114">
        <ele>86.2</ele>
        <time>2015-02-23T21:14:16.187Z</time>
      </trkpt>
      <trkpt lat="48.8374" lon="2.39108">
        <ele>85.7</ele>
        <time>2015-02-23T21:14:20.257Z</time>
      </trkpt>
      <trkpt lat="48.83743" lon="2.39106">
        <ele>85.5</ele>
        <time>2015-02-23T21:14:21.166Z</time>
      </trkpt>
      <trkpt lat="48.83748" lon="2.391">
        <ele>85.1</ele>
        <time>2015-02-23T21:14:23.197Z</time>
      </trkpt>
      <trkpt lat="48.83751" lon="2.39098">
        <ele>85</ele>
        <time>2015-02-23T21:14:24.240Z</time>
      </trkpt>
      <trkpt lat="48.83757" lon="2.39091">
        <ele>84.9</ele>
        <time>2015-02-23T21:14:27.199Z</time>
      </trkpt>
      <trkpt lat="48.8376" lon="2.39087">
        <ele>85</ele>
        <time>2015-02-23T21:14:27.243Z</time>
      </trkpt>
      <trkpt lat="48.83765" lon="2.39081">
        <ele>85</ele>
        <time>2015-02-23T21:14:29.195Z</time>
      </trkpt>
      <trkpt lat="48.83768" lon="2.39078">
        <ele>85.2</ele>
        <time>2015-02-23T21:14:30.225Z</time>
      </trkpt>
      <trkpt lat="48.83774" lon="2.39074">
        <ele>85.3</ele>
        <time>2015-02-23T21:14:32.318Z</time>
      </trkpt>
      <trkpt lat="48.83778" lon="2.39071">
        <ele>85.4</ele>
        <time>2015-02-23T21:14:33.170Z</time>
      </trkpt>
      <trkpt lat="48.83784" lon="2.39065">
        <ele>85.6</ele>
        <time>2015-02-23T21:14:35.170Z</time>
      </trkpt>
      <trkpt lat="48.83786" lon="2.39062">
        <ele>85.7</ele>
        <time>2015-02-23T21:14:36.205Z</time>
      </trkpt>
      <trkpt lat="48.83794" lon="2.39058">
        <ele>85.8</ele>
        <time>2015-02-23T21:14:38.242Z</time>
      </trkpt>
      <trkpt lat="48.83797" lon="2.39055">
        <ele>85.9</ele>
        <time>2015-02-23T21:14:39.252Z</time>
      </trkpt>
      <trkpt lat="48.83804" lon="2.3905">
        <ele>86.1</ele>
        <time>2015-02-23T21:14:41.175Z</time>
      </trkpt>
      <trkpt lat="48.83806" lon="2.39046">
        <ele>86.3</ele>
        <time>2015-02-23T21:14:42.196Z</time>
      </trkpt>
      <trkpt lat="48.83813" lon="2.39039">
        <ele>86.6</ele>
        <time>2015-02-23T21:14:44.220Z</time>
      </trkpt>
      <trkpt lat="48.83815" lon="2.39034">
        <ele>86.9</ele>
        <time>2015-02-23T21:14:45.230Z</time>
      </trkpt>
      <trkpt lat="48.83821" lon="2.39027">
        <ele>87.3</ele>
        <time>2015-02-23T21:14:47.625Z</time>
      </trkpt>
      <trkpt lat="48.83824" lon="2.39024">
        <ele>87.5</ele>
        <time>2015-02-23T21:14:48.202Z</time>
      </trkpt>
      <trkpt lat="48.8383" lon="2.39019">
        <ele>87.7</ele>
        <time>2015-02-23T21:14:50.263Z</time>
      </trkpt>
      <trkpt lat="48.83834" lon="2.39018">
        <ele>87.8</ele>
        <time>2015-02-23T21:14:51.170Z</time>
      </trkpt>
      <trkpt lat="48.83842" lon="2.39016">
        <ele>88.2</ele>
        <time>2015-02-23T21:14:53.178Z</time>
      </trkpt>
      <trkpt lat="48.83845" lon="2.39014">
        <ele>88.5</ele>
        <time>2015-02-23T21:14:54.235Z</time>
      </trkpt>
      <trkpt lat="48.8385" lon="2.39011">
        <ele>88.6</ele>
        <time>2015-02-23T21:14:55.258Z</time>
      </trkpt>
      <trkpt lat="48.83854" lon="2.39008">
        <ele>88.6</ele>
        <time>2015-02-23T21:14:56.171Z</time>
      </trkpt>
      <trkpt lat="48.83861" lon="2.39001">
        <ele>88.7</ele>
        <time>2015-02-23T21:14:58.189Z</time>
      </trkpt>
      <trkpt lat="48.83864" lon="2.38998">
        <ele>88.8</ele>
        <time>2015-02-23T21:14:59.194Z</time>
      </trkpt>
      <trkpt lat="48.83869" lon="2.38989">
        <ele>88.9</ele>
        <time>2015-02-23T21:15:01.211Z</time>
      </trkpt>
      <trkpt lat="48.83871" lon="2.38984">
        <ele>88.9</ele>
        <time>2015-02-23T21:15:02.215Z</time>
      </trkpt>
      <trkpt lat="48.83875" lon="2.38974">
        <ele>88.6</ele>
        <time>2015-02-23T21:15:05.251Z</time>
      </trkpt>
      <trkpt lat="48.83877" lon="2.38972">
        <ele>88.7</ele>
        <time>2015-02-23T21:15:06.182Z</time>
      </trkpt>
      <trkpt lat="48.8388" lon="2.38962">
        <ele>89.3</ele>
        <time>2015-02-23T21:15:09.236Z</time>
      </trkpt>
      <trkpt lat="48.83882" lon="2.38958">
        <ele>89.3</ele>
        <time>2015-02-23T21:15:10.262Z</time>
      </trkpt>
      <trkpt lat="48.83888" lon="2.38951">
        <ele>89.1</ele>
        <time>2015-02-23T21:15:14.215Z</time>
      </trkpt>
      <trkpt lat="48.83889" lon="2.38949">
        <ele>89.4</ele>
        <time>2015-02-23T21:15:15.233Z</time>
      </trkpt>
      <trkpt lat="48.83891" lon="2.38951">
        <ele>90</ele>
        <time>2015-02-23T21:15:26.852Z</time>
      </trkpt>
      <trkpt lat="48.83891" lon="2.3895">
        <ele>89.9</ele>
        <time>2015-02-23T21:15:27.194Z</time>
      </trkpt>
      <trkpt lat="48.83893" lon="2.38949">
        <ele>89.8</ele>
        <time>2015-02-23T21:15:28.211Z</time>
      </trkpt>
      <trkpt lat="48.83894" lon="2.38946">
        <ele>89.8</ele>
        <time>2015-02-23T21:15:30.258Z</time>
      </trkpt>
      <trkpt lat="48.83894" lon="2.38946">
        <ele>89.8</ele>
        <time>2015-02-23T21:15:31.286Z</time>
      </trkpt>
      <trkpt lat="48.83894" lon="2.38946">
        <ele>90</ele>
        <time>2015-02-23T21:15:36.941Z</time>
      </trkpt>
      <trkpt lat="48.83897" lon="2.38943">
        <ele>89.9</ele>
        <time>2015-02-23T21:15:37.209Z</time>
      </trkpt>
      <trkpt lat="48.83904" lon="2.38935">
        <ele>89.4</ele>
        <time>2015-02-23T21:15:42.008Z</time>
      </trkpt>
      <trkpt lat="48.83906" lon="2.38933">
        <ele>89.5</ele>
        <time>2015-02-23T21:15:42.189Z</time>
      </trkpt>
      <trkpt lat="48.83912" lon="2.38929">
        <ele>89.3</ele>
        <time>2015-02-23T21:15:45.232Z</time>
      </trkpt>
      <trkpt lat="48.83915" lon="2.38927">
        <ele>89.4</ele>
        <time>2015-02-23T21:15:46.246Z</time>
      </trkpt>
      <trkpt lat="48.83922" lon="2.38922">
        <ele>89.5</ele>
        <time>2015-02-23T21:15:49.231Z</time>
      </trkpt>
      <trkpt lat="48.83925" lon="2.38919">
        <ele>89.4</ele>
        <time>2015-02-23T21:15:50.198Z</time>
      </trkpt>
      <trkpt lat="48.83932" lon="2.38913">
        <ele>89.7</ele>
        <time>2015-02-23T21:15:52.216Z</time>
      </trkpt>
      <trkpt lat="48.83936" lon="2.38911">
        <ele>89.7</ele>
        <time>2015-02-23T21:15:53.238Z</time>
      </trkpt>
      <trkpt lat="48.83944" lon="2.38906">
        <ele>89.9</ele>
        <time>2015-02-23T21:15:55.177Z</time>
      </trkpt>
      <trkpt lat="48.83947" lon="2.38901">
        <ele>90.5</ele>
        <time>2015-02-23T21:15:56.166Z</time>
      </trkpt>
      <trkpt lat="48.83954" lon="2.38896">
        <ele>91</ele>
        <time>2015-02-23T21:15:58.200Z</time>
      </trkpt>
      <trkpt lat="48.83964" lon="2.38892">
        <ele>91.1</ele>
        <time>2015-02-23T21:16:00.224Z</time>
      </trkpt>
      <trkpt lat="48.83969" lon="2.38889">
        <ele>91.1</ele>
        <time>2015-02-23T21:16:01.248Z</time>
      </trkpt>
      <trkpt lat="48.83974" lon="2.38886">
        <ele>91.2</ele>
        <time>2015-02-23T21:16:02.284Z</time>
      </trkpt>
      <trkpt lat="48.83979" lon="2.38884">
        <ele>91.2</ele>
        <time>2015-02-23T21:16:03.157Z</time>
      </trkpt>
      <trkpt lat="48.83984" lon="2.38881">
        <ele>91.3</ele>
        <time>2015-02-23T21:16:04.158Z</time>
      </trkpt>
      <trkpt lat="48.83994" lon="2.38879">
        <ele>91.2</ele>
        <time>2015-02-23T21:16:06.218Z</time>
      </trkpt>
      <trkpt lat="48.84001" lon="2.38877">
        <ele>91.1</ele>
        <time>2015-02-23T21:16:07.167Z</time>
      </trkpt>
      <trkpt lat="48.84007" lon="2.38875">
        <ele>91</ele>
        <time>2015-02-23T21:16:08.175Z</time>
      </trkpt>
      <trkpt lat="48.8402" lon="2.38872">
        <ele>91</ele>
        <time>2015-02-23T21:16:10.222Z</time>
      </trkpt>
      <trkpt lat="48.84027" lon="2.38869">
        <ele>91</ele>
        <time>2015-02-23T21:16:11.255Z</time>
      </trkpt>
      <trkpt lat="48.84032" lon="2.38866">
        <ele>91</ele>
        <time>2015-02-23T21:16:12.276Z</time>
      </trkpt>
      <trkpt lat="48.84037" lon="2.38864">
        <ele>91.1</ele>
        <time>2015-02-23T21:16:13.157Z</time>
      </trkpt>
      <trkpt lat="48.84042" lon="2.38861">
        <ele>91.3</ele>
        <time>2015-02-23T21:16:14.155Z</time>
      </trkpt>
      <trkpt lat="48.84048" lon="2.38858">
        <ele>91.3</ele>
        <time>2015-02-23T21:16:15.184Z</time>
      </trkpt>
      <trkpt lat="48.84049" lon="2.38852">
        <ele>91.8</ele>
        <time>2015-02-23T21:16:16.200Z</time>
      </trkpt>
      <trkpt lat="48.8405" lon="2.38846">
        <ele>92.3</ele>
        <time>2015-02-23T21:16:17.227Z</time>
      </trkpt>
      <trkpt lat="48.84052" lon="2.38839">
        <ele>92.8</ele>
        <time>2015-02-23T21:16:18.237Z</time>
      </trkpt>
      <trkpt lat="48.84052" lon="2.38832">
        <ele>93.3</ele>
        <time>2015-02-23T21:16:19.154Z</time>
      </trkpt>
      <trkpt lat="48.84056" lon="2.38822">
        <ele>93.7</ele>
        <time>2015-02-23T21:16:20.157Z</time>
      </trkpt>
      <trkpt lat="48.84064" lon="2.38814">
        <ele>94.1</ele>
        <time>2015-02-23T21:16:22.160Z</time>
      </trkpt>
      <trkpt lat="48.84067" lon="2.3881">
        <ele>94.2</ele>
        <time>2015-02-23T21:16:23.175Z</time>
      </trkpt>
      <trkpt lat="48.84073" lon="2.38808">
        <ele>94.3</ele>
        <time>2015-02-23T21:16:24.185Z</time>
      </trkpt>
      <trkpt lat="48.84079" lon="2.38806">
        <ele>94.4</ele>
        <time>2015-02-23T21:16:25.196Z</time>
      </trkpt>
      <trkpt lat="48.84093" lon="2.38802">
        <ele>94.4</ele>
        <time>2015-02-23T21:16:27.206Z</time>
      </trkpt>
      <trkpt lat="48.84098" lon="2.388">
        <ele>94.5</ele>
        <time>2015-02-23T21:16:28.226Z</time>
      </trkpt>
      <trkpt lat="48.84103" lon="2.38797">
        <ele>94.7</ele>
        <time>2015-02-23T21:16:29.230Z</time>
      </trkpt>
      <trkpt lat="48.84108" lon="2.38794">
        <ele>94.9</ele>
        <time>2015-02-23T21:16:30.261Z</time>
      </trkpt>
      <trkpt lat="48.84111" lon="2.38789">
        <ele>95.1</ele>
        <time>2015-02-23T21:16:31.170Z</time>
      </trkpt>
      <trkpt lat="48.84116" lon="2.38785">
        <ele>95.2</ele>
        <time>2015-02-23T21:16:32.194Z</time>
      </trkpt>
      <trkpt lat="48.8412" lon="2.38782">
        <ele>95.3</ele>
        <time>2015-02-23T21:16:33.201Z</time>
      </trkpt>
      <trkpt lat="48.84124" lon="2.38778">
        <ele>95.4</ele>
        <time>2015-02-23T21:16:34.208Z</time>
      </trkpt>
      <trkpt lat="48.84128" lon="2.38772">
        <ele>95.5</ele>
        <time>2015-02-23T21:16:35.224Z</time>
      </trkpt>
      <trkpt lat="48.84133" lon="2.3877">
        <ele>95.6</ele>
        <time>2015-02-23T21:16:36.244Z</time>
      </trkpt>
      <trkpt lat="48.84138" lon="2.38768">
        <ele>95.8</ele>
        <time>2015-02-23T21:16:37.143Z</time>
      </trkpt>
      <trkpt lat="48.84142" lon="2.38757">
        <ele>95.8</ele>
        <time>2015-02-23T21:16:39.154Z</time>
      </trkpt>
      <trkpt lat="48.84143" lon="2.38752">
        <ele>95.9</ele>
        <time>2015-02-23T21:16:40.179Z</time>
      </trkpt>
      <trkpt lat="48.8415" lon="2.38749">
        <ele>96.3</ele>
        <time>2015-02-23T21:16:43.228Z</time>
      </trkpt>
      <trkpt lat="48.84155" lon="2.38748">
        <ele>97.1</ele>
        <time>2015-02-23T21:16:44.248Z</time>
      </trkpt>
      <trkpt lat="48.8416" lon="2.38741">
        <ele>97.4</ele>
        <time>2015-02-23T21:16:48.206Z</time>
      </trkpt>
      <trkpt lat="48.84162" lon="2.38737">
        <ele>97.4</ele>
        <time>2015-02-23T21:16:49.225Z</time>
      </trkpt>
      <trkpt lat="48.84166" lon="2.38725">
        <ele>97.7</ele>
        <time>2015-02-23T21:16:53.248Z</time>
      </trkpt>
      <trkpt lat="48.84168" lon="2.38721">
        <ele>97.6</ele>
        <time>2015-02-23T21:16:54.252Z</time>
      </trkpt>
      <trkpt lat="48.84171" lon="2.38712">
        <ele>96.9</ele>
        <time>2015-02-23T21:16:56.160Z</time>
      </trkpt>
      <trkpt lat="48.84174" lon="2.38707">
        <ele>97</ele>
        <time>2015-02-23T21:16:57.171Z</time>
      </trkpt>
      <trkpt lat="48.84178" lon="2.38703">
        <ele>97.1</ele>
        <time>2015-02-23T21:16:58.205Z</time>
      </trkpt>
      <trkpt lat="48.84183" lon="2.387">
        <ele>97.1</ele>
        <time>2015-02-23T21:16:59.222Z</time>
      </trkpt>
      <trkpt lat="48.84187" lon="2.38697">
        <ele>97</ele>
        <time>2015-02-23T21:17:00.227Z</time>
      </trkpt>
      <trkpt lat="48.84192" lon="2.38694">
        <ele>97.1</ele>
        <time>2015-02-23T21:17:01.245Z</time>
      </trkpt>
      <trkpt lat="48.84196" lon="2.3869">
        <ele>97.1</ele>
        <time>2015-02-23T21:17:02.157Z</time>
      </trkpt>
      <trkpt lat="48.842" lon="2.38686">
        <ele>97</ele>
        <time>2015-02-23T21:17:03.156Z</time>
      </trkpt>
      <trkpt lat="48.84206" lon="2.38683">
        <ele>97.1</ele>
        <time>2015-02-23T21:17:04.170Z</time>
      </trkpt>
      <trkpt lat="48.84212" lon="2.38681">
        <ele>97.2</ele>
        <time>2015-02-23T21:17:05.198Z</time>
      </trkpt>
      <trkpt lat="48.84215" lon="2.38676">
        <ele>97.3</ele>
        <time>2015-02-23T21:17:06.254Z</time>
      </trkpt>
      <trkpt lat="48.84219" lon="2.38672">
        <ele>97.5</ele>
        <time>2015-02-23T21:17:07.154Z</time>
      </trkpt>
      <trkpt lat="48.84222" lon="2.38667">
        <ele>97.6</ele>
        <time>2015-02-23T21:17:08.197Z</time>
      </trkpt>
      <trkpt lat="48.84226" lon="2.38662">
        <ele>97.6</ele>
        <time>2015-02-23T21:17:09.291Z</time>
      </trkpt>
      <trkpt lat="48.84231" lon="2.38654">
        <ele>98.1</ele>
        <time>2015-02-23T21:17:11.182Z</time>
      </trkpt>
      <trkpt lat="48.84234" lon="2.38649">
        <ele>98.2</ele>
        <time>2015-02-23T21:17:12.194Z</time>
      </trkpt>
      <trkpt lat="48.84239" lon="2.38639">
        <ele>98.5</ele>
        <time>2015-02-23T21:17:14.220Z</time>
      </trkpt>
      <trkpt lat="48.84243" lon="2.38633">
        <ele>98.7</ele>
        <time>2015-02-23T21:17:15.249Z</time>
      </trkpt>
      <trkpt lat="48.84246" lon="2.38627">
        <ele>98.8</ele>
        <time>2015-02-23T21:17:16.168Z</time>
      </trkpt>
      <trkpt lat="48.84249" lon="2.38622">
        <ele>98.9</ele>
        <time>2015-02-23T21:17:17.211Z</time>
      </trkpt>
      <trkpt lat="48.84252" lon="2.38617">
        <ele>99.1</ele>
        <time>2015-02-23T21:17:18.239Z</time>
      </trkpt>
      <trkpt lat="48.84256" lon="2.3861">
        <ele>99.3</ele>
        <time>2015-02-23T21:17:19.262Z</time>
      </trkpt>
      <trkpt lat="48.84259" lon="2.38604">
        <ele>99.4</ele>
        <time>2015-02-23T21:17:20.171Z</time>
      </trkpt>
      <trkpt lat="48.84261" lon="2.38599">
        <ele>99.5</ele>
        <time>2015-02-23T21:17:21.176Z</time>
      </trkpt>
      <trkpt lat="48.84265" lon="2.38592">
        <ele>99.6</ele>
        <time>2015-02-23T21:17:22.180Z</time>
      </trkpt>
      <trkpt lat="48.84267" lon="2.38586">
        <ele>99.6</ele>
        <time>2015-02-23T21:17:23.191Z</time>
      </trkpt>
      <trkpt lat="48.8427" lon="2.38579">
        <ele>99.5</ele>
        <time>2015-02-23T21:17:24.208Z</time>
      </trkpt>
      <trkpt lat="48.84271" lon="2.38572">
        <ele>99.4</ele>
        <time>2015-02-23T21:17:25.220Z</time>
      </trkpt>
      <trkpt lat="48.84272" lon="2.38565">
        <ele>99.4</ele>
        <time>2015-02-23T21:17:26.230Z</time>
      </trkpt>
      <trkpt lat="48.84272" lon="2.38558">
        <ele>98.9</ele>
        <time>2015-02-23T21:17:27.248Z</time>
      </trkpt>
      <trkpt lat="48.84272" lon="2.3855">
        <ele>97.7</ele>
        <time>2015-02-23T21:17:28.163Z</time>
      </trkpt>
      <trkpt lat="48.84272" lon="2.38543">
        <ele>96.8</ele>
        <time>2015-02-23T21:17:29.155Z</time>
      </trkpt>
      <trkpt lat="48.84275" lon="2.38532">
        <ele>96</ele>
        <time>2015-02-23T21:17:31.198Z</time>
      </trkpt>
      <trkpt lat="48.84276" lon="2.38526">
        <ele>96.1</ele>
        <time>2015-02-23T21:17:32.216Z</time>
      </trkpt>
      <trkpt lat="48.84276" lon="2.38519">
        <ele>95.5</ele>
        <time>2015-02-23T21:17:33.245Z</time>
      </trkpt>
      <trkpt lat="48.84275" lon="2.38505">
        <ele>94.5</ele>
        <time>2015-02-23T21:17:34.263Z</time>
      </trkpt>
      <trkpt lat="48.84277" lon="2.38498">
        <ele>95.2</ele>
        <time>2015-02-23T21:17:35.133Z</time>
      </trkpt>
      <trkpt lat="48.8428" lon="2.38492">
        <ele>95.3</ele>
        <time>2015-02-23T21:17:36.183Z</time>
      </trkpt>
      <trkpt lat="48.84283" lon="2.38487">
        <ele>95.5</ele>
        <time>2015-02-23T21:17:37.218Z</time>
      </trkpt>
      <trkpt lat="48.84286" lon="2.38482">
        <ele>95.7</ele>
        <time>2015-02-23T21:17:38.227Z</time>
      </trkpt>
      <trkpt lat="48.8429" lon="2.38477">
        <ele>95.9</ele>
        <time>2015-02-23T21:17:39.145Z</time>
      </trkpt>
      <trkpt lat="48.84292" lon="2.38471">
        <ele>96.5</ele>
        <time>2015-02-23T21:17:40.128Z</time>
      </trkpt>
      <trkpt lat="48.84294" lon="2.38463">
        <ele>97.1</ele>
        <time>2015-02-23T21:17:41.157Z</time>
      </trkpt>
      <trkpt lat="48.84295" lon="2.38455">
        <ele>97.6</ele>
        <time>2015-02-23T21:17:42.165Z</time>
      </trkpt>
      <trkpt lat="48.84297" lon="2.38447">
        <ele>98</ele>
        <time>2015-02-23T21:17:43.192Z</time>
      </trkpt>
      <trkpt lat="48.84298" lon="2.3844">
        <ele>98.3</ele>
        <time>2015-02-23T21:17:44.210Z</time>
      </trkpt>
      <trkpt lat="48.843" lon="2.38433">
        <ele>98.7</ele>
        <time>2015-02-23T21:17:45.137Z</time>
      </trkpt>
      <trkpt lat="48.84303" lon="2.38426">
        <ele>99</ele>
        <time>2015-02-23T21:17:46.158Z</time>
      </trkpt>
      <trkpt lat="48.84305" lon="2.38419">
        <ele>99.2</ele>
        <time>2015-02-23T21:17:47.173Z</time>
      </trkpt>
      <trkpt lat="48.84307" lon="2.38413">
        <ele>99.5</ele>
        <time>2015-02-23T21:17:48.238Z</time>
      </trkpt>
      <trkpt lat="48.84311" lon="2.38408">
        <ele>99.6</ele>
        <time>2015-02-23T21:17:49.171Z</time>
      </trkpt>
      <trkpt lat="48.84314" lon="2.38402">
        <ele>99.6</ele>
        <time>2015-02-23T21:17:50.160Z</time>
      </trkpt>
      <trkpt lat="48.84319" lon="2.38397">
        <ele>99.7</ele>
        <time>2015-02-23T21:17:51.177Z</time>
      </trkpt>
      <trkpt lat="48.84323" lon="2.38393">
        <ele>99.7</ele>
        <time>2015-02-23T21:17:52.184Z</time>
      </trkpt>
      <trkpt lat="48.84326" lon="2.38387">
        <ele>99.4</ele>
        <time>2015-02-23T21:17:53.191Z</time>
      </trkpt>
      <trkpt lat="48.84329" lon="2.38382">
        <ele>98.8</ele>
        <time>2015-02-23T21:17:54.280Z</time>
      </trkpt>
      <trkpt lat="48.84334" lon="2.38377">
        <ele>98.8</ele>
        <time>2015-02-23T21:17:55.159Z</time>
      </trkpt>
      <trkpt lat="48.84339" lon="2.38375">
        <ele>98.8</ele>
        <time>2015-02-23T21:17:56.161Z</time>
      </trkpt>
      <trkpt lat="48.84345" lon="2.38373">
        <ele>98.8</ele>
        <time>2015-02-23T21:17:57.191Z</time>
      </trkpt>
      <trkpt lat="48.8435" lon="2.38371">
        <ele>98.9</ele>
        <time>2015-02-23T21:17:58.208Z</time>
      </trkpt>
      <trkpt lat="48.84357" lon="2.3837">
        <ele>99</ele>
        <time>2015-02-23T21:17:59.214Z</time>
      </trkpt>
      <trkpt lat="48.84364" lon="2.38369">
        <ele>99.3</ele>
        <time>2015-02-23T21:18:00.248Z</time>
      </trkpt>
      <trkpt lat="48.84369" lon="2.38368">
        <ele>99.5</ele>
        <time>2015-02-23T21:18:01.253Z</time>
      </trkpt>
      <trkpt lat="48.84375" lon="2.38365">
        <ele>99.7</ele>
        <time>2015-02-23T21:18:02.152Z</time>
      </trkpt>
      <trkpt lat="48.8438" lon="2.3836">
        <ele>99.8</ele>
        <time>2015-02-23T21:18:03.153Z</time>
      </trkpt>
      <trkpt lat="48.84385" lon="2.38355">
        <ele>99.9</ele>
        <time>2015-02-23T21:18:04.162Z</time>
      </trkpt>
      <trkpt lat="48.8439" lon="2.38349">
        <ele>100.1</ele>
        <time>2015-02-23T21:18:05.166Z</time>
      </trkpt>
      <trkpt lat="48.84394" lon="2.38344">
        <ele>100.3</ele>
        <time>2015-02-23T21:18:06.176Z</time>
      </trkpt>
      <trkpt lat="48.84398" lon="2.38338">
        <ele>100.5</ele>
        <time>2015-02-23T21:18:07.217Z</time>
      </trkpt>
      <trkpt lat="48.84402" lon="2.38331">
        <ele>100.7</ele>
        <time>2015-02-23T21:18:08.222Z</time>
      </trkpt>
      <trkpt lat="48.84404" lon="2.38325">
        <ele>101</ele>
        <time>2015-02-23T21:18:09.229Z</time>
      </trkpt>
      <trkpt lat="48.84407" lon="2.38319">
        <ele>101.3</ele>
        <time>2015-02-23T21:18:10.146Z</time>
      </trkpt>
      <trkpt lat="48.8441" lon="2.38313">
        <ele>101.4</ele>
        <time>2015-02-23T21:18:11.144Z</time>
      </trkpt>
      <trkpt lat="48.84413" lon="2.38306">
        <ele>101.6</ele>
        <time>2015-02-23T21:18:12.191Z</time>
      </trkpt>
      <trkpt lat="48.84415" lon="2.38299">
        <ele>101.7</ele>
        <time>2015-02-23T21:18:13.207Z</time>
      </trkpt>
      <trkpt lat="48.84417" lon="2.38293">
        <ele>101.8</ele>
        <time>2015-02-23T21:18:14.217Z</time>
      </trkpt>
      <trkpt lat="48.84419" lon="2.38287">
        <ele>101.9</ele>
        <time>2015-02-23T21:18:15.126Z</time>
      </trkpt>
      <trkpt lat="48.84422" lon="2.38281">
        <ele>102</ele>
        <time>2015-02-23T21:18:16.142Z</time>
      </trkpt>
      <trkpt lat="48.84424" lon="2.38274">
        <ele>102.1</ele>
        <time>2015-02-23T21:18:17.163Z</time>
      </trkpt>
      <trkpt lat="48.84426" lon="2.38268">
        <ele>102.2</ele>
        <time>2015-02-23T21:18:18.176Z</time>
      </trkpt>
      <trkpt lat="48.84429" lon="2.38262">
        <ele>102.3</ele>
        <time>2015-02-23T21:18:19.182Z</time>
      </trkpt>
      <trkpt lat="48.84432" lon="2.38257">
        <ele>102.4</ele>
        <time>2015-02-23T21:18:20.186Z</time>
      </trkpt>
      <trkpt lat="48.84438" lon="2.38246">
        <ele>101.2</ele>
        <time>2015-02-23T21:18:22.204Z</time>
      </trkpt>
      <trkpt lat="48.84437" lon="2.38235">
        <ele>98.2</ele>
        <time>2015-02-23T21:18:24.166Z</time>
      </trkpt>
      <trkpt lat="48.84441" lon="2.3823">
        <ele>98</ele>
        <time>2015-02-23T21:18:25.204Z</time>
      </trkpt>
      <trkpt lat="48.84444" lon="2.38222">
        <ele>98.2</ele>
        <time>2015-02-23T21:18:27.324Z</time>
      </trkpt>
      <trkpt lat="48.84448" lon="2.38217">
        <ele>97.9</ele>
        <time>2015-02-23T21:18:28.156Z</time>
      </trkpt>
      <trkpt lat="48.84452" lon="2.38212">
        <ele>97.5</ele>
        <time>2015-02-23T21:18:29.168Z</time>
      </trkpt>
      <trkpt lat="48.84444" lon="2.38204">
        <ele>93</ele>
        <time>2015-02-23T21:18:30.199Z</time>
      </trkpt>
      <trkpt lat="48.84439" lon="2.38196">
        <ele>90</ele>
        <time>2015-02-23T21:18:31.220Z</time>
      </trkpt>
      <trkpt lat="48.84437" lon="2.3819">
        <ele>88.4</ele>
        <time>2015-02-23T21:18:32.232Z</time>
      </trkpt>
      <trkpt lat="48.8444" lon="2.38181">
        <ele>87.5</ele>
        <time>2015-02-23T21:18:34.142Z</time>
      </trkpt>
      <trkpt lat="48.84443" lon="2.38176">
        <ele>87.9</ele>
        <time>2015-02-23T21:18:35.165Z</time>
      </trkpt>
      <trkpt lat="48.84446" lon="2.38171">
        <ele>88.2</ele>
        <time>2015-02-23T21:18:36.180Z</time>
      </trkpt>
      <trkpt lat="48.84449" lon="2.38166">
        <ele>88.4</ele>
        <time>2015-02-23T21:18:37.180Z</time>
      </trkpt>
      <trkpt lat="48.84453" lon="2.38155">
        <ele>89.7</ele>
        <time>2015-02-23T21:18:39.238Z</time>
      </trkpt>
      <trkpt lat="48.84456" lon="2.38148">
        <ele>90.3</ele>
        <time>2015-02-23T21:18:40.168Z</time>
      </trkpt>
      <trkpt lat="48.8446" lon="2.38139">
        <ele>90.4</ele>
        <time>2015-02-23T21:18:41.169Z</time>
      </trkpt>
      <trkpt lat="48.8446" lon="2.38131">
        <ele>88.8</ele>
        <time>2015-02-23T21:18:42.193Z</time>
      </trkpt>
      <trkpt lat="48.84461" lon="2.38124">
        <ele>87.7</ele>
        <time>2015-02-23T21:18:43.229Z</time>
      </trkpt>
      <trkpt lat="48.84463" lon="2.38118">
        <ele>88.2</ele>
        <time>2015-02-23T21:18:44.240Z</time>
      </trkpt>
      <trkpt lat="48.84467" lon="2.38107">
        <ele>88.3</ele>
        <time>2015-02-23T21:18:46.170Z</time>
      </trkpt>
      <trkpt lat="48.8447" lon="2.38101">
        <ele>88.3</ele>
        <time>2015-02-23T21:18:47.175Z</time>
      </trkpt>
      <trkpt lat="48.84473" lon="2.38095">
        <ele>88.4</ele>
        <time>2015-02-23T21:18:48.208Z</time>
      </trkpt>
      <trkpt lat="48.84476" lon="2.3809">
        <ele>88.6</ele>
        <time>2015-02-23T21:18:49.216Z</time>
      </trkpt>
      <trkpt lat="48.84481" lon="2.38079">
        <ele>88.9</ele>
        <time>2015-02-23T21:18:51.153Z</time>
      </trkpt>
      <trkpt lat="48.84483" lon="2.38073">
        <ele>89.3</ele>
        <time>2015-02-23T21:18:52.168Z</time>
      </trkpt>
      <trkpt lat="48.84485" lon="2.38066">
        <ele>89.4</ele>
        <time>2015-02-23T21:18:53.243Z</time>
      </trkpt>
      <trkpt lat="48.84486" lon="2.38059">
        <ele>89.3</ele>
        <time>2015-02-23T21:18:54.246Z</time>
      </trkpt>
      <trkpt lat="48.8449" lon="2.38054">
        <ele>89.5</ele>
        <time>2015-02-23T21:18:55.133Z</time>
      </trkpt>
      <trkpt lat="48.84494" lon="2.3805">
        <ele>89.8</ele>
        <time>2015-02-23T21:18:56.170Z</time>
      </trkpt>
      <trkpt lat="48.84498" lon="2.38046">
        <ele>90.1</ele>
        <time>2015-02-23T21:18:57.178Z</time>
      </trkpt>
      <trkpt lat="48.84502" lon="2.38043">
        <ele>90.3</ele>
        <time>2015-02-23T21:18:58.205Z</time>
      </trkpt>
      <trkpt lat="48.84508" lon="2.38035">
        <ele>91</ele>
        <time>2015-02-23T21:19:00.187Z</time>
      </trkpt>
      <trkpt lat="48.84511" lon="2.38031">
        <ele>91.5</ele>
        <time>2015-02-23T21:19:01.213Z</time>
      </trkpt>
      <trkpt lat="48.84514" lon="2.38026">
        <ele>91.7</ele>
        <time>2015-02-23T21:19:02.221Z</time>
      </trkpt>
      <trkpt lat="48.84518" lon="2.38022">
        <ele>92</ele>
        <time>2015-02-23T21:19:03.241Z</time>
      </trkpt>
      <trkpt lat="48.84522" lon="2.38018">
        <ele>92.3</ele>
        <time>2015-02-23T21:19:04.158Z</time>
      </trkpt>
      <trkpt lat="48.84525" lon="2.38012">
        <ele>93</ele>
        <time>2015-02-23T21:19:05.163Z</time>
      </trkpt>
      <trkpt lat="48.84527" lon="2.38006">
        <ele>94</ele>
        <time>2015-02-23T21:19:06.187Z</time>
      </trkpt>
      <trkpt lat="48.84529" lon="2.37998">
        <ele>95.1</ele>
        <time>2015-02-23T21:19:07.192Z</time>
      </trkpt>
      <trkpt lat="48.84531" lon="2.37991">
        <ele>95.9</ele>
        <time>2015-02-23T21:19:08.211Z</time>
      </trkpt>
      <trkpt lat="48.84533" lon="2.37984">
        <ele>96.5</ele>
        <time>2015-02-23T21:19:09.239Z</time>
      </trkpt>
      <trkpt lat="48.84536" lon="2.37976">
        <ele>97.1</ele>
        <time>2015-02-23T21:19:10.154Z</time>
      </trkpt>
      <trkpt lat="48.84539" lon="2.3797">
        <ele>97.8</ele>
        <time>2015-02-23T21:19:11.170Z</time>
      </trkpt>
      <trkpt lat="48.84541" lon="2.37962">
        <ele>98.6</ele>
        <time>2015-02-23T21:19:12.184Z</time>
      </trkpt>
      <trkpt lat="48.84544" lon="2.37956">
        <ele>99.4</ele>
        <time>2015-02-23T21:19:13.189Z</time>
      </trkpt>
      <trkpt lat="48.84548" lon="2.3795">
        <ele>99.9</ele>
        <time>2015-02-23T21:19:14.133Z</time>
      </trkpt>
      <trkpt lat="48.84551" lon="2.37944">
        <ele>100.6</ele>
        <time>2015-02-23T21:19:15.153Z</time>
      </trkpt>
      <trkpt lat="48.84553" lon="2.37938">
        <ele>101.2</ele>
        <time>2015-02-23T21:19:16.164Z</time>
      </trkpt>
      <trkpt lat="48.84556" lon="2.37933">
        <ele>101.7</ele>
        <time>2015-02-23T21:19:17.183Z</time>
      </trkpt>
      <trkpt lat="48.84559" lon="2.37928">
        <ele>102.1</ele>
        <time>2015-02-23T21:19:18.196Z</time>
      </trkpt>
      <trkpt lat="48.84561" lon="2.37922">
        <ele>102.5</ele>
        <time>2015-02-23T21:19:19.206Z</time>
      </trkpt>
      <trkpt lat="48.84565" lon="2.37912">
        <ele>103.4</ele>
        <time>2015-02-23T21:19:21.134Z</time>
      </trkpt>
      <trkpt lat="48.84566" lon="2.37905">
        <ele>104</ele>
        <time>2015-02-23T21:19:22.152Z</time>
      </trkpt>
      <trkpt lat="48.84568" lon="2.37899">
        <ele>104.5</ele>
        <time>2015-02-23T21:19:23.170Z</time>
      </trkpt>
      <trkpt lat="48.84571" lon="2.37893">
        <ele>104.8</ele>
        <time>2015-02-23T21:19:24.205Z</time>
      </trkpt>
      <trkpt lat="48.84574" lon="2.37888">
        <ele>105.1</ele>
        <time>2015-02-23T21:19:25.241Z</time>
      </trkpt>
      <trkpt lat="48.84577" lon="2.37882">
        <ele>105.5</ele>
        <time>2015-02-23T21:19:26.154Z</time>
      </trkpt>
      <trkpt lat="48.8458" lon="2.37872">
        <ele>105.8</ele>
        <time>2015-02-23T21:19:28.153Z</time>
      </trkpt>
      <trkpt lat="48.84582" lon="2.37867">
        <ele>105.8</ele>
        <time>2015-02-23T21:19:29.158Z</time>
      </trkpt>
      <trkpt lat="48.84589" lon="2.37859">
        <ele>105.8</ele>
        <time>2015-02-23T21:19:31.194Z</time>
      </trkpt>
      <trkpt lat="48.84593" lon="2.37855">
        <ele>105.8</ele>
        <time>2015-02-23T21:19:32.203Z</time>
      </trkpt>
      <trkpt lat="48.846" lon="2.37848">
        <ele>105.8</ele>
        <time>2015-02-23T21:19:34.589Z</time>
      </trkpt>
      <trkpt lat="48.84603" lon="2.37844">
        <ele>105.8</ele>
        <time>2015-02-23T21:19:35.177Z</time>
      </trkpt>
      <trkpt lat="48.84611" lon="2.37838">
        <ele>105.7</ele>
        <time>2015-02-23T21:19:37.826Z</time>
      </trkpt>
      <trkpt lat="48.84615" lon="2.37835">
        <ele>105.7</ele>
        <time>2015-02-23T21:19:38.144Z</time>
      </trkpt>
      <trkpt lat="48.84619" lon="2.37827">
        <ele>104</ele>
        <time>2015-02-23T21:19:40.197Z</time>
      </trkpt>
      <trkpt lat="48.84623" lon="2.37825">
        <ele>104.1</ele>
        <time>2015-02-23T21:19:41.378Z</time>
      </trkpt>
      <trkpt lat="48.84632" lon="2.37821">
        <ele>103.9</ele>
        <time>2015-02-23T21:19:43.240Z</time>
      </trkpt>
      <trkpt lat="48.84635" lon="2.37818">
        <ele>103.9</ele>
        <time>2015-02-23T21:19:44.285Z</time>
      </trkpt>
      <trkpt lat="48.84641" lon="2.37812">
        <ele>103.7</ele>
        <time>2015-02-23T21:19:46.200Z</time>
      </trkpt>
      <trkpt lat="48.84644" lon="2.37809">
        <ele>103.7</ele>
        <time>2015-02-23T21:19:47.209Z</time>
      </trkpt>
      <trkpt lat="48.84649" lon="2.37804">
        <ele>103.8</ele>
        <time>2015-02-23T21:19:49.249Z</time>
      </trkpt>
      <trkpt lat="48.84652" lon="2.37801">
        <ele>103.8</ele>
        <time>2015-02-23T21:19:50.134Z</time>
      </trkpt>
      <trkpt lat="48.84658" lon="2.37796">
        <ele>103.8</ele>
        <time>2015-02-23T21:19:53.033Z</time>
      </trkpt>
      <trkpt lat="48.8466" lon="2.37793">
        <ele>103.8</ele>
        <time>2015-02-23T21:19:53.174Z</time>
      </trkpt>
      <trkpt lat="48.84665" lon="2.37784">
        <ele>103.7</ele>
        <time>2015-02-23T21:19:55.192Z</time>
      </trkpt>
      <trkpt lat="48.84666" lon="2.3778">
        <ele>103.7</ele>
        <time>2015-02-23T21:19:56.203Z</time>
      </trkpt>
      <trkpt lat="48.84665" lon="2.37766">
        <ele>102.2</ele>
        <time>2015-02-23T21:19:59.194Z</time>
      </trkpt>
      <trkpt lat="48.84663" lon="2.37761">
        <ele>101.1</ele>
        <time>2015-02-23T21:20:00.212Z</time>
      </trkpt>
      <trkpt lat="48.84662" lon="2.3775">
        <ele>99.8</ele>
        <time>2015-02-23T21:20:02.247Z</time>
      </trkpt>
      <trkpt lat="48.84665" lon="2.37744">
        <ele>100</ele>
        <time>2015-02-23T21:20:03.371Z</time>
      </trkpt>
      <trkpt lat="48.84667" lon="2.37738">
        <ele>100.2</ele>
        <time>2015-02-23T21:20:04.154Z</time>
      </trkpt>
      <trkpt lat="48.8467" lon="2.37731">
        <ele>100.6</ele>
        <time>2015-02-23T21:20:05.164Z</time>
      </trkpt>
      <trkpt lat="48.84672" lon="2.37724">
        <ele>100.8</ele>
        <time>2015-02-23T21:20:06.191Z</time>
      </trkpt>
      <trkpt lat="48.84675" lon="2.37718">
        <ele>101</ele>
        <time>2015-02-23T21:20:07.200Z</time>
      </trkpt>
      <trkpt lat="48.84674" lon="2.37707">
        <ele>100.6</ele>
        <time>2015-02-23T21:20:08.630Z</time>
      </trkpt>
      <trkpt lat="48.84671" lon="2.37699">
        <ele>98.7</ele>
        <time>2015-02-23T21:20:09.220Z</time>
      </trkpt>
      <trkpt lat="48.84671" lon="2.37692">
        <ele>97.8</ele>
        <time>2015-02-23T21:20:10.230Z</time>
      </trkpt>
      <trkpt lat="48.84675" lon="2.37686">
        <ele>98.3</ele>
        <time>2015-02-23T21:20:11.229Z</time>
      </trkpt>
      <trkpt lat="48.84678" lon="2.37681">
        <ele>98.7</ele>
        <time>2015-02-23T21:20:12.233Z</time>
      </trkpt>
      <trkpt lat="48.84683" lon="2.37677">
        <ele>99.2</ele>
        <time>2015-02-23T21:20:13.247Z</time>
      </trkpt>
      <trkpt lat="48.84688" lon="2.37673">
        <ele>99.5</ele>
        <time>2015-02-23T21:20:14.157Z</time>
      </trkpt>
      <trkpt lat="48.84693" lon="2.3767">
        <ele>99.8</ele>
        <time>2015-02-23T21:20:15.165Z</time>
      </trkpt>
      <trkpt lat="48.84698" lon="2.37666">
        <ele>100</ele>
        <time>2015-02-23T21:20:16.201Z</time>
      </trkpt>
      <trkpt lat="48.84704" lon="2.37662">
        <ele>100.4</ele>
        <time>2015-02-23T21:20:17.238Z</time>
      </trkpt>
      <trkpt lat="48.84709" lon="2.3766">
        <ele>100.7</ele>
        <time>2015-02-23T21:20:18.949Z</time>
      </trkpt>
      <trkpt lat="48.84713" lon="2.37656">
        <ele>101.1</ele>
        <time>2015-02-23T21:20:19.172Z</time>
      </trkpt>
      <trkpt lat="48.8472" lon="2.37648">
        <ele>102</ele>
        <time>2015-02-23T21:20:21.216Z</time>
      </trkpt>
      <trkpt lat="48.84724" lon="2.37644">
        <ele>102.3</ele>
        <time>2015-02-23T21:20:22.223Z</time>
      </trkpt>
      <trkpt lat="48.84732" lon="2.37641">
        <ele>102.3</ele>
        <time>2015-02-23T21:20:23.148Z</time>
      </trkpt>
      <trkpt lat="48.84739" lon="2.37639">
        <ele>102.6</ele>
        <time>2015-02-23T21:20:24.185Z</time>
      </trkpt>
      <trkpt lat="48.84746" lon="2.37636">
        <ele>102.8</ele>
        <time>2015-02-23T21:20:25.191Z</time>
      </trkpt>
      <trkpt lat="48.84753" lon="2.37633">
        <ele>102.9</ele>
        <time>2015-02-23T21:20:26.203Z</time>
      </trkpt>
      <trkpt lat="48.8476" lon="2.3763">
        <ele>103</ele>
        <time>2015-02-23T21:20:27.210Z</time>
      </trkpt>
      <trkpt lat="48.84767" lon="2.37627">
        <ele>103.1</ele>
        <time>2015-02-23T21:20:28.219Z</time>
      </trkpt>
      <trkpt lat="48.84774" lon="2.37626">
        <ele>103.3</ele>
        <time>2015-02-23T21:20:29.278Z</time>
      </trkpt>
      <trkpt lat="48.84783" lon="2.37624">
        <ele>103.4</ele>
        <time>2015-02-23T21:20:30.198Z</time>
      </trkpt>
      <trkpt lat="48.8479" lon="2.37622">
        <ele>103.5</ele>
        <time>2015-02-23T21:20:31.179Z</time>
      </trkpt>
      <trkpt lat="48.84795" lon="2.37619">
        <ele>103</ele>
        <time>2015-02-23T21:20:32.251Z</time>
      </trkpt>
      <trkpt lat="48.84802" lon="2.37616">
        <ele>102.9</ele>
        <time>2015-02-23T21:20:33.146Z</time>
      </trkpt>
      <trkpt lat="48.84807" lon="2.37613">
        <ele>102.9</ele>
        <time>2015-02-23T21:20:34.146Z</time>
      </trkpt>
      <trkpt lat="48.84812" lon="2.3761">
        <ele>102.7</ele>
        <time>2015-02-23T21:20:35.164Z</time>
      </trkpt>
      <trkpt lat="48.84817" lon="2.37608">
        <ele>102.4</ele>
        <time>2015-02-23T21:20:36.194Z</time>
      </trkpt>
      <trkpt lat="48.84823" lon="2.37605">
        <ele>102.1</ele>
        <time>2015-02-23T21:20:37.195Z</time>
      </trkpt>
      <trkpt lat="48.84828" lon="2.37602">
        <ele>101.9</ele>
        <time>2015-02-23T21:20:38.291Z</time>
      </trkpt>
      <trkpt lat="48.84833" lon="2.37599">
        <ele>101.7</ele>
        <time>2015-02-23T21:20:39.147Z</time>
      </trkpt>
      <trkpt lat="48.84839" lon="2.37596">
        <ele>101.4</ele>
        <time>2015-02-23T21:20:40.152Z</time>
      </trkpt>
      <trkpt lat="48.84845" lon="2.37594">
        <ele>101.2</ele>
        <time>2015-02-23T21:20:41.156Z</time>
      </trkpt>
      <trkpt lat="48.84856" lon="2.3759">
        <ele>100.4</ele>
        <time>2015-02-23T21:20:42.202Z</time>
      </trkpt>
      <trkpt lat="48.84862" lon="2.37585">
        <ele>99.8</ele>
        <time>2015-02-23T21:20:43.327Z</time>
      </trkpt>
      <trkpt lat="48.84867" lon="2.37578">
        <ele>99.2</ele>
        <time>2015-02-23T21:20:44.164Z</time>
      </trkpt>
      <trkpt lat="48.84866" lon="2.37567">
        <ele>98.3</ele>
        <time>2015-02-23T21:20:45.187Z</time>
      </trkpt>
      <trkpt lat="48.84862" lon="2.37555">
        <ele>97.7</ele>
        <time>2015-02-23T21:20:46.223Z</time>
      </trkpt>
      <trkpt lat="48.84858" lon="2.37543">
        <ele>96.8</ele>
        <time>2015-02-23T21:20:47.228Z</time>
      </trkpt>
      <trkpt lat="48.84856" lon="2.37531">
        <ele>96.1</ele>
        <time>2015-02-23T21:20:48.232Z</time>
      </trkpt>
      <trkpt lat="48.84856" lon="2.3752">
        <ele>95.6</ele>
        <time>2015-02-23T21:20:49.245Z</time>
      </trkpt>
      <trkpt lat="48.84856" lon="2.37511">
        <ele>95.1</ele>
        <time>2015-02-23T21:20:50.133Z</time>
      </trkpt>
      <trkpt lat="48.84859" lon="2.37503">
        <ele>95.1</ele>
        <time>2015-02-23T21:20:51.163Z</time>
      </trkpt>
      <trkpt lat="48.84863" lon="2.37497">
        <ele>95.4</ele>
        <time>2015-02-23T21:20:52.179Z</time>
      </trkpt>
      <trkpt lat="48.84863" lon="2.37489">
        <ele>93.9</ele>
        <time>2015-02-23T21:20:53.201Z</time>
      </trkpt>
      <trkpt lat="48.8486" lon="2.37479">
        <ele>91.5</ele>
        <time>2015-02-23T21:20:54.255Z</time>
      </trkpt>
      <trkpt lat="48.84864" lon="2.37473">
        <ele>92</ele>
        <time>2015-02-23T21:20:55.163Z</time>
      </trkpt>
      <trkpt lat="48.84868" lon="2.37467">
        <ele>92.4</ele>
        <time>2015-02-23T21:20:56.177Z</time>
      </trkpt>
      <trkpt lat="48.84871" lon="2.37462">
        <ele>93</ele>
        <time>2015-02-23T21:20:57.258Z</time>
      </trkpt>
      <trkpt lat="48.84876" lon="2.37455">
        <ele>93.3</ele>
        <time>2015-02-23T21:20:58.166Z</time>
      </trkpt>
      <trkpt lat="48.84882" lon="2.37448">
        <ele>93.6</ele>
        <time>2015-02-23T21:20:59.182Z</time>
      </trkpt>
      <trkpt lat="48.84886" lon="2.37441">
        <ele>94</ele>
        <time>2015-02-23T21:21:00.181Z</time>
      </trkpt>
      <trkpt lat="48.8489" lon="2.37435">
        <ele>94.5</ele>
        <time>2015-02-23T21:21:01.195Z</time>
      </trkpt>
      <trkpt lat="48.84895" lon="2.37427">
        <ele>94.8</ele>
        <time>2015-02-23T21:21:02.205Z</time>
      </trkpt>
      <trkpt lat="48.849" lon="2.3742">
        <ele>95.2</ele>
        <time>2015-02-23T21:21:03.259Z</time>
      </trkpt>
      <trkpt lat="48.84904" lon="2.37413">
        <ele>95.8</ele>
        <time>2015-02-23T21:21:04.149Z</time>
      </trkpt>
      <trkpt lat="48.8491" lon="2.37408">
        <ele>96.4</ele>
        <time>2015-02-23T21:21:05.152Z</time>
      </trkpt>
      <trkpt lat="48.84914" lon="2.37404">
        <ele>96.6</ele>
        <time>2015-02-23T21:21:06.186Z</time>
      </trkpt>
      <trkpt lat="48.84919" lon="2.374">
        <ele>96.9</ele>
        <time>2015-02-23T21:21:07.195Z</time>
      </trkpt>
      <trkpt lat="48.84925" lon="2.37396">
        <ele>97.1</ele>
        <time>2015-02-23T21:21:08.210Z</time>
      </trkpt>
      <trkpt lat="48.84928" lon="2.37391">
        <ele>97.2</ele>
        <time>2015-02-23T21:21:09.216Z</time>
      </trkpt>
      <trkpt lat="48.8493" lon="2.37386">
        <ele>97.5</ele>
        <time>2015-02-23T21:21:10.236Z</time>
      </trkpt>
      <trkpt lat="48.84929" lon="2.37377">
        <ele>97.8</ele>
        <time>2015-02-23T21:21:11.141Z</time>
      </trkpt>
      <trkpt lat="48.84928" lon="2.37368">
        <ele>98</ele>
        <time>2015-02-23T21:21:12.185Z</time>
      </trkpt>
      <trkpt lat="48.8493" lon="2.3736">
        <ele>98.2</ele>
        <time>2015-02-23T21:21:13.190Z</time>
      </trkpt>
      <trkpt lat="48.84923" lon="2.37348">
        <ele>95.5</ele>
        <time>2015-02-23T21:21:14.196Z</time>
      </trkpt>
      <trkpt lat="48.84916" lon="2.37334">
        <ele>92.7</ele>
        <time>2015-02-23T21:21:15.200Z</time>
      </trkpt>
      <trkpt lat="48.84893" lon="2.37312">
        <ele>88.2</ele>
        <time>2015-02-23T21:21:16.449Z</time>
      </trkpt>
      <trkpt lat="48.84886" lon="2.373">
        <ele>85.6</ele>
        <time>2015-02-23T21:21:17.170Z</time>
      </trkpt>
      <trkpt lat="48.84882" lon="2.37289">
        <ele>83.8</ele>
        <time>2015-02-23T21:21:18.182Z</time>
      </trkpt>
      <trkpt lat="48.8488" lon="2.3728">
        <ele>82.6</ele>
        <time>2015-02-23T21:21:19.286Z</time>
      </trkpt>
      <trkpt lat="48.84882" lon="2.37273">
        <ele>84.2</ele>
        <time>2015-02-23T21:21:20.133Z</time>
      </trkpt>
      <trkpt lat="48.84884" lon="2.37266">
        <ele>86.1</ele>
        <time>2015-02-23T21:21:21.145Z</time>
      </trkpt>
      <trkpt lat="48.84886" lon="2.3726">
        <ele>88</ele>
        <time>2015-02-23T21:21:22.175Z</time>
      </trkpt>
      <trkpt lat="48.84889" lon="2.37253">
        <ele>89.7</ele>
        <time>2015-02-23T21:21:23.186Z</time>
      </trkpt>
      <trkpt lat="48.84892" lon="2.37247">
        <ele>91.3</ele>
        <time>2015-02-23T21:21:24.193Z</time>
      </trkpt>
      <trkpt lat="48.84897" lon="2.37242">
        <ele>92.4</ele>
        <time>2015-02-23T21:21:25.192Z</time>
      </trkpt>
      <trkpt lat="48.84898" lon="2.37234">
        <ele>94.2</ele>
        <time>2015-02-23T21:21:26.206Z</time>
      </trkpt>
      <trkpt lat="48.84901" lon="2.37226">
        <ele>95.8</ele>
        <time>2015-02-23T21:21:27.210Z</time>
      </trkpt>
      <trkpt lat="48.84903" lon="2.37218">
        <ele>97.6</ele>
        <time>2015-02-23T21:21:28.227Z</time>
      </trkpt>
      <trkpt lat="48.84904" lon="2.37208">
        <ele>100</ele>
        <time>2015-02-23T21:21:29.153Z</time>
      </trkpt>
      <trkpt lat="48.84905" lon="2.37199">
        <ele>101.7</ele>
        <time>2015-02-23T21:21:30.205Z</time>
      </trkpt>
      <trkpt lat="48.84906" lon="2.3719">
        <ele>103.3</ele>
        <time>2015-02-23T21:21:31.194Z</time>
      </trkpt>
      <trkpt lat="48.84906" lon="2.37182">
        <ele>105</ele>
        <time>2015-02-23T21:21:32.206Z</time>
      </trkpt>
      <trkpt lat="48.84911" lon="2.37175">
        <ele>105.6</ele>
        <time>2015-02-23T21:21:33.223Z</time>
      </trkpt>
      <trkpt lat="48.84912" lon="2.37168">
        <ele>106.7</ele>
        <time>2015-02-23T21:21:34.134Z</time>
      </trkpt>
      <trkpt lat="48.84916" lon="2.37159">
        <ele>107.3</ele>
        <time>2015-02-23T21:21:35.142Z</time>
      </trkpt>
      <trkpt lat="48.8492" lon="2.37151">
        <ele>107.7</ele>
        <time>2015-02-23T21:21:36.144Z</time>
      </trkpt>
      <trkpt lat="48.84924" lon="2.37143">
        <ele>108.1</ele>
        <time>2015-02-23T21:21:37.166Z</time>
      </trkpt>
      <trkpt lat="48.84928" lon="2.37135">
        <ele>108.2</ele>
        <time>2015-02-23T21:21:38.195Z</time>
      </trkpt>
      <trkpt lat="48.84932" lon="2.37128">
        <ele>108</ele>
        <time>2015-02-23T21:21:39.203Z</time>
      </trkpt>
      <trkpt lat="48.84937" lon="2.37121">
        <ele>107.4</ele>
        <time>2015-02-23T21:21:40.214Z</time>
      </trkpt>
      <trkpt lat="48.8494" lon="2.37115">
        <ele>106.6</ele>
        <time>2015-02-23T21:21:41.215Z</time>
      </trkpt>
      <trkpt lat="48.84945" lon="2.37107">
        <ele>106.7</ele>
        <time>2015-02-23T21:21:42.231Z</time>
      </trkpt>
      <trkpt lat="48.8495" lon="2.371">
        <ele>107.1</ele>
        <time>2015-02-23T21:21:43.153Z</time>
      </trkpt>
      <trkpt lat="48.84956" lon="2.37092">
        <ele>107.5</ele>
        <time>2015-02-23T21:21:44.190Z</time>
      </trkpt>
      <trkpt lat="48.84962" lon="2.37086">
        <ele>108</ele>
        <time>2015-02-23T21:21:45.145Z</time>
      </trkpt>
      <trkpt lat="48.84967" lon="2.37077">
        <ele>109.8</ele>
        <time>2015-02-23T21:21:46.176Z</time>
      </trkpt>
      <trkpt lat="48.84972" lon="2.37069">
        <ele>110.8</ele>
        <time>2015-02-23T21:21:47.231Z</time>
      </trkpt>
      <trkpt lat="48.84976" lon="2.37064">
        <ele>111.3</ele>
        <time>2015-02-23T21:21:48.237Z</time>
      </trkpt>
      <trkpt lat="48.8498" lon="2.37061">
        <ele>111.7</ele>
        <time>2015-02-23T21:21:49.155Z</time>
      </trkpt>
      <trkpt lat="48.84986" lon="2.37058">
        <ele>111.8</ele>
        <time>2015-02-23T21:21:50.170Z</time>
      </trkpt>
      <trkpt lat="48.84992" lon="2.37056">
        <ele>111.8</ele>
        <time>2015-02-23T21:21:51.132Z</time>
      </trkpt>
      <trkpt lat="48.84998" lon="2.37052">
        <ele>111.9</ele>
        <time>2015-02-23T21:21:52.155Z</time>
      </trkpt>
      <trkpt lat="48.85002" lon="2.3705">
        <ele>111.7</ele>
        <time>2015-02-23T21:21:53.204Z</time>
      </trkpt>
      <trkpt lat="48.8501" lon="2.37047">
        <ele>110.8</ele>
        <time>2015-02-23T21:21:55.204Z</time>
      </trkpt>
      <trkpt lat="48.85015" lon="2.37045">
        <ele>110.6</ele>
        <time>2015-02-23T21:21:56.224Z</time>
      </trkpt>
      <trkpt lat="48.85022" lon="2.37041">
        <ele>110.3</ele>
        <time>2015-02-23T21:21:57.228Z</time>
      </trkpt>
      <trkpt lat="48.85028" lon="2.37037">
        <ele>110.4</ele>
        <time>2015-02-23T21:21:58.586Z</time>
      </trkpt>
      <trkpt lat="48.85033" lon="2.37034">
        <ele>110.5</ele>
        <time>2015-02-23T21:21:59.157Z</time>
      </trkpt>
      <trkpt lat="48.85039" lon="2.37032">
        <ele>111</ele>
        <time>2015-02-23T21:22:00.160Z</time>
      </trkpt>
      <trkpt lat="48.85046" lon="2.37029">
        <ele>111.2</ele>
        <time>2015-02-23T21:22:01.276Z</time>
      </trkpt>
      <trkpt lat="48.85055" lon="2.37026">
        <ele>111.7</ele>
        <time>2015-02-23T21:22:02.184Z</time>
      </trkpt>
      <trkpt lat="48.85062" lon="2.37023">
        <ele>111.7</ele>
        <time>2015-02-23T21:22:03.200Z</time>
      </trkpt>
      <trkpt lat="48.85067" lon="2.37019">
        <ele>111.8</ele>
        <time>2015-02-23T21:22:04.213Z</time>
      </trkpt>
      <trkpt lat="48.85071" lon="2.37014">
        <ele>112.4</ele>
        <time>2015-02-23T21:22:05.153Z</time>
      </trkpt>
      <trkpt lat="48.85078" lon="2.3701">
        <ele>113.1</ele>
        <time>2015-02-23T21:22:06.181Z</time>
      </trkpt>
      <trkpt lat="48.85085" lon="2.37007">
        <ele>114</ele>
        <time>2015-02-23T21:22:07.181Z</time>
      </trkpt>
      <trkpt lat="48.85094" lon="2.37005">
        <ele>114.7</ele>
        <time>2015-02-23T21:22:08.231Z</time>
      </trkpt>
      <trkpt lat="48.851" lon="2.37002">
        <ele>114.7</ele>
        <time>2015-02-23T21:22:09.148Z</time>
      </trkpt>
      <trkpt lat="48.85104" lon="2.36999">
        <ele>114.8</ele>
        <time>2015-02-23T21:22:10.164Z</time>
      </trkpt>
      <trkpt lat="48.8511" lon="2.36996">
        <ele>114.4</ele>
        <time>2015-02-23T21:22:11.181Z</time>
      </trkpt>
      <trkpt lat="48.85118" lon="2.36994">
        <ele>115</ele>
        <time>2015-02-23T21:22:12.216Z</time>
      </trkpt>
      <trkpt lat="48.85126" lon="2.36993">
        <ele>116</ele>
        <time>2015-02-23T21:22:13.220Z</time>
      </trkpt>
      <trkpt lat="48.85135" lon="2.36992">
        <ele>117.1</ele>
        <time>2015-02-23T21:22:14.231Z</time>
      </trkpt>
      <trkpt lat="48.85142" lon="2.3699">
        <ele>117.5</ele>
        <time>2015-02-23T21:22:15.253Z</time>
      </trkpt>
      <trkpt lat="48.8515" lon="2.3699">
        <ele>117.8</ele>
        <time>2015-02-23T21:22:16.169Z</time>
      </trkpt>
      <trkpt lat="48.85155" lon="2.36988">
        <ele>118.1</ele>
        <time>2015-02-23T21:22:17.163Z</time>
      </trkpt>
      <trkpt lat="48.85161" lon="2.36985">
        <ele>118.5</ele>
        <time>2015-02-23T21:22:18.194Z</time>
      </trkpt>
      <trkpt lat="48.85168" lon="2.36983">
        <ele>120.1</ele>
        <time>2015-02-23T21:22:19.201Z</time>
      </trkpt>
      <trkpt lat="48.85175" lon="2.36981">
        <ele>121.5</ele>
        <time>2015-02-23T21:22:20.207Z</time>
      </trkpt>
      <trkpt lat="48.85183" lon="2.36979">
        <ele>122.9</ele>
        <time>2015-02-23T21:22:21.155Z</time>
      </trkpt>
      <trkpt lat="48.85188" lon="2.36975">
        <ele>123.4</ele>
        <time>2015-02-23T21:22:22.157Z</time>
      </trkpt>
      <trkpt lat="48.85196" lon="2.36971">
        <ele>124.9</ele>
        <time>2015-02-23T21:22:24.204Z</time>
      </trkpt>
      <trkpt lat="48.85198" lon="2.36969">
        <ele>126</ele>
        <time>2015-02-23T21:22:25.209Z</time>
      </trkpt>
      <trkpt lat="48.85198" lon="2.36956">
        <ele>124.7</ele>
        <time>2015-02-23T21:22:29.168Z</time>
      </trkpt>
      <trkpt lat="48.85198" lon="2.36954">
        <ele>124</ele>
        <time>2015-02-23T21:22:30.285Z</time>
      </trkpt>
      <trkpt lat="48.85205" lon="2.36946">
        <ele>123.8</ele>
        <time>2015-02-23T21:22:36.226Z</time>
      </trkpt>
      <trkpt lat="48.85206" lon="2.36944">
        <ele>123.4</ele>
        <time>2015-02-23T21:22:37.251Z</time>
      </trkpt>
      <trkpt lat="48.8521" lon="2.36942">
        <ele>123.4</ele>
        <time>2015-02-23T21:22:41.177Z</time>
      </trkpt>
      <trkpt lat="48.85211" lon="2.36942">
        <ele>123.5</ele>
        <time>2015-02-23T21:22:42.219Z</time>
      </trkpt>
      <trkpt lat="48.85211" lon="2.36941">
        <ele>123.8</ele>
        <time>2015-02-23T21:22:57.174Z</time>
      </trkpt>
      <trkpt lat="48.85212" lon="2.36939">
        <ele>128.7</ele>
        <time>2015-02-23T21:22:58.190Z</time>
      </trkpt>
      <trkpt lat="48.8522" lon="2.36934">
        <ele>129.5</ele>
        <time>2015-02-23T21:23:01.153Z</time>
      </trkpt>
      <trkpt lat="48.85222" lon="2.36931">
        <ele>129.8</ele>
        <time>2015-02-23T21:23:02.196Z</time>
      </trkpt>
      <trkpt lat="48.85228" lon="2.36925">
        <ele>130.6</ele>
        <time>2015-02-23T21:23:05.277Z</time>
      </trkpt>
      <trkpt lat="48.85231" lon="2.36925">
        <ele>130.5</ele>
        <time>2015-02-23T21:23:06.295Z</time>
      </trkpt>
      <trkpt lat="48.85238" lon="2.36931">
        <ele>127.7</ele>
        <time>2015-02-23T21:23:08.161Z</time>
      </trkpt>
      <trkpt lat="48.85241" lon="2.36933">
        <ele>126.5</ele>
        <time>2015-02-23T21:23:09.177Z</time>
      </trkpt>
      <trkpt lat="48.85246" lon="2.36939">
        <ele>124.2</ele>
        <time>2015-02-23T21:24:07.182Z</time>
      </trkpt>
      <trkpt lat="48.8527" lon="2.36929">
        <ele>105.2</ele>
        <time>2015-02-23T21:24:08.168Z</time>
      </trkpt>
      <trkpt lat="48.85266" lon="2.36918">
        <ele>102.4</ele>
        <time>2015-02-23T21:24:13.246Z</time>
      </trkpt>
      <trkpt lat="48.85264" lon="2.36915">
        <ele>102.1</ele>
        <time>2015-02-23T21:24:14.168Z</time>
      </trkpt>
      <trkpt lat="48.85263" lon="2.36903">
        <ele>100.8</ele>
        <time>2015-02-23T21:24:17.203Z</time>
      </trkpt>
      <trkpt lat="48.85263" lon="2.36899">
        <ele>100.6</ele>
        <time>2015-02-23T21:24:18.224Z</time>
      </trkpt>
      <trkpt lat="48.85265" lon="2.36886">
        <ele>99.8</ele>
        <time>2015-02-23T21:24:22.193Z</time>
      </trkpt>
      <trkpt lat="48.85265" lon="2.36885">
        <ele>99.8</ele>
        <time>2015-02-23T21:24:23.197Z</time>
      </trkpt>
      <trkpt lat="48.85267" lon="2.36875">
        <ele>99.9</ele>
        <time>2015-02-23T21:24:26.179Z</time>
      </trkpt>
      <trkpt lat="48.85268" lon="2.36872">
        <ele>99.6</ele>
        <time>2015-02-23T21:24:27.220Z</time>
      </trkpt>
      <trkpt lat="48.85268" lon="2.36869">
        <ele>99.2</ele>
        <time>2015-02-23T21:24:31.172Z</time>
      </trkpt>
      <trkpt lat="48.85269" lon="2.36857">
        <ele>98.6</ele>
        <time>2015-02-23T21:24:32.183Z</time>
      </trkpt>
      <trkpt lat="48.85268" lon="2.36845">
        <ele>95.6</ele>
        <time>2015-02-23T21:24:38.223Z</time>
      </trkpt>
      <trkpt lat="48.85268" lon="2.36843">
        <ele>95</ele>
        <time>2015-02-23T21:24:39.238Z</time>
      </trkpt>
      <trkpt lat="48.85266" lon="2.3684">
        <ele>94.8</ele>
        <time>2015-02-23T21:24:53.196Z</time>
      </trkpt>
      <trkpt lat="48.85284" lon="2.36821">
        <ele>87.9</ele>
        <time>2015-02-23T21:24:54.277Z</time>
      </trkpt>
      <trkpt lat="48.85292" lon="2.36818">
        <ele>88.8</ele>
        <time>2015-02-23T21:24:57.201Z</time>
      </trkpt>
      <trkpt lat="48.85295" lon="2.36816">
        <ele>88.9</ele>
        <time>2015-02-23T21:24:58.240Z</time>
      </trkpt>
      <trkpt lat="48.85303" lon="2.36811">
        <ele>88.3</ele>
        <time>2015-02-23T21:25:04.185Z</time>
      </trkpt>
      <trkpt lat="48.85305" lon="2.36812">
        <ele>88.3</ele>
        <time>2015-02-23T21:25:05.155Z</time>
      </trkpt>
      <trkpt lat="48.85312" lon="2.36818">
        <ele>87.5</ele>
        <time>2015-02-23T21:25:09.132Z</time>
      </trkpt>
      <trkpt lat="48.85313" lon="2.36822">
        <ele>87</ele>
        <time>2015-02-23T21:25:10.125Z</time>
      </trkpt>
      <trkpt lat="48.85316" lon="2.3683">
        <ele>85.5</ele>
        <time>2015-02-23T21:26:00.167Z</time>
      </trkpt>
      <trkpt lat="48.85336" lon="2.36799">
        <ele>86</ele>
        <time>2015-02-23T21:26:01.228Z</time>
      </trkpt>
      <trkpt lat="48.85339" lon="2.36791">
        <ele>85.6</ele>
        <time>2015-02-23T21:26:04.150Z</time>
      </trkpt>
      <trkpt lat="48.8534" lon="2.36787">
        <ele>85.7</ele>
        <time>2015-02-23T21:26:05.291Z</time>
      </trkpt>
      <trkpt lat="48.85342" lon="2.36781">
        <ele>85.6</ele>
        <time>2015-02-23T21:26:06.189Z</time>
      </trkpt>
      <trkpt lat="48.85346" lon="2.36775">
        <ele>85.5</ele>
        <time>2015-02-23T21:26:07.194Z</time>
      </trkpt>
      <trkpt lat="48.85349" lon="2.36766">
        <ele>85.7</ele>
        <time>2015-02-23T21:26:09.241Z</time>
      </trkpt>
      <trkpt lat="48.8535" lon="2.36761">
        <ele>85.8</ele>
        <time>2015-02-23T21:26:10.125Z</time>
      </trkpt>
      <trkpt lat="48.85352" lon="2.36752">
        <ele>85.9</ele>
        <time>2015-02-23T21:26:12.231Z</time>
      </trkpt>
      <trkpt lat="48.85353" lon="2.36747">
        <ele>86.1</ele>
        <time>2015-02-23T21:26:13.259Z</time>
      </trkpt>
      <trkpt lat="48.85359" lon="2.36737">
        <ele>86.7</ele>
        <time>2015-02-23T21:26:15.160Z</time>
      </trkpt>
      <trkpt lat="48.85361" lon="2.36732">
        <ele>86.7</ele>
        <time>2015-02-23T21:26:17.279Z</time>
      </trkpt>
      <trkpt lat="48.85363" lon="2.36722">
        <ele>87.2</ele>
        <time>2015-02-23T21:26:20.308Z</time>
      </trkpt>
      <trkpt lat="48.85366" lon="2.36718">
        <ele>87.2</ele>
        <time>2015-02-23T21:26:21.160Z</time>
      </trkpt>
      <trkpt lat="48.85368" lon="2.36705">
        <ele>87.4</ele>
        <time>2015-02-23T21:26:24.235Z</time>
      </trkpt>
      <trkpt lat="48.85368" lon="2.36701">
        <ele>87.4</ele>
        <time>2015-02-23T21:26:25.163Z</time>
      </trkpt>
      <trkpt lat="48.85365" lon="2.3669">
        <ele>87</ele>
        <time>2015-02-23T21:26:27.241Z</time>
      </trkpt>
      <trkpt lat="48.85363" lon="2.36684">
        <ele>86</ele>
        <time>2015-02-23T21:26:28.155Z</time>
      </trkpt>
      <trkpt lat="48.85359" lon="2.36676">
        <ele>84.4</ele>
        <time>2015-02-23T21:26:29.148Z</time>
      </trkpt>
      <trkpt lat="48.85359" lon="2.36669">
        <ele>84.1</ele>
        <time>2015-02-23T21:26:30.176Z</time>
      </trkpt>
      <trkpt lat="48.8536" lon="2.36657">
        <ele>83.4</ele>
        <time>2015-02-23T21:26:32.192Z</time>
      </trkpt>
      <trkpt lat="48.85361" lon="2.36651">
        <ele>83.2</ele>
        <time>2015-02-23T21:26:33.216Z</time>
      </trkpt>
      <trkpt lat="48.85364" lon="2.36639">
        <ele>83.6</ele>
        <time>2015-02-23T21:26:35.235Z</time>
      </trkpt>
      <trkpt lat="48.85368" lon="2.36634">
        <ele>84.2</ele>
        <time>2015-02-23T21:26:36.242Z</time>
      </trkpt>
      <trkpt lat="48.85373" lon="2.36625">
        <ele>84.7</ele>
        <time>2015-02-23T21:26:38.182Z</time>
      </trkpt>
      <trkpt lat="48.85375" lon="2.3662">
        <ele>85</ele>
        <time>2015-02-23T21:26:39.158Z</time>
      </trkpt>
      <trkpt lat="48.85377" lon="2.36609">
        <ele>85.2</ele>
        <time>2015-02-23T21:26:41.209Z</time>
      </trkpt>
      <trkpt lat="48.85378" lon="2.36602">
        <ele>85.5</ele>
        <time>2015-02-23T21:26:42.263Z</time>
      </trkpt>
      <trkpt lat="48.85378" lon="2.36594">
        <ele>85.6</ele>
        <time>2015-02-23T21:26:43.142Z</time>
      </trkpt>
      <trkpt lat="48.85379" lon="2.36586">
        <ele>85.9</ele>
        <time>2015-02-23T21:26:44.255Z</time>
      </trkpt>
      <trkpt lat="48.8538" lon="2.36577">
        <ele>86.2</ele>
        <time>2015-02-23T21:26:45.149Z</time>
      </trkpt>
      <trkpt lat="48.85381" lon="2.36568">
        <ele>86.4</ele>
        <time>2015-02-23T21:26:46.159Z</time>
      </trkpt>
      <trkpt lat="48.85383" lon="2.36561">
        <ele>86.8</ele>
        <time>2015-02-23T21:26:47.340Z</time>
      </trkpt>
      <trkpt lat="48.85385" lon="2.36553">
        <ele>87.8</ele>
        <time>2015-02-23T21:26:48.184Z</time>
      </trkpt>
      <trkpt lat="48.8539" lon="2.36543">
        <ele>89.4</ele>
        <time>2015-02-23T21:26:50.206Z</time>
      </trkpt>
      <trkpt lat="48.85393" lon="2.36537">
        <ele>90.1</ele>
        <time>2015-02-23T21:26:51.221Z</time>
      </trkpt>
      <trkpt lat="48.85397" lon="2.36527">
        <ele>91.5</ele>
        <time>2015-02-23T21:26:53.143Z</time>
      </trkpt>
      <trkpt lat="48.85399" lon="2.36521">
        <ele>92.4</ele>
        <time>2015-02-23T21:26:54.189Z</time>
      </trkpt>
      <trkpt lat="48.85402" lon="2.36509">
        <ele>94.1</ele>
        <time>2015-02-23T21:26:56.218Z</time>
      </trkpt>
      <trkpt lat="48.85402" lon="2.36503">
        <ele>94.9</ele>
        <time>2015-02-23T21:26:57.250Z</time>
      </trkpt>
      <trkpt lat="48.85403" lon="2.36491">
        <ele>96.2</ele>
        <time>2015-02-23T21:26:59.152Z</time>
      </trkpt>
      <trkpt lat="48.85404" lon="2.36486">
        <ele>96.6</ele>
        <time>2015-02-23T21:27:00.192Z</time>
      </trkpt>
      <trkpt lat="48.85401" lon="2.36477">
        <ele>96.5</ele>
        <time>2015-02-23T21:27:02.311Z</time>
      </trkpt>
      <trkpt lat="48.85401" lon="2.36473">
        <ele>96.3</ele>
        <time>2015-02-23T21:27:03.239Z</time>
      </trkpt>
      <trkpt lat="48.85401" lon="2.36462">
        <ele>97</ele>
        <time>2015-02-23T21:27:06.971Z</time>
      </trkpt>
      <trkpt lat="48.85402" lon="2.36457">
        <ele>97.1</ele>
        <time>2015-02-23T21:27:07.988Z</time>
      </trkpt>
      <trkpt lat="48.85407" lon="2.36446">
        <ele>98</ele>
        <time>2015-02-23T21:27:09.889Z</time>
      </trkpt>
      <trkpt lat="48.85409" lon="2.36443">
        <ele>98.6</ele>
        <time>2015-02-23T21:27:10.911Z</time>
      </trkpt>
      <trkpt lat="48.85412" lon="2.36438">
        <ele>99.2</ele>
        <time>2015-02-23T21:27:11.922Z</time>
      </trkpt>
      <trkpt lat="48.85416" lon="2.36433">
        <ele>99.7</ele>
        <time>2015-02-23T21:27:12.925Z</time>
      </trkpt>
      <trkpt lat="48.8542" lon="2.36428">
        <ele>100.1</ele>
        <time>2015-02-23T21:27:13.960Z</time>
      </trkpt>
      <trkpt lat="48.85424" lon="2.36423">
        <ele>100.7</ele>
        <time>2015-02-23T21:27:14.945Z</time>
      </trkpt>
      <trkpt lat="48.85429" lon="2.36413">
        <ele>101.4</ele>
        <time>2015-02-23T21:27:16.952Z</time>
      </trkpt>
      <trkpt lat="48.85432" lon="2.36406">
        <ele>101.6</ele>
        <time>2015-02-23T21:27:17.936Z</time>
      </trkpt>
      <trkpt lat="48.85436" lon="2.36401">
        <ele>101.8</ele>
        <time>2015-02-23T21:27:18.967Z</time>
      </trkpt>
      <trkpt lat="48.85438" lon="2.36395">
        <ele>101.8</ele>
        <time>2015-02-23T21:27:19.981Z</time>
      </trkpt>
      <trkpt lat="48.8544" lon="2.36389">
        <ele>102</ele>
        <time>2015-02-23T21:27:20.989Z</time>
      </trkpt>
      <trkpt lat="48.85443" lon="2.36383">
        <ele>102.2</ele>
        <time>2015-02-23T21:27:21.905Z</time>
      </trkpt>
      <trkpt lat="48.85445" lon="2.36372">
        <ele>102.2</ele>
        <time>2015-02-23T21:27:23.940Z</time>
      </trkpt>
      <trkpt lat="48.85447" lon="2.36366">
        <ele>101.9</ele>
        <time>2015-02-23T21:27:24.947Z</time>
      </trkpt>
      <trkpt lat="48.85451" lon="2.36355">
        <ele>102.5</ele>
        <time>2015-02-23T21:27:27.014Z</time>
      </trkpt>
      <trkpt lat="48.85452" lon="2.36348">
        <ele>103.1</ele>
        <time>2015-02-23T21:27:27.886Z</time>
      </trkpt>
      <trkpt lat="48.85453" lon="2.36336">
        <ele>104.1</ele>
        <time>2015-02-23T21:27:29.957Z</time>
      </trkpt>
      <trkpt lat="48.85455" lon="2.36329">
        <ele>104.5</ele>
        <time>2015-02-23T21:27:30.970Z</time>
      </trkpt>
      <trkpt lat="48.85458" lon="2.36317">
        <ele>105.2</ele>
        <time>2015-02-23T21:27:32.994Z</time>
      </trkpt>
      <trkpt lat="48.85461" lon="2.36313">
        <ele>105.5</ele>
        <time>2015-02-23T21:27:33.926Z</time>
      </trkpt>
      <trkpt lat="48.85465" lon="2.36309">
        <ele>105.8</ele>
        <time>2015-02-23T21:27:34.935Z</time>
      </trkpt>
      <trkpt lat="48.85469" lon="2.36305">
        <ele>106.2</ele>
        <time>2015-02-23T21:27:35.962Z</time>
      </trkpt>
      <trkpt lat="48.85473" lon="2.363">
        <ele>107.1</ele>
        <time>2015-02-23T21:27:36.976Z</time>
      </trkpt>
      <trkpt lat="48.85478" lon="2.36295">
        <ele>107.3</ele>
        <time>2015-02-23T21:27:37.992Z</time>
      </trkpt>
      <trkpt lat="48.85482" lon="2.36285">
        <ele>107.8</ele>
        <time>2015-02-23T21:27:39.908Z</time>
      </trkpt>
      <trkpt lat="48.85483" lon="2.36279">
        <ele>108.1</ele>
        <time>2015-02-23T21:27:40.923Z</time>
      </trkpt>
      <trkpt lat="48.85485" lon="2.36268">
        <ele>108.8</ele>
        <time>2015-02-23T21:27:42.977Z</time>
      </trkpt>
      <trkpt lat="48.85486" lon="2.36262">
        <ele>109</ele>
        <time>2015-02-23T21:27:43.950Z</time>
      </trkpt>
      <trkpt lat="48.85492" lon="2.36255">
        <ele>109.2</ele>
        <time>2015-02-23T21:27:45.122Z</time>
      </trkpt>
      <trkpt lat="48.85495" lon="2.3625">
        <ele>109.4</ele>
        <time>2015-02-23T21:27:46.145Z</time>
      </trkpt>
      <trkpt lat="48.85501" lon="2.36241">
        <ele>109.7</ele>
        <time>2015-02-23T21:27:48.166Z</time>
      </trkpt>
      <trkpt lat="48.85504" lon="2.36237">
        <ele>109.6</ele>
        <time>2015-02-23T21:27:49.228Z</time>
      </trkpt>
      <trkpt lat="48.85506" lon="2.36225">
        <ele>109.8</ele>
        <time>2015-02-23T21:27:52.175Z</time>
      </trkpt>
      <trkpt lat="48.85507" lon="2.3622">
        <ele>109.9</ele>
        <time>2015-02-23T21:27:53.154Z</time>
      </trkpt>
      <trkpt lat="48.85508" lon="2.36209">
        <ele>109.8</ele>
        <time>2015-02-23T21:27:55.185Z</time>
      </trkpt>
      <trkpt lat="48.85509" lon="2.36204">
        <ele>110</ele>
        <time>2015-02-23T21:27:56.192Z</time>
      </trkpt>
      <trkpt lat="48.85511" lon="2.36195">
        <ele>110.4</ele>
        <time>2015-02-23T21:27:58.260Z</time>
      </trkpt>
      <trkpt lat="48.85514" lon="2.3619">
        <ele>110.4</ele>
        <time>2015-02-23T21:27:59.220Z</time>
      </trkpt>
      <trkpt lat="48.85516" lon="2.36181">
        <ele>110.9</ele>
        <time>2015-02-23T21:28:01.183Z</time>
      </trkpt>
      <trkpt lat="48.85519" lon="2.36176">
        <ele>111</ele>
        <time>2015-02-23T21:28:02.195Z</time>
      </trkpt>
      <trkpt lat="48.85521" lon="2.36165">
        <ele>111.5</ele>
        <time>2015-02-23T21:28:04.171Z</time>
      </trkpt>
      <trkpt lat="48.85522" lon="2.3616">
        <ele>111.7</ele>
        <time>2015-02-23T21:28:05.178Z</time>
      </trkpt>
      <trkpt lat="48.85526" lon="2.36152">
        <ele>112.2</ele>
        <time>2015-02-23T21:28:07.236Z</time>
      </trkpt>
      <trkpt lat="48.85529" lon="2.36148">
        <ele>112.4</ele>
        <time>2015-02-23T21:28:08.160Z</time>
      </trkpt>
      <trkpt lat="48.8553" lon="2.36137">
        <ele>111.9</ele>
        <time>2015-02-23T21:28:10.207Z</time>
      </trkpt>
      <trkpt lat="48.8553" lon="2.36131">
        <ele>111.8</ele>
        <time>2015-02-23T21:28:11.177Z</time>
      </trkpt>
      <trkpt lat="48.85532" lon="2.3612">
        <ele>111.9</ele>
        <time>2015-02-23T21:28:13.211Z</time>
      </trkpt>
      <trkpt lat="48.85534" lon="2.36114">
        <ele>111.7</ele>
        <time>2015-02-23T21:28:14.219Z</time>
      </trkpt>
      <trkpt lat="48.85537" lon="2.36105">
        <ele>111.2</ele>
        <time>2015-02-23T21:28:16.190Z</time>
      </trkpt>
      <trkpt lat="48.85538" lon="2.361">
        <ele>110.9</ele>
        <time>2015-02-23T21:28:17.274Z</time>
      </trkpt>
      <trkpt lat="48.85539" lon="2.36088">
        <ele>110.6</ele>
        <time>2015-02-23T21:28:19.235Z</time>
      </trkpt>
      <trkpt lat="48.8554" lon="2.36081">
        <ele>110.7</ele>
        <time>2015-02-23T21:28:20.241Z</time>
      </trkpt>
      <trkpt lat="48.85543" lon="2.36069">
        <ele>110.8</ele>
        <time>2015-02-23T21:28:22.169Z</time>
      </trkpt>
      <trkpt lat="48.85545" lon="2.36062">
        <ele>111.1</ele>
        <time>2015-02-23T21:28:23.195Z</time>
      </trkpt>
      <trkpt lat="48.85548" lon="2.3605">
        <ele>111.8</ele>
        <time>2015-02-23T21:28:25.249Z</time>
      </trkpt>
      <trkpt lat="48.85551" lon="2.36044">
        <ele>111.9</ele>
        <time>2015-02-23T21:28:26.160Z</time>
      </trkpt>
      <trkpt lat="48.85557" lon="2.36035">
        <ele>111.9</ele>
        <time>2015-02-23T21:28:28.231Z</time>
      </trkpt>
      <trkpt lat="48.85561" lon="2.36032">
        <ele>112.1</ele>
        <time>2015-02-23T21:28:29.122Z</time>
      </trkpt>
      <trkpt lat="48.85566" lon="2.36028">
        <ele>112.7</ele>
        <time>2015-02-23T21:28:30.127Z</time>
      </trkpt>
      <trkpt lat="48.8557" lon="2.36023">
        <ele>113.4</ele>
        <time>2015-02-23T21:28:31.244Z</time>
      </trkpt>
      <trkpt lat="48.85574" lon="2.36018">
        <ele>113.9</ele>
        <time>2015-02-23T21:28:32.197Z</time>
      </trkpt>
      <trkpt lat="48.85575" lon="2.36011">
        <ele>113.9</ele>
        <time>2015-02-23T21:28:33.211Z</time>
      </trkpt>
      <trkpt lat="48.85572" lon="2.36003">
        <ele>112.7</ele>
        <time>2015-02-23T21:28:34.214Z</time>
      </trkpt>
      <trkpt lat="48.85569" lon="2.35996">
        <ele>111.6</ele>
        <time>2015-02-23T21:28:35.230Z</time>
      </trkpt>
      <trkpt lat="48.85572" lon="2.35988">
        <ele>111.7</ele>
        <time>2015-02-23T21:28:36.142Z</time>
      </trkpt>
      <trkpt lat="48.85574" lon="2.3598">
        <ele>112.2</ele>
        <time>2015-02-23T21:28:37.169Z</time>
      </trkpt>
      <trkpt lat="48.85577" lon="2.35973">
        <ele>112.4</ele>
        <time>2015-02-23T21:28:38.178Z</time>
      </trkpt>
      <trkpt lat="48.8558" lon="2.35967">
        <ele>112.5</ele>
        <time>2015-02-23T21:28:39.188Z</time>
      </trkpt>
      <trkpt lat="48.85583" lon="2.35959">
        <ele>112.8</ele>
        <time>2015-02-23T21:28:40.215Z</time>
      </trkpt>
      <trkpt lat="48.85587" lon="2.3595">
        <ele>113.1</ele>
        <time>2015-02-23T21:28:41.233Z</time>
      </trkpt>
      <trkpt lat="48.85591" lon="2.35941">
        <ele>113.2</ele>
        <time>2015-02-23T21:28:42.177Z</time>
      </trkpt>
      <trkpt lat="48.85595" lon="2.35932">
        <ele>113.8</ele>
        <time>2015-02-23T21:28:43.283Z</time>
      </trkpt>
      <trkpt lat="48.856" lon="2.35924">
        <ele>114.3</ele>
        <time>2015-02-23T21:28:44.135Z</time>
      </trkpt>
      <trkpt lat="48.85605" lon="2.35915">
        <ele>114.7</ele>
        <time>2015-02-23T21:28:45.149Z</time>
      </trkpt>
      <trkpt lat="48.85608" lon="2.35906">
        <ele>115.5</ele>
        <time>2015-02-23T21:28:46.254Z</time>
      </trkpt>
      <trkpt lat="48.85613" lon="2.35896">
        <ele>115.8</ele>
        <time>2015-02-23T21:28:47.162Z</time>
      </trkpt>
      <trkpt lat="48.85616" lon="2.35885">
        <ele>116.3</ele>
        <time>2015-02-23T21:28:48.151Z</time>
      </trkpt>
      <trkpt lat="48.85619" lon="2.35875">
        <ele>117.1</ele>
        <time>2015-02-23T21:28:49.205Z</time>
      </trkpt>
      <trkpt lat="48.85621" lon="2.35865">
        <ele>117.5</ele>
        <time>2015-02-23T21:28:50.200Z</time>
      </trkpt>
      <trkpt lat="48.85624" lon="2.35857">
        <ele>117.7</ele>
        <time>2015-02-23T21:28:51.302Z</time>
      </trkpt>
      <trkpt lat="48.85627" lon="2.35848">
        <ele>117.7</ele>
        <time>2015-02-23T21:28:52.162Z</time>
      </trkpt>
      <trkpt lat="48.85628" lon="2.3584">
        <ele>117.9</ele>
        <time>2015-02-23T21:28:53.175Z</time>
      </trkpt>
      <trkpt lat="48.8563" lon="2.35833">
        <ele>118</ele>
        <time>2015-02-23T21:28:54.180Z</time>
      </trkpt>
      <trkpt lat="48.85632" lon="2.35826">
        <ele>117.9</ele>
        <time>2015-02-23T21:28:55.190Z</time>
      </trkpt>
      <trkpt lat="48.85636" lon="2.35821">
        <ele>117.4</ele>
        <time>2015-02-23T21:28:56.199Z</time>
      </trkpt>
      <trkpt lat="48.85639" lon="2.35814">
        <ele>116.7</ele>
        <time>2015-02-23T21:28:57.214Z</time>
      </trkpt>
      <trkpt lat="48.85643" lon="2.35807">
        <ele>116.1</ele>
        <time>2015-02-23T21:28:58.237Z</time>
      </trkpt>
      <trkpt lat="48.85648" lon="2.35798">
        <ele>115.8</ele>
        <time>2015-02-23T21:28:59.146Z</time>
      </trkpt>
      <trkpt lat="48.85651" lon="2.3579">
        <ele>115.7</ele>
        <time>2015-02-23T21:29:00.199Z</time>
      </trkpt>
      <trkpt lat="48.85654" lon="2.35782">
        <ele>115.9</ele>
        <time>2015-02-23T21:29:01.218Z</time>
      </trkpt>
      <trkpt lat="48.85657" lon="2.35775">
        <ele>116.4</ele>
        <time>2015-02-23T21:29:02.229Z</time>
      </trkpt>
      <trkpt lat="48.85662" lon="2.35767">
        <ele>117.1</ele>
        <time>2015-02-23T21:29:03.234Z</time>
      </trkpt>
      <trkpt lat="48.85665" lon="2.35759">
        <ele>117.3</ele>
        <time>2015-02-23T21:29:04.157Z</time>
      </trkpt>
      <trkpt lat="48.85669" lon="2.3575">
        <ele>117.8</ele>
        <time>2015-02-23T21:29:05.157Z</time>
      </trkpt>
      <trkpt lat="48.85672" lon="2.35741">
        <ele>118.5</ele>
        <time>2015-02-23T21:29:06.212Z</time>
      </trkpt>
      <trkpt lat="48.85677" lon="2.35733">
        <ele>118.8</ele>
        <time>2015-02-23T21:29:07.220Z</time>
      </trkpt>
      <trkpt lat="48.85681" lon="2.35725">
        <ele>118.9</ele>
        <time>2015-02-23T21:29:08.146Z</time>
      </trkpt>
      <trkpt lat="48.85684" lon="2.35719">
        <ele>119.2</ele>
        <time>2015-02-23T21:29:09.142Z</time>
      </trkpt>
      <trkpt lat="48.85687" lon="2.35712">
        <ele>119.2</ele>
        <time>2015-02-23T21:29:10.160Z</time>
      </trkpt>
      <trkpt lat="48.85693" lon="2.35705">
        <ele>118.9</ele>
        <time>2015-02-23T21:29:11.195Z</time>
      </trkpt>
      <trkpt lat="48.85697" lon="2.35698">
        <ele>118.3</ele>
        <time>2015-02-23T21:29:12.215Z</time>
      </trkpt>
      <trkpt lat="48.85702" lon="2.3569">
        <ele>117.9</ele>
        <time>2015-02-23T21:29:13.237Z</time>
      </trkpt>
      <trkpt lat="48.85709" lon="2.35683">
        <ele>117.5</ele>
        <time>2015-02-23T21:29:14.143Z</time>
      </trkpt>
      <trkpt lat="48.85714" lon="2.35675">
        <ele>117.2</ele>
        <time>2015-02-23T21:29:15.145Z</time>
      </trkpt>
      <trkpt lat="48.8572" lon="2.35667">
        <ele>117.1</ele>
        <time>2015-02-23T21:29:16.160Z</time>
      </trkpt>
      <trkpt lat="48.85725" lon="2.35661">
        <ele>116.7</ele>
        <time>2015-02-23T21:29:17.167Z</time>
      </trkpt>
      <trkpt lat="48.85729" lon="2.35655">
        <ele>116.6</ele>
        <time>2015-02-23T21:29:18.155Z</time>
      </trkpt>
      <trkpt lat="48.85732" lon="2.35649">
        <ele>116.7</ele>
        <time>2015-02-23T21:29:19.242Z</time>
      </trkpt>
      <trkpt lat="48.85736" lon="2.35643">
        <ele>116.9</ele>
        <time>2015-02-23T21:29:20.158Z</time>
      </trkpt>
      <trkpt lat="48.8574" lon="2.35636">
        <ele>117</ele>
        <time>2015-02-23T21:29:21.171Z</time>
      </trkpt>
      <trkpt lat="48.85742" lon="2.35628">
        <ele>116</ele>
        <time>2015-02-23T21:29:22.216Z</time>
      </trkpt>
      <trkpt lat="48.85741" lon="2.3562">
        <ele>115.6</ele>
        <time>2015-02-23T21:29:23.233Z</time>
      </trkpt>
      <trkpt lat="48.85739" lon="2.35612">
        <ele>115</ele>
        <time>2015-02-23T21:29:24.146Z</time>
      </trkpt>
      <trkpt lat="48.85738" lon="2.35603">
        <ele>115.6</ele>
        <time>2015-02-23T21:29:25.175Z</time>
      </trkpt>
      <trkpt lat="48.85738" lon="2.35594">
        <ele>116</ele>
        <time>2015-02-23T21:29:26.174Z</time>
      </trkpt>
      <trkpt lat="48.85738" lon="2.35585">
        <ele>116.1</ele>
        <time>2015-02-23T21:29:27.187Z</time>
      </trkpt>
      <trkpt lat="48.85738" lon="2.35575">
        <ele>116.6</ele>
        <time>2015-02-23T21:29:28.213Z</time>
      </trkpt>
      <trkpt lat="48.85738" lon="2.35564">
        <ele>116.9</ele>
        <time>2015-02-23T21:29:29.234Z</time>
      </trkpt>
      <trkpt lat="48.85737" lon="2.35554">
        <ele>117.1</ele>
        <time>2015-02-23T21:29:30.146Z</time>
      </trkpt>
      <trkpt lat="48.85736" lon="2.35543">
        <ele>117</ele>
        <time>2015-02-23T21:29:31.180Z</time>
      </trkpt>
      <trkpt lat="48.85735" lon="2.35533">
        <ele>117</ele>
        <time>2015-02-23T21:29:32.150Z</time>
      </trkpt>
      <trkpt lat="48.85735" lon="2.35524">
        <ele>117.2</ele>
        <time>2015-02-23T21:29:33.151Z</time>
      </trkpt>
      <trkpt lat="48.85737" lon="2.35514">
        <ele>117.2</ele>
        <time>2015-02-23T21:29:34.150Z</time>
      </trkpt>
      <trkpt lat="48.8574" lon="2.35508">
        <ele>117.3</ele>
        <time>2015-02-23T21:29:35.175Z</time>
      </trkpt>
      <trkpt lat="48.85746" lon="2.355">
        <ele>117</ele>
        <time>2015-02-23T21:29:36.198Z</time>
      </trkpt>
      <trkpt lat="48.85748" lon="2.35495">
        <ele>117</ele>
        <time>2015-02-23T21:29:37.268Z</time>
      </trkpt>
      <trkpt lat="48.85751" lon="2.35488">
        <ele>117</ele>
        <time>2015-02-23T21:29:38.239Z</time>
      </trkpt>
      <trkpt lat="48.85752" lon="2.35482">
        <ele>117.2</ele>
        <time>2015-02-23T21:29:39.188Z</time>
      </trkpt>
      <trkpt lat="48.85751" lon="2.35468">
        <ele>117.7</ele>
        <time>2015-02-23T21:29:41.231Z</time>
      </trkpt>
      <trkpt lat="48.85753" lon="2.35461">
        <ele>118</ele>
        <time>2015-02-23T21:29:42.247Z</time>
      </trkpt>
      <trkpt lat="48.85754" lon="2.35454">
        <ele>118.4</ele>
        <time>2015-02-23T21:29:43.166Z</time>
      </trkpt>
      <trkpt lat="48.85756" lon="2.35447">
        <ele>118.6</ele>
        <time>2015-02-23T21:29:44.157Z</time>
      </trkpt>
      <trkpt lat="48.85759" lon="2.35435">
        <ele>118.9</ele>
        <time>2015-02-23T21:29:46.182Z</time>
      </trkpt>
      <trkpt lat="48.85761" lon="2.3543">
        <ele>119.2</ele>
        <time>2015-02-23T21:29:47.150Z</time>
      </trkpt>
      <trkpt lat="48.85762" lon="2.35422">
        <ele>119.5</ele>
        <time>2015-02-23T21:29:48.184Z</time>
      </trkpt>
      <trkpt lat="48.8576" lon="2.35414">
        <ele>119.5</ele>
        <time>2015-02-23T21:29:49.203Z</time>
      </trkpt>
      <trkpt lat="48.85758" lon="2.35406">
        <ele>119.4</ele>
        <time>2015-02-23T21:29:50.126Z</time>
      </trkpt>
      <trkpt lat="48.85758" lon="2.35399">
        <ele>119</ele>
        <time>2015-02-23T21:29:51.144Z</time>
      </trkpt>
      <trkpt lat="48.85759" lon="2.35392">
        <ele>119.3</ele>
        <time>2015-02-23T21:29:52.162Z</time>
      </trkpt>
      <trkpt lat="48.85762" lon="2.35385">
        <ele>119.8</ele>
        <time>2015-02-23T21:29:53.164Z</time>
      </trkpt>
      <trkpt lat="48.85766" lon="2.35378">
        <ele>120.3</ele>
        <time>2015-02-23T21:29:54.200Z</time>
      </trkpt>
      <trkpt lat="48.85768" lon="2.3537">
        <ele>120.6</ele>
        <time>2015-02-23T21:29:55.230Z</time>
      </trkpt>
      <trkpt lat="48.85768" lon="2.35362">
        <ele>120.7</ele>
        <time>2015-02-23T21:29:56.237Z</time>
      </trkpt>
      <trkpt lat="48.85769" lon="2.35353">
        <ele>120.8</ele>
        <time>2015-02-23T21:29:57.241Z</time>
      </trkpt>
      <trkpt lat="48.85768" lon="2.35344">
        <ele>121.2</ele>
        <time>2015-02-23T21:29:58.169Z</time>
      </trkpt>
      <trkpt lat="48.8577" lon="2.35337">
        <ele>121.7</ele>
        <time>2015-02-23T21:29:59.170Z</time>
      </trkpt>
      <trkpt lat="48.85776" lon="2.35331">
        <ele>122.1</ele>
        <time>2015-02-23T21:30:00.182Z</time>
      </trkpt>
      <trkpt lat="48.85782" lon="2.35325">
        <ele>122.5</ele>
        <time>2015-02-23T21:30:01.211Z</time>
      </trkpt>
      <trkpt lat="48.85787" lon="2.35318">
        <ele>123</ele>
        <time>2015-02-23T21:30:02.225Z</time>
      </trkpt>
      <trkpt lat="48.85793" lon="2.35311">
        <ele>123.4</ele>
        <time>2015-02-23T21:30:03.122Z</time>
      </trkpt>
      <trkpt lat="48.85795" lon="2.35304">
        <ele>123.8</ele>
        <time>2015-02-23T21:30:04.140Z</time>
      </trkpt>
      <trkpt lat="48.858" lon="2.35297">
        <ele>123.9</ele>
        <time>2015-02-23T21:30:05.157Z</time>
      </trkpt>
      <trkpt lat="48.85801" lon="2.35289">
        <ele>123.9</ele>
        <time>2015-02-23T21:30:06.161Z</time>
      </trkpt>
      <trkpt lat="48.85802" lon="2.35281">
        <ele>123.9</ele>
        <time>2015-02-23T21:30:07.175Z</time>
      </trkpt>
      <trkpt lat="48.85801" lon="2.35272">
        <ele>122.6</ele>
        <time>2015-02-23T21:30:08.181Z</time>
      </trkpt>
      <trkpt lat="48.85796" lon="2.35261">
        <ele>120.5</ele>
        <time>2015-02-23T21:30:09.185Z</time>
      </trkpt>
      <trkpt lat="48.85784" lon="2.35249">
        <ele>116.6</ele>
        <time>2015-02-23T21:30:10.197Z</time>
      </trkpt>
      <trkpt lat="48.85768" lon="2.35236">
        <ele>113.4</ele>
        <time>2015-02-23T21:30:11.118Z</time>
      </trkpt>
      <trkpt lat="48.85754" lon="2.35224">
        <ele>110</ele>
        <time>2015-02-23T21:30:12.141Z</time>
      </trkpt>
      <trkpt lat="48.85744" lon="2.35211">
        <ele>107.3</ele>
        <time>2015-02-23T21:30:13.216Z</time>
      </trkpt>
      <trkpt lat="48.85738" lon="2.352">
        <ele>105.6</ele>
        <time>2015-02-23T21:30:14.153Z</time>
      </trkpt>
      <trkpt lat="48.85737" lon="2.35192">
        <ele>105.1</ele>
        <time>2015-02-23T21:30:15.147Z</time>
      </trkpt>
      <trkpt lat="48.85738" lon="2.35185">
        <ele>105.3</ele>
        <time>2015-02-23T21:30:16.161Z</time>
      </trkpt>
      <trkpt lat="48.85739" lon="2.35178">
        <ele>106.2</ele>
        <time>2015-02-23T21:30:17.184Z</time>
      </trkpt>
      <trkpt lat="48.85741" lon="2.35171">
        <ele>107.2</ele>
        <time>2015-02-23T21:30:18.197Z</time>
      </trkpt>
      <trkpt lat="48.85742" lon="2.35162">
        <ele>107.8</ele>
        <time>2015-02-23T21:30:19.207Z</time>
      </trkpt>
      <trkpt lat="48.85742" lon="2.35152">
        <ele>110</ele>
        <time>2015-02-23T21:30:20.218Z</time>
      </trkpt>
      <trkpt lat="48.85744" lon="2.35142">
        <ele>110.8</ele>
        <time>2015-02-23T21:30:21.229Z</time>
      </trkpt>
      <trkpt lat="48.85746" lon="2.35136">
        <ele>111.3</ele>
        <time>2015-02-23T21:30:22.244Z</time>
      </trkpt>
      <trkpt lat="48.8575" lon="2.35133">
        <ele>111.2</ele>
        <time>2015-02-23T21:30:23.154Z</time>
      </trkpt>
      <trkpt lat="48.85757" lon="2.3513">
        <ele>111.1</ele>
        <time>2015-02-23T21:30:24.154Z</time>
      </trkpt>
      <trkpt lat="48.85762" lon="2.35126">
        <ele>111</ele>
        <time>2015-02-23T21:30:25.191Z</time>
      </trkpt>
      <trkpt lat="48.85766" lon="2.35121">
        <ele>111.5</ele>
        <time>2015-02-23T21:30:26.193Z</time>
      </trkpt>
      <trkpt lat="48.85769" lon="2.35116">
        <ele>112.1</ele>
        <time>2015-02-23T21:30:27.213Z</time>
      </trkpt>
      <trkpt lat="48.85774" lon="2.3511">
        <ele>112.4</ele>
        <time>2015-02-23T21:30:28.155Z</time>
      </trkpt>
      <trkpt lat="48.85779" lon="2.35104">
        <ele>112.7</ele>
        <time>2015-02-23T21:30:29.153Z</time>
      </trkpt>
      <trkpt lat="48.85783" lon="2.35098">
        <ele>113.5</ele>
        <time>2015-02-23T21:30:30.180Z</time>
      </trkpt>
      <trkpt lat="48.85789" lon="2.35091">
        <ele>113.8</ele>
        <time>2015-02-23T21:30:31.222Z</time>
      </trkpt>
      <trkpt lat="48.85795" lon="2.35085">
        <ele>114.1</ele>
        <time>2015-02-23T21:30:32.227Z</time>
      </trkpt>
      <trkpt lat="48.85801" lon="2.3508">
        <ele>114</ele>
        <time>2015-02-23T21:30:33.243Z</time>
      </trkpt>
      <trkpt lat="48.85805" lon="2.35076">
        <ele>114.2</ele>
        <time>2015-02-23T21:30:34.139Z</time>
      </trkpt>
      <trkpt lat="48.85808" lon="2.3507">
        <ele>114</ele>
        <time>2015-02-23T21:30:35.161Z</time>
      </trkpt>
      <trkpt lat="48.85813" lon="2.35063">
        <ele>114.1</ele>
        <time>2015-02-23T21:30:36.179Z</time>
      </trkpt>
      <trkpt lat="48.85817" lon="2.35057">
        <ele>114</ele>
        <time>2015-02-23T21:30:37.240Z</time>
      </trkpt>
      <trkpt lat="48.8582" lon="2.35054">
        <ele>114.2</ele>
        <time>2015-02-23T21:30:38.142Z</time>
      </trkpt>
      <trkpt lat="48.85825" lon="2.35049">
        <ele>114.2</ele>
        <time>2015-02-23T21:30:39.145Z</time>
      </trkpt>
      <trkpt lat="48.85829" lon="2.35044">
        <ele>113.7</ele>
        <time>2015-02-23T21:30:40.148Z</time>
      </trkpt>
      <trkpt lat="48.85832" lon="2.35039">
        <ele>113.4</ele>
        <time>2015-02-23T21:30:41.172Z</time>
      </trkpt>
      <trkpt lat="48.85835" lon="2.35033">
        <ele>113.6</ele>
        <time>2015-02-23T21:30:42.181Z</time>
      </trkpt>
      <trkpt lat="48.85841" lon="2.35028">
        <ele>114.1</ele>
        <time>2015-02-23T21:30:43.194Z</time>
      </trkpt>
      <trkpt lat="48.8585" lon="2.35023">
        <ele>114.1</ele>
        <time>2015-02-23T21:30:44.201Z</time>
      </trkpt>
      <trkpt lat="48.85856" lon="2.35019">
        <ele>114</ele>
        <time>2015-02-23T21:30:45.211Z</time>
      </trkpt>
      <trkpt lat="48.8586" lon="2.35014">
        <ele>113.7</ele>
        <time>2015-02-23T21:30:46.210Z</time>
      </trkpt>
      <trkpt lat="48.85863" lon="2.35008">
        <ele>113.3</ele>
        <time>2015-02-23T21:30:47.120Z</time>
      </trkpt>
      <trkpt lat="48.85856" lon="2.34999">
        <ele>111.1</ele>
        <time>2015-02-23T21:30:48.141Z</time>
      </trkpt>
      <trkpt lat="48.85854" lon="2.34991">
        <ele>109.6</ele>
        <time>2015-02-23T21:30:49.193Z</time>
      </trkpt>
      <trkpt lat="48.85851" lon="2.34984">
        <ele>108.1</ele>
        <time>2015-02-23T21:30:50.206Z</time>
      </trkpt>
      <trkpt lat="48.85849" lon="2.34978">
        <ele>107.1</ele>
        <time>2015-02-23T21:30:51.329Z</time>
      </trkpt>
      <trkpt lat="48.85847" lon="2.34971">
        <ele>105.6</ele>
        <time>2015-02-23T21:30:52.150Z</time>
      </trkpt>
      <trkpt lat="48.85845" lon="2.34964">
        <ele>104.4</ele>
        <time>2015-02-23T21:30:53.190Z</time>
      </trkpt>
      <trkpt lat="48.85843" lon="2.34958">
        <ele>103.5</ele>
        <time>2015-02-23T21:30:54.202Z</time>
      </trkpt>
      <trkpt lat="48.85841" lon="2.34951">
        <ele>103</ele>
        <time>2015-02-23T21:30:55.212Z</time>
      </trkpt>
      <trkpt lat="48.85839" lon="2.34944">
        <ele>102.9</ele>
        <time>2015-02-23T21:30:56.220Z</time>
      </trkpt>
      <trkpt lat="48.85841" lon="2.34932">
        <ele>103.7</ele>
        <time>2015-02-23T21:30:58.246Z</time>
      </trkpt>
      <trkpt lat="48.85841" lon="2.34925">
        <ele>104.1</ele>
        <time>2015-02-23T21:30:59.249Z</time>
      </trkpt>
      <trkpt lat="48.85842" lon="2.34918">
        <ele>104.3</ele>
        <time>2015-02-23T21:31:00.174Z</time>
      </trkpt>
      <trkpt lat="48.85844" lon="2.34911">
        <ele>104.3</ele>
        <time>2015-02-23T21:31:01.236Z</time>
      </trkpt>
      <trkpt lat="48.85844" lon="2.34899">
        <ele>103.3</ele>
        <time>2015-02-23T21:31:03.163Z</time>
      </trkpt>
      <trkpt lat="48.85841" lon="2.34893">
        <ele>102</ele>
        <time>2015-02-23T21:31:04.255Z</time>
      </trkpt>
      <trkpt lat="48.85842" lon="2.34887">
        <ele>101.9</ele>
        <time>2015-02-23T21:31:05.178Z</time>
      </trkpt>
      <trkpt lat="48.85842" lon="2.34879">
        <ele>101.9</ele>
        <time>2015-02-23T21:31:06.151Z</time>
      </trkpt>
      <trkpt lat="48.85844" lon="2.34868">
        <ele>102.1</ele>
        <time>2015-02-23T21:31:08.212Z</time>
      </trkpt>
      <trkpt lat="48.85844" lon="2.34863">
        <ele>101.3</ele>
        <time>2015-02-23T21:31:09.229Z</time>
      </trkpt>
      <trkpt lat="48.85846" lon="2.34855">
        <ele>100.6</ele>
        <time>2015-02-23T21:31:11.154Z</time>
      </trkpt>
      <trkpt lat="48.85846" lon="2.3485">
        <ele>101.4</ele>
        <time>2015-02-23T21:31:12.170Z</time>
      </trkpt>
      <trkpt lat="48.85848" lon="2.34839">
        <ele>102.3</ele>
        <time>2015-02-23T21:31:14.214Z</time>
      </trkpt>
      <trkpt lat="48.85849" lon="2.34835">
        <ele>102.2</ele>
        <time>2015-02-23T21:31:15.239Z</time>
      </trkpt>
      <trkpt lat="48.85852" lon="2.34828">
        <ele>103.6</ele>
        <time>2015-02-23T21:31:27.210Z</time>
      </trkpt>
      <trkpt lat="48.85854" lon="2.3482">
        <ele>110.6</ele>
        <time>2015-02-23T21:31:28.217Z</time>
      </trkpt>
      <trkpt lat="48.85856" lon="2.34815">
        <ele>111.9</ele>
        <time>2015-02-23T21:31:29.241Z</time>
      </trkpt>
      <trkpt lat="48.85861" lon="2.34809">
        <ele>112.5</ele>
        <time>2015-02-23T21:31:30.263Z</time>
      </trkpt>
      <trkpt lat="48.85868" lon="2.34802">
        <ele>113.5</ele>
        <time>2015-02-23T21:31:32.153Z</time>
      </trkpt>
      <trkpt lat="48.85872" lon="2.34798">
        <ele>113.8</ele>
        <time>2015-02-23T21:31:33.154Z</time>
      </trkpt>
      <trkpt lat="48.85876" lon="2.34793">
        <ele>114.2</ele>
        <time>2015-02-23T21:31:34.200Z</time>
      </trkpt>
      <trkpt lat="48.8588" lon="2.34788">
        <ele>114.5</ele>
        <time>2015-02-23T21:31:35.246Z</time>
      </trkpt>
      <trkpt lat="48.85884" lon="2.34777">
        <ele>115.2</ele>
        <time>2015-02-23T21:31:37.187Z</time>
      </trkpt>
      <trkpt lat="48.85886" lon="2.34772">
        <ele>115.4</ele>
        <time>2015-02-23T21:31:38.191Z</time>
      </trkpt>
      <trkpt lat="48.8589" lon="2.34762">
        <ele>116.1</ele>
        <time>2015-02-23T21:31:40.157Z</time>
      </trkpt>
      <trkpt lat="48.85892" lon="2.34758">
        <ele>116.3</ele>
        <time>2015-02-23T21:31:41.188Z</time>
      </trkpt>
      <trkpt lat="48.85893" lon="2.34745">
        <ele>117.8</ele>
        <time>2015-02-23T21:31:44.231Z</time>
      </trkpt>
      <trkpt lat="48.85895" lon="2.34743">
        <ele>118</ele>
        <time>2015-02-23T21:31:45.158Z</time>
      </trkpt>
      <trkpt lat="48.859" lon="2.34737">
        <ele>118.1</ele>
        <time>2015-02-23T21:31:50.208Z</time>
      </trkpt>
      <trkpt lat="48.85906" lon="2.34734">
        <ele>117.7</ele>
        <time>2015-02-23T21:31:51.225Z</time>
      </trkpt>
      <trkpt lat="48.8591" lon="2.34727">
        <ele>116.4</ele>
        <time>2015-02-23T21:31:55.202Z</time>
      </trkpt>
      <trkpt lat="48.85913" lon="2.34724">
        <ele>116.5</ele>
        <time>2015-02-23T21:31:56.205Z</time>
      </trkpt>
      <trkpt lat="48.85918" lon="2.3472">
        <ele>116.8</ele>
        <time>2015-02-23T21:31:58.150Z</time>
      </trkpt>
      <trkpt lat="48.85923" lon="2.34719">
        <ele>116.5</ele>
        <time>2015-02-23T21:31:59.169Z</time>
      </trkpt>
      <trkpt lat="48.85928" lon="2.34717">
        <ele>116.4</ele>
        <time>2015-02-23T21:32:00.181Z</time>
      </trkpt>
      <trkpt lat="48.85933" lon="2.34717">
        <ele>117</ele>
        <time>2015-02-23T21:32:01.191Z</time>
      </trkpt>
      <trkpt lat="48.8594" lon="2.34715">
        <ele>117.9</ele>
        <time>2015-02-23T21:32:03.216Z</time>
      </trkpt>
      <trkpt lat="48.85942" lon="2.34714">
        <ele>118.4</ele>
        <time>2015-02-23T21:32:04.224Z</time>
      </trkpt>
    </trkseg>
  </trk>
  <trk>
    <name><![CDATA[16/02/2015 20:20]]></name>
    <extensions>
      <line xmlns="http://www.topografix.com/GPX/gpx_style/0/2">
        <color>000000</color>
      </line>
    </extensions>
    <trkseg>
      <trkpt lat="48.85738" lon="2.34736">
        <ele>92.3</ele>
        <time>2015-02-16T19:20:30.309Z</time>
      </trkpt>
      <trkpt lat="48.85745" lon="2.34743">
        <ele>91.3</ele>
        <time>2015-02-16T19:20:50.595Z</time>
      </trkpt>
      <trkpt lat="48.85748" lon="2.34744">
        <ele>91.4</ele>
        <time>2015-02-16T19:20:51.603Z</time>
      </trkpt>
      <trkpt lat="48.85755" lon="2.34748">
        <ele>91.5</ele>
        <time>2015-02-16T19:20:56.114Z</time>
      </trkpt>
      <trkpt lat="48.85756" lon="2.3475">
        <ele>91.4</ele>
        <time>2015-02-16T19:20:56.717Z</time>
      </trkpt>
      <trkpt lat="48.85759" lon="2.34757">
        <ele>91.4</ele>
        <time>2015-02-16T19:21:04.621Z</time>
      </trkpt>
      <trkpt lat="48.85759" lon="2.34757">
        <ele>91.4</ele>
        <time>2015-02-16T19:21:05.671Z</time>
      </trkpt>
      <trkpt lat="48.8576" lon="2.34757">
        <ele>91.1</ele>
        <time>2015-02-16T19:21:09.709Z</time>
      </trkpt>
      <trkpt lat="48.85761" lon="2.34759">
        <ele>91</ele>
        <time>2015-02-16T19:21:10.715Z</time>
      </trkpt>
      <trkpt lat="48.85763" lon="2.3477">
        <ele>91.2</ele>
        <time>2015-02-16T19:21:15.650Z</time>
      </trkpt>
      <trkpt lat="48.85765" lon="2.34774">
        <ele>90.4</ele>
        <time>2015-02-16T19:21:16.646Z</time>
      </trkpt>
      <trkpt lat="48.85769" lon="2.34785">
        <ele>89.9</ele>
        <time>2015-02-16T19:21:21.684Z</time>
      </trkpt>
      <trkpt lat="48.8577" lon="2.34786">
        <ele>89.9</ele>
        <time>2015-02-16T19:21:22.648Z</time>
      </trkpt>
      <trkpt lat="48.85779" lon="2.3479">
        <ele>89.6</ele>
        <time>2015-02-16T19:21:37.668Z</time>
      </trkpt>
      <trkpt lat="48.85782" lon="2.34791">
        <ele>89.7</ele>
        <time>2015-02-16T19:21:38.699Z</time>
      </trkpt>
      <trkpt lat="48.85788" lon="2.34794">
        <ele>90</ele>
        <time>2015-02-16T19:21:40.616Z</time>
      </trkpt>
      <trkpt lat="48.85791" lon="2.34795">
        <ele>90</ele>
        <time>2015-02-16T19:21:41.673Z</time>
      </trkpt>
      <trkpt lat="48.85798" lon="2.34799">
        <ele>90.4</ele>
        <time>2015-02-16T19:21:43.725Z</time>
      </trkpt>
      <trkpt lat="48.85801" lon="2.34801">
        <ele>90.7</ele>
        <time>2015-02-16T19:21:44.672Z</time>
      </trkpt>
      <trkpt lat="48.85807" lon="2.34804">
        <ele>91.2</ele>
        <time>2015-02-16T19:21:46.639Z</time>
      </trkpt>
      <trkpt lat="48.8581" lon="2.34807">
        <ele>91.2</ele>
        <time>2015-02-16T19:21:47.677Z</time>
      </trkpt>
      <trkpt lat="48.85817" lon="2.34811">
        <ele>91.4</ele>
        <time>2015-02-16T19:21:50.732Z</time>
      </trkpt>
      <trkpt lat="48.8582" lon="2.34812">
        <ele>91.3</ele>
        <time>2015-02-16T19:21:51.600Z</time>
      </trkpt>
      <trkpt lat="48.85826" lon="2.34815">
        <ele>91.4</ele>
        <time>2015-02-16T19:21:54.721Z</time>
      </trkpt>
      <trkpt lat="48.85829" lon="2.34816">
        <ele>91.5</ele>
        <time>2015-02-16T19:21:55.708Z</time>
      </trkpt>
      <trkpt lat="48.85836" lon="2.34819">
        <ele>91.6</ele>
        <time>2015-02-16T19:21:58.698Z</time>
      </trkpt>
      <trkpt lat="48.85839" lon="2.3482">
        <ele>91.6</ele>
        <time>2015-02-16T19:21:59.706Z</time>
      </trkpt>
      <trkpt lat="48.85847" lon="2.34821">
        <ele>91.3</ele>
        <time>2015-02-16T19:22:01.671Z</time>
      </trkpt>
      <trkpt lat="48.8585" lon="2.34822">
        <ele>91.4</ele>
        <time>2015-02-16T19:22:02.725Z</time>
      </trkpt>
      <trkpt lat="48.85857" lon="2.34825">
        <ele>91.4</ele>
        <time>2015-02-16T19:22:04.671Z</time>
      </trkpt>
      <trkpt lat="48.8586" lon="2.34827">
        <ele>91.5</ele>
        <time>2015-02-16T19:22:05.734Z</time>
      </trkpt>
      <trkpt lat="48.85866" lon="2.34831">
        <ele>91.7</ele>
        <time>2015-02-16T19:22:07.646Z</time>
      </trkpt>
      <trkpt lat="48.85869" lon="2.34833">
        <ele>91.8</ele>
        <time>2015-02-16T19:22:08.676Z</time>
      </trkpt>
      <trkpt lat="48.85876" lon="2.34838">
        <ele>92.1</ele>
        <time>2015-02-16T19:22:10.619Z</time>
      </trkpt>
      <trkpt lat="48.85879" lon="2.34841">
        <ele>92.2</ele>
        <time>2015-02-16T19:22:11.638Z</time>
      </trkpt>
      <trkpt lat="48.85876" lon="2.34848">
        <ele>92.9</ele>
        <time>2015-02-16T19:22:14.649Z</time>
      </trkpt>
      <trkpt lat="48.85874" lon="2.34853">
        <ele>93.2</ele>
        <time>2015-02-16T19:22:15.666Z</time>
      </trkpt>
      <trkpt lat="48.8587" lon="2.34862">
        <ele>93.3</ele>
        <time>2015-02-16T19:22:17.688Z</time>
      </trkpt>
      <trkpt lat="48.85868" lon="2.34865">
        <ele>93.3</ele>
        <time>2015-02-16T19:22:18.612Z</time>
      </trkpt>
      <trkpt lat="48.85863" lon="2.3487">
        <ele>93.3</ele>
        <time>2015-02-16T19:22:20.632Z</time>
      </trkpt>
      <trkpt lat="48.8586" lon="2.34872">
        <ele>93.2</ele>
        <time>2015-02-16T19:22:21.677Z</time>
      </trkpt>
      <trkpt lat="48.85855" lon="2.34877">
        <ele>93</ele>
        <time>2015-02-16T19:22:23.586Z</time>
      </trkpt>
      <trkpt lat="48.85851" lon="2.34879">
        <ele>92.9</ele>
        <time>2015-02-16T19:22:24.602Z</time>
      </trkpt>
      <trkpt lat="48.85843" lon="2.34885">
        <ele>92.3</ele>
        <time>2015-02-16T19:22:26.619Z</time>
      </trkpt>
      <trkpt lat="48.85839" lon="2.34888">
        <ele>92.1</ele>
        <time>2015-02-16T19:22:27.636Z</time>
      </trkpt>
      <trkpt lat="48.85835" lon="2.34898">
        <ele>92</ele>
        <time>2015-02-16T19:22:29.660Z</time>
      </trkpt>
      <trkpt lat="48.85835" lon="2.34903">
        <ele>92.2</ele>
        <time>2015-02-16T19:22:30.612Z</time>
      </trkpt>
      <trkpt lat="48.8583" lon="2.34911">
        <ele>92.4</ele>
        <time>2015-02-16T19:22:32.661Z</time>
      </trkpt>
      <trkpt lat="48.85828" lon="2.34916">
        <ele>92.5</ele>
        <time>2015-02-16T19:22:33.671Z</time>
      </trkpt>
      <trkpt lat="48.85821" lon="2.3492">
        <ele>92.6</ele>
        <time>2015-02-16T19:22:35.590Z</time>
      </trkpt>
      <trkpt lat="48.85818" lon="2.34921">
        <ele>92.8</ele>
        <time>2015-02-16T19:22:36.592Z</time>
      </trkpt>
      <trkpt lat="48.85809" lon="2.34926">
        <ele>93.1</ele>
        <time>2015-02-16T19:22:38.663Z</time>
      </trkpt>
      <trkpt lat="48.85806" lon="2.34928">
        <ele>93.4</ele>
        <time>2015-02-16T19:22:39.674Z</time>
      </trkpt>
      <trkpt lat="48.85799" lon="2.34931">
        <ele>94</ele>
        <time>2015-02-16T19:22:41.610Z</time>
      </trkpt>
      <trkpt lat="48.85796" lon="2.34933">
        <ele>94.3</ele>
        <time>2015-02-16T19:22:42.773Z</time>
      </trkpt>
      <trkpt lat="48.85789" lon="2.34941">
        <ele>95.2</ele>
        <time>2015-02-16T19:22:45.623Z</time>
      </trkpt>
      <trkpt lat="48.85786" lon="2.34945">
        <ele>95.6</ele>
        <time>2015-02-16T19:22:46.634Z</time>
      </trkpt>
      <trkpt lat="48.85784" lon="2.3495">
        <ele>95.9</ele>
        <time>2015-02-16T19:22:47.638Z</time>
      </trkpt>
      <trkpt lat="48.85826" lon="2.35179">
        <ele>92</ele>
        <time>2015-02-16T19:23:57.643Z</time>
      </trkpt>
      <trkpt lat="48.85824" lon="2.3519">
        <ele>91.7</ele>
        <time>2015-02-16T19:24:01.628Z</time>
      </trkpt>
      <trkpt lat="48.85823" lon="2.35194">
        <ele>91.7</ele>
        <time>2015-02-16T19:24:02.634Z</time>
      </trkpt>
      <trkpt lat="48.85818" lon="2.35204">
        <ele>91.8</ele>
        <time>2015-02-16T19:24:05.557Z</time>
      </trkpt>
      <trkpt lat="48.85814" lon="2.35207">
        <ele>91.6</ele>
        <time>2015-02-16T19:24:06.578Z</time>
      </trkpt>
      <trkpt lat="48.85809" lon="2.35211">
        <ele>91.2</ele>
        <time>2015-02-16T19:24:07.619Z</time>
      </trkpt>
      <trkpt lat="48.85804" lon="2.35213">
        <ele>91.5</ele>
        <time>2015-02-16T19:24:08.641Z</time>
      </trkpt>
      <trkpt lat="48.85758" lon="2.35256">
        <ele>95</ele>
        <time>2015-02-16T19:24:22.637Z</time>
      </trkpt>
      <trkpt lat="48.85758" lon="2.35258">
        <ele>95</ele>
        <time>2015-02-16T19:24:23.673Z</time>
      </trkpt>
      <trkpt lat="48.85763" lon="2.35267">
        <ele>94.5</ele>
        <time>2015-02-16T19:24:24.580Z</time>
      </trkpt>
      <trkpt lat="48.85769" lon="2.35276">
        <ele>93.1</ele>
        <time>2015-02-16T19:24:27.580Z</time>
      </trkpt>
      <trkpt lat="48.85771" lon="2.35276">
        <ele>92.1</ele>
        <time>2015-02-16T19:24:28.655Z</time>
      </trkpt>
      <trkpt lat="48.85778" lon="2.35277">
        <ele>90.2</ele>
        <time>2015-02-16T19:24:30.571Z</time>
      </trkpt>
      <trkpt lat="48.85781" lon="2.3528">
        <ele>88.9</ele>
        <time>2015-02-16T19:24:31.609Z</time>
      </trkpt>
      <trkpt lat="48.85787" lon="2.35285">
        <ele>86.4</ele>
        <time>2015-02-16T19:24:34.575Z</time>
      </trkpt>
      <trkpt lat="48.8579" lon="2.35288">
        <ele>86.4</ele>
        <time>2015-02-16T19:24:35.586Z</time>
      </trkpt>
      <trkpt lat="48.85796" lon="2.35293">
        <ele>82.3</ele>
        <time>2015-02-16T19:24:37.642Z</time>
      </trkpt>
      <trkpt lat="48.85799" lon="2.35297">
        <ele>79.9</ele>
        <time>2015-02-16T19:24:38.563Z</time>
      </trkpt>
      <trkpt lat="48.85807" lon="2.35301">
        <ele>74.9</ele>
        <time>2015-02-16T19:24:40.586Z</time>
      </trkpt>
      <trkpt lat="48.85811" lon="2.35302">
        <ele>72.3</ele>
        <time>2015-02-16T19:24:41.600Z</time>
      </trkpt>
      <trkpt lat="48.85817" lon="2.35303">
        <ele>77.6</ele>
        <time>2015-02-16T19:24:44.649Z</time>
      </trkpt>
      <trkpt lat="48.8582" lon="2.35304">
        <ele>77.6</ele>
        <time>2015-02-16T19:24:45.659Z</time>
      </trkpt>
      <trkpt lat="48.85826" lon="2.3531">
        <ele>76.2</ele>
        <time>2015-02-16T19:24:47.605Z</time>
      </trkpt>
      <trkpt lat="48.85829" lon="2.35312">
        <ele>76.1</ele>
        <time>2015-02-16T19:24:48.606Z</time>
      </trkpt>
      <trkpt lat="48.85833" lon="2.35315">
        <ele>75.1</ele>
        <time>2015-02-16T19:24:50.093Z</time>
      </trkpt>
      <trkpt lat="48.85837" lon="2.35319">
        <ele>74.4</ele>
        <time>2015-02-16T19:24:50.597Z</time>
      </trkpt>
      <trkpt lat="48.85846" lon="2.35328">
        <ele>73.3</ele>
        <time>2015-02-16T19:24:52.580Z</time>
      </trkpt>
      <trkpt lat="48.8586" lon="2.35344">
        <ele>71.5</ele>
        <time>2015-02-16T19:24:55.619Z</time>
      </trkpt>
      <trkpt lat="48.85865" lon="2.3535">
        <ele>71</ele>
        <time>2015-02-16T19:24:57.352Z</time>
      </trkpt>
      <trkpt lat="48.85876" lon="2.35358">
        <ele>71.2</ele>
        <time>2015-02-16T19:24:58.634Z</time>
      </trkpt>
      <trkpt lat="48.85886" lon="2.35365">
        <ele>70.9</ele>
        <time>2015-02-16T19:25:00.603Z</time>
      </trkpt>
      <trkpt lat="48.85891" lon="2.35368">
        <ele>70.5</ele>
        <time>2015-02-16T19:25:01.635Z</time>
      </trkpt>
      <trkpt lat="48.85894" lon="2.35371">
        <ele>70.3</ele>
        <time>2015-02-16T19:25:02.626Z</time>
      </trkpt>
      <trkpt lat="48.85899" lon="2.35373">
        <ele>70.2</ele>
        <time>2015-02-16T19:25:03.643Z</time>
      </trkpt>
      <trkpt lat="48.85904" lon="2.35375">
        <ele>70.1</ele>
        <time>2015-02-16T19:25:04.651Z</time>
      </trkpt>
      <trkpt lat="48.85909" lon="2.35379">
        <ele>70.6</ele>
        <time>2015-02-16T19:25:05.598Z</time>
      </trkpt>
      <trkpt lat="48.85914" lon="2.35382">
        <ele>71</ele>
        <time>2015-02-16T19:25:06.613Z</time>
      </trkpt>
      <trkpt lat="48.85918" lon="2.35387">
        <ele>71.2</ele>
        <time>2015-02-16T19:25:07.617Z</time>
      </trkpt>
      <trkpt lat="48.85923" lon="2.35391">
        <ele>70.8</ele>
        <time>2015-02-16T19:25:08.660Z</time>
      </trkpt>
      <trkpt lat="48.85927" lon="2.35395">
        <ele>70.2</ele>
        <time>2015-02-16T19:25:10.490Z</time>
      </trkpt>
      <trkpt lat="48.85932" lon="2.35398">
        <ele>70.3</ele>
        <time>2015-02-16T19:25:10.569Z</time>
      </trkpt>
      <trkpt lat="48.85937" lon="2.35402">
        <ele>70</ele>
        <time>2015-02-16T19:25:11.581Z</time>
      </trkpt>
      <trkpt lat="48.85942" lon="2.35407">
        <ele>69.3</ele>
        <time>2015-02-16T19:25:12.594Z</time>
      </trkpt>
      <trkpt lat="48.85952" lon="2.3542">
        <ele>64.5</ele>
        <time>2015-02-16T19:25:13.606Z</time>
      </trkpt>
      <trkpt lat="48.85955" lon="2.35424">
        <ele>64.5</ele>
        <time>2015-02-16T19:25:14.626Z</time>
      </trkpt>
      <trkpt lat="48.85961" lon="2.35433">
        <ele>64.7</ele>
        <time>2015-02-16T19:25:16.570Z</time>
      </trkpt>
      <trkpt lat="48.85967" lon="2.3544">
        <ele>65.5</ele>
        <time>2015-02-16T19:25:18.582Z</time>
      </trkpt>
      <trkpt lat="48.85971" lon="2.35443">
        <ele>66.5</ele>
        <time>2015-02-16T19:25:19.724Z</time>
      </trkpt>
      <trkpt lat="48.85978" lon="2.35449">
        <ele>67.3</ele>
        <time>2015-02-16T19:25:21.573Z</time>
      </trkpt>
      <trkpt lat="48.85981" lon="2.35452">
        <ele>67.5</ele>
        <time>2015-02-16T19:25:22.603Z</time>
      </trkpt>
      <trkpt lat="48.85987" lon="2.35462">
        <ele>68.1</ele>
        <time>2015-02-16T19:25:24.618Z</time>
      </trkpt>
      <trkpt lat="48.85991" lon="2.35465">
        <ele>68.6</ele>
        <time>2015-02-16T19:25:25.744Z</time>
      </trkpt>
      <trkpt lat="48.85995" lon="2.35468">
        <ele>68.9</ele>
        <time>2015-02-16T19:25:26.572Z</time>
      </trkpt>
      <trkpt lat="48.85999" lon="2.35472">
        <ele>69.2</ele>
        <time>2015-02-16T19:25:27.579Z</time>
      </trkpt>
      <trkpt lat="48.86005" lon="2.35478">
        <ele>69.1</ele>
        <time>2015-02-16T19:25:30.365Z</time>
      </trkpt>
      <trkpt lat="48.86008" lon="2.35482">
        <ele>69.5</ele>
        <time>2015-02-16T19:25:30.556Z</time>
      </trkpt>
      <trkpt lat="48.86015" lon="2.35489">
        <ele>69.8</ele>
        <time>2015-02-16T19:25:32.634Z</time>
      </trkpt>
      <trkpt lat="48.86019" lon="2.35492">
        <ele>69.7</ele>
        <time>2015-02-16T19:25:33.654Z</time>
      </trkpt>
      <trkpt lat="48.86025" lon="2.35502">
        <ele>70.3</ele>
        <time>2015-02-16T19:25:36.643Z</time>
      </trkpt>
      <trkpt lat="48.86027" lon="2.35505">
        <ele>70.7</ele>
        <time>2015-02-16T19:25:37.727Z</time>
      </trkpt>
      <trkpt lat="48.86086" lon="2.35579">
        <ele>78.3</ele>
        <time>2015-02-16T19:25:53.628Z</time>
      </trkpt>
      <trkpt lat="48.8609" lon="2.35583">
        <ele>78.4</ele>
        <time>2015-02-16T19:25:54.594Z</time>
      </trkpt>
      <trkpt lat="48.86093" lon="2.35588">
        <ele>78.5</ele>
        <time>2015-02-16T19:25:55.594Z</time>
      </trkpt>
      <trkpt lat="48.86097" lon="2.35593">
        <ele>78.5</ele>
        <time>2015-02-16T19:25:56.594Z</time>
      </trkpt>
      <trkpt lat="48.8611" lon="2.35607">
        <ele>75</ele>
        <time>2015-02-16T19:25:58.626Z</time>
      </trkpt>
      <trkpt lat="48.86114" lon="2.35612">
        <ele>74.9</ele>
        <time>2015-02-16T19:25:59.626Z</time>
      </trkpt>
      <trkpt lat="48.86118" lon="2.35617">
        <ele>74.9</ele>
        <time>2015-02-16T19:26:00.646Z</time>
      </trkpt>
      <trkpt lat="48.86121" lon="2.35622">
        <ele>75.2</ele>
        <time>2015-02-16T19:26:01.618Z</time>
      </trkpt>
      <trkpt lat="48.86128" lon="2.35632">
        <ele>75.5</ele>
        <time>2015-02-16T19:26:03.733Z</time>
      </trkpt>
      <trkpt lat="48.86134" lon="2.35641">
        <ele>75.7</ele>
        <time>2015-02-16T19:26:06.056Z</time>
      </trkpt>
      <trkpt lat="48.86138" lon="2.35645">
        <ele>76</ele>
        <time>2015-02-16T19:26:06.776Z</time>
      </trkpt>
      <trkpt lat="48.86143" lon="2.35652">
        <ele>76.2</ele>
        <time>2015-02-16T19:26:08.596Z</time>
      </trkpt>
      <trkpt lat="48.86146" lon="2.35655">
        <ele>76.4</ele>
        <time>2015-02-16T19:26:09.610Z</time>
      </trkpt>
      <trkpt lat="48.86152" lon="2.35662">
        <ele>76.5</ele>
        <time>2015-02-16T19:26:11.632Z</time>
      </trkpt>
      <trkpt lat="48.86155" lon="2.35666">
        <ele>76.7</ele>
        <time>2015-02-16T19:26:12.634Z</time>
      </trkpt>
      <trkpt lat="48.8616" lon="2.35673">
        <ele>77.2</ele>
        <time>2015-02-16T19:26:14.654Z</time>
      </trkpt>
      <trkpt lat="48.86163" lon="2.35676">
        <ele>77.5</ele>
        <time>2015-02-16T19:26:15.670Z</time>
      </trkpt>
      <trkpt lat="48.8617" lon="2.35685">
        <ele>78.7</ele>
        <time>2015-02-16T19:26:17.604Z</time>
      </trkpt>
      <trkpt lat="48.86173" lon="2.35687">
        <ele>78.9</ele>
        <time>2015-02-16T19:26:18.598Z</time>
      </trkpt>
      <trkpt lat="48.86216" lon="2.35727">
        <ele>80.1</ele>
        <time>2015-02-16T19:26:31.635Z</time>
      </trkpt>
      <trkpt lat="48.86223" lon="2.35735">
        <ele>80.3</ele>
        <time>2015-02-16T19:26:33.541Z</time>
      </trkpt>
      <trkpt lat="48.86227" lon="2.35739">
        <ele>80.6</ele>
        <time>2015-02-16T19:26:34.781Z</time>
      </trkpt>
      <trkpt lat="48.86234" lon="2.35746">
        <ele>80.7</ele>
        <time>2015-02-16T19:26:36.602Z</time>
      </trkpt>
      <trkpt lat="48.86238" lon="2.35749">
        <ele>80.6</ele>
        <time>2015-02-16T19:26:37.629Z</time>
      </trkpt>
      <trkpt lat="48.86245" lon="2.35756">
        <ele>79.6</ele>
        <time>2015-02-16T19:26:40.529Z</time>
      </trkpt>
      <trkpt lat="48.86248" lon="2.3576">
        <ele>79.3</ele>
        <time>2015-02-16T19:26:40.550Z</time>
      </trkpt>
      <trkpt lat="48.86252" lon="2.35763">
        <ele>78.7</ele>
        <time>2015-02-16T19:26:41.570Z</time>
      </trkpt>
      <trkpt lat="48.86256" lon="2.35767">
        <ele>78.7</ele>
        <time>2015-02-16T19:26:42.566Z</time>
      </trkpt>
      <trkpt lat="48.86263" lon="2.35773">
        <ele>76.9</ele>
        <time>2015-02-16T19:26:44.633Z</time>
      </trkpt>
      <trkpt lat="48.86267" lon="2.35775">
        <ele>75.3</ele>
        <time>2015-02-16T19:26:45.661Z</time>
      </trkpt>
      <trkpt lat="48.86272" lon="2.35782">
        <ele>72.3</ele>
        <time>2015-02-16T19:26:47.683Z</time>
      </trkpt>
      <trkpt lat="48.86274" lon="2.35786">
        <ele>70.5</ele>
        <time>2015-02-16T19:26:48.601Z</time>
      </trkpt>
      <trkpt lat="48.86282" lon="2.35798">
        <ele>69.4</ele>
        <time>2015-02-16T19:26:51.568Z</time>
      </trkpt>
      <trkpt lat="48.86289" lon="2.35803">
        <ele>67.8</ele>
        <time>2015-02-16T19:26:54.623Z</time>
      </trkpt>
      <trkpt lat="48.86292" lon="2.35803">
        <ele>67.7</ele>
        <time>2015-02-16T19:26:55.641Z</time>
      </trkpt>
      <trkpt lat="48.86298" lon="2.35804">
        <ele>67.2</ele>
        <time>2015-02-16T19:26:58.601Z</time>
      </trkpt>
      <trkpt lat="48.86306" lon="2.35805">
        <ele>72.9</ele>
        <time>2015-02-16T19:26:59.646Z</time>
      </trkpt>
      <trkpt lat="48.86314" lon="2.35809">
        <ele>77.7</ele>
        <time>2015-02-16T19:27:01.611Z</time>
      </trkpt>
      <trkpt lat="48.86318" lon="2.35813">
        <ele>79.6</ele>
        <time>2015-02-16T19:27:02.716Z</time>
      </trkpt>
      <trkpt lat="48.86325" lon="2.35819">
        <ele>80.5</ele>
        <time>2015-02-16T19:27:04.661Z</time>
      </trkpt>
      <trkpt lat="48.86332" lon="2.35826">
        <ele>76.3</ele>
        <time>2015-02-16T19:27:05.698Z</time>
      </trkpt>
      <trkpt lat="48.86338" lon="2.3583">
        <ele>74.8</ele>
        <time>2015-02-16T19:27:06.718Z</time>
      </trkpt>
      <trkpt lat="48.86343" lon="2.35834">
        <ele>73.3</ele>
        <time>2015-02-16T19:27:07.570Z</time>
      </trkpt>
      <trkpt lat="48.86348" lon="2.35837">
        <ele>71.9</ele>
        <time>2015-02-16T19:27:08.680Z</time>
      </trkpt>
      <trkpt lat="48.86353" lon="2.35839">
        <ele>72.6</ele>
        <time>2015-02-16T19:27:09.691Z</time>
      </trkpt>
      <trkpt lat="48.86357" lon="2.35841">
        <ele>72.8</ele>
        <time>2015-02-16T19:27:11.421Z</time>
      </trkpt>
      <trkpt lat="48.86361" lon="2.35843">
        <ele>73.4</ele>
        <time>2015-02-16T19:27:11.556Z</time>
      </trkpt>
      <trkpt lat="48.86365" lon="2.35846">
        <ele>73.4</ele>
        <time>2015-02-16T19:27:12.574Z</time>
      </trkpt>
      <trkpt lat="48.86371" lon="2.35851">
        <ele>71.6</ele>
        <time>2015-02-16T19:27:13.582Z</time>
      </trkpt>
      <trkpt lat="48.86375" lon="2.35856">
        <ele>70.6</ele>
        <time>2015-02-16T19:27:14.602Z</time>
      </trkpt>
      <trkpt lat="48.8638" lon="2.3586">
        <ele>70.2</ele>
        <time>2015-02-16T19:27:15.605Z</time>
      </trkpt>
      <trkpt lat="48.86384" lon="2.35863">
        <ele>70.6</ele>
        <time>2015-02-16T19:27:16.617Z</time>
      </trkpt>
      <trkpt lat="48.86388" lon="2.35866">
        <ele>71.2</ele>
        <time>2015-02-16T19:27:17.629Z</time>
      </trkpt>
      <trkpt lat="48.86392" lon="2.3587">
        <ele>71.7</ele>
        <time>2015-02-16T19:27:18.697Z</time>
      </trkpt>
      <trkpt lat="48.86396" lon="2.35874">
        <ele>72.2</ele>
        <time>2015-02-16T19:27:19.661Z</time>
      </trkpt>
      <trkpt lat="48.86401" lon="2.35878">
        <ele>72.6</ele>
        <time>2015-02-16T19:27:21.585Z</time>
      </trkpt>
      <trkpt lat="48.86405" lon="2.35884">
        <ele>71.7</ele>
        <time>2015-02-16T19:27:21.608Z</time>
      </trkpt>
      <trkpt lat="48.8641" lon="2.3589">
        <ele>71.7</ele>
        <time>2015-02-16T19:27:22.618Z</time>
      </trkpt>
      <trkpt lat="48.86414" lon="2.35896">
        <ele>71.6</ele>
        <time>2015-02-16T19:27:23.632Z</time>
      </trkpt>
      <trkpt lat="48.86418" lon="2.35904">
        <ele>72.2</ele>
        <time>2015-02-16T19:27:24.669Z</time>
      </trkpt>
      <trkpt lat="48.86421" lon="2.35909">
        <ele>72.7</ele>
        <time>2015-02-16T19:27:25.598Z</time>
      </trkpt>
      <trkpt lat="48.86424" lon="2.35915">
        <ele>72.7</ele>
        <time>2015-02-16T19:27:26.683Z</time>
      </trkpt>
      <trkpt lat="48.86428" lon="2.35919">
        <ele>73</ele>
        <time>2015-02-16T19:27:27.587Z</time>
      </trkpt>
      <trkpt lat="48.86432" lon="2.35923">
        <ele>73.2</ele>
        <time>2015-02-16T19:27:28.586Z</time>
      </trkpt>
      <trkpt lat="48.86435" lon="2.35928">
        <ele>72.8</ele>
        <time>2015-02-16T19:27:29.601Z</time>
      </trkpt>
      <trkpt lat="48.86439" lon="2.35933">
        <ele>72.6</ele>
        <time>2015-02-16T19:27:30.618Z</time>
      </trkpt>
      <trkpt lat="48.86442" lon="2.35938">
        <ele>72.4</ele>
        <time>2015-02-16T19:27:31.691Z</time>
      </trkpt>
      <trkpt lat="48.86448" lon="2.35944">
        <ele>72.3</ele>
        <time>2015-02-16T19:27:33.748Z</time>
      </trkpt>
      <trkpt lat="48.86451" lon="2.35946">
        <ele>72.5</ele>
        <time>2015-02-16T19:27:34.679Z</time>
      </trkpt>
      <trkpt lat="48.86454" lon="2.35954">
        <ele>72.1</ele>
        <time>2015-02-16T19:27:36.731Z</time>
      </trkpt>
      <trkpt lat="48.86456" lon="2.35959">
        <ele>72.8</ele>
        <time>2015-02-16T19:27:37.591Z</time>
      </trkpt>
      <trkpt lat="48.8646" lon="2.35966">
        <ele>73</ele>
        <time>2015-02-16T19:27:39.591Z</time>
      </trkpt>
      <trkpt lat="48.86463" lon="2.3597">
        <ele>73.9</ele>
        <time>2015-02-16T19:27:40.610Z</time>
      </trkpt>
      <trkpt lat="48.8647" lon="2.35978">
        <ele>74.5</ele>
        <time>2015-02-16T19:27:42.639Z</time>
      </trkpt>
      <trkpt lat="48.86473" lon="2.35981">
        <ele>75</ele>
        <time>2015-02-16T19:27:43.650Z</time>
      </trkpt>
      <trkpt lat="48.86478" lon="2.35986">
        <ele>75.5</ele>
        <time>2015-02-16T19:27:44.680Z</time>
      </trkpt>
      <trkpt lat="48.86481" lon="2.3599">
        <ele>75.4</ele>
        <time>2015-02-16T19:27:45.604Z</time>
      </trkpt>
      <trkpt lat="48.86486" lon="2.35994">
        <ele>75.7</ele>
        <time>2015-02-16T19:27:46.579Z</time>
      </trkpt>
      <trkpt lat="48.8649" lon="2.35998">
        <ele>76.1</ele>
        <time>2015-02-16T19:27:47.590Z</time>
      </trkpt>
      <trkpt lat="48.86494" lon="2.36002">
        <ele>76</ele>
        <time>2015-02-16T19:27:48.604Z</time>
      </trkpt>
      <trkpt lat="48.86498" lon="2.36006">
        <ele>76.3</ele>
        <time>2015-02-16T19:27:49.670Z</time>
      </trkpt>
      <trkpt lat="48.86505" lon="2.36012">
        <ele>76.3</ele>
        <time>2015-02-16T19:27:51.598Z</time>
      </trkpt>
      <trkpt lat="48.86509" lon="2.36015">
        <ele>76.3</ele>
        <time>2015-02-16T19:27:52.626Z</time>
      </trkpt>
      <trkpt lat="48.86516" lon="2.36023">
        <ele>76.6</ele>
        <time>2015-02-16T19:27:55.190Z</time>
      </trkpt>
      <trkpt lat="48.86519" lon="2.36027">
        <ele>76.9</ele>
        <time>2015-02-16T19:27:55.711Z</time>
      </trkpt>
      <trkpt lat="48.86526" lon="2.36036">
        <ele>78</ele>
        <time>2015-02-16T19:27:57.595Z</time>
      </trkpt>
      <trkpt lat="48.8653" lon="2.36041">
        <ele>78.2</ele>
        <time>2015-02-16T19:27:58.603Z</time>
      </trkpt>
      <trkpt lat="48.86533" lon="2.36046">
        <ele>78.6</ele>
        <time>2015-02-16T19:27:59.609Z</time>
      </trkpt>
      <trkpt lat="48.86537" lon="2.3605">
        <ele>78.8</ele>
        <time>2015-02-16T19:28:00.620Z</time>
      </trkpt>
      <trkpt lat="48.86541" lon="2.36054">
        <ele>79</ele>
        <time>2015-02-16T19:28:01.657Z</time>
      </trkpt>
      <trkpt lat="48.86544" lon="2.36058">
        <ele>79.2</ele>
        <time>2015-02-16T19:28:02.696Z</time>
      </trkpt>
      <trkpt lat="48.86548" lon="2.36063">
        <ele>79.4</ele>
        <time>2015-02-16T19:28:03.577Z</time>
      </trkpt>
      <trkpt lat="48.86551" lon="2.36068">
        <ele>79.5</ele>
        <time>2015-02-16T19:28:04.618Z</time>
      </trkpt>
      <trkpt lat="48.86554" lon="2.36073">
        <ele>79.7</ele>
        <time>2015-02-16T19:28:05.685Z</time>
      </trkpt>
      <trkpt lat="48.8656" lon="2.36083">
        <ele>79.5</ele>
        <time>2015-02-16T19:28:07.609Z</time>
      </trkpt>
      <trkpt lat="48.86563" lon="2.36087">
        <ele>79.8</ele>
        <time>2015-02-16T19:28:08.616Z</time>
      </trkpt>
      <trkpt lat="48.86567" lon="2.36097">
        <ele>80.7</ele>
        <time>2015-02-16T19:28:12.600Z</time>
      </trkpt>
      <trkpt lat="48.86566" lon="2.36101">
        <ele>81.1</ele>
        <time>2015-02-16T19:28:13.625Z</time>
      </trkpt>
      <trkpt lat="48.8656" lon="2.36107">
        <ele>81.2</ele>
        <time>2015-02-16T19:28:15.647Z</time>
      </trkpt>
      <trkpt lat="48.86521" lon="2.36137">
        <ele>82.3</ele>
        <time>2015-02-16T19:28:27.678Z</time>
      </trkpt>
      <trkpt lat="48.86498" lon="2.36158">
        <ele>82.8</ele>
        <time>2015-02-16T19:28:33.583Z</time>
      </trkpt>
      <trkpt lat="48.86498" lon="2.3617">
        <ele>83.1</ele>
        <time>2015-02-16T19:28:35.605Z</time>
      </trkpt>
      <trkpt lat="48.86498" lon="2.36176">
        <ele>83.2</ele>
        <time>2015-02-16T19:28:36.619Z</time>
      </trkpt>
      <trkpt lat="48.86499" lon="2.36188">
        <ele>83.1</ele>
        <time>2015-02-16T19:28:38.647Z</time>
      </trkpt>
      <trkpt lat="48.86501" lon="2.36193">
        <ele>83.5</ele>
        <time>2015-02-16T19:28:39.584Z</time>
      </trkpt>
      <trkpt lat="48.86507" lon="2.36203">
        <ele>83.9</ele>
        <time>2015-02-16T19:28:41.616Z</time>
      </trkpt>
      <trkpt lat="48.86509" lon="2.36205">
        <ele>83.8</ele>
        <time>2015-02-16T19:28:42.621Z</time>
      </trkpt>
      <trkpt lat="48.86514" lon="2.36212">
        <ele>83.7</ele>
        <time>2015-02-16T19:28:45.663Z</time>
      </trkpt>
      <trkpt lat="48.86515" lon="2.36214">
        <ele>83.8</ele>
        <time>2015-02-16T19:28:46.584Z</time>
      </trkpt>
      <trkpt lat="48.86519" lon="2.36253">
        <ele>86.2</ele>
        <time>2015-02-16T19:28:58.580Z</time>
      </trkpt>
      <trkpt lat="48.86516" lon="2.36266">
        <ele>84.8</ele>
        <time>2015-02-16T19:29:01.676Z</time>
      </trkpt>
      <trkpt lat="48.86518" lon="2.36268">
        <ele>84.2</ele>
        <time>2015-02-16T19:29:02.709Z</time>
      </trkpt>
      <trkpt lat="48.86521" lon="2.36276">
        <ele>83.6</ele>
        <time>2015-02-16T19:29:04.724Z</time>
      </trkpt>
      <trkpt lat="48.86529" lon="2.36287">
        <ele>82.2</ele>
        <time>2015-02-16T19:29:05.742Z</time>
      </trkpt>
      <trkpt lat="48.86533" lon="2.36295">
        <ele>81.5</ele>
        <time>2015-02-16T19:29:06.766Z</time>
      </trkpt>
      <trkpt lat="48.86538" lon="2.36302">
        <ele>80.7</ele>
        <time>2015-02-16T19:29:07.577Z</time>
      </trkpt>
      <trkpt lat="48.86542" lon="2.36313">
        <ele>80.6</ele>
        <time>2015-02-16T19:29:09.728Z</time>
      </trkpt>
      <trkpt lat="48.86544" lon="2.36319">
        <ele>80.7</ele>
        <time>2015-02-16T19:29:10.573Z</time>
      </trkpt>
      <trkpt lat="48.86545" lon="2.36328">
        <ele>81.1</ele>
        <time>2015-02-16T19:29:12.618Z</time>
      </trkpt>
      <trkpt lat="48.86544" lon="2.36334">
        <ele>81.4</ele>
        <time>2015-02-16T19:29:13.633Z</time>
      </trkpt>
      <trkpt lat="48.86542" lon="2.36343">
        <ele>81.7</ele>
        <time>2015-02-16T19:29:15.725Z</time>
      </trkpt>
      <trkpt lat="48.86699" lon="2.36334">
        <ele>80.4</ele>
        <time>2015-02-16T19:30:22.577Z</time>
      </trkpt>
      <trkpt lat="48.86699" lon="2.36329">
        <ele>81.7</ele>
        <time>2015-02-16T19:30:24.661Z</time>
      </trkpt>
      <trkpt lat="48.86698" lon="2.36328">
        <ele>81.9</ele>
        <time>2015-02-16T19:30:25.595Z</time>
      </trkpt>
      <trkpt lat="48.86697" lon="2.36326">
        <ele>82</ele>
        <time>2015-02-16T19:30:26.591Z</time>
      </trkpt>
      <trkpt lat="48.86695" lon="2.36318">
        <ele>82</ele>
        <time>2015-02-16T19:30:32.689Z</time>
      </trkpt>
      <trkpt lat="48.86695" lon="2.36318">
        <ele>81.6</ele>
        <time>2015-02-16T19:30:33.760Z</time>
      </trkpt>
      <trkpt lat="48.86697" lon="2.36316">
        <ele>81.8</ele>
        <time>2015-02-16T19:30:43.673Z</time>
      </trkpt>
      <trkpt lat="48.86702" lon="2.36309">
        <ele>80.2</ele>
        <time>2015-02-16T19:30:44.592Z</time>
      </trkpt>
      <trkpt lat="48.86703" lon="2.36298">
        <ele>79.9</ele>
        <time>2015-02-16T19:30:49.576Z</time>
      </trkpt>
      <trkpt lat="48.86704" lon="2.36295">
        <ele>79.8</ele>
        <time>2015-02-16T19:30:50.616Z</time>
      </trkpt>
      <trkpt lat="48.8671" lon="2.36288">
        <ele>79.4</ele>
        <time>2015-02-16T19:30:52.577Z</time>
      </trkpt>
      <trkpt lat="48.86714" lon="2.36285">
        <ele>79.4</ele>
        <time>2015-02-16T19:30:53.643Z</time>
      </trkpt>
      <trkpt lat="48.8672" lon="2.3628">
        <ele>78.9</ele>
        <time>2015-02-16T19:30:55.636Z</time>
      </trkpt>
      <trkpt lat="48.86721" lon="2.36277">
        <ele>78.6</ele>
        <time>2015-02-16T19:30:56.676Z</time>
      </trkpt>
      <trkpt lat="48.86727" lon="2.36268">
        <ele>78.2</ele>
        <time>2015-02-16T19:30:59.594Z</time>
      </trkpt>
      <trkpt lat="48.86589" lon="2.358">
        <ele>81</ele>
        <time>2015-02-16T19:34:39.570Z</time>
      </trkpt>
      <trkpt lat="48.86588" lon="2.3581">
        <ele>81.5</ele>
        <time>2015-02-16T19:34:56.566Z</time>
      </trkpt>
      <trkpt lat="48.8659" lon="2.35814">
        <ele>79.3</ele>
        <time>2015-02-16T19:34:57.565Z</time>
      </trkpt>
      <trkpt lat="48.86589" lon="2.35826">
        <ele>77.4</ele>
        <time>2015-02-16T19:35:01.627Z</time>
      </trkpt>
      <trkpt lat="48.86589" lon="2.35829">
        <ele>77.2</ele>
        <time>2015-02-16T19:35:02.667Z</time>
      </trkpt>
      <trkpt lat="48.86588" lon="2.35832">
        <ele>77.2</ele>
        <time>2015-02-16T19:35:04.694Z</time>
      </trkpt>
      <trkpt lat="48.86536" lon="2.36031">
        <ele>82</ele>
        <time>2015-02-16T19:35:53.726Z</time>
      </trkpt>
      <trkpt lat="48.86542" lon="2.36039">
        <ele>82</ele>
        <time>2015-02-16T19:35:55.686Z</time>
      </trkpt>
      <trkpt lat="48.86545" lon="2.36042">
        <ele>82</ele>
        <time>2015-02-16T19:35:56.695Z</time>
      </trkpt>
      <trkpt lat="48.86553" lon="2.36047">
        <ele>82.2</ele>
        <time>2015-02-16T19:35:58.736Z</time>
      </trkpt>
      <trkpt lat="48.86557" lon="2.36051">
        <ele>82.3</ele>
        <time>2015-02-16T19:35:59.767Z</time>
      </trkpt>
      <trkpt lat="48.86561" lon="2.36059">
        <ele>82.4</ele>
        <time>2015-02-16T19:36:01.616Z</time>
      </trkpt>
      <trkpt lat="48.86564" lon="2.36062">
        <ele>82.5</ele>
        <time>2015-02-16T19:36:02.626Z</time>
      </trkpt>
      <trkpt lat="48.86568" lon="2.36071">
        <ele>82.9</ele>
        <time>2015-02-16T19:36:04.670Z</time>
      </trkpt>
      <trkpt lat="48.86571" lon="2.36075">
        <ele>82.9</ele>
        <time>2015-02-16T19:36:05.694Z</time>
      </trkpt>
      <trkpt lat="48.86577" lon="2.36083">
        <ele>83</ele>
        <time>2015-02-16T19:36:07.608Z</time>
      </trkpt>
      <trkpt lat="48.86581" lon="2.36087">
        <ele>83.1</ele>
        <time>2015-02-16T19:36:08.704Z</time>
      </trkpt>
      <trkpt lat="48.86587" lon="2.36091">
        <ele>82.7</ele>
        <time>2015-02-16T19:36:09.705Z</time>
      </trkpt>
      <trkpt lat="48.86591" lon="2.36095">
        <ele>82.8</ele>
        <time>2015-02-16T19:36:10.710Z</time>
      </trkpt>
      <trkpt lat="48.86595" lon="2.36099">
        <ele>82.8</ele>
        <time>2015-02-16T19:36:11.734Z</time>
      </trkpt>
      <trkpt lat="48.86598" lon="2.36105">
        <ele>83</ele>
        <time>2015-02-16T19:36:12.744Z</time>
      </trkpt>
      <trkpt lat="48.86605" lon="2.36113">
        <ele>83.3</ele>
        <time>2015-02-16T19:36:14.671Z</time>
      </trkpt>
      <trkpt lat="48.86609" lon="2.36117">
        <ele>83.6</ele>
        <time>2015-02-16T19:36:15.574Z</time>
      </trkpt>
      <trkpt lat="48.86614" lon="2.36125">
        <ele>83.9</ele>
        <time>2015-02-16T19:36:17.621Z</time>
      </trkpt>
      <trkpt lat="48.86616" lon="2.36128">
        <ele>84.3</ele>
        <time>2015-02-16T19:36:18.728Z</time>
      </trkpt>
      <trkpt lat="48.86623" lon="2.36134">
        <ele>84.8</ele>
        <time>2015-02-16T19:36:20.591Z</time>
      </trkpt>
      <trkpt lat="48.86625" lon="2.36138">
        <ele>85</ele>
        <time>2015-02-16T19:36:21.607Z</time>
      </trkpt>
      <trkpt lat="48.86629" lon="2.36143">
        <ele>85.3</ele>
        <time>2015-02-16T19:36:22.663Z</time>
      </trkpt>
      <trkpt lat="48.86634" lon="2.36147">
        <ele>85.3</ele>
        <time>2015-02-16T19:36:23.662Z</time>
      </trkpt>
      <trkpt lat="48.86639" lon="2.36151">
        <ele>85.3</ele>
        <time>2015-02-16T19:36:24.687Z</time>
      </trkpt>
      <trkpt lat="48.86645" lon="2.36156">
        <ele>85.4</ele>
        <time>2015-02-16T19:36:25.711Z</time>
      </trkpt>
      <trkpt lat="48.86649" lon="2.3616">
        <ele>85.5</ele>
        <time>2015-02-16T19:36:26.575Z</time>
      </trkpt>
      <trkpt lat="48.86652" lon="2.36165">
        <ele>85.4</ele>
        <time>2015-02-16T19:36:27.635Z</time>
      </trkpt>
      <trkpt lat="48.86656" lon="2.36171">
        <ele>85.3</ele>
        <time>2015-02-16T19:36:28.572Z</time>
      </trkpt>
      <trkpt lat="48.86658" lon="2.36176">
        <ele>85.3</ele>
        <time>2015-02-16T19:36:29.582Z</time>
      </trkpt>
      <trkpt lat="48.8666" lon="2.36183">
        <ele>85.3</ele>
        <time>2015-02-16T19:36:30.642Z</time>
      </trkpt>
      <trkpt lat="48.86661" lon="2.36189">
        <ele>85.4</ele>
        <time>2015-02-16T19:36:31.648Z</time>
      </trkpt>
      <trkpt lat="48.86662" lon="2.362">
        <ele>85.6</ele>
        <time>2015-02-16T19:36:33.766Z</time>
      </trkpt>
      <trkpt lat="48.86662" lon="2.36205">
        <ele>85.6</ele>
        <time>2015-02-16T19:36:34.679Z</time>
      </trkpt>
      <trkpt lat="48.86665" lon="2.36216">
        <ele>85.7</ele>
        <time>2015-02-16T19:36:36.717Z</time>
      </trkpt>
      <trkpt lat="48.86667" lon="2.36224">
        <ele>85.2</ele>
        <time>2015-02-16T19:36:37.739Z</time>
      </trkpt>
      <trkpt lat="48.8667" lon="2.36235">
        <ele>84.2</ele>
        <time>2015-02-16T19:36:39.756Z</time>
      </trkpt>
      <trkpt lat="48.86672" lon="2.36241">
        <ele>84.1</ele>
        <time>2015-02-16T19:36:40.664Z</time>
      </trkpt>
      <trkpt lat="48.86674" lon="2.36248">
        <ele>83.9</ele>
        <time>2015-02-16T19:36:41.582Z</time>
      </trkpt>
      <trkpt lat="48.86675" lon="2.36254">
        <ele>83.4</ele>
        <time>2015-02-16T19:36:42.584Z</time>
      </trkpt>
      <trkpt lat="48.86676" lon="2.36261">
        <ele>83.3</ele>
        <time>2015-02-16T19:36:43.649Z</time>
      </trkpt>
      <trkpt lat="48.86679" lon="2.36268">
        <ele>83.1</ele>
        <time>2015-02-16T19:36:44.621Z</time>
      </trkpt>
      <trkpt lat="48.8668" lon="2.36275">
        <ele>82.9</ele>
        <time>2015-02-16T19:36:46.226Z</time>
      </trkpt>
      <trkpt lat="48.86685" lon="2.36285">
        <ele>80.7</ele>
        <time>2015-02-16T19:36:46.625Z</time>
      </trkpt>
      <trkpt lat="48.86689" lon="2.36293">
        <ele>79.2</ele>
        <time>2015-02-16T19:36:47.680Z</time>
      </trkpt>
      <trkpt lat="48.86693" lon="2.363">
        <ele>78.4</ele>
        <time>2015-02-16T19:36:48.695Z</time>
      </trkpt>
      <trkpt lat="48.86697" lon="2.36307">
        <ele>77.7</ele>
        <time>2015-02-16T19:36:49.708Z</time>
      </trkpt>
      <trkpt lat="48.86701" lon="2.36312">
        <ele>76.8</ele>
        <time>2015-02-16T19:36:50.713Z</time>
      </trkpt>
      <trkpt lat="48.86705" lon="2.36318">
        <ele>76.5</ele>
        <time>2015-02-16T19:36:51.729Z</time>
      </trkpt>
      <trkpt lat="48.86708" lon="2.36323">
        <ele>76</ele>
        <time>2015-02-16T19:36:52.576Z</time>
      </trkpt>
      <trkpt lat="48.8671" lon="2.36329">
        <ele>75.7</ele>
        <time>2015-02-16T19:36:54.317Z</time>
      </trkpt>
      <trkpt lat="48.86713" lon="2.36335">
        <ele>75.2</ele>
        <time>2015-02-16T19:36:54.593Z</time>
      </trkpt>
      <trkpt lat="48.86713" lon="2.36346">
        <ele>74.6</ele>
        <time>2015-02-16T19:36:56.623Z</time>
      </trkpt>
      <trkpt lat="48.86711" lon="2.36351">
        <ele>74.6</ele>
        <time>2015-02-16T19:36:57.856Z</time>
      </trkpt>
      <trkpt lat="48.86705" lon="2.3636">
        <ele>74</ele>
        <time>2015-02-16T19:36:59.649Z</time>
      </trkpt>
      <trkpt lat="48.86702" lon="2.36364">
        <ele>74.2</ele>
        <time>2015-02-16T19:37:00.715Z</time>
      </trkpt>
      <trkpt lat="48.86696" lon="2.36373">
        <ele>74.2</ele>
        <time>2015-02-16T19:37:02.722Z</time>
      </trkpt>
      <trkpt lat="48.86694" lon="2.36378">
        <ele>74.1</ele>
        <time>2015-02-16T19:37:03.761Z</time>
      </trkpt>
      <trkpt lat="48.8669" lon="2.36387">
        <ele>74</ele>
        <time>2015-02-16T19:37:06.379Z</time>
      </trkpt>
      <trkpt lat="48.86687" lon="2.36391">
        <ele>73.9</ele>
        <time>2015-02-16T19:37:06.566Z</time>
      </trkpt>
      <trkpt lat="48.86682" lon="2.364">
        <ele>73.6</ele>
        <time>2015-02-16T19:37:09.483Z</time>
      </trkpt>
      <trkpt lat="48.86679" lon="2.36405">
        <ele>73.4</ele>
        <time>2015-02-16T19:37:09.619Z</time>
      </trkpt>
      <trkpt lat="48.86674" lon="2.36413">
        <ele>73.2</ele>
        <time>2015-02-16T19:37:11.655Z</time>
      </trkpt>
      <trkpt lat="48.86671" lon="2.36417">
        <ele>73.1</ele>
        <time>2015-02-16T19:37:12.724Z</time>
      </trkpt>
      <trkpt lat="48.86664" lon="2.36427">
        <ele>73.3</ele>
        <time>2015-02-16T19:37:14.529Z</time>
      </trkpt>
      <trkpt lat="48.86661" lon="2.36431">
        <ele>73.3</ele>
        <time>2015-02-16T19:37:15.679Z</time>
      </trkpt>
      <trkpt lat="48.86658" lon="2.3644">
        <ele>73.2</ele>
        <time>2015-02-16T19:37:17.689Z</time>
      </trkpt>
      <trkpt lat="48.86655" lon="2.36444">
        <ele>73.2</ele>
        <time>2015-02-16T19:37:18.747Z</time>
      </trkpt>
      <trkpt lat="48.8665" lon="2.36453">
        <ele>73.6</ele>
        <time>2015-02-16T19:37:21.690Z</time>
      </trkpt>
      <trkpt lat="48.8665" lon="2.36455">
        <ele>74</ele>
        <time>2015-02-16T19:37:22.700Z</time>
      </trkpt>
      <trkpt lat="48.86655" lon="2.36465">
        <ele>74.9</ele>
        <time>2015-02-16T19:37:31.733Z</time>
      </trkpt>
      <trkpt lat="48.86656" lon="2.36465">
        <ele>75.3</ele>
        <time>2015-02-16T19:37:32.689Z</time>
      </trkpt>
      <trkpt lat="48.86657" lon="2.36466">
        <ele>75.6</ele>
        <time>2015-02-16T19:37:33.693Z</time>
      </trkpt>
      <trkpt lat="48.86657" lon="2.36466">
        <ele>75.8</ele>
        <time>2015-02-16T19:37:34.700Z</time>
      </trkpt>
      <trkpt lat="48.86657" lon="2.36466">
        <ele>75.7</ele>
        <time>2015-02-16T19:37:41.720Z</time>
      </trkpt>
      <trkpt lat="48.86662" lon="2.36468">
        <ele>75.1</ele>
        <time>2015-02-16T19:37:42.815Z</time>
      </trkpt>
      <trkpt lat="48.8666" lon="2.36478">
        <ele>75.2</ele>
        <time>2015-02-16T19:37:49.773Z</time>
      </trkpt>
      <trkpt lat="48.8666" lon="2.36481">
        <ele>75.3</ele>
        <time>2015-02-16T19:37:50.789Z</time>
      </trkpt>
      <trkpt lat="48.86658" lon="2.36493">
        <ele>76.1</ele>
        <time>2015-02-16T19:37:54.728Z</time>
      </trkpt>
      <trkpt lat="48.86659" lon="2.36495">
        <ele>76.2</ele>
        <time>2015-02-16T19:37:55.740Z</time>
      </trkpt>
      <trkpt lat="48.86662" lon="2.36505">
        <ele>76.9</ele>
        <time>2015-02-16T19:37:58.723Z</time>
      </trkpt>
      <trkpt lat="48.86663" lon="2.36508">
        <ele>77</ele>
        <time>2015-02-16T19:37:59.707Z</time>
      </trkpt>
      <trkpt lat="48.86663" lon="2.36512">
        <ele>77.8</ele>
        <time>2015-02-16T19:38:02.735Z</time>
      </trkpt>
      <trkpt lat="48.86663" lon="2.36512">
        <ele>78.1</ele>
        <time>2015-02-16T19:38:03.912Z</time>
      </trkpt>
      <trkpt lat="48.86664" lon="2.36513">
        <ele>78.5</ele>
        <time>2015-02-16T19:38:04.716Z</time>
      </trkpt>
      <trkpt lat="48.86668" lon="2.36524">
        <ele>79.7</ele>
        <time>2015-02-16T19:38:09.874Z</time>
      </trkpt>
      <trkpt lat="48.86669" lon="2.36527">
        <ele>80.1</ele>
        <time>2015-02-16T19:38:10.695Z</time>
      </trkpt>
      <trkpt lat="48.86672" lon="2.36535">
        <ele>80.4</ele>
        <time>2015-02-16T19:38:12.705Z</time>
      </trkpt>
      <trkpt lat="48.86674" lon="2.36539">
        <ele>80.6</ele>
        <time>2015-02-16T19:38:13.708Z</time>
      </trkpt>
      <trkpt lat="48.86677" lon="2.36551">
        <ele>81</ele>
        <time>2015-02-16T19:38:16.729Z</time>
      </trkpt>
      <trkpt lat="48.86676" lon="2.36555">
        <ele>81</ele>
        <time>2015-02-16T19:38:17.735Z</time>
      </trkpt>
      <trkpt lat="48.86675" lon="2.36565">
        <ele>81.4</ele>
        <time>2015-02-16T19:38:19.742Z</time>
      </trkpt>
      <trkpt lat="48.86674" lon="2.36569">
        <ele>81.3</ele>
        <time>2015-02-16T19:38:20.777Z</time>
      </trkpt>
      <trkpt lat="48.86672" lon="2.36578">
        <ele>81.1</ele>
        <time>2015-02-16T19:38:22.680Z</time>
      </trkpt>
      <trkpt lat="48.8667" lon="2.36582">
        <ele>81.2</ele>
        <time>2015-02-16T19:38:23.682Z</time>
      </trkpt>
      <trkpt lat="48.86667" lon="2.3659">
        <ele>81.3</ele>
        <time>2015-02-16T19:38:25.812Z</time>
      </trkpt>
      <trkpt lat="48.86665" lon="2.36594">
        <ele>81.2</ele>
        <time>2015-02-16T19:38:26.682Z</time>
      </trkpt>
      <trkpt lat="48.86661" lon="2.36604">
        <ele>81</ele>
        <time>2015-02-16T19:38:28.721Z</time>
      </trkpt>
      <trkpt lat="48.86659" lon="2.36609">
        <ele>80.9</ele>
        <time>2015-02-16T19:38:29.737Z</time>
      </trkpt>
      <trkpt lat="48.86656" lon="2.3662">
        <ele>80.7</ele>
        <time>2015-02-16T19:38:31.825Z</time>
      </trkpt>
      <trkpt lat="48.86655" lon="2.36626">
        <ele>80.6</ele>
        <time>2015-02-16T19:38:32.704Z</time>
      </trkpt>
      <trkpt lat="48.86651" lon="2.36636">
        <ele>80.4</ele>
        <time>2015-02-16T19:38:34.726Z</time>
      </trkpt>
      <trkpt lat="48.8665" lon="2.3664">
        <ele>80.5</ele>
        <time>2015-02-16T19:38:35.736Z</time>
      </trkpt>
      <trkpt lat="48.86645" lon="2.36649">
        <ele>80.5</ele>
        <time>2015-02-16T19:38:37.705Z</time>
      </trkpt>
      <trkpt lat="48.86632" lon="2.36666">
        <ele>81.5</ele>
        <time>2015-02-16T19:38:42.787Z</time>
      </trkpt>
      <trkpt lat="48.86628" lon="2.36675">
        <ele>81.5</ele>
        <time>2015-02-16T19:38:44.687Z</time>
      </trkpt>
      <trkpt lat="48.86626" lon="2.3668">
        <ele>81.5</ele>
        <time>2015-02-16T19:38:45.663Z</time>
      </trkpt>
      <trkpt lat="48.86607" lon="2.36732">
        <ele>82.6</ele>
        <time>2015-02-16T19:38:55.869Z</time>
      </trkpt>
      <trkpt lat="48.86613" lon="2.36745">
        <ele>80.6</ele>
        <time>2015-02-16T19:38:56.671Z</time>
      </trkpt>
      <trkpt lat="48.86626" lon="2.36762">
        <ele>76.8</ele>
        <time>2015-02-16T19:38:57.673Z</time>
      </trkpt>
      <trkpt lat="48.86628" lon="2.3677">
        <ele>75.8</ele>
        <time>2015-02-16T19:38:58.682Z</time>
      </trkpt>
      <trkpt lat="48.86627" lon="2.36776">
        <ele>75.8</ele>
        <time>2015-02-16T19:38:59.688Z</time>
      </trkpt>
      <trkpt lat="48.86627" lon="2.36787">
        <ele>75.2</ele>
        <time>2015-02-16T19:39:01.730Z</time>
      </trkpt>
      <trkpt lat="48.86626" lon="2.36792">
        <ele>75.2</ele>
        <time>2015-02-16T19:39:02.752Z</time>
      </trkpt>
      <trkpt lat="48.86628" lon="2.368">
        <ele>74.4</ele>
        <time>2015-02-16T19:39:03.678Z</time>
      </trkpt>
      <trkpt lat="48.86628" lon="2.36807">
        <ele>73.8</ele>
        <time>2015-02-16T19:39:04.680Z</time>
      </trkpt>
      <trkpt lat="48.86628" lon="2.3682">
        <ele>72.5</ele>
        <time>2015-02-16T19:39:06.716Z</time>
      </trkpt>
      <trkpt lat="48.86628" lon="2.36825">
        <ele>72.6</ele>
        <time>2015-02-16T19:39:07.727Z</time>
      </trkpt>
      <trkpt lat="48.86626" lon="2.36836">
        <ele>73.1</ele>
        <time>2015-02-16T19:39:09.766Z</time>
      </trkpt>
      <trkpt lat="48.86623" lon="2.36842">
        <ele>73.3</ele>
        <time>2015-02-16T19:39:10.780Z</time>
      </trkpt>
      <trkpt lat="48.86619" lon="2.36853">
        <ele>74</ele>
        <time>2015-02-16T19:39:12.714Z</time>
      </trkpt>
      <trkpt lat="48.86617" lon="2.36858">
        <ele>74.2</ele>
        <time>2015-02-16T19:39:13.717Z</time>
      </trkpt>
      <trkpt lat="48.86612" lon="2.36867">
        <ele>74.7</ele>
        <time>2015-02-16T19:39:16.070Z</time>
      </trkpt>
      <trkpt lat="48.86612" lon="2.36873">
        <ele>75.8</ele>
        <time>2015-02-16T19:39:16.813Z</time>
      </trkpt>
      <trkpt lat="48.8661" lon="2.36884">
        <ele>76.5</ele>
        <time>2015-02-16T19:39:18.709Z</time>
      </trkpt>
      <trkpt lat="48.86608" lon="2.36889">
        <ele>76.6</ele>
        <time>2015-02-16T19:39:19.646Z</time>
      </trkpt>
      <trkpt lat="48.86604" lon="2.36898">
        <ele>77.1</ele>
        <time>2015-02-16T19:39:21.701Z</time>
      </trkpt>
      <trkpt lat="48.86602" lon="2.36904">
        <ele>77.3</ele>
        <time>2015-02-16T19:39:22.720Z</time>
      </trkpt>
      <trkpt lat="48.86597" lon="2.36913">
        <ele>77.8</ele>
        <time>2015-02-16T19:39:24.765Z</time>
      </trkpt>
      <trkpt lat="48.86595" lon="2.36918">
        <ele>78.1</ele>
        <time>2015-02-16T19:39:25.780Z</time>
      </trkpt>
      <trkpt lat="48.86589" lon="2.36925">
        <ele>78.7</ele>
        <time>2015-02-16T19:39:27.670Z</time>
      </trkpt>
      <trkpt lat="48.86587" lon="2.36929">
        <ele>78.9</ele>
        <time>2015-02-16T19:39:28.708Z</time>
      </trkpt>
      <trkpt lat="48.86583" lon="2.36938">
        <ele>79.5</ele>
        <time>2015-02-16T19:39:30.784Z</time>
      </trkpt>
      <trkpt lat="48.86581" lon="2.36943">
        <ele>79.8</ele>
        <time>2015-02-16T19:39:31.796Z</time>
      </trkpt>
      <trkpt lat="48.8658" lon="2.36956">
        <ele>80.7</ele>
        <time>2015-02-16T19:39:33.671Z</time>
      </trkpt>
      <trkpt lat="48.86579" lon="2.36961">
        <ele>81</ele>
        <time>2015-02-16T19:39:34.699Z</time>
      </trkpt>
      <trkpt lat="48.86579" lon="2.36973">
        <ele>81.5</ele>
        <time>2015-02-16T19:39:36.719Z</time>
      </trkpt>
      <trkpt lat="48.86578" lon="2.36977">
        <ele>81.6</ele>
        <time>2015-02-16T19:39:37.719Z</time>
      </trkpt>
      <trkpt lat="48.86576" lon="2.36987">
        <ele>82.2</ele>
        <time>2015-02-16T19:39:40.586Z</time>
      </trkpt>
      <trkpt lat="48.86575" lon="2.36991">
        <ele>82.3</ele>
        <time>2015-02-16T19:39:40.738Z</time>
      </trkpt>
      <trkpt lat="48.86574" lon="2.36996">
        <ele>82.3</ele>
        <time>2015-02-16T19:39:41.750Z</time>
      </trkpt>
      <trkpt lat="48.8658" lon="2.37006">
        <ele>80.2</ele>
        <time>2015-02-16T19:39:42.764Z</time>
      </trkpt>
      <trkpt lat="48.86585" lon="2.37017">
        <ele>77.7</ele>
        <time>2015-02-16T19:39:43.649Z</time>
      </trkpt>
      <trkpt lat="48.86587" lon="2.37025">
        <ele>76.6</ele>
        <time>2015-02-16T19:39:44.689Z</time>
      </trkpt>
      <trkpt lat="48.86588" lon="2.37032">
        <ele>75.7</ele>
        <time>2015-02-16T19:39:45.693Z</time>
      </trkpt>
      <trkpt lat="48.8659" lon="2.37045">
        <ele>74.2</ele>
        <time>2015-02-16T19:39:47.706Z</time>
      </trkpt>
      <trkpt lat="48.8659" lon="2.37051">
        <ele>73.7</ele>
        <time>2015-02-16T19:39:48.724Z</time>
      </trkpt>
      <trkpt lat="48.86588" lon="2.3706">
        <ele>73.7</ele>
        <time>2015-02-16T19:39:50.797Z</time>
      </trkpt>
      <trkpt lat="48.86586" lon="2.37063">
        <ele>74</ele>
        <time>2015-02-16T19:39:51.681Z</time>
      </trkpt>
      <trkpt lat="48.86581" lon="2.37068">
        <ele>74.4</ele>
        <time>2015-02-16T19:39:53.705Z</time>
      </trkpt>
      <trkpt lat="48.86577" lon="2.3707">
        <ele>74.8</ele>
        <time>2015-02-16T19:39:54.721Z</time>
      </trkpt>
      <trkpt lat="48.8657" lon="2.37073">
        <ele>75.5</ele>
        <time>2015-02-16T19:39:56.735Z</time>
      </trkpt>
      <trkpt lat="48.86568" lon="2.37076">
        <ele>75.9</ele>
        <time>2015-02-16T19:39:57.741Z</time>
      </trkpt>
      <trkpt lat="48.86562" lon="2.37082">
        <ele>77.1</ele>
        <time>2015-02-16T19:40:00.914Z</time>
      </trkpt>
      <trkpt lat="48.86559" lon="2.37084">
        <ele>77.4</ele>
        <time>2015-02-16T19:40:01.708Z</time>
      </trkpt>
      <trkpt lat="48.86552" lon="2.3709">
        <ele>78.1</ele>
        <time>2015-02-16T19:40:03.749Z</time>
      </trkpt>
      <trkpt lat="48.86549" lon="2.37093">
        <ele>78.3</ele>
        <time>2015-02-16T19:40:04.761Z</time>
      </trkpt>
      <trkpt lat="48.86547" lon="2.37101">
        <ele>79.1</ele>
        <time>2015-02-16T19:40:06.758Z</time>
      </trkpt>
      <trkpt lat="48.86545" lon="2.37105">
        <ele>79.4</ele>
        <time>2015-02-16T19:40:07.649Z</time>
      </trkpt>
      <trkpt lat="48.86543" lon="2.37116">
        <ele>80.1</ele>
        <time>2015-02-16T19:40:09.698Z</time>
      </trkpt>
      <trkpt lat="48.86541" lon="2.37121">
        <ele>80.5</ele>
        <time>2015-02-16T19:40:10.712Z</time>
      </trkpt>
      <trkpt lat="48.86537" lon="2.3713">
        <ele>81.1</ele>
        <time>2015-02-16T19:40:12.745Z</time>
      </trkpt>
      <trkpt lat="48.86534" lon="2.37135">
        <ele>81.5</ele>
        <time>2015-02-16T19:40:13.646Z</time>
      </trkpt>
      <trkpt lat="48.8653" lon="2.37144">
        <ele>82.3</ele>
        <time>2015-02-16T19:40:15.701Z</time>
      </trkpt>
      <trkpt lat="48.86528" lon="2.37149">
        <ele>82.7</ele>
        <time>2015-02-16T19:40:16.712Z</time>
      </trkpt>
      <trkpt lat="48.86525" lon="2.3716">
        <ele>83.4</ele>
        <time>2015-02-16T19:40:18.764Z</time>
      </trkpt>
      <trkpt lat="48.86524" lon="2.37165">
        <ele>83.7</ele>
        <time>2015-02-16T19:40:19.679Z</time>
      </trkpt>
      <trkpt lat="48.86525" lon="2.37178">
        <ele>84.2</ele>
        <time>2015-02-16T19:40:21.780Z</time>
      </trkpt>
      <trkpt lat="48.86525" lon="2.37185">
        <ele>84.5</ele>
        <time>2015-02-16T19:40:22.797Z</time>
      </trkpt>
      <trkpt lat="48.86525" lon="2.37198">
        <ele>84.9</ele>
        <time>2015-02-16T19:40:24.825Z</time>
      </trkpt>
      <trkpt lat="48.86526" lon="2.37204">
        <ele>85.3</ele>
        <time>2015-02-16T19:40:25.732Z</time>
      </trkpt>
      <trkpt lat="48.8653" lon="2.37213">
        <ele>86.1</ele>
        <time>2015-02-16T19:40:26.676Z</time>
      </trkpt>
      <trkpt lat="48.8653" lon="2.37218">
        <ele>86.4</ele>
        <time>2015-02-16T19:40:27.678Z</time>
      </trkpt>
      <trkpt lat="48.86529" lon="2.37229">
        <ele>86.8</ele>
        <time>2015-02-16T19:40:30.491Z</time>
      </trkpt>
      <trkpt lat="48.86528" lon="2.37234">
        <ele>87</ele>
        <time>2015-02-16T19:40:30.774Z</time>
      </trkpt>
      <trkpt lat="48.86527" lon="2.37244">
        <ele>87.5</ele>
        <time>2015-02-16T19:40:32.701Z</time>
      </trkpt>
      <trkpt lat="48.86526" lon="2.37249">
        <ele>87.6</ele>
        <time>2015-02-16T19:40:33.746Z</time>
      </trkpt>
      <trkpt lat="48.86525" lon="2.37259">
        <ele>88</ele>
        <time>2015-02-16T19:40:35.645Z</time>
      </trkpt>
      <trkpt lat="48.86524" lon="2.37265">
        <ele>88</ele>
        <time>2015-02-16T19:40:36.736Z</time>
      </trkpt>
      <trkpt lat="48.86522" lon="2.37275">
        <ele>88.3</ele>
        <time>2015-02-16T19:40:38.742Z</time>
      </trkpt>
      <trkpt lat="48.86521" lon="2.3728">
        <ele>88.5</ele>
        <time>2015-02-16T19:40:39.748Z</time>
      </trkpt>
      <trkpt lat="48.86518" lon="2.37291">
        <ele>88.6</ele>
        <time>2015-02-16T19:40:41.863Z</time>
      </trkpt>
      <trkpt lat="48.86517" lon="2.37296">
        <ele>88.7</ele>
        <time>2015-02-16T19:40:42.705Z</time>
      </trkpt>
      <trkpt lat="48.86514" lon="2.37307">
        <ele>89</ele>
        <time>2015-02-16T19:40:45.742Z</time>
      </trkpt>
      <trkpt lat="48.86512" lon="2.37312">
        <ele>89.2</ele>
        <time>2015-02-16T19:40:45.814Z</time>
      </trkpt>
      <trkpt lat="48.86509" lon="2.37322">
        <ele>89.7</ele>
        <time>2015-02-16T19:40:47.671Z</time>
      </trkpt>
      <trkpt lat="48.86508" lon="2.37326">
        <ele>90</ele>
        <time>2015-02-16T19:40:48.683Z</time>
      </trkpt>
      <trkpt lat="48.86502" lon="2.37336">
        <ele>90.4</ele>
        <time>2015-02-16T19:40:51.677Z</time>
      </trkpt>
      <trkpt lat="48.86499" lon="2.37339">
        <ele>90.5</ele>
        <time>2015-02-16T19:40:52.688Z</time>
      </trkpt>
      <trkpt lat="48.86496" lon="2.37347">
        <ele>90.8</ele>
        <time>2015-02-16T19:40:54.748Z</time>
      </trkpt>
      <trkpt lat="48.86494" lon="2.37351">
        <ele>91.1</ele>
        <time>2015-02-16T19:40:55.766Z</time>
      </trkpt>
      <trkpt lat="48.86488" lon="2.37358">
        <ele>91.5</ele>
        <time>2015-02-16T19:40:57.759Z</time>
      </trkpt>
      <trkpt lat="48.86487" lon="2.37362">
        <ele>92</ele>
        <time>2015-02-16T19:40:58.673Z</time>
      </trkpt>
      <trkpt lat="48.86484" lon="2.37372">
        <ele>93.3</ele>
        <time>2015-02-16T19:41:01.741Z</time>
      </trkpt>
      <trkpt lat="48.86483" lon="2.37375">
        <ele>93.6</ele>
        <time>2015-02-16T19:41:02.751Z</time>
      </trkpt>
      <trkpt lat="48.86484" lon="2.37387">
        <ele>94.4</ele>
        <time>2015-02-16T19:41:05.848Z</time>
      </trkpt>
      <trkpt lat="48.86483" lon="2.3739">
        <ele>94.6</ele>
        <time>2015-02-16T19:41:06.718Z</time>
      </trkpt>
      <trkpt lat="48.86482" lon="2.37402">
        <ele>95.3</ele>
        <time>2015-02-16T19:41:09.742Z</time>
      </trkpt>
      <trkpt lat="48.8648" lon="2.37407">
        <ele>95.5</ele>
        <time>2015-02-16T19:41:10.745Z</time>
      </trkpt>
      <trkpt lat="48.86479" lon="2.37418">
        <ele>95.4</ele>
        <time>2015-02-16T19:41:12.769Z</time>
      </trkpt>
      <trkpt lat="48.86478" lon="2.37423">
        <ele>95.4</ele>
        <time>2015-02-16T19:41:13.792Z</time>
      </trkpt>
      <trkpt lat="48.86479" lon="2.37429">
        <ele>95.2</ele>
        <time>2015-02-16T19:41:14.730Z</time>
      </trkpt>
      <trkpt lat="48.86481" lon="2.37437">
        <ele>94</ele>
        <time>2015-02-16T19:41:15.748Z</time>
      </trkpt>
      <trkpt lat="48.86489" lon="2.3745">
        <ele>90.6</ele>
        <time>2015-02-16T19:41:16.776Z</time>
      </trkpt>
      <trkpt lat="48.86496" lon="2.37462">
        <ele>87.2</ele>
        <time>2015-02-16T19:41:17.674Z</time>
      </trkpt>
      <trkpt lat="48.865" lon="2.37472">
        <ele>85.3</ele>
        <time>2015-02-16T19:41:19.276Z</time>
      </trkpt>
      <trkpt lat="48.86504" lon="2.37482">
        <ele>83.7</ele>
        <time>2015-02-16T19:41:19.725Z</time>
      </trkpt>
      <trkpt lat="48.86501" lon="2.37495">
        <ele>83.9</ele>
        <time>2015-02-16T19:41:21.704Z</time>
      </trkpt>
      <trkpt lat="48.86499" lon="2.37501">
        <ele>84.2</ele>
        <time>2015-02-16T19:41:22.678Z</time>
      </trkpt>
      <trkpt lat="48.86496" lon="2.37513">
        <ele>84.6</ele>
        <time>2015-02-16T19:41:24.710Z</time>
      </trkpt>
      <trkpt lat="48.86494" lon="2.37518">
        <ele>84.8</ele>
        <time>2015-02-16T19:41:25.713Z</time>
      </trkpt>
      <trkpt lat="48.86489" lon="2.37528">
        <ele>84.8</ele>
        <time>2015-02-16T19:41:27.675Z</time>
      </trkpt>
      <trkpt lat="48.86487" lon="2.37532">
        <ele>84.9</ele>
        <time>2015-02-16T19:41:28.681Z</time>
      </trkpt>
      <trkpt lat="48.86484" lon="2.37541">
        <ele>85.3</ele>
        <time>2015-02-16T19:41:30.729Z</time>
      </trkpt>
      <trkpt lat="48.86483" lon="2.37546">
        <ele>85.4</ele>
        <time>2015-02-16T19:41:31.800Z</time>
      </trkpt>
      <trkpt lat="48.8648" lon="2.37556">
        <ele>86</ele>
        <time>2015-02-16T19:41:33.696Z</time>
      </trkpt>
      <trkpt lat="48.86478" lon="2.37561">
        <ele>86.2</ele>
        <time>2015-02-16T19:41:34.708Z</time>
      </trkpt>
      <trkpt lat="48.86472" lon="2.37569">
        <ele>86.6</ele>
        <time>2015-02-16T19:41:36.774Z</time>
      </trkpt>
      <trkpt lat="48.86469" lon="2.37572">
        <ele>86.9</ele>
        <time>2015-02-16T19:41:37.698Z</time>
      </trkpt>
      <trkpt lat="48.86461" lon="2.37579">
        <ele>87.2</ele>
        <time>2015-02-16T19:41:40.750Z</time>
      </trkpt>
      <trkpt lat="48.86458" lon="2.37583">
        <ele>87.4</ele>
        <time>2015-02-16T19:41:40.797Z</time>
      </trkpt>
      <trkpt lat="48.86452" lon="2.37591">
        <ele>87.8</ele>
        <time>2015-02-16T19:41:42.713Z</time>
      </trkpt>
      <trkpt lat="48.86447" lon="2.37595">
        <ele>88</ele>
        <time>2015-02-16T19:41:43.736Z</time>
      </trkpt>
      <trkpt lat="48.86444" lon="2.376">
        <ele>88.2</ele>
        <time>2015-02-16T19:41:44.768Z</time>
      </trkpt>
      <trkpt lat="48.86441" lon="2.37605">
        <ele>88.5</ele>
        <time>2015-02-16T19:41:45.819Z</time>
      </trkpt>
      <trkpt lat="48.86435" lon="2.37614">
        <ele>89</ele>
        <time>2015-02-16T19:41:47.718Z</time>
      </trkpt>
      <trkpt lat="48.86432" lon="2.37618">
        <ele>89.2</ele>
        <time>2015-02-16T19:41:48.722Z</time>
      </trkpt>
      <trkpt lat="48.86427" lon="2.37626">
        <ele>89.5</ele>
        <time>2015-02-16T19:41:50.884Z</time>
      </trkpt>
      <trkpt lat="48.86425" lon="2.37631">
        <ele>89.7</ele>
        <time>2015-02-16T19:41:51.648Z</time>
      </trkpt>
      <trkpt lat="48.8642" lon="2.37641">
        <ele>90.1</ele>
        <time>2015-02-16T19:41:53.704Z</time>
      </trkpt>
      <trkpt lat="48.86417" lon="2.37646">
        <ele>90.3</ele>
        <time>2015-02-16T19:41:54.734Z</time>
      </trkpt>
      <trkpt lat="48.86411" lon="2.37653">
        <ele>90.7</ele>
        <time>2015-02-16T19:41:56.650Z</time>
      </trkpt>
      <trkpt lat="48.86409" lon="2.37657">
        <ele>90.9</ele>
        <time>2015-02-16T19:41:57.650Z</time>
      </trkpt>
      <trkpt lat="48.86403" lon="2.37667">
        <ele>91.4</ele>
        <time>2015-02-16T19:42:00.984Z</time>
      </trkpt>
      <trkpt lat="48.86401" lon="2.37669">
        <ele>91.6</ele>
        <time>2015-02-16T19:42:01.742Z</time>
      </trkpt>
      <trkpt lat="48.864" lon="2.37676">
        <ele>92.5</ele>
        <time>2015-02-16T19:42:03.673Z</time>
      </trkpt>
      <trkpt lat="48.86401" lon="2.37686">
        <ele>94.2</ele>
        <time>2015-02-16T19:42:04.675Z</time>
      </trkpt>
      <trkpt lat="48.86404" lon="2.37694">
        <ele>95.1</ele>
        <time>2015-02-16T19:42:05.690Z</time>
      </trkpt>
      <trkpt lat="48.86408" lon="2.37703">
        <ele>96.1</ele>
        <time>2015-02-16T19:42:06.715Z</time>
      </trkpt>
      <trkpt lat="48.8641" lon="2.37711">
        <ele>96.8</ele>
        <time>2015-02-16T19:42:07.749Z</time>
      </trkpt>
      <trkpt lat="48.86412" lon="2.37716">
        <ele>96.8</ele>
        <time>2015-02-16T19:42:08.651Z</time>
      </trkpt>
      <trkpt lat="48.86416" lon="2.37726">
        <ele>97.3</ele>
        <time>2015-02-16T19:42:11.145Z</time>
      </trkpt>
      <trkpt lat="48.86419" lon="2.37734">
        <ele>98.5</ele>
        <time>2015-02-16T19:42:11.728Z</time>
      </trkpt>
      <trkpt lat="48.8642" lon="2.37736">
        <ele>98.7</ele>
        <time>2015-02-16T19:42:12.768Z</time>
      </trkpt>
      <trkpt lat="48.86421" lon="2.37738">
        <ele>98.8</ele>
        <time>2015-02-16T19:42:13.679Z</time>
      </trkpt>
      <trkpt lat="48.86422" lon="2.37741">
        <ele>99.1</ele>
        <time>2015-02-16T19:42:14.758Z</time>
      </trkpt>
      <trkpt lat="48.8642" lon="2.37753">
        <ele>99.6</ele>
        <time>2015-02-16T19:42:21.337Z</time>
      </trkpt>
      <trkpt lat="48.86418" lon="2.37756">
        <ele>99.7</ele>
        <time>2015-02-16T19:42:21.673Z</time>
      </trkpt>
      <trkpt lat="48.86411" lon="2.37765">
        <ele>100.2</ele>
        <time>2015-02-16T19:42:26.476Z</time>
      </trkpt>
      <trkpt lat="48.8641" lon="2.37766">
        <ele>100.4</ele>
        <time>2015-02-16T19:42:26.672Z</time>
      </trkpt>
      <trkpt lat="48.86405" lon="2.37769">
        <ele>100.5</ele>
        <time>2015-02-16T19:42:28.693Z</time>
      </trkpt>
      <trkpt lat="48.86401" lon="2.37772">
        <ele>100.5</ele>
        <time>2015-02-16T19:42:29.698Z</time>
      </trkpt>
      <trkpt lat="48.86394" lon="2.37777">
        <ele>100.6</ele>
        <time>2015-02-16T19:42:31.786Z</time>
      </trkpt>
      <trkpt lat="48.86344" lon="2.37861">
        <ele>104.2</ele>
        <time>2015-02-16T19:43:02.696Z</time>
      </trkpt>
      <trkpt lat="48.86347" lon="2.3787">
        <ele>101.8</ele>
        <time>2015-02-16T19:43:04.640Z</time>
      </trkpt>
      <trkpt lat="48.86351" lon="2.37876">
        <ele>98.7</ele>
        <time>2015-02-16T19:43:05.682Z</time>
      </trkpt>
      <trkpt lat="48.86352" lon="2.37882">
        <ele>95.8</ele>
        <time>2015-02-16T19:43:14.684Z</time>
      </trkpt>
      <trkpt lat="48.86352" lon="2.37883">
        <ele>95.8</ele>
        <time>2015-02-16T19:43:15.777Z</time>
      </trkpt>
      <trkpt lat="48.86353" lon="2.37883">
        <ele>96.2</ele>
        <time>2015-02-16T19:43:21.715Z</time>
      </trkpt>
      <trkpt lat="48.86352" lon="2.37884">
        <ele>96.4</ele>
        <time>2015-02-16T19:43:22.718Z</time>
      </trkpt>
      <trkpt lat="48.86361" lon="2.3788">
        <ele>95.2</ele>
        <time>2015-02-16T19:43:33.706Z</time>
      </trkpt>
      <trkpt lat="48.86361" lon="2.37878">
        <ele>95.2</ele>
        <time>2015-02-16T19:43:34.715Z</time>
      </trkpt>
      <trkpt lat="48.86361" lon="2.37878">
        <ele>95.2</ele>
        <time>2015-02-16T19:43:35.562Z</time>
      </trkpt>
      <trkpt lat="48.86353" lon="2.37836">
        <ele>96.3</ele>
        <time>2015-02-16T19:44:46.657Z</time>
      </trkpt>
      <trkpt lat="48.86349" lon="2.37828">
        <ele>96.7</ele>
        <time>2015-02-16T19:44:47.660Z</time>
      </trkpt>
      <trkpt lat="48.86343" lon="2.37819">
        <ele>97.8</ele>
        <time>2015-02-16T19:44:48.670Z</time>
      </trkpt>
      <trkpt lat="48.8634" lon="2.37808">
        <ele>100.6</ele>
        <time>2015-02-16T19:44:50.712Z</time>
      </trkpt>
      <trkpt lat="48.86339" lon="2.37802">
        <ele>101.5</ele>
        <time>2015-02-16T19:44:51.704Z</time>
      </trkpt>
      <trkpt lat="48.8634" lon="2.37793">
        <ele>105</ele>
        <time>2015-02-16T19:44:53.669Z</time>
      </trkpt>
      <trkpt lat="48.86338" lon="2.37789">
        <ele>106.4</ele>
        <time>2015-02-16T19:44:54.701Z</time>
      </trkpt>
      <trkpt lat="48.8634" lon="2.37777">
        <ele>111.1</ele>
        <time>2015-02-16T19:44:58.390Z</time>
      </trkpt>
      <trkpt lat="48.8634" lon="2.37773">
        <ele>112.5</ele>
        <time>2015-02-16T19:44:58.725Z</time>
      </trkpt>
      <trkpt lat="48.86338" lon="2.3776">
        <ele>111.9</ele>
        <time>2015-02-16T19:45:02.700Z</time>
      </trkpt>
      <trkpt lat="48.86337" lon="2.37758">
        <ele>111.3</ele>
        <time>2015-02-16T19:45:03.737Z</time>
      </trkpt>
      <trkpt lat="48.86331" lon="2.37749">
        <ele>115</ele>
        <time>2015-02-16T19:45:07.714Z</time>
      </trkpt>
      <trkpt lat="48.8633" lon="2.37747">
        <ele>115.6</ele>
        <time>2015-02-16T19:45:08.726Z</time>
      </trkpt>
      <trkpt lat="48.86328" lon="2.37745">
        <ele>115.9</ele>
        <time>2015-02-16T19:45:13.686Z</time>
      </trkpt>
      <trkpt lat="48.86329" lon="2.37744">
        <ele>115.9</ele>
        <time>2015-02-16T19:45:14.710Z</time>
      </trkpt>
      <trkpt lat="48.8633" lon="2.37746">
        <ele>115.8</ele>
        <time>2015-02-16T19:45:15.715Z</time>
      </trkpt>
      <trkpt lat="48.86336" lon="2.37753">
        <ele>104.8</ele>
        <time>2015-02-16T19:45:21.461Z</time>
      </trkpt>
      <trkpt lat="48.86335" lon="2.37752">
        <ele>104.3</ele>
        <time>2015-02-16T19:45:21.710Z</time>
      </trkpt>
      <trkpt lat="48.86335" lon="2.37751">
        <ele>104.1</ele>
        <time>2015-02-16T19:45:28.636Z</time>
      </trkpt>
      <trkpt lat="48.86332" lon="2.37751">
        <ele>101.9</ele>
        <time>2015-02-16T19:45:29.672Z</time>
      </trkpt>
      <trkpt lat="48.86337" lon="2.3776">
        <ele>99.5</ele>
        <time>2015-02-16T19:45:40.690Z</time>
      </trkpt>
      <trkpt lat="48.86337" lon="2.37762">
        <ele>98.8</ele>
        <time>2015-02-16T19:45:41.706Z</time>
      </trkpt>
      <trkpt lat="48.8634" lon="2.37773">
        <ele>96</ele>
        <time>2015-02-16T19:45:46.699Z</time>
      </trkpt>
      <trkpt lat="48.86343" lon="2.37773">
        <ele>96.3</ele>
        <time>2015-02-16T19:45:47.708Z</time>
      </trkpt>
      <trkpt lat="48.86349" lon="2.37781">
        <ele>98.3</ele>
        <time>2015-02-16T19:45:53.669Z</time>
      </trkpt>
      <trkpt lat="48.8635" lon="2.37784">
        <ele>98.7</ele>
        <time>2015-02-16T19:45:54.678Z</time>
      </trkpt>
      <trkpt lat="48.86356" lon="2.37793">
        <ele>101</ele>
        <time>2015-02-16T19:46:05.807Z</time>
      </trkpt>
      <trkpt lat="48.86357" lon="2.37795">
        <ele>101.2</ele>
        <time>2015-02-16T19:46:06.800Z</time>
      </trkpt>
      <trkpt lat="48.86357" lon="2.37797">
        <ele>101.5</ele>
        <time>2015-02-16T19:46:07.647Z</time>
      </trkpt>
      <trkpt lat="48.86358" lon="2.37887">
        <ele>89.2</ele>
        <time>2015-02-16T19:47:50.870Z</time>
      </trkpt>
      <trkpt lat="48.86307" lon="2.379">
        <ele>90.1</ele>
        <time>2015-02-16T19:48:05.656Z</time>
      </trkpt>
      <trkpt lat="48.86302" lon="2.37904">
        <ele>89</ele>
        <time>2015-02-16T19:48:07.712Z</time>
      </trkpt>
      <trkpt lat="48.86298" lon="2.37905">
        <ele>89.1</ele>
        <time>2015-02-16T19:48:08.720Z</time>
      </trkpt>
      <trkpt lat="48.86294" lon="2.37907">
        <ele>89.3</ele>
        <time>2015-02-16T19:48:09.616Z</time>
      </trkpt>
      <trkpt lat="48.86235" lon="2.37951">
        <ele>97</ele>
        <time>2015-02-16T19:48:27.748Z</time>
      </trkpt>
      <trkpt lat="48.86229" lon="2.37953">
        <ele>97.4</ele>
        <time>2015-02-16T19:48:30.480Z</time>
      </trkpt>
      <trkpt lat="48.86074" lon="2.38027">
        <ele>105.2</ele>
        <time>2015-02-16T19:49:09.655Z</time>
      </trkpt>
      <trkpt lat="48.86074" lon="2.38034">
        <ele>102.4</ele>
        <time>2015-02-16T19:49:10.685Z</time>
      </trkpt>
      <trkpt lat="48.86064" lon="2.38046">
        <ele>103.2</ele>
        <time>2015-02-16T19:49:13.734Z</time>
      </trkpt>
      <trkpt lat="48.86058" lon="2.38055">
        <ele>102.8</ele>
        <time>2015-02-16T19:49:15.662Z</time>
      </trkpt>
      <trkpt lat="48.86048" lon="2.38068">
        <ele>103.8</ele>
        <time>2015-02-16T19:49:18.762Z</time>
      </trkpt>
      <trkpt lat="48.86042" lon="2.38077">
        <ele>103.1</ele>
        <time>2015-02-16T19:49:20.655Z</time>
      </trkpt>
      <trkpt lat="48.86039" lon="2.38082">
        <ele>102.7</ele>
        <time>2015-02-16T19:49:21.670Z</time>
      </trkpt>
      <trkpt lat="48.86035" lon="2.38086">
        <ele>102.4</ele>
        <time>2015-02-16T19:49:22.730Z</time>
      </trkpt>
      <trkpt lat="48.86032" lon="2.38091">
        <ele>102</ele>
        <time>2015-02-16T19:49:23.732Z</time>
      </trkpt>
      <trkpt lat="48.86026" lon="2.38101">
        <ele>101.4</ele>
        <time>2015-02-16T19:49:25.743Z</time>
      </trkpt>
      <trkpt lat="48.86024" lon="2.38107">
        <ele>101</ele>
        <time>2015-02-16T19:49:26.723Z</time>
      </trkpt>
      <trkpt lat="48.8602" lon="2.38112">
        <ele>100.6</ele>
        <time>2015-02-16T19:49:27.669Z</time>
      </trkpt>
      <trkpt lat="48.86017" lon="2.38117">
        <ele>100.1</ele>
        <time>2015-02-16T19:49:28.654Z</time>
      </trkpt>
      <trkpt lat="48.8601" lon="2.38124">
        <ele>99.5</ele>
        <time>2015-02-16T19:49:30.716Z</time>
      </trkpt>
      <trkpt lat="48.86006" lon="2.38126">
        <ele>99.2</ele>
        <time>2015-02-16T19:49:31.722Z</time>
      </trkpt>
      <trkpt lat="48.85999" lon="2.3813">
        <ele>98.6</ele>
        <time>2015-02-16T19:49:33.664Z</time>
      </trkpt>
      <trkpt lat="48.85997" lon="2.38134">
        <ele>98</ele>
        <time>2015-02-16T19:49:34.678Z</time>
      </trkpt>
      <trkpt lat="48.85998" lon="2.38142">
        <ele>94.9</ele>
        <time>2015-02-16T19:49:35.704Z</time>
      </trkpt>
      <trkpt lat="48.85999" lon="2.38148">
        <ele>92.4</ele>
        <time>2015-02-16T19:49:36.715Z</time>
      </trkpt>
      <trkpt lat="48.85997" lon="2.38157">
        <ele>87.9</ele>
        <time>2015-02-16T19:49:38.664Z</time>
      </trkpt>
      <trkpt lat="48.85994" lon="2.3816">
        <ele>88.3</ele>
        <time>2015-02-16T19:49:39.690Z</time>
      </trkpt>
      <trkpt lat="48.85986" lon="2.38163">
        <ele>89</ele>
        <time>2015-02-16T19:49:41.683Z</time>
      </trkpt>
      <trkpt lat="48.85891" lon="2.38254">
        <ele>98.7</ele>
        <time>2015-02-16T19:50:13.748Z</time>
      </trkpt>
      <trkpt lat="48.8589" lon="2.38257">
        <ele>97.9</ele>
        <time>2015-02-16T19:50:14.715Z</time>
      </trkpt>
      <trkpt lat="48.85873" lon="2.38277">
        <ele>94.7</ele>
        <time>2015-02-16T19:50:21.752Z</time>
      </trkpt>
      <trkpt lat="48.85852" lon="2.38292">
        <ele>95.1</ele>
        <time>2015-02-16T19:50:27.661Z</time>
      </trkpt>
      <trkpt lat="48.85847" lon="2.38298">
        <ele>93.9</ele>
        <time>2015-02-16T19:50:29.722Z</time>
      </trkpt>
      <trkpt lat="48.85848" lon="2.38305">
        <ele>93.6</ele>
        <time>2015-02-16T19:50:30.741Z</time>
      </trkpt>
      <trkpt lat="48.85848" lon="2.38317">
        <ele>92.4</ele>
        <time>2015-02-16T19:50:33.695Z</time>
      </trkpt>
      <trkpt lat="48.85847" lon="2.3832">
        <ele>92.5</ele>
        <time>2015-02-16T19:50:34.700Z</time>
      </trkpt>
      <trkpt lat="48.85849" lon="2.38328">
        <ele>93</ele>
        <time>2015-02-16T19:50:43.688Z</time>
      </trkpt>
      <trkpt lat="48.85852" lon="2.38334">
        <ele>93.6</ele>
        <time>2015-02-16T19:50:44.703Z</time>
      </trkpt>
      <trkpt lat="48.85855" lon="2.38343">
        <ele>94.4</ele>
        <time>2015-02-16T19:50:55.683Z</time>
      </trkpt>
      <trkpt lat="48.85856" lon="2.3835">
        <ele>95</ele>
        <time>2015-02-16T19:50:56.688Z</time>
      </trkpt>
      <trkpt lat="48.85852" lon="2.38361">
        <ele>95.3</ele>
        <time>2015-02-16T19:51:00.739Z</time>
      </trkpt>
      <trkpt lat="48.85854" lon="2.38367">
        <ele>93.5</ele>
        <time>2015-02-16T19:51:01.750Z</time>
      </trkpt>
      <trkpt lat="48.85857" lon="2.38377">
        <ele>92.3</ele>
        <time>2015-02-16T19:51:03.658Z</time>
      </trkpt>
      <trkpt lat="48.85858" lon="2.38381">
        <ele>92.2</ele>
        <time>2015-02-16T19:51:04.670Z</time>
      </trkpt>
      <trkpt lat="48.85862" lon="2.38391">
        <ele>91.6</ele>
        <time>2015-02-16T19:51:06.707Z</time>
      </trkpt>
      <trkpt lat="48.85865" lon="2.38396">
        <ele>90.9</ele>
        <time>2015-02-16T19:51:07.710Z</time>
      </trkpt>
      <trkpt lat="48.85869" lon="2.38407">
        <ele>89.8</ele>
        <time>2015-02-16T19:51:09.736Z</time>
      </trkpt>
      <trkpt lat="48.85871" lon="2.38411">
        <ele>89.7</ele>
        <time>2015-02-16T19:51:10.732Z</time>
      </trkpt>
      <trkpt lat="48.85874" lon="2.38422">
        <ele>89.2</ele>
        <time>2015-02-16T19:51:12.733Z</time>
      </trkpt>
      <trkpt lat="48.85876" lon="2.38427">
        <ele>89.2</ele>
        <time>2015-02-16T19:51:13.730Z</time>
      </trkpt>
      <trkpt lat="48.85881" lon="2.38438">
        <ele>88.9</ele>
        <time>2015-02-16T19:51:15.684Z</time>
      </trkpt>
      <trkpt lat="48.85882" lon="2.38444">
        <ele>88.9</ele>
        <time>2015-02-16T19:51:16.680Z</time>
      </trkpt>
      <trkpt lat="48.85885" lon="2.38455">
        <ele>88.6</ele>
        <time>2015-02-16T19:51:18.736Z</time>
      </trkpt>
      <trkpt lat="48.85887" lon="2.3846">
        <ele>88.5</ele>
        <time>2015-02-16T19:51:19.853Z</time>
      </trkpt>
      <trkpt lat="48.8589" lon="2.38471">
        <ele>88.5</ele>
        <time>2015-02-16T19:51:21.678Z</time>
      </trkpt>
      <trkpt lat="48.85891" lon="2.38476">
        <ele>88.9</ele>
        <time>2015-02-16T19:51:22.689Z</time>
      </trkpt>
      <trkpt lat="48.85896" lon="2.38487">
        <ele>89.1</ele>
        <time>2015-02-16T19:51:25.056Z</time>
      </trkpt>
      <trkpt lat="48.85899" lon="2.38492">
        <ele>89.2</ele>
        <time>2015-02-16T19:51:25.756Z</time>
      </trkpt>
      <trkpt lat="48.85902" lon="2.38504">
        <ele>89.9</ele>
        <time>2015-02-16T19:51:28.163Z</time>
      </trkpt>
      <trkpt lat="48.85905" lon="2.3851">
        <ele>90</ele>
        <time>2015-02-16T19:51:28.726Z</time>
      </trkpt>
      <trkpt lat="48.85909" lon="2.38519">
        <ele>89.7</ele>
        <time>2015-02-16T19:51:30.663Z</time>
      </trkpt>
      <trkpt lat="48.8591" lon="2.38524">
        <ele>89.7</ele>
        <time>2015-02-16T19:51:31.680Z</time>
      </trkpt>
      <trkpt lat="48.85914" lon="2.38535">
        <ele>90.2</ele>
        <time>2015-02-16T19:51:33.698Z</time>
      </trkpt>
      <trkpt lat="48.85916" lon="2.3854">
        <ele>90.2</ele>
        <time>2015-02-16T19:51:34.701Z</time>
      </trkpt>
      <trkpt lat="48.85921" lon="2.3855">
        <ele>90.9</ele>
        <time>2015-02-16T19:51:36.743Z</time>
      </trkpt>
      <trkpt lat="48.85923" lon="2.38555">
        <ele>90.9</ele>
        <time>2015-02-16T19:51:37.669Z</time>
      </trkpt>
      <trkpt lat="48.85926" lon="2.38564">
        <ele>91.3</ele>
        <time>2015-02-16T19:51:39.675Z</time>
      </trkpt>
      <trkpt lat="48.85927" lon="2.38569">
        <ele>91.4</ele>
        <time>2015-02-16T19:51:40.695Z</time>
      </trkpt>
      <trkpt lat="48.85928" lon="2.38579">
        <ele>91.7</ele>
        <time>2015-02-16T19:51:42.714Z</time>
      </trkpt>
      <trkpt lat="48.85929" lon="2.38582">
        <ele>91.9</ele>
        <time>2015-02-16T19:51:43.710Z</time>
      </trkpt>
      <trkpt lat="48.85933" lon="2.3859">
        <ele>92.9</ele>
        <time>2015-02-16T19:51:45.729Z</time>
      </trkpt>
      <trkpt lat="48.85935" lon="2.38593">
        <ele>93.3</ele>
        <time>2015-02-16T19:51:46.743Z</time>
      </trkpt>
      <trkpt lat="48.85939" lon="2.38603">
        <ele>93.8</ele>
        <time>2015-02-16T19:51:48.794Z</time>
      </trkpt>
      <trkpt lat="48.85941" lon="2.38607">
        <ele>94</ele>
        <time>2015-02-16T19:51:49.699Z</time>
      </trkpt>
      <trkpt lat="48.85943" lon="2.38618">
        <ele>94.6</ele>
        <time>2015-02-16T19:51:51.664Z</time>
      </trkpt>
      <trkpt lat="48.85945" lon="2.38622">
        <ele>95.2</ele>
        <time>2015-02-16T19:51:52.712Z</time>
      </trkpt>
      <trkpt lat="48.85949" lon="2.38631">
        <ele>96.1</ele>
        <time>2015-02-16T19:51:54.765Z</time>
      </trkpt>
      <trkpt lat="48.8595" lon="2.38636">
        <ele>96.4</ele>
        <time>2015-02-16T19:51:55.783Z</time>
      </trkpt>
      <trkpt lat="48.85951" lon="2.38649">
        <ele>96.5</ele>
        <time>2015-02-16T19:51:58.964Z</time>
      </trkpt>
      <trkpt lat="48.85952" lon="2.38653">
        <ele>96.5</ele>
        <time>2015-02-16T19:51:59.737Z</time>
      </trkpt>
      <trkpt lat="48.85957" lon="2.38664">
        <ele>96.6</ele>
        <time>2015-02-16T19:52:04.730Z</time>
      </trkpt>
      <trkpt lat="48.85954" lon="2.38667">
        <ele>96.5</ele>
        <time>2015-02-16T19:52:05.668Z</time>
      </trkpt>
      <trkpt lat="48.85954" lon="2.38677">
        <ele>96.2</ele>
        <time>2015-02-16T19:52:08.735Z</time>
      </trkpt>
      <trkpt lat="48.85955" lon="2.38681">
        <ele>96.1</ele>
        <time>2015-02-16T19:52:09.734Z</time>
      </trkpt>
      <trkpt lat="48.85956" lon="2.38694">
        <ele>96</ele>
        <time>2015-02-16T19:52:12.693Z</time>
      </trkpt>
      <trkpt lat="48.85957" lon="2.38698">
        <ele>96.3</ele>
        <time>2015-02-16T19:52:13.696Z</time>
      </trkpt>
      <trkpt lat="48.85961" lon="2.3871">
        <ele>96.3</ele>
        <time>2015-02-16T19:52:16.846Z</time>
      </trkpt>
      <trkpt lat="48.85963" lon="2.38714">
        <ele>96.3</ele>
        <time>2015-02-16T19:52:17.659Z</time>
      </trkpt>
      <trkpt lat="48.85965" lon="2.38724">
        <ele>96</ele>
        <time>2015-02-16T19:52:19.700Z</time>
      </trkpt>
      <trkpt lat="48.85965" lon="2.38729">
        <ele>96.1</ele>
        <time>2015-02-16T19:52:20.715Z</time>
      </trkpt>
      <trkpt lat="48.85968" lon="2.38738">
        <ele>96.4</ele>
        <time>2015-02-16T19:52:22.737Z</time>
      </trkpt>
      <trkpt lat="48.85968" lon="2.38744">
        <ele>96.5</ele>
        <time>2015-02-16T19:52:23.748Z</time>
      </trkpt>
      <trkpt lat="48.8597" lon="2.38754">
        <ele>96.5</ele>
        <time>2015-02-16T19:52:26.425Z</time>
      </trkpt>
      <trkpt lat="48.85971" lon="2.38759">
        <ele>96.6</ele>
        <time>2015-02-16T19:52:26.723Z</time>
      </trkpt>
      <trkpt lat="48.85975" lon="2.38768">
        <ele>96.9</ele>
        <time>2015-02-16T19:52:28.664Z</time>
      </trkpt>
      <trkpt lat="48.85977" lon="2.38773">
        <ele>97</ele>
        <time>2015-02-16T19:52:29.707Z</time>
      </trkpt>
      <trkpt lat="48.85981" lon="2.38783">
        <ele>97.1</ele>
        <time>2015-02-16T19:52:31.730Z</time>
      </trkpt>
      <trkpt lat="48.85982" lon="2.38788">
        <ele>97</ele>
        <time>2015-02-16T19:52:32.636Z</time>
      </trkpt>
      <trkpt lat="48.85985" lon="2.38798">
        <ele>97</ele>
        <time>2015-02-16T19:52:35.560Z</time>
      </trkpt>
      <trkpt lat="48.85987" lon="2.38802">
        <ele>97</ele>
        <time>2015-02-16T19:52:35.677Z</time>
      </trkpt>
      <trkpt lat="48.85992" lon="2.38809">
        <ele>97</ele>
        <time>2015-02-16T19:52:37.696Z</time>
      </trkpt>
      <trkpt lat="48.85993" lon="2.38813">
        <ele>97</ele>
        <time>2015-02-16T19:52:38.701Z</time>
      </trkpt>
      <trkpt lat="48.85998" lon="2.3882">
        <ele>97.1</ele>
        <time>2015-02-16T19:52:40.744Z</time>
      </trkpt>
      <trkpt lat="48.86" lon="2.38824">
        <ele>96.9</ele>
        <time>2015-02-16T19:52:41.658Z</time>
      </trkpt>
      <trkpt lat="48.86001" lon="2.38835">
        <ele>96.9</ele>
        <time>2015-02-16T19:52:45.701Z</time>
      </trkpt>
      <trkpt lat="48.86001" lon="2.38837">
        <ele>96.9</ele>
        <time>2015-02-16T19:52:45.754Z</time>
      </trkpt>
      <trkpt lat="48.85998" lon="2.38849">
        <ele>97.8</ele>
        <time>2015-02-16T19:52:49.642Z</time>
      </trkpt>
      <trkpt lat="48.85996" lon="2.38851">
        <ele>97.9</ele>
        <time>2015-02-16T19:52:50.716Z</time>
      </trkpt>
      <trkpt lat="48.85996" lon="2.38851">
        <ele>97.9</ele>
        <time>2015-02-16T19:52:50.819Z</time>
      </trkpt>
      <trkpt lat="48.85993" lon="2.38852">
        <ele>97.6</ele>
        <time>2015-02-16T19:52:51.740Z</time>
      </trkpt>
      <trkpt lat="48.85993" lon="2.38853">
        <ele>98.2</ele>
        <time>2015-02-16T19:52:56.733Z</time>
      </trkpt>
      <trkpt lat="48.85991" lon="2.38854">
        <ele>99.1</ele>
        <time>2015-02-16T19:52:57.630Z</time>
      </trkpt>
      <trkpt lat="48.85985" lon="2.38861">
        <ele>98.9</ele>
        <time>2015-02-16T19:53:00.975Z</time>
      </trkpt>
      <trkpt lat="48.85983" lon="2.38864">
        <ele>98.8</ele>
        <time>2015-02-16T19:53:01.713Z</time>
      </trkpt>
      <trkpt lat="48.85977" lon="2.38869">
        <ele>99.1</ele>
        <time>2015-02-16T19:53:03.658Z</time>
      </trkpt>
      <trkpt lat="48.85973" lon="2.38872">
        <ele>99.2</ele>
        <time>2015-02-16T19:53:05.697Z</time>
      </trkpt>
      <trkpt lat="48.85966" lon="2.38878">
        <ele>98.9</ele>
        <time>2015-02-16T19:53:08.653Z</time>
      </trkpt>
      <trkpt lat="48.85964" lon="2.3888">
        <ele>99.1</ele>
        <time>2015-02-16T19:53:09.657Z</time>
      </trkpt>
      <trkpt lat="48.85955" lon="2.38882">
        <ele>98.8</ele>
        <time>2015-02-16T19:53:13.209Z</time>
      </trkpt>
      <trkpt lat="48.85952" lon="2.38884">
        <ele>98.6</ele>
        <time>2015-02-16T19:53:13.681Z</time>
      </trkpt>
      <trkpt lat="48.85944" lon="2.38887">
        <ele>98.4</ele>
        <time>2015-02-16T19:53:16.639Z</time>
      </trkpt>
      <trkpt lat="48.85942" lon="2.38888">
        <ele>98.5</ele>
        <time>2015-02-16T19:53:17.656Z</time>
      </trkpt>
      <trkpt lat="48.85935" lon="2.38889">
        <ele>98.3</ele>
        <time>2015-02-16T19:53:19.733Z</time>
      </trkpt>
      <trkpt lat="48.85931" lon="2.38889">
        <ele>98.3</ele>
        <time>2015-02-16T19:53:20.653Z</time>
      </trkpt>
      <trkpt lat="48.85924" lon="2.3889">
        <ele>98.3</ele>
        <time>2015-02-16T19:53:22.681Z</time>
      </trkpt>
      <trkpt lat="48.85921" lon="2.3889">
        <ele>98.3</ele>
        <time>2015-02-16T19:53:23.853Z</time>
      </trkpt>
      <trkpt lat="48.85915" lon="2.38893">
        <ele>98.4</ele>
        <time>2015-02-16T19:53:26.455Z</time>
      </trkpt>
      <trkpt lat="48.85889" lon="2.38901">
        <ele>98.9</ele>
        <time>2015-02-16T19:53:32.615Z</time>
      </trkpt>
      <trkpt lat="48.85882" lon="2.38903">
        <ele>99</ele>
        <time>2015-02-16T19:53:35.502Z</time>
      </trkpt>
      <trkpt lat="48.85878" lon="2.38904">
        <ele>99</ele>
        <time>2015-02-16T19:53:35.620Z</time>
      </trkpt>
      <trkpt lat="48.8587" lon="2.38904">
        <ele>99.2</ele>
        <time>2015-02-16T19:53:37.668Z</time>
      </trkpt>
      <trkpt lat="48.85867" lon="2.38904">
        <ele>99.3</ele>
        <time>2015-02-16T19:53:38.680Z</time>
      </trkpt>
      <trkpt lat="48.85862" lon="2.38904">
        <ele>99.4</ele>
        <time>2015-02-16T19:53:40.528Z</time>
      </trkpt>
      <trkpt lat="48.85857" lon="2.38904">
        <ele>99.5</ele>
        <time>2015-02-16T19:53:40.721Z</time>
      </trkpt>
      <trkpt lat="48.8585" lon="2.38904">
        <ele>99.7</ele>
        <time>2015-02-16T19:53:42.792Z</time>
      </trkpt>
      <trkpt lat="48.85846" lon="2.38905">
        <ele>99.9</ele>
        <time>2015-02-16T19:53:43.700Z</time>
      </trkpt>
      <trkpt lat="48.8584" lon="2.38907">
        <ele>100.1</ele>
        <time>2015-02-16T19:53:45.644Z</time>
      </trkpt>
      <trkpt lat="48.85836" lon="2.3891">
        <ele>100.2</ele>
        <time>2015-02-16T19:53:46.690Z</time>
      </trkpt>
      <trkpt lat="48.8583" lon="2.38915">
        <ele>100.3</ele>
        <time>2015-02-16T19:53:48.753Z</time>
      </trkpt>
      <trkpt lat="48.85829" lon="2.38919">
        <ele>100.2</ele>
        <time>2015-02-16T19:53:49.651Z</time>
      </trkpt>
      <trkpt lat="48.85827" lon="2.38923">
        <ele>100.4</ele>
        <time>2015-02-16T19:53:50.652Z</time>
      </trkpt>
      <trkpt lat="48.85828" lon="2.38934">
        <ele>101.4</ele>
        <time>2015-02-16T19:53:51.661Z</time>
      </trkpt>
      <trkpt lat="48.85827" lon="2.38945">
        <ele>101.6</ele>
        <time>2015-02-16T19:53:55.639Z</time>
      </trkpt>
      <trkpt lat="48.85826" lon="2.38948">
        <ele>101.8</ele>
        <time>2015-02-16T19:53:55.679Z</time>
      </trkpt>
      <trkpt lat="48.85822" lon="2.38958">
        <ele>102.2</ele>
        <time>2015-02-16T19:53:58.713Z</time>
      </trkpt>
      <trkpt lat="48.85821" lon="2.3896">
        <ele>102.3</ele>
        <time>2015-02-16T19:53:59.749Z</time>
      </trkpt>
      <trkpt lat="48.85816" lon="2.38971">
        <ele>102.3</ele>
        <time>2015-02-16T19:54:02.792Z</time>
      </trkpt>
      <trkpt lat="48.85814" lon="2.38975">
        <ele>102.4</ele>
        <time>2015-02-16T19:54:03.669Z</time>
      </trkpt>
      <trkpt lat="48.8581" lon="2.38986">
        <ele>102.6</ele>
        <time>2015-02-16T19:54:06.730Z</time>
      </trkpt>
      <trkpt lat="48.85809" lon="2.38991">
        <ele>102.7</ele>
        <time>2015-02-16T19:54:07.726Z</time>
      </trkpt>
      <trkpt lat="48.85805" lon="2.38999">
        <ele>103.1</ele>
        <time>2015-02-16T19:54:09.671Z</time>
      </trkpt>
      <trkpt lat="48.85803" lon="2.39002">
        <ele>103.3</ele>
        <time>2015-02-16T19:54:10.685Z</time>
      </trkpt>
      <trkpt lat="48.85801" lon="2.39013">
        <ele>104.1</ele>
        <time>2015-02-16T19:54:12.720Z</time>
      </trkpt>
      <trkpt lat="48.85801" lon="2.39019">
        <ele>104.2</ele>
        <time>2015-02-16T19:54:13.724Z</time>
      </trkpt>
      <trkpt lat="48.85799" lon="2.39027">
        <ele>104.4</ele>
        <time>2015-02-16T19:54:15.830Z</time>
      </trkpt>
      <trkpt lat="48.85797" lon="2.39032">
        <ele>104.7</ele>
        <time>2015-02-16T19:54:16.763Z</time>
      </trkpt>
      <trkpt lat="48.85793" lon="2.39039">
        <ele>105</ele>
        <time>2015-02-16T19:54:18.716Z</time>
      </trkpt>
      <trkpt lat="48.85791" lon="2.39047">
        <ele>105.2</ele>
        <time>2015-02-16T19:54:20.730Z</time>
      </trkpt>
      <trkpt lat="48.85787" lon="2.39056">
        <ele>105.5</ele>
        <time>2015-02-16T19:54:22.753Z</time>
      </trkpt>
      <trkpt lat="48.85786" lon="2.39059">
        <ele>105.7</ele>
        <time>2015-02-16T19:54:23.789Z</time>
      </trkpt>
      <trkpt lat="48.85783" lon="2.39071">
        <ele>105.9</ele>
        <time>2015-02-16T19:54:26.724Z</time>
      </trkpt>
      <trkpt lat="48.85782" lon="2.39075">
        <ele>106</ele>
        <time>2015-02-16T19:54:27.731Z</time>
      </trkpt>
      <trkpt lat="48.85781" lon="2.39085">
        <ele>106.4</ele>
        <time>2015-02-16T19:54:30.515Z</time>
      </trkpt>
      <trkpt lat="48.85781" lon="2.39092">
        <ele>106.8</ele>
        <time>2015-02-16T19:54:30.766Z</time>
      </trkpt>
      <trkpt lat="48.8578" lon="2.39104">
        <ele>107.4</ele>
        <time>2015-02-16T19:54:32.684Z</time>
      </trkpt>
      <trkpt lat="48.85779" lon="2.39109">
        <ele>107.7</ele>
        <time>2015-02-16T19:54:33.698Z</time>
      </trkpt>
      <trkpt lat="48.85777" lon="2.39122">
        <ele>108.1</ele>
        <time>2015-02-16T19:54:36.830Z</time>
      </trkpt>
      <trkpt lat="48.85775" lon="2.39125">
        <ele>108.2</ele>
        <time>2015-02-16T19:54:37.702Z</time>
      </trkpt>
      <trkpt lat="48.85771" lon="2.3913">
        <ele>108</ele>
        <time>2015-02-16T19:54:40.585Z</time>
      </trkpt>
      <trkpt lat="48.85766" lon="2.39133">
        <ele>107.7</ele>
        <time>2015-02-16T19:54:40.728Z</time>
      </trkpt>
      <trkpt lat="48.85758" lon="2.39138">
        <ele>107.3</ele>
        <time>2015-02-16T19:54:42.758Z</time>
      </trkpt>
      <trkpt lat="48.85754" lon="2.3914">
        <ele>107.3</ele>
        <time>2015-02-16T19:54:43.695Z</time>
      </trkpt>
      <trkpt lat="48.85746" lon="2.39146">
        <ele>107</ele>
        <time>2015-02-16T19:54:46.727Z</time>
      </trkpt>
      <trkpt lat="48.85743" lon="2.39148">
        <ele>107</ele>
        <time>2015-02-16T19:54:47.758Z</time>
      </trkpt>
      <trkpt lat="48.85735" lon="2.39152">
        <ele>106.6</ele>
        <time>2015-02-16T19:54:50.860Z</time>
      </trkpt>
      <trkpt lat="48.85735" lon="2.39154">
        <ele>105.6</ele>
        <time>2015-02-16T19:54:51.698Z</time>
      </trkpt>
      <trkpt lat="48.8573" lon="2.39159">
        <ele>105.3</ele>
        <time>2015-02-16T19:54:53.692Z</time>
      </trkpt>
      <trkpt lat="48.85727" lon="2.39162">
        <ele>105.2</ele>
        <time>2015-02-16T19:54:54.704Z</time>
      </trkpt>
      <trkpt lat="48.8572" lon="2.39164">
        <ele>105.2</ele>
        <time>2015-02-16T19:54:56.636Z</time>
      </trkpt>
      <trkpt lat="48.85696" lon="2.39164">
        <ele>105.2</ele>
        <time>2015-02-16T19:55:02.694Z</time>
      </trkpt>
      <trkpt lat="48.85688" lon="2.39164">
        <ele>104.9</ele>
        <time>2015-02-16T19:55:04.728Z</time>
      </trkpt>
      <trkpt lat="48.85684" lon="2.39164">
        <ele>104.8</ele>
        <time>2015-02-16T19:55:05.789Z</time>
      </trkpt>
      <trkpt lat="48.85679" lon="2.39163">
        <ele>104.6</ele>
        <time>2015-02-16T19:55:07.253Z</time>
      </trkpt>
      <trkpt lat="48.85674" lon="2.39162">
        <ele>104.4</ele>
        <time>2015-02-16T19:55:07.722Z</time>
      </trkpt>
      <trkpt lat="48.85601" lon="2.39167">
        <ele>104.5</ele>
        <time>2015-02-16T19:55:22.722Z</time>
      </trkpt>
      <trkpt lat="48.85594" lon="2.39171">
        <ele>104.2</ele>
        <time>2015-02-16T19:55:24.814Z</time>
      </trkpt>
      <trkpt lat="48.8559" lon="2.39173">
        <ele>104.2</ele>
        <time>2015-02-16T19:55:25.697Z</time>
      </trkpt>
      <trkpt lat="48.85586" lon="2.39181">
        <ele>102.1</ele>
        <time>2015-02-16T19:55:27.790Z</time>
      </trkpt>
      <trkpt lat="48.85586" lon="2.39187">
        <ele>100</ele>
        <time>2015-02-16T19:55:28.680Z</time>
      </trkpt>
      <trkpt lat="48.85581" lon="2.39191">
        <ele>98.8</ele>
        <time>2015-02-16T19:55:30.723Z</time>
      </trkpt>
      <trkpt lat="48.85577" lon="2.39192">
        <ele>98.7</ele>
        <time>2015-02-16T19:55:31.736Z</time>
      </trkpt>
      <trkpt lat="48.8557" lon="2.39193">
        <ele>98.6</ele>
        <time>2015-02-16T19:55:33.754Z</time>
      </trkpt>
      <trkpt lat="48.85566" lon="2.39195">
        <ele>98.5</ele>
        <time>2015-02-16T19:55:34.663Z</time>
      </trkpt>
      <trkpt lat="48.85559" lon="2.39198">
        <ele>97.9</ele>
        <time>2015-02-16T19:55:36.738Z</time>
      </trkpt>
      <trkpt lat="48.85554" lon="2.39198">
        <ele>97.6</ele>
        <time>2015-02-16T19:55:37.726Z</time>
      </trkpt>
      <trkpt lat="48.85546" lon="2.39196">
        <ele>97</ele>
        <time>2015-02-16T19:55:40.566Z</time>
      </trkpt>
      <trkpt lat="48.85541" lon="2.39195">
        <ele>96.9</ele>
        <time>2015-02-16T19:55:40.632Z</time>
      </trkpt>
      <trkpt lat="48.85534" lon="2.39203">
        <ele>92.8</ele>
        <time>2015-02-16T19:55:44.655Z</time>
      </trkpt>
      <trkpt lat="48.85531" lon="2.39204">
        <ele>92.6</ele>
        <time>2015-02-16T19:55:45.674Z</time>
      </trkpt>
      <trkpt lat="48.85523" lon="2.3921">
        <ele>91.5</ele>
        <time>2015-02-16T19:55:48.718Z</time>
      </trkpt>
      <trkpt lat="48.8552" lon="2.39211">
        <ele>91.1</ele>
        <time>2015-02-16T19:55:49.745Z</time>
      </trkpt>
      <trkpt lat="48.85512" lon="2.39212">
        <ele>90.4</ele>
        <time>2015-02-16T19:55:51.655Z</time>
      </trkpt>
      <trkpt lat="48.85507" lon="2.39213">
        <ele>90.2</ele>
        <time>2015-02-16T19:55:52.688Z</time>
      </trkpt>
      <trkpt lat="48.85503" lon="2.39214">
        <ele>90.1</ele>
        <time>2015-02-16T19:55:53.705Z</time>
      </trkpt>
      <trkpt lat="48.85498" lon="2.39213">
        <ele>90</ele>
        <time>2015-02-16T19:55:54.706Z</time>
      </trkpt>
      <trkpt lat="48.85493" lon="2.39214">
        <ele>89.8</ele>
        <time>2015-02-16T19:55:55.712Z</time>
      </trkpt>
      <trkpt lat="48.85489" lon="2.39214">
        <ele>89.7</ele>
        <time>2015-02-16T19:55:56.694Z</time>
      </trkpt>
      <trkpt lat="48.85482" lon="2.39214">
        <ele>89.5</ele>
        <time>2015-02-16T19:55:57.657Z</time>
      </trkpt>
      <trkpt lat="48.85476" lon="2.39215">
        <ele>89.3</ele>
        <time>2015-02-16T19:55:58.678Z</time>
      </trkpt>
      <trkpt lat="48.8547" lon="2.39214">
        <ele>89.2</ele>
        <time>2015-02-16T19:55:59.795Z</time>
      </trkpt>
      <trkpt lat="48.85465" lon="2.39214">
        <ele>89.1</ele>
        <time>2015-02-16T19:56:00.756Z</time>
      </trkpt>
      <trkpt lat="48.8546" lon="2.39216">
        <ele>89.1</ele>
        <time>2015-02-16T19:56:01.734Z</time>
      </trkpt>
      <trkpt lat="48.85456" lon="2.39218">
        <ele>89.1</ele>
        <time>2015-02-16T19:56:02.665Z</time>
      </trkpt>
      <trkpt lat="48.85447" lon="2.39221">
        <ele>89.2</ele>
        <time>2015-02-16T19:56:04.686Z</time>
      </trkpt>
      <trkpt lat="48.85442" lon="2.39223">
        <ele>89.2</ele>
        <time>2015-02-16T19:56:05.709Z</time>
      </trkpt>
      <trkpt lat="48.85438" lon="2.39224">
        <ele>89.2</ele>
        <time>2015-02-16T19:56:06.728Z</time>
      </trkpt>
      <trkpt lat="48.85433" lon="2.39226">
        <ele>89.2</ele>
        <time>2015-02-16T19:56:07.745Z</time>
      </trkpt>
      <trkpt lat="48.85429" lon="2.39227">
        <ele>89.3</ele>
        <time>2015-02-16T19:56:08.665Z</time>
      </trkpt>
      <trkpt lat="48.85424" lon="2.39229">
        <ele>89</ele>
        <time>2015-02-16T19:56:09.701Z</time>
      </trkpt>
      <trkpt lat="48.8542" lon="2.3923">
        <ele>88.9</ele>
        <time>2015-02-16T19:56:10.710Z</time>
      </trkpt>
      <trkpt lat="48.85415" lon="2.39232">
        <ele>88.5</ele>
        <time>2015-02-16T19:56:11.720Z</time>
      </trkpt>
      <trkpt lat="48.85411" lon="2.39235">
        <ele>88</ele>
        <time>2015-02-16T19:56:13.437Z</time>
      </trkpt>
      <trkpt lat="48.85407" lon="2.39237">
        <ele>87.5</ele>
        <time>2015-02-16T19:56:13.755Z</time>
      </trkpt>
      <trkpt lat="48.85398" lon="2.39239">
        <ele>86.6</ele>
        <time>2015-02-16T19:56:15.666Z</time>
      </trkpt>
      <trkpt lat="48.85393" lon="2.3924">
        <ele>86.1</ele>
        <time>2015-02-16T19:56:16.677Z</time>
      </trkpt>
      <trkpt lat="48.85389" lon="2.3924">
        <ele>86.1</ele>
        <time>2015-02-16T19:56:18.576Z</time>
      </trkpt>
      <trkpt lat="48.85384" lon="2.39241">
        <ele>86.1</ele>
        <time>2015-02-16T19:56:18.700Z</time>
      </trkpt>
      <trkpt lat="48.85376" lon="2.39244">
        <ele>85.9</ele>
        <time>2015-02-16T19:56:20.730Z</time>
      </trkpt>
      <trkpt lat="48.85372" lon="2.39244">
        <ele>85.9</ele>
        <time>2015-02-16T19:56:21.735Z</time>
      </trkpt>
      <trkpt lat="48.85365" lon="2.39245">
        <ele>85.8</ele>
        <time>2015-02-16T19:56:23.655Z</time>
      </trkpt>
      <trkpt lat="48.85361" lon="2.39246">
        <ele>85.7</ele>
        <time>2015-02-16T19:56:24.784Z</time>
      </trkpt>
      <trkpt lat="48.85354" lon="2.39249">
        <ele>85.7</ele>
        <time>2015-02-16T19:56:26.654Z</time>
      </trkpt>
      <trkpt lat="48.85352" lon="2.39251">
        <ele>85.6</ele>
        <time>2015-02-16T19:56:27.673Z</time>
      </trkpt>
      <trkpt lat="48.85353" lon="2.39258">
        <ele>84.7</ele>
        <time>2015-02-16T19:56:29.720Z</time>
      </trkpt>
      <trkpt lat="48.85352" lon="2.3926">
        <ele>84.8</ele>
        <time>2015-02-16T19:56:30.724Z</time>
      </trkpt>
      <trkpt lat="48.85352" lon="2.39267">
        <ele>85.1</ele>
        <time>2015-02-16T19:56:32.726Z</time>
      </trkpt>
      <trkpt lat="48.85395" lon="2.3939">
        <ele>56.6</ele>
        <time>2015-02-16T19:57:02.801Z</time>
      </trkpt>
      <trkpt lat="48.85389" lon="2.39399">
        <ele>56.4</ele>
        <time>2015-02-16T19:57:05.679Z</time>
      </trkpt>
      <trkpt lat="48.85387" lon="2.39401">
        <ele>56.8</ele>
        <time>2015-02-16T19:57:06.730Z</time>
      </trkpt>
      <trkpt lat="48.85379" lon="2.39404">
        <ele>57.7</ele>
        <time>2015-02-16T19:57:09.665Z</time>
      </trkpt>
      <trkpt lat="48.85376" lon="2.39405">
        <ele>57.9</ele>
        <time>2015-02-16T19:57:10.684Z</time>
      </trkpt>
      <trkpt lat="48.85368" lon="2.39407">
        <ele>58.5</ele>
        <time>2015-02-16T19:57:13.668Z</time>
      </trkpt>
      <trkpt lat="48.85366" lon="2.39409">
        <ele>58.7</ele>
        <time>2015-02-16T19:57:14.666Z</time>
      </trkpt>
      <trkpt lat="48.85358" lon="2.39414">
        <ele>59.6</ele>
        <time>2015-02-16T19:57:19.655Z</time>
      </trkpt>
      <trkpt lat="48.85357" lon="2.39417">
        <ele>61.6</ele>
        <time>2015-02-16T19:57:20.670Z</time>
      </trkpt>
      <trkpt lat="48.85351" lon="2.3942">
        <ele>68.9</ele>
        <time>2015-02-16T19:57:23.700Z</time>
      </trkpt>
      <trkpt lat="48.85348" lon="2.39421">
        <ele>70.9</ele>
        <time>2015-02-16T19:57:24.705Z</time>
      </trkpt>
      <trkpt lat="48.8534" lon="2.39428">
        <ele>78.8</ele>
        <time>2015-02-16T19:57:28.635Z</time>
      </trkpt>
      <trkpt lat="48.8534" lon="2.39429">
        <ele>80.5</ele>
        <time>2015-02-16T19:57:29.660Z</time>
      </trkpt>
      <trkpt lat="48.85348" lon="2.39434">
        <ele>82.3</ele>
        <time>2015-02-16T19:57:32.664Z</time>
      </trkpt>
      <trkpt lat="48.8535" lon="2.39435">
        <ele>83</ele>
        <time>2015-02-16T19:57:33.683Z</time>
      </trkpt>
      <trkpt lat="48.85357" lon="2.39429">
        <ele>86.1</ele>
        <time>2015-02-16T19:57:40.789Z</time>
      </trkpt>
      <trkpt lat="48.85358" lon="2.39429">
        <ele>86.9</ele>
        <time>2015-02-16T19:57:41.719Z</time>
      </trkpt>
      <trkpt lat="48.85353" lon="2.39432">
        <ele>88.3</ele>
        <time>2015-02-16T19:57:43.626Z</time>
      </trkpt>
      <trkpt lat="48.85346" lon="2.39436">
        <ele>88.2</ele>
        <time>2015-02-16T19:57:44.665Z</time>
      </trkpt>
      <trkpt lat="48.8535" lon="2.39425">
        <ele>89.1</ele>
        <time>2015-02-16T19:57:52.678Z</time>
      </trkpt>
      <trkpt lat="48.85351" lon="2.39423">
        <ele>89.1</ele>
        <time>2015-02-16T19:57:53.699Z</time>
      </trkpt>
      <trkpt lat="48.85353" lon="2.39414">
        <ele>89.3</ele>
        <time>2015-02-16T19:57:56.729Z</time>
      </trkpt>
      <trkpt lat="48.85344" lon="2.39413">
        <ele>89.1</ele>
        <time>2015-02-16T19:57:57.739Z</time>
      </trkpt>
      <trkpt lat="48.85337" lon="2.39413">
        <ele>88.9</ele>
        <time>2015-02-16T19:57:58.659Z</time>
      </trkpt>
      <trkpt lat="48.85331" lon="2.39413">
        <ele>89</ele>
        <time>2015-02-16T19:57:59.669Z</time>
      </trkpt>
      <trkpt lat="48.85243" lon="2.39437">
        <ele>91.9</ele>
        <time>2015-02-16T19:58:21.646Z</time>
      </trkpt>
      <trkpt lat="48.85244" lon="2.3944">
        <ele>93.2</ele>
        <time>2015-02-16T19:58:31.647Z</time>
      </trkpt>
      <trkpt lat="48.85277" lon="2.39436">
        <ele>95.9</ele>
        <time>2015-02-16T19:58:48.660Z</time>
      </trkpt>
      <trkpt lat="48.85284" lon="2.39434">
        <ele>96.1</ele>
        <time>2015-02-16T19:58:51.699Z</time>
      </trkpt>
      <trkpt lat="48.85286" lon="2.39434">
        <ele>96</ele>
        <time>2015-02-16T19:58:52.622Z</time>
      </trkpt>
      <trkpt lat="48.85293" lon="2.39437">
        <ele>95.1</ele>
        <time>2015-02-16T19:58:56.268Z</time>
      </trkpt>
      <trkpt lat="48.85296" lon="2.39439">
        <ele>94.5</ele>
        <time>2015-02-16T19:58:57.696Z</time>
      </trkpt>
      <trkpt lat="48.85301" lon="2.39443">
        <ele>93.5</ele>
        <time>2015-02-16T19:59:01.664Z</time>
      </trkpt>
      <trkpt lat="48.85304" lon="2.39446">
        <ele>93.3</ele>
        <time>2015-02-16T19:59:03.685Z</time>
      </trkpt>
      <trkpt lat="48.85309" lon="2.39451">
        <ele>93.5</ele>
        <time>2015-02-16T19:59:05.714Z</time>
      </trkpt>
      <trkpt lat="48.85312" lon="2.39456">
        <ele>93.8</ele>
        <time>2015-02-16T19:59:06.738Z</time>
      </trkpt>
      <trkpt lat="48.85315" lon="2.39465">
        <ele>94</ele>
        <time>2015-02-16T19:59:09.487Z</time>
      </trkpt>
      <trkpt lat="48.85321" lon="2.39469">
        <ele>94.1</ele>
        <time>2015-02-16T19:59:09.741Z</time>
      </trkpt>
      <trkpt lat="48.85325" lon="2.39475">
        <ele>94.3</ele>
        <time>2015-02-16T19:59:10.630Z</time>
      </trkpt>
      <trkpt lat="48.85328" lon="2.39481">
        <ele>94.4</ele>
        <time>2015-02-16T19:59:11.628Z</time>
      </trkpt>
      <trkpt lat="48.85331" lon="2.39493">
        <ele>94.7</ele>
        <time>2015-02-16T19:59:13.609Z</time>
      </trkpt>
      <trkpt lat="48.85333" lon="2.39498">
        <ele>94.9</ele>
        <time>2015-02-16T19:59:14.615Z</time>
      </trkpt>
      <trkpt lat="48.85337" lon="2.39508">
        <ele>94.7</ele>
        <time>2015-02-16T19:59:16.660Z</time>
      </trkpt>
      <trkpt lat="48.85339" lon="2.39518">
        <ele>94.7</ele>
        <time>2015-02-16T19:59:18.679Z</time>
      </trkpt>
      <trkpt lat="48.8534" lon="2.39528">
        <ele>94.8</ele>
        <time>2015-02-16T19:59:20.700Z</time>
      </trkpt>
      <trkpt lat="48.8534" lon="2.39533">
        <ele>94.9</ele>
        <time>2015-02-16T19:59:21.617Z</time>
      </trkpt>
      <trkpt lat="48.85341" lon="2.39544">
        <ele>94.9</ele>
        <time>2015-02-16T19:59:24.727Z</time>
      </trkpt>
      <trkpt lat="48.85342" lon="2.39548">
        <ele>94.9</ele>
        <time>2015-02-16T19:59:24.773Z</time>
      </trkpt>
      <trkpt lat="48.85348" lon="2.3955">
        <ele>95.2</ele>
        <time>2015-02-16T19:59:25.651Z</time>
      </trkpt>
      <trkpt lat="48.85354" lon="2.39553">
        <ele>94.7</ele>
        <time>2015-02-16T19:59:26.654Z</time>
      </trkpt>
      <trkpt lat="48.8536" lon="2.3956">
        <ele>93.9</ele>
        <time>2015-02-16T19:59:28.694Z</time>
      </trkpt>
      <trkpt lat="48.85362" lon="2.39565">
        <ele>93.5</ele>
        <time>2015-02-16T19:59:29.706Z</time>
      </trkpt>
      <trkpt lat="48.85367" lon="2.39573">
        <ele>93.3</ele>
        <time>2015-02-16T19:59:31.641Z</time>
      </trkpt>
      <trkpt lat="48.85369" lon="2.39576">
        <ele>93.6</ele>
        <time>2015-02-16T19:59:32.735Z</time>
      </trkpt>
      <trkpt lat="48.85372" lon="2.39583">
        <ele>94</ele>
        <time>2015-02-16T19:59:35.624Z</time>
      </trkpt>
      <trkpt lat="48.85375" lon="2.39588">
        <ele>93.4</ele>
        <time>2015-02-16T19:59:35.669Z</time>
      </trkpt>
      <trkpt lat="48.85379" lon="2.39595">
        <ele>93.4</ele>
        <time>2015-02-16T19:59:37.696Z</time>
      </trkpt>
      <trkpt lat="48.85383" lon="2.39598">
        <ele>93.5</ele>
        <time>2015-02-16T19:59:38.700Z</time>
      </trkpt>
      <trkpt lat="48.85387" lon="2.39608">
        <ele>94.8</ele>
        <time>2015-02-16T19:59:40.687Z</time>
      </trkpt>
      <trkpt lat="48.85389" lon="2.3961">
        <ele>94.4</ele>
        <time>2015-02-16T19:59:41.678Z</time>
      </trkpt>
      <trkpt lat="48.85387" lon="2.3962">
        <ele>98.1</ele>
        <time>2015-02-16T19:59:50.843Z</time>
      </trkpt>
      <trkpt lat="48.85384" lon="2.39624">
        <ele>98.9</ele>
        <time>2015-02-16T19:59:51.680Z</time>
      </trkpt>
      <trkpt lat="48.85383" lon="2.39636">
        <ele>100</ele>
        <time>2015-02-16T19:59:55.916Z</time>
      </trkpt>
      <trkpt lat="48.85384" lon="2.3964">
        <ele>99.6</ele>
        <time>2015-02-16T19:59:56.661Z</time>
      </trkpt>
      <trkpt lat="48.8539" lon="2.39647">
        <ele>99</ele>
        <time>2015-02-16T19:59:58.675Z</time>
      </trkpt>
      <trkpt lat="48.85393" lon="2.39651">
        <ele>99.2</ele>
        <time>2015-02-16T19:59:59.683Z</time>
      </trkpt>
      <trkpt lat="48.85399" lon="2.39661">
        <ele>99.2</ele>
        <time>2015-02-16T20:00:01.696Z</time>
      </trkpt>
      <trkpt lat="48.85402" lon="2.39666">
        <ele>99.2</ele>
        <time>2015-02-16T20:00:02.695Z</time>
      </trkpt>
      <trkpt lat="48.85408" lon="2.39674">
        <ele>99.3</ele>
        <time>2015-02-16T20:00:04.745Z</time>
      </trkpt>
      <trkpt lat="48.8541" lon="2.39678">
        <ele>99.3</ele>
        <time>2015-02-16T20:00:05.645Z</time>
      </trkpt>
      <trkpt lat="48.85415" lon="2.39686">
        <ele>99.6</ele>
        <time>2015-02-16T20:00:07.699Z</time>
      </trkpt>
      <trkpt lat="48.85418" lon="2.39692">
        <ele>99.9</ele>
        <time>2015-02-16T20:00:08.775Z</time>
      </trkpt>
      <trkpt lat="48.8542" lon="2.39697">
        <ele>100.3</ele>
        <time>2015-02-16T20:00:09.627Z</time>
      </trkpt>
      <trkpt lat="48.85422" lon="2.39704">
        <ele>100.6</ele>
        <time>2015-02-16T20:00:10.651Z</time>
      </trkpt>
      <trkpt lat="48.85424" lon="2.3971">
        <ele>100.7</ele>
        <time>2015-02-16T20:00:11.656Z</time>
      </trkpt>
      <trkpt lat="48.85426" lon="2.39717">
        <ele>100.6</ele>
        <time>2015-02-16T20:00:12.684Z</time>
      </trkpt>
      <trkpt lat="48.85428" lon="2.39724">
        <ele>100.4</ele>
        <time>2015-02-16T20:00:13.803Z</time>
      </trkpt>
      <trkpt lat="48.8543" lon="2.39729">
        <ele>100.3</ele>
        <time>2015-02-16T20:00:14.644Z</time>
      </trkpt>
      <trkpt lat="48.85433" lon="2.3974">
        <ele>100.3</ele>
        <time>2015-02-16T20:00:16.685Z</time>
      </trkpt>
      <trkpt lat="48.85435" lon="2.39746">
        <ele>100.2</ele>
        <time>2015-02-16T20:00:17.675Z</time>
      </trkpt>
      <trkpt lat="48.85438" lon="2.39757">
        <ele>100.1</ele>
        <time>2015-02-16T20:00:19.712Z</time>
      </trkpt>
      <trkpt lat="48.8544" lon="2.39762">
        <ele>100.2</ele>
        <time>2015-02-16T20:00:20.723Z</time>
      </trkpt>
      <trkpt lat="48.85439" lon="2.39772">
        <ele>100</ele>
        <time>2015-02-16T20:00:23.707Z</time>
      </trkpt>
      <trkpt lat="48.85431" lon="2.39783">
        <ele>99.9</ele>
        <time>2015-02-16T20:00:26.740Z</time>
      </trkpt>
      <trkpt lat="48.85425" lon="2.3979">
        <ele>99.9</ele>
        <time>2015-02-16T20:00:28.755Z</time>
      </trkpt>
      <trkpt lat="48.85421" lon="2.39792">
        <ele>99.8</ele>
        <time>2015-02-16T20:00:29.687Z</time>
      </trkpt>
      <trkpt lat="48.85413" lon="2.39795">
        <ele>99.4</ele>
        <time>2015-02-16T20:00:31.717Z</time>
      </trkpt>
      <trkpt lat="48.85407" lon="2.39795">
        <ele>99</ele>
        <time>2015-02-16T20:00:32.727Z</time>
      </trkpt>
      <trkpt lat="48.85403" lon="2.39796">
        <ele>99</ele>
        <time>2015-02-16T20:00:33.641Z</time>
      </trkpt>
      <trkpt lat="48.85398" lon="2.39797">
        <ele>98.8</ele>
        <time>2015-02-16T20:00:34.649Z</time>
      </trkpt>
      <trkpt lat="48.85391" lon="2.39801">
        <ele>99.4</ele>
        <time>2015-02-16T20:00:36.684Z</time>
      </trkpt>
      <trkpt lat="48.85387" lon="2.39803">
        <ele>99.6</ele>
        <time>2015-02-16T20:00:37.708Z</time>
      </trkpt>
      <trkpt lat="48.85379" lon="2.39808">
        <ele>99.7</ele>
        <time>2015-02-16T20:00:39.649Z</time>
      </trkpt>
      <trkpt lat="48.85376" lon="2.3981">
        <ele>99.7</ele>
        <time>2015-02-16T20:00:40.731Z</time>
      </trkpt>
      <trkpt lat="48.85371" lon="2.39814">
        <ele>100</ele>
        <time>2015-02-16T20:00:41.703Z</time>
      </trkpt>
      <trkpt lat="48.85365" lon="2.39818">
        <ele>100.1</ele>
        <time>2015-02-16T20:00:42.715Z</time>
      </trkpt>
      <trkpt lat="48.85361" lon="2.3982">
        <ele>100.1</ele>
        <time>2015-02-16T20:00:43.726Z</time>
      </trkpt>
      <trkpt lat="48.85356" lon="2.39822">
        <ele>100.1</ele>
        <time>2015-02-16T20:00:44.737Z</time>
      </trkpt>
      <trkpt lat="48.85347" lon="2.39823">
        <ele>100.3</ele>
        <time>2015-02-16T20:00:46.637Z</time>
      </trkpt>
      <trkpt lat="48.85343" lon="2.39825">
        <ele>100.3</ele>
        <time>2015-02-16T20:00:47.634Z</time>
      </trkpt>
      <trkpt lat="48.85335" lon="2.39827">
        <ele>100.4</ele>
        <time>2015-02-16T20:00:51.621Z</time>
      </trkpt>
      <trkpt lat="48.85333" lon="2.39828">
        <ele>100.4</ele>
        <time>2015-02-16T20:00:52.628Z</time>
      </trkpt>
      <trkpt lat="48.85328" lon="2.39831">
        <ele>100.5</ele>
        <time>2015-02-16T20:00:54.705Z</time>
      </trkpt>
      <trkpt lat="48.8529" lon="2.39843">
        <ele>100.8</ele>
        <time>2015-02-16T20:01:03.732Z</time>
      </trkpt>
      <trkpt lat="48.85285" lon="2.39846">
        <ele>100.9</ele>
        <time>2015-02-16T20:01:04.645Z</time>
      </trkpt>
      <trkpt lat="48.8528" lon="2.39849">
        <ele>101.1</ele>
        <time>2015-02-16T20:01:05.677Z</time>
      </trkpt>
      <trkpt lat="48.8528" lon="2.39849">
        <ele>101.1</ele>
        <time>2015-02-16T20:01:05.959Z</time>
      </trkpt>
      <trkpt lat="48.8519" lon="2.39889">
        <ele>102.8</ele>
        <time>2015-02-16T20:01:24.707Z</time>
      </trkpt>
      <trkpt lat="48.85183" lon="2.39888">
        <ele>103.1</ele>
        <time>2015-02-16T20:01:26.653Z</time>
      </trkpt>
      <trkpt lat="48.85179" lon="2.39888">
        <ele>103.1</ele>
        <time>2015-02-16T20:01:27.687Z</time>
      </trkpt>
      <trkpt lat="48.85172" lon="2.39893">
        <ele>102.9</ele>
        <time>2015-02-16T20:01:30.752Z</time>
      </trkpt>
      <trkpt lat="48.85168" lon="2.39898">
        <ele>103</ele>
        <time>2015-02-16T20:01:31.649Z</time>
      </trkpt>
      <trkpt lat="48.85161" lon="2.39904">
        <ele>103</ele>
        <time>2015-02-16T20:01:32.664Z</time>
      </trkpt>
      <trkpt lat="48.85157" lon="2.39908">
        <ele>103</ele>
        <time>2015-02-16T20:01:33.675Z</time>
      </trkpt>
      <trkpt lat="48.85153" lon="2.39916">
        <ele>103.1</ele>
        <time>2015-02-16T20:01:35.708Z</time>
      </trkpt>
      <trkpt lat="48.85152" lon="2.39921">
        <ele>103.6</ele>
        <time>2015-02-16T20:01:36.736Z</time>
      </trkpt>
      <trkpt lat="48.85154" lon="2.39929">
        <ele>104.2</ele>
        <time>2015-02-16T20:01:39.686Z</time>
      </trkpt>
      <trkpt lat="48.85155" lon="2.39931">
        <ele>104.3</ele>
        <time>2015-02-16T20:01:40.699Z</time>
      </trkpt>
      <trkpt lat="48.85156" lon="2.39932">
        <ele>104.2</ele>
        <time>2015-02-16T20:01:41.725Z</time>
      </trkpt>
      <trkpt lat="48.85154" lon="2.39944">
        <ele>107.1</ele>
        <time>2015-02-16T20:01:50.686Z</time>
      </trkpt>
      <trkpt lat="48.85153" lon="2.39946">
        <ele>107.1</ele>
        <time>2015-02-16T20:01:51.691Z</time>
      </trkpt>
      <trkpt lat="48.85149" lon="2.39958">
        <ele>107.9</ele>
        <time>2015-02-16T20:01:56.650Z</time>
      </trkpt>
      <trkpt lat="48.85149" lon="2.39962">
        <ele>107.7</ele>
        <time>2015-02-16T20:01:57.668Z</time>
      </trkpt>
      <trkpt lat="48.85152" lon="2.3997">
        <ele>107.5</ele>
        <time>2015-02-16T20:01:59.653Z</time>
      </trkpt>
      <trkpt lat="48.85154" lon="2.39976">
        <ele>107.5</ele>
        <time>2015-02-16T20:02:00.656Z</time>
      </trkpt>
      <trkpt lat="48.85158" lon="2.39985">
        <ele>107.3</ele>
        <time>2015-02-16T20:02:02.679Z</time>
      </trkpt>
      <trkpt lat="48.85159" lon="2.3999">
        <ele>107.4</ele>
        <time>2015-02-16T20:02:03.706Z</time>
      </trkpt>
      <trkpt lat="48.85163" lon="2.40001">
        <ele>107.8</ele>
        <time>2015-02-16T20:02:05.660Z</time>
      </trkpt>
      <trkpt lat="48.85164" lon="2.40007">
        <ele>107.8</ele>
        <time>2015-02-16T20:02:06.686Z</time>
      </trkpt>
      <trkpt lat="48.85168" lon="2.40017">
        <ele>107.8</ele>
        <time>2015-02-16T20:02:08.702Z</time>
      </trkpt>
      <trkpt lat="48.85171" lon="2.40023">
        <ele>107.9</ele>
        <time>2015-02-16T20:02:09.723Z</time>
      </trkpt>
      <trkpt lat="48.85175" lon="2.40033">
        <ele>107.4</ele>
        <time>2015-02-16T20:02:11.651Z</time>
      </trkpt>
      <trkpt lat="48.85177" lon="2.40036">
        <ele>107</ele>
        <time>2015-02-16T20:02:12.692Z</time>
      </trkpt>
      <trkpt lat="48.85171" lon="2.40046">
        <ele>106.7</ele>
        <time>2015-02-16T20:02:17.654Z</time>
      </trkpt>
      <trkpt lat="48.8517" lon="2.40047">
        <ele>106.9</ele>
        <time>2015-02-16T20:02:18.712Z</time>
      </trkpt>
      <trkpt lat="48.85163" lon="2.40049">
        <ele>106.7</ele>
        <time>2015-02-16T20:02:21.780Z</time>
      </trkpt>
      <trkpt lat="48.8516" lon="2.4005">
        <ele>106.6</ele>
        <time>2015-02-16T20:02:22.709Z</time>
      </trkpt>
      <trkpt lat="48.85151" lon="2.40048">
        <ele>106.5</ele>
        <time>2015-02-16T20:02:25.715Z</time>
      </trkpt>
      <trkpt lat="48.8515" lon="2.40045">
        <ele>106.5</ele>
        <time>2015-02-16T20:02:26.745Z</time>
      </trkpt>
      <trkpt lat="48.85131" lon="2.40011">
        <ele>106.3</ele>
        <time>2015-02-16T20:02:42.690Z</time>
      </trkpt>
      <trkpt lat="48.85123" lon="2.40006">
        <ele>106.2</ele>
        <time>2015-02-16T20:02:44.626Z</time>
      </trkpt>
      <trkpt lat="48.8512" lon="2.40002">
        <ele>106.1</ele>
        <time>2015-02-16T20:02:45.728Z</time>
      </trkpt>
      <trkpt lat="48.85115" lon="2.39995">
        <ele>106.1</ele>
        <time>2015-02-16T20:02:47.637Z</time>
      </trkpt>
      <trkpt lat="48.85112" lon="2.39993">
        <ele>106</ele>
        <time>2015-02-16T20:02:48.683Z</time>
      </trkpt>
      <trkpt lat="48.85105" lon="2.39985">
        <ele>105.9</ele>
        <time>2015-02-16T20:02:50.728Z</time>
      </trkpt>
      <trkpt lat="48.85101" lon="2.3998">
        <ele>105.8</ele>
        <time>2015-02-16T20:02:51.764Z</time>
      </trkpt>
      <trkpt lat="48.85098" lon="2.39976">
        <ele>105.7</ele>
        <time>2015-02-16T20:02:52.646Z</time>
      </trkpt>
      <trkpt lat="48.85049" lon="2.39935">
        <ele>105.4</ele>
        <time>2015-02-16T20:03:02.694Z</time>
      </trkpt>
      <trkpt lat="48.85047" lon="2.39945">
        <ele>105.4</ele>
        <time>2015-02-16T20:03:06.685Z</time>
      </trkpt>
      <trkpt lat="48.85048" lon="2.39952">
        <ele>105.3</ele>
        <time>2015-02-16T20:03:07.689Z</time>
      </trkpt>
      <trkpt lat="48.85052" lon="2.39962">
        <ele>105.2</ele>
        <time>2015-02-16T20:03:09.727Z</time>
      </trkpt>
      <trkpt lat="48.85062" lon="2.39993">
        <ele>104.4</ele>
        <time>2015-02-16T20:03:14.684Z</time>
      </trkpt>
      <trkpt lat="48.85066" lon="2.40005">
        <ele>104.4</ele>
        <time>2015-02-16T20:03:16.627Z</time>
      </trkpt>
      <trkpt lat="48.85066" lon="2.4001">
        <ele>104.2</ele>
        <time>2015-02-16T20:03:17.664Z</time>
      </trkpt>
      <trkpt lat="48.85068" lon="2.40021">
        <ele>104.2</ele>
        <time>2015-02-16T20:03:19.706Z</time>
      </trkpt>
      <trkpt lat="48.8507" lon="2.40026">
        <ele>104.4</ele>
        <time>2015-02-16T20:03:20.722Z</time>
      </trkpt>
      <trkpt lat="48.85073" lon="2.40037">
        <ele>104.8</ele>
        <time>2015-02-16T20:03:22.654Z</time>
      </trkpt>
      <trkpt lat="48.85076" lon="2.40044">
        <ele>105.2</ele>
        <time>2015-02-16T20:03:23.762Z</time>
      </trkpt>
      <trkpt lat="48.85077" lon="2.40051">
        <ele>105.3</ele>
        <time>2015-02-16T20:03:24.680Z</time>
      </trkpt>
      <trkpt lat="48.8508" lon="2.40057">
        <ele>105.4</ele>
        <time>2015-02-16T20:03:25.685Z</time>
      </trkpt>
      <trkpt lat="48.85081" lon="2.40065">
        <ele>105.5</ele>
        <time>2015-02-16T20:03:26.705Z</time>
      </trkpt>
      <trkpt lat="48.85082" lon="2.40073">
        <ele>105.7</ele>
        <time>2015-02-16T20:03:27.716Z</time>
      </trkpt>
      <trkpt lat="48.85085" lon="2.40085">
        <ele>106.2</ele>
        <time>2015-02-16T20:03:29.646Z</time>
      </trkpt>
      <trkpt lat="48.85087" lon="2.40091">
        <ele>106.3</ele>
        <time>2015-02-16T20:03:30.702Z</time>
      </trkpt>
      <trkpt lat="48.85088" lon="2.40098">
        <ele>106.4</ele>
        <time>2015-02-16T20:03:31.669Z</time>
      </trkpt>
      <trkpt lat="48.8509" lon="2.40104">
        <ele>106.6</ele>
        <time>2015-02-16T20:03:32.660Z</time>
      </trkpt>
      <trkpt lat="48.85092" lon="2.40116">
        <ele>106.9</ele>
        <time>2015-02-16T20:03:34.716Z</time>
      </trkpt>
      <trkpt lat="48.85094" lon="2.40122">
        <ele>107.1</ele>
        <time>2015-02-16T20:03:35.734Z</time>
      </trkpt>
      <trkpt lat="48.85095" lon="2.40134">
        <ele>107.4</ele>
        <time>2015-02-16T20:03:37.687Z</time>
      </trkpt>
      <trkpt lat="48.85096" lon="2.40139">
        <ele>107.7</ele>
        <time>2015-02-16T20:03:38.697Z</time>
      </trkpt>
      <trkpt lat="48.85098" lon="2.40152">
        <ele>108.1</ele>
        <time>2015-02-16T20:03:41.647Z</time>
      </trkpt>
      <trkpt lat="48.85095" lon="2.40179">
        <ele>108.1</ele>
        <time>2015-02-16T20:03:49.714Z</time>
      </trkpt>
      <trkpt lat="48.85095" lon="2.4018">
        <ele>108.1</ele>
        <time>2015-02-16T20:03:51.579Z</time>
      </trkpt>
      <trkpt lat="48.85095" lon="2.4018">
        <ele>108.1</ele>
        <time>2015-02-16T20:03:51.630Z</time>
      </trkpt>
      <trkpt lat="48.85095" lon="2.4018">
        <ele>108</ele>
        <time>2015-02-16T20:03:52.670Z</time>
      </trkpt>
      <trkpt lat="48.85092" lon="2.40183">
        <ele>107.8</ele>
        <time>2015-02-16T20:03:56.709Z</time>
      </trkpt>
      <trkpt lat="48.84943" lon="2.40222">
        <ele>107.1</ele>
        <time>2015-02-16T20:04:22.665Z</time>
      </trkpt>
      <trkpt lat="48.84935" lon="2.40224">
        <ele>106.3</ele>
        <time>2015-02-16T20:04:24.695Z</time>
      </trkpt>
      <trkpt lat="48.84931" lon="2.40226">
        <ele>106.1</ele>
        <time>2015-02-16T20:04:25.730Z</time>
      </trkpt>
      <trkpt lat="48.84926" lon="2.40227">
        <ele>106.3</ele>
        <time>2015-02-16T20:04:26.633Z</time>
      </trkpt>
      <trkpt lat="48.84922" lon="2.40228">
        <ele>106.1</ele>
        <time>2015-02-16T20:04:27.643Z</time>
      </trkpt>
      <trkpt lat="48.84916" lon="2.40233">
        <ele>105.5</ele>
        <time>2015-02-16T20:04:29.693Z</time>
      </trkpt>
      <trkpt lat="48.84913" lon="2.40236">
        <ele>105.4</ele>
        <time>2015-02-16T20:04:30.763Z</time>
      </trkpt>
      <trkpt lat="48.84906" lon="2.40241">
        <ele>105.2</ele>
        <time>2015-02-16T20:04:32.680Z</time>
      </trkpt>
      <trkpt lat="48.84903" lon="2.40242">
        <ele>105.1</ele>
        <time>2015-02-16T20:04:33.704Z</time>
      </trkpt>
      <trkpt lat="48.84896" lon="2.40247">
        <ele>104.7</ele>
        <time>2015-02-16T20:04:37.743Z</time>
      </trkpt>
      <trkpt lat="48.84896" lon="2.40252">
        <ele>105.2</ele>
        <time>2015-02-16T20:04:38.657Z</time>
      </trkpt>
      <trkpt lat="48.84898" lon="2.40261">
        <ele>105.5</ele>
        <time>2015-02-16T20:04:40.692Z</time>
      </trkpt>
      <trkpt lat="48.84899" lon="2.40266">
        <ele>105.8</ele>
        <time>2015-02-16T20:04:41.723Z</time>
      </trkpt>
      <trkpt lat="48.84901" lon="2.40275">
        <ele>107</ele>
        <time>2015-02-16T20:04:43.640Z</time>
      </trkpt>
      <trkpt lat="48.84903" lon="2.4028">
        <ele>107.7</ele>
        <time>2015-02-16T20:04:44.656Z</time>
      </trkpt>
      <trkpt lat="48.84905" lon="2.4029">
        <ele>108</ele>
        <time>2015-02-16T20:04:46.688Z</time>
      </trkpt>
      <trkpt lat="48.84906" lon="2.40296">
        <ele>106.9</ele>
        <time>2015-02-16T20:04:47.700Z</time>
      </trkpt>
      <trkpt lat="48.84908" lon="2.40308">
        <ele>106.4</ele>
        <time>2015-02-16T20:04:49.646Z</time>
      </trkpt>
      <trkpt lat="48.84909" lon="2.40313">
        <ele>105.9</ele>
        <time>2015-02-16T20:04:50.639Z</time>
      </trkpt>
      <trkpt lat="48.84912" lon="2.40321">
        <ele>106.3</ele>
        <time>2015-02-16T20:04:52.678Z</time>
      </trkpt>
      <trkpt lat="48.84912" lon="2.40326">
        <ele>106.6</ele>
        <time>2015-02-16T20:04:53.684Z</time>
      </trkpt>
      <trkpt lat="48.84914" lon="2.40336">
        <ele>106.6</ele>
        <time>2015-02-16T20:04:55.684Z</time>
      </trkpt>
      <trkpt lat="48.84914" lon="2.40341">
        <ele>106.7</ele>
        <time>2015-02-16T20:04:56.695Z</time>
      </trkpt>
      <trkpt lat="48.84915" lon="2.40353">
        <ele>106.8</ele>
        <time>2015-02-16T20:04:58.724Z</time>
      </trkpt>
      <trkpt lat="48.84915" lon="2.40359">
        <ele>106.8</ele>
        <time>2015-02-16T20:04:59.736Z</time>
      </trkpt>
      <trkpt lat="48.84917" lon="2.40371">
        <ele>106.8</ele>
        <time>2015-02-16T20:05:01.685Z</time>
      </trkpt>
      <trkpt lat="48.84917" lon="2.40377">
        <ele>106.5</ele>
        <time>2015-02-16T20:05:02.693Z</time>
      </trkpt>
      <trkpt lat="48.84915" lon="2.40384">
        <ele>106.2</ele>
        <time>2015-02-16T20:05:03.749Z</time>
      </trkpt>
      <trkpt lat="48.84913" lon="2.40391">
        <ele>105</ele>
        <time>2015-02-16T20:05:04.652Z</time>
      </trkpt>
      <trkpt lat="48.84912" lon="2.40399">
        <ele>103.9</ele>
        <time>2015-02-16T20:05:05.709Z</time>
      </trkpt>
      <trkpt lat="48.84911" lon="2.40406">
        <ele>103.4</ele>
        <time>2015-02-16T20:05:06.717Z</time>
      </trkpt>
      <trkpt lat="48.84907" lon="2.40412">
        <ele>103.1</ele>
        <time>2015-02-16T20:05:07.642Z</time>
      </trkpt>
      <trkpt lat="48.849" lon="2.40417">
        <ele>102.3</ele>
        <time>2015-02-16T20:05:08.647Z</time>
      </trkpt>
      <trkpt lat="48.84892" lon="2.40419">
        <ele>102</ele>
        <time>2015-02-16T20:05:10.659Z</time>
      </trkpt>
      <trkpt lat="48.84888" lon="2.40419">
        <ele>101.8</ele>
        <time>2015-02-16T20:05:11.678Z</time>
      </trkpt>
      <trkpt lat="48.84881" lon="2.40418">
        <ele>101.6</ele>
        <time>2015-02-16T20:05:13.722Z</time>
      </trkpt>
      <trkpt lat="48.84878" lon="2.40417">
        <ele>101.7</ele>
        <time>2015-02-16T20:05:14.654Z</time>
      </trkpt>
      <trkpt lat="48.84872" lon="2.40416">
        <ele>101.3</ele>
        <time>2015-02-16T20:05:16.737Z</time>
      </trkpt>
      <trkpt lat="48.84869" lon="2.40417">
        <ele>101.3</ele>
        <time>2015-02-16T20:05:17.622Z</time>
      </trkpt>
      <trkpt lat="48.84863" lon="2.40419">
        <ele>100.8</ele>
        <time>2015-02-16T20:05:20.545Z</time>
      </trkpt>
      <trkpt lat="48.84855" lon="2.4042">
        <ele>100.3</ele>
        <time>2015-02-16T20:05:21.682Z</time>
      </trkpt>
      <trkpt lat="48.84848" lon="2.4042">
        <ele>99.7</ele>
        <time>2015-02-16T20:05:23.622Z</time>
      </trkpt>
      <trkpt lat="48.84844" lon="2.40421">
        <ele>99.5</ele>
        <time>2015-02-16T20:05:24.687Z</time>
      </trkpt>
      <trkpt lat="48.84836" lon="2.40422">
        <ele>99</ele>
        <time>2015-02-16T20:05:27.717Z</time>
      </trkpt>
      <trkpt lat="48.84833" lon="2.4042">
        <ele>98.9</ele>
        <time>2015-02-16T20:05:28.615Z</time>
      </trkpt>
      <trkpt lat="48.84819" lon="2.40419">
        <ele>97.7</ele>
        <time>2015-02-16T20:05:32.710Z</time>
      </trkpt>
      <trkpt lat="48.84813" lon="2.40411">
        <ele>97.2</ele>
        <time>2015-02-16T20:05:36.720Z</time>
      </trkpt>
      <trkpt lat="48.84813" lon="2.40408">
        <ele>96.9</ele>
        <time>2015-02-16T20:05:37.639Z</time>
      </trkpt>
      <trkpt lat="48.84811" lon="2.40396">
        <ele>95.9</ele>
        <time>2015-02-16T20:05:41.690Z</time>
      </trkpt>
      <trkpt lat="48.8481" lon="2.40393">
        <ele>95.7</ele>
        <time>2015-02-16T20:05:42.690Z</time>
      </trkpt>
      <trkpt lat="48.84807" lon="2.40384">
        <ele>95.3</ele>
        <time>2015-02-16T20:05:45.771Z</time>
      </trkpt>
      <trkpt lat="48.84806" lon="2.4038">
        <ele>95</ele>
        <time>2015-02-16T20:05:46.660Z</time>
      </trkpt>
      <trkpt lat="48.84797" lon="2.40379">
        <ele>96</ele>
        <time>2015-02-16T20:05:53.668Z</time>
      </trkpt>
      <trkpt lat="48.84796" lon="2.40378">
        <ele>96.1</ele>
        <time>2015-02-16T20:05:54.704Z</time>
      </trkpt>
      <trkpt lat="48.84787" lon="2.40375">
        <ele>96.8</ele>
        <time>2015-02-16T20:06:31.746Z</time>
      </trkpt>
      <trkpt lat="48.84786" lon="2.40374">
        <ele>97</ele>
        <time>2015-02-16T20:06:32.637Z</time>
      </trkpt>
      <trkpt lat="48.84781" lon="2.40365">
        <ele>97.4</ele>
        <time>2015-02-16T20:06:38.634Z</time>
      </trkpt>
      <trkpt lat="48.8478" lon="2.40363">
        <ele>97.6</ele>
        <time>2015-02-16T20:06:39.650Z</time>
      </trkpt>
      <trkpt lat="48.84773" lon="2.40354">
        <ele>98.4</ele>
        <time>2015-02-16T20:06:45.646Z</time>
      </trkpt>
      <trkpt lat="48.84771" lon="2.40353">
        <ele>98.7</ele>
        <time>2015-02-16T20:06:45.731Z</time>
      </trkpt>
      <trkpt lat="48.84765" lon="2.40346">
        <ele>99.7</ele>
        <time>2015-02-16T20:06:50.913Z</time>
      </trkpt>
      <trkpt lat="48.84764" lon="2.40344">
        <ele>99.9</ele>
        <time>2015-02-16T20:06:51.641Z</time>
      </trkpt>
      <trkpt lat="48.84756" lon="2.40341">
        <ele>100.4</ele>
        <time>2015-02-16T20:06:56.737Z</time>
      </trkpt>
      <trkpt lat="48.84755" lon="2.40341">
        <ele>100.4</ele>
        <time>2015-02-16T20:06:57.749Z</time>
      </trkpt>
      <trkpt lat="48.84749" lon="2.40345">
        <ele>100.4</ele>
        <time>2015-02-16T20:07:02.698Z</time>
      </trkpt>
      <trkpt lat="48.84746" lon="2.40345">
        <ele>100.4</ele>
        <time>2015-02-16T20:07:03.713Z</time>
      </trkpt>
      <trkpt lat="48.84739" lon="2.40345">
        <ele>100.2</ele>
        <time>2015-02-16T20:07:06.689Z</time>
      </trkpt>
      <trkpt lat="48.84736" lon="2.40344">
        <ele>100.3</ele>
        <time>2015-02-16T20:07:07.719Z</time>
      </trkpt>
      <trkpt lat="48.84728" lon="2.4034">
        <ele>100.4</ele>
        <time>2015-02-16T20:07:09.648Z</time>
      </trkpt>
      <trkpt lat="48.84723" lon="2.40337">
        <ele>100.4</ele>
        <time>2015-02-16T20:07:10.659Z</time>
      </trkpt>
      <trkpt lat="48.84718" lon="2.40335">
        <ele>100.4</ele>
        <time>2015-02-16T20:07:11.685Z</time>
      </trkpt>
      <trkpt lat="48.84712" lon="2.40334">
        <ele>100.2</ele>
        <time>2015-02-16T20:07:12.710Z</time>
      </trkpt>
      <trkpt lat="48.84707" lon="2.40332">
        <ele>100.1</ele>
        <time>2015-02-16T20:07:13.613Z</time>
      </trkpt>
      <trkpt lat="48.84702" lon="2.40331">
        <ele>100.1</ele>
        <time>2015-02-16T20:07:14.668Z</time>
      </trkpt>
      <trkpt lat="48.84698" lon="2.4033">
        <ele>100.2</ele>
        <time>2015-02-16T20:07:16.229Z</time>
      </trkpt>
      <trkpt lat="48.84693" lon="2.4033">
        <ele>100.2</ele>
        <time>2015-02-16T20:07:16.690Z</time>
      </trkpt>
      <trkpt lat="48.84684" lon="2.4033">
        <ele>100.1</ele>
        <time>2015-02-16T20:07:18.719Z</time>
      </trkpt>
      <trkpt lat="48.84681" lon="2.4033">
        <ele>100.2</ele>
        <time>2015-02-16T20:07:19.642Z</time>
      </trkpt>
      <trkpt lat="48.84673" lon="2.40328">
        <ele>100.3</ele>
        <time>2015-02-16T20:07:21.689Z</time>
      </trkpt>
      <trkpt lat="48.84668" lon="2.40326">
        <ele>100.4</ele>
        <time>2015-02-16T20:07:22.698Z</time>
      </trkpt>
      <trkpt lat="48.84661" lon="2.40327">
        <ele>100.3</ele>
        <time>2015-02-16T20:07:24.663Z</time>
      </trkpt>
      <trkpt lat="48.84569" lon="2.40305">
        <ele>101</ele>
        <time>2015-02-16T20:07:47.742Z</time>
      </trkpt>
      <trkpt lat="48.84563" lon="2.40299">
        <ele>101.2</ele>
        <time>2015-02-16T20:07:49.717Z</time>
      </trkpt>
      <trkpt lat="48.84559" lon="2.40297">
        <ele>101.1</ele>
        <time>2015-02-16T20:07:50.755Z</time>
      </trkpt>
      <trkpt lat="48.84556" lon="2.40294">
        <ele>101.1</ele>
        <time>2015-02-16T20:07:51.773Z</time>
      </trkpt>
      <trkpt lat="48.84516" lon="2.40271">
        <ele>101.3</ele>
        <time>2015-02-16T20:08:00.632Z</time>
      </trkpt>
      <trkpt lat="48.84509" lon="2.40264">
        <ele>101.5</ele>
        <time>2015-02-16T20:08:02.697Z</time>
      </trkpt>
      <trkpt lat="48.84507" lon="2.40259">
        <ele>101.5</ele>
        <time>2015-02-16T20:08:03.710Z</time>
      </trkpt>
      <trkpt lat="48.84508" lon="2.40247">
        <ele>101.3</ele>
        <time>2015-02-16T20:08:05.652Z</time>
      </trkpt>
      <trkpt lat="48.84509" lon="2.40242">
        <ele>101.3</ele>
        <time>2015-02-16T20:08:06.670Z</time>
      </trkpt>
      <trkpt lat="48.84511" lon="2.40232">
        <ele>101.6</ele>
        <time>2015-02-16T20:08:08.681Z</time>
      </trkpt>
      <trkpt lat="48.84511" lon="2.40227">
        <ele>102</ele>
        <time>2015-02-16T20:08:09.706Z</time>
      </trkpt>
      <trkpt lat="48.8451" lon="2.40216">
        <ele>102.5</ele>
        <time>2015-02-16T20:08:12.753Z</time>
      </trkpt>
      <trkpt lat="48.8451" lon="2.40212">
        <ele>102.5</ele>
        <time>2015-02-16T20:08:13.660Z</time>
      </trkpt>
      <trkpt lat="48.84505" lon="2.40202">
        <ele>103.1</ele>
        <time>2015-02-16T20:08:16.701Z</time>
      </trkpt>
      <trkpt lat="48.84501" lon="2.40198">
        <ele>103.2</ele>
        <time>2015-02-16T20:08:17.725Z</time>
      </trkpt>
      <trkpt lat="48.84495" lon="2.40195">
        <ele>103.4</ele>
        <time>2015-02-16T20:08:19.669Z</time>
      </trkpt>
      <trkpt lat="48.84491" lon="2.40195">
        <ele>103.5</ele>
        <time>2015-02-16T20:08:20.672Z</time>
      </trkpt>
      <trkpt lat="48.84484" lon="2.40195">
        <ele>103.6</ele>
        <time>2015-02-16T20:08:22.710Z</time>
      </trkpt>
      <trkpt lat="48.84481" lon="2.40193">
        <ele>103.7</ele>
        <time>2015-02-16T20:08:23.750Z</time>
      </trkpt>
      <trkpt lat="48.84473" lon="2.40189">
        <ele>104.1</ele>
        <time>2015-02-16T20:08:25.655Z</time>
      </trkpt>
      <trkpt lat="48.84468" lon="2.40187">
        <ele>104.2</ele>
        <time>2015-02-16T20:08:26.668Z</time>
      </trkpt>
      <trkpt lat="48.84461" lon="2.40183">
        <ele>104.2</ele>
        <time>2015-02-16T20:08:28.640Z</time>
      </trkpt>
      <trkpt lat="48.84456" lon="2.40182">
        <ele>104.1</ele>
        <time>2015-02-16T20:08:29.652Z</time>
      </trkpt>
      <trkpt lat="48.84452" lon="2.4018">
        <ele>104.2</ele>
        <time>2015-02-16T20:08:30.690Z</time>
      </trkpt>
      <trkpt lat="48.84448" lon="2.40177">
        <ele>104.3</ele>
        <time>2015-02-16T20:08:31.702Z</time>
      </trkpt>
      <trkpt lat="48.84439" lon="2.40173">
        <ele>104.3</ele>
        <time>2015-02-16T20:08:33.723Z</time>
      </trkpt>
      <trkpt lat="48.84435" lon="2.40172">
        <ele>104.1</ele>
        <time>2015-02-16T20:08:34.752Z</time>
      </trkpt>
      <trkpt lat="48.84427" lon="2.4017">
        <ele>103.7</ele>
        <time>2015-02-16T20:08:36.680Z</time>
      </trkpt>
      <trkpt lat="48.84423" lon="2.40169">
        <ele>103.6</ele>
        <time>2015-02-16T20:08:37.679Z</time>
      </trkpt>
      <trkpt lat="48.84414" lon="2.40166">
        <ele>103.2</ele>
        <time>2015-02-16T20:08:39.636Z</time>
      </trkpt>
      <trkpt lat="48.8441" lon="2.40165">
        <ele>103.2</ele>
        <time>2015-02-16T20:08:40.650Z</time>
      </trkpt>
      <trkpt lat="48.84405" lon="2.40164">
        <ele>103.3</ele>
        <time>2015-02-16T20:08:41.661Z</time>
      </trkpt>
      <trkpt lat="48.84401" lon="2.40162">
        <ele>103.3</ele>
        <time>2015-02-16T20:08:42.694Z</time>
      </trkpt>
      <trkpt lat="48.84396" lon="2.40161">
        <ele>103.3</ele>
        <time>2015-02-16T20:08:43.735Z</time>
      </trkpt>
      <trkpt lat="48.84392" lon="2.40159">
        <ele>103.3</ele>
        <time>2015-02-16T20:08:44.640Z</time>
      </trkpt>
      <trkpt lat="48.84387" lon="2.40158">
        <ele>103.3</ele>
        <time>2015-02-16T20:08:45.656Z</time>
      </trkpt>
      <trkpt lat="48.84382" lon="2.40156">
        <ele>103.4</ele>
        <time>2015-02-16T20:08:46.700Z</time>
      </trkpt>
      <trkpt lat="48.84377" lon="2.40154">
        <ele>103.3</ele>
        <time>2015-02-16T20:08:47.747Z</time>
      </trkpt>
      <trkpt lat="48.84373" lon="2.40153">
        <ele>103.4</ele>
        <time>2015-02-16T20:08:48.725Z</time>
      </trkpt>
      <trkpt lat="48.84364" lon="2.4015">
        <ele>103.5</ele>
        <time>2015-02-16T20:08:50.653Z</time>
      </trkpt>
      <trkpt lat="48.8436" lon="2.40149">
        <ele>103.7</ele>
        <time>2015-02-16T20:08:51.654Z</time>
      </trkpt>
      <trkpt lat="48.84352" lon="2.40146">
        <ele>103.6</ele>
        <time>2015-02-16T20:08:53.704Z</time>
      </trkpt>
      <trkpt lat="48.84348" lon="2.40145">
        <ele>103.7</ele>
        <time>2015-02-16T20:08:54.717Z</time>
      </trkpt>
      <trkpt lat="48.8434" lon="2.40143">
        <ele>103.9</ele>
        <time>2015-02-16T20:08:56.666Z</time>
      </trkpt>
      <trkpt lat="48.84335" lon="2.40142">
        <ele>103.9</ele>
        <time>2015-02-16T20:08:57.681Z</time>
      </trkpt>
      <trkpt lat="48.8433" lon="2.40141">
        <ele>104.1</ele>
        <time>2015-02-16T20:08:58.706Z</time>
      </trkpt>
      <trkpt lat="48.84325" lon="2.4014">
        <ele>104.6</ele>
        <time>2015-02-16T20:08:59.716Z</time>
      </trkpt>
      <trkpt lat="48.84321" lon="2.40138">
        <ele>105.3</ele>
        <time>2015-02-16T20:09:00.691Z</time>
      </trkpt>
      <trkpt lat="48.84316" lon="2.40136">
        <ele>105.8</ele>
        <time>2015-02-16T20:09:01.689Z</time>
      </trkpt>
      <trkpt lat="48.84311" lon="2.40135">
        <ele>106.4</ele>
        <time>2015-02-16T20:09:02.700Z</time>
      </trkpt>
      <trkpt lat="48.84306" lon="2.40134">
        <ele>106.9</ele>
        <time>2015-02-16T20:09:03.706Z</time>
      </trkpt>
      <trkpt lat="48.84301" lon="2.40133">
        <ele>106.9</ele>
        <time>2015-02-16T20:09:04.638Z</time>
      </trkpt>
      <trkpt lat="48.84297" lon="2.40132">
        <ele>106.8</ele>
        <time>2015-02-16T20:09:05.648Z</time>
      </trkpt>
      <trkpt lat="48.84292" lon="2.4013">
        <ele>106.6</ele>
        <time>2015-02-16T20:09:06.695Z</time>
      </trkpt>
      <trkpt lat="48.84287" lon="2.40128">
        <ele>106.5</ele>
        <time>2015-02-16T20:09:07.707Z</time>
      </trkpt>
      <trkpt lat="48.84283" lon="2.40126">
        <ele>106.3</ele>
        <time>2015-02-16T20:09:08.645Z</time>
      </trkpt>
      <trkpt lat="48.84278" lon="2.40125">
        <ele>106.3</ele>
        <time>2015-02-16T20:09:09.646Z</time>
      </trkpt>
      <trkpt lat="48.84269" lon="2.40121">
        <ele>106.2</ele>
        <time>2015-02-16T20:09:11.654Z</time>
      </trkpt>
      <trkpt lat="48.84265" lon="2.40119">
        <ele>106</ele>
        <time>2015-02-16T20:09:12.782Z</time>
      </trkpt>
      <trkpt lat="48.84257" lon="2.40115">
        <ele>105.9</ele>
        <time>2015-02-16T20:09:14.654Z</time>
      </trkpt>
      <trkpt lat="48.84253" lon="2.40113">
        <ele>105.8</ele>
        <time>2015-02-16T20:09:15.749Z</time>
      </trkpt>
      <trkpt lat="48.84248" lon="2.40111">
        <ele>105.7</ele>
        <time>2015-02-16T20:09:16.653Z</time>
      </trkpt>
      <trkpt lat="48.84244" lon="2.40109">
        <ele>105.7</ele>
        <time>2015-02-16T20:09:17.683Z</time>
      </trkpt>
      <trkpt lat="48.84236" lon="2.40104">
        <ele>105.6</ele>
        <time>2015-02-16T20:09:19.684Z</time>
      </trkpt>
      <trkpt lat="48.84231" lon="2.40103">
        <ele>105.4</ele>
        <time>2015-02-16T20:09:20.696Z</time>
      </trkpt>
      <trkpt lat="48.84224" lon="2.40099">
        <ele>105.3</ele>
        <time>2015-02-16T20:09:22.715Z</time>
      </trkpt>
      <trkpt lat="48.8422" lon="2.40097">
        <ele>105.3</ele>
        <time>2015-02-16T20:09:23.730Z</time>
      </trkpt>
      <trkpt lat="48.84212" lon="2.40093">
        <ele>105.5</ele>
        <time>2015-02-16T20:09:25.692Z</time>
      </trkpt>
      <trkpt lat="48.84208" lon="2.40091">
        <ele>105.5</ele>
        <time>2015-02-16T20:09:26.690Z</time>
      </trkpt>
      <trkpt lat="48.84199" lon="2.40089">
        <ele>105.6</ele>
        <time>2015-02-16T20:09:28.827Z</time>
      </trkpt>
      <trkpt lat="48.84195" lon="2.40087">
        <ele>105.7</ele>
        <time>2015-02-16T20:09:29.725Z</time>
      </trkpt>
      <trkpt lat="48.84187" lon="2.40083">
        <ele>105.7</ele>
        <time>2015-02-16T20:09:32.473Z</time>
      </trkpt>
      <trkpt lat="48.84183" lon="2.40082">
        <ele>105.7</ele>
        <time>2015-02-16T20:09:32.626Z</time>
      </trkpt>
      <trkpt lat="48.84175" lon="2.40077">
        <ele>105.7</ele>
        <time>2015-02-16T20:09:35.504Z</time>
      </trkpt>
      <trkpt lat="48.8417" lon="2.40075">
        <ele>105.6</ele>
        <time>2015-02-16T20:09:35.723Z</time>
      </trkpt>
      <trkpt lat="48.84165" lon="2.40073">
        <ele>105.7</ele>
        <time>2015-02-16T20:09:36.743Z</time>
      </trkpt>
      <trkpt lat="48.84161" lon="2.40071">
        <ele>105.6</ele>
        <time>2015-02-16T20:09:37.653Z</time>
      </trkpt>
      <trkpt lat="48.84156" lon="2.4007">
        <ele>105.7</ele>
        <time>2015-02-16T20:09:38.659Z</time>
      </trkpt>
      <trkpt lat="48.84151" lon="2.4007">
        <ele>106</ele>
        <time>2015-02-16T20:09:39.667Z</time>
      </trkpt>
      <trkpt lat="48.84146" lon="2.40069">
        <ele>106.3</ele>
        <time>2015-02-16T20:09:40.690Z</time>
      </trkpt>
      <trkpt lat="48.84141" lon="2.40068">
        <ele>106.5</ele>
        <time>2015-02-16T20:09:41.704Z</time>
      </trkpt>
      <trkpt lat="48.84133" lon="2.40065">
        <ele>106.8</ele>
        <time>2015-02-16T20:09:43.724Z</time>
      </trkpt>
      <trkpt lat="48.84128" lon="2.40065">
        <ele>106.8</ele>
        <time>2015-02-16T20:09:44.729Z</time>
      </trkpt>
      <trkpt lat="48.84124" lon="2.40064">
        <ele>107</ele>
        <time>2015-02-16T20:09:45.755Z</time>
      </trkpt>
      <trkpt lat="48.84119" lon="2.40062">
        <ele>107.2</ele>
        <time>2015-02-16T20:09:46.673Z</time>
      </trkpt>
      <trkpt lat="48.84113" lon="2.4006">
        <ele>108.6</ele>
        <time>2015-02-16T20:09:47.671Z</time>
      </trkpt>
      <trkpt lat="48.84106" lon="2.40057">
        <ele>112</ele>
        <time>2015-02-16T20:09:48.686Z</time>
      </trkpt>
      <trkpt lat="48.84101" lon="2.40055">
        <ele>112.3</ele>
        <time>2015-02-16T20:09:49.704Z</time>
      </trkpt>
      <trkpt lat="48.84096" lon="2.40053">
        <ele>112.4</ele>
        <time>2015-02-16T20:09:50.771Z</time>
      </trkpt>
      <trkpt lat="48.84092" lon="2.4005">
        <ele>112.1</ele>
        <time>2015-02-16T20:09:51.619Z</time>
      </trkpt>
      <trkpt lat="48.84088" lon="2.40047">
        <ele>111.9</ele>
        <time>2015-02-16T20:09:52.677Z</time>
      </trkpt>
      <trkpt lat="48.84083" lon="2.40045">
        <ele>111.6</ele>
        <time>2015-02-16T20:09:53.699Z</time>
      </trkpt>
      <trkpt lat="48.84079" lon="2.40043">
        <ele>111.4</ele>
        <time>2015-02-16T20:09:54.706Z</time>
      </trkpt>
      <trkpt lat="48.84074" lon="2.40042">
        <ele>111.2</ele>
        <time>2015-02-16T20:09:55.775Z</time>
      </trkpt>
      <trkpt lat="48.84069" lon="2.40042">
        <ele>111</ele>
        <time>2015-02-16T20:09:56.734Z</time>
      </trkpt>
      <trkpt lat="48.84064" lon="2.4004">
        <ele>110.9</ele>
        <time>2015-02-16T20:09:57.636Z</time>
      </trkpt>
      <trkpt lat="48.8406" lon="2.40038">
        <ele>110.9</ele>
        <time>2015-02-16T20:09:58.687Z</time>
      </trkpt>
      <trkpt lat="48.84055" lon="2.40037">
        <ele>110.9</ele>
        <time>2015-02-16T20:09:59.651Z</time>
      </trkpt>
      <trkpt lat="48.84051" lon="2.40035">
        <ele>110.7</ele>
        <time>2015-02-16T20:10:00.681Z</time>
      </trkpt>
      <trkpt lat="48.84046" lon="2.40033">
        <ele>110.5</ele>
        <time>2015-02-16T20:10:01.688Z</time>
      </trkpt>
      <trkpt lat="48.84042" lon="2.40031">
        <ele>110.3</ele>
        <time>2015-02-16T20:10:02.694Z</time>
      </trkpt>
      <trkpt lat="48.84035" lon="2.40027">
        <ele>109.8</ele>
        <time>2015-02-16T20:10:04.732Z</time>
      </trkpt>
      <trkpt lat="48.84031" lon="2.40026">
        <ele>109.6</ele>
        <time>2015-02-16T20:10:05.673Z</time>
      </trkpt>
      <trkpt lat="48.84023" lon="2.40023">
        <ele>109.5</ele>
        <time>2015-02-16T20:10:07.647Z</time>
      </trkpt>
      <trkpt lat="48.8402" lon="2.40022">
        <ele>109.5</ele>
        <time>2015-02-16T20:10:08.646Z</time>
      </trkpt>
      <trkpt lat="48.84012" lon="2.4002">
        <ele>109.6</ele>
        <time>2015-02-16T20:10:10.889Z</time>
      </trkpt>
      <trkpt lat="48.84008" lon="2.40019">
        <ele>109.8</ele>
        <time>2015-02-16T20:10:11.729Z</time>
      </trkpt>
      <trkpt lat="48.84002" lon="2.40016">
        <ele>110.1</ele>
        <time>2015-02-16T20:10:13.644Z</time>
      </trkpt>
      <trkpt lat="48.83999" lon="2.40014">
        <ele>110</ele>
        <time>2015-02-16T20:10:14.650Z</time>
      </trkpt>
      <trkpt lat="48.83993" lon="2.40006">
        <ele>110.3</ele>
        <time>2015-02-16T20:10:18.080Z</time>
      </trkpt>
      <trkpt lat="48.83992" lon="2.40004">
        <ele>110.6</ele>
        <time>2015-02-16T20:10:18.687Z</time>
      </trkpt>
      <trkpt lat="48.83985" lon="2.4">
        <ele>111.8</ele>
        <time>2015-02-16T20:10:24.714Z</time>
      </trkpt>
      <trkpt lat="48.83986" lon="2.39999">
        <ele>111.8</ele>
        <time>2015-02-16T20:10:25.732Z</time>
      </trkpt>
      <trkpt lat="48.83986" lon="2.39999">
        <ele>111.8</ele>
        <time>2015-02-16T20:10:26.133Z</time>
      </trkpt>
      <trkpt lat="48.83986" lon="2.39999">
        <ele>111.7</ele>
        <time>2015-02-16T20:10:26.642Z</time>
      </trkpt>
      <trkpt lat="48.83991" lon="2.39996">
        <ele>111</ele>
        <time>2015-02-16T20:10:31.670Z</time>
      </trkpt>
      <trkpt lat="48.83992" lon="2.39994">
        <ele>110.4</ele>
        <time>2015-02-16T20:10:32.841Z</time>
      </trkpt>
      <trkpt lat="48.83993" lon="2.39994">
        <ele>110.1</ele>
        <time>2015-02-16T20:10:50.767Z</time>
      </trkpt>
      <trkpt lat="48.83998" lon="2.39988">
        <ele>106.7</ele>
        <time>2015-02-16T20:10:51.655Z</time>
      </trkpt>
      <trkpt lat="48.83991" lon="2.39982">
        <ele>105.6</ele>
        <time>2015-02-16T20:10:59.696Z</time>
      </trkpt>
      <trkpt lat="48.8399" lon="2.39981">
        <ele>105.5</ele>
        <time>2015-02-16T20:11:00.713Z</time>
      </trkpt>
      <trkpt lat="48.83988" lon="2.3997">
        <ele>105.7</ele>
        <time>2015-02-16T20:11:04.694Z</time>
      </trkpt>
      <trkpt lat="48.83988" lon="2.39966">
        <ele>105.7</ele>
        <time>2015-02-16T20:11:05.700Z</time>
      </trkpt>
      <trkpt lat="48.83988" lon="2.39955">
        <ele>105.6</ele>
        <time>2015-02-16T20:11:07.725Z</time>
      </trkpt>
      <trkpt lat="48.83988" lon="2.39949">
        <ele>105.7</ele>
        <time>2015-02-16T20:11:08.741Z</time>
      </trkpt>
      <trkpt lat="48.83987" lon="2.39937">
        <ele>106.1</ele>
        <time>2015-02-16T20:11:10.639Z</time>
      </trkpt>
      <trkpt lat="48.83986" lon="2.39931">
        <ele>106</ele>
        <time>2015-02-16T20:11:11.653Z</time>
      </trkpt>
      <trkpt lat="48.83985" lon="2.3992">
        <ele>106.1</ele>
        <time>2015-02-16T20:11:13.650Z</time>
      </trkpt>
      <trkpt lat="48.83984" lon="2.39914">
        <ele>106</ele>
        <time>2015-02-16T20:11:14.666Z</time>
      </trkpt>
      <trkpt lat="48.83984" lon="2.39901">
        <ele>106</ele>
        <time>2015-02-16T20:11:16.754Z</time>
      </trkpt>
      <trkpt lat="48.83984" lon="2.39894">
        <ele>106</ele>
        <time>2015-02-16T20:11:17.648Z</time>
      </trkpt>
      <trkpt lat="48.83983" lon="2.39883">
        <ele>105.8</ele>
        <time>2015-02-16T20:11:19.678Z</time>
      </trkpt>
      <trkpt lat="48.83981" lon="2.39878">
        <ele>106.1</ele>
        <time>2015-02-16T20:11:20.689Z</time>
      </trkpt>
      <trkpt lat="48.8398" lon="2.39872">
        <ele>106.1</ele>
        <time>2015-02-16T20:11:21.705Z</time>
      </trkpt>
      <trkpt lat="48.83979" lon="2.39865">
        <ele>106</ele>
        <time>2015-02-16T20:11:22.708Z</time>
      </trkpt>
      <trkpt lat="48.83979" lon="2.39852">
        <ele>106.3</ele>
        <time>2015-02-16T20:11:24.728Z</time>
      </trkpt>
      <trkpt lat="48.83979" lon="2.39846">
        <ele>106.4</ele>
        <time>2015-02-16T20:11:25.637Z</time>
      </trkpt>
      <trkpt lat="48.83979" lon="2.39839">
        <ele>106.4</ele>
        <time>2015-02-16T20:11:26.654Z</time>
      </trkpt>
      <trkpt lat="48.8398" lon="2.39831">
        <ele>106.5</ele>
        <time>2015-02-16T20:11:27.662Z</time>
      </trkpt>
      <trkpt lat="48.83981" lon="2.39823">
        <ele>106.5</ele>
        <time>2015-02-16T20:11:28.679Z</time>
      </trkpt>
      <trkpt lat="48.83982" lon="2.39815">
        <ele>106.6</ele>
        <time>2015-02-16T20:11:29.693Z</time>
      </trkpt>
      <trkpt lat="48.83981" lon="2.39808">
        <ele>106.6</ele>
        <time>2015-02-16T20:11:30.751Z</time>
      </trkpt>
      <trkpt lat="48.83981" lon="2.398">
        <ele>106.6</ele>
        <time>2015-02-16T20:11:31.641Z</time>
      </trkpt>
      <trkpt lat="48.83981" lon="2.39793">
        <ele>106.7</ele>
        <time>2015-02-16T20:11:32.688Z</time>
      </trkpt>
      <trkpt lat="48.8398" lon="2.39785">
        <ele>106.7</ele>
        <time>2015-02-16T20:11:33.699Z</time>
      </trkpt>
      <trkpt lat="48.8398" lon="2.39777">
        <ele>106.6</ele>
        <time>2015-02-16T20:11:34.720Z</time>
      </trkpt>
      <trkpt lat="48.83979" lon="2.39769">
        <ele>106.4</ele>
        <time>2015-02-16T20:11:35.614Z</time>
      </trkpt>
      <trkpt lat="48.83978" lon="2.3976">
        <ele>106.2</ele>
        <time>2015-02-16T20:11:36.657Z</time>
      </trkpt>
      <trkpt lat="48.83977" lon="2.39751">
        <ele>106</ele>
        <time>2015-02-16T20:11:37.660Z</time>
      </trkpt>
      <trkpt lat="48.83976" lon="2.39742">
        <ele>105.9</ele>
        <time>2015-02-16T20:11:38.686Z</time>
      </trkpt>
      <trkpt lat="48.83976" lon="2.39734">
        <ele>105.9</ele>
        <time>2015-02-16T20:11:39.698Z</time>
      </trkpt>
      <trkpt lat="48.83974" lon="2.39727">
        <ele>105.8</ele>
        <time>2015-02-16T20:11:40.707Z</time>
      </trkpt>
      <trkpt lat="48.83974" lon="2.3972">
        <ele>105.6</ele>
        <time>2015-02-16T20:11:41.712Z</time>
      </trkpt>
      <trkpt lat="48.83972" lon="2.39712">
        <ele>105.4</ele>
        <time>2015-02-16T20:11:42.762Z</time>
      </trkpt>
      <trkpt lat="48.83974" lon="2.39704">
        <ele>105.3</ele>
        <time>2015-02-16T20:11:43.639Z</time>
      </trkpt>
      <trkpt lat="48.83975" lon="2.39697">
        <ele>105.3</ele>
        <time>2015-02-16T20:11:44.648Z</time>
      </trkpt>
      <trkpt lat="48.83975" lon="2.39689">
        <ele>105.3</ele>
        <time>2015-02-16T20:11:45.676Z</time>
      </trkpt>
      <trkpt lat="48.83978" lon="2.39676">
        <ele>105.2</ele>
        <time>2015-02-16T20:11:47.720Z</time>
      </trkpt>
      <trkpt lat="48.83979" lon="2.3967">
        <ele>105.2</ele>
        <time>2015-02-16T20:11:48.724Z</time>
      </trkpt>
      <trkpt lat="48.83981" lon="2.39657">
        <ele>105.2</ele>
        <time>2015-02-16T20:11:50.683Z</time>
      </trkpt>
      <trkpt lat="48.83982" lon="2.3965">
        <ele>105.1</ele>
        <time>2015-02-16T20:11:51.639Z</time>
      </trkpt>
      <trkpt lat="48.83984" lon="2.39637">
        <ele>105</ele>
        <time>2015-02-16T20:11:53.663Z</time>
      </trkpt>
      <trkpt lat="48.83984" lon="2.3963">
        <ele>104.7</ele>
        <time>2015-02-16T20:11:54.690Z</time>
      </trkpt>
      <trkpt lat="48.83986" lon="2.39617">
        <ele>104.5</ele>
        <time>2015-02-16T20:11:56.740Z</time>
      </trkpt>
      <trkpt lat="48.83988" lon="2.39611">
        <ele>104.5</ele>
        <time>2015-02-16T20:11:57.643Z</time>
      </trkpt>
      <trkpt lat="48.83988" lon="2.39604">
        <ele>104.4</ele>
        <time>2015-02-16T20:11:58.643Z</time>
      </trkpt>
      <trkpt lat="48.83989" lon="2.39596">
        <ele>104.1</ele>
        <time>2015-02-16T20:11:59.645Z</time>
      </trkpt>
      <trkpt lat="48.83989" lon="2.39589">
        <ele>104</ele>
        <time>2015-02-16T20:12:01.220Z</time>
      </trkpt>
      <trkpt lat="48.83988" lon="2.39583">
        <ele>103.9</ele>
        <time>2015-02-16T20:12:01.670Z</time>
      </trkpt>
      <trkpt lat="48.83987" lon="2.39576">
        <ele>103.9</ele>
        <time>2015-02-16T20:12:02.678Z</time>
      </trkpt>
      <trkpt lat="48.83985" lon="2.39568">
        <ele>103.9</ele>
        <time>2015-02-16T20:12:03.697Z</time>
      </trkpt>
      <trkpt lat="48.83984" lon="2.39561">
        <ele>104</ele>
        <time>2015-02-16T20:12:04.711Z</time>
      </trkpt>
      <trkpt lat="48.83982" lon="2.39555">
        <ele>104</ele>
        <time>2015-02-16T20:12:05.713Z</time>
      </trkpt>
      <trkpt lat="48.83978" lon="2.39545">
        <ele>103.8</ele>
        <time>2015-02-16T20:12:07.641Z</time>
      </trkpt>
      <trkpt lat="48.83975" lon="2.3954">
        <ele>104.2</ele>
        <time>2015-02-16T20:12:08.677Z</time>
      </trkpt>
      <trkpt lat="48.83972" lon="2.39531">
        <ele>105.1</ele>
        <time>2015-02-16T20:12:11.271Z</time>
      </trkpt>
      <trkpt lat="48.83971" lon="2.39527">
        <ele>105.4</ele>
        <time>2015-02-16T20:12:11.733Z</time>
      </trkpt>
      <trkpt lat="48.83975" lon="2.39516">
        <ele>105.7</ele>
        <time>2015-02-16T20:12:19.706Z</time>
      </trkpt>
      <trkpt lat="48.83976" lon="2.39515">
        <ele>105.6</ele>
        <time>2015-02-16T20:12:20.648Z</time>
      </trkpt>
      <trkpt lat="48.83976" lon="2.39515">
        <ele>105.6</ele>
        <time>2015-02-16T20:12:21.410Z</time>
      </trkpt>
      <trkpt lat="48.83976" lon="2.39515">
        <ele>105.6</ele>
        <time>2015-02-16T20:12:21.659Z</time>
      </trkpt>
      <trkpt lat="48.83976" lon="2.39517">
        <ele>105.3</ele>
        <time>2015-02-16T20:12:36.698Z</time>
      </trkpt>
      <trkpt lat="48.83975" lon="2.39525">
        <ele>107.1</ele>
        <time>2015-02-16T20:12:37.720Z</time>
      </trkpt>
      <trkpt lat="48.83967" lon="2.3952">
        <ele>108.2</ele>
        <time>2015-02-16T20:12:41.714Z</time>
      </trkpt>
      <trkpt lat="48.83965" lon="2.39519">
        <ele>108.5</ele>
        <time>2015-02-16T20:12:42.729Z</time>
      </trkpt>
      <trkpt lat="48.83959" lon="2.39512">
        <ele>109.2</ele>
        <time>2015-02-16T20:12:45.728Z</time>
      </trkpt>
      <trkpt lat="48.83958" lon="2.39509">
        <ele>109.2</ele>
        <time>2015-02-16T20:12:46.733Z</time>
      </trkpt>
      <trkpt lat="48.83956" lon="2.39498">
        <ele>108.8</ele>
        <time>2015-02-16T20:12:48.660Z</time>
      </trkpt>
      <trkpt lat="48.83954" lon="2.39493">
        <ele>108.6</ele>
        <time>2015-02-16T20:12:49.666Z</time>
      </trkpt>
      <trkpt lat="48.83952" lon="2.39482">
        <ele>108.7</ele>
        <time>2015-02-16T20:12:51.702Z</time>
      </trkpt>
      <trkpt lat="48.8395" lon="2.39477">
        <ele>108.7</ele>
        <time>2015-02-16T20:12:52.715Z</time>
      </trkpt>
      <trkpt lat="48.83949" lon="2.39466">
        <ele>108.8</ele>
        <time>2015-02-16T20:12:54.673Z</time>
      </trkpt>
      <trkpt lat="48.83948" lon="2.39462">
        <ele>108.7</ele>
        <time>2015-02-16T20:12:55.693Z</time>
      </trkpt>
      <trkpt lat="48.83945" lon="2.3945">
        <ele>108.4</ele>
        <time>2015-02-16T20:12:58.692Z</time>
      </trkpt>
      <trkpt lat="48.83943" lon="2.39447">
        <ele>108.2</ele>
        <time>2015-02-16T20:12:59.618Z</time>
      </trkpt>
      <trkpt lat="48.83937" lon="2.39437">
        <ele>108</ele>
        <time>2015-02-16T20:13:02.696Z</time>
      </trkpt>
      <trkpt lat="48.83935" lon="2.39433">
        <ele>107.9</ele>
        <time>2015-02-16T20:13:03.817Z</time>
      </trkpt>
      <trkpt lat="48.8393" lon="2.39426">
        <ele>107.6</ele>
        <time>2015-02-16T20:13:06.133Z</time>
      </trkpt>
      <trkpt lat="48.83927" lon="2.39423">
        <ele>107.5</ele>
        <time>2015-02-16T20:13:06.699Z</time>
      </trkpt>
      <trkpt lat="48.83921" lon="2.39417">
        <ele>107.2</ele>
        <time>2015-02-16T20:13:08.736Z</time>
      </trkpt>
      <trkpt lat="48.83918" lon="2.39414">
        <ele>107</ele>
        <time>2015-02-16T20:13:09.629Z</time>
      </trkpt>
      <trkpt lat="48.83912" lon="2.39408">
        <ele>106.8</ele>
        <time>2015-02-16T20:13:11.669Z</time>
      </trkpt>
      <trkpt lat="48.8391" lon="2.39404">
        <ele>106.6</ele>
        <time>2015-02-16T20:13:12.672Z</time>
      </trkpt>
      <trkpt lat="48.83904" lon="2.39398">
        <ele>106.3</ele>
        <time>2015-02-16T20:13:14.720Z</time>
      </trkpt>
      <trkpt lat="48.83899" lon="2.3939">
        <ele>106</ele>
        <time>2015-02-16T20:13:16.620Z</time>
      </trkpt>
      <trkpt lat="48.83894" lon="2.39382">
        <ele>105.8</ele>
        <time>2015-02-16T20:13:18.689Z</time>
      </trkpt>
      <trkpt lat="48.83892" lon="2.39378">
        <ele>105.9</ele>
        <time>2015-02-16T20:13:19.625Z</time>
      </trkpt>
      <trkpt lat="48.83886" lon="2.39369">
        <ele>106</ele>
        <time>2015-02-16T20:13:21.648Z</time>
      </trkpt>
      <trkpt lat="48.83883" lon="2.39365">
        <ele>105.9</ele>
        <time>2015-02-16T20:13:22.677Z</time>
      </trkpt>
      <trkpt lat="48.83876" lon="2.39357">
        <ele>105.9</ele>
        <time>2015-02-16T20:13:24.715Z</time>
      </trkpt>
      <trkpt lat="48.83874" lon="2.39354">
        <ele>106</ele>
        <time>2015-02-16T20:13:25.601Z</time>
      </trkpt>
      <trkpt lat="48.8387" lon="2.39346">
        <ele>106.1</ele>
        <time>2015-02-16T20:13:27.712Z</time>
      </trkpt>
      <trkpt lat="48.83868" lon="2.39341">
        <ele>106.2</ele>
        <time>2015-02-16T20:13:28.731Z</time>
      </trkpt>
      <trkpt lat="48.83863" lon="2.39332">
        <ele>106.1</ele>
        <time>2015-02-16T20:13:30.646Z</time>
      </trkpt>
      <trkpt lat="48.8386" lon="2.39327">
        <ele>106.2</ele>
        <time>2015-02-16T20:13:31.661Z</time>
      </trkpt>
      <trkpt lat="48.83855" lon="2.39317">
        <ele>105.9</ele>
        <time>2015-02-16T20:13:33.701Z</time>
      </trkpt>
      <trkpt lat="48.83853" lon="2.39311">
        <ele>105.9</ele>
        <time>2015-02-16T20:13:34.602Z</time>
      </trkpt>
      <trkpt lat="48.83849" lon="2.39301">
        <ele>105.9</ele>
        <time>2015-02-16T20:13:36.660Z</time>
      </trkpt>
      <trkpt lat="48.83846" lon="2.39295">
        <ele>106</ele>
        <time>2015-02-16T20:13:37.669Z</time>
      </trkpt>
      <trkpt lat="48.83843" lon="2.39289">
        <ele>106</ele>
        <time>2015-02-16T20:13:38.681Z</time>
      </trkpt>
      <trkpt lat="48.83841" lon="2.39283">
        <ele>105.9</ele>
        <time>2015-02-16T20:13:39.619Z</time>
      </trkpt>
      <trkpt lat="48.83838" lon="2.39277">
        <ele>105.9</ele>
        <time>2015-02-16T20:13:40.617Z</time>
      </trkpt>
      <trkpt lat="48.83835" lon="2.39272">
        <ele>105.9</ele>
        <time>2015-02-16T20:13:41.633Z</time>
      </trkpt>
      <trkpt lat="48.8383" lon="2.39262">
        <ele>105.9</ele>
        <time>2015-02-16T20:13:43.672Z</time>
      </trkpt>
      <trkpt lat="48.83828" lon="2.39256">
        <ele>105.8</ele>
        <time>2015-02-16T20:13:44.685Z</time>
      </trkpt>
      <trkpt lat="48.83826" lon="2.39249">
        <ele>105.7</ele>
        <time>2015-02-16T20:13:45.630Z</time>
      </trkpt>
      <trkpt lat="48.83823" lon="2.39243">
        <ele>105.7</ele>
        <time>2015-02-16T20:13:46.653Z</time>
      </trkpt>
      <trkpt lat="48.8382" lon="2.39238">
        <ele>105.5</ele>
        <time>2015-02-16T20:13:47.668Z</time>
      </trkpt>
      <trkpt lat="48.83817" lon="2.39232">
        <ele>105.4</ele>
        <time>2015-02-16T20:13:48.698Z</time>
      </trkpt>
      <trkpt lat="48.83814" lon="2.39226">
        <ele>105.3</ele>
        <time>2015-02-16T20:13:49.594Z</time>
      </trkpt>
      <trkpt lat="48.8381" lon="2.3922">
        <ele>105.3</ele>
        <time>2015-02-16T20:13:50.620Z</time>
      </trkpt>
      <trkpt lat="48.83807" lon="2.39215">
        <ele>105.3</ele>
        <time>2015-02-16T20:13:51.626Z</time>
      </trkpt>
      <trkpt lat="48.83804" lon="2.39209">
        <ele>105.2</ele>
        <time>2015-02-16T20:13:52.629Z</time>
      </trkpt>
      <trkpt lat="48.838" lon="2.39205">
        <ele>105.2</ele>
        <time>2015-02-16T20:13:53.666Z</time>
      </trkpt>
      <trkpt lat="48.83797" lon="2.39199">
        <ele>105.1</ele>
        <time>2015-02-16T20:13:54.656Z</time>
      </trkpt>
      <trkpt lat="48.8379" lon="2.39191">
        <ele>105</ele>
        <time>2015-02-16T20:13:56.608Z</time>
      </trkpt>
      <trkpt lat="48.83784" lon="2.39187">
        <ele>104.8</ele>
        <time>2015-02-16T20:13:57.659Z</time>
      </trkpt>
      <trkpt lat="48.83777" lon="2.39179">
        <ele>104.5</ele>
        <time>2015-02-16T20:13:59.725Z</time>
      </trkpt>
      <trkpt lat="48.83775" lon="2.39175">
        <ele>104.4</ele>
        <time>2015-02-16T20:14:00.652Z</time>
      </trkpt>
      <trkpt lat="48.83768" lon="2.39169">
        <ele>104</ele>
        <time>2015-02-16T20:14:02.679Z</time>
      </trkpt>
      <trkpt lat="48.83765" lon="2.39164">
        <ele>104</ele>
        <time>2015-02-16T20:14:03.693Z</time>
      </trkpt>
      <trkpt lat="48.83761" lon="2.39158">
        <ele>103.8</ele>
        <time>2015-02-16T20:14:04.626Z</time>
      </trkpt>
      <trkpt lat="48.83755" lon="2.39153">
        <ele>103.8</ele>
        <time>2015-02-16T20:14:05.635Z</time>
      </trkpt>
      <trkpt lat="48.83751" lon="2.39149">
        <ele>103.9</ele>
        <time>2015-02-16T20:14:06.669Z</time>
      </trkpt>
      <trkpt lat="48.83747" lon="2.39144">
        <ele>104.1</ele>
        <time>2015-02-16T20:14:07.691Z</time>
      </trkpt>
      <trkpt lat="48.83745" lon="2.39138">
        <ele>104.1</ele>
        <time>2015-02-16T20:14:08.689Z</time>
      </trkpt>
      <trkpt lat="48.83743" lon="2.39131">
        <ele>104.2</ele>
        <time>2015-02-16T20:14:09.705Z</time>
      </trkpt>
      <trkpt lat="48.83741" lon="2.39119">
        <ele>103.8</ele>
        <time>2015-02-16T20:14:11.699Z</time>
      </trkpt>
      <trkpt lat="48.8374" lon="2.39114">
        <ele>103.3</ele>
        <time>2015-02-16T20:14:12.708Z</time>
      </trkpt>
      <trkpt lat="48.83738" lon="2.39108">
        <ele>102.9</ele>
        <time>2015-02-16T20:14:13.714Z</time>
      </trkpt>
      <trkpt lat="48.83737" lon="2.39101">
        <ele>102.5</ele>
        <time>2015-02-16T20:14:14.625Z</time>
      </trkpt>
      <trkpt lat="48.83733" lon="2.3909">
        <ele>102.1</ele>
        <time>2015-02-16T20:14:15.635Z</time>
      </trkpt>
      <trkpt lat="48.8373" lon="2.3908">
        <ele>101.7</ele>
        <time>2015-02-16T20:14:16.672Z</time>
      </trkpt>
      <trkpt lat="48.83728" lon="2.3907">
        <ele>101</ele>
        <time>2015-02-16T20:14:17.695Z</time>
      </trkpt>
      <trkpt lat="48.83726" lon="2.39061">
        <ele>100.4</ele>
        <time>2015-02-16T20:14:18.711Z</time>
      </trkpt>
      <trkpt lat="48.83724" lon="2.39053">
        <ele>100.4</ele>
        <time>2015-02-16T20:14:19.645Z</time>
      </trkpt>
      <trkpt lat="48.83722" lon="2.39045">
        <ele>100</ele>
        <time>2015-02-16T20:14:20.652Z</time>
      </trkpt>
      <trkpt lat="48.8372" lon="2.39036">
        <ele>99.9</ele>
        <time>2015-02-16T20:14:21.678Z</time>
      </trkpt>
      <trkpt lat="48.83717" lon="2.39027">
        <ele>100.5</ele>
        <time>2015-02-16T20:14:22.687Z</time>
      </trkpt>
      <trkpt lat="48.83713" lon="2.39018">
        <ele>100.8</ele>
        <time>2015-02-16T20:14:23.646Z</time>
      </trkpt>
      <trkpt lat="48.8371" lon="2.3901">
        <ele>100.6</ele>
        <time>2015-02-16T20:14:24.683Z</time>
      </trkpt>
      <trkpt lat="48.83708" lon="2.39002">
        <ele>100.4</ele>
        <time>2015-02-16T20:14:25.683Z</time>
      </trkpt>
      <trkpt lat="48.83704" lon="2.38987">
        <ele>100.3</ele>
        <time>2015-02-16T20:14:27.726Z</time>
      </trkpt>
      <trkpt lat="48.83696" lon="2.38956">
        <ele>100.5</ele>
        <time>2015-02-16T20:14:31.698Z</time>
      </trkpt>
      <trkpt lat="48.83691" lon="2.38935">
        <ele>100.5</ele>
        <time>2015-02-16T20:14:34.653Z</time>
      </trkpt>
      <trkpt lat="48.83689" lon="2.38927">
        <ele>100.5</ele>
        <time>2015-02-16T20:14:35.670Z</time>
      </trkpt>
      <trkpt lat="48.83685" lon="2.38916">
        <ele>100.5</ele>
        <time>2015-02-16T20:14:37.687Z</time>
      </trkpt>
      <trkpt lat="48.83682" lon="2.38906">
        <ele>100.5</ele>
        <time>2015-02-16T20:14:39.614Z</time>
      </trkpt>
      <trkpt lat="48.83681" lon="2.38902">
        <ele>100.4</ele>
        <time>2015-02-16T20:14:40.621Z</time>
      </trkpt>
      <trkpt lat="48.83677" lon="2.38894">
        <ele>100</ele>
        <time>2015-02-16T20:14:43.714Z</time>
      </trkpt>
      <trkpt lat="48.83671" lon="2.38869">
        <ele>99.7</ele>
        <time>2015-02-16T20:14:47.855Z</time>
      </trkpt>
      <trkpt lat="48.83667" lon="2.38859">
        <ele>100.2</ele>
        <time>2015-02-16T20:14:49.674Z</time>
      </trkpt>
      <trkpt lat="48.83661" lon="2.38843">
        <ele>101.8</ele>
        <time>2015-02-16T20:14:50.687Z</time>
      </trkpt>
      <trkpt lat="48.83657" lon="2.38832">
        <ele>101.9</ele>
        <time>2015-02-16T20:14:53.646Z</time>
      </trkpt>
      <trkpt lat="48.83655" lon="2.38828">
        <ele>101.9</ele>
        <time>2015-02-16T20:14:54.770Z</time>
      </trkpt>
      <trkpt lat="48.83652" lon="2.38822">
        <ele>101.8</ele>
        <time>2015-02-16T20:14:55.709Z</time>
      </trkpt>
      <trkpt lat="48.83652" lon="2.38812">
        <ele>101.3</ele>
        <time>2015-02-16T20:14:56.716Z</time>
      </trkpt>
      <trkpt lat="48.83655" lon="2.38801">
        <ele>101.1</ele>
        <time>2015-02-16T20:14:58.612Z</time>
      </trkpt>
      <trkpt lat="48.83655" lon="2.38796">
        <ele>101</ele>
        <time>2015-02-16T20:14:59.650Z</time>
      </trkpt>
      <trkpt lat="48.83656" lon="2.38789">
        <ele>100.9</ele>
        <time>2015-02-16T20:15:00.694Z</time>
      </trkpt>
      <trkpt lat="48.83658" lon="2.3878">
        <ele>100.7</ele>
        <time>2015-02-16T20:15:01.714Z</time>
      </trkpt>
      <trkpt lat="48.8366" lon="2.38772">
        <ele>100.6</ele>
        <time>2015-02-16T20:15:02.634Z</time>
      </trkpt>
      <trkpt lat="48.8366" lon="2.38765">
        <ele>100.3</ele>
        <time>2015-02-16T20:15:03.644Z</time>
      </trkpt>
      <trkpt lat="48.83659" lon="2.38754">
        <ele>100</ele>
        <time>2015-02-16T20:15:05.718Z</time>
      </trkpt>
      <trkpt lat="48.83657" lon="2.38749">
        <ele>99.8</ele>
        <time>2015-02-16T20:15:06.734Z</time>
      </trkpt>
      <trkpt lat="48.83652" lon="2.38739">
        <ele>99.7</ele>
        <time>2015-02-16T20:15:08.635Z</time>
      </trkpt>
      <trkpt lat="48.83649" lon="2.38733">
        <ele>99.6</ele>
        <time>2015-02-16T20:15:09.614Z</time>
      </trkpt>
      <trkpt lat="48.83647" lon="2.38726">
        <ele>99.4</ele>
        <time>2015-02-16T20:15:10.650Z</time>
      </trkpt>
      <trkpt lat="48.83644" lon="2.3872">
        <ele>99.1</ele>
        <time>2015-02-16T20:15:11.663Z</time>
      </trkpt>
      <trkpt lat="48.83639" lon="2.38713">
        <ele>98.9</ele>
        <time>2015-02-16T20:15:12.680Z</time>
      </trkpt>
      <trkpt lat="48.83635" lon="2.38708">
        <ele>98.8</ele>
        <time>2015-02-16T20:15:13.691Z</time>
      </trkpt>
      <trkpt lat="48.83631" lon="2.38702">
        <ele>98.7</ele>
        <time>2015-02-16T20:15:14.713Z</time>
      </trkpt>
      <trkpt lat="48.83628" lon="2.38697">
        <ele>98.7</ele>
        <time>2015-02-16T20:15:15.716Z</time>
      </trkpt>
      <trkpt lat="48.83624" lon="2.38692">
        <ele>98.6</ele>
        <time>2015-02-16T20:15:16.648Z</time>
      </trkpt>
      <trkpt lat="48.83619" lon="2.38689">
        <ele>98.5</ele>
        <time>2015-02-16T20:15:17.664Z</time>
      </trkpt>
      <trkpt lat="48.83611" lon="2.38683">
        <ele>98.3</ele>
        <time>2015-02-16T20:15:19.685Z</time>
      </trkpt>
      <trkpt lat="48.83608" lon="2.3868">
        <ele>98.3</ele>
        <time>2015-02-16T20:15:20.697Z</time>
      </trkpt>
      <trkpt lat="48.83601" lon="2.38673">
        <ele>98.2</ele>
        <time>2015-02-16T20:15:22.660Z</time>
      </trkpt>
      <trkpt lat="48.83599" lon="2.3867">
        <ele>98.4</ele>
        <time>2015-02-16T20:15:23.681Z</time>
      </trkpt>
      <trkpt lat="48.83594" lon="2.38663">
        <ele>98.1</ele>
        <time>2015-02-16T20:15:25.644Z</time>
      </trkpt>
      <trkpt lat="48.83591" lon="2.3866">
        <ele>98.1</ele>
        <time>2015-02-16T20:15:26.715Z</time>
      </trkpt>
      <trkpt lat="48.83586" lon="2.38649">
        <ele>97.3</ele>
        <time>2015-02-16T20:15:29.669Z</time>
      </trkpt>
      <trkpt lat="48.83585" lon="2.38646">
        <ele>97.1</ele>
        <time>2015-02-16T20:15:30.719Z</time>
      </trkpt>
      <trkpt lat="48.8358" lon="2.38637">
        <ele>96.2</ele>
        <time>2015-02-16T20:15:34.644Z</time>
      </trkpt>
      <trkpt lat="48.83579" lon="2.38634">
        <ele>96.3</ele>
        <time>2015-02-16T20:15:35.662Z</time>
      </trkpt>
      <trkpt lat="48.83578" lon="2.38622">
        <ele>95.4</ele>
        <time>2015-02-16T20:15:42.720Z</time>
      </trkpt>
      <trkpt lat="48.83577" lon="2.38621">
        <ele>95.3</ele>
        <time>2015-02-16T20:15:43.651Z</time>
      </trkpt>
      <trkpt lat="48.83572" lon="2.38613">
        <ele>95.3</ele>
        <time>2015-02-16T20:15:47.717Z</time>
      </trkpt>
      <trkpt lat="48.83571" lon="2.3861">
        <ele>95.3</ele>
        <time>2015-02-16T20:15:48.731Z</time>
      </trkpt>
      <trkpt lat="48.83567" lon="2.38602">
        <ele>95.3</ele>
        <time>2015-02-16T20:15:50.670Z</time>
      </trkpt>
      <trkpt lat="48.83564" lon="2.38598">
        <ele>95.3</ele>
        <time>2015-02-16T20:15:51.677Z</time>
      </trkpt>
      <trkpt lat="48.83559" lon="2.38589">
        <ele>95.4</ele>
        <time>2015-02-16T20:15:53.696Z</time>
      </trkpt>
      <trkpt lat="48.83556" lon="2.38585">
        <ele>95.4</ele>
        <time>2015-02-16T20:15:54.727Z</time>
      </trkpt>
      <trkpt lat="48.83551" lon="2.38579">
        <ele>95.2</ele>
        <time>2015-02-16T20:15:56.645Z</time>
      </trkpt>
      <trkpt lat="48.83549" lon="2.38575">
        <ele>95.2</ele>
        <time>2015-02-16T20:15:57.644Z</time>
      </trkpt>
      <trkpt lat="48.83543" lon="2.38567">
        <ele>94.3</ele>
        <time>2015-02-16T20:15:59.663Z</time>
      </trkpt>
      <trkpt lat="48.83541" lon="2.38563">
        <ele>93.9</ele>
        <time>2015-02-16T20:16:00.695Z</time>
      </trkpt>
      <trkpt lat="48.83537" lon="2.38553">
        <ele>94</ele>
        <time>2015-02-16T20:16:02.725Z</time>
      </trkpt>
      <trkpt lat="48.83535" lon="2.38549">
        <ele>94.2</ele>
        <time>2015-02-16T20:16:03.642Z</time>
      </trkpt>
      <trkpt lat="48.83531" lon="2.3854">
        <ele>94.7</ele>
        <time>2015-02-16T20:16:05.674Z</time>
      </trkpt>
      <trkpt lat="48.83528" lon="2.38535">
        <ele>94.9</ele>
        <time>2015-02-16T20:16:06.693Z</time>
      </trkpt>
      <trkpt lat="48.83524" lon="2.38527">
        <ele>94.9</ele>
        <time>2015-02-16T20:16:08.630Z</time>
      </trkpt>
      <trkpt lat="48.83522" lon="2.38522">
        <ele>95</ele>
        <time>2015-02-16T20:16:09.645Z</time>
      </trkpt>
      <trkpt lat="48.83516" lon="2.38513">
        <ele>95</ele>
        <time>2015-02-16T20:16:11.699Z</time>
      </trkpt>
      <trkpt lat="48.83513" lon="2.38509">
        <ele>94.8</ele>
        <time>2015-02-16T20:16:12.709Z</time>
      </trkpt>
      <trkpt lat="48.83507" lon="2.385">
        <ele>94.6</ele>
        <time>2015-02-16T20:16:14.638Z</time>
      </trkpt>
      <trkpt lat="48.83505" lon="2.38494">
        <ele>94.1</ele>
        <time>2015-02-16T20:16:15.655Z</time>
      </trkpt>
      <trkpt lat="48.835" lon="2.38484">
        <ele>93.8</ele>
        <time>2015-02-16T20:16:17.698Z</time>
      </trkpt>
      <trkpt lat="48.83498" lon="2.3848">
        <ele>93.7</ele>
        <time>2015-02-16T20:16:18.704Z</time>
      </trkpt>
      <trkpt lat="48.83494" lon="2.38469">
        <ele>93.3</ele>
        <time>2015-02-16T20:16:20.635Z</time>
      </trkpt>
      <trkpt lat="48.83492" lon="2.38464">
        <ele>92.9</ele>
        <time>2015-02-16T20:16:21.645Z</time>
      </trkpt>
      <trkpt lat="48.83487" lon="2.38454">
        <ele>92.3</ele>
        <time>2015-02-16T20:16:23.684Z</time>
      </trkpt>
      <trkpt lat="48.83485" lon="2.38451">
        <ele>91.9</ele>
        <time>2015-02-16T20:16:24.709Z</time>
      </trkpt>
      <trkpt lat="48.83481" lon="2.38443">
        <ele>91.9</ele>
        <time>2015-02-16T20:16:26.632Z</time>
      </trkpt>
      <trkpt lat="48.83479" lon="2.38438">
        <ele>91.9</ele>
        <time>2015-02-16T20:16:27.650Z</time>
      </trkpt>
      <trkpt lat="48.83473" lon="2.38428">
        <ele>91.8</ele>
        <time>2015-02-16T20:16:29.647Z</time>
      </trkpt>
      <trkpt lat="48.83471" lon="2.38422">
        <ele>91.9</ele>
        <time>2015-02-16T20:16:30.691Z</time>
      </trkpt>
      <trkpt lat="48.83468" lon="2.38412">
        <ele>92.1</ele>
        <time>2015-02-16T20:16:32.784Z</time>
      </trkpt>
      <trkpt lat="48.83465" lon="2.38405">
        <ele>92.2</ele>
        <time>2015-02-16T20:16:33.673Z</time>
      </trkpt>
      <trkpt lat="48.83462" lon="2.38397">
        <ele>92.3</ele>
        <time>2015-02-16T20:16:34.690Z</time>
      </trkpt>
      <trkpt lat="48.8346" lon="2.38392">
        <ele>92.4</ele>
        <time>2015-02-16T20:16:35.696Z</time>
      </trkpt>
      <trkpt lat="48.83455" lon="2.38383">
        <ele>92.4</ele>
        <time>2015-02-16T20:16:37.721Z</time>
      </trkpt>
      <trkpt lat="48.83452" lon="2.38379">
        <ele>92.4</ele>
        <time>2015-02-16T20:16:38.662Z</time>
      </trkpt>
      <trkpt lat="48.83447" lon="2.38371">
        <ele>92.3</ele>
        <time>2015-02-16T20:16:40.672Z</time>
      </trkpt>
      <trkpt lat="48.83445" lon="2.38365">
        <ele>92.3</ele>
        <time>2015-02-16T20:16:41.684Z</time>
      </trkpt>
      <trkpt lat="48.83442" lon="2.38359">
        <ele>92.2</ele>
        <time>2015-02-16T20:16:42.979Z</time>
      </trkpt>
      <trkpt lat="48.83439" lon="2.38351">
        <ele>92.1</ele>
        <time>2015-02-16T20:16:43.614Z</time>
      </trkpt>
      <trkpt lat="48.83436" lon="2.38344">
        <ele>92</ele>
        <time>2015-02-16T20:16:44.635Z</time>
      </trkpt>
      <trkpt lat="48.83432" lon="2.38337">
        <ele>92.1</ele>
        <time>2015-02-16T20:16:45.643Z</time>
      </trkpt>
      <trkpt lat="48.83428" lon="2.3833">
        <ele>92.3</ele>
        <time>2015-02-16T20:16:46.695Z</time>
      </trkpt>
      <trkpt lat="48.83425" lon="2.38324">
        <ele>92.4</ele>
        <time>2015-02-16T20:16:47.703Z</time>
      </trkpt>
      <trkpt lat="48.83421" lon="2.38319">
        <ele>92.6</ele>
        <time>2015-02-16T20:16:48.700Z</time>
      </trkpt>
      <trkpt lat="48.83417" lon="2.38313">
        <ele>92.6</ele>
        <time>2015-02-16T20:16:49.704Z</time>
      </trkpt>
      <trkpt lat="48.83414" lon="2.38306">
        <ele>92.9</ele>
        <time>2015-02-16T20:16:50.732Z</time>
      </trkpt>
      <trkpt lat="48.8341" lon="2.383">
        <ele>93.5</ele>
        <time>2015-02-16T20:16:51.620Z</time>
      </trkpt>
      <trkpt lat="48.83407" lon="2.38295">
        <ele>94</ele>
        <time>2015-02-16T20:16:53.138Z</time>
      </trkpt>
      <trkpt lat="48.83403" lon="2.38291">
        <ele>94.2</ele>
        <time>2015-02-16T20:16:53.686Z</time>
      </trkpt>
      <trkpt lat="48.83398" lon="2.38281">
        <ele>94.3</ele>
        <time>2015-02-16T20:16:55.663Z</time>
      </trkpt>
      <trkpt lat="48.83396" lon="2.38277">
        <ele>94.2</ele>
        <time>2015-02-16T20:16:56.695Z</time>
      </trkpt>
      <trkpt lat="48.8339" lon="2.38268">
        <ele>93.8</ele>
        <time>2015-02-16T20:16:58.608Z</time>
      </trkpt>
      <trkpt lat="48.83388" lon="2.38263">
        <ele>93.9</ele>
        <time>2015-02-16T20:16:59.639Z</time>
      </trkpt>
      <trkpt lat="48.83384" lon="2.38253">
        <ele>93.4</ele>
        <time>2015-02-16T20:17:01.848Z</time>
      </trkpt>
      <trkpt lat="48.83381" lon="2.38248">
        <ele>92.7</ele>
        <time>2015-02-16T20:17:02.667Z</time>
      </trkpt>
      <trkpt lat="48.83376" lon="2.38239">
        <ele>92</ele>
        <time>2015-02-16T20:17:04.688Z</time>
      </trkpt>
      <trkpt lat="48.83373" lon="2.38234">
        <ele>91.9</ele>
        <time>2015-02-16T20:17:05.692Z</time>
      </trkpt>
      <trkpt lat="48.83369" lon="2.38225">
        <ele>91.4</ele>
        <time>2015-02-16T20:17:07.694Z</time>
      </trkpt>
      <trkpt lat="48.83366" lon="2.38222">
        <ele>91.3</ele>
        <time>2015-02-16T20:17:08.726Z</time>
      </trkpt>
      <trkpt lat="48.83362" lon="2.38216">
        <ele>91.3</ele>
        <time>2015-02-16T20:17:10.649Z</time>
      </trkpt>
      <trkpt lat="48.83359" lon="2.38212">
        <ele>91.4</ele>
        <time>2015-02-16T20:17:11.696Z</time>
      </trkpt>
      <trkpt lat="48.83354" lon="2.38204">
        <ele>91.4</ele>
        <time>2015-02-16T20:17:13.802Z</time>
      </trkpt>
      <trkpt lat="48.83352" lon="2.38201">
        <ele>91.4</ele>
        <time>2015-02-16T20:17:14.677Z</time>
      </trkpt>
      <trkpt lat="48.83346" lon="2.38193">
        <ele>91.3</ele>
        <time>2015-02-16T20:17:16.710Z</time>
      </trkpt>
      <trkpt lat="48.83344" lon="2.38188">
        <ele>91.1</ele>
        <time>2015-02-16T20:17:17.730Z</time>
      </trkpt>
      <trkpt lat="48.83339" lon="2.38178">
        <ele>90.8</ele>
        <time>2015-02-16T20:17:19.623Z</time>
      </trkpt>
      <trkpt lat="48.83337" lon="2.38173">
        <ele>90.9</ele>
        <time>2015-02-16T20:17:20.675Z</time>
      </trkpt>
      <trkpt lat="48.83332" lon="2.38165">
        <ele>90.5</ele>
        <time>2015-02-16T20:17:22.698Z</time>
      </trkpt>
      <trkpt lat="48.8333" lon="2.38161">
        <ele>90.3</ele>
        <time>2015-02-16T20:17:23.710Z</time>
      </trkpt>
      <trkpt lat="48.83326" lon="2.38153">
        <ele>90.1</ele>
        <time>2015-02-16T20:17:25.629Z</time>
      </trkpt>
      <trkpt lat="48.83324" lon="2.38149">
        <ele>89.8</ele>
        <time>2015-02-16T20:17:26.645Z</time>
      </trkpt>
      <trkpt lat="48.8332" lon="2.38141">
        <ele>89.7</ele>
        <time>2015-02-16T20:17:28.654Z</time>
      </trkpt>
      <trkpt lat="48.83317" lon="2.38137">
        <ele>89.8</ele>
        <time>2015-02-16T20:17:29.661Z</time>
      </trkpt>
      <trkpt lat="48.83313" lon="2.38129">
        <ele>89.9</ele>
        <time>2015-02-16T20:17:31.721Z</time>
      </trkpt>
      <trkpt lat="48.8331" lon="2.38125">
        <ele>90</ele>
        <time>2015-02-16T20:17:32.737Z</time>
      </trkpt>
      <trkpt lat="48.83306" lon="2.38116">
        <ele>90.1</ele>
        <time>2015-02-16T20:17:34.648Z</time>
      </trkpt>
      <trkpt lat="48.83303" lon="2.38111">
        <ele>90.1</ele>
        <time>2015-02-16T20:17:35.659Z</time>
      </trkpt>
      <trkpt lat="48.83299" lon="2.38102">
        <ele>90</ele>
        <time>2015-02-16T20:17:37.703Z</time>
      </trkpt>
      <trkpt lat="48.83296" lon="2.38098">
        <ele>89.9</ele>
        <time>2015-02-16T20:17:38.716Z</time>
      </trkpt>
      <trkpt lat="48.83291" lon="2.38088">
        <ele>89.9</ele>
        <time>2015-02-16T20:17:40.818Z</time>
      </trkpt>
      <trkpt lat="48.83289" lon="2.38084">
        <ele>90</ele>
        <time>2015-02-16T20:17:41.642Z</time>
      </trkpt>
      <trkpt lat="48.83283" lon="2.38074">
        <ele>90.1</ele>
        <time>2015-02-16T20:17:43.696Z</time>
      </trkpt>
      <trkpt lat="48.8328" lon="2.38069">
        <ele>90.1</ele>
        <time>2015-02-16T20:17:44.701Z</time>
      </trkpt>
      <trkpt lat="48.83277" lon="2.38063">
        <ele>90</ele>
        <time>2015-02-16T20:17:45.884Z</time>
      </trkpt>
      <trkpt lat="48.83273" lon="2.38057">
        <ele>89.8</ele>
        <time>2015-02-16T20:17:46.653Z</time>
      </trkpt>
      <trkpt lat="48.8327" lon="2.38052">
        <ele>89.7</ele>
        <time>2015-02-16T20:17:47.763Z</time>
      </trkpt>
      <trkpt lat="48.83267" lon="2.38047">
        <ele>89.7</ele>
        <time>2015-02-16T20:17:48.798Z</time>
      </trkpt>
      <trkpt lat="48.83264" lon="2.38041">
        <ele>89.7</ele>
        <time>2015-02-16T20:17:49.651Z</time>
      </trkpt>
      <trkpt lat="48.83261" lon="2.38036">
        <ele>89.5</ele>
        <time>2015-02-16T20:17:50.648Z</time>
      </trkpt>
      <trkpt lat="48.83258" lon="2.3803">
        <ele>89.3</ele>
        <time>2015-02-16T20:17:51.661Z</time>
      </trkpt>
      <trkpt lat="48.83255" lon="2.38025">
        <ele>89.3</ele>
        <time>2015-02-16T20:17:52.690Z</time>
      </trkpt>
      <trkpt lat="48.83252" lon="2.3802">
        <ele>89.2</ele>
        <time>2015-02-16T20:17:53.718Z</time>
      </trkpt>
      <trkpt lat="48.83249" lon="2.38015">
        <ele>89.2</ele>
        <time>2015-02-16T20:17:54.729Z</time>
      </trkpt>
      <trkpt lat="48.83246" lon="2.38009">
        <ele>89.1</ele>
        <time>2015-02-16T20:17:55.740Z</time>
      </trkpt>
      <trkpt lat="48.83243" lon="2.38004">
        <ele>89.2</ele>
        <time>2015-02-16T20:17:56.653Z</time>
      </trkpt>
      <trkpt lat="48.83237" lon="2.37994">
        <ele>89.1</ele>
        <time>2015-02-16T20:17:58.642Z</time>
      </trkpt>
      <trkpt lat="48.83235" lon="2.37989">
        <ele>89.2</ele>
        <time>2015-02-16T20:17:59.648Z</time>
      </trkpt>
      <trkpt lat="48.83232" lon="2.37984">
        <ele>89.3</ele>
        <time>2015-02-16T20:18:00.676Z</time>
      </trkpt>
      <trkpt lat="48.83229" lon="2.37978">
        <ele>89.5</ele>
        <time>2015-02-16T20:18:01.677Z</time>
      </trkpt>
      <trkpt lat="48.83223" lon="2.37969">
        <ele>89.7</ele>
        <time>2015-02-16T20:18:03.718Z</time>
      </trkpt>
      <trkpt lat="48.83221" lon="2.37965">
        <ele>89.8</ele>
        <time>2015-02-16T20:18:04.653Z</time>
      </trkpt>
      <trkpt lat="48.83216" lon="2.37956">
        <ele>90</ele>
        <time>2015-02-16T20:18:06.676Z</time>
      </trkpt>
      <trkpt lat="48.83214" lon="2.37951">
        <ele>90</ele>
        <time>2015-02-16T20:18:07.679Z</time>
      </trkpt>
      <trkpt lat="48.83208" lon="2.37942">
        <ele>90.4</ele>
        <time>2015-02-16T20:18:09.719Z</time>
      </trkpt>
      <trkpt lat="48.83205" lon="2.37939">
        <ele>90.3</ele>
        <time>2015-02-16T20:18:10.725Z</time>
      </trkpt>
      <trkpt lat="48.83201" lon="2.37931">
        <ele>90.3</ele>
        <time>2015-02-16T20:18:12.676Z</time>
      </trkpt>
      <trkpt lat="48.83199" lon="2.37927">
        <ele>90.2</ele>
        <time>2015-02-16T20:18:13.726Z</time>
      </trkpt>
      <trkpt lat="48.83194" lon="2.37919">
        <ele>90.2</ele>
        <time>2015-02-16T20:18:15.639Z</time>
      </trkpt>
      <trkpt lat="48.83192" lon="2.37914">
        <ele>90.2</ele>
        <time>2015-02-16T20:18:16.673Z</time>
      </trkpt>
      <trkpt lat="48.83187" lon="2.37904">
        <ele>90.4</ele>
        <time>2015-02-16T20:18:18.708Z</time>
      </trkpt>
      <trkpt lat="48.83185" lon="2.379">
        <ele>90.4</ele>
        <time>2015-02-16T20:18:19.635Z</time>
      </trkpt>
      <trkpt lat="48.8318" lon="2.37892">
        <ele>90.5</ele>
        <time>2015-02-16T20:18:21.713Z</time>
      </trkpt>
      <trkpt lat="48.83177" lon="2.37885">
        <ele>90.5</ele>
        <time>2015-02-16T20:18:22.636Z</time>
      </trkpt>
      <trkpt lat="48.83171" lon="2.37876">
        <ele>90.5</ele>
        <time>2015-02-16T20:18:24.687Z</time>
      </trkpt>
      <trkpt lat="48.83169" lon="2.37871">
        <ele>90.6</ele>
        <time>2015-02-16T20:18:25.721Z</time>
      </trkpt>
      <trkpt lat="48.83163" lon="2.37861">
        <ele>90.5</ele>
        <time>2015-02-16T20:18:27.669Z</time>
      </trkpt>
      <trkpt lat="48.8316" lon="2.37856">
        <ele>90.6</ele>
        <time>2015-02-16T20:18:28.679Z</time>
      </trkpt>
      <trkpt lat="48.83154" lon="2.37846">
        <ele>90.8</ele>
        <time>2015-02-16T20:18:30.709Z</time>
      </trkpt>
      <trkpt lat="48.83152" lon="2.37841">
        <ele>91</ele>
        <time>2015-02-16T20:18:31.714Z</time>
      </trkpt>
      <trkpt lat="48.83147" lon="2.37834">
        <ele>91.2</ele>
        <time>2015-02-16T20:18:33.631Z</time>
      </trkpt>
      <trkpt lat="48.83145" lon="2.37831">
        <ele>91.5</ele>
        <time>2015-02-16T20:18:34.706Z</time>
      </trkpt>
      <trkpt lat="48.83141" lon="2.37823">
        <ele>91.9</ele>
        <time>2015-02-16T20:18:37.671Z</time>
      </trkpt>
      <trkpt lat="48.83139" lon="2.3782">
        <ele>92.2</ele>
        <time>2015-02-16T20:18:38.682Z</time>
      </trkpt>
      <trkpt lat="48.83133" lon="2.37811">
        <ele>92.7</ele>
        <time>2015-02-16T20:18:41.686Z</time>
      </trkpt>
      <trkpt lat="48.8313" lon="2.37807">
        <ele>92.6</ele>
        <time>2015-02-16T20:18:42.665Z</time>
      </trkpt>
      <trkpt lat="48.83125" lon="2.37796">
        <ele>92.2</ele>
        <time>2015-02-16T20:18:45.848Z</time>
      </trkpt>
      <trkpt lat="48.83122" lon="2.37793">
        <ele>92.2</ele>
        <time>2015-02-16T20:18:46.731Z</time>
      </trkpt>
      <trkpt lat="48.83117" lon="2.37783">
        <ele>92.7</ele>
        <time>2015-02-16T20:18:49.632Z</time>
      </trkpt>
      <trkpt lat="48.83115" lon="2.3778">
        <ele>92.7</ele>
        <time>2015-02-16T20:18:50.656Z</time>
      </trkpt>
      <trkpt lat="48.83111" lon="2.37772">
        <ele>92.7</ele>
        <time>2015-02-16T20:18:52.682Z</time>
      </trkpt>
      <trkpt lat="48.83109" lon="2.37769">
        <ele>92.8</ele>
        <time>2015-02-16T20:18:53.702Z</time>
      </trkpt>
      <trkpt lat="48.83104" lon="2.3776">
        <ele>93.3</ele>
        <time>2015-02-16T20:18:56.648Z</time>
      </trkpt>
      <trkpt lat="48.83103" lon="2.37758">
        <ele>93.4</ele>
        <time>2015-02-16T20:18:57.662Z</time>
      </trkpt>
      <trkpt lat="48.83098" lon="2.37748">
        <ele>94</ele>
        <time>2015-02-16T20:19:00.985Z</time>
      </trkpt>
      <trkpt lat="48.83096" lon="2.37745">
        <ele>94.3</ele>
        <time>2015-02-16T20:19:01.740Z</time>
      </trkpt>
      <trkpt lat="48.83092" lon="2.3774">
        <ele>94.6</ele>
        <time>2015-02-16T20:19:03.645Z</time>
      </trkpt>
      <trkpt lat="48.83089" lon="2.37736">
        <ele>95.4</ele>
        <time>2015-02-16T20:19:04.672Z</time>
      </trkpt>
      <trkpt lat="48.83084" lon="2.37729">
        <ele>96.4</ele>
        <time>2015-02-16T20:19:06.691Z</time>
      </trkpt>
      <trkpt lat="48.83082" lon="2.37724">
        <ele>96.7</ele>
        <time>2015-02-16T20:19:07.731Z</time>
      </trkpt>
      <trkpt lat="48.83078" lon="2.37713">
        <ele>97.1</ele>
        <time>2015-02-16T20:19:11.174Z</time>
      </trkpt>
      <trkpt lat="48.83077" lon="2.3771">
        <ele>97.4</ele>
        <time>2015-02-16T20:19:11.762Z</time>
      </trkpt>
      <trkpt lat="48.83073" lon="2.37699">
        <ele>98.4</ele>
        <time>2015-02-16T20:19:16.272Z</time>
      </trkpt>
      <trkpt lat="48.83073" lon="2.37695">
        <ele>98.7</ele>
        <time>2015-02-16T20:19:16.646Z</time>
      </trkpt>
      <trkpt lat="48.83073" lon="2.37695">
        <ele>99.4</ele>
        <time>2015-02-16T20:19:17.649Z</time>
      </trkpt>
      <trkpt lat="48.83073" lon="2.37695">
        <ele>99.9</ele>
        <time>2015-02-16T20:19:30.439Z</time>
      </trkpt>
      <trkpt lat="48.83073" lon="2.37697">
        <ele>102.8</ele>
        <time>2015-02-16T20:19:30.728Z</time>
      </trkpt>
      <trkpt lat="48.83073" lon="2.37693">
        <ele>102</ele>
        <time>2015-02-16T20:19:42.737Z</time>
      </trkpt>
      <trkpt lat="48.83072" lon="2.37693">
        <ele>102.1</ele>
        <time>2015-02-16T20:19:43.641Z</time>
      </trkpt>
      <trkpt lat="48.83073" lon="2.37692">
        <ele>102</ele>
        <time>2015-02-16T20:19:44.648Z</time>
      </trkpt>
      <trkpt lat="48.83073" lon="2.37689">
        <ele>101.7</ele>
        <time>2015-02-16T20:19:47.673Z</time>
      </trkpt>
      <trkpt lat="48.83072" lon="2.37688">
        <ele>101.7</ele>
        <time>2015-02-16T20:19:48.714Z</time>
      </trkpt>
      <trkpt lat="48.83072" lon="2.37688">
        <ele>101.5</ele>
        <time>2015-02-16T20:19:49.724Z</time>
      </trkpt>
      <trkpt lat="48.83068" lon="2.37677">
        <ele>102.3</ele>
        <time>2015-02-16T20:19:59.669Z</time>
      </trkpt>
      <trkpt lat="48.83067" lon="2.37676">
        <ele>102.3</ele>
        <time>2015-02-16T20:20:00.696Z</time>
      </trkpt>
      <trkpt lat="48.83061" lon="2.37669">
        <ele>102.6</ele>
        <time>2015-02-16T20:20:04.619Z</time>
      </trkpt>
      <trkpt lat="48.83059" lon="2.37667">
        <ele>102.7</ele>
        <time>2015-02-16T20:20:05.640Z</time>
      </trkpt>
      <trkpt lat="48.83052" lon="2.3766">
        <ele>103.8</ele>
        <time>2015-02-16T20:20:09.718Z</time>
      </trkpt>
      <trkpt lat="48.83049" lon="2.37659">
        <ele>104</ele>
        <time>2015-02-16T20:20:10.730Z</time>
      </trkpt>
      <trkpt lat="48.83041" lon="2.37654">
        <ele>104.6</ele>
        <time>2015-02-16T20:20:13.692Z</time>
      </trkpt>
      <trkpt lat="48.83039" lon="2.37651">
        <ele>104.5</ele>
        <time>2015-02-16T20:20:14.704Z</time>
      </trkpt>
      <trkpt lat="48.83035" lon="2.37645">
        <ele>104.5</ele>
        <time>2015-02-16T20:20:16.733Z</time>
      </trkpt>
      <trkpt lat="48.83033" lon="2.3764">
        <ele>104.4</ele>
        <time>2015-02-16T20:20:17.748Z</time>
      </trkpt>
      <trkpt lat="48.83028" lon="2.37631">
        <ele>104.3</ele>
        <time>2015-02-16T20:20:21.427Z</time>
      </trkpt>
      <trkpt lat="48.83026" lon="2.37629">
        <ele>104.3</ele>
        <time>2015-02-16T20:20:21.677Z</time>
      </trkpt>
      <trkpt lat="48.83021" lon="2.37622">
        <ele>104.3</ele>
        <time>2015-02-16T20:20:24.696Z</time>
      </trkpt>
      <trkpt lat="48.83019" lon="2.37619">
        <ele>104.4</ele>
        <time>2015-02-16T20:20:25.724Z</time>
      </trkpt>
      <trkpt lat="48.83014" lon="2.37608">
        <ele>104.1</ele>
        <time>2015-02-16T20:20:28.700Z</time>
      </trkpt>
      <trkpt lat="48.83012" lon="2.37603">
        <ele>103.7</ele>
        <time>2015-02-16T20:20:29.719Z</time>
      </trkpt>
      <trkpt lat="48.83007" lon="2.37593">
        <ele>103.4</ele>
        <time>2015-02-16T20:20:31.689Z</time>
      </trkpt>
      <trkpt lat="48.83005" lon="2.37589">
        <ele>103.1</ele>
        <time>2015-02-16T20:20:32.730Z</time>
      </trkpt>
      <trkpt lat="48.83" lon="2.37581">
        <ele>103</ele>
        <time>2015-02-16T20:20:35.569Z</time>
      </trkpt>
      <trkpt lat="48.82998" lon="2.37577">
        <ele>103</ele>
        <time>2015-02-16T20:20:35.639Z</time>
      </trkpt>
      <trkpt lat="48.82993" lon="2.37567">
        <ele>103.2</ele>
        <time>2015-02-16T20:20:37.687Z</time>
      </trkpt>
      <trkpt lat="48.8299" lon="2.3756">
        <ele>103.3</ele>
        <time>2015-02-16T20:20:38.698Z</time>
      </trkpt>
      <trkpt lat="48.82987" lon="2.37552">
        <ele>103.4</ele>
        <time>2015-02-16T20:20:40.610Z</time>
      </trkpt>
      <trkpt lat="48.82984" lon="2.37546">
        <ele>103.5</ele>
        <time>2015-02-16T20:20:40.709Z</time>
      </trkpt>
      <trkpt lat="48.82981" lon="2.37539">
        <ele>103.5</ele>
        <time>2015-02-16T20:20:41.635Z</time>
      </trkpt>
      <trkpt lat="48.82978" lon="2.37534">
        <ele>103.5</ele>
        <time>2015-02-16T20:20:42.737Z</time>
      </trkpt>
      <trkpt lat="48.82974" lon="2.37523">
        <ele>103.6</ele>
        <time>2015-02-16T20:20:45.708Z</time>
      </trkpt>
      <trkpt lat="48.82972" lon="2.37518">
        <ele>103.6</ele>
        <time>2015-02-16T20:20:45.743Z</time>
      </trkpt>
      <trkpt lat="48.8297" lon="2.37512">
        <ele>103.5</ele>
        <time>2015-02-16T20:20:46.627Z</time>
      </trkpt>
      <trkpt lat="48.82967" lon="2.37506">
        <ele>103.5</ele>
        <time>2015-02-16T20:20:47.628Z</time>
      </trkpt>
      <trkpt lat="48.82964" lon="2.37499">
        <ele>103.4</ele>
        <time>2015-02-16T20:20:48.653Z</time>
      </trkpt>
      <trkpt lat="48.82961" lon="2.37491">
        <ele>103.4</ele>
        <time>2015-02-16T20:20:49.654Z</time>
      </trkpt>
      <trkpt lat="48.82959" lon="2.37483">
        <ele>103.5</ele>
        <time>2015-02-16T20:20:50.671Z</time>
      </trkpt>
      <trkpt lat="48.82957" lon="2.37478">
        <ele>103.6</ele>
        <time>2015-02-16T20:20:51.674Z</time>
      </trkpt>
      <trkpt lat="48.82952" lon="2.37467">
        <ele>103.7</ele>
        <time>2015-02-16T20:20:53.691Z</time>
      </trkpt>
      <trkpt lat="48.8295" lon="2.37463">
        <ele>103.8</ele>
        <time>2015-02-16T20:20:54.740Z</time>
      </trkpt>
      <trkpt lat="48.82944" lon="2.37455">
        <ele>103.1</ele>
        <time>2015-02-16T20:20:55.596Z</time>
      </trkpt>
      <trkpt lat="48.8294" lon="2.37452">
        <ele>103.1</ele>
        <time>2015-02-16T20:20:56.604Z</time>
      </trkpt>
      <trkpt lat="48.82935" lon="2.37445">
        <ele>103.2</ele>
        <time>2015-02-16T20:20:58.626Z</time>
      </trkpt>
      <trkpt lat="48.82933" lon="2.37442">
        <ele>103.2</ele>
        <time>2015-02-16T20:20:59.652Z</time>
      </trkpt>
      <trkpt lat="48.82927" lon="2.37433">
        <ele>103.2</ele>
        <time>2015-02-16T20:21:03.649Z</time>
      </trkpt>
      <trkpt lat="48.82926" lon="2.37431">
        <ele>103.1</ele>
        <time>2015-02-16T20:21:04.668Z</time>
      </trkpt>
      <trkpt lat="48.82926" lon="2.37431">
        <ele>103.1</ele>
        <time>2015-02-16T20:21:05.706Z</time>
      </trkpt>
      <trkpt lat="48.82924" lon="2.37432">
        <ele>103.1</ele>
        <time>2015-02-16T20:21:05.977Z</time>
      </trkpt>
      <trkpt lat="48.82922" lon="2.37433">
        <ele>103.4</ele>
        <time>2015-02-16T20:21:06.673Z</time>
      </trkpt>
      <trkpt lat="48.82918" lon="2.37424">
        <ele>103.7</ele>
        <time>2015-02-16T20:21:10.735Z</time>
      </trkpt>
      <trkpt lat="48.82916" lon="2.3742">
        <ele>103.8</ele>
        <time>2015-02-16T20:21:11.632Z</time>
      </trkpt>
      <trkpt lat="48.82912" lon="2.37411">
        <ele>103.8</ele>
        <time>2015-02-16T20:21:14.716Z</time>
      </trkpt>
      <trkpt lat="48.8291" lon="2.37409">
        <ele>103.8</ele>
        <time>2015-02-16T20:21:15.764Z</time>
      </trkpt>
      <trkpt lat="48.82904" lon="2.37401">
        <ele>103.7</ele>
        <time>2015-02-16T20:21:18.703Z</time>
      </trkpt>
      <trkpt lat="48.82902" lon="2.37398">
        <ele>103.6</ele>
        <time>2015-02-16T20:21:19.715Z</time>
      </trkpt>
      <trkpt lat="48.82898" lon="2.37391">
        <ele>103.7</ele>
        <time>2015-02-16T20:21:21.642Z</time>
      </trkpt>
      <trkpt lat="48.82895" lon="2.37388">
        <ele>103.9</ele>
        <time>2015-02-16T20:21:22.655Z</time>
      </trkpt>
      <trkpt lat="48.82892" lon="2.3738">
        <ele>104.1</ele>
        <time>2015-02-16T20:21:24.690Z</time>
      </trkpt>
      <trkpt lat="48.8289" lon="2.37376">
        <ele>104.3</ele>
        <time>2015-02-16T20:21:25.701Z</time>
      </trkpt>
      <trkpt lat="48.82885" lon="2.37371">
        <ele>104.4</ele>
        <time>2015-02-16T20:21:27.645Z</time>
      </trkpt>
      <trkpt lat="48.82882" lon="2.37368">
        <ele>104.4</ele>
        <time>2015-02-16T20:21:28.686Z</time>
      </trkpt>
      <trkpt lat="48.82877" lon="2.37361">
        <ele>104.6</ele>
        <time>2015-02-16T20:21:30.641Z</time>
      </trkpt>
      <trkpt lat="48.82876" lon="2.37358">
        <ele>104.6</ele>
        <time>2015-02-16T20:21:31.660Z</time>
      </trkpt>
      <trkpt lat="48.82873" lon="2.37345">
        <ele>104</ele>
        <time>2015-02-16T20:21:35.568Z</time>
      </trkpt>
      <trkpt lat="48.82873" lon="2.37341">
        <ele>103.9</ele>
        <time>2015-02-16T20:21:35.692Z</time>
      </trkpt>
      <trkpt lat="48.82871" lon="2.3733">
        <ele>103.4</ele>
        <time>2015-02-16T20:21:39.629Z</time>
      </trkpt>
      <trkpt lat="48.8287" lon="2.37328">
        <ele>103.3</ele>
        <time>2015-02-16T20:21:40.652Z</time>
      </trkpt>
      <trkpt lat="48.82866" lon="2.37317">
        <ele>103</ele>
        <time>2015-02-16T20:21:45.719Z</time>
      </trkpt>
      <trkpt lat="48.82865" lon="2.37316">
        <ele>103.1</ele>
        <time>2015-02-16T20:21:46.664Z</time>
      </trkpt>
      <trkpt lat="48.82864" lon="2.37312">
        <ele>102.8</ele>
        <time>2015-02-16T20:21:49.631Z</time>
      </trkpt>
      <trkpt lat="48.82864" lon="2.37311">
        <ele>103.1</ele>
        <time>2015-02-16T20:21:50.633Z</time>
      </trkpt>
      <trkpt lat="48.82864" lon="2.37311">
        <ele>103.1</ele>
        <time>2015-02-16T20:21:51.096Z</time>
      </trkpt>
      <trkpt lat="48.82863" lon="2.37309">
        <ele>103.2</ele>
        <time>2015-02-16T20:21:51.668Z</time>
      </trkpt>
      <trkpt lat="48.82863" lon="2.37309">
        <ele>103.3</ele>
        <time>2015-02-16T20:21:52.632Z</time>
      </trkpt>
      <trkpt lat="48.82863" lon="2.37308">
        <ele>103.4</ele>
        <time>2015-02-16T20:21:53.622Z</time>
      </trkpt>
      <trkpt lat="48.82863" lon="2.37307">
        <ele>103.6</ele>
        <time>2015-02-16T20:21:56.659Z</time>
      </trkpt>
      <trkpt lat="48.82862" lon="2.37308">
        <ele>103.7</ele>
        <time>2015-02-16T20:21:57.693Z</time>
      </trkpt>
      <trkpt lat="48.82862" lon="2.37307">
        <ele>103.9</ele>
        <time>2015-02-16T20:21:58.722Z</time>
      </trkpt>
      <trkpt lat="48.82861" lon="2.37305">
        <ele>103.9</ele>
        <time>2015-02-16T20:21:59.629Z</time>
      </trkpt>
      <trkpt lat="48.82854" lon="2.3731">
        <ele>104.6</ele>
        <time>2015-02-16T20:22:12.640Z</time>
      </trkpt>
      <trkpt lat="48.82854" lon="2.37319">
        <ele>104.4</ele>
        <time>2015-02-16T20:22:17.665Z</time>
      </trkpt>
      <trkpt lat="48.82844" lon="2.3733">
        <ele>104</ele>
        <time>2015-02-16T20:22:19.712Z</time>
      </trkpt>
      <trkpt lat="48.82836" lon="2.37333">
        <ele>103.8</ele>
        <time>2015-02-16T20:22:21.534Z</time>
      </trkpt>
      <trkpt lat="48.8283" lon="2.37337">
        <ele>103.7</ele>
        <time>2015-02-16T20:22:21.602Z</time>
      </trkpt>
      <trkpt lat="48.82824" lon="2.3734">
        <ele>103.8</ele>
        <time>2015-02-16T20:22:22.630Z</time>
      </trkpt>
      <trkpt lat="48.82819" lon="2.37345">
        <ele>103.6</ele>
        <time>2015-02-16T20:22:23.728Z</time>
      </trkpt>
      <trkpt lat="48.82815" lon="2.37349">
        <ele>103.6</ele>
        <time>2015-02-16T20:22:24.746Z</time>
      </trkpt>
      <trkpt lat="48.82811" lon="2.37354">
        <ele>103.5</ele>
        <time>2015-02-16T20:22:25.641Z</time>
      </trkpt>
      <trkpt lat="48.82807" lon="2.3736">
        <ele>103.5</ele>
        <time>2015-02-16T20:22:26.770Z</time>
      </trkpt>
      <trkpt lat="48.82802" lon="2.37364">
        <ele>103.3</ele>
        <time>2015-02-16T20:22:27.675Z</time>
      </trkpt>
      <trkpt lat="48.82798" lon="2.37367">
        <ele>103.3</ele>
        <time>2015-02-16T20:22:28.685Z</time>
      </trkpt>
      <trkpt lat="48.82794" lon="2.37372">
        <ele>103.2</ele>
        <time>2015-02-16T20:22:29.692Z</time>
      </trkpt>
      <trkpt lat="48.82789" lon="2.37376">
        <ele>103.2</ele>
        <time>2015-02-16T20:22:30.653Z</time>
      </trkpt>
      <trkpt lat="48.82784" lon="2.37381">
        <ele>103.1</ele>
        <time>2015-02-16T20:22:31.676Z</time>
      </trkpt>
      <trkpt lat="48.82779" lon="2.37386">
        <ele>103</ele>
        <time>2015-02-16T20:22:32.691Z</time>
      </trkpt>
      <trkpt lat="48.82774" lon="2.3739">
        <ele>102.9</ele>
        <time>2015-02-16T20:22:33.704Z</time>
      </trkpt>
      <trkpt lat="48.82769" lon="2.37395">
        <ele>102.8</ele>
        <time>2015-02-16T20:22:35.512Z</time>
      </trkpt>
      <trkpt lat="48.82764" lon="2.37399">
        <ele>102.7</ele>
        <time>2015-02-16T20:22:35.591Z</time>
      </trkpt>
      <trkpt lat="48.8276" lon="2.37403">
        <ele>102.6</ele>
        <time>2015-02-16T20:22:36.632Z</time>
      </trkpt>
      <trkpt lat="48.82755" lon="2.37407">
        <ele>102.6</ele>
        <time>2015-02-16T20:22:37.652Z</time>
      </trkpt>
      <trkpt lat="48.82751" lon="2.3741">
        <ele>102.6</ele>
        <time>2015-02-16T20:22:38.663Z</time>
      </trkpt>
      <trkpt lat="48.82746" lon="2.37413">
        <ele>102.5</ele>
        <time>2015-02-16T20:22:39.682Z</time>
      </trkpt>
      <trkpt lat="48.82746" lon="2.37413">
        <ele>102.5</ele>
        <time>2015-02-16T20:22:40.567Z</time>
      </trkpt>
      <trkpt lat="48.82737" lon="2.37418">
        <ele>102.4</ele>
        <time>2015-02-16T20:22:41.624Z</time>
      </trkpt>
      <trkpt lat="48.82728" lon="2.3742">
        <ele>102.2</ele>
        <time>2015-02-16T20:22:43.710Z</time>
      </trkpt>
      <trkpt lat="48.82725" lon="2.37417">
        <ele>102</ele>
        <time>2015-02-16T20:22:44.715Z</time>
      </trkpt>
      <trkpt lat="48.82721" lon="2.37409">
        <ele>101.4</ele>
        <time>2015-02-16T20:22:46.697Z</time>
      </trkpt>
      <trkpt lat="48.82718" lon="2.37395">
        <ele>101.1</ele>
        <time>2015-02-16T20:22:50.732Z</time>
      </trkpt>
      <trkpt lat="48.82719" lon="2.37391">
        <ele>101.2</ele>
        <time>2015-02-16T20:22:51.628Z</time>
      </trkpt>
      <trkpt lat="48.82729" lon="2.37335">
        <ele>101.8</ele>
        <time>2015-02-16T20:23:01.689Z</time>
      </trkpt>
      <trkpt lat="48.82731" lon="2.37324">
        <ele>101.8</ele>
        <time>2015-02-16T20:23:03.623Z</time>
      </trkpt>
      <trkpt lat="48.82734" lon="2.37317">
        <ele>101.8</ele>
        <time>2015-02-16T20:23:04.660Z</time>
      </trkpt>
      <trkpt lat="48.82738" lon="2.37312">
        <ele>101.9</ele>
        <time>2015-02-16T20:23:05.705Z</time>
      </trkpt>
      <trkpt lat="48.8274" lon="2.37306">
        <ele>102</ele>
        <time>2015-02-16T20:23:06.694Z</time>
      </trkpt>
      <trkpt lat="48.82743" lon="2.37301">
        <ele>102</ele>
        <time>2015-02-16T20:23:07.750Z</time>
      </trkpt>
      <trkpt lat="48.82748" lon="2.37281">
        <ele>102.3</ele>
        <time>2015-02-16T20:23:10.632Z</time>
      </trkpt>
      <trkpt lat="48.8275" lon="2.37267">
        <ele>102.3</ele>
        <time>2015-02-16T20:23:12.632Z</time>
      </trkpt>
      <trkpt lat="48.8275" lon="2.37262">
        <ele>102.4</ele>
        <time>2015-02-16T20:23:13.686Z</time>
      </trkpt>
      <trkpt lat="48.8275" lon="2.37251">
        <ele>102.4</ele>
        <time>2015-02-16T20:23:15.657Z</time>
      </trkpt>
      <trkpt lat="48.82748" lon="2.37245">
        <ele>102.6</ele>
        <time>2015-02-16T20:23:16.662Z</time>
      </trkpt>
      <trkpt lat="48.82748" lon="2.37237">
        <ele>102.5</ele>
        <time>2015-02-16T20:23:17.670Z</time>
      </trkpt>
      <trkpt lat="48.82751" lon="2.37225">
        <ele>101.8</ele>
        <time>2015-02-16T20:23:18.771Z</time>
      </trkpt>
      <trkpt lat="48.82753" lon="2.3722">
        <ele>102</ele>
        <time>2015-02-16T20:23:19.685Z</time>
      </trkpt>
      <trkpt lat="48.82755" lon="2.37212">
        <ele>101.6</ele>
        <time>2015-02-16T20:23:20.690Z</time>
      </trkpt>
      <trkpt lat="48.82759" lon="2.37205">
        <ele>101</ele>
        <time>2015-02-16T20:23:21.706Z</time>
      </trkpt>
      <trkpt lat="48.82762" lon="2.37195">
        <ele>101</ele>
        <time>2015-02-16T20:23:22.602Z</time>
      </trkpt>
      <trkpt lat="48.82763" lon="2.37182">
        <ele>102.2</ele>
        <time>2015-02-16T20:23:26.687Z</time>
      </trkpt>
      <trkpt lat="48.82763" lon="2.37181">
        <ele>102.5</ele>
        <time>2015-02-16T20:23:27.697Z</time>
      </trkpt>
      <trkpt lat="48.82758" lon="2.37171">
        <ele>104.7</ele>
        <time>2015-02-16T20:23:38.684Z</time>
      </trkpt>
      <trkpt lat="48.82757" lon="2.3717">
        <ele>104.7</ele>
        <time>2015-02-16T20:23:39.684Z</time>
      </trkpt>
      <trkpt lat="48.8275" lon="2.37161">
        <ele>105.3</ele>
        <time>2015-02-16T20:23:48.696Z</time>
      </trkpt>
      <trkpt lat="48.8275" lon="2.3716">
        <ele>105.4</ele>
        <time>2015-02-16T20:23:49.610Z</time>
      </trkpt>
      <trkpt lat="48.82753" lon="2.37147">
        <ele>105.9</ele>
        <time>2015-02-16T20:23:55.882Z</time>
      </trkpt>
      <trkpt lat="48.82755" lon="2.37144">
        <ele>106</ele>
        <time>2015-02-16T20:23:56.619Z</time>
      </trkpt>
      <trkpt lat="48.82758" lon="2.37135">
        <ele>106.2</ele>
        <time>2015-02-16T20:23:59.617Z</time>
      </trkpt>
      <trkpt lat="48.82759" lon="2.37132">
        <ele>106.4</ele>
        <time>2015-02-16T20:24:00.743Z</time>
      </trkpt>
      <trkpt lat="48.82762" lon="2.37122">
        <ele>106.7</ele>
        <time>2015-02-16T20:24:03.644Z</time>
      </trkpt>
      <trkpt lat="48.82763" lon="2.37119">
        <ele>106.8</ele>
        <time>2015-02-16T20:24:04.700Z</time>
      </trkpt>
      <trkpt lat="48.82766" lon="2.37109">
        <ele>107.3</ele>
        <time>2015-02-16T20:24:07.689Z</time>
      </trkpt>
      <trkpt lat="48.82767" lon="2.37106">
        <ele>107.3</ele>
        <time>2015-02-16T20:24:08.707Z</time>
      </trkpt>
      <trkpt lat="48.82769" lon="2.37095">
        <ele>108</ele>
        <time>2015-02-16T20:24:12.673Z</time>
      </trkpt>
      <trkpt lat="48.82769" lon="2.37092">
        <ele>108.4</ele>
        <time>2015-02-16T20:24:13.686Z</time>
      </trkpt>
      <trkpt lat="48.82773" lon="2.37085">
        <ele>108.8</ele>
        <time>2015-02-16T20:24:16.736Z</time>
      </trkpt>
      <trkpt lat="48.82776" lon="2.37081">
        <ele>108.7</ele>
        <time>2015-02-16T20:24:17.670Z</time>
      </trkpt>
      <trkpt lat="48.8278" lon="2.37069">
        <ele>108.6</ele>
        <time>2015-02-16T20:24:20.607Z</time>
      </trkpt>
      <trkpt lat="48.8278" lon="2.37066">
        <ele>108.5</ele>
        <time>2015-02-16T20:24:21.606Z</time>
      </trkpt>
      <trkpt lat="48.82783" lon="2.37057">
        <ele>108.4</ele>
        <time>2015-02-16T20:24:23.687Z</time>
      </trkpt>
      <trkpt lat="48.82787" lon="2.37043">
        <ele>108.2</ele>
        <time>2015-02-16T20:24:26.725Z</time>
      </trkpt>
      <trkpt lat="48.82806" lon="2.36982">
        <ele>107.4</ele>
        <time>2015-02-16T20:24:40.601Z</time>
      </trkpt>
      <trkpt lat="48.82806" lon="2.36982">
        <ele>107.4</ele>
        <time>2015-02-16T20:24:40.612Z</time>
      </trkpt>
      <trkpt lat="48.82801" lon="2.36965">
        <ele>108.3</ele>
        <time>2015-02-16T20:24:43.678Z</time>
      </trkpt>
      <trkpt lat="48.82801" lon="2.36953">
        <ele>108.7</ele>
        <time>2015-02-16T20:24:45.689Z</time>
      </trkpt>
      <trkpt lat="48.82801" lon="2.36948">
        <ele>108.8</ele>
        <time>2015-02-16T20:24:46.633Z</time>
      </trkpt>
      <trkpt lat="48.82802" lon="2.36934">
        <ele>108.8</ele>
        <time>2015-02-16T20:24:49.616Z</time>
      </trkpt>
      <trkpt lat="48.82803" lon="2.36924">
        <ele>108.6</ele>
        <time>2015-02-16T20:24:52.666Z</time>
      </trkpt>
      <trkpt lat="48.82803" lon="2.36919">
        <ele>108.6</ele>
        <time>2015-02-16T20:24:53.673Z</time>
      </trkpt>
      <trkpt lat="48.82804" lon="2.36908">
        <ele>109</ele>
        <time>2015-02-16T20:24:55.859Z</time>
      </trkpt>
      <trkpt lat="48.82806" lon="2.36903">
        <ele>109.3</ele>
        <time>2015-02-16T20:24:56.691Z</time>
      </trkpt>
      <trkpt lat="48.82808" lon="2.36891">
        <ele>109.7</ele>
        <time>2015-02-16T20:24:59.624Z</time>
      </trkpt>
      <trkpt lat="48.8281" lon="2.36886">
        <ele>109.8</ele>
        <time>2015-02-16T20:25:00.667Z</time>
      </trkpt>
      <trkpt lat="48.82814" lon="2.36877">
        <ele>110</ele>
        <time>2015-02-16T20:25:02.695Z</time>
      </trkpt>
      <trkpt lat="48.82815" lon="2.36869">
        <ele>111</ele>
        <time>2015-02-16T20:25:03.592Z</time>
      </trkpt>
      <trkpt lat="48.82817" lon="2.36857">
        <ele>112.4</ele>
        <time>2015-02-16T20:25:05.973Z</time>
      </trkpt>
      <trkpt lat="48.82819" lon="2.36852">
        <ele>113.2</ele>
        <time>2015-02-16T20:25:06.638Z</time>
      </trkpt>
      <trkpt lat="48.82821" lon="2.36842">
        <ele>114.2</ele>
        <time>2015-02-16T20:25:11.649Z</time>
      </trkpt>
      <trkpt lat="48.8282" lon="2.36838">
        <ele>114.5</ele>
        <time>2015-02-16T20:25:12.733Z</time>
      </trkpt>
      <trkpt lat="48.82819" lon="2.36826">
        <ele>114.2</ele>
        <time>2015-02-16T20:25:14.624Z</time>
      </trkpt>
      <trkpt lat="48.82818" lon="2.36821">
        <ele>114</ele>
        <time>2015-02-16T20:25:15.644Z</time>
      </trkpt>
      <trkpt lat="48.82817" lon="2.36814">
        <ele>113.7</ele>
        <time>2015-02-16T20:25:16.665Z</time>
      </trkpt>
      <trkpt lat="48.8282" lon="2.36803">
        <ele>113.5</ele>
        <time>2015-02-16T20:25:17.684Z</time>
      </trkpt>
      <trkpt lat="48.82819" lon="2.3679">
        <ele>112.8</ele>
        <time>2015-02-16T20:25:19.653Z</time>
      </trkpt>
      <trkpt lat="48.8282" lon="2.36784">
        <ele>112.4</ele>
        <time>2015-02-16T20:25:20.667Z</time>
      </trkpt>
      <trkpt lat="48.8282" lon="2.36777">
        <ele>112.1</ele>
        <time>2015-02-16T20:25:21.670Z</time>
      </trkpt>
      <trkpt lat="48.82823" lon="2.36769">
        <ele>111.8</ele>
        <time>2015-02-16T20:25:22.681Z</time>
      </trkpt>
      <trkpt lat="48.82825" lon="2.36763">
        <ele>111.6</ele>
        <time>2015-02-16T20:25:23.682Z</time>
      </trkpt>
      <trkpt lat="48.82827" lon="2.36757">
        <ele>111.6</ele>
        <time>2015-02-16T20:25:24.685Z</time>
      </trkpt>
      <trkpt lat="48.82829" lon="2.36747">
        <ele>111.6</ele>
        <time>2015-02-16T20:25:26.701Z</time>
      </trkpt>
      <trkpt lat="48.8283" lon="2.36742">
        <ele>111.5</ele>
        <time>2015-02-16T20:25:27.617Z</time>
      </trkpt>
      <trkpt lat="48.82834" lon="2.36732">
        <ele>111.3</ele>
        <time>2015-02-16T20:25:30.676Z</time>
      </trkpt>
      <trkpt lat="48.82835" lon="2.36728">
        <ele>111.2</ele>
        <time>2015-02-16T20:25:31.709Z</time>
      </trkpt>
      <trkpt lat="48.8284" lon="2.36717">
        <ele>111.3</ele>
        <time>2015-02-16T20:25:35.708Z</time>
      </trkpt>
      <trkpt lat="48.82841" lon="2.36715">
        <ele>111.3</ele>
        <time>2015-02-16T20:25:36.732Z</time>
      </trkpt>
      <trkpt lat="48.82847" lon="2.36709">
        <ele>111.3</ele>
        <time>2015-02-16T20:25:40.623Z</time>
      </trkpt>
      <trkpt lat="48.82849" lon="2.36706">
        <ele>111.6</ele>
        <time>2015-02-16T20:25:41.640Z</time>
      </trkpt>
      <trkpt lat="48.82851" lon="2.36697">
        <ele>111.7</ele>
        <time>2015-02-16T20:25:43.677Z</time>
      </trkpt>
      <trkpt lat="48.82852" lon="2.36692">
        <ele>111.7</ele>
        <time>2015-02-16T20:25:44.683Z</time>
      </trkpt>
      <trkpt lat="48.82854" lon="2.3668">
        <ele>111.3</ele>
        <time>2015-02-16T20:25:46.609Z</time>
      </trkpt>
      <trkpt lat="48.82854" lon="2.36675">
        <ele>111</ele>
        <time>2015-02-16T20:25:47.640Z</time>
      </trkpt>
      <trkpt lat="48.82857" lon="2.36662">
        <ele>111</ele>
        <time>2015-02-16T20:25:49.672Z</time>
      </trkpt>
      <trkpt lat="48.82858" lon="2.36657">
        <ele>110.9</ele>
        <time>2015-02-16T20:25:50.614Z</time>
      </trkpt>
      <trkpt lat="48.8286" lon="2.36646">
        <ele>110.9</ele>
        <time>2015-02-16T20:25:52.625Z</time>
      </trkpt>
      <trkpt lat="48.82861" lon="2.3664">
        <ele>110.9</ele>
        <time>2015-02-16T20:25:53.630Z</time>
      </trkpt>
      <trkpt lat="48.82863" lon="2.36628">
        <ele>110.8</ele>
        <time>2015-02-16T20:25:55.683Z</time>
      </trkpt>
      <trkpt lat="48.82871" lon="2.36595">
        <ele>110.5</ele>
        <time>2015-02-16T20:26:00.719Z</time>
      </trkpt>
      <trkpt lat="48.82882" lon="2.36575">
        <ele>110.5</ele>
        <time>2015-02-16T20:26:03.750Z</time>
      </trkpt>
      <trkpt lat="48.82884" lon="2.36569">
        <ele>110.7</ele>
        <time>2015-02-16T20:26:04.590Z</time>
      </trkpt>
      <trkpt lat="48.82886" lon="2.36562">
        <ele>110.9</ele>
        <time>2015-02-16T20:26:05.748Z</time>
      </trkpt>
      <trkpt lat="48.82887" lon="2.36555">
        <ele>111.3</ele>
        <time>2015-02-16T20:26:06.705Z</time>
      </trkpt>
      <trkpt lat="48.82889" lon="2.36549">
        <ele>111.7</ele>
        <time>2015-02-16T20:26:07.589Z</time>
      </trkpt>
      <trkpt lat="48.82895" lon="2.3654">
        <ele>112.1</ele>
        <time>2015-02-16T20:26:09.629Z</time>
      </trkpt>
      <trkpt lat="48.82901" lon="2.36535">
        <ele>112.5</ele>
        <time>2015-02-16T20:26:10.640Z</time>
      </trkpt>
      <trkpt lat="48.82906" lon="2.36531">
        <ele>112.3</ele>
        <time>2015-02-16T20:26:11.661Z</time>
      </trkpt>
      <trkpt lat="48.82909" lon="2.36525">
        <ele>112.4</ele>
        <time>2015-02-16T20:26:12.671Z</time>
      </trkpt>
      <trkpt lat="48.82911" lon="2.3652">
        <ele>112.2</ele>
        <time>2015-02-16T20:26:13.716Z</time>
      </trkpt>
      <trkpt lat="48.82914" lon="2.36514">
        <ele>111.7</ele>
        <time>2015-02-16T20:26:14.719Z</time>
      </trkpt>
      <trkpt lat="48.82913" lon="2.36501">
        <ele>111.6</ele>
        <time>2015-02-16T20:26:16.701Z</time>
      </trkpt>
      <trkpt lat="48.82911" lon="2.36494">
        <ele>112.1</ele>
        <time>2015-02-16T20:26:17.698Z</time>
      </trkpt>
      <trkpt lat="48.82909" lon="2.36483">
        <ele>112.9</ele>
        <time>2015-02-16T20:26:19.621Z</time>
      </trkpt>
      <trkpt lat="48.82908" lon="2.36479">
        <ele>113.4</ele>
        <time>2015-02-16T20:26:20.636Z</time>
      </trkpt>
      <trkpt lat="48.82911" lon="2.36468">
        <ele>115.3</ele>
        <time>2015-02-16T20:26:24.706Z</time>
      </trkpt>
      <trkpt lat="48.82913" lon="2.36465">
        <ele>115.9</ele>
        <time>2015-02-16T20:26:25.636Z</time>
      </trkpt>
      <trkpt lat="48.82919" lon="2.36457">
        <ele>117</ele>
        <time>2015-02-16T20:26:28.688Z</time>
      </trkpt>
      <trkpt lat="48.82921" lon="2.36455">
        <ele>117.3</ele>
        <time>2015-02-16T20:26:29.697Z</time>
      </trkpt>
      <trkpt lat="48.82927" lon="2.36449">
        <ele>118.3</ele>
        <time>2015-02-16T20:26:32.627Z</time>
      </trkpt>
      <trkpt lat="48.82929" lon="2.36445">
        <ele>118.4</ele>
        <time>2015-02-16T20:26:33.701Z</time>
      </trkpt>
      <trkpt lat="48.82935" lon="2.36438">
        <ele>119.6</ele>
        <time>2015-02-16T20:26:36.660Z</time>
      </trkpt>
      <trkpt lat="48.82937" lon="2.36436">
        <ele>119.9</ele>
        <time>2015-02-16T20:26:37.682Z</time>
      </trkpt>
      <trkpt lat="48.8294" lon="2.36428">
        <ele>120.7</ele>
        <time>2015-02-16T20:26:39.702Z</time>
      </trkpt>
      <trkpt lat="48.82941" lon="2.36423">
        <ele>120.4</ele>
        <time>2015-02-16T20:26:40.724Z</time>
      </trkpt>
      <trkpt lat="48.82945" lon="2.36411">
        <ele>119.7</ele>
        <time>2015-02-16T20:26:42.670Z</time>
      </trkpt>
      <trkpt lat="48.82946" lon="2.36405">
        <ele>119</ele>
        <time>2015-02-16T20:26:43.694Z</time>
      </trkpt>
      <trkpt lat="48.82951" lon="2.36394">
        <ele>118.1</ele>
        <time>2015-02-16T20:26:45.723Z</time>
      </trkpt>
      <trkpt lat="48.82952" lon="2.36388">
        <ele>118.1</ele>
        <time>2015-02-16T20:26:46.729Z</time>
      </trkpt>
      <trkpt lat="48.82954" lon="2.36377">
        <ele>117.3</ele>
        <time>2015-02-16T20:26:49.661Z</time>
      </trkpt>
      <trkpt lat="48.82955" lon="2.36374">
        <ele>117.3</ele>
        <time>2015-02-16T20:26:50.676Z</time>
      </trkpt>
      <trkpt lat="48.82962" lon="2.36366">
        <ele>117.8</ele>
        <time>2015-02-16T20:26:54.711Z</time>
      </trkpt>
      <trkpt lat="48.82964" lon="2.36364">
        <ele>117.9</ele>
        <time>2015-02-16T20:26:55.739Z</time>
      </trkpt>
      <trkpt lat="48.82971" lon="2.36359">
        <ele>118.1</ele>
        <time>2015-02-16T20:26:57.690Z</time>
      </trkpt>
      <trkpt lat="48.82974" lon="2.36356">
        <ele>118.2</ele>
        <time>2015-02-16T20:26:58.707Z</time>
      </trkpt>
      <trkpt lat="48.82979" lon="2.36349">
        <ele>118.4</ele>
        <time>2015-02-16T20:27:00.651Z</time>
      </trkpt>
      <trkpt lat="48.82984" lon="2.36343">
        <ele>118.7</ele>
        <time>2015-02-16T20:27:02.668Z</time>
      </trkpt>
      <trkpt lat="48.82989" lon="2.36335">
        <ele>118.9</ele>
        <time>2015-02-16T20:27:04.676Z</time>
      </trkpt>
      <trkpt lat="48.82991" lon="2.36331">
        <ele>118.9</ele>
        <time>2015-02-16T20:27:05.647Z</time>
      </trkpt>
      <trkpt lat="48.82995" lon="2.36324">
        <ele>119.2</ele>
        <time>2015-02-16T20:27:07.667Z</time>
      </trkpt>
      <trkpt lat="48.82997" lon="2.36321">
        <ele>119.4</ele>
        <time>2015-02-16T20:27:08.685Z</time>
      </trkpt>
      <trkpt lat="48.83" lon="2.36311">
        <ele>119.7</ele>
        <time>2015-02-16T20:27:11.621Z</time>
      </trkpt>
      <trkpt lat="48.83" lon="2.36304">
        <ele>119.4</ele>
        <time>2015-02-16T20:27:12.664Z</time>
      </trkpt>
      <trkpt lat="48.82999" lon="2.36294">
        <ele>118.5</ele>
        <time>2015-02-16T20:27:13.627Z</time>
      </trkpt>
      <trkpt lat="48.83" lon="2.36286">
        <ele>118.1</ele>
        <time>2015-02-16T20:27:14.630Z</time>
      </trkpt>
      <trkpt lat="48.83001" lon="2.36278">
        <ele>117.7</ele>
        <time>2015-02-16T20:27:15.711Z</time>
      </trkpt>
      <trkpt lat="48.83001" lon="2.3627">
        <ele>117.4</ele>
        <time>2015-02-16T20:27:16.717Z</time>
      </trkpt>
      <trkpt lat="48.83003" lon="2.36259">
        <ele>116.7</ele>
        <time>2015-02-16T20:27:18.667Z</time>
      </trkpt>
      <trkpt lat="48.83006" lon="2.36255">
        <ele>116.3</ele>
        <time>2015-02-16T20:27:19.673Z</time>
      </trkpt>
      <trkpt lat="48.83013" lon="2.36247">
        <ele>115.5</ele>
        <time>2015-02-16T20:27:21.723Z</time>
      </trkpt>
      <trkpt lat="48.83016" lon="2.36243">
        <ele>115.1</ele>
        <time>2015-02-16T20:27:22.698Z</time>
      </trkpt>
      <trkpt lat="48.83018" lon="2.36238">
        <ele>114.6</ele>
        <time>2015-02-16T20:27:23.706Z</time>
      </trkpt>
      <trkpt lat="48.83027" lon="2.36226">
        <ele>113.2</ele>
        <time>2015-02-16T20:27:26.629Z</time>
      </trkpt>
      <trkpt lat="48.83032" lon="2.36217">
        <ele>112</ele>
        <time>2015-02-16T20:27:28.640Z</time>
      </trkpt>
      <trkpt lat="48.83035" lon="2.36212">
        <ele>111.9</ele>
        <time>2015-02-16T20:27:29.666Z</time>
      </trkpt>
      <trkpt lat="48.83039" lon="2.36201">
        <ele>112.9</ele>
        <time>2015-02-16T20:27:31.701Z</time>
      </trkpt>
      <trkpt lat="48.83042" lon="2.36196">
        <ele>113.6</ele>
        <time>2015-02-16T20:27:32.704Z</time>
      </trkpt>
      <trkpt lat="48.83045" lon="2.3619">
        <ele>114</ele>
        <time>2015-02-16T20:27:33.622Z</time>
      </trkpt>
      <trkpt lat="48.83049" lon="2.36185">
        <ele>114.3</ele>
        <time>2015-02-16T20:27:34.620Z</time>
      </trkpt>
      <trkpt lat="48.83052" lon="2.36181">
        <ele>114.3</ele>
        <time>2015-02-16T20:27:35.759Z</time>
      </trkpt>
      <trkpt lat="48.83055" lon="2.36176">
        <ele>114.2</ele>
        <time>2015-02-16T20:27:36.729Z</time>
      </trkpt>
      <trkpt lat="48.83059" lon="2.36172">
        <ele>114.3</ele>
        <time>2015-02-16T20:27:37.621Z</time>
      </trkpt>
      <trkpt lat="48.83063" lon="2.36168">
        <ele>114.1</ele>
        <time>2015-02-16T20:27:38.654Z</time>
      </trkpt>
      <trkpt lat="48.83068" lon="2.36161">
        <ele>113.8</ele>
        <time>2015-02-16T20:27:40.775Z</time>
      </trkpt>
      <trkpt lat="48.83083" lon="2.36145">
        <ele>113.8</ele>
        <time>2015-02-16T20:27:45.855Z</time>
      </trkpt>
      <trkpt lat="48.83088" lon="2.36138">
        <ele>113.6</ele>
        <time>2015-02-16T20:27:47.680Z</time>
      </trkpt>
      <trkpt lat="48.8309" lon="2.36134">
        <ele>113.3</ele>
        <time>2015-02-16T20:27:48.693Z</time>
      </trkpt>
      <trkpt lat="48.83097" lon="2.36125">
        <ele>112.9</ele>
        <time>2015-02-16T20:27:50.947Z</time>
      </trkpt>
      <trkpt lat="48.831" lon="2.36121">
        <ele>112.7</ele>
        <time>2015-02-16T20:27:51.690Z</time>
      </trkpt>
      <trkpt lat="48.83105" lon="2.36115">
        <ele>113.1</ele>
        <time>2015-02-16T20:27:52.714Z</time>
      </trkpt>
      <trkpt lat="48.83108" lon="2.3611">
        <ele>113.2</ele>
        <time>2015-02-16T20:27:53.606Z</time>
      </trkpt>
      <trkpt lat="48.83112" lon="2.36103">
        <ele>113.7</ele>
        <time>2015-02-16T20:27:56.157Z</time>
      </trkpt>
      <trkpt lat="48.83115" lon="2.361">
        <ele>114</ele>
        <time>2015-02-16T20:27:56.677Z</time>
      </trkpt>
      <trkpt lat="48.83121" lon="2.36092">
        <ele>115.5</ele>
        <time>2015-02-16T20:27:58.699Z</time>
      </trkpt>
      <trkpt lat="48.83124" lon="2.36087">
        <ele>116.5</ele>
        <time>2015-02-16T20:27:59.708Z</time>
      </trkpt>
      <trkpt lat="48.83132" lon="2.36083">
        <ele>118.8</ele>
        <time>2015-02-16T20:28:02.668Z</time>
      </trkpt>
      <trkpt lat="48.83135" lon="2.3608">
        <ele>119.3</ele>
        <time>2015-02-16T20:28:03.686Z</time>
      </trkpt>
      <trkpt lat="48.83142" lon="2.36074">
        <ele>120.4</ele>
        <time>2015-02-16T20:28:06.630Z</time>
      </trkpt>
      <trkpt lat="48.83145" lon="2.36071">
        <ele>120.8</ele>
        <time>2015-02-16T20:28:06.679Z</time>
      </trkpt>
      <trkpt lat="48.83149" lon="2.36065">
        <ele>123.2</ele>
        <time>2015-02-16T20:28:09.656Z</time>
      </trkpt>
      <trkpt lat="48.83152" lon="2.36062">
        <ele>123.4</ele>
        <time>2015-02-16T20:28:10.674Z</time>
      </trkpt>
      <trkpt lat="48.83157" lon="2.36054">
        <ele>123.5</ele>
        <time>2015-02-16T20:28:12.743Z</time>
      </trkpt>
      <trkpt lat="48.8316" lon="2.36051">
        <ele>123.7</ele>
        <time>2015-02-16T20:28:13.650Z</time>
      </trkpt>
      <trkpt lat="48.83165" lon="2.36042">
        <ele>123.1</ele>
        <time>2015-02-16T20:28:16.758Z</time>
      </trkpt>
      <trkpt lat="48.83167" lon="2.36037">
        <ele>122.6</ele>
        <time>2015-02-16T20:28:16.794Z</time>
      </trkpt>
      <trkpt lat="48.83172" lon="2.36029">
        <ele>122.2</ele>
        <time>2015-02-16T20:28:18.663Z</time>
      </trkpt>
      <trkpt lat="48.83175" lon="2.36026">
        <ele>122.1</ele>
        <time>2015-02-16T20:28:19.671Z</time>
      </trkpt>
      <trkpt lat="48.83181" lon="2.36017">
        <ele>121.4</ele>
        <time>2015-02-16T20:28:37.665Z</time>
      </trkpt>
      <trkpt lat="48.83191" lon="2.35999">
        <ele>117.1</ele>
        <time>2015-02-16T20:28:38.684Z</time>
      </trkpt>
      <trkpt lat="48.83187" lon="2.35988">
        <ele>115</ele>
        <time>2015-02-16T20:28:47.731Z</time>
      </trkpt>
      <trkpt lat="48.83186" lon="2.35986">
        <ele>115</ele>
        <time>2015-02-16T20:28:48.736Z</time>
      </trkpt>
      <trkpt lat="48.83182" lon="2.35977">
        <ele>114.7</ele>
        <time>2015-02-16T20:28:52.664Z</time>
      </trkpt>
      <trkpt lat="48.8318" lon="2.35974">
        <ele>114.4</ele>
        <time>2015-02-16T20:28:53.676Z</time>
      </trkpt>
      <trkpt lat="48.83176" lon="2.35962">
        <ele>113.4</ele>
        <time>2015-02-16T20:28:57.632Z</time>
      </trkpt>
      <trkpt lat="48.83176" lon="2.35959">
        <ele>113.2</ele>
        <time>2015-02-16T20:28:58.634Z</time>
      </trkpt>
      <trkpt lat="48.83175" lon="2.35949">
        <ele>113.7</ele>
        <time>2015-02-16T20:29:01.691Z</time>
      </trkpt>
      <trkpt lat="48.83175" lon="2.35944">
        <ele>114</ele>
        <time>2015-02-16T20:29:02.705Z</time>
      </trkpt>
      <trkpt lat="48.83173" lon="2.35934">
        <ele>114.5</ele>
        <time>2015-02-16T20:29:04.656Z</time>
      </trkpt>
      <trkpt lat="48.83172" lon="2.35929">
        <ele>114.5</ele>
        <time>2015-02-16T20:29:05.694Z</time>
      </trkpt>
      <trkpt lat="48.83166" lon="2.3592">
        <ele>114.7</ele>
        <time>2015-02-16T20:29:07.622Z</time>
      </trkpt>
      <trkpt lat="48.83164" lon="2.35915">
        <ele>114.6</ele>
        <time>2015-02-16T20:29:08.633Z</time>
      </trkpt>
      <trkpt lat="48.8316" lon="2.35906">
        <ele>114.6</ele>
        <time>2015-02-16T20:29:11.141Z</time>
      </trkpt>
      <trkpt lat="48.83158" lon="2.35903">
        <ele>114.5</ele>
        <time>2015-02-16T20:29:11.809Z</time>
      </trkpt>
      <trkpt lat="48.83155" lon="2.35894">
        <ele>114.3</ele>
        <time>2015-02-16T20:29:13.667Z</time>
      </trkpt>
      <trkpt lat="48.83154" lon="2.35889">
        <ele>114</ele>
        <time>2015-02-16T20:29:14.679Z</time>
      </trkpt>
      <trkpt lat="48.8315" lon="2.35879">
        <ele>113.8</ele>
        <time>2015-02-16T20:29:16.739Z</time>
      </trkpt>
      <trkpt lat="48.83148" lon="2.35874">
        <ele>113.5</ele>
        <time>2015-02-16T20:29:17.622Z</time>
      </trkpt>
      <trkpt lat="48.83146" lon="2.35865">
        <ele>113.4</ele>
        <time>2015-02-16T20:29:19.667Z</time>
      </trkpt>
      <trkpt lat="48.83144" lon="2.35859">
        <ele>113.3</ele>
        <time>2015-02-16T20:29:20.705Z</time>
      </trkpt>
      <trkpt lat="48.8314" lon="2.35848">
        <ele>113.2</ele>
        <time>2015-02-16T20:29:23.095Z</time>
      </trkpt>
      <trkpt lat="48.83138" lon="2.35842">
        <ele>113.3</ele>
        <time>2015-02-16T20:29:23.650Z</time>
      </trkpt>
      <trkpt lat="48.83134" lon="2.35835">
        <ele>113</ele>
        <time>2015-02-16T20:29:26.549Z</time>
      </trkpt>
      <trkpt lat="48.83132" lon="2.35829">
        <ele>113</ele>
        <time>2015-02-16T20:29:26.640Z</time>
      </trkpt>
      <trkpt lat="48.83131" lon="2.35819">
        <ele>111.3</ele>
        <time>2015-02-16T20:29:28.635Z</time>
      </trkpt>
      <trkpt lat="48.8313" lon="2.35815">
        <ele>111.1</ele>
        <time>2015-02-16T20:29:29.655Z</time>
      </trkpt>
      <trkpt lat="48.83125" lon="2.35804">
        <ele>111.3</ele>
        <time>2015-02-16T20:29:35.569Z</time>
      </trkpt>
      <trkpt lat="48.83124" lon="2.35802">
        <ele>111.2</ele>
        <time>2015-02-16T20:29:35.669Z</time>
      </trkpt>
      <trkpt lat="48.83119" lon="2.35792">
        <ele>110.8</ele>
        <time>2015-02-16T20:29:40.724Z</time>
      </trkpt>
      <trkpt lat="48.83118" lon="2.35789">
        <ele>110.9</ele>
        <time>2015-02-16T20:29:40.783Z</time>
      </trkpt>
      <trkpt lat="48.83116" lon="2.35779">
        <ele>110.8</ele>
        <time>2015-02-16T20:29:43.732Z</time>
      </trkpt>
      <trkpt lat="48.83115" lon="2.35776">
        <ele>110.8</ele>
        <time>2015-02-16T20:29:44.651Z</time>
      </trkpt>
      <trkpt lat="48.83112" lon="2.35765">
        <ele>110.3</ele>
        <time>2015-02-16T20:29:47.691Z</time>
      </trkpt>
      <trkpt lat="48.83111" lon="2.35761">
        <ele>109.9</ele>
        <time>2015-02-16T20:29:48.728Z</time>
      </trkpt>
      <trkpt lat="48.83108" lon="2.35753">
        <ele>109.1</ele>
        <time>2015-02-16T20:29:50.881Z</time>
      </trkpt>
      <trkpt lat="48.83106" lon="2.35749">
        <ele>108.8</ele>
        <time>2015-02-16T20:29:51.656Z</time>
      </trkpt>
      <trkpt lat="48.83103" lon="2.35737">
        <ele>108.6</ele>
        <time>2015-02-16T20:29:55.866Z</time>
      </trkpt>
      <trkpt lat="48.83102" lon="2.35735">
        <ele>108.7</ele>
        <time>2015-02-16T20:29:56.664Z</time>
      </trkpt>
      <trkpt lat="48.83098" lon="2.35726">
        <ele>109</ele>
        <time>2015-02-16T20:30:00.936Z</time>
      </trkpt>
      <trkpt lat="48.83096" lon="2.35722">
        <ele>108.9</ele>
        <time>2015-02-16T20:30:01.665Z</time>
      </trkpt>
      <trkpt lat="48.83092" lon="2.3571">
        <ele>108.8</ele>
        <time>2015-02-16T20:30:04.593Z</time>
      </trkpt>
      <trkpt lat="48.8309" lon="2.35706">
        <ele>108.9</ele>
        <time>2015-02-16T20:30:05.616Z</time>
      </trkpt>
      <trkpt lat="48.83088" lon="2.35697">
        <ele>109.1</ele>
        <time>2015-02-16T20:30:07.656Z</time>
      </trkpt>
      <trkpt lat="48.83087" lon="2.35692">
        <ele>109.2</ele>
        <time>2015-02-16T20:30:08.611Z</time>
      </trkpt>
      <trkpt lat="48.83082" lon="2.35682">
        <ele>109.9</ele>
        <time>2015-02-16T20:30:11.623Z</time>
      </trkpt>
      <trkpt lat="48.8308" lon="2.35679">
        <ele>109.7</ele>
        <time>2015-02-16T20:30:12.658Z</time>
      </trkpt>
      <trkpt lat="48.83076" lon="2.35672">
        <ele>109.9</ele>
        <time>2015-02-16T20:30:14.672Z</time>
      </trkpt>
      <trkpt lat="48.83075" lon="2.35667">
        <ele>110.5</ele>
        <time>2015-02-16T20:30:15.688Z</time>
      </trkpt>
      <trkpt lat="48.83072" lon="2.35657">
        <ele>111.5</ele>
        <time>2015-02-16T20:30:17.653Z</time>
      </trkpt>
      <trkpt lat="48.83071" lon="2.35653">
        <ele>111.7</ele>
        <time>2015-02-16T20:30:18.679Z</time>
      </trkpt>
      <trkpt lat="48.83067" lon="2.35645">
        <ele>112.2</ele>
        <time>2015-02-16T20:30:22.650Z</time>
      </trkpt>
      <trkpt lat="48.83066" lon="2.35642">
        <ele>112.2</ele>
        <time>2015-02-16T20:30:23.652Z</time>
      </trkpt>
      <trkpt lat="48.83062" lon="2.35632">
        <ele>112.5</ele>
        <time>2015-02-16T20:30:28.636Z</time>
      </trkpt>
      <trkpt lat="48.83062" lon="2.3563">
        <ele>112.3</ele>
        <time>2015-02-16T20:30:29.654Z</time>
      </trkpt>
      <trkpt lat="48.8306" lon="2.35618">
        <ele>111</ele>
        <time>2015-02-16T20:30:35.669Z</time>
      </trkpt>
      <trkpt lat="48.83059" lon="2.35616">
        <ele>110.8</ele>
        <time>2015-02-16T20:30:35.758Z</time>
      </trkpt>
      <trkpt lat="48.83058" lon="2.35603">
        <ele>110.2</ele>
        <time>2015-02-16T20:30:40.731Z</time>
      </trkpt>
      <trkpt lat="48.83057" lon="2.356">
        <ele>110.2</ele>
        <time>2015-02-16T20:30:40.801Z</time>
      </trkpt>
      <trkpt lat="48.83058" lon="2.35604">
        <ele>109.9</ele>
        <time>2015-02-16T20:30:58.624Z</time>
      </trkpt>
      <trkpt lat="48.83058" lon="2.35604">
        <ele>110</ele>
        <time>2015-02-16T20:30:59.639Z</time>
      </trkpt>
      <trkpt lat="48.83058" lon="2.35603">
        <ele>110</ele>
        <time>2015-02-16T20:31:01.654Z</time>
      </trkpt>
      <trkpt lat="48.83057" lon="2.35606">
        <ele>110.3</ele>
        <time>2015-02-16T20:31:04.696Z</time>
      </trkpt>
      <trkpt lat="48.83061" lon="2.35598">
        <ele>109.7</ele>
        <time>2015-02-16T20:31:09.650Z</time>
      </trkpt>
      <trkpt lat="48.83062" lon="2.35591">
        <ele>109.1</ele>
        <time>2015-02-16T20:31:10.667Z</time>
      </trkpt>
      <trkpt lat="48.83062" lon="2.35591">
        <ele>109.1</ele>
        <time>2015-02-16T20:31:11.470Z</time>
      </trkpt>
      <trkpt lat="48.83062" lon="2.35587">
        <ele>109.1</ele>
        <time>2015-02-16T20:31:11.591Z</time>
      </trkpt>
      <trkpt lat="48.83062" lon="2.35587">
        <ele>109.1</ele>
        <time>2015-02-16T20:31:22.648Z</time>
      </trkpt>
      <trkpt lat="48.83064" lon="2.35579">
        <ele>109</ele>
        <time>2015-02-16T20:31:23.671Z</time>
      </trkpt>
      <trkpt lat="48.83069" lon="2.35571">
        <ele>108.3</ele>
        <time>2015-02-16T20:31:27.695Z</time>
      </trkpt>
      <trkpt lat="48.83071" lon="2.35568">
        <ele>108.3</ele>
        <time>2015-02-16T20:31:28.750Z</time>
      </trkpt>
      <trkpt lat="48.8307" lon="2.35557">
        <ele>108.4</ele>
        <time>2015-02-16T20:31:32.708Z</time>
      </trkpt>
      <trkpt lat="48.8307" lon="2.35554">
        <ele>108.8</ele>
        <time>2015-02-16T20:31:33.727Z</time>
      </trkpt>
      <trkpt lat="48.8307" lon="2.3554">
        <ele>109.5</ele>
        <time>2015-02-16T20:31:37.683Z</time>
      </trkpt>
      <trkpt lat="48.83071" lon="2.35537">
        <ele>109.5</ele>
        <time>2015-02-16T20:31:38.695Z</time>
      </trkpt>
      <trkpt lat="48.8307" lon="2.35524">
        <ele>110.1</ele>
        <time>2015-02-16T20:31:43.626Z</time>
      </trkpt>
      <trkpt lat="48.83069" lon="2.35521">
        <ele>110.4</ele>
        <time>2015-02-16T20:31:44.618Z</time>
      </trkpt>
      <trkpt lat="48.83068" lon="2.3551">
        <ele>111.5</ele>
        <time>2015-02-16T20:31:47.654Z</time>
      </trkpt>
      <trkpt lat="48.83068" lon="2.35507">
        <ele>111.4</ele>
        <time>2015-02-16T20:31:48.665Z</time>
      </trkpt>
      <trkpt lat="48.83071" lon="2.35496">
        <ele>111.3</ele>
        <time>2015-02-16T20:31:51.708Z</time>
      </trkpt>
      <trkpt lat="48.83073" lon="2.35492">
        <ele>111.2</ele>
        <time>2015-02-16T20:31:52.622Z</time>
      </trkpt>
      <trkpt lat="48.83077" lon="2.35484">
        <ele>110.8</ele>
        <time>2015-02-16T20:31:54.634Z</time>
      </trkpt>
      <trkpt lat="48.83078" lon="2.35481">
        <ele>110.6</ele>
        <time>2015-02-16T20:31:55.668Z</time>
      </trkpt>
      <trkpt lat="48.83084" lon="2.35473">
        <ele>111.1</ele>
        <time>2015-02-16T20:31:58.648Z</time>
      </trkpt>
      <trkpt lat="48.83085" lon="2.3547">
        <ele>111.1</ele>
        <time>2015-02-16T20:31:59.666Z</time>
      </trkpt>
      <trkpt lat="48.83085" lon="2.35461">
        <ele>111.5</ele>
        <time>2015-02-16T20:32:03.607Z</time>
      </trkpt>
      <trkpt lat="48.83085" lon="2.35461">
        <ele>111.6</ele>
        <time>2015-02-16T20:32:04.624Z</time>
      </trkpt>
      <trkpt lat="48.83086" lon="2.3546">
        <ele>111.3</ele>
        <time>2015-02-16T20:32:31.668Z</time>
      </trkpt>
      <trkpt lat="48.83085" lon="2.35454">
        <ele>111.8</ele>
        <time>2015-02-16T20:32:32.678Z</time>
      </trkpt>
      <trkpt lat="48.8309" lon="2.35444">
        <ele>114.9</ele>
        <time>2015-02-16T20:32:46.654Z</time>
      </trkpt>
      <trkpt lat="48.83091" lon="2.35444">
        <ele>115</ele>
        <time>2015-02-16T20:32:47.673Z</time>
      </trkpt>
      <trkpt lat="48.83096" lon="2.35436">
        <ele>116.8</ele>
        <time>2015-02-16T20:32:53.647Z</time>
      </trkpt>
      <trkpt lat="48.83098" lon="2.35431">
        <ele>117.3</ele>
        <time>2015-02-16T20:32:54.720Z</time>
      </trkpt>
      <trkpt lat="48.831" lon="2.35421">
        <ele>117.8</ele>
        <time>2015-02-16T20:32:56.660Z</time>
      </trkpt>
      <trkpt lat="48.831" lon="2.35416">
        <ele>118.1</ele>
        <time>2015-02-16T20:32:57.678Z</time>
      </trkpt>
      <trkpt lat="48.831" lon="2.35406">
        <ele>118.3</ele>
        <time>2015-02-16T20:32:59.615Z</time>
      </trkpt>
      <trkpt lat="48.83099" lon="2.35401">
        <ele>118.3</ele>
        <time>2015-02-16T20:33:00.621Z</time>
      </trkpt>
      <trkpt lat="48.83098" lon="2.35389">
        <ele>119</ele>
        <time>2015-02-16T20:33:02.669Z</time>
      </trkpt>
      <trkpt lat="48.83097" lon="2.35383">
        <ele>119.4</ele>
        <time>2015-02-16T20:33:03.693Z</time>
      </trkpt>
      <trkpt lat="48.83095" lon="2.35371">
        <ele>119.5</ele>
        <time>2015-02-16T20:33:06.458Z</time>
      </trkpt>
      <trkpt lat="48.83094" lon="2.35366">
        <ele>119.4</ele>
        <time>2015-02-16T20:33:06.622Z</time>
      </trkpt>
      <trkpt lat="48.83092" lon="2.35355">
        <ele>119.3</ele>
        <time>2015-02-16T20:33:08.646Z</time>
      </trkpt>
      <trkpt lat="48.8309" lon="2.3535">
        <ele>119.2</ele>
        <time>2015-02-16T20:33:09.659Z</time>
      </trkpt>
      <trkpt lat="48.83087" lon="2.35338">
        <ele>119</ele>
        <time>2015-02-16T20:33:11.696Z</time>
      </trkpt>
      <trkpt lat="48.83086" lon="2.35332">
        <ele>119.2</ele>
        <time>2015-02-16T20:33:12.690Z</time>
      </trkpt>
      <trkpt lat="48.83083" lon="2.35319">
        <ele>119.7</ele>
        <time>2015-02-16T20:33:14.714Z</time>
      </trkpt>
      <trkpt lat="48.83081" lon="2.35313">
        <ele>119.8</ele>
        <time>2015-02-16T20:33:15.622Z</time>
      </trkpt>
      <trkpt lat="48.83079" lon="2.35301">
        <ele>120</ele>
        <time>2015-02-16T20:33:17.633Z</time>
      </trkpt>
      <trkpt lat="48.83077" lon="2.35295">
        <ele>120</ele>
        <time>2015-02-16T20:33:18.640Z</time>
      </trkpt>
      <trkpt lat="48.83075" lon="2.35289">
        <ele>119.9</ele>
        <time>2015-02-16T20:33:19.647Z</time>
      </trkpt>
      <trkpt lat="48.83073" lon="2.35283">
        <ele>119.8</ele>
        <time>2015-02-16T20:33:20.646Z</time>
      </trkpt>
      <trkpt lat="48.83071" lon="2.35276">
        <ele>119.8</ele>
        <time>2015-02-16T20:33:21.684Z</time>
      </trkpt>
      <trkpt lat="48.83068" lon="2.35268">
        <ele>119.7</ele>
        <time>2015-02-16T20:33:22.678Z</time>
      </trkpt>
      <trkpt lat="48.83066" lon="2.35262">
        <ele>119.7</ele>
        <time>2015-02-16T20:33:23.702Z</time>
      </trkpt>
      <trkpt lat="48.83064" lon="2.35255">
        <ele>119.8</ele>
        <time>2015-02-16T20:33:24.714Z</time>
      </trkpt>
      <trkpt lat="48.83062" lon="2.35248">
        <ele>119.8</ele>
        <time>2015-02-16T20:33:25.721Z</time>
      </trkpt>
      <trkpt lat="48.83059" lon="2.35239">
        <ele>120.1</ele>
        <time>2015-02-16T20:33:26.610Z</time>
      </trkpt>
      <trkpt lat="48.83057" lon="2.35231">
        <ele>120.3</ele>
        <time>2015-02-16T20:33:27.611Z</time>
      </trkpt>
      <trkpt lat="48.83055" lon="2.35223">
        <ele>120.3</ele>
        <time>2015-02-16T20:33:28.614Z</time>
      </trkpt>
      <trkpt lat="48.83052" lon="2.35214">
        <ele>120.4</ele>
        <time>2015-02-16T20:33:29.622Z</time>
      </trkpt>
      <trkpt lat="48.8305" lon="2.35206">
        <ele>120.4</ele>
        <time>2015-02-16T20:33:30.631Z</time>
      </trkpt>
      <trkpt lat="48.83047" lon="2.35197">
        <ele>120.2</ele>
        <time>2015-02-16T20:33:31.656Z</time>
      </trkpt>
      <trkpt lat="48.83044" lon="2.35189">
        <ele>120</ele>
        <time>2015-02-16T20:33:32.666Z</time>
      </trkpt>
      <trkpt lat="48.83041" lon="2.3518">
        <ele>119.8</ele>
        <time>2015-02-16T20:33:33.684Z</time>
      </trkpt>
      <trkpt lat="48.83039" lon="2.35173">
        <ele>119.7</ele>
        <time>2015-02-16T20:33:34.587Z</time>
      </trkpt>
      <trkpt lat="48.83037" lon="2.35166">
        <ele>119.6</ele>
        <time>2015-02-16T20:33:35.703Z</time>
      </trkpt>
      <trkpt lat="48.83035" lon="2.3516">
        <ele>119.4</ele>
        <time>2015-02-16T20:33:36.723Z</time>
      </trkpt>
      <trkpt lat="48.83034" lon="2.35152">
        <ele>119.3</ele>
        <time>2015-02-16T20:33:37.632Z</time>
      </trkpt>
      <trkpt lat="48.83031" lon="2.35145">
        <ele>119.2</ele>
        <time>2015-02-16T20:33:38.639Z</time>
      </trkpt>
      <trkpt lat="48.83028" lon="2.35137">
        <ele>119.1</ele>
        <time>2015-02-16T20:33:39.645Z</time>
      </trkpt>
      <trkpt lat="48.83025" lon="2.35129">
        <ele>119</ele>
        <time>2015-02-16T20:33:40.675Z</time>
      </trkpt>
      <trkpt lat="48.83022" lon="2.35122">
        <ele>118.9</ele>
        <time>2015-02-16T20:33:41.687Z</time>
      </trkpt>
      <trkpt lat="48.8302" lon="2.35114">
        <ele>118.9</ele>
        <time>2015-02-16T20:33:42.690Z</time>
      </trkpt>
      <trkpt lat="48.83018" lon="2.35107">
        <ele>118.8</ele>
        <time>2015-02-16T20:33:43.609Z</time>
      </trkpt>
      <trkpt lat="48.83016" lon="2.35098">
        <ele>118.6</ele>
        <time>2015-02-16T20:33:44.613Z</time>
      </trkpt>
      <trkpt lat="48.83013" lon="2.3509">
        <ele>118.2</ele>
        <time>2015-02-16T20:33:45.674Z</time>
      </trkpt>
      <trkpt lat="48.83011" lon="2.35081">
        <ele>118.3</ele>
        <time>2015-02-16T20:33:46.670Z</time>
      </trkpt>
      <trkpt lat="48.83008" lon="2.35073">
        <ele>118.4</ele>
        <time>2015-02-16T20:33:47.705Z</time>
      </trkpt>
      <trkpt lat="48.83006" lon="2.35066">
        <ele>118.6</ele>
        <time>2015-02-16T20:33:48.713Z</time>
      </trkpt>
      <trkpt lat="48.83004" lon="2.35059">
        <ele>118.7</ele>
        <time>2015-02-16T20:33:49.631Z</time>
      </trkpt>
      <trkpt lat="48.83002" lon="2.35052">
        <ele>119</ele>
        <time>2015-02-16T20:33:50.622Z</time>
      </trkpt>
      <trkpt lat="48.83" lon="2.35046">
        <ele>119</ele>
        <time>2015-02-16T20:33:51.654Z</time>
      </trkpt>
      <trkpt lat="48.82998" lon="2.3504">
        <ele>119</ele>
        <time>2015-02-16T20:33:52.647Z</time>
      </trkpt>
      <trkpt lat="48.82995" lon="2.35033">
        <ele>119.1</ele>
        <time>2015-02-16T20:33:53.683Z</time>
      </trkpt>
      <trkpt lat="48.82992" lon="2.35026">
        <ele>119.4</ele>
        <time>2015-02-16T20:33:54.692Z</time>
      </trkpt>
      <trkpt lat="48.82989" lon="2.35018">
        <ele>119.2</ele>
        <time>2015-02-16T20:33:55.703Z</time>
      </trkpt>
      <trkpt lat="48.82986" lon="2.3501">
        <ele>119.3</ele>
        <time>2015-02-16T20:33:56.593Z</time>
      </trkpt>
      <trkpt lat="48.82983" lon="2.35001">
        <ele>119.5</ele>
        <time>2015-02-16T20:33:57.631Z</time>
      </trkpt>
      <trkpt lat="48.82982" lon="2.34992">
        <ele>119.4</ele>
        <time>2015-02-16T20:33:58.631Z</time>
      </trkpt>
      <trkpt lat="48.8298" lon="2.34982">
        <ele>119.4</ele>
        <time>2015-02-16T20:33:59.645Z</time>
      </trkpt>
      <trkpt lat="48.8298" lon="2.34972">
        <ele>119.3</ele>
        <time>2015-02-16T20:34:00.655Z</time>
      </trkpt>
      <trkpt lat="48.8298" lon="2.34962">
        <ele>119.2</ele>
        <time>2015-02-16T20:34:01.688Z</time>
      </trkpt>
      <trkpt lat="48.8298" lon="2.34953">
        <ele>119.1</ele>
        <time>2015-02-16T20:34:02.622Z</time>
      </trkpt>
      <trkpt lat="48.82981" lon="2.34945">
        <ele>118.9</ele>
        <time>2015-02-16T20:34:03.625Z</time>
      </trkpt>
      <trkpt lat="48.82983" lon="2.34937">
        <ele>118.5</ele>
        <time>2015-02-16T20:34:04.629Z</time>
      </trkpt>
      <trkpt lat="48.82984" lon="2.34925">
        <ele>116.7</ele>
        <time>2015-02-16T20:34:05.587Z</time>
      </trkpt>
      <trkpt lat="48.82986" lon="2.34913">
        <ele>115.5</ele>
        <time>2015-02-16T20:34:06.701Z</time>
      </trkpt>
      <trkpt lat="48.82988" lon="2.34902">
        <ele>114.5</ele>
        <time>2015-02-16T20:34:07.716Z</time>
      </trkpt>
      <trkpt lat="48.8299" lon="2.34892">
        <ele>114.1</ele>
        <time>2015-02-16T20:34:08.655Z</time>
      </trkpt>
      <trkpt lat="48.82991" lon="2.34881">
        <ele>113.7</ele>
        <time>2015-02-16T20:34:09.661Z</time>
      </trkpt>
      <trkpt lat="48.82994" lon="2.34869">
        <ele>113.7</ele>
        <time>2015-02-16T20:34:10.738Z</time>
      </trkpt>
      <trkpt lat="48.82996" lon="2.34859">
        <ele>113.5</ele>
        <time>2015-02-16T20:34:11.665Z</time>
      </trkpt>
      <trkpt lat="48.82999" lon="2.34848">
        <ele>112.9</ele>
        <time>2015-02-16T20:34:12.677Z</time>
      </trkpt>
      <trkpt lat="48.83002" lon="2.34838">
        <ele>112.5</ele>
        <time>2015-02-16T20:34:13.708Z</time>
      </trkpt>
      <trkpt lat="48.83004" lon="2.34827">
        <ele>112</ele>
        <time>2015-02-16T20:34:14.624Z</time>
      </trkpt>
      <trkpt lat="48.83006" lon="2.34817">
        <ele>111.6</ele>
        <time>2015-02-16T20:34:15.649Z</time>
      </trkpt>
      <trkpt lat="48.83008" lon="2.34807">
        <ele>111</ele>
        <time>2015-02-16T20:34:16.666Z</time>
      </trkpt>
      <trkpt lat="48.83011" lon="2.34798">
        <ele>110.6</ele>
        <time>2015-02-16T20:34:17.700Z</time>
      </trkpt>
      <trkpt lat="48.83013" lon="2.34786">
        <ele>110.2</ele>
        <time>2015-02-16T20:34:18.646Z</time>
      </trkpt>
      <trkpt lat="48.83015" lon="2.34776">
        <ele>109.9</ele>
        <time>2015-02-16T20:34:19.681Z</time>
      </trkpt>
      <trkpt lat="48.83017" lon="2.34766">
        <ele>110</ele>
        <time>2015-02-16T20:34:20.621Z</time>
      </trkpt>
      <trkpt lat="48.83018" lon="2.34756">
        <ele>109.7</ele>
        <time>2015-02-16T20:34:21.618Z</time>
      </trkpt>
      <trkpt lat="48.8302" lon="2.34746">
        <ele>109.6</ele>
        <time>2015-02-16T20:34:22.626Z</time>
      </trkpt>
      <trkpt lat="48.83021" lon="2.34735">
        <ele>109.8</ele>
        <time>2015-02-16T20:34:23.656Z</time>
      </trkpt>
      <trkpt lat="48.83023" lon="2.34725">
        <ele>110.2</ele>
        <time>2015-02-16T20:34:24.671Z</time>
      </trkpt>
      <trkpt lat="48.83024" lon="2.34715">
        <ele>110.3</ele>
        <time>2015-02-16T20:34:25.700Z</time>
      </trkpt>
      <trkpt lat="48.83026" lon="2.34705">
        <ele>110.2</ele>
        <time>2015-02-16T20:34:26.715Z</time>
      </trkpt>
      <trkpt lat="48.83029" lon="2.34696">
        <ele>110.1</ele>
        <time>2015-02-16T20:34:27.614Z</time>
      </trkpt>
      <trkpt lat="48.83032" lon="2.34685">
        <ele>110</ele>
        <time>2015-02-16T20:34:28.633Z</time>
      </trkpt>
      <trkpt lat="48.83036" lon="2.34674">
        <ele>109.5</ele>
        <time>2015-02-16T20:34:29.646Z</time>
      </trkpt>
      <trkpt lat="48.8304" lon="2.34663">
        <ele>109.2</ele>
        <time>2015-02-16T20:34:30.664Z</time>
      </trkpt>
      <trkpt lat="48.83045" lon="2.34653">
        <ele>109.2</ele>
        <time>2015-02-16T20:34:31.719Z</time>
      </trkpt>
      <trkpt lat="48.83047" lon="2.34642">
        <ele>109.2</ele>
        <time>2015-02-16T20:34:32.623Z</time>
      </trkpt>
      <trkpt lat="48.8305" lon="2.34631">
        <ele>109.2</ele>
        <time>2015-02-16T20:34:33.626Z</time>
      </trkpt>
      <trkpt lat="48.83053" lon="2.3462">
        <ele>109.2</ele>
        <time>2015-02-16T20:34:34.650Z</time>
      </trkpt>
      <trkpt lat="48.83055" lon="2.34609">
        <ele>109.4</ele>
        <time>2015-02-16T20:34:35.681Z</time>
      </trkpt>
      <trkpt lat="48.83058" lon="2.34597">
        <ele>109.1</ele>
        <time>2015-02-16T20:34:36.687Z</time>
      </trkpt>
      <trkpt lat="48.83062" lon="2.34586">
        <ele>107.8</ele>
        <time>2015-02-16T20:34:37.695Z</time>
      </trkpt>
      <trkpt lat="48.83065" lon="2.34576">
        <ele>107.5</ele>
        <time>2015-02-16T20:34:38.704Z</time>
      </trkpt>
      <trkpt lat="48.8307" lon="2.34568">
        <ele>106.3</ele>
        <time>2015-02-16T20:34:39.611Z</time>
      </trkpt>
      <trkpt lat="48.83072" lon="2.34559">
        <ele>106.1</ele>
        <time>2015-02-16T20:34:40.610Z</time>
      </trkpt>
      <trkpt lat="48.83075" lon="2.34553">
        <ele>105.5</ele>
        <time>2015-02-16T20:34:41.620Z</time>
      </trkpt>
      <trkpt lat="48.83078" lon="2.34545">
        <ele>104.9</ele>
        <time>2015-02-16T20:34:42.819Z</time>
      </trkpt>
      <trkpt lat="48.8308" lon="2.34537">
        <ele>104.2</ele>
        <time>2015-02-16T20:34:43.686Z</time>
      </trkpt>
      <trkpt lat="48.83082" lon="2.3453">
        <ele>103.9</ele>
        <time>2015-02-16T20:34:44.690Z</time>
      </trkpt>
      <trkpt lat="48.83084" lon="2.34522">
        <ele>103.3</ele>
        <time>2015-02-16T20:34:45.699Z</time>
      </trkpt>
      <trkpt lat="48.83086" lon="2.34515">
        <ele>102.9</ele>
        <time>2015-02-16T20:34:46.591Z</time>
      </trkpt>
      <trkpt lat="48.83088" lon="2.34507">
        <ele>102.7</ele>
        <time>2015-02-16T20:34:47.613Z</time>
      </trkpt>
      <trkpt lat="48.8309" lon="2.345">
        <ele>102.4</ele>
        <time>2015-02-16T20:34:48.634Z</time>
      </trkpt>
      <trkpt lat="48.83092" lon="2.34492">
        <ele>101.9</ele>
        <time>2015-02-16T20:34:49.630Z</time>
      </trkpt>
      <trkpt lat="48.83095" lon="2.34484">
        <ele>101.7</ele>
        <time>2015-02-16T20:34:50.648Z</time>
      </trkpt>
      <trkpt lat="48.83098" lon="2.34476">
        <ele>101.6</ele>
        <time>2015-02-16T20:34:51.660Z</time>
      </trkpt>
      <trkpt lat="48.831" lon="2.34468">
        <ele>101.5</ele>
        <time>2015-02-16T20:34:52.676Z</time>
      </trkpt>
      <trkpt lat="48.83103" lon="2.3446">
        <ele>101.9</ele>
        <time>2015-02-16T20:34:53.706Z</time>
      </trkpt>
      <trkpt lat="48.83105" lon="2.34452">
        <ele>101.9</ele>
        <time>2015-02-16T20:34:54.736Z</time>
      </trkpt>
      <trkpt lat="48.83107" lon="2.34444">
        <ele>101.6</ele>
        <time>2015-02-16T20:34:55.628Z</time>
      </trkpt>
      <trkpt lat="48.83109" lon="2.34436">
        <ele>101.3</ele>
        <time>2015-02-16T20:34:56.630Z</time>
      </trkpt>
      <trkpt lat="48.83111" lon="2.34429">
        <ele>101.3</ele>
        <time>2015-02-16T20:34:57.644Z</time>
      </trkpt>
      <trkpt lat="48.83114" lon="2.34422">
        <ele>101.1</ele>
        <time>2015-02-16T20:34:58.659Z</time>
      </trkpt>
      <trkpt lat="48.83115" lon="2.34414">
        <ele>100.5</ele>
        <time>2015-02-16T20:34:59.690Z</time>
      </trkpt>
      <trkpt lat="48.83117" lon="2.34407">
        <ele>99.9</ele>
        <time>2015-02-16T20:35:00.713Z</time>
      </trkpt>
      <trkpt lat="48.8312" lon="2.34396">
        <ele>99.6</ele>
        <time>2015-02-16T20:35:02.629Z</time>
      </trkpt>
      <trkpt lat="48.83121" lon="2.34389">
        <ele>99.3</ele>
        <time>2015-02-16T20:35:03.640Z</time>
      </trkpt>
      <trkpt lat="48.83123" lon="2.34379">
        <ele>99.6</ele>
        <time>2015-02-16T20:35:05.667Z</time>
      </trkpt>
      <trkpt lat="48.83124" lon="2.34373">
        <ele>99.7</ele>
        <time>2015-02-16T20:35:06.686Z</time>
      </trkpt>
      <trkpt lat="48.83128" lon="2.34363">
        <ele>99.3</ele>
        <time>2015-02-16T20:35:08.629Z</time>
      </trkpt>
      <trkpt lat="48.8313" lon="2.34358">
        <ele>99.2</ele>
        <time>2015-02-16T20:35:09.704Z</time>
      </trkpt>
      <trkpt lat="48.83133" lon="2.34345">
        <ele>98.8</ele>
        <time>2015-02-16T20:35:11.643Z</time>
      </trkpt>
      <trkpt lat="48.83135" lon="2.34339">
        <ele>98.8</ele>
        <time>2015-02-16T20:35:12.751Z</time>
      </trkpt>
      <trkpt lat="48.83137" lon="2.34331">
        <ele>98.5</ele>
        <time>2015-02-16T20:35:13.635Z</time>
      </trkpt>
      <trkpt lat="48.83138" lon="2.34324">
        <ele>98.2</ele>
        <time>2015-02-16T20:35:14.641Z</time>
      </trkpt>
      <trkpt lat="48.83141" lon="2.34312">
        <ele>98.2</ele>
        <time>2015-02-16T20:35:16.701Z</time>
      </trkpt>
      <trkpt lat="48.83142" lon="2.34305">
        <ele>98.1</ele>
        <time>2015-02-16T20:35:17.623Z</time>
      </trkpt>
      <trkpt lat="48.83144" lon="2.34299">
        <ele>97.9</ele>
        <time>2015-02-16T20:35:18.628Z</time>
      </trkpt>
      <trkpt lat="48.83147" lon="2.34293">
        <ele>97.7</ele>
        <time>2015-02-16T20:35:19.646Z</time>
      </trkpt>
      <trkpt lat="48.83149" lon="2.34286">
        <ele>97.4</ele>
        <time>2015-02-16T20:35:20.686Z</time>
      </trkpt>
      <trkpt lat="48.8315" lon="2.34278">
        <ele>97.4</ele>
        <time>2015-02-16T20:35:21.694Z</time>
      </trkpt>
      <trkpt lat="48.83152" lon="2.3427">
        <ele>98.1</ele>
        <time>2015-02-16T20:35:22.599Z</time>
      </trkpt>
      <trkpt lat="48.83153" lon="2.34264">
        <ele>98</ele>
        <time>2015-02-16T20:35:23.603Z</time>
      </trkpt>
      <trkpt lat="48.83157" lon="2.34252">
        <ele>97.8</ele>
        <time>2015-02-16T20:35:25.651Z</time>
      </trkpt>
      <trkpt lat="48.83159" lon="2.34246">
        <ele>97.8</ele>
        <time>2015-02-16T20:35:26.675Z</time>
      </trkpt>
      <trkpt lat="48.83161" lon="2.34239">
        <ele>97.8</ele>
        <time>2015-02-16T20:35:27.682Z</time>
      </trkpt>
      <trkpt lat="48.83163" lon="2.3423">
        <ele>97.8</ele>
        <time>2015-02-16T20:35:28.694Z</time>
      </trkpt>
      <trkpt lat="48.83164" lon="2.34223">
        <ele>97.7</ele>
        <time>2015-02-16T20:35:29.615Z</time>
      </trkpt>
      <trkpt lat="48.83166" lon="2.34216">
        <ele>97.7</ele>
        <time>2015-02-16T20:35:30.666Z</time>
      </trkpt>
      <trkpt lat="48.83168" lon="2.34208">
        <ele>97.9</ele>
        <time>2015-02-16T20:35:31.652Z</time>
      </trkpt>
      <trkpt lat="48.8317" lon="2.34201">
        <ele>97.9</ele>
        <time>2015-02-16T20:35:32.661Z</time>
      </trkpt>
      <trkpt lat="48.83171" lon="2.34193">
        <ele>97.6</ele>
        <time>2015-02-16T20:35:33.684Z</time>
      </trkpt>
      <trkpt lat="48.83173" lon="2.34187">
        <ele>97.7</ele>
        <time>2015-02-16T20:35:34.692Z</time>
      </trkpt>
      <trkpt lat="48.83176" lon="2.34175">
        <ele>97.5</ele>
        <time>2015-02-16T20:35:36.711Z</time>
      </trkpt>
      <trkpt lat="48.83177" lon="2.3417">
        <ele>97.5</ele>
        <time>2015-02-16T20:35:37.745Z</time>
      </trkpt>
      <trkpt lat="48.83179" lon="2.34158">
        <ele>97.6</ele>
        <time>2015-02-16T20:35:39.632Z</time>
      </trkpt>
      <trkpt lat="48.8318" lon="2.34153">
        <ele>97.7</ele>
        <time>2015-02-16T20:35:40.640Z</time>
      </trkpt>
      <trkpt lat="48.83182" lon="2.34143">
        <ele>97.3</ele>
        <time>2015-02-16T20:35:42.640Z</time>
      </trkpt>
      <trkpt lat="48.83185" lon="2.34137">
        <ele>96.7</ele>
        <time>2015-02-16T20:35:43.654Z</time>
      </trkpt>
      <trkpt lat="48.83188" lon="2.34131">
        <ele>96.4</ele>
        <time>2015-02-16T20:35:44.696Z</time>
      </trkpt>
      <trkpt lat="48.8319" lon="2.34126">
        <ele>96.2</ele>
        <time>2015-02-16T20:35:45.704Z</time>
      </trkpt>
      <trkpt lat="48.83194" lon="2.34115">
        <ele>96</ele>
        <time>2015-02-16T20:35:47.612Z</time>
      </trkpt>
      <trkpt lat="48.83196" lon="2.3411">
        <ele>96</ele>
        <time>2015-02-16T20:35:48.646Z</time>
      </trkpt>
      <trkpt lat="48.832" lon="2.34102">
        <ele>96</ele>
        <time>2015-02-16T20:35:50.622Z</time>
      </trkpt>
      <trkpt lat="48.83202" lon="2.34098">
        <ele>96.2</ele>
        <time>2015-02-16T20:35:51.633Z</time>
      </trkpt>
      <trkpt lat="48.83204" lon="2.34088">
        <ele>96.9</ele>
        <time>2015-02-16T20:35:53.589Z</time>
      </trkpt>
      <trkpt lat="48.83204" lon="2.34083">
        <ele>97.1</ele>
        <time>2015-02-16T20:35:54.648Z</time>
      </trkpt>
      <trkpt lat="48.83206" lon="2.3407">
        <ele>98.1</ele>
        <time>2015-02-16T20:35:57.612Z</time>
      </trkpt>
      <trkpt lat="48.83206" lon="2.34064">
        <ele>98.1</ele>
        <time>2015-02-16T20:35:58.672Z</time>
      </trkpt>
      <trkpt lat="48.83208" lon="2.34054">
        <ele>98.4</ele>
        <time>2015-02-16T20:36:00.679Z</time>
      </trkpt>
      <trkpt lat="48.8321" lon="2.3405">
        <ele>98.4</ele>
        <time>2015-02-16T20:36:01.685Z</time>
      </trkpt>
      <trkpt lat="48.83213" lon="2.34043">
        <ele>98.5</ele>
        <time>2015-02-16T20:36:03.617Z</time>
      </trkpt>
      <trkpt lat="48.83214" lon="2.34038">
        <ele>98.8</ele>
        <time>2015-02-16T20:36:04.614Z</time>
      </trkpt>
      <trkpt lat="48.83219" lon="2.34028">
        <ele>99.2</ele>
        <time>2015-02-16T20:36:06.662Z</time>
      </trkpt>
      <trkpt lat="48.83221" lon="2.34024">
        <ele>99.3</ele>
        <time>2015-02-16T20:36:07.674Z</time>
      </trkpt>
      <trkpt lat="48.83224" lon="2.34012">
        <ele>99.4</ele>
        <time>2015-02-16T20:36:09.673Z</time>
      </trkpt>
      <trkpt lat="48.83226" lon="2.34006">
        <ele>99.4</ele>
        <time>2015-02-16T20:36:10.692Z</time>
      </trkpt>
      <trkpt lat="48.83228" lon="2.33994">
        <ele>99.5</ele>
        <time>2015-02-16T20:36:12.724Z</time>
      </trkpt>
      <trkpt lat="48.83229" lon="2.33987">
        <ele>99.5</ele>
        <time>2015-02-16T20:36:13.637Z</time>
      </trkpt>
      <trkpt lat="48.83231" lon="2.33976">
        <ele>99.7</ele>
        <time>2015-02-16T20:36:16.103Z</time>
      </trkpt>
      <trkpt lat="48.83233" lon="2.33969">
        <ele>99.6</ele>
        <time>2015-02-16T20:36:16.655Z</time>
      </trkpt>
      <trkpt lat="48.83235" lon="2.33957">
        <ele>99.8</ele>
        <time>2015-02-16T20:36:18.691Z</time>
      </trkpt>
      <trkpt lat="48.83237" lon="2.33951">
        <ele>99.7</ele>
        <time>2015-02-16T20:36:19.696Z</time>
      </trkpt>
      <trkpt lat="48.83239" lon="2.33938">
        <ele>100</ele>
        <time>2015-02-16T20:36:21.598Z</time>
      </trkpt>
      <trkpt lat="48.83241" lon="2.33932">
        <ele>100.3</ele>
        <time>2015-02-16T20:36:22.613Z</time>
      </trkpt>
      <trkpt lat="48.83242" lon="2.33925">
        <ele>100.6</ele>
        <time>2015-02-16T20:36:23.609Z</time>
      </trkpt>
      <trkpt lat="48.83244" lon="2.33919">
        <ele>100.7</ele>
        <time>2015-02-16T20:36:24.694Z</time>
      </trkpt>
      <trkpt lat="48.83247" lon="2.33907">
        <ele>100.9</ele>
        <time>2015-02-16T20:36:26.672Z</time>
      </trkpt>
      <trkpt lat="48.83248" lon="2.33902">
        <ele>101.3</ele>
        <time>2015-02-16T20:36:27.685Z</time>
      </trkpt>
      <trkpt lat="48.8325" lon="2.33892">
        <ele>102</ele>
        <time>2015-02-16T20:36:29.619Z</time>
      </trkpt>
      <trkpt lat="48.83251" lon="2.33887">
        <ele>102.3</ele>
        <time>2015-02-16T20:36:30.708Z</time>
      </trkpt>
      <trkpt lat="48.83253" lon="2.33877">
        <ele>102.6</ele>
        <time>2015-02-16T20:36:32.766Z</time>
      </trkpt>
      <trkpt lat="48.83255" lon="2.33872">
        <ele>102.8</ele>
        <time>2015-02-16T20:36:33.647Z</time>
      </trkpt>
      <trkpt lat="48.83259" lon="2.33864">
        <ele>103.1</ele>
        <time>2015-02-16T20:36:35.677Z</time>
      </trkpt>
      <trkpt lat="48.8326" lon="2.3386">
        <ele>103.3</ele>
        <time>2015-02-16T20:36:36.695Z</time>
      </trkpt>
      <trkpt lat="48.83263" lon="2.33851">
        <ele>103.4</ele>
        <time>2015-02-16T20:36:38.584Z</time>
      </trkpt>
      <trkpt lat="48.83264" lon="2.33846">
        <ele>103.6</ele>
        <time>2015-02-16T20:36:39.614Z</time>
      </trkpt>
      <trkpt lat="48.83268" lon="2.33837">
        <ele>104</ele>
        <time>2015-02-16T20:36:41.644Z</time>
      </trkpt>
      <trkpt lat="48.83269" lon="2.33833">
        <ele>104.1</ele>
        <time>2015-02-16T20:36:42.644Z</time>
      </trkpt>
      <trkpt lat="48.83271" lon="2.33823">
        <ele>104.4</ele>
        <time>2015-02-16T20:36:44.675Z</time>
      </trkpt>
      <trkpt lat="48.83272" lon="2.33818">
        <ele>104.4</ele>
        <time>2015-02-16T20:36:45.688Z</time>
      </trkpt>
      <trkpt lat="48.83274" lon="2.3381">
        <ele>104.8</ele>
        <time>2015-02-16T20:36:48.361Z</time>
      </trkpt>
      <trkpt lat="48.83275" lon="2.33805">
        <ele>105</ele>
        <time>2015-02-16T20:36:48.619Z</time>
      </trkpt>
      <trkpt lat="48.83279" lon="2.33794">
        <ele>104.9</ele>
        <time>2015-02-16T20:36:50.851Z</time>
      </trkpt>
      <trkpt lat="48.8328" lon="2.33789">
        <ele>104.9</ele>
        <time>2015-02-16T20:36:51.654Z</time>
      </trkpt>
      <trkpt lat="48.83283" lon="2.33778">
        <ele>104.8</ele>
        <time>2015-02-16T20:36:53.693Z</time>
      </trkpt>
      <trkpt lat="48.83284" lon="2.33772">
        <ele>104.8</ele>
        <time>2015-02-16T20:36:54.718Z</time>
      </trkpt>
      <trkpt lat="48.83285" lon="2.33764">
        <ele>104.7</ele>
        <time>2015-02-16T20:36:55.832Z</time>
      </trkpt>
      <trkpt lat="48.83286" lon="2.33757">
        <ele>104.1</ele>
        <time>2015-02-16T20:36:56.615Z</time>
      </trkpt>
      <trkpt lat="48.83288" lon="2.3375">
        <ele>104.1</ele>
        <time>2015-02-16T20:36:57.605Z</time>
      </trkpt>
      <trkpt lat="48.8329" lon="2.33743">
        <ele>104</ele>
        <time>2015-02-16T20:36:58.647Z</time>
      </trkpt>
      <trkpt lat="48.83292" lon="2.33736">
        <ele>104</ele>
        <time>2015-02-16T20:36:59.678Z</time>
      </trkpt>
      <trkpt lat="48.83294" lon="2.33729">
        <ele>104.2</ele>
        <time>2015-02-16T20:37:00.678Z</time>
      </trkpt>
      <trkpt lat="48.83297" lon="2.33723">
        <ele>104.3</ele>
        <time>2015-02-16T20:37:01.715Z</time>
      </trkpt>
      <trkpt lat="48.83299" lon="2.33717">
        <ele>104.5</ele>
        <time>2015-02-16T20:37:02.614Z</time>
      </trkpt>
      <trkpt lat="48.83301" lon="2.3371">
        <ele>104.6</ele>
        <time>2015-02-16T20:37:03.616Z</time>
      </trkpt>
      <trkpt lat="48.83303" lon="2.33704">
        <ele>104.7</ele>
        <time>2015-02-16T20:37:04.630Z</time>
      </trkpt>
      <trkpt lat="48.83305" lon="2.33698">
        <ele>104.8</ele>
        <time>2015-02-16T20:37:06.150Z</time>
      </trkpt>
      <trkpt lat="48.83307" lon="2.33692">
        <ele>104.9</ele>
        <time>2015-02-16T20:37:06.661Z</time>
      </trkpt>
      <trkpt lat="48.83311" lon="2.3368">
        <ele>105.4</ele>
        <time>2015-02-16T20:37:08.616Z</time>
      </trkpt>
      <trkpt lat="48.83313" lon="2.33674">
        <ele>105.7</ele>
        <time>2015-02-16T20:37:09.646Z</time>
      </trkpt>
      <trkpt lat="48.83316" lon="2.33667">
        <ele>106</ele>
        <time>2015-02-16T20:37:11.198Z</time>
      </trkpt>
      <trkpt lat="48.83318" lon="2.3366">
        <ele>106.4</ele>
        <time>2015-02-16T20:37:11.692Z</time>
      </trkpt>
      <trkpt lat="48.8332" lon="2.33655">
        <ele>106</ele>
        <time>2015-02-16T20:37:12.693Z</time>
      </trkpt>
      <trkpt lat="48.83323" lon="2.33649">
        <ele>106.1</ele>
        <time>2015-02-16T20:37:13.698Z</time>
      </trkpt>
      <trkpt lat="48.83327" lon="2.33638">
        <ele>106.3</ele>
        <time>2015-02-16T20:37:16.267Z</time>
      </trkpt>
      <trkpt lat="48.83329" lon="2.33633">
        <ele>106.4</ele>
        <time>2015-02-16T20:37:16.621Z</time>
      </trkpt>
      <trkpt lat="48.83331" lon="2.33623">
        <ele>107</ele>
        <time>2015-02-16T20:37:19.665Z</time>
      </trkpt>
      <trkpt lat="48.83332" lon="2.3362">
        <ele>107.2</ele>
        <time>2015-02-16T20:37:20.669Z</time>
      </trkpt>
      <trkpt lat="48.83335" lon="2.33613">
        <ele>107.2</ele>
        <time>2015-02-16T20:37:26.701Z</time>
      </trkpt>
      <trkpt lat="48.83335" lon="2.33613">
        <ele>107.3</ele>
        <time>2015-02-16T20:37:27.722Z</time>
      </trkpt>
      <trkpt lat="48.83335" lon="2.33613">
        <ele>107.4</ele>
        <time>2015-02-16T20:40:05.877Z</time>
      </trkpt>
      <trkpt lat="48.83335" lon="2.33609">
        <ele>110.3</ele>
        <time>2015-02-16T20:40:06.653Z</time>
      </trkpt>
      <trkpt lat="48.83335" lon="2.3361">
        <ele>110.2</ele>
        <time>2015-02-16T20:40:07.668Z</time>
      </trkpt>
      <trkpt lat="48.83335" lon="2.3361">
        <ele>110.3</ele>
        <time>2015-02-16T20:40:08.682Z</time>
      </trkpt>
      <trkpt lat="48.83335" lon="2.3361">
        <ele>110.3</ele>
        <time>2015-02-16T20:40:09.581Z</time>
      </trkpt>
      <trkpt lat="48.83335" lon="2.3361">
        <ele>110.4</ele>
        <time>2015-02-16T20:40:10.958Z</time>
      </trkpt>
      <trkpt lat="48.83335" lon="2.33609">
        <ele>110.5</ele>
        <time>2015-02-16T20:40:11.668Z</time>
      </trkpt>
      <trkpt lat="48.83334" lon="2.33608">
        <ele>110.7</ele>
        <time>2015-02-16T20:40:39.611Z</time>
      </trkpt>
      <trkpt lat="48.83332" lon="2.33605">
        <ele>111.9</ele>
        <time>2015-02-16T20:40:40.623Z</time>
      </trkpt>
      <trkpt lat="48.83334" lon="2.33594">
        <ele>111.4</ele>
        <time>2015-02-16T20:40:47.621Z</time>
      </trkpt>
      <trkpt lat="48.83334" lon="2.33591">
        <ele>111.4</ele>
        <time>2015-02-16T20:40:48.649Z</time>
      </trkpt>
      <trkpt lat="48.83338" lon="2.33579">
        <ele>111.5</ele>
        <time>2015-02-16T20:40:52.775Z</time>
      </trkpt>
      <trkpt lat="48.8334" lon="2.33576">
        <ele>111.4</ele>
        <time>2015-02-16T20:40:53.640Z</time>
      </trkpt>
      <trkpt lat="48.83343" lon="2.33564">
        <ele>110.9</ele>
        <time>2015-02-16T20:40:56.729Z</time>
      </trkpt>
      <trkpt lat="48.83344" lon="2.33559">
        <ele>110.8</ele>
        <time>2015-02-16T20:40:57.614Z</time>
      </trkpt>
      <trkpt lat="48.83348" lon="2.33551">
        <ele>110.5</ele>
        <time>2015-02-16T20:40:59.629Z</time>
      </trkpt>
      <trkpt lat="48.83349" lon="2.33547">
        <ele>110.2</ele>
        <time>2015-02-16T20:41:00.640Z</time>
      </trkpt>
      <trkpt lat="48.83354" lon="2.33539">
        <ele>109.3</ele>
        <time>2015-02-16T20:41:02.664Z</time>
      </trkpt>
      <trkpt lat="48.83356" lon="2.33534">
        <ele>109</ele>
        <time>2015-02-16T20:41:03.678Z</time>
      </trkpt>
      <trkpt lat="48.83358" lon="2.33523">
        <ele>108.8</ele>
        <time>2015-02-16T20:41:06.255Z</time>
      </trkpt>
      <trkpt lat="48.83359" lon="2.33518">
        <ele>108.8</ele>
        <time>2015-02-16T20:41:06.657Z</time>
      </trkpt>
      <trkpt lat="48.83361" lon="2.33507">
        <ele>109</ele>
        <time>2015-02-16T20:41:08.657Z</time>
      </trkpt>
      <trkpt lat="48.83363" lon="2.33501">
        <ele>109.2</ele>
        <time>2015-02-16T20:41:09.660Z</time>
      </trkpt>
      <trkpt lat="48.83365" lon="2.33489">
        <ele>109.2</ele>
        <time>2015-02-16T20:41:11.330Z</time>
      </trkpt>
      <trkpt lat="48.83367" lon="2.33483">
        <ele>109.2</ele>
        <time>2015-02-16T20:41:12.657Z</time>
      </trkpt>
      <trkpt lat="48.83369" lon="2.33477">
        <ele>109.2</ele>
        <time>2015-02-16T20:41:13.674Z</time>
      </trkpt>
      <trkpt lat="48.83371" lon="2.3347">
        <ele>109.2</ele>
        <time>2015-02-16T20:41:14.680Z</time>
      </trkpt>
      <trkpt lat="48.83373" lon="2.33459">
        <ele>109.3</ele>
        <time>2015-02-16T20:41:16.698Z</time>
      </trkpt>
      <trkpt lat="48.83375" lon="2.33453">
        <ele>109.3</ele>
        <time>2015-02-16T20:41:17.701Z</time>
      </trkpt>
      <trkpt lat="48.83378" lon="2.33441">
        <ele>109.8</ele>
        <time>2015-02-16T20:41:19.707Z</time>
      </trkpt>
      <trkpt lat="48.8338" lon="2.33435">
        <ele>109.9</ele>
        <time>2015-02-16T20:41:20.650Z</time>
      </trkpt>
      <trkpt lat="48.83383" lon="2.33423">
        <ele>110.4</ele>
        <time>2015-02-16T20:41:22.611Z</time>
      </trkpt>
      <trkpt lat="48.83385" lon="2.33418">
        <ele>110.7</ele>
        <time>2015-02-16T20:41:23.611Z</time>
      </trkpt>
      <trkpt lat="48.83389" lon="2.33408">
        <ele>110.6</ele>
        <time>2015-02-16T20:41:25.634Z</time>
      </trkpt>
      <trkpt lat="48.83391" lon="2.33403">
        <ele>110.5</ele>
        <time>2015-02-16T20:41:26.659Z</time>
      </trkpt>
      <trkpt lat="48.83396" lon="2.33392">
        <ele>110.2</ele>
        <time>2015-02-16T20:41:30.618Z</time>
      </trkpt>
      <trkpt lat="48.83398" lon="2.33389">
        <ele>110.5</ele>
        <time>2015-02-16T20:41:30.666Z</time>
      </trkpt>
      <trkpt lat="48.83401" lon="2.33381">
        <ele>111.4</ele>
        <time>2015-02-16T20:41:32.666Z</time>
      </trkpt>
      <trkpt lat="48.83403" lon="2.33377">
        <ele>111.7</ele>
        <time>2015-02-16T20:41:33.584Z</time>
      </trkpt>
      <trkpt lat="48.83407" lon="2.33367">
        <ele>111.7</ele>
        <time>2015-02-16T20:41:36.612Z</time>
      </trkpt>
      <trkpt lat="48.83409" lon="2.33365">
        <ele>111.8</ele>
        <time>2015-02-16T20:41:37.614Z</time>
      </trkpt>
      <trkpt lat="48.83412" lon="2.33354">
        <ele>112</ele>
        <time>2015-02-16T20:41:41.666Z</time>
      </trkpt>
      <trkpt lat="48.83414" lon="2.33352">
        <ele>111.9</ele>
        <time>2015-02-16T20:41:42.706Z</time>
      </trkpt>
      <trkpt lat="48.83417" lon="2.3334">
        <ele>111.8</ele>
        <time>2015-02-16T20:41:46.770Z</time>
      </trkpt>
      <trkpt lat="48.83418" lon="2.33337">
        <ele>111.7</ele>
        <time>2015-02-16T20:41:47.570Z</time>
      </trkpt>
      <trkpt lat="48.83422" lon="2.33328">
        <ele>111.7</ele>
        <time>2015-02-16T20:41:50.960Z</time>
      </trkpt>
      <trkpt lat="48.83424" lon="2.33325">
        <ele>111.5</ele>
        <time>2015-02-16T20:41:51.596Z</time>
      </trkpt>
      <trkpt lat="48.83429" lon="2.33315">
        <ele>111.1</ele>
        <time>2015-02-16T20:41:54.594Z</time>
      </trkpt>
      <trkpt lat="48.8343" lon="2.33312">
        <ele>110.9</ele>
        <time>2015-02-16T20:41:55.666Z</time>
      </trkpt>
      <trkpt lat="48.83434" lon="2.33301">
        <ele>110.9</ele>
        <time>2015-02-16T20:41:59.699Z</time>
      </trkpt>
      <trkpt lat="48.83435" lon="2.33298">
        <ele>110.9</ele>
        <time>2015-02-16T20:42:00.617Z</time>
      </trkpt>
      <trkpt lat="48.83439" lon="2.33289">
        <ele>111</ele>
        <time>2015-02-16T20:42:03.767Z</time>
      </trkpt>
      <trkpt lat="48.8344" lon="2.33286">
        <ele>110.9</ele>
        <time>2015-02-16T20:42:04.612Z</time>
      </trkpt>
      <trkpt lat="48.83443" lon="2.33276">
        <ele>110.6</ele>
        <time>2015-02-16T20:42:07.611Z</time>
      </trkpt>
      <trkpt lat="48.83443" lon="2.33272">
        <ele>110.5</ele>
        <time>2015-02-16T20:42:08.614Z</time>
      </trkpt>
      <trkpt lat="48.83445" lon="2.33259">
        <ele>110.3</ele>
        <time>2015-02-16T20:42:12.703Z</time>
      </trkpt>
      <trkpt lat="48.83446" lon="2.33256">
        <ele>109.8</ele>
        <time>2015-02-16T20:42:13.722Z</time>
      </trkpt>
      <trkpt lat="48.83445" lon="2.33243">
        <ele>109.6</ele>
        <time>2015-02-16T20:42:17.666Z</time>
      </trkpt>
      <trkpt lat="48.83444" lon="2.3324">
        <ele>109.5</ele>
        <time>2015-02-16T20:42:18.696Z</time>
      </trkpt>
      <trkpt lat="48.83439" lon="2.3323">
        <ele>108.6</ele>
        <time>2015-02-16T20:42:22.606Z</time>
      </trkpt>
      <trkpt lat="48.83437" lon="2.33227">
        <ele>108.6</ele>
        <time>2015-02-16T20:42:23.616Z</time>
      </trkpt>
      <trkpt lat="48.83429" lon="2.33221">
        <ele>107.7</ele>
        <time>2015-02-16T20:42:27.613Z</time>
      </trkpt>
      <trkpt lat="48.83427" lon="2.33221">
        <ele>107.5</ele>
        <time>2015-02-16T20:42:28.609Z</time>
      </trkpt>
      <trkpt lat="48.83419" lon="2.33217">
        <ele>106.9</ele>
        <time>2015-02-16T20:42:32.602Z</time>
      </trkpt>
      <trkpt lat="48.83417" lon="2.33214">
        <ele>107.1</ele>
        <time>2015-02-16T20:42:33.644Z</time>
      </trkpt>
      <trkpt lat="48.83411" lon="2.33208">
        <ele>107.3</ele>
        <time>2015-02-16T20:42:36.705Z</time>
      </trkpt>
      <trkpt lat="48.83408" lon="2.33206">
        <ele>107.4</ele>
        <time>2015-02-16T20:42:37.636Z</time>
      </trkpt>
      <trkpt lat="48.83401" lon="2.33199">
        <ele>107.9</ele>
        <time>2015-02-16T20:42:40.614Z</time>
      </trkpt>
      <trkpt lat="48.83399" lon="2.33198">
        <ele>108.1</ele>
        <time>2015-02-16T20:42:41.640Z</time>
      </trkpt>
      <trkpt lat="48.83393" lon="2.33193">
        <ele>108.4</ele>
        <time>2015-02-16T20:42:44.628Z</time>
      </trkpt>
      <trkpt lat="48.83391" lon="2.33191">
        <ele>108.4</ele>
        <time>2015-02-16T20:42:45.635Z</time>
      </trkpt>
      <trkpt lat="48.83382" lon="2.33188">
        <ele>108.4</ele>
        <time>2015-02-16T20:42:51.690Z</time>
      </trkpt>
      <trkpt lat="48.83381" lon="2.33187">
        <ele>108.6</ele>
        <time>2015-02-16T20:42:52.693Z</time>
      </trkpt>
      <trkpt lat="48.83381" lon="2.33187">
        <ele>108.6</ele>
        <time>2015-02-16T20:42:52.867Z</time>
      </trkpt>
      <trkpt lat="48.8338" lon="2.33187">
        <ele>109.2</ele>
        <time>2015-02-16T20:42:53.712Z</time>
      </trkpt>
      <trkpt lat="48.8338" lon="2.33187">
        <ele>109.3</ele>
        <time>2015-02-16T20:43:03.672Z</time>
      </trkpt>
      <trkpt lat="48.83379" lon="2.33187">
        <ele>109.5</ele>
        <time>2015-02-16T20:43:04.804Z</time>
      </trkpt>
      <trkpt lat="48.83372" lon="2.33181">
        <ele>109.9</ele>
        <time>2015-02-16T20:43:09.656Z</time>
      </trkpt>
      <trkpt lat="48.83371" lon="2.3318">
        <ele>109.9</ele>
        <time>2015-02-16T20:43:10.612Z</time>
      </trkpt>
      <trkpt lat="48.83364" lon="2.33175">
        <ele>110.5</ele>
        <time>2015-02-16T20:43:13.685Z</time>
      </trkpt>
      <trkpt lat="48.83361" lon="2.33173">
        <ele>110.9</ele>
        <time>2015-02-16T20:43:14.607Z</time>
      </trkpt>
      <trkpt lat="48.83353" lon="2.33171">
        <ele>112.2</ele>
        <time>2015-02-16T20:43:18.198Z</time>
      </trkpt>
      <trkpt lat="48.83351" lon="2.3317">
        <ele>112.5</ele>
        <time>2015-02-16T20:43:18.668Z</time>
      </trkpt>
      <trkpt lat="48.83343" lon="2.33165">
        <ele>113</ele>
        <time>2015-02-16T20:43:21.631Z</time>
      </trkpt>
      <trkpt lat="48.83341" lon="2.33162">
        <ele>113.2</ele>
        <time>2015-02-16T20:43:22.634Z</time>
      </trkpt>
      <trkpt lat="48.83334" lon="2.33156">
        <ele>113.5</ele>
        <time>2015-02-16T20:43:25.711Z</time>
      </trkpt>
      <trkpt lat="48.83331" lon="2.33153">
        <ele>113.7</ele>
        <time>2015-02-16T20:43:26.638Z</time>
      </trkpt>
      <trkpt lat="48.83324" lon="2.33148">
        <ele>114</ele>
        <time>2015-02-16T20:43:30.640Z</time>
      </trkpt>
      <trkpt lat="48.83321" lon="2.33144">
        <ele>114.1</ele>
        <time>2015-02-16T20:43:30.688Z</time>
      </trkpt>
      <trkpt lat="48.83316" lon="2.33138">
        <ele>114.3</ele>
        <time>2015-02-16T20:43:32.636Z</time>
      </trkpt>
      <trkpt lat="48.83314" lon="2.33135">
        <ele>114.4</ele>
        <time>2015-02-16T20:43:33.669Z</time>
      </trkpt>
      <trkpt lat="48.83308" lon="2.33128">
        <ele>114.4</ele>
        <time>2015-02-16T20:43:35.674Z</time>
      </trkpt>
      <trkpt lat="48.83305" lon="2.33125">
        <ele>114.5</ele>
        <time>2015-02-16T20:43:36.656Z</time>
      </trkpt>
      <trkpt lat="48.83298" lon="2.33119">
        <ele>114.4</ele>
        <time>2015-02-16T20:43:38.700Z</time>
      </trkpt>
      <trkpt lat="48.83295" lon="2.33116">
        <ele>114.3</ele>
        <time>2015-02-16T20:43:39.714Z</time>
      </trkpt>
      <trkpt lat="48.83289" lon="2.33111">
        <ele>114.2</ele>
        <time>2015-02-16T20:43:41.615Z</time>
      </trkpt>
      <trkpt lat="48.83286" lon="2.33108">
        <ele>114.3</ele>
        <time>2015-02-16T20:43:42.748Z</time>
      </trkpt>
      <trkpt lat="48.83279" lon="2.33103">
        <ele>114.3</ele>
        <time>2015-02-16T20:43:44.625Z</time>
      </trkpt>
      <trkpt lat="48.83276" lon="2.33102">
        <ele>114.3</ele>
        <time>2015-02-16T20:43:45.640Z</time>
      </trkpt>
      <trkpt lat="48.83269" lon="2.33097">
        <ele>114.5</ele>
        <time>2015-02-16T20:43:47.683Z</time>
      </trkpt>
      <trkpt lat="48.83266" lon="2.33094">
        <ele>114.6</ele>
        <time>2015-02-16T20:43:48.651Z</time>
      </trkpt>
      <trkpt lat="48.83261" lon="2.33089">
        <ele>114.6</ele>
        <time>2015-02-16T20:43:50.882Z</time>
      </trkpt>
      <trkpt lat="48.83258" lon="2.33085">
        <ele>114.5</ele>
        <time>2015-02-16T20:43:51.704Z</time>
      </trkpt>
      <trkpt lat="48.83252" lon="2.3308">
        <ele>114.3</ele>
        <time>2015-02-16T20:43:53.640Z</time>
      </trkpt>
      <trkpt lat="48.83249" lon="2.33077">
        <ele>114.3</ele>
        <time>2015-02-16T20:43:54.647Z</time>
      </trkpt>
      <trkpt lat="48.83244" lon="2.33073">
        <ele>114.1</ele>
        <time>2015-02-16T20:43:56.656Z</time>
      </trkpt>
      <trkpt lat="48.83241" lon="2.3307">
        <ele>114</ele>
        <time>2015-02-16T20:43:57.658Z</time>
      </trkpt>
      <trkpt lat="48.83233" lon="2.33063">
        <ele>115.3</ele>
        <time>2015-02-16T20:44:00.958Z</time>
      </trkpt>
      <trkpt lat="48.83233" lon="2.33062">
        <ele>115.6</ele>
        <time>2015-02-16T20:44:01.650Z</time>
      </trkpt>
      <trkpt lat="48.83236" lon="2.33051">
        <ele>115.2</ele>
        <time>2015-02-16T20:44:06.643Z</time>
      </trkpt>
      <trkpt lat="48.83237" lon="2.33048">
        <ele>115</ele>
        <time>2015-02-16T20:44:07.657Z</time>
      </trkpt>
      <trkpt lat="48.8324" lon="2.33039">
        <ele>114.4</ele>
        <time>2015-02-16T20:44:10.594Z</time>
      </trkpt>
      <trkpt lat="48.83241" lon="2.33036">
        <ele>114.5</ele>
        <time>2015-02-16T20:44:11.590Z</time>
      </trkpt>
      <trkpt lat="48.83243" lon="2.33025">
        <ele>114.6</ele>
        <time>2015-02-16T20:44:14.717Z</time>
      </trkpt>
      <trkpt lat="48.83243" lon="2.33022">
        <ele>114.6</ele>
        <time>2015-02-16T20:44:15.596Z</time>
      </trkpt>
      <trkpt lat="48.83243" lon="2.33008">
        <ele>114</ele>
        <time>2015-02-16T20:44:21.364Z</time>
      </trkpt>
      <trkpt lat="48.83242" lon="2.33007">
        <ele>113.8</ele>
        <time>2015-02-16T20:44:21.587Z</time>
      </trkpt>
      <trkpt lat="48.83247" lon="2.32997">
        <ele>112.8</ele>
        <time>2015-02-16T20:44:26.483Z</time>
      </trkpt>
      <trkpt lat="48.83248" lon="2.32995">
        <ele>112.6</ele>
        <time>2015-02-16T20:44:26.628Z</time>
      </trkpt>
      <trkpt lat="48.83251" lon="2.32987">
        <ele>111.8</ele>
        <time>2015-02-16T20:44:28.598Z</time>
      </trkpt>
      <trkpt lat="48.83252" lon="2.32982">
        <ele>111.5</ele>
        <time>2015-02-16T20:44:29.601Z</time>
      </trkpt>
      <trkpt lat="48.83252" lon="2.32971">
        <ele>111.1</ele>
        <time>2015-02-16T20:44:32.653Z</time>
      </trkpt>
      <trkpt lat="48.83251" lon="2.32967">
        <ele>110.7</ele>
        <time>2015-02-16T20:44:33.592Z</time>
      </trkpt>
      <trkpt lat="48.83254" lon="2.32954">
        <ele>110</ele>
        <time>2015-02-16T20:44:36.676Z</time>
      </trkpt>
      <trkpt lat="48.83255" lon="2.3295">
        <ele>109.8</ele>
        <time>2015-02-16T20:44:37.702Z</time>
      </trkpt>
      <trkpt lat="48.83257" lon="2.32941">
        <ele>109.2</ele>
        <time>2015-02-16T20:44:39.653Z</time>
      </trkpt>
      <trkpt lat="48.83258" lon="2.32936">
        <ele>108.9</ele>
        <time>2015-02-16T20:44:40.670Z</time>
      </trkpt>
      <trkpt lat="48.83261" lon="2.32928">
        <ele>108.3</ele>
        <time>2015-02-16T20:44:42.647Z</time>
      </trkpt>
      <trkpt lat="48.83262" lon="2.32923">
        <ele>107.9</ele>
        <time>2015-02-16T20:44:43.685Z</time>
      </trkpt>
      <trkpt lat="48.83265" lon="2.32916">
        <ele>106.9</ele>
        <time>2015-02-16T20:44:44.591Z</time>
      </trkpt>
      <trkpt lat="48.83267" lon="2.32911">
        <ele>106.3</ele>
        <time>2015-02-16T20:44:45.595Z</time>
      </trkpt>
      <trkpt lat="48.8327" lon="2.32905">
        <ele>105.7</ele>
        <time>2015-02-16T20:44:46.606Z</time>
      </trkpt>
      <trkpt lat="48.83274" lon="2.32899">
        <ele>104.7</ele>
        <time>2015-02-16T20:44:47.611Z</time>
      </trkpt>
      <trkpt lat="48.83278" lon="2.32893">
        <ele>103.8</ele>
        <time>2015-02-16T20:44:48.615Z</time>
      </trkpt>
      <trkpt lat="48.83284" lon="2.32886">
        <ele>103.2</ele>
        <time>2015-02-16T20:44:49.620Z</time>
      </trkpt>
      <trkpt lat="48.83289" lon="2.32876">
        <ele>102.9</ele>
        <time>2015-02-16T20:44:51.647Z</time>
      </trkpt>
      <trkpt lat="48.83288" lon="2.32869">
        <ele>102.7</ele>
        <time>2015-02-16T20:44:52.582Z</time>
      </trkpt>
      <trkpt lat="48.83287" lon="2.32856">
        <ele>102.8</ele>
        <time>2015-02-16T20:44:54.595Z</time>
      </trkpt>
      <trkpt lat="48.83287" lon="2.32849">
        <ele>103.2</ele>
        <time>2015-02-16T20:44:55.621Z</time>
      </trkpt>
      <trkpt lat="48.83288" lon="2.32837">
        <ele>103.5</ele>
        <time>2015-02-16T20:44:57.671Z</time>
      </trkpt>
      <trkpt lat="48.8329" lon="2.3283">
        <ele>103.9</ele>
        <time>2015-02-16T20:44:58.700Z</time>
      </trkpt>
      <trkpt lat="48.83292" lon="2.32823">
        <ele>104.1</ele>
        <time>2015-02-16T20:44:59.670Z</time>
      </trkpt>
      <trkpt lat="48.83294" lon="2.32817">
        <ele>104.4</ele>
        <time>2015-02-16T20:45:00.611Z</time>
      </trkpt>
      <trkpt lat="48.83297" lon="2.32807">
        <ele>104.9</ele>
        <time>2015-02-16T20:45:02.593Z</time>
      </trkpt>
      <trkpt lat="48.83298" lon="2.32803">
        <ele>105.1</ele>
        <time>2015-02-16T20:45:03.601Z</time>
      </trkpt>
      <trkpt lat="48.833" lon="2.32793">
        <ele>105.5</ele>
        <time>2015-02-16T20:45:06.161Z</time>
      </trkpt>
      <trkpt lat="48.833" lon="2.32785">
        <ele>106.8</ele>
        <time>2015-02-16T20:45:06.654Z</time>
      </trkpt>
      <trkpt lat="48.833" lon="2.32772">
        <ele>109.6</ele>
        <time>2015-02-16T20:45:08.681Z</time>
      </trkpt>
      <trkpt lat="48.83302" lon="2.32766">
        <ele>110.9</ele>
        <time>2015-02-16T20:45:09.719Z</time>
      </trkpt>
      <trkpt lat="48.83306" lon="2.32754">
        <ele>113.8</ele>
        <time>2015-02-16T20:45:11.642Z</time>
      </trkpt>
      <trkpt lat="48.83307" lon="2.32752">
        <ele>114.1</ele>
        <time>2015-02-16T20:45:12.661Z</time>
      </trkpt>
      <trkpt lat="48.83311" lon="2.3274">
        <ele>113.8</ele>
        <time>2015-02-16T20:45:18.635Z</time>
      </trkpt>
      <trkpt lat="48.83312" lon="2.32738">
        <ele>113.7</ele>
        <time>2015-02-16T20:45:19.644Z</time>
      </trkpt>
      <trkpt lat="48.83315" lon="2.32728">
        <ele>114</ele>
        <time>2015-02-16T20:45:25.616Z</time>
      </trkpt>
      <trkpt lat="48.83316" lon="2.32726">
        <ele>114</ele>
        <time>2015-02-16T20:45:26.623Z</time>
      </trkpt>
      <trkpt lat="48.83315" lon="2.32715">
        <ele>114.9</ele>
        <time>2015-02-16T20:45:31.650Z</time>
      </trkpt>
      <trkpt lat="48.83315" lon="2.32712">
        <ele>115</ele>
        <time>2015-02-16T20:45:32.664Z</time>
      </trkpt>
      <trkpt lat="48.8332" lon="2.32707">
        <ele>117.3</ele>
        <time>2015-02-16T20:45:53.655Z</time>
      </trkpt>
      <trkpt lat="48.83321" lon="2.32707">
        <ele>117.4</ele>
        <time>2015-02-16T20:45:54.669Z</time>
      </trkpt>
      <trkpt lat="48.83321" lon="2.32708">
        <ele>117.6</ele>
        <time>2015-02-16T20:45:55.685Z</time>
      </trkpt>
      <trkpt lat="48.83325" lon="2.32708">
        <ele>117.8</ele>
        <time>2015-02-16T20:45:59.668Z</time>
      </trkpt>
      <trkpt lat="48.83325" lon="2.32708">
        <ele>117.9</ele>
        <time>2015-02-16T20:46:00.675Z</time>
      </trkpt>
      <trkpt lat="48.83325" lon="2.32708">
        <ele>118.2</ele>
        <time>2015-02-16T20:46:01.691Z</time>
      </trkpt>
      <trkpt lat="48.83325" lon="2.32709">
        <ele>118.5</ele>
        <time>2015-02-16T20:46:02.622Z</time>
      </trkpt>
      <trkpt lat="48.83326" lon="2.32708">
        <ele>120.1</ele>
        <time>2015-02-16T20:46:17.595Z</time>
      </trkpt>
      <trkpt lat="48.83326" lon="2.32708">
        <ele>120.4</ele>
        <time>2015-02-16T20:46:18.610Z</time>
      </trkpt>
      <trkpt lat="48.83326" lon="2.32708">
        <ele>120.6</ele>
        <time>2015-02-16T20:46:19.627Z</time>
      </trkpt>
      <trkpt lat="48.83326" lon="2.32707">
        <ele>120.7</ele>
        <time>2015-02-16T20:46:21.487Z</time>
      </trkpt>
      <trkpt lat="48.83326" lon="2.32707">
        <ele>120.7</ele>
        <time>2015-02-16T20:46:21.645Z</time>
      </trkpt>
      <trkpt lat="48.83326" lon="2.32707">
        <ele>120.8</ele>
        <time>2015-02-16T20:46:22.656Z</time>
      </trkpt>
      <trkpt lat="48.83328" lon="2.32717">
        <ele>124.9</ele>
        <time>2015-02-16T20:46:53.664Z</time>
      </trkpt>
      <trkpt lat="48.83328" lon="2.32716">
        <ele>125.1</ele>
        <time>2015-02-16T20:46:54.700Z</time>
      </trkpt>
      <trkpt lat="48.83328" lon="2.32715">
        <ele>125.3</ele>
        <time>2015-02-16T20:46:55.723Z</time>
      </trkpt>
      <trkpt lat="48.83326" lon="2.32707">
        <ele>126.2</ele>
        <time>2015-02-16T20:47:06.641Z</time>
      </trkpt>
      <trkpt lat="48.83326" lon="2.32707">
        <ele>126.3</ele>
        <time>2015-02-16T20:47:07.638Z</time>
      </trkpt>
      <trkpt lat="48.83326" lon="2.32706">
        <ele>126.4</ele>
        <time>2015-02-16T20:47:11.618Z</time>
      </trkpt>
      <trkpt lat="48.83326" lon="2.32704">
        <ele>125.6</ele>
        <time>2015-02-16T20:47:12.643Z</time>
      </trkpt>
      <trkpt lat="48.83329" lon="2.32693">
        <ele>123.2</ele>
        <time>2015-02-16T20:47:16.108Z</time>
      </trkpt>
      <trkpt lat="48.8333" lon="2.3269">
        <ele>122.8</ele>
        <time>2015-02-16T20:47:16.704Z</time>
      </trkpt>
      <trkpt lat="48.83334" lon="2.32681">
        <ele>120.9</ele>
        <time>2015-02-16T20:47:21.313Z</time>
      </trkpt>
      <trkpt lat="48.83334" lon="2.32678">
        <ele>120.5</ele>
        <time>2015-02-16T20:47:21.640Z</time>
      </trkpt>
      <trkpt lat="48.83335" lon="2.32666">
        <ele>119.2</ele>
        <time>2015-02-16T20:47:27.608Z</time>
      </trkpt>
      <trkpt lat="48.83334" lon="2.32666">
        <ele>119.2</ele>
        <time>2015-02-16T20:47:28.638Z</time>
      </trkpt>
      <trkpt lat="48.83334" lon="2.32666">
        <ele>119.2</ele>
        <time>2015-02-16T20:47:42.650Z</time>
      </trkpt>
      <trkpt lat="48.83336" lon="2.32658">
        <ele>119.2</ele>
        <time>2015-02-16T20:47:43.670Z</time>
      </trkpt>
      <trkpt lat="48.83339" lon="2.32648">
        <ele>119.6</ele>
        <time>2015-02-16T20:47:49.577Z</time>
      </trkpt>
      <trkpt lat="48.8334" lon="2.32645">
        <ele>119.5</ele>
        <time>2015-02-16T20:47:50.595Z</time>
      </trkpt>
      <trkpt lat="48.83344" lon="2.32635">
        <ele>119.7</ele>
        <time>2015-02-16T20:47:56.404Z</time>
      </trkpt>
      <trkpt lat="48.83345" lon="2.32632">
        <ele>119.7</ele>
        <time>2015-02-16T20:47:56.577Z</time>
      </trkpt>
      <trkpt lat="48.8335" lon="2.32624">
        <ele>119.8</ele>
        <time>2015-02-16T20:48:01.490Z</time>
      </trkpt>
      <trkpt lat="48.83351" lon="2.32621">
        <ele>119.7</ele>
        <time>2015-02-16T20:48:01.678Z</time>
      </trkpt>
      <trkpt lat="48.83357" lon="2.32611">
        <ele>119.8</ele>
        <time>2015-02-16T20:48:06.585Z</time>
      </trkpt>
      <trkpt lat="48.83359" lon="2.32609">
        <ele>120</ele>
        <time>2015-02-16T20:48:06.666Z</time>
      </trkpt>
      <trkpt lat="48.83361" lon="2.32596">
        <ele>122.3</ele>
        <time>2015-02-16T20:48:09.701Z</time>
      </trkpt>
      <trkpt lat="48.83361" lon="2.32593">
        <ele>122.6</ele>
        <time>2015-02-16T20:48:10.609Z</time>
      </trkpt>
      <trkpt lat="48.83366" lon="2.32584">
        <ele>122.9</ele>
        <time>2015-02-16T20:48:13.646Z</time>
      </trkpt>
      <trkpt lat="48.83367" lon="2.32581">
        <ele>122.9</ele>
        <time>2015-02-16T20:48:14.667Z</time>
      </trkpt>
      <trkpt lat="48.83373" lon="2.32571">
        <ele>122.6</ele>
        <time>2015-02-16T20:48:17.599Z</time>
      </trkpt>
      <trkpt lat="48.83375" lon="2.32568">
        <ele>122.5</ele>
        <time>2015-02-16T20:48:18.598Z</time>
      </trkpt>
      <trkpt lat="48.83381" lon="2.32561">
        <ele>122.3</ele>
        <time>2015-02-16T20:48:20.624Z</time>
      </trkpt>
      <trkpt lat="48.83383" lon="2.32558">
        <ele>122.1</ele>
        <time>2015-02-16T20:48:21.628Z</time>
      </trkpt>
      <trkpt lat="48.83387" lon="2.32548">
        <ele>121.2</ele>
        <time>2015-02-16T20:48:24.652Z</time>
      </trkpt>
      <trkpt lat="48.83388" lon="2.32545">
        <ele>121</ele>
        <time>2015-02-16T20:48:25.654Z</time>
      </trkpt>
      <trkpt lat="48.83392" lon="2.32538">
        <ele>120.7</ele>
        <time>2015-02-16T20:48:27.572Z</time>
      </trkpt>
      <trkpt lat="48.83394" lon="2.32534">
        <ele>120.5</ele>
        <time>2015-02-16T20:48:28.581Z</time>
      </trkpt>
      <trkpt lat="48.83397" lon="2.32523">
        <ele>120.2</ele>
        <time>2015-02-16T20:48:31.614Z</time>
      </trkpt>
      <trkpt lat="48.83398" lon="2.3252">
        <ele>120.2</ele>
        <time>2015-02-16T20:48:32.664Z</time>
      </trkpt>
      <trkpt lat="48.83402" lon="2.32511">
        <ele>121.3</ele>
        <time>2015-02-16T20:48:35.587Z</time>
      </trkpt>
      <trkpt lat="48.83404" lon="2.32507">
        <ele>121.7</ele>
        <time>2015-02-16T20:48:35.620Z</time>
      </trkpt>
      <trkpt lat="48.83405" lon="2.32498">
        <ele>121.9</ele>
        <time>2015-02-16T20:48:37.654Z</time>
      </trkpt>
      <trkpt lat="48.83403" lon="2.32493">
        <ele>121.6</ele>
        <time>2015-02-16T20:48:38.675Z</time>
      </trkpt>
      <trkpt lat="48.83405" lon="2.3248">
        <ele>121.6</ele>
        <time>2015-02-16T20:48:41.627Z</time>
      </trkpt>
      <trkpt lat="48.83406" lon="2.32477">
        <ele>121.5</ele>
        <time>2015-02-16T20:48:42.688Z</time>
      </trkpt>
      <trkpt lat="48.8341" lon="2.32469">
        <ele>121.2</ele>
        <time>2015-02-16T20:48:45.714Z</time>
      </trkpt>
      <trkpt lat="48.83413" lon="2.32467">
        <ele>121.2</ele>
        <time>2015-02-16T20:48:45.830Z</time>
      </trkpt>
      <trkpt lat="48.83418" lon="2.32461">
        <ele>121.3</ele>
        <time>2015-02-16T20:48:47.636Z</time>
      </trkpt>
      <trkpt lat="48.8342" lon="2.32458">
        <ele>121.5</ele>
        <time>2015-02-16T20:48:48.762Z</time>
      </trkpt>
      <trkpt lat="48.83425" lon="2.32448">
        <ele>123.7</ele>
        <time>2015-02-16T20:48:51.647Z</time>
      </trkpt>
      <trkpt lat="48.83427" lon="2.32445">
        <ele>124</ele>
        <time>2015-02-16T20:48:52.667Z</time>
      </trkpt>
      <trkpt lat="48.83433" lon="2.32438">
        <ele>125.2</ele>
        <time>2015-02-16T20:48:56.635Z</time>
      </trkpt>
      <trkpt lat="48.83435" lon="2.32435">
        <ele>125</ele>
        <time>2015-02-16T20:48:57.679Z</time>
      </trkpt>
      <trkpt lat="48.83439" lon="2.32426">
        <ele>127.4</ele>
        <time>2015-02-16T20:49:00.993Z</time>
      </trkpt>
      <trkpt lat="48.83441" lon="2.32423">
        <ele>127.7</ele>
        <time>2015-02-16T20:49:01.650Z</time>
      </trkpt>
      <trkpt lat="48.83447" lon="2.32415">
        <ele>128.6</ele>
        <time>2015-02-16T20:49:06.080Z</time>
      </trkpt>
      <trkpt lat="48.83447" lon="2.32414">
        <ele>127.8</ele>
        <time>2015-02-16T20:49:06.614Z</time>
      </trkpt>
      <trkpt lat="48.83447" lon="2.32408">
        <ele>127.9</ele>
        <time>2015-02-16T20:49:11.619Z</time>
      </trkpt>
      <trkpt lat="48.83448" lon="2.32408">
        <ele>127.8</ele>
        <time>2015-02-16T20:49:12.670Z</time>
      </trkpt>
      <trkpt lat="48.83448" lon="2.32408">
        <ele>127.7</ele>
        <time>2015-02-16T20:49:13.694Z</time>
      </trkpt>
      <trkpt lat="48.83447" lon="2.32409">
        <ele>127.7</ele>
        <time>2015-02-16T20:49:14.715Z</time>
      </trkpt>
      <trkpt lat="48.83447" lon="2.32409">
        <ele>127.8</ele>
        <time>2015-02-16T20:49:16.649Z</time>
      </trkpt>
      <trkpt lat="48.83447" lon="2.32409">
        <ele>127.6</ele>
        <time>2015-02-16T20:49:17.653Z</time>
      </trkpt>
      <trkpt lat="48.83447" lon="2.32407">
        <ele>127.3</ele>
        <time>2015-02-16T20:49:21.598Z</time>
      </trkpt>
      <trkpt lat="48.83446" lon="2.32407">
        <ele>127</ele>
        <time>2015-02-16T20:49:22.603Z</time>
      </trkpt>
      <trkpt lat="48.83446" lon="2.32407">
        <ele>126.8</ele>
        <time>2015-02-16T20:49:23.606Z</time>
      </trkpt>
      <trkpt lat="48.83446" lon="2.32407">
        <ele>126.7</ele>
        <time>2015-02-16T20:49:24.618Z</time>
      </trkpt>
      <trkpt lat="48.83451" lon="2.32397">
        <ele>123.7</ele>
        <time>2015-02-16T20:49:31.624Z</time>
      </trkpt>
      <trkpt lat="48.83451" lon="2.32395">
        <ele>123.1</ele>
        <time>2015-02-16T20:49:32.660Z</time>
      </trkpt>
      <trkpt lat="48.83451" lon="2.32382">
        <ele>120.9</ele>
        <time>2015-02-16T20:49:39.689Z</time>
      </trkpt>
      <trkpt lat="48.83451" lon="2.32381">
        <ele>120.8</ele>
        <time>2015-02-16T20:49:40.601Z</time>
      </trkpt>
      <trkpt lat="48.83456" lon="2.32371">
        <ele>119.7</ele>
        <time>2015-02-16T20:49:48.645Z</time>
      </trkpt>
      <trkpt lat="48.83457" lon="2.3237">
        <ele>119.7</ele>
        <time>2015-02-16T20:49:49.670Z</time>
      </trkpt>
      <trkpt lat="48.83463" lon="2.32362">
        <ele>118.1</ele>
        <time>2015-02-16T20:49:59.586Z</time>
      </trkpt>
      <trkpt lat="48.83464" lon="2.3236">
        <ele>117.9</ele>
        <time>2015-02-16T20:50:00.608Z</time>
      </trkpt>
      <trkpt lat="48.83466" lon="2.32348">
        <ele>118.1</ele>
        <time>2015-02-16T20:50:09.619Z</time>
      </trkpt>
      <trkpt lat="48.83467" lon="2.32347">
        <ele>118.1</ele>
        <time>2015-02-16T20:50:10.636Z</time>
      </trkpt>
      <trkpt lat="48.83467" lon="2.32347">
        <ele>118.1</ele>
        <time>2015-02-16T20:50:10.995Z</time>
      </trkpt>
      <trkpt lat="48.83467" lon="2.32347">
        <ele>118.2</ele>
        <time>2015-02-16T20:50:11.662Z</time>
      </trkpt>
      <trkpt lat="48.83468" lon="2.32346">
        <ele>118.1</ele>
        <time>2015-02-16T20:50:12.670Z</time>
      </trkpt>
      <trkpt lat="48.83468" lon="2.32344">
        <ele>117.8</ele>
        <time>2015-02-16T20:50:16.759Z</time>
      </trkpt>
      <trkpt lat="48.83468" lon="2.32343">
        <ele>117.6</ele>
        <time>2015-02-16T20:50:17.610Z</time>
      </trkpt>
      <trkpt lat="48.83469" lon="2.32342">
        <ele>117.5</ele>
        <time>2015-02-16T20:50:18.623Z</time>
      </trkpt>
      <trkpt lat="48.83475" lon="2.32333">
        <ele>116.7</ele>
        <time>2015-02-16T20:50:30.671Z</time>
      </trkpt>
      <trkpt lat="48.83475" lon="2.32333">
        <ele>116.7</ele>
        <time>2015-02-16T20:50:30.758Z</time>
      </trkpt>
      <trkpt lat="48.83475" lon="2.32332">
        <ele>116.7</ele>
        <time>2015-02-16T20:50:31.685Z</time>
      </trkpt>
      <trkpt lat="48.83475" lon="2.3233">
        <ele>117.1</ele>
        <time>2015-02-16T20:50:35.787Z</time>
      </trkpt>
      <trkpt lat="48.83475" lon="2.3233">
        <ele>117.3</ele>
        <time>2015-02-16T20:50:35.848Z</time>
      </trkpt>
      <trkpt lat="48.83475" lon="2.3233">
        <ele>117.5</ele>
        <time>2015-02-16T20:50:36.604Z</time>
      </trkpt>
      <trkpt lat="48.83474" lon="2.3233">
        <ele>117.6</ele>
        <time>2015-02-16T20:50:37.601Z</time>
      </trkpt>
      <trkpt lat="48.83478" lon="2.32331">
        <ele>118.2</ele>
        <time>2015-02-16T20:50:46.046Z</time>
      </trkpt>
      <trkpt lat="48.83478" lon="2.3233">
        <ele>118</ele>
        <time>2015-02-16T20:50:46.644Z</time>
      </trkpt>
      <trkpt lat="48.83478" lon="2.3233">
        <ele>117.8</ele>
        <time>2015-02-16T20:50:47.661Z</time>
      </trkpt>
      <trkpt lat="48.83481" lon="2.32317">
        <ele>117.3</ele>
        <time>2015-02-16T20:51:01.683Z</time>
      </trkpt>
      <trkpt lat="48.83482" lon="2.32317">
        <ele>117.3</ele>
        <time>2015-02-16T20:51:02.682Z</time>
      </trkpt>
      <trkpt lat="48.83491" lon="2.32319">
        <ele>116.4</ele>
        <time>2015-02-16T20:51:08.648Z</time>
      </trkpt>
      <trkpt lat="48.83492" lon="2.32319">
        <ele>116.1</ele>
        <time>2015-02-16T20:51:09.674Z</time>
      </trkpt>
      <trkpt lat="48.83496" lon="2.32308">
        <ele>115.2</ele>
        <time>2015-02-16T20:51:23.628Z</time>
      </trkpt>
      <trkpt lat="48.83497" lon="2.32307">
        <ele>115.1</ele>
        <time>2015-02-16T20:51:24.665Z</time>
      </trkpt>
      <trkpt lat="48.83502" lon="2.32296">
        <ele>115.3</ele>
        <time>2015-02-16T20:51:40.783Z</time>
      </trkpt>
      <trkpt lat="48.83502" lon="2.32295">
        <ele>115.4</ele>
        <time>2015-02-16T20:51:41.675Z</time>
      </trkpt>
      <trkpt lat="48.83503" lon="2.32283">
        <ele>115.2</ele>
        <time>2015-02-16T20:51:52.547Z</time>
      </trkpt>
      <trkpt lat="48.83504" lon="2.32281">
        <ele>115.2</ele>
        <time>2015-02-16T20:51:53.576Z</time>
      </trkpt>
      <trkpt lat="48.83505" lon="2.32268">
        <ele>113.6</ele>
        <time>2015-02-16T20:52:02.638Z</time>
      </trkpt>
      <trkpt lat="48.83506" lon="2.32268">
        <ele>113.6</ele>
        <time>2015-02-16T20:52:03.657Z</time>
      </trkpt>
      <trkpt lat="48.83504" lon="2.32264">
        <ele>113.5</ele>
        <time>2015-02-16T20:52:06.377Z</time>
      </trkpt>
      <trkpt lat="48.83503" lon="2.32263">
        <ele>113.5</ele>
        <time>2015-02-16T20:52:06.611Z</time>
      </trkpt>
      <trkpt lat="48.83503" lon="2.32262">
        <ele>113.4</ele>
        <time>2015-02-16T20:52:07.621Z</time>
      </trkpt>
      <trkpt lat="48.83502" lon="2.32256">
        <ele>114.5</ele>
        <time>2015-02-16T20:52:18.629Z</time>
      </trkpt>
      <trkpt lat="48.83503" lon="2.32255">
        <ele>114.6</ele>
        <time>2015-02-16T20:52:19.630Z</time>
      </trkpt>
      <trkpt lat="48.83502" lon="2.32254">
        <ele>114.9</ele>
        <time>2015-02-16T20:52:26.606Z</time>
      </trkpt>
      <trkpt lat="48.83503" lon="2.32249">
        <ele>116.3</ele>
        <time>2015-02-16T20:52:27.611Z</time>
      </trkpt>
      <trkpt lat="48.83503" lon="2.32249">
        <ele>116.1</ele>
        <time>2015-02-16T20:52:28.593Z</time>
      </trkpt>
      <trkpt lat="48.83504" lon="2.32249">
        <ele>116.2</ele>
        <time>2015-02-16T20:52:38.623Z</time>
      </trkpt>
      <trkpt lat="48.83506" lon="2.32247">
        <ele>117.4</ele>
        <time>2015-02-16T20:52:39.627Z</time>
      </trkpt>
      <trkpt lat="48.83507" lon="2.32246">
        <ele>117.5</ele>
        <time>2015-02-16T20:52:40.641Z</time>
      </trkpt>
      <trkpt lat="48.83508" lon="2.32246">
        <ele>117.1</ele>
        <time>2015-02-16T20:52:44.650Z</time>
      </trkpt>
      <trkpt lat="48.83508" lon="2.32246">
        <ele>116.9</ele>
        <time>2015-02-16T20:52:45.663Z</time>
      </trkpt>
      <trkpt lat="48.83508" lon="2.32246">
        <ele>116.9</ele>
        <time>2015-02-16T20:52:46.689Z</time>
      </trkpt>
      <trkpt lat="48.83508" lon="2.32247">
        <ele>117.2</ele>
        <time>2015-02-16T20:53:00.606Z</time>
      </trkpt>
      <trkpt lat="48.83507" lon="2.32246">
        <ele>116.7</ele>
        <time>2015-02-16T20:53:01.650Z</time>
      </trkpt>
      <trkpt lat="48.83509" lon="2.32242">
        <ele>116.6</ele>
        <time>2015-02-16T20:53:05.648Z</time>
      </trkpt>
      <trkpt lat="48.83509" lon="2.32242">
        <ele>116.6</ele>
        <time>2015-02-16T20:53:06.654Z</time>
      </trkpt>
      <trkpt lat="48.83509" lon="2.32242">
        <ele>116.5</ele>
        <time>2015-02-16T20:53:25.630Z</time>
      </trkpt>
      <trkpt lat="48.83509" lon="2.32246">
        <ele>118.5</ele>
        <time>2015-02-16T20:53:26.625Z</time>
      </trkpt>
      <trkpt lat="48.83508" lon="2.32247">
        <ele>119.1</ele>
        <time>2015-02-16T20:53:28.675Z</time>
      </trkpt>
      <trkpt lat="48.83509" lon="2.32248">
        <ele>119.7</ele>
        <time>2015-02-16T20:53:29.685Z</time>
      </trkpt>
      <trkpt lat="48.83509" lon="2.32248">
        <ele>120.2</ele>
        <time>2015-02-16T20:53:35.699Z</time>
      </trkpt>
      <trkpt lat="48.83509" lon="2.32248">
        <ele>120.2</ele>
        <time>2015-02-16T20:53:36.601Z</time>
      </trkpt>
      <trkpt lat="48.83506" lon="2.32251">
        <ele>121</ele>
        <time>2015-02-16T20:53:45.636Z</time>
      </trkpt>
      <trkpt lat="48.83506" lon="2.32251">
        <ele>121.1</ele>
        <time>2015-02-16T20:53:46.647Z</time>
      </trkpt>
      <trkpt lat="48.83506" lon="2.32251">
        <ele>121</ele>
        <time>2015-02-16T20:53:52.668Z</time>
      </trkpt>
      <trkpt lat="48.83506" lon="2.32252">
        <ele>121</ele>
        <time>2015-02-16T20:53:53.578Z</time>
      </trkpt>
      <trkpt lat="48.83504" lon="2.32254">
        <ele>121.1</ele>
        <time>2015-02-16T20:53:56.624Z</time>
      </trkpt>
      <trkpt lat="48.83504" lon="2.32254">
        <ele>121.1</ele>
        <time>2015-02-16T20:53:57.636Z</time>
      </trkpt>
      <trkpt lat="48.83503" lon="2.32254">
        <ele>121</ele>
        <time>2015-02-16T20:53:58.656Z</time>
      </trkpt>
      <trkpt lat="48.83503" lon="2.32254">
        <ele>120.8</ele>
        <time>2015-02-16T20:53:59.734Z</time>
      </trkpt>
      <trkpt lat="48.83509" lon="2.3226">
        <ele>120.2</ele>
        <time>2015-02-16T20:54:06.666Z</time>
      </trkpt>
      <trkpt lat="48.83511" lon="2.32261">
        <ele>120.4</ele>
        <time>2015-02-16T20:54:07.679Z</time>
      </trkpt>
      <trkpt lat="48.83517" lon="2.32268">
        <ele>121</ele>
        <time>2015-02-16T20:54:11.646Z</time>
      </trkpt>
      <trkpt lat="48.83518" lon="2.32271">
        <ele>121.1</ele>
        <time>2015-02-16T20:54:12.653Z</time>
      </trkpt>
      <trkpt lat="48.83524" lon="2.32278">
        <ele>121.4</ele>
        <time>2015-02-16T20:54:17.621Z</time>
      </trkpt>
      <trkpt lat="48.83526" lon="2.3228">
        <ele>121.4</ele>
        <time>2015-02-16T20:54:18.699Z</time>
      </trkpt>
      <trkpt lat="48.83532" lon="2.32289">
        <ele>121.1</ele>
        <time>2015-02-16T20:54:24.616Z</time>
      </trkpt>
      <trkpt lat="48.83534" lon="2.3229">
        <ele>120.9</ele>
        <time>2015-02-16T20:54:25.644Z</time>
      </trkpt>
      <trkpt lat="48.83542" lon="2.32286">
        <ele>119.1</ele>
        <time>2015-02-16T20:54:28.631Z</time>
      </trkpt>
      <trkpt lat="48.83544" lon="2.32285">
        <ele>118.9</ele>
        <time>2015-02-16T20:54:29.647Z</time>
      </trkpt>
      <trkpt lat="48.8355" lon="2.32279">
        <ele>118.2</ele>
        <time>2015-02-16T20:54:32.600Z</time>
      </trkpt>
      <trkpt lat="48.83552" lon="2.32277">
        <ele>118.2</ele>
        <time>2015-02-16T20:54:33.600Z</time>
      </trkpt>
      <trkpt lat="48.83555" lon="2.32267">
        <ele>117.6</ele>
        <time>2015-02-16T20:54:36.584Z</time>
      </trkpt>
      <trkpt lat="48.83557" lon="2.32264">
        <ele>117.5</ele>
        <time>2015-02-16T20:54:37.686Z</time>
      </trkpt>
      <trkpt lat="48.83561" lon="2.32257">
        <ele>117.2</ele>
        <time>2015-02-16T20:54:39.603Z</time>
      </trkpt>
      <trkpt lat="48.83566" lon="2.32253">
        <ele>118.1</ele>
        <time>2015-02-16T20:54:40.649Z</time>
      </trkpt>
      <trkpt lat="48.83572" lon="2.32246">
        <ele>118.3</ele>
        <time>2015-02-16T20:54:42.682Z</time>
      </trkpt>
      <trkpt lat="48.83574" lon="2.32243">
        <ele>118.3</ele>
        <time>2015-02-16T20:54:43.607Z</time>
      </trkpt>
      <trkpt lat="48.83579" lon="2.32237">
        <ele>118.5</ele>
        <time>2015-02-16T20:54:45.636Z</time>
      </trkpt>
      <trkpt lat="48.83582" lon="2.32233">
        <ele>118.6</ele>
        <time>2015-02-16T20:54:46.648Z</time>
      </trkpt>
      <trkpt lat="48.83586" lon="2.32226">
        <ele>119.2</ele>
        <time>2015-02-16T20:54:48.665Z</time>
      </trkpt>
      <trkpt lat="48.83588" lon="2.32223">
        <ele>119.3</ele>
        <time>2015-02-16T20:54:49.686Z</time>
      </trkpt>
      <trkpt lat="48.83593" lon="2.32211">
        <ele>121.6</ele>
        <time>2015-02-16T20:54:52.611Z</time>
      </trkpt>
      <trkpt lat="48.83591" lon="2.32206">
        <ele>121.6</ele>
        <time>2015-02-16T20:54:53.632Z</time>
      </trkpt>
      <trkpt lat="48.83593" lon="2.32196">
        <ele>121.7</ele>
        <time>2015-02-16T20:54:55.646Z</time>
      </trkpt>
      <trkpt lat="48.83594" lon="2.32191">
        <ele>121.5</ele>
        <time>2015-02-16T20:54:56.664Z</time>
      </trkpt>
      <trkpt lat="48.83596" lon="2.32179">
        <ele>121.9</ele>
        <time>2015-02-16T20:54:59.600Z</time>
      </trkpt>
      <trkpt lat="48.83595" lon="2.32176">
        <ele>122.1</ele>
        <time>2015-02-16T20:55:00.597Z</time>
      </trkpt>
      <trkpt lat="48.83592" lon="2.32165">
        <ele>122.2</ele>
        <time>2015-02-16T20:55:03.686Z</time>
      </trkpt>
      <trkpt lat="48.83589" lon="2.32161">
        <ele>122.2</ele>
        <time>2015-02-16T20:55:04.596Z</time>
      </trkpt>
      <trkpt lat="48.83585" lon="2.32154">
        <ele>122.5</ele>
        <time>2015-02-16T20:55:06.612Z</time>
      </trkpt>
      <trkpt lat="48.83583" lon="2.32151">
        <ele>122.7</ele>
        <time>2015-02-16T20:55:07.627Z</time>
      </trkpt>
      <trkpt lat="48.83577" lon="2.32145">
        <ele>123</ele>
        <time>2015-02-16T20:55:09.646Z</time>
      </trkpt>
      <trkpt lat="48.83574" lon="2.32141">
        <ele>123.1</ele>
        <time>2015-02-16T20:55:10.685Z</time>
      </trkpt>
      <trkpt lat="48.83568" lon="2.32131">
        <ele>123.2</ele>
        <time>2015-02-16T20:55:12.614Z</time>
      </trkpt>
      <trkpt lat="48.83565" lon="2.32127">
        <ele>123.4</ele>
        <time>2015-02-16T20:55:13.633Z</time>
      </trkpt>
      <trkpt lat="48.83562" lon="2.32122">
        <ele>123.7</ele>
        <time>2015-02-16T20:55:14.658Z</time>
      </trkpt>
      <trkpt lat="48.83558" lon="2.32118">
        <ele>123.8</ele>
        <time>2015-02-16T20:55:15.661Z</time>
      </trkpt>
      <trkpt lat="48.83553" lon="2.32107">
        <ele>124.7</ele>
        <time>2015-02-16T20:55:17.575Z</time>
      </trkpt>
      <trkpt lat="48.8355" lon="2.32103">
        <ele>125</ele>
        <time>2015-02-16T20:55:18.599Z</time>
      </trkpt>
      <trkpt lat="48.83543" lon="2.32099">
        <ele>125.6</ele>
        <time>2015-02-16T20:55:20.653Z</time>
      </trkpt>
      <trkpt lat="48.8354" lon="2.32096">
        <ele>125.9</ele>
        <time>2015-02-16T20:55:21.664Z</time>
      </trkpt>
      <trkpt lat="48.83535" lon="2.32089">
        <ele>126.3</ele>
        <time>2015-02-16T20:55:23.565Z</time>
      </trkpt>
      <trkpt lat="48.83533" lon="2.32085">
        <ele>126.3</ele>
        <time>2015-02-16T20:55:24.591Z</time>
      </trkpt>
      <trkpt lat="48.83528" lon="2.32074">
        <ele>126.6</ele>
        <time>2015-02-16T20:55:27.654Z</time>
      </trkpt>
      <trkpt lat="48.83526" lon="2.32071">
        <ele>126.4</ele>
        <time>2015-02-16T20:55:28.572Z</time>
      </trkpt>
      <trkpt lat="48.83522" lon="2.32063">
        <ele>126.2</ele>
        <time>2015-02-16T20:55:30.602Z</time>
      </trkpt>
      <trkpt lat="48.83521" lon="2.32059">
        <ele>126.1</ele>
        <time>2015-02-16T20:55:31.653Z</time>
      </trkpt>
      <trkpt lat="48.83516" lon="2.3205">
        <ele>126</ele>
        <time>2015-02-16T20:55:33.572Z</time>
      </trkpt>
      <trkpt lat="48.83514" lon="2.32046">
        <ele>126</ele>
        <time>2015-02-16T20:55:34.582Z</time>
      </trkpt>
      <trkpt lat="48.8351" lon="2.32038">
        <ele>126</ele>
        <time>2015-02-16T20:55:36.656Z</time>
      </trkpt>
      <trkpt lat="48.83507" lon="2.32032">
        <ele>126</ele>
        <time>2015-02-16T20:55:37.677Z</time>
      </trkpt>
      <trkpt lat="48.83502" lon="2.32023">
        <ele>125.8</ele>
        <time>2015-02-16T20:55:39.581Z</time>
      </trkpt>
      <trkpt lat="48.83499" lon="2.32018">
        <ele>125.7</ele>
        <time>2015-02-16T20:55:40.597Z</time>
      </trkpt>
      <trkpt lat="48.83495" lon="2.32008">
        <ele>125.2</ele>
        <time>2015-02-16T20:55:42.626Z</time>
      </trkpt>
      <trkpt lat="48.83492" lon="2.32003">
        <ele>124.9</ele>
        <time>2015-02-16T20:55:43.657Z</time>
      </trkpt>
      <trkpt lat="48.83489" lon="2.31992">
        <ele>124.5</ele>
        <time>2015-02-16T20:55:45.684Z</time>
      </trkpt>
      <trkpt lat="48.83486" lon="2.31986">
        <ele>124.3</ele>
        <time>2015-02-16T20:55:46.592Z</time>
      </trkpt>
      <trkpt lat="48.83483" lon="2.31979">
        <ele>124.1</ele>
        <time>2015-02-16T20:55:47.667Z</time>
      </trkpt>
      <trkpt lat="48.83481" lon="2.31973">
        <ele>123.9</ele>
        <time>2015-02-16T20:55:48.680Z</time>
      </trkpt>
      <trkpt lat="48.83479" lon="2.31966">
        <ele>123.6</ele>
        <time>2015-02-16T20:55:49.691Z</time>
      </trkpt>
      <trkpt lat="48.83477" lon="2.31961">
        <ele>123.3</ele>
        <time>2015-02-16T20:55:50.598Z</time>
      </trkpt>
      <trkpt lat="48.83472" lon="2.3195">
        <ele>123.2</ele>
        <time>2015-02-16T20:55:52.630Z</time>
      </trkpt>
      <trkpt lat="48.8347" lon="2.31945">
        <ele>123</ele>
        <time>2015-02-16T20:55:53.643Z</time>
      </trkpt>
      <trkpt lat="48.83465" lon="2.31934">
        <ele>122.7</ele>
        <time>2015-02-16T20:55:55.688Z</time>
      </trkpt>
      <trkpt lat="48.83462" lon="2.31929">
        <ele>122.4</ele>
        <time>2015-02-16T20:55:56.584Z</time>
      </trkpt>
      <trkpt lat="48.83459" lon="2.31923">
        <ele>122.3</ele>
        <time>2015-02-16T20:55:57.580Z</time>
      </trkpt>
      <trkpt lat="48.83456" lon="2.31918">
        <ele>122.1</ele>
        <time>2015-02-16T20:55:58.603Z</time>
      </trkpt>
      <trkpt lat="48.83453" lon="2.31912">
        <ele>122.4</ele>
        <time>2015-02-16T20:55:59.614Z</time>
      </trkpt>
      <trkpt lat="48.83451" lon="2.31907">
        <ele>122.6</ele>
        <time>2015-02-16T20:56:00.645Z</time>
      </trkpt>
      <trkpt lat="48.83447" lon="2.31902">
        <ele>122.8</ele>
        <time>2015-02-16T20:56:01.701Z</time>
      </trkpt>
      <trkpt lat="48.83444" lon="2.31897">
        <ele>122.7</ele>
        <time>2015-02-16T20:56:02.588Z</time>
      </trkpt>
      <trkpt lat="48.8344" lon="2.31893">
        <ele>122.7</ele>
        <time>2015-02-16T20:56:03.595Z</time>
      </trkpt>
      <trkpt lat="48.83437" lon="2.31888">
        <ele>122.7</ele>
        <time>2015-02-16T20:56:04.601Z</time>
      </trkpt>
      <trkpt lat="48.83432" lon="2.31878">
        <ele>123.2</ele>
        <time>2015-02-16T20:56:06.646Z</time>
      </trkpt>
      <trkpt lat="48.83429" lon="2.31873">
        <ele>123.4</ele>
        <time>2015-02-16T20:56:07.657Z</time>
      </trkpt>
      <trkpt lat="48.83424" lon="2.31865">
        <ele>123.7</ele>
        <time>2015-02-16T20:56:09.586Z</time>
      </trkpt>
      <trkpt lat="48.83422" lon="2.31859">
        <ele>124.1</ele>
        <time>2015-02-16T20:56:10.593Z</time>
      </trkpt>
      <trkpt lat="48.83418" lon="2.31851">
        <ele>124.5</ele>
        <time>2015-02-16T20:56:12.611Z</time>
      </trkpt>
      <trkpt lat="48.83416" lon="2.31846">
        <ele>124.6</ele>
        <time>2015-02-16T20:56:13.665Z</time>
      </trkpt>
      <trkpt lat="48.83411" lon="2.31838">
        <ele>124.8</ele>
        <time>2015-02-16T20:56:15.617Z</time>
      </trkpt>
      <trkpt lat="48.83409" lon="2.31833">
        <ele>125.1</ele>
        <time>2015-02-16T20:56:16.698Z</time>
      </trkpt>
      <trkpt lat="48.83404" lon="2.31825">
        <ele>125.4</ele>
        <time>2015-02-16T20:56:18.590Z</time>
      </trkpt>
      <trkpt lat="48.83403" lon="2.31821">
        <ele>125.9</ele>
        <time>2015-02-16T20:56:19.635Z</time>
      </trkpt>
      <trkpt lat="48.83403" lon="2.31809">
        <ele>127.4</ele>
        <time>2015-02-16T20:56:22.562Z</time>
      </trkpt>
      <trkpt lat="48.83405" lon="2.31805">
        <ele>127.7</ele>
        <time>2015-02-16T20:56:23.614Z</time>
      </trkpt>
      <trkpt lat="48.8341" lon="2.31794">
        <ele>127.6</ele>
        <time>2015-02-16T20:56:26.683Z</time>
      </trkpt>
      <trkpt lat="48.83411" lon="2.31791">
        <ele>127.5</ele>
        <time>2015-02-16T20:56:27.699Z</time>
      </trkpt>
      <trkpt lat="48.83415" lon="2.31782">
        <ele>127.2</ele>
        <time>2015-02-16T20:56:29.604Z</time>
      </trkpt>
      <trkpt lat="48.83417" lon="2.31777">
        <ele>127.1</ele>
        <time>2015-02-16T20:56:30.588Z</time>
      </trkpt>
      <trkpt lat="48.8342" lon="2.31769">
        <ele>127</ele>
        <time>2015-02-16T20:56:32.653Z</time>
      </trkpt>
      <trkpt lat="48.83422" lon="2.31765">
        <ele>126.9</ele>
        <time>2015-02-16T20:56:33.670Z</time>
      </trkpt>
      <trkpt lat="48.83426" lon="2.31757">
        <ele>126.9</ele>
        <time>2015-02-16T20:56:35.582Z</time>
      </trkpt>
      <trkpt lat="48.83428" lon="2.31753">
        <ele>126.8</ele>
        <time>2015-02-16T20:56:36.685Z</time>
      </trkpt>
      <trkpt lat="48.83434" lon="2.31746">
        <ele>126.7</ele>
        <time>2015-02-16T20:56:38.603Z</time>
      </trkpt>
      <trkpt lat="48.83437" lon="2.31742">
        <ele>126.7</ele>
        <time>2015-02-16T20:56:39.629Z</time>
      </trkpt>
      <trkpt lat="48.83442" lon="2.31733">
        <ele>126.1</ele>
        <time>2015-02-16T20:56:41.672Z</time>
      </trkpt>
      <trkpt lat="48.83444" lon="2.31728">
        <ele>125.7</ele>
        <time>2015-02-16T20:56:42.673Z</time>
      </trkpt>
      <trkpt lat="48.83451" lon="2.3172">
        <ele>125.2</ele>
        <time>2015-02-16T20:56:44.723Z</time>
      </trkpt>
      <trkpt lat="48.83454" lon="2.31718">
        <ele>125</ele>
        <time>2015-02-16T20:56:45.571Z</time>
      </trkpt>
      <trkpt lat="48.83461" lon="2.31711">
        <ele>124.6</ele>
        <time>2015-02-16T20:56:47.682Z</time>
      </trkpt>
      <trkpt lat="48.83464" lon="2.31707">
        <ele>124.5</ele>
        <time>2015-02-16T20:56:48.601Z</time>
      </trkpt>
      <trkpt lat="48.8347" lon="2.31699">
        <ele>124.1</ele>
        <time>2015-02-16T20:56:50.656Z</time>
      </trkpt>
      <trkpt lat="48.83472" lon="2.31693">
        <ele>124.4</ele>
        <time>2015-02-16T20:56:51.744Z</time>
      </trkpt>
      <trkpt lat="48.83476" lon="2.31683">
        <ele>125.3</ele>
        <time>2015-02-16T20:56:53.598Z</time>
      </trkpt>
      <trkpt lat="48.83481" lon="2.31679">
        <ele>125.2</ele>
        <time>2015-02-16T20:56:54.661Z</time>
      </trkpt>
      <trkpt lat="48.83488" lon="2.31673">
        <ele>124.6</ele>
        <time>2015-02-16T20:56:56.596Z</time>
      </trkpt>
      <trkpt lat="48.83491" lon="2.3167">
        <ele>124.6</ele>
        <time>2015-02-16T20:56:57.652Z</time>
      </trkpt>
      <trkpt lat="48.83495" lon="2.31663">
        <ele>124.5</ele>
        <time>2015-02-16T20:56:59.624Z</time>
      </trkpt>
      <trkpt lat="48.83498" lon="2.31658">
        <ele>124.4</ele>
        <time>2015-02-16T20:57:00.646Z</time>
      </trkpt>
      <trkpt lat="48.83502" lon="2.3165">
        <ele>124.3</ele>
        <time>2015-02-16T20:57:02.570Z</time>
      </trkpt>
      <trkpt lat="48.83505" lon="2.31646">
        <ele>124.2</ele>
        <time>2015-02-16T20:57:03.588Z</time>
      </trkpt>
      <trkpt lat="48.83509" lon="2.31639">
        <ele>124.2</ele>
        <time>2015-02-16T20:57:05.558Z</time>
      </trkpt>
      <trkpt lat="48.83511" lon="2.31635">
        <ele>124</ele>
        <time>2015-02-16T20:57:06.635Z</time>
      </trkpt>
      <trkpt lat="48.83516" lon="2.31627">
        <ele>123.7</ele>
        <time>2015-02-16T20:57:08.630Z</time>
      </trkpt>
      <trkpt lat="48.83518" lon="2.31624">
        <ele>123.7</ele>
        <time>2015-02-16T20:57:09.634Z</time>
      </trkpt>
      <trkpt lat="48.83524" lon="2.31615">
        <ele>123.5</ele>
        <time>2015-02-16T20:57:12.570Z</time>
      </trkpt>
      <trkpt lat="48.83526" lon="2.31612">
        <ele>123.3</ele>
        <time>2015-02-16T20:57:12.655Z</time>
      </trkpt>
      <trkpt lat="48.8353" lon="2.31605">
        <ele>122.9</ele>
        <time>2015-02-16T20:57:14.592Z</time>
      </trkpt>
      <trkpt lat="48.83532" lon="2.31599">
        <ele>123.2</ele>
        <time>2015-02-16T20:57:15.630Z</time>
      </trkpt>
      <trkpt lat="48.83535" lon="2.31591">
        <ele>124</ele>
        <time>2015-02-16T20:57:17.631Z</time>
      </trkpt>
      <trkpt lat="48.83537" lon="2.31587">
        <ele>124.4</ele>
        <time>2015-02-16T20:57:18.639Z</time>
      </trkpt>
      <trkpt lat="48.83543" lon="2.31579">
        <ele>125.4</ele>
        <time>2015-02-16T20:57:20.662Z</time>
      </trkpt>
      <trkpt lat="48.83546" lon="2.31575">
        <ele>125.8</ele>
        <time>2015-02-16T20:57:21.680Z</time>
      </trkpt>
      <trkpt lat="48.83549" lon="2.31567">
        <ele>126.6</ele>
        <time>2015-02-16T20:57:23.596Z</time>
      </trkpt>
      <trkpt lat="48.83546" lon="2.31562">
        <ele>126.2</ele>
        <time>2015-02-16T20:57:24.605Z</time>
      </trkpt>
      <trkpt lat="48.83545" lon="2.3155">
        <ele>125.7</ele>
        <time>2015-02-16T20:57:28.645Z</time>
      </trkpt>
      <trkpt lat="48.83544" lon="2.31548">
        <ele>125.2</ele>
        <time>2015-02-16T20:57:29.653Z</time>
      </trkpt>
      <trkpt lat="48.83553" lon="2.31549">
        <ele>123.9</ele>
        <time>2015-02-16T20:57:34.591Z</time>
      </trkpt>
      <trkpt lat="48.83555" lon="2.31549">
        <ele>123.5</ele>
        <time>2015-02-16T20:57:35.665Z</time>
      </trkpt>
      <trkpt lat="48.83561" lon="2.31555">
        <ele>122.8</ele>
        <time>2015-02-16T20:57:38.639Z</time>
      </trkpt>
      <trkpt lat="48.83563" lon="2.31558">
        <ele>122.4</ele>
        <time>2015-02-16T20:57:39.650Z</time>
      </trkpt>
      <trkpt lat="48.83567" lon="2.31568">
        <ele>122</ele>
        <time>2015-02-16T20:57:42.623Z</time>
      </trkpt>
      <trkpt lat="48.83568" lon="2.31571">
        <ele>122.1</ele>
        <time>2015-02-16T20:57:43.667Z</time>
      </trkpt>
      <trkpt lat="48.83572" lon="2.31582">
        <ele>122.1</ele>
        <time>2015-02-16T20:57:47.611Z</time>
      </trkpt>
      <trkpt lat="48.83574" lon="2.31585">
        <ele>122.1</ele>
        <time>2015-02-16T20:57:48.650Z</time>
      </trkpt>
      <trkpt lat="48.83578" lon="2.31595">
        <ele>121.6</ele>
        <time>2015-02-16T20:57:51.600Z</time>
      </trkpt>
      <trkpt lat="48.8358" lon="2.31599">
        <ele>121.4</ele>
        <time>2015-02-16T20:57:52.605Z</time>
      </trkpt>
      <trkpt lat="48.83585" lon="2.3161">
        <ele>121</ele>
        <time>2015-02-16T20:57:55.870Z</time>
      </trkpt>
      <trkpt lat="48.83586" lon="2.31613">
        <ele>120.8</ele>
        <time>2015-02-16T20:57:56.611Z</time>
      </trkpt>
      <trkpt lat="48.8359" lon="2.31623">
        <ele>120.6</ele>
        <time>2015-02-16T20:57:59.632Z</time>
      </trkpt>
      <trkpt lat="48.83592" lon="2.31626">
        <ele>120.5</ele>
        <time>2015-02-16T20:58:00.650Z</time>
      </trkpt>
      <trkpt lat="48.83596" lon="2.31635">
        <ele>120.3</ele>
        <time>2015-02-16T20:58:03.599Z</time>
      </trkpt>
      <trkpt lat="48.83597" lon="2.31639">
        <ele>120</ele>
        <time>2015-02-16T20:58:04.603Z</time>
      </trkpt>
      <trkpt lat="48.836" lon="2.31652">
        <ele>119.6</ele>
        <time>2015-02-16T20:58:08.637Z</time>
      </trkpt>
      <trkpt lat="48.83602" lon="2.31655">
        <ele>119.5</ele>
        <time>2015-02-16T20:58:09.676Z</time>
      </trkpt>
      <trkpt lat="48.83606" lon="2.31664">
        <ele>119.2</ele>
        <time>2015-02-16T20:58:11.600Z</time>
      </trkpt>
      <trkpt lat="48.83608" lon="2.31668">
        <ele>118.9</ele>
        <time>2015-02-16T20:58:12.847Z</time>
      </trkpt>
      <trkpt lat="48.83613" lon="2.31676">
        <ele>119.1</ele>
        <time>2015-02-16T20:58:14.679Z</time>
      </trkpt>
      <trkpt lat="48.83614" lon="2.3168">
        <ele>119.4</ele>
        <time>2015-02-16T20:58:15.594Z</time>
      </trkpt>
      <trkpt lat="48.83618" lon="2.3169">
        <ele>119.7</ele>
        <time>2015-02-16T20:58:18.613Z</time>
      </trkpt>
      <trkpt lat="48.8362" lon="2.31694">
        <ele>119.6</ele>
        <time>2015-02-16T20:58:19.599Z</time>
      </trkpt>
      <trkpt lat="48.83622" lon="2.31705">
        <ele>119.2</ele>
        <time>2015-02-16T20:58:22.630Z</time>
      </trkpt>
      <trkpt lat="48.83624" lon="2.31708">
        <ele>119.4</ele>
        <time>2015-02-16T20:58:23.644Z</time>
      </trkpt>
      <trkpt lat="48.8363" lon="2.31715">
        <ele>119.8</ele>
        <time>2015-02-16T20:58:25.660Z</time>
      </trkpt>
      <trkpt lat="48.83634" lon="2.3172">
        <ele>120.5</ele>
        <time>2015-02-16T20:58:26.675Z</time>
      </trkpt>
      <trkpt lat="48.83638" lon="2.31727">
        <ele>121</ele>
        <time>2015-02-16T20:58:28.909Z</time>
      </trkpt>
      <trkpt lat="48.83639" lon="2.3173">
        <ele>120.7</ele>
        <time>2015-02-16T20:58:29.634Z</time>
      </trkpt>
      <trkpt lat="48.83643" lon="2.3174">
        <ele>120.4</ele>
        <time>2015-02-16T20:58:32.695Z</time>
      </trkpt>
      <trkpt lat="48.83643" lon="2.31744">
        <ele>120.5</ele>
        <time>2015-02-16T20:58:33.552Z</time>
      </trkpt>
      <trkpt lat="48.83648" lon="2.31754">
        <ele>120.4</ele>
        <time>2015-02-16T20:58:37.611Z</time>
      </trkpt>
      <trkpt lat="48.8365" lon="2.31756">
        <ele>120.4</ele>
        <time>2015-02-16T20:58:38.781Z</time>
      </trkpt>
      <trkpt lat="48.83655" lon="2.31765">
        <ele>120.2</ele>
        <time>2015-02-16T20:58:42.661Z</time>
      </trkpt>
      <trkpt lat="48.83656" lon="2.31769">
        <ele>120.2</ele>
        <time>2015-02-16T20:58:43.673Z</time>
      </trkpt>
      <trkpt lat="48.83659" lon="2.31775">
        <ele>120</ele>
        <time>2015-02-16T20:58:45.703Z</time>
      </trkpt>
      <trkpt lat="48.83664" lon="2.31777">
        <ele>118.5</ele>
        <time>2015-02-16T20:58:46.650Z</time>
      </trkpt>
      <trkpt lat="48.83669" lon="2.31785">
        <ele>118.4</ele>
        <time>2015-02-16T20:58:50.715Z</time>
      </trkpt>
      <trkpt lat="48.83671" lon="2.31786">
        <ele>118.3</ele>
        <time>2015-02-16T20:58:51.611Z</time>
      </trkpt>
      <trkpt lat="48.83678" lon="2.31788">
        <ele>116.6</ele>
        <time>2015-02-16T20:58:57.586Z</time>
      </trkpt>
      <trkpt lat="48.8368" lon="2.31789">
        <ele>116</ele>
        <time>2015-02-16T20:58:58.681Z</time>
      </trkpt>
      <trkpt lat="48.83687" lon="2.31796">
        <ele>114.6</ele>
        <time>2015-02-16T20:59:02.578Z</time>
      </trkpt>
      <trkpt lat="48.83687" lon="2.31803">
        <ele>114.6</ele>
        <time>2015-02-16T20:59:03.575Z</time>
      </trkpt>
      <trkpt lat="48.83688" lon="2.31813">
        <ele>114.6</ele>
        <time>2015-02-16T20:59:06.332Z</time>
      </trkpt>
      <trkpt lat="48.83689" lon="2.31818">
        <ele>114.4</ele>
        <time>2015-02-16T20:59:06.562Z</time>
      </trkpt>
      <trkpt lat="48.83689" lon="2.31828">
        <ele>114.4</ele>
        <time>2015-02-16T20:59:08.635Z</time>
      </trkpt>
      <trkpt lat="48.8369" lon="2.31834">
        <ele>114.4</ele>
        <time>2015-02-16T20:59:09.641Z</time>
      </trkpt>
      <trkpt lat="48.83694" lon="2.31844">
        <ele>114.4</ele>
        <time>2015-02-16T20:59:12.227Z</time>
      </trkpt>
      <trkpt lat="48.83697" lon="2.3185">
        <ele>114.1</ele>
        <time>2015-02-16T20:59:12.597Z</time>
      </trkpt>
      <trkpt lat="48.837" lon="2.31855">
        <ele>114.1</ele>
        <time>2015-02-16T20:59:13.613Z</time>
      </trkpt>
      <trkpt lat="48.83703" lon="2.3186">
        <ele>114</ele>
        <time>2015-02-16T20:59:14.659Z</time>
      </trkpt>
      <trkpt lat="48.83711" lon="2.31868">
        <ele>113.8</ele>
        <time>2015-02-16T20:59:17.272Z</time>
      </trkpt>
      <trkpt lat="48.83714" lon="2.3187">
        <ele>113.8</ele>
        <time>2015-02-16T20:59:17.569Z</time>
      </trkpt>
      <trkpt lat="48.83719" lon="2.31871">
        <ele>114.3</ele>
        <time>2015-02-16T20:59:18.591Z</time>
      </trkpt>
      <trkpt lat="48.83724" lon="2.31871">
        <ele>114.3</ele>
        <time>2015-02-16T20:59:19.602Z</time>
      </trkpt>
      <trkpt lat="48.83729" lon="2.31872">
        <ele>114.6</ele>
        <time>2015-02-16T20:59:20.683Z</time>
      </trkpt>
      <trkpt lat="48.83735" lon="2.3187">
        <ele>116</ele>
        <time>2015-02-16T20:59:21.689Z</time>
      </trkpt>
      <trkpt lat="48.83743" lon="2.31865">
        <ele>115.7</ele>
        <time>2015-02-16T20:59:23.585Z</time>
      </trkpt>
      <trkpt lat="48.83745" lon="2.31861">
        <ele>115.2</ele>
        <time>2015-02-16T20:59:24.609Z</time>
      </trkpt>
      <trkpt lat="48.8375" lon="2.31852">
        <ele>114.9</ele>
        <time>2015-02-16T20:59:27.561Z</time>
      </trkpt>
      <trkpt lat="48.83753" lon="2.31847">
        <ele>115.7</ele>
        <time>2015-02-16T20:59:27.593Z</time>
      </trkpt>
      <trkpt lat="48.83757" lon="2.31835">
        <ele>115.7</ele>
        <time>2015-02-16T20:59:30.632Z</time>
      </trkpt>
      <trkpt lat="48.83759" lon="2.3183">
        <ele>116</ele>
        <time>2015-02-16T20:59:30.964Z</time>
      </trkpt>
      <trkpt lat="48.83762" lon="2.31824">
        <ele>116.7</ele>
        <time>2015-02-16T20:59:31.678Z</time>
      </trkpt>
      <trkpt lat="48.83766" lon="2.31818">
        <ele>117.7</ele>
        <time>2015-02-16T20:59:32.568Z</time>
      </trkpt>
      <trkpt lat="48.83769" lon="2.31811">
        <ele>118.8</ele>
        <time>2015-02-16T20:59:33.632Z</time>
      </trkpt>
      <trkpt lat="48.83772" lon="2.31804">
        <ele>120.1</ele>
        <time>2015-02-16T20:59:34.595Z</time>
      </trkpt>
      <trkpt lat="48.83776" lon="2.31797">
        <ele>122</ele>
        <time>2015-02-16T20:59:35.864Z</time>
      </trkpt>
      <trkpt lat="48.8378" lon="2.3179">
        <ele>123.8</ele>
        <time>2015-02-16T20:59:36.698Z</time>
      </trkpt>
      <trkpt lat="48.83782" lon="2.31784">
        <ele>124.4</ele>
        <time>2015-02-16T20:59:37.788Z</time>
      </trkpt>
      <trkpt lat="48.83784" lon="2.31778">
        <ele>124.7</ele>
        <time>2015-02-16T20:59:38.634Z</time>
      </trkpt>
      <trkpt lat="48.83789" lon="2.31769">
        <ele>125.5</ele>
        <time>2015-02-16T20:59:40.620Z</time>
      </trkpt>
      <trkpt lat="48.83792" lon="2.31766">
        <ele>126</ele>
        <time>2015-02-16T20:59:41.679Z</time>
      </trkpt>
      <trkpt lat="48.83799" lon="2.31764">
        <ele>127.3</ele>
        <time>2015-02-16T20:59:43.669Z</time>
      </trkpt>
      <trkpt lat="48.83802" lon="2.31761">
        <ele>127.8</ele>
        <time>2015-02-16T20:59:44.619Z</time>
      </trkpt>
      <trkpt lat="48.8381" lon="2.31758">
        <ele>128.8</ele>
        <time>2015-02-16T20:59:48.635Z</time>
      </trkpt>
      <trkpt lat="48.83813" lon="2.31758">
        <ele>129.1</ele>
        <time>2015-02-16T20:59:49.663Z</time>
      </trkpt>
      <trkpt lat="48.8382" lon="2.3175">
        <ele>130.1</ele>
        <time>2015-02-16T20:59:53.602Z</time>
      </trkpt>
      <trkpt lat="48.83822" lon="2.31747">
        <ele>130.5</ele>
        <time>2015-02-16T20:59:54.613Z</time>
      </trkpt>
      <trkpt lat="48.83828" lon="2.31739">
        <ele>131.8</ele>
        <time>2015-02-16T20:59:56.644Z</time>
      </trkpt>
      <trkpt lat="48.83831" lon="2.31736">
        <ele>132.3</ele>
        <time>2015-02-16T20:59:57.718Z</time>
      </trkpt>
      <trkpt lat="48.83835" lon="2.31732">
        <ele>133</ele>
        <time>2015-02-16T20:59:58.601Z</time>
      </trkpt>
      <trkpt lat="48.83839" lon="2.31729">
        <ele>133.9</ele>
        <time>2015-02-16T20:59:59.625Z</time>
      </trkpt>
      <trkpt lat="48.83845" lon="2.31721">
        <ele>135.8</ele>
        <time>2015-02-16T21:00:02.790Z</time>
      </trkpt>
      <trkpt lat="48.83848" lon="2.31717">
        <ele>137.2</ele>
        <time>2015-02-16T21:00:02.817Z</time>
      </trkpt>
      <trkpt lat="48.83854" lon="2.31711">
        <ele>139.7</ele>
        <time>2015-02-16T21:00:04.589Z</time>
      </trkpt>
      <trkpt lat="48.83857" lon="2.31707">
        <ele>140.7</ele>
        <time>2015-02-16T21:00:05.753Z</time>
      </trkpt>
      <trkpt lat="48.83861" lon="2.31699">
        <ele>143.4</ele>
        <time>2015-02-16T21:00:07.617Z</time>
      </trkpt>
      <trkpt lat="48.83863" lon="2.31693">
        <ele>144.8</ele>
        <time>2015-02-16T21:00:08.630Z</time>
      </trkpt>
      <trkpt lat="48.83867" lon="2.31685">
        <ele>146.3</ele>
        <time>2015-02-16T21:00:11.604Z</time>
      </trkpt>
      <trkpt lat="48.83868" lon="2.31682">
        <ele>146.5</ele>
        <time>2015-02-16T21:00:12.624Z</time>
      </trkpt>
      <trkpt lat="48.83875" lon="2.31677">
        <ele>146.6</ele>
        <time>2015-02-16T21:00:16.261Z</time>
      </trkpt>
      <trkpt lat="48.83877" lon="2.31675">
        <ele>146.6</ele>
        <time>2015-02-16T21:00:16.608Z</time>
      </trkpt>
      <trkpt lat="48.83882" lon="2.31665">
        <ele>146.6</ele>
        <time>2015-02-16T21:00:21.450Z</time>
      </trkpt>
      <trkpt lat="48.83884" lon="2.31663">
        <ele>146.7</ele>
        <time>2015-02-16T21:00:21.573Z</time>
      </trkpt>
      <trkpt lat="48.8389" lon="2.31657">
        <ele>147.3</ele>
        <time>2015-02-16T21:00:23.633Z</time>
      </trkpt>
      <trkpt lat="48.83893" lon="2.31654">
        <ele>147.7</ele>
        <time>2015-02-16T21:00:24.611Z</time>
      </trkpt>
      <trkpt lat="48.83899" lon="2.3165">
        <ele>148.4</ele>
        <time>2015-02-16T21:00:26.670Z</time>
      </trkpt>
      <trkpt lat="48.83902" lon="2.31648">
        <ele>148.5</ele>
        <time>2015-02-16T21:00:27.676Z</time>
      </trkpt>
      <trkpt lat="48.83906" lon="2.3164">
        <ele>148.5</ele>
        <time>2015-02-16T21:00:30.665Z</time>
      </trkpt>
      <trkpt lat="48.83908" lon="2.31637">
        <ele>148.5</ele>
        <time>2015-02-16T21:00:31.656Z</time>
      </trkpt>
      <trkpt lat="48.83914" lon="2.3163">
        <ele>148.8</ele>
        <time>2015-02-16T21:00:35.863Z</time>
      </trkpt>
      <trkpt lat="48.83917" lon="2.31629">
        <ele>148.7</ele>
        <time>2015-02-16T21:00:35.950Z</time>
      </trkpt>
      <trkpt lat="48.83922" lon="2.31625">
        <ele>148.3</ele>
        <time>2015-02-16T21:00:37.630Z</time>
      </trkpt>
      <trkpt lat="48.83925" lon="2.31622">
        <ele>148.2</ele>
        <time>2015-02-16T21:00:38.665Z</time>
      </trkpt>
      <trkpt lat="48.83932" lon="2.31616">
        <ele>147.9</ele>
        <time>2015-02-16T21:00:40.614Z</time>
      </trkpt>
      <trkpt lat="48.83935" lon="2.31612">
        <ele>147.8</ele>
        <time>2015-02-16T21:00:41.702Z</time>
      </trkpt>
      <trkpt lat="48.83939" lon="2.31608">
        <ele>147.7</ele>
        <time>2015-02-16T21:00:42.637Z</time>
      </trkpt>
      <trkpt lat="48.83943" lon="2.31603">
        <ele>147.7</ele>
        <time>2015-02-16T21:00:43.628Z</time>
      </trkpt>
      <trkpt lat="48.83947" lon="2.31597">
        <ele>147.7</ele>
        <time>2015-02-16T21:00:44.698Z</time>
      </trkpt>
      <trkpt lat="48.8395" lon="2.3159">
        <ele>148</ele>
        <time>2015-02-16T21:00:45.894Z</time>
      </trkpt>
      <trkpt lat="48.83953" lon="2.31582">
        <ele>148.2</ele>
        <time>2015-02-16T21:00:46.612Z</time>
      </trkpt>
      <trkpt lat="48.83957" lon="2.31575">
        <ele>148.3</ele>
        <time>2015-02-16T21:00:47.579Z</time>
      </trkpt>
      <trkpt lat="48.83962" lon="2.3157">
        <ele>148.4</ele>
        <time>2015-02-16T21:00:48.586Z</time>
      </trkpt>
      <trkpt lat="48.83966" lon="2.31564">
        <ele>148.5</ele>
        <time>2015-02-16T21:00:49.614Z</time>
      </trkpt>
      <trkpt lat="48.8397" lon="2.31558">
        <ele>148.4</ele>
        <time>2015-02-16T21:00:50.641Z</time>
      </trkpt>
      <trkpt lat="48.83975" lon="2.31553">
        <ele>148.3</ele>
        <time>2015-02-16T21:00:51.667Z</time>
      </trkpt>
      <trkpt lat="48.8398" lon="2.31548">
        <ele>148.3</ele>
        <time>2015-02-16T21:00:52.691Z</time>
      </trkpt>
      <trkpt lat="48.83986" lon="2.31544">
        <ele>148.4</ele>
        <time>2015-02-16T21:00:53.603Z</time>
      </trkpt>
      <trkpt lat="48.8399" lon="2.3154">
        <ele>148.3</ele>
        <time>2015-02-16T21:00:54.650Z</time>
      </trkpt>
      <trkpt lat="48.83995" lon="2.31536">
        <ele>148.3</ele>
        <time>2015-02-16T21:00:55.660Z</time>
      </trkpt>
      <trkpt lat="48.84" lon="2.31532">
        <ele>148.3</ele>
        <time>2015-02-16T21:00:56.674Z</time>
      </trkpt>
      <trkpt lat="48.84005" lon="2.31528">
        <ele>148.4</ele>
        <time>2015-02-16T21:00:57.572Z</time>
      </trkpt>
      <trkpt lat="48.8401" lon="2.31524">
        <ele>148.4</ele>
        <time>2015-02-16T21:00:58.577Z</time>
      </trkpt>
      <trkpt lat="48.84015" lon="2.3152">
        <ele>148.4</ele>
        <time>2015-02-16T21:00:59.630Z</time>
      </trkpt>
      <trkpt lat="48.84019" lon="2.31515">
        <ele>148.3</ele>
        <time>2015-02-16T21:01:00.689Z</time>
      </trkpt>
      <trkpt lat="48.84023" lon="2.31509">
        <ele>148.4</ele>
        <time>2015-02-16T21:01:01.629Z</time>
      </trkpt>
      <trkpt lat="48.84026" lon="2.31503">
        <ele>148.9</ele>
        <time>2015-02-16T21:01:02.631Z</time>
      </trkpt>
      <trkpt lat="48.84029" lon="2.31497">
        <ele>149.1</ele>
        <time>2015-02-16T21:01:03.656Z</time>
      </trkpt>
      <trkpt lat="48.84034" lon="2.31492">
        <ele>149.1</ele>
        <time>2015-02-16T21:01:05.595Z</time>
      </trkpt>
      <trkpt lat="48.84037" lon="2.3149">
        <ele>149.1</ele>
        <time>2015-02-16T21:01:06.649Z</time>
      </trkpt>
      <trkpt lat="48.84045" lon="2.31488">
        <ele>148.7</ele>
        <time>2015-02-16T21:01:09.603Z</time>
      </trkpt>
      <trkpt lat="48.84048" lon="2.31488">
        <ele>148.3</ele>
        <time>2015-02-16T21:01:10.647Z</time>
      </trkpt>
      <trkpt lat="48.84056" lon="2.31484">
        <ele>147.7</ele>
        <time>2015-02-16T21:01:13.641Z</time>
      </trkpt>
      <trkpt lat="48.84059" lon="2.31483">
        <ele>147.7</ele>
        <time>2015-02-16T21:01:14.719Z</time>
      </trkpt>
      <trkpt lat="48.84066" lon="2.31488">
        <ele>142.2</ele>
        <time>2015-02-16T21:01:21.610Z</time>
      </trkpt>
      <trkpt lat="48.84068" lon="2.31486">
        <ele>141.9</ele>
        <time>2015-02-16T21:01:22.618Z</time>
      </trkpt>
      <trkpt lat="48.84074" lon="2.31476">
        <ele>141.8</ele>
        <time>2015-02-16T21:01:25.631Z</time>
      </trkpt>
      <trkpt lat="48.84076" lon="2.31474">
        <ele>141.7</ele>
        <time>2015-02-16T21:01:26.633Z</time>
      </trkpt>
      <trkpt lat="48.84083" lon="2.31466">
        <ele>141.1</ele>
        <time>2015-02-16T21:01:29.669Z</time>
      </trkpt>
      <trkpt lat="48.84086" lon="2.31464">
        <ele>140.9</ele>
        <time>2015-02-16T21:01:30.589Z</time>
      </trkpt>
      <trkpt lat="48.84092" lon="2.31459">
        <ele>140</ele>
        <time>2015-02-16T21:01:32.590Z</time>
      </trkpt>
      <trkpt lat="48.84095" lon="2.31456">
        <ele>139.8</ele>
        <time>2015-02-16T21:01:33.595Z</time>
      </trkpt>
      <trkpt lat="48.84101" lon="2.31451">
        <ele>139.2</ele>
        <time>2015-02-16T21:01:35.656Z</time>
      </trkpt>
      <trkpt lat="48.84104" lon="2.31448">
        <ele>139.1</ele>
        <time>2015-02-16T21:01:36.596Z</time>
      </trkpt>
      <trkpt lat="48.8411" lon="2.31456">
        <ele>137.7</ele>
        <time>2015-02-16T21:01:40.591Z</time>
      </trkpt>
      <trkpt lat="48.84111" lon="2.31461">
        <ele>136.9</ele>
        <time>2015-02-16T21:01:41.587Z</time>
      </trkpt>
      <trkpt lat="48.84111" lon="2.31471">
        <ele>135.3</ele>
        <time>2015-02-16T21:01:43.711Z</time>
      </trkpt>
      <trkpt lat="48.84111" lon="2.31476">
        <ele>135</ele>
        <time>2015-02-16T21:01:44.593Z</time>
      </trkpt>
      <trkpt lat="48.8411" lon="2.31488">
        <ele>134.4</ele>
        <time>2015-02-16T21:01:46.644Z</time>
      </trkpt>
      <trkpt lat="48.84111" lon="2.31493">
        <ele>134</ele>
        <time>2015-02-16T21:01:47.593Z</time>
      </trkpt>
      <trkpt lat="48.8411" lon="2.31502">
        <ele>133.4</ele>
        <time>2015-02-16T21:01:49.611Z</time>
      </trkpt>
      <trkpt lat="48.8411" lon="2.31508">
        <ele>133</ele>
        <time>2015-02-16T21:01:50.688Z</time>
      </trkpt>
      <trkpt lat="48.8411" lon="2.31518">
        <ele>132.4</ele>
        <time>2015-02-16T21:01:52.630Z</time>
      </trkpt>
      <trkpt lat="48.8411" lon="2.31523">
        <ele>132.3</ele>
        <time>2015-02-16T21:01:53.592Z</time>
      </trkpt>
      <trkpt lat="48.84109" lon="2.31533">
        <ele>132.3</ele>
        <time>2015-02-16T21:01:55.627Z</time>
      </trkpt>
      <trkpt lat="48.8411" lon="2.31537">
        <ele>132.5</ele>
        <time>2015-02-16T21:01:56.680Z</time>
      </trkpt>
      <trkpt lat="48.84116" lon="2.31544">
        <ele>132.9</ele>
        <time>2015-02-16T21:02:00.593Z</time>
      </trkpt>
      <trkpt lat="48.84121" lon="2.31543">
        <ele>132.1</ele>
        <time>2015-02-16T21:02:01.618Z</time>
      </trkpt>
      <trkpt lat="48.84126" lon="2.31543">
        <ele>131.5</ele>
        <time>2015-02-16T21:02:02.640Z</time>
      </trkpt>
      <trkpt lat="48.84132" lon="2.31542">
        <ele>130.7</ele>
        <time>2015-02-16T21:02:03.546Z</time>
      </trkpt>
      <trkpt lat="48.84138" lon="2.3154">
        <ele>130.1</ele>
        <time>2015-02-16T21:02:05.623Z</time>
      </trkpt>
      <trkpt lat="48.84142" lon="2.31538">
        <ele>129.8</ele>
        <time>2015-02-16T21:02:06.614Z</time>
      </trkpt>
      <trkpt lat="48.84149" lon="2.31535">
        <ele>129.3</ele>
        <time>2015-02-16T21:02:08.596Z</time>
      </trkpt>
      <trkpt lat="48.84153" lon="2.31533">
        <ele>129.1</ele>
        <time>2015-02-16T21:02:09.631Z</time>
      </trkpt>
      <trkpt lat="48.8416" lon="2.31526">
        <ele>128.1</ele>
        <time>2015-02-16T21:02:11.635Z</time>
      </trkpt>
      <trkpt lat="48.84164" lon="2.3152">
        <ele>127.1</ele>
        <time>2015-02-16T21:02:12.590Z</time>
      </trkpt>
      <trkpt lat="48.84169" lon="2.31515">
        <ele>126.4</ele>
        <time>2015-02-16T21:02:13.638Z</time>
      </trkpt>
      <trkpt lat="48.84173" lon="2.31511">
        <ele>125.7</ele>
        <time>2015-02-16T21:02:14.571Z</time>
      </trkpt>
      <trkpt lat="48.84179" lon="2.31504">
        <ele>125.2</ele>
        <time>2015-02-16T21:02:16.580Z</time>
      </trkpt>
      <trkpt lat="48.84181" lon="2.31501">
        <ele>125.2</ele>
        <time>2015-02-16T21:02:17.598Z</time>
      </trkpt>
      <trkpt lat="48.84186" lon="2.31491">
        <ele>125.2</ele>
        <time>2015-02-16T21:02:24.642Z</time>
      </trkpt>
      <trkpt lat="48.84187" lon="2.3149">
        <ele>125.1</ele>
        <time>2015-02-16T21:02:25.686Z</time>
      </trkpt>
      <trkpt lat="48.84195" lon="2.31487">
        <ele>120.2</ele>
        <time>2015-02-16T21:02:51.604Z</time>
      </trkpt>
      <trkpt lat="48.84196" lon="2.31488">
        <ele>120</ele>
        <time>2015-02-16T21:02:52.608Z</time>
      </trkpt>
      <trkpt lat="48.84195" lon="2.31492">
        <ele>119.7</ele>
        <time>2015-02-16T21:03:02.627Z</time>
      </trkpt>
      <trkpt lat="48.84196" lon="2.31492">
        <ele>119.7</ele>
        <time>2015-02-16T21:03:03.565Z</time>
      </trkpt>
      <trkpt lat="48.84196" lon="2.31492">
        <ele>119.7</ele>
        <time>2015-02-16T21:03:09.588Z</time>
      </trkpt>
      <trkpt lat="48.84198" lon="2.31492">
        <ele>120.2</ele>
        <time>2015-02-16T21:03:10.613Z</time>
      </trkpt>
      <trkpt lat="48.84205" lon="2.31494">
        <ele>120.3</ele>
        <time>2015-02-16T21:03:14.593Z</time>
      </trkpt>
      <trkpt lat="48.84207" lon="2.31495">
        <ele>120.2</ele>
        <time>2015-02-16T21:03:15.656Z</time>
      </trkpt>
      <trkpt lat="48.84214" lon="2.31499">
        <ele>120.2</ele>
        <time>2015-02-16T21:03:18.567Z</time>
      </trkpt>
      <trkpt lat="48.84217" lon="2.315">
        <ele>120.2</ele>
        <time>2015-02-16T21:03:19.622Z</time>
      </trkpt>
      <trkpt lat="48.84221" lon="2.31502">
        <ele>120.1</ele>
        <time>2015-02-16T21:03:21.556Z</time>
      </trkpt>
      <trkpt lat="48.84228" lon="2.31505">
        <ele>119.9</ele>
        <time>2015-02-16T21:03:24.589Z</time>
      </trkpt>
      <trkpt lat="48.84235" lon="2.315">
        <ele>119.5</ele>
        <time>2015-02-16T21:03:28.603Z</time>
      </trkpt>
      <trkpt lat="48.84237" lon="2.31497">
        <ele>119.4</ele>
        <time>2015-02-16T21:03:29.591Z</time>
      </trkpt>
      <trkpt lat="48.84244" lon="2.3149">
        <ele>119.1</ele>
        <time>2015-02-16T21:03:33.569Z</time>
      </trkpt>
      <trkpt lat="48.84245" lon="2.31488">
        <ele>119.2</ele>
        <time>2015-02-16T21:03:34.585Z</time>
      </trkpt>
      <trkpt lat="48.84251" lon="2.31477">
        <ele>117.6</ele>
        <time>2015-02-16T21:03:40.606Z</time>
      </trkpt>
      <trkpt lat="48.84251" lon="2.31475">
        <ele>117.1</ele>
        <time>2015-02-16T21:03:41.599Z</time>
      </trkpt>
      <trkpt lat="48.84251" lon="2.31474">
        <ele>117</ele>
        <time>2015-02-16T21:03:54.591Z</time>
      </trkpt>
      <trkpt lat="48.84249" lon="2.31452">
        <ele>114.9</ele>
        <time>2015-02-16T21:03:55.622Z</time>
      </trkpt>
      <trkpt lat="48.84251" lon="2.31451">
        <ele>114.6</ele>
        <time>2015-02-16T21:03:59.591Z</time>
      </trkpt>
      <trkpt lat="48.84252" lon="2.31451">
        <ele>114.6</ele>
        <time>2015-02-16T21:04:00.629Z</time>
      </trkpt>
      <trkpt lat="48.84254" lon="2.3145">
        <ele>114.3</ele>
        <time>2015-02-16T21:04:11.590Z</time>
      </trkpt>
      <trkpt lat="48.84258" lon="2.31446">
        <ele>113.7</ele>
        <time>2015-02-16T21:04:12.550Z</time>
      </trkpt>
      <trkpt lat="48.84266" lon="2.31442">
        <ele>113.5</ele>
        <time>2015-02-16T21:04:20.637Z</time>
      </trkpt>
      <trkpt lat="48.84272" lon="2.31437">
        <ele>113.2</ele>
        <time>2015-02-16T21:04:23.582Z</time>
      </trkpt>
      <trkpt lat="48.84275" lon="2.31436">
        <ele>113.2</ele>
        <time>2015-02-16T21:04:24.564Z</time>
      </trkpt>
      <trkpt lat="48.84286" lon="2.31429">
        <ele>113.5</ele>
        <time>2015-02-16T21:04:27.617Z</time>
      </trkpt>
      <trkpt lat="48.84293" lon="2.31425">
        <ele>114</ele>
        <time>2015-02-16T21:04:29.571Z</time>
      </trkpt>
      <trkpt lat="48.84296" lon="2.31423">
        <ele>114.2</ele>
        <time>2015-02-16T21:04:30.578Z</time>
      </trkpt>
      <trkpt lat="48.84301" lon="2.31421">
        <ele>114.4</ele>
        <time>2015-02-16T21:04:31.593Z</time>
      </trkpt>
      <trkpt lat="48.84305" lon="2.3142">
        <ele>114.7</ele>
        <time>2015-02-16T21:04:32.611Z</time>
      </trkpt>
      <trkpt lat="48.84313" lon="2.31416">
        <ele>115.1</ele>
        <time>2015-02-16T21:04:34.538Z</time>
      </trkpt>
      <trkpt lat="48.84316" lon="2.31414">
        <ele>115.2</ele>
        <time>2015-02-16T21:04:35.620Z</time>
      </trkpt>
      <trkpt lat="48.84322" lon="2.3141">
        <ele>115.4</ele>
        <time>2015-02-16T21:04:37.581Z</time>
      </trkpt>
      <trkpt lat="48.84325" lon="2.31405">
        <ele>115.7</ele>
        <time>2015-02-16T21:04:38.621Z</time>
      </trkpt>
      <trkpt lat="48.84331" lon="2.31414">
        <ele>114.2</ele>
        <time>2015-02-16T21:04:41.547Z</time>
      </trkpt>
      <trkpt lat="48.84333" lon="2.31417">
        <ele>113.3</ele>
        <time>2015-02-16T21:04:42.613Z</time>
      </trkpt>
      <trkpt lat="48.84335" lon="2.3143">
        <ele>112.2</ele>
        <time>2015-02-16T21:04:44.543Z</time>
      </trkpt>
      <trkpt lat="48.84335" lon="2.31436">
        <ele>111.6</ele>
        <time>2015-02-16T21:04:45.613Z</time>
      </trkpt>
      <trkpt lat="48.84336" lon="2.31446">
        <ele>110.7</ele>
        <time>2015-02-16T21:04:47.658Z</time>
      </trkpt>
      <trkpt lat="48.84337" lon="2.31452">
        <ele>110.4</ele>
        <time>2015-02-16T21:04:48.860Z</time>
      </trkpt>
      <trkpt lat="48.84336" lon="2.31465">
        <ele>109.7</ele>
        <time>2015-02-16T21:04:50.602Z</time>
      </trkpt>
      <trkpt lat="48.84334" lon="2.31473">
        <ele>109.4</ele>
        <time>2015-02-16T21:04:51.651Z</time>
      </trkpt>
      <trkpt lat="48.84333" lon="2.31481">
        <ele>109</ele>
        <time>2015-02-16T21:04:52.562Z</time>
      </trkpt>
      <trkpt lat="48.84332" lon="2.31488">
        <ele>108.6</ele>
        <time>2015-02-16T21:04:53.582Z</time>
      </trkpt>
      <trkpt lat="48.84331" lon="2.31497">
        <ele>108.3</ele>
        <time>2015-02-16T21:04:54.595Z</time>
      </trkpt>
      <trkpt lat="48.8433" lon="2.31505">
        <ele>107.9</ele>
        <time>2015-02-16T21:04:55.733Z</time>
      </trkpt>
      <trkpt lat="48.8433" lon="2.31513">
        <ele>107.5</ele>
        <time>2015-02-16T21:04:56.654Z</time>
      </trkpt>
      <trkpt lat="48.8433" lon="2.31522">
        <ele>107.1</ele>
        <time>2015-02-16T21:04:57.664Z</time>
      </trkpt>
      <trkpt lat="48.8433" lon="2.3153">
        <ele>106.7</ele>
        <time>2015-02-16T21:04:58.672Z</time>
      </trkpt>
      <trkpt lat="48.84331" lon="2.31538">
        <ele>106.4</ele>
        <time>2015-02-16T21:04:59.573Z</time>
      </trkpt>
      <trkpt lat="48.84334" lon="2.31546">
        <ele>106</ele>
        <time>2015-02-16T21:05:00.581Z</time>
      </trkpt>
      <trkpt lat="48.84337" lon="2.31553">
        <ele>105.6</ele>
        <time>2015-02-16T21:05:01.653Z</time>
      </trkpt>
      <trkpt lat="48.84341" lon="2.31559">
        <ele>105.2</ele>
        <time>2015-02-16T21:05:02.586Z</time>
      </trkpt>
      <trkpt lat="48.84345" lon="2.31566">
        <ele>104.4</ele>
        <time>2015-02-16T21:05:03.586Z</time>
      </trkpt>
      <trkpt lat="48.84348" lon="2.31572">
        <ele>103.7</ele>
        <time>2015-02-16T21:05:04.639Z</time>
      </trkpt>
      <trkpt lat="48.84353" lon="2.31578">
        <ele>103.4</ele>
        <time>2015-02-16T21:05:05.651Z</time>
      </trkpt>
      <trkpt lat="48.84359" lon="2.31584">
        <ele>103.5</ele>
        <time>2015-02-16T21:05:06.661Z</time>
      </trkpt>
      <trkpt lat="48.84364" lon="2.31591">
        <ele>103.6</ele>
        <time>2015-02-16T21:05:07.681Z</time>
      </trkpt>
      <trkpt lat="48.84368" lon="2.31598">
        <ele>103.2</ele>
        <time>2015-02-16T21:05:08.578Z</time>
      </trkpt>
      <trkpt lat="48.84372" lon="2.31606">
        <ele>102.8</ele>
        <time>2015-02-16T21:05:09.586Z</time>
      </trkpt>
      <trkpt lat="48.84377" lon="2.31612">
        <ele>102.2</ele>
        <time>2015-02-16T21:05:10.597Z</time>
      </trkpt>
      <trkpt lat="48.8438" lon="2.3162">
        <ele>102.1</ele>
        <time>2015-02-16T21:05:11.603Z</time>
      </trkpt>
      <trkpt lat="48.84382" lon="2.31628">
        <ele>101.8</ele>
        <time>2015-02-16T21:05:12.609Z</time>
      </trkpt>
      <trkpt lat="48.84385" lon="2.31636">
        <ele>101.6</ele>
        <time>2015-02-16T21:05:13.661Z</time>
      </trkpt>
      <trkpt lat="48.84389" lon="2.31645">
        <ele>101.2</ele>
        <time>2015-02-16T21:05:14.575Z</time>
      </trkpt>
      <trkpt lat="48.84393" lon="2.31653">
        <ele>101.1</ele>
        <time>2015-02-16T21:05:15.609Z</time>
      </trkpt>
      <trkpt lat="48.84397" lon="2.31659">
        <ele>100.9</ele>
        <time>2015-02-16T21:05:16.622Z</time>
      </trkpt>
      <trkpt lat="48.84401" lon="2.31665">
        <ele>100.7</ele>
        <time>2015-02-16T21:05:17.631Z</time>
      </trkpt>
      <trkpt lat="48.84403" lon="2.31674">
        <ele>100.4</ele>
        <time>2015-02-16T21:05:18.643Z</time>
      </trkpt>
      <trkpt lat="48.84407" lon="2.31682">
        <ele>100.3</ele>
        <time>2015-02-16T21:05:19.672Z</time>
      </trkpt>
      <trkpt lat="48.84411" lon="2.31689">
        <ele>100.2</ele>
        <time>2015-02-16T21:05:20.571Z</time>
      </trkpt>
      <trkpt lat="48.84414" lon="2.31697">
        <ele>100.1</ele>
        <time>2015-02-16T21:05:21.573Z</time>
      </trkpt>
      <trkpt lat="48.84417" lon="2.31706">
        <ele>99.8</ele>
        <time>2015-02-16T21:05:22.589Z</time>
      </trkpt>
      <trkpt lat="48.8442" lon="2.31714">
        <ele>99.5</ele>
        <time>2015-02-16T21:05:23.591Z</time>
      </trkpt>
      <trkpt lat="48.84424" lon="2.31721">
        <ele>99.3</ele>
        <time>2015-02-16T21:05:24.579Z</time>
      </trkpt>
      <trkpt lat="48.84427" lon="2.31729">
        <ele>99</ele>
        <time>2015-02-16T21:05:25.617Z</time>
      </trkpt>
      <trkpt lat="48.84429" lon="2.31736">
        <ele>98.7</ele>
        <time>2015-02-16T21:05:26.656Z</time>
      </trkpt>
      <trkpt lat="48.84431" lon="2.31743">
        <ele>98.7</ele>
        <time>2015-02-16T21:05:27.573Z</time>
      </trkpt>
      <trkpt lat="48.84432" lon="2.3175">
        <ele>98.6</ele>
        <time>2015-02-16T21:05:28.551Z</time>
      </trkpt>
      <trkpt lat="48.84433" lon="2.31757">
        <ele>98.3</ele>
        <time>2015-02-16T21:05:29.551Z</time>
      </trkpt>
      <trkpt lat="48.84436" lon="2.31762">
        <ele>98.3</ele>
        <time>2015-02-16T21:05:30.637Z</time>
      </trkpt>
      <trkpt lat="48.8444" lon="2.31766">
        <ele>97.9</ele>
        <time>2015-02-16T21:05:31.587Z</time>
      </trkpt>
      <trkpt lat="48.84447" lon="2.31772">
        <ele>97.6</ele>
        <time>2015-02-16T21:05:33.563Z</time>
      </trkpt>
      <trkpt lat="48.8445" lon="2.31774">
        <ele>97.8</ele>
        <time>2015-02-16T21:05:34.616Z</time>
      </trkpt>
      <trkpt lat="48.84457" lon="2.3178">
        <ele>98.1</ele>
        <time>2015-02-16T21:05:36.931Z</time>
      </trkpt>
      <trkpt lat="48.8446" lon="2.31783">
        <ele>98.1</ele>
        <time>2015-02-16T21:05:37.659Z</time>
      </trkpt>
      <trkpt lat="48.84465" lon="2.31789">
        <ele>98.2</ele>
        <time>2015-02-16T21:05:39.692Z</time>
      </trkpt>
      <trkpt lat="48.84469" lon="2.31791">
        <ele>98.1</ele>
        <time>2015-02-16T21:05:40.625Z</time>
      </trkpt>
      <trkpt lat="48.84474" lon="2.31799">
        <ele>97.9</ele>
        <time>2015-02-16T21:05:42.688Z</time>
      </trkpt>
      <trkpt lat="48.84477" lon="2.31803">
        <ele>97.8</ele>
        <time>2015-02-16T21:05:43.765Z</time>
      </trkpt>
      <trkpt lat="48.84481" lon="2.31812">
        <ele>98</ele>
        <time>2015-02-16T21:05:45.642Z</time>
      </trkpt>
      <trkpt lat="48.84483" lon="2.31818">
        <ele>98.1</ele>
        <time>2015-02-16T21:05:46.648Z</time>
      </trkpt>
      <trkpt lat="48.84488" lon="2.31827">
        <ele>98.2</ele>
        <time>2015-02-16T21:05:48.587Z</time>
      </trkpt>
      <trkpt lat="48.84491" lon="2.31832">
        <ele>98.2</ele>
        <time>2015-02-16T21:05:49.662Z</time>
      </trkpt>
      <trkpt lat="48.84493" lon="2.31839">
        <ele>98.2</ele>
        <time>2015-02-16T21:05:50.696Z</time>
      </trkpt>
      <trkpt lat="48.84496" lon="2.31846">
        <ele>98.2</ele>
        <time>2015-02-16T21:05:51.551Z</time>
      </trkpt>
      <trkpt lat="48.84499" lon="2.31857">
        <ele>98.5</ele>
        <time>2015-02-16T21:05:53.577Z</time>
      </trkpt>
      <trkpt lat="48.845" lon="2.31864">
        <ele>98.8</ele>
        <time>2015-02-16T21:05:54.575Z</time>
      </trkpt>
      <trkpt lat="48.84505" lon="2.31874">
        <ele>99.6</ele>
        <time>2015-02-16T21:05:56.624Z</time>
      </trkpt>
      <trkpt lat="48.84506" lon="2.3188">
        <ele>99.6</ele>
        <time>2015-02-16T21:05:57.663Z</time>
      </trkpt>
      <trkpt lat="48.84509" lon="2.31892">
        <ele>99.9</ele>
        <time>2015-02-16T21:05:59.621Z</time>
      </trkpt>
      <trkpt lat="48.84513" lon="2.31896">
        <ele>100</ele>
        <time>2015-02-16T21:06:00.584Z</time>
      </trkpt>
      <trkpt lat="48.84518" lon="2.31896">
        <ele>99.6</ele>
        <time>2015-02-16T21:06:01.668Z</time>
      </trkpt>
      <trkpt lat="48.84524" lon="2.31894">
        <ele>99.4</ele>
        <time>2015-02-16T21:06:02.574Z</time>
      </trkpt>
      <trkpt lat="48.84532" lon="2.31894">
        <ele>99.7</ele>
        <time>2015-02-16T21:06:04.599Z</time>
      </trkpt>
      <trkpt lat="48.84533" lon="2.31895">
        <ele>99.9</ele>
        <time>2015-02-16T21:06:05.618Z</time>
      </trkpt>
      <trkpt lat="48.84537" lon="2.31901">
        <ele>100.9</ele>
        <time>2015-02-16T21:06:08.640Z</time>
      </trkpt>
      <trkpt lat="48.84537" lon="2.31903">
        <ele>101.1</ele>
        <time>2015-02-16T21:06:09.727Z</time>
      </trkpt>
      <trkpt lat="48.84538" lon="2.31903">
        <ele>101.3</ele>
        <time>2015-02-16T21:06:12.622Z</time>
      </trkpt>
      <trkpt lat="48.84539" lon="2.31904">
        <ele>101.4</ele>
        <time>2015-02-16T21:06:13.659Z</time>
      </trkpt>
      <trkpt lat="48.84539" lon="2.31905">
        <ele>101.4</ele>
        <time>2015-02-16T21:06:14.591Z</time>
      </trkpt>
      <trkpt lat="48.8454" lon="2.31905">
        <ele>101.3</ele>
        <time>2015-02-16T21:06:15.586Z</time>
      </trkpt>
      <trkpt lat="48.84541" lon="2.31905">
        <ele>101.3</ele>
        <time>2015-02-16T21:06:16.728Z</time>
      </trkpt>
      <trkpt lat="48.84545" lon="2.31905">
        <ele>101.7</ele>
        <time>2015-02-16T21:06:17.656Z</time>
      </trkpt>
      <trkpt lat="48.84549" lon="2.31905">
        <ele>102.1</ele>
        <time>2015-02-16T21:06:18.670Z</time>
      </trkpt>
      <trkpt lat="48.84549" lon="2.31904">
        <ele>102.1</ele>
        <time>2015-02-16T21:06:19.701Z</time>
      </trkpt>
      <trkpt lat="48.8455" lon="2.31904">
        <ele>102</ele>
        <time>2015-02-16T21:06:20.658Z</time>
      </trkpt>
      <trkpt lat="48.84553" lon="2.31904">
        <ele>102.4</ele>
        <time>2015-02-16T21:06:21.591Z</time>
      </trkpt>
      <trkpt lat="48.84561" lon="2.31905">
        <ele>103.8</ele>
        <time>2015-02-16T21:06:26.684Z</time>
      </trkpt>
      <trkpt lat="48.84562" lon="2.31908">
        <ele>104.1</ele>
        <time>2015-02-16T21:06:27.596Z</time>
      </trkpt>
      <trkpt lat="48.84563" lon="2.3191">
        <ele>104.3</ele>
        <time>2015-02-16T21:06:28.592Z</time>
      </trkpt>
      <trkpt lat="48.84564" lon="2.3191">
        <ele>104.8</ele>
        <time>2015-02-16T21:06:46.636Z</time>
      </trkpt>
      <trkpt lat="48.84561" lon="2.31913">
        <ele>108.2</ele>
        <time>2015-02-16T21:06:47.684Z</time>
      </trkpt>
      <trkpt lat="48.84566" lon="2.31906">
        <ele>108.2</ele>
        <time>2015-02-16T21:06:53.625Z</time>
      </trkpt>
      <trkpt lat="48.84567" lon="2.31903">
        <ele>108.3</ele>
        <time>2015-02-16T21:06:54.653Z</time>
      </trkpt>
      <trkpt lat="48.84571" lon="2.31894">
        <ele>108.5</ele>
        <time>2015-02-16T21:06:56.581Z</time>
      </trkpt>
      <trkpt lat="48.84573" lon="2.31887">
        <ele>108.8</ele>
        <time>2015-02-16T21:06:57.595Z</time>
      </trkpt>
      <trkpt lat="48.84577" lon="2.31882">
        <ele>108.8</ele>
        <time>2015-02-16T21:06:58.617Z</time>
      </trkpt>
      <trkpt lat="48.8458" lon="2.31877">
        <ele>108.8</ele>
        <time>2015-02-16T21:06:59.625Z</time>
      </trkpt>
      <trkpt lat="48.84587" lon="2.31869">
        <ele>108.9</ele>
        <time>2015-02-16T21:07:01.644Z</time>
      </trkpt>
      <trkpt lat="48.84591" lon="2.31864">
        <ele>109</ele>
        <time>2015-02-16T21:07:02.659Z</time>
      </trkpt>
      <trkpt lat="48.84594" lon="2.3186">
        <ele>109.1</ele>
        <time>2015-02-16T21:07:03.583Z</time>
      </trkpt>
      <trkpt lat="48.84598" lon="2.31856">
        <ele>109.1</ele>
        <time>2015-02-16T21:07:04.582Z</time>
      </trkpt>
      <trkpt lat="48.84602" lon="2.31852">
        <ele>109.3</ele>
        <time>2015-02-16T21:07:05.600Z</time>
      </trkpt>
      <trkpt lat="48.84606" lon="2.31847">
        <ele>109.4</ele>
        <time>2015-02-16T21:07:06.608Z</time>
      </trkpt>
      <trkpt lat="48.8461" lon="2.31842">
        <ele>109.4</ele>
        <time>2015-02-16T21:07:07.623Z</time>
      </trkpt>
      <trkpt lat="48.84614" lon="2.31837">
        <ele>109.5</ele>
        <time>2015-02-16T21:07:08.621Z</time>
      </trkpt>
      <trkpt lat="48.84618" lon="2.31832">
        <ele>109.7</ele>
        <time>2015-02-16T21:07:09.648Z</time>
      </trkpt>
      <trkpt lat="48.84621" lon="2.31826">
        <ele>109.6</ele>
        <time>2015-02-16T21:07:10.662Z</time>
      </trkpt>
      <trkpt lat="48.84624" lon="2.31819">
        <ele>109.2</ele>
        <time>2015-02-16T21:07:11.679Z</time>
      </trkpt>
      <trkpt lat="48.84627" lon="2.31812">
        <ele>109.2</ele>
        <time>2015-02-16T21:07:12.601Z</time>
      </trkpt>
      <trkpt lat="48.84631" lon="2.31806">
        <ele>109.2</ele>
        <time>2015-02-16T21:07:13.640Z</time>
      </trkpt>
      <trkpt lat="48.84634" lon="2.31799">
        <ele>109.3</ele>
        <time>2015-02-16T21:07:14.665Z</time>
      </trkpt>
      <trkpt lat="48.84637" lon="2.31791">
        <ele>109.5</ele>
        <time>2015-02-16T21:07:15.585Z</time>
      </trkpt>
      <trkpt lat="48.8464" lon="2.31783">
        <ele>109.5</ele>
        <time>2015-02-16T21:07:16.585Z</time>
      </trkpt>
      <trkpt lat="48.84642" lon="2.31774">
        <ele>109.6</ele>
        <time>2015-02-16T21:07:17.612Z</time>
      </trkpt>
      <trkpt lat="48.84646" lon="2.31767">
        <ele>109.6</ele>
        <time>2015-02-16T21:07:18.632Z</time>
      </trkpt>
      <trkpt lat="48.84648" lon="2.3176">
        <ele>109.8</ele>
        <time>2015-02-16T21:07:19.647Z</time>
      </trkpt>
      <trkpt lat="48.84651" lon="2.31752">
        <ele>109.9</ele>
        <time>2015-02-16T21:07:20.653Z</time>
      </trkpt>
      <trkpt lat="48.84653" lon="2.31744">
        <ele>110</ele>
        <time>2015-02-16T21:07:21.665Z</time>
      </trkpt>
      <trkpt lat="48.84656" lon="2.31736">
        <ele>110.1</ele>
        <time>2015-02-16T21:07:22.584Z</time>
      </trkpt>
      <trkpt lat="48.84659" lon="2.31729">
        <ele>110.2</ele>
        <time>2015-02-16T21:07:23.594Z</time>
      </trkpt>
      <trkpt lat="48.84662" lon="2.31722">
        <ele>110.4</ele>
        <time>2015-02-16T21:07:24.674Z</time>
      </trkpt>
      <trkpt lat="48.84665" lon="2.31715">
        <ele>110.5</ele>
        <time>2015-02-16T21:07:25.696Z</time>
      </trkpt>
      <trkpt lat="48.84667" lon="2.31707">
        <ele>110.5</ele>
        <time>2015-02-16T21:07:26.583Z</time>
      </trkpt>
      <trkpt lat="48.84668" lon="2.31696">
        <ele>111.1</ele>
        <time>2015-02-16T21:07:27.660Z</time>
      </trkpt>
      <trkpt lat="48.8467" lon="2.31687">
        <ele>111.4</ele>
        <time>2015-02-16T21:07:28.630Z</time>
      </trkpt>
      <trkpt lat="48.84675" lon="2.31676">
        <ele>112.3</ele>
        <time>2015-02-16T21:07:30.593Z</time>
      </trkpt>
      <trkpt lat="48.84677" lon="2.31671">
        <ele>112.6</ele>
        <time>2015-02-16T21:07:31.651Z</time>
      </trkpt>
      <trkpt lat="48.84684" lon="2.31663">
        <ele>113.9</ele>
        <time>2015-02-16T21:07:33.579Z</time>
      </trkpt>
      <trkpt lat="48.84687" lon="2.3166">
        <ele>115</ele>
        <time>2015-02-16T21:07:34.586Z</time>
      </trkpt>
      <trkpt lat="48.84694" lon="2.31652">
        <ele>116.3</ele>
        <time>2015-02-16T21:07:36.639Z</time>
      </trkpt>
      <trkpt lat="48.84696" lon="2.31648">
        <ele>117.1</ele>
        <time>2015-02-16T21:07:37.650Z</time>
      </trkpt>
      <trkpt lat="48.84702" lon="2.3164">
        <ele>118</ele>
        <time>2015-02-16T21:07:39.641Z</time>
      </trkpt>
      <trkpt lat="48.84705" lon="2.31636">
        <ele>118.6</ele>
        <time>2015-02-16T21:07:40.644Z</time>
      </trkpt>
      <trkpt lat="48.84711" lon="2.31627">
        <ele>119.8</ele>
        <time>2015-02-16T21:07:42.578Z</time>
      </trkpt>
      <trkpt lat="48.84714" lon="2.31624">
        <ele>120.2</ele>
        <time>2015-02-16T21:07:43.639Z</time>
      </trkpt>
      <trkpt lat="48.84722" lon="2.31617">
        <ele>121.1</ele>
        <time>2015-02-16T21:07:45.569Z</time>
      </trkpt>
      <trkpt lat="48.84726" lon="2.31614">
        <ele>121.6</ele>
        <time>2015-02-16T21:07:46.664Z</time>
      </trkpt>
      <trkpt lat="48.84734" lon="2.31609">
        <ele>122.1</ele>
        <time>2015-02-16T21:07:48.653Z</time>
      </trkpt>
      <trkpt lat="48.84737" lon="2.31608">
        <ele>122.4</ele>
        <time>2015-02-16T21:07:49.668Z</time>
      </trkpt>
      <trkpt lat="48.84746" lon="2.31606">
        <ele>122.9</ele>
        <time>2015-02-16T21:07:52.657Z</time>
      </trkpt>
      <trkpt lat="48.84748" lon="2.31606">
        <ele>122.9</ele>
        <time>2015-02-16T21:07:53.584Z</time>
      </trkpt>
      <trkpt lat="48.84757" lon="2.31611">
        <ele>121</ele>
        <time>2015-02-16T21:07:57.553Z</time>
      </trkpt>
      <trkpt lat="48.84759" lon="2.31611">
        <ele>121</ele>
        <time>2015-02-16T21:07:58.587Z</time>
      </trkpt>
      <trkpt lat="48.84767" lon="2.31608">
        <ele>121.1</ele>
        <time>2015-02-16T21:08:01.645Z</time>
      </trkpt>
      <trkpt lat="48.84769" lon="2.31607">
        <ele>121</ele>
        <time>2015-02-16T21:08:02.575Z</time>
      </trkpt>
      <trkpt lat="48.84776" lon="2.31604">
        <ele>121.2</ele>
        <time>2015-02-16T21:08:05.594Z</time>
      </trkpt>
      <trkpt lat="48.84778" lon="2.31603">
        <ele>121.2</ele>
        <time>2015-02-16T21:08:06.609Z</time>
      </trkpt>
      <trkpt lat="48.84785" lon="2.31599">
        <ele>121.2</ele>
        <time>2015-02-16T21:08:09.656Z</time>
      </trkpt>
      <trkpt lat="48.84787" lon="2.31598">
        <ele>121.2</ele>
        <time>2015-02-16T21:08:10.574Z</time>
      </trkpt>
      <trkpt lat="48.84795" lon="2.31594">
        <ele>120.8</ele>
        <time>2015-02-16T21:08:13.602Z</time>
      </trkpt>
      <trkpt lat="48.84797" lon="2.31592">
        <ele>120.6</ele>
        <time>2015-02-16T21:08:14.547Z</time>
      </trkpt>
      <trkpt lat="48.84803" lon="2.31589">
        <ele>120</ele>
        <time>2015-02-16T21:08:16.597Z</time>
      </trkpt>
      <trkpt lat="48.84806" lon="2.31587">
        <ele>119.9</ele>
        <time>2015-02-16T21:08:17.609Z</time>
      </trkpt>
      <trkpt lat="48.84813" lon="2.31584">
        <ele>119.8</ele>
        <time>2015-02-16T21:08:19.636Z</time>
      </trkpt>
      <trkpt lat="48.84818" lon="2.31582">
        <ele>119.9</ele>
        <time>2015-02-16T21:08:20.579Z</time>
      </trkpt>
      <trkpt lat="48.84826" lon="2.31581">
        <ele>119.9</ele>
        <time>2015-02-16T21:08:22.573Z</time>
      </trkpt>
      <trkpt lat="48.8483" lon="2.31581">
        <ele>119.9</ele>
        <time>2015-02-16T21:08:23.587Z</time>
      </trkpt>
      <trkpt lat="48.84838" lon="2.31579">
        <ele>120</ele>
        <time>2015-02-16T21:08:25.608Z</time>
      </trkpt>
      <trkpt lat="48.84842" lon="2.31578">
        <ele>120</ele>
        <time>2015-02-16T21:08:26.628Z</time>
      </trkpt>
      <trkpt lat="48.8485" lon="2.31576">
        <ele>119.9</ele>
        <time>2015-02-16T21:08:28.567Z</time>
      </trkpt>
      <trkpt lat="48.84854" lon="2.31574">
        <ele>119.7</ele>
        <time>2015-02-16T21:08:29.573Z</time>
      </trkpt>
      <trkpt lat="48.84858" lon="2.31572">
        <ele>119.5</ele>
        <time>2015-02-16T21:08:30.587Z</time>
      </trkpt>
      <trkpt lat="48.84863" lon="2.31571">
        <ele>119.4</ele>
        <time>2015-02-16T21:08:31.615Z</time>
      </trkpt>
      <trkpt lat="48.84867" lon="2.31568">
        <ele>119.4</ele>
        <time>2015-02-16T21:08:32.658Z</time>
      </trkpt>
      <trkpt lat="48.84871" lon="2.31566">
        <ele>119.4</ele>
        <time>2015-02-16T21:08:33.662Z</time>
      </trkpt>
      <trkpt lat="48.84879" lon="2.31562">
        <ele>119.5</ele>
        <time>2015-02-16T21:08:35.589Z</time>
      </trkpt>
      <trkpt lat="48.84884" lon="2.3156">
        <ele>119.3</ele>
        <time>2015-02-16T21:08:36.613Z</time>
      </trkpt>
      <trkpt lat="48.84888" lon="2.31558">
        <ele>119.1</ele>
        <time>2015-02-16T21:08:37.682Z</time>
      </trkpt>
      <trkpt lat="48.84892" lon="2.31557">
        <ele>119.1</ele>
        <time>2015-02-16T21:08:38.600Z</time>
      </trkpt>
      <trkpt lat="48.84897" lon="2.31556">
        <ele>118.7</ele>
        <time>2015-02-16T21:08:39.604Z</time>
      </trkpt>
      <trkpt lat="48.84902" lon="2.31554">
        <ele>118.7</ele>
        <time>2015-02-16T21:08:40.613Z</time>
      </trkpt>
      <trkpt lat="48.84906" lon="2.31551">
        <ele>118.5</ele>
        <time>2015-02-16T21:08:41.621Z</time>
      </trkpt>
      <trkpt lat="48.84911" lon="2.31548">
        <ele>118.3</ele>
        <time>2015-02-16T21:08:42.651Z</time>
      </trkpt>
      <trkpt lat="48.84915" lon="2.31545">
        <ele>118.4</ele>
        <time>2015-02-16T21:08:43.657Z</time>
      </trkpt>
      <trkpt lat="48.84919" lon="2.31541">
        <ele>118.5</ele>
        <time>2015-02-16T21:08:44.662Z</time>
      </trkpt>
      <trkpt lat="48.84927" lon="2.31535">
        <ele>118.6</ele>
        <time>2015-02-16T21:08:46.670Z</time>
      </trkpt>
      <trkpt lat="48.84931" lon="2.31533">
        <ele>118.5</ele>
        <time>2015-02-16T21:08:47.681Z</time>
      </trkpt>
      <trkpt lat="48.84938" lon="2.31528">
        <ele>118.3</ele>
        <time>2015-02-16T21:08:49.593Z</time>
      </trkpt>
      <trkpt lat="48.84941" lon="2.31525">
        <ele>118.2</ele>
        <time>2015-02-16T21:08:50.599Z</time>
      </trkpt>
      <trkpt lat="48.84949" lon="2.3152">
        <ele>118.5</ele>
        <time>2015-02-16T21:08:53.577Z</time>
      </trkpt>
      <trkpt lat="48.84951" lon="2.31518">
        <ele>118.7</ele>
        <time>2015-02-16T21:08:54.588Z</time>
      </trkpt>
      <trkpt lat="48.84957" lon="2.31509">
        <ele>117.8</ele>
        <time>2015-02-16T21:08:57.598Z</time>
      </trkpt>
      <trkpt lat="48.84959" lon="2.31507">
        <ele>117.7</ele>
        <time>2015-02-16T21:08:58.611Z</time>
      </trkpt>
      <trkpt lat="48.84965" lon="2.31503">
        <ele>118.4</ele>
        <time>2015-02-16T21:09:01.682Z</time>
      </trkpt>
      <trkpt lat="48.84967" lon="2.315">
        <ele>118.4</ele>
        <time>2015-02-16T21:09:02.595Z</time>
      </trkpt>
      <trkpt lat="48.84974" lon="2.31493">
        <ele>119.4</ele>
        <time>2015-02-16T21:09:05.612Z</time>
      </trkpt>
      <trkpt lat="48.84978" lon="2.31489">
        <ele>120.2</ele>
        <time>2015-02-16T21:09:06.624Z</time>
      </trkpt>
      <trkpt lat="48.84984" lon="2.31483">
        <ele>121</ele>
        <time>2015-02-16T21:09:08.546Z</time>
      </trkpt>
      <trkpt lat="48.84987" lon="2.31482">
        <ele>120.7</ele>
        <time>2015-02-16T21:09:09.571Z</time>
      </trkpt>
      <trkpt lat="48.84994" lon="2.31477">
        <ele>120.7</ele>
        <time>2015-02-16T21:09:11.585Z</time>
      </trkpt>
      <trkpt lat="48.84998" lon="2.31475">
        <ele>120.8</ele>
        <time>2015-02-16T21:09:12.605Z</time>
      </trkpt>
      <trkpt lat="48.85006" lon="2.31471">
        <ele>120.4</ele>
        <time>2015-02-16T21:09:14.618Z</time>
      </trkpt>
      <trkpt lat="48.85009" lon="2.31469">
        <ele>120.4</ele>
        <time>2015-02-16T21:09:15.625Z</time>
      </trkpt>
      <trkpt lat="48.85018" lon="2.31465">
        <ele>119.8</ele>
        <time>2015-02-16T21:09:17.570Z</time>
      </trkpt>
      <trkpt lat="48.85022" lon="2.31464">
        <ele>119.8</ele>
        <time>2015-02-16T21:09:18.600Z</time>
      </trkpt>
      <trkpt lat="48.8503" lon="2.3146">
        <ele>119.5</ele>
        <time>2015-02-16T21:09:20.661Z</time>
      </trkpt>
      <trkpt lat="48.85034" lon="2.31458">
        <ele>119.4</ele>
        <time>2015-02-16T21:09:21.548Z</time>
      </trkpt>
      <trkpt lat="48.85038" lon="2.31457">
        <ele>119.3</ele>
        <time>2015-02-16T21:09:22.632Z</time>
      </trkpt>
      <trkpt lat="48.85043" lon="2.31454">
        <ele>119</ele>
        <time>2015-02-16T21:09:23.630Z</time>
      </trkpt>
      <trkpt lat="48.85051" lon="2.31451">
        <ele>118.4</ele>
        <time>2015-02-16T21:09:25.665Z</time>
      </trkpt>
      <trkpt lat="48.85055" lon="2.31448">
        <ele>118.2</ele>
        <time>2015-02-16T21:09:26.673Z</time>
      </trkpt>
      <trkpt lat="48.8506" lon="2.31446">
        <ele>118.3</ele>
        <time>2015-02-16T21:09:27.586Z</time>
      </trkpt>
      <trkpt lat="48.85064" lon="2.31444">
        <ele>118.1</ele>
        <time>2015-02-16T21:09:28.596Z</time>
      </trkpt>
      <trkpt lat="48.85068" lon="2.31442">
        <ele>118.2</ele>
        <time>2015-02-16T21:09:29.610Z</time>
      </trkpt>
      <trkpt lat="48.85073" lon="2.31441">
        <ele>118.1</ele>
        <time>2015-02-16T21:09:30.621Z</time>
      </trkpt>
      <trkpt lat="48.85077" lon="2.31439">
        <ele>118</ele>
        <time>2015-02-16T21:09:31.663Z</time>
      </trkpt>
      <trkpt lat="48.85082" lon="2.31438">
        <ele>117.7</ele>
        <time>2015-02-16T21:09:32.672Z</time>
      </trkpt>
      <trkpt lat="48.85091" lon="2.31437">
        <ele>117.6</ele>
        <time>2015-02-16T21:09:34.578Z</time>
      </trkpt>
      <trkpt lat="48.85095" lon="2.31437">
        <ele>117.5</ele>
        <time>2015-02-16T21:09:35.590Z</time>
      </trkpt>
      <trkpt lat="48.85103" lon="2.31437">
        <ele>117</ele>
        <time>2015-02-16T21:09:37.614Z</time>
      </trkpt>
      <trkpt lat="48.85107" lon="2.31437">
        <ele>116.7</ele>
        <time>2015-02-16T21:09:38.621Z</time>
      </trkpt>
      <trkpt lat="48.85115" lon="2.31438">
        <ele>116.7</ele>
        <time>2015-02-16T21:09:40.635Z</time>
      </trkpt>
      <trkpt lat="48.85119" lon="2.31438">
        <ele>116.8</ele>
        <time>2015-02-16T21:09:41.654Z</time>
      </trkpt>
      <trkpt lat="48.85127" lon="2.31439">
        <ele>116.7</ele>
        <time>2015-02-16T21:09:43.673Z</time>
      </trkpt>
      <trkpt lat="48.85131" lon="2.31439">
        <ele>116.9</ele>
        <time>2015-02-16T21:09:44.592Z</time>
      </trkpt>
      <trkpt lat="48.85138" lon="2.31441">
        <ele>117.3</ele>
        <time>2015-02-16T21:09:46.611Z</time>
      </trkpt>
      <trkpt lat="48.85142" lon="2.31442">
        <ele>117.4</ele>
        <time>2015-02-16T21:09:47.618Z</time>
      </trkpt>
      <trkpt lat="48.85147" lon="2.31444">
        <ele>117.1</ele>
        <time>2015-02-16T21:09:48.632Z</time>
      </trkpt>
      <trkpt lat="48.85152" lon="2.31444">
        <ele>116.7</ele>
        <time>2015-02-16T21:09:49.637Z</time>
      </trkpt>
      <trkpt lat="48.85157" lon="2.31445">
        <ele>116.5</ele>
        <time>2015-02-16T21:09:50.648Z</time>
      </trkpt>
      <trkpt lat="48.85162" lon="2.31447">
        <ele>116.5</ele>
        <time>2015-02-16T21:09:51.650Z</time>
      </trkpt>
      <trkpt lat="48.85166" lon="2.31448">
        <ele>116.2</ele>
        <time>2015-02-16T21:09:52.660Z</time>
      </trkpt>
      <trkpt lat="48.85171" lon="2.31448">
        <ele>116.1</ele>
        <time>2015-02-16T21:09:53.674Z</time>
      </trkpt>
      <trkpt lat="48.85175" lon="2.31448">
        <ele>116.1</ele>
        <time>2015-02-16T21:09:54.681Z</time>
      </trkpt>
      <trkpt lat="48.8518" lon="2.31448">
        <ele>116.2</ele>
        <time>2015-02-16T21:09:55.636Z</time>
      </trkpt>
      <trkpt lat="48.85184" lon="2.31448">
        <ele>116.2</ele>
        <time>2015-02-16T21:09:56.651Z</time>
      </trkpt>
      <trkpt lat="48.85189" lon="2.31446">
        <ele>116.6</ele>
        <time>2015-02-16T21:09:57.656Z</time>
      </trkpt>
      <trkpt lat="48.85194" lon="2.31447">
        <ele>116.6</ele>
        <time>2015-02-16T21:09:58.580Z</time>
      </trkpt>
      <trkpt lat="48.85199" lon="2.31447">
        <ele>116.5</ele>
        <time>2015-02-16T21:09:59.586Z</time>
      </trkpt>
      <trkpt lat="48.85207" lon="2.31448">
        <ele>116.3</ele>
        <time>2015-02-16T21:10:01.653Z</time>
      </trkpt>
      <trkpt lat="48.85211" lon="2.31448">
        <ele>116.5</ele>
        <time>2015-02-16T21:10:02.655Z</time>
      </trkpt>
      <trkpt lat="48.8522" lon="2.31449">
        <ele>116.5</ele>
        <time>2015-02-16T21:10:04.561Z</time>
      </trkpt>
      <trkpt lat="48.85224" lon="2.31449">
        <ele>116.6</ele>
        <time>2015-02-16T21:10:05.564Z</time>
      </trkpt>
      <trkpt lat="48.85232" lon="2.3145">
        <ele>116.1</ele>
        <time>2015-02-16T21:10:07.614Z</time>
      </trkpt>
      <trkpt lat="48.85236" lon="2.31451">
        <ele>115.9</ele>
        <time>2015-02-16T21:10:08.625Z</time>
      </trkpt>
      <trkpt lat="48.85245" lon="2.31453">
        <ele>115.7</ele>
        <time>2015-02-16T21:10:10.572Z</time>
      </trkpt>
      <trkpt lat="48.85249" lon="2.31453">
        <ele>115.6</ele>
        <time>2015-02-16T21:10:11.793Z</time>
      </trkpt>
      <trkpt lat="48.85256" lon="2.31453">
        <ele>115.9</ele>
        <time>2015-02-16T21:10:14.416Z</time>
      </trkpt>
      <trkpt lat="48.85261" lon="2.31453">
        <ele>116.2</ele>
        <time>2015-02-16T21:10:14.551Z</time>
      </trkpt>
      <trkpt lat="48.85269" lon="2.31452">
        <ele>116.7</ele>
        <time>2015-02-16T21:10:16.588Z</time>
      </trkpt>
      <trkpt lat="48.85273" lon="2.31452">
        <ele>116.8</ele>
        <time>2015-02-16T21:10:17.610Z</time>
      </trkpt>
      <trkpt lat="48.85282" lon="2.31452">
        <ele>117.1</ele>
        <time>2015-02-16T21:10:19.669Z</time>
      </trkpt>
      <trkpt lat="48.85286" lon="2.31452">
        <ele>117.2</ele>
        <time>2015-02-16T21:10:20.575Z</time>
      </trkpt>
      <trkpt lat="48.85295" lon="2.31452">
        <ele>117.6</ele>
        <time>2015-02-16T21:10:22.606Z</time>
      </trkpt>
      <trkpt lat="48.85299" lon="2.31452">
        <ele>117.7</ele>
        <time>2015-02-16T21:10:23.679Z</time>
      </trkpt>
      <trkpt lat="48.85307" lon="2.31453">
        <ele>117.7</ele>
        <time>2015-02-16T21:10:25.682Z</time>
      </trkpt>
      <trkpt lat="48.85312" lon="2.31453">
        <ele>117.6</ele>
        <time>2015-02-16T21:10:26.583Z</time>
      </trkpt>
      <trkpt lat="48.85321" lon="2.31454">
        <ele>117.5</ele>
        <time>2015-02-16T21:10:29.594Z</time>
      </trkpt>
      <trkpt lat="48.85326" lon="2.31455">
        <ele>117.3</ele>
        <time>2015-02-16T21:10:29.654Z</time>
      </trkpt>
      <trkpt lat="48.85331" lon="2.31456">
        <ele>117.3</ele>
        <time>2015-02-16T21:10:30.665Z</time>
      </trkpt>
      <trkpt lat="48.85335" lon="2.31458">
        <ele>117</ele>
        <time>2015-02-16T21:10:31.664Z</time>
      </trkpt>
      <trkpt lat="48.85342" lon="2.3146">
        <ele>115.8</ele>
        <time>2015-02-16T21:10:32.585Z</time>
      </trkpt>
      <trkpt lat="48.85346" lon="2.31462">
        <ele>115.5</ele>
        <time>2015-02-16T21:10:33.590Z</time>
      </trkpt>
      <trkpt lat="48.85351" lon="2.31464">
        <ele>114.9</ele>
        <time>2015-02-16T21:10:34.600Z</time>
      </trkpt>
      <trkpt lat="48.85359" lon="2.31467">
        <ele>113.9</ele>
        <time>2015-02-16T21:10:35.685Z</time>
      </trkpt>
      <trkpt lat="48.85366" lon="2.3147">
        <ele>112.6</ele>
        <time>2015-02-16T21:10:36.591Z</time>
      </trkpt>
      <trkpt lat="48.85373" lon="2.31473">
        <ele>111.4</ele>
        <time>2015-02-16T21:10:37.650Z</time>
      </trkpt>
      <trkpt lat="48.8538" lon="2.31475">
        <ele>110.2</ele>
        <time>2015-02-16T21:10:38.674Z</time>
      </trkpt>
      <trkpt lat="48.85386" lon="2.31476">
        <ele>109.2</ele>
        <time>2015-02-16T21:10:39.584Z</time>
      </trkpt>
      <trkpt lat="48.85391" lon="2.31478">
        <ele>108.1</ele>
        <time>2015-02-16T21:10:40.590Z</time>
      </trkpt>
      <trkpt lat="48.85396" lon="2.31478">
        <ele>107.7</ele>
        <time>2015-02-16T21:10:41.606Z</time>
      </trkpt>
      <trkpt lat="48.85403" lon="2.31477">
        <ele>107.2</ele>
        <time>2015-02-16T21:10:43.645Z</time>
      </trkpt>
      <trkpt lat="48.85408" lon="2.31477">
        <ele>107</ele>
        <time>2015-02-16T21:10:44.640Z</time>
      </trkpt>
      <trkpt lat="48.85412" lon="2.31478">
        <ele>106.8</ele>
        <time>2015-02-16T21:10:45.828Z</time>
      </trkpt>
      <trkpt lat="48.85418" lon="2.31479">
        <ele>105.1</ele>
        <time>2015-02-16T21:10:46.658Z</time>
      </trkpt>
      <trkpt lat="48.85424" lon="2.31481">
        <ele>103.9</ele>
        <time>2015-02-16T21:10:47.559Z</time>
      </trkpt>
      <trkpt lat="48.8543" lon="2.31483">
        <ele>102.8</ele>
        <time>2015-02-16T21:10:48.603Z</time>
      </trkpt>
      <trkpt lat="48.85435" lon="2.31486">
        <ele>101.9</ele>
        <time>2015-02-16T21:10:49.649Z</time>
      </trkpt>
      <trkpt lat="48.85441" lon="2.31488">
        <ele>100.9</ele>
        <time>2015-02-16T21:10:50.644Z</time>
      </trkpt>
      <trkpt lat="48.85445" lon="2.31489">
        <ele>100.3</ele>
        <time>2015-02-16T21:10:51.558Z</time>
      </trkpt>
      <trkpt lat="48.85449" lon="2.3149">
        <ele>100</ele>
        <time>2015-02-16T21:10:52.572Z</time>
      </trkpt>
      <trkpt lat="48.85458" lon="2.31491">
        <ele>99.3</ele>
        <time>2015-02-16T21:10:54.589Z</time>
      </trkpt>
      <trkpt lat="48.85461" lon="2.31492">
        <ele>99.1</ele>
        <time>2015-02-16T21:10:55.624Z</time>
      </trkpt>
      <trkpt lat="48.85469" lon="2.31493">
        <ele>98.9</ele>
        <time>2015-02-16T21:10:57.629Z</time>
      </trkpt>
      <trkpt lat="48.85473" lon="2.31493">
        <ele>98.5</ele>
        <time>2015-02-16T21:10:58.636Z</time>
      </trkpt>
      <trkpt lat="48.85481" lon="2.31495">
        <ele>98.5</ele>
        <time>2015-02-16T21:11:01.020Z</time>
      </trkpt>
      <trkpt lat="48.85485" lon="2.31495">
        <ele>98.5</ele>
        <time>2015-02-16T21:11:01.662Z</time>
      </trkpt>
      <trkpt lat="48.85494" lon="2.31497">
        <ele>98.2</ele>
        <time>2015-02-16T21:11:03.577Z</time>
      </trkpt>
      <trkpt lat="48.85499" lon="2.31498">
        <ele>98.2</ele>
        <time>2015-02-16T21:11:04.587Z</time>
      </trkpt>
      <trkpt lat="48.85504" lon="2.31498">
        <ele>98.3</ele>
        <time>2015-02-16T21:11:06.157Z</time>
      </trkpt>
      <trkpt lat="48.85508" lon="2.31498">
        <ele>98.2</ele>
        <time>2015-02-16T21:11:06.609Z</time>
      </trkpt>
      <trkpt lat="48.85517" lon="2.31498">
        <ele>97.7</ele>
        <time>2015-02-16T21:11:08.670Z</time>
      </trkpt>
      <trkpt lat="48.85521" lon="2.31498">
        <ele>97.5</ele>
        <time>2015-02-16T21:11:09.615Z</time>
      </trkpt>
      <trkpt lat="48.8553" lon="2.31499">
        <ele>97.2</ele>
        <time>2015-02-16T21:11:11.577Z</time>
      </trkpt>
      <trkpt lat="48.85534" lon="2.31499">
        <ele>96.9</ele>
        <time>2015-02-16T21:11:12.641Z</time>
      </trkpt>
      <trkpt lat="48.85538" lon="2.315">
        <ele>96.6</ele>
        <time>2015-02-16T21:11:13.655Z</time>
      </trkpt>
      <trkpt lat="48.85543" lon="2.315">
        <ele>96.4</ele>
        <time>2015-02-16T21:11:14.656Z</time>
      </trkpt>
      <trkpt lat="48.85547" lon="2.31501">
        <ele>96.4</ele>
        <time>2015-02-16T21:11:16.363Z</time>
      </trkpt>
      <trkpt lat="48.85552" lon="2.31501">
        <ele>96.3</ele>
        <time>2015-02-16T21:11:16.546Z</time>
      </trkpt>
      <trkpt lat="48.85557" lon="2.31502">
        <ele>96.3</ele>
        <time>2015-02-16T21:11:17.577Z</time>
      </trkpt>
      <trkpt lat="48.85562" lon="2.31503">
        <ele>96.5</ele>
        <time>2015-02-16T21:11:18.570Z</time>
      </trkpt>
      <trkpt lat="48.85567" lon="2.31504">
        <ele>96.5</ele>
        <time>2015-02-16T21:11:19.609Z</time>
      </trkpt>
      <trkpt lat="48.85572" lon="2.31505">
        <ele>96.6</ele>
        <time>2015-02-16T21:11:20.613Z</time>
      </trkpt>
      <trkpt lat="48.85576" lon="2.31505">
        <ele>96.5</ele>
        <time>2015-02-16T21:11:21.627Z</time>
      </trkpt>
      <trkpt lat="48.85582" lon="2.31506">
        <ele>96.7</ele>
        <time>2015-02-16T21:11:22.636Z</time>
      </trkpt>
      <trkpt lat="48.85587" lon="2.31507">
        <ele>96.7</ele>
        <time>2015-02-16T21:11:23.546Z</time>
      </trkpt>
      <trkpt lat="48.85592" lon="2.31507">
        <ele>96.7</ele>
        <time>2015-02-16T21:11:24.668Z</time>
      </trkpt>
      <trkpt lat="48.85596" lon="2.31507">
        <ele>96.9</ele>
        <time>2015-02-16T21:11:26.487Z</time>
      </trkpt>
      <trkpt lat="48.85601" lon="2.31508">
        <ele>96.8</ele>
        <time>2015-02-16T21:11:26.546Z</time>
      </trkpt>
      <trkpt lat="48.85605" lon="2.31509">
        <ele>96.8</ele>
        <time>2015-02-16T21:11:27.550Z</time>
      </trkpt>
      <trkpt lat="48.8561" lon="2.3151">
        <ele>96.8</ele>
        <time>2015-02-16T21:11:28.573Z</time>
      </trkpt>
      <trkpt lat="48.85619" lon="2.31511">
        <ele>96.3</ele>
        <time>2015-02-16T21:11:30.627Z</time>
      </trkpt>
      <trkpt lat="48.85624" lon="2.31512">
        <ele>96.2</ele>
        <time>2015-02-16T21:11:31.629Z</time>
      </trkpt>
      <trkpt lat="48.85629" lon="2.31513">
        <ele>96.1</ele>
        <time>2015-02-16T21:11:32.574Z</time>
      </trkpt>
      <trkpt lat="48.85633" lon="2.31513">
        <ele>96</ele>
        <time>2015-02-16T21:11:33.543Z</time>
      </trkpt>
      <trkpt lat="48.8564" lon="2.31514">
        <ele>95.8</ele>
        <time>2015-02-16T21:11:35.598Z</time>
      </trkpt>
      <trkpt lat="48.85645" lon="2.31514">
        <ele>95.5</ele>
        <time>2015-02-16T21:11:36.611Z</time>
      </trkpt>
      <trkpt lat="48.8565" lon="2.31514">
        <ele>95.5</ele>
        <time>2015-02-16T21:11:37.617Z</time>
      </trkpt>
      <trkpt lat="48.85656" lon="2.31515">
        <ele>95.5</ele>
        <time>2015-02-16T21:11:38.621Z</time>
      </trkpt>
      <trkpt lat="48.85662" lon="2.31514">
        <ele>95.1</ele>
        <time>2015-02-16T21:11:39.639Z</time>
      </trkpt>
      <trkpt lat="48.85668" lon="2.31515">
        <ele>94.8</ele>
        <time>2015-02-16T21:11:40.563Z</time>
      </trkpt>
      <trkpt lat="48.85674" lon="2.31515">
        <ele>94.7</ele>
        <time>2015-02-16T21:11:41.575Z</time>
      </trkpt>
      <trkpt lat="48.8568" lon="2.31516">
        <ele>94.3</ele>
        <time>2015-02-16T21:11:42.604Z</time>
      </trkpt>
      <trkpt lat="48.85686" lon="2.31517">
        <ele>93.9</ele>
        <time>2015-02-16T21:11:43.613Z</time>
      </trkpt>
      <trkpt lat="48.85692" lon="2.31517">
        <ele>93.7</ele>
        <time>2015-02-16T21:11:44.617Z</time>
      </trkpt>
      <trkpt lat="48.85698" lon="2.31518">
        <ele>93.7</ele>
        <time>2015-02-16T21:11:45.626Z</time>
      </trkpt>
      <trkpt lat="48.85705" lon="2.3152">
        <ele>93.6</ele>
        <time>2015-02-16T21:11:46.633Z</time>
      </trkpt>
      <trkpt lat="48.85711" lon="2.31521">
        <ele>93.5</ele>
        <time>2015-02-16T21:11:47.641Z</time>
      </trkpt>
      <trkpt lat="48.85717" lon="2.31522">
        <ele>93.4</ele>
        <time>2015-02-16T21:11:48.653Z</time>
      </trkpt>
      <trkpt lat="48.85723" lon="2.31522">
        <ele>93.3</ele>
        <time>2015-02-16T21:11:49.665Z</time>
      </trkpt>
      <trkpt lat="48.85729" lon="2.31523">
        <ele>93.2</ele>
        <time>2015-02-16T21:11:50.583Z</time>
      </trkpt>
      <trkpt lat="48.85734" lon="2.31523">
        <ele>93.1</ele>
        <time>2015-02-16T21:11:51.600Z</time>
      </trkpt>
      <trkpt lat="48.85739" lon="2.31524">
        <ele>93</ele>
        <time>2015-02-16T21:11:52.619Z</time>
      </trkpt>
      <trkpt lat="48.85745" lon="2.31524">
        <ele>93</ele>
        <time>2015-02-16T21:11:53.638Z</time>
      </trkpt>
      <trkpt lat="48.8575" lon="2.31525">
        <ele>92.9</ele>
        <time>2015-02-16T21:11:54.639Z</time>
      </trkpt>
      <trkpt lat="48.85756" lon="2.31525">
        <ele>92.7</ele>
        <time>2015-02-16T21:11:55.659Z</time>
      </trkpt>
      <trkpt lat="48.85761" lon="2.31526">
        <ele>92.4</ele>
        <time>2015-02-16T21:11:56.565Z</time>
      </trkpt>
      <trkpt lat="48.85766" lon="2.31526">
        <ele>92.3</ele>
        <time>2015-02-16T21:11:57.572Z</time>
      </trkpt>
      <trkpt lat="48.85772" lon="2.31526">
        <ele>92.1</ele>
        <time>2015-02-16T21:11:58.580Z</time>
      </trkpt>
      <trkpt lat="48.85777" lon="2.31525">
        <ele>92</ele>
        <time>2015-02-16T21:11:59.601Z</time>
      </trkpt>
      <trkpt lat="48.85782" lon="2.31522">
        <ele>92</ele>
        <time>2015-02-16T21:12:00.617Z</time>
      </trkpt>
      <trkpt lat="48.85786" lon="2.31518">
        <ele>91.9</ele>
        <time>2015-02-16T21:12:01.627Z</time>
      </trkpt>
      <trkpt lat="48.8579" lon="2.31513">
        <ele>91.6</ele>
        <time>2015-02-16T21:12:02.652Z</time>
      </trkpt>
      <trkpt lat="48.85793" lon="2.31507">
        <ele>91.3</ele>
        <time>2015-02-16T21:12:03.580Z</time>
      </trkpt>
      <trkpt lat="48.85795" lon="2.315">
        <ele>91.3</ele>
        <time>2015-02-16T21:12:04.609Z</time>
      </trkpt>
      <trkpt lat="48.85798" lon="2.31492">
        <ele>91.1</ele>
        <time>2015-02-16T21:12:05.618Z</time>
      </trkpt>
      <trkpt lat="48.85799" lon="2.31485">
        <ele>91.1</ele>
        <time>2015-02-16T21:12:06.584Z</time>
      </trkpt>
      <trkpt lat="48.85801" lon="2.31479">
        <ele>91.3</ele>
        <time>2015-02-16T21:12:07.626Z</time>
      </trkpt>
      <trkpt lat="48.85803" lon="2.31472">
        <ele>91.4</ele>
        <time>2015-02-16T21:12:08.681Z</time>
      </trkpt>
      <trkpt lat="48.85806" lon="2.31465">
        <ele>91.5</ele>
        <time>2015-02-16T21:12:09.793Z</time>
      </trkpt>
      <trkpt lat="48.8581" lon="2.3146">
        <ele>91.5</ele>
        <time>2015-02-16T21:12:10.621Z</time>
      </trkpt>
      <trkpt lat="48.85813" lon="2.31455">
        <ele>91.5</ele>
        <time>2015-02-16T21:12:11.653Z</time>
      </trkpt>
      <trkpt lat="48.85817" lon="2.31451">
        <ele>91.5</ele>
        <time>2015-02-16T21:12:12.565Z</time>
      </trkpt>
      <trkpt lat="48.85821" lon="2.31448">
        <ele>91.8</ele>
        <time>2015-02-16T21:12:13.624Z</time>
      </trkpt>
      <trkpt lat="48.85825" lon="2.31444">
        <ele>91.8</ele>
        <time>2015-02-16T21:12:14.637Z</time>
      </trkpt>
      <trkpt lat="48.85831" lon="2.31434">
        <ele>91.8</ele>
        <time>2015-02-16T21:12:16.599Z</time>
      </trkpt>
      <trkpt lat="48.85833" lon="2.31428">
        <ele>91.8</ele>
        <time>2015-02-16T21:12:17.637Z</time>
      </trkpt>
      <trkpt lat="48.85835" lon="2.31421">
        <ele>91.9</ele>
        <time>2015-02-16T21:12:18.641Z</time>
      </trkpt>
      <trkpt lat="48.85836" lon="2.31414">
        <ele>91.8</ele>
        <time>2015-02-16T21:12:19.646Z</time>
      </trkpt>
      <trkpt lat="48.85837" lon="2.31407">
        <ele>91.7</ele>
        <time>2015-02-16T21:12:20.650Z</time>
      </trkpt>
      <trkpt lat="48.85838" lon="2.314">
        <ele>91.6</ele>
        <time>2015-02-16T21:12:21.650Z</time>
      </trkpt>
      <trkpt lat="48.85839" lon="2.31387">
        <ele>91.3</ele>
        <time>2015-02-16T21:12:23.578Z</time>
      </trkpt>
      <trkpt lat="48.8584" lon="2.31381">
        <ele>90.9</ele>
        <time>2015-02-16T21:12:24.591Z</time>
      </trkpt>
      <trkpt lat="48.85841" lon="2.31368">
        <ele>90.6</ele>
        <time>2015-02-16T21:12:26.644Z</time>
      </trkpt>
      <trkpt lat="48.85841" lon="2.31361">
        <ele>90.3</ele>
        <time>2015-02-16T21:12:27.576Z</time>
      </trkpt>
      <trkpt lat="48.85844" lon="2.31349">
        <ele>90.2</ele>
        <time>2015-02-16T21:12:29.592Z</time>
      </trkpt>
      <trkpt lat="48.85847" lon="2.31344">
        <ele>90.1</ele>
        <time>2015-02-16T21:12:30.686Z</time>
      </trkpt>
      <trkpt lat="48.85854" lon="2.31338">
        <ele>90</ele>
        <time>2015-02-16T21:12:32.627Z</time>
      </trkpt>
      <trkpt lat="48.85858" lon="2.31335">
        <ele>89.9</ele>
        <time>2015-02-16T21:12:33.637Z</time>
      </trkpt>
      <trkpt lat="48.85862" lon="2.31331">
        <ele>89.7</ele>
        <time>2015-02-16T21:12:34.665Z</time>
      </trkpt>
      <trkpt lat="48.85866" lon="2.31327">
        <ele>89.6</ele>
        <time>2015-02-16T21:12:35.774Z</time>
      </trkpt>
      <trkpt lat="48.85872" lon="2.31318">
        <ele>89.3</ele>
        <time>2015-02-16T21:12:37.614Z</time>
      </trkpt>
      <trkpt lat="48.85875" lon="2.31312">
        <ele>89.1</ele>
        <time>2015-02-16T21:12:38.605Z</time>
      </trkpt>
      <trkpt lat="48.85878" lon="2.313">
        <ele>88.8</ele>
        <time>2015-02-16T21:12:40.620Z</time>
      </trkpt>
      <trkpt lat="48.85878" lon="2.31294">
        <ele>88.4</ele>
        <time>2015-02-16T21:12:41.588Z</time>
      </trkpt>
      <trkpt lat="48.85878" lon="2.31282">
        <ele>88.1</ele>
        <time>2015-02-16T21:12:43.613Z</time>
      </trkpt>
      <trkpt lat="48.85877" lon="2.31276">
        <ele>87.8</ele>
        <time>2015-02-16T21:12:44.634Z</time>
      </trkpt>
      <trkpt lat="48.85874" lon="2.31265">
        <ele>87.6</ele>
        <time>2015-02-16T21:12:46.579Z</time>
      </trkpt>
      <trkpt lat="48.85873" lon="2.31259">
        <ele>87.5</ele>
        <time>2015-02-16T21:12:47.592Z</time>
      </trkpt>
      <trkpt lat="48.85868" lon="2.3125">
        <ele>87.4</ele>
        <time>2015-02-16T21:12:49.613Z</time>
      </trkpt>
      <trkpt lat="48.85866" lon="2.31247">
        <ele>87.4</ele>
        <time>2015-02-16T21:12:50.622Z</time>
      </trkpt>
      <trkpt lat="48.8586" lon="2.3124">
        <ele>87.2</ele>
        <time>2015-02-16T21:12:52.656Z</time>
      </trkpt>
      <trkpt lat="48.85858" lon="2.31237">
        <ele>87.3</ele>
        <time>2015-02-16T21:12:53.669Z</time>
      </trkpt>
      <trkpt lat="48.85853" lon="2.3123">
        <ele>87.4</ele>
        <time>2015-02-16T21:12:55.615Z</time>
      </trkpt>
      <trkpt lat="48.85852" lon="2.31225">
        <ele>87.4</ele>
        <time>2015-02-16T21:12:56.620Z</time>
      </trkpt>
      <trkpt lat="48.85851" lon="2.31215">
        <ele>87.3</ele>
        <time>2015-02-16T21:12:58.577Z</time>
      </trkpt>
      <trkpt lat="48.8585" lon="2.3121">
        <ele>87.3</ele>
        <time>2015-02-16T21:12:59.579Z</time>
      </trkpt>
      <trkpt lat="48.8585" lon="2.312">
        <ele>86.7</ele>
        <time>2015-02-16T21:13:01.612Z</time>
      </trkpt>
      <trkpt lat="48.8585" lon="2.31194">
        <ele>86.7</ele>
        <time>2015-02-16T21:13:02.617Z</time>
      </trkpt>
      <trkpt lat="48.85849" lon="2.31183">
        <ele>87</ele>
        <time>2015-02-16T21:13:04.588Z</time>
      </trkpt>
      <trkpt lat="48.85849" lon="2.31177">
        <ele>87</ele>
        <time>2015-02-16T21:13:05.597Z</time>
      </trkpt>
      <trkpt lat="48.85849" lon="2.31165">
        <ele>87.2</ele>
        <time>2015-02-16T21:13:07.597Z</time>
      </trkpt>
      <trkpt lat="48.85849" lon="2.31159">
        <ele>87.3</ele>
        <time>2015-02-16T21:13:08.601Z</time>
      </trkpt>
      <trkpt lat="48.85848" lon="2.31146">
        <ele>88.3</ele>
        <time>2015-02-16T21:13:11.544Z</time>
      </trkpt>
      <trkpt lat="48.85847" lon="2.31143">
        <ele>88.9</ele>
        <time>2015-02-16T21:13:12.577Z</time>
      </trkpt>
      <trkpt lat="48.85841" lon="2.31134">
        <ele>89</ele>
        <time>2015-02-16T21:13:15.658Z</time>
      </trkpt>
      <trkpt lat="48.85838" lon="2.31132">
        <ele>88.5</ele>
        <time>2015-02-16T21:13:16.579Z</time>
      </trkpt>
      <trkpt lat="48.85831" lon="2.31129">
        <ele>87.9</ele>
        <time>2015-02-16T21:13:18.544Z</time>
      </trkpt>
      <trkpt lat="48.85827" lon="2.31127">
        <ele>87.4</ele>
        <time>2015-02-16T21:13:19.600Z</time>
      </trkpt>
      <trkpt lat="48.85821" lon="2.3112">
        <ele>87.1</ele>
        <time>2015-02-16T21:13:21.628Z</time>
      </trkpt>
      <trkpt lat="48.85818" lon="2.31116">
        <ele>86.8</ele>
        <time>2015-02-16T21:13:22.669Z</time>
      </trkpt>
      <trkpt lat="48.85813" lon="2.31107">
        <ele>86.3</ele>
        <time>2015-02-16T21:13:24.592Z</time>
      </trkpt>
      <trkpt lat="48.85812" lon="2.31102">
        <ele>86.4</ele>
        <time>2015-02-16T21:13:25.584Z</time>
      </trkpt>
      <trkpt lat="48.85808" lon="2.31093">
        <ele>86.8</ele>
        <time>2015-02-16T21:13:27.589Z</time>
      </trkpt>
      <trkpt lat="48.85808" lon="2.31088">
        <ele>86.5</ele>
        <time>2015-02-16T21:13:28.585Z</time>
      </trkpt>
      <trkpt lat="48.85806" lon="2.31079">
        <ele>85.9</ele>
        <time>2015-02-16T21:13:30.621Z</time>
      </trkpt>
      <trkpt lat="48.85805" lon="2.31074">
        <ele>85.8</ele>
        <time>2015-02-16T21:13:31.606Z</time>
      </trkpt>
      <trkpt lat="48.85806" lon="2.31063">
        <ele>85.1</ele>
        <time>2015-02-16T21:13:33.634Z</time>
      </trkpt>
      <trkpt lat="48.85806" lon="2.31057">
        <ele>85</ele>
        <time>2015-02-16T21:13:34.625Z</time>
      </trkpt>
      <trkpt lat="48.85807" lon="2.31046">
        <ele>84.9</ele>
        <time>2015-02-16T21:13:36.657Z</time>
      </trkpt>
      <trkpt lat="48.85808" lon="2.31039">
        <ele>84.7</ele>
        <time>2015-02-16T21:13:37.610Z</time>
      </trkpt>
      <trkpt lat="48.85808" lon="2.31033">
        <ele>84.8</ele>
        <time>2015-02-16T21:13:38.613Z</time>
      </trkpt>
      <trkpt lat="48.85812" lon="2.31024">
        <ele>84.8</ele>
        <time>2015-02-16T21:13:39.620Z</time>
      </trkpt>
      <trkpt lat="48.85814" lon="2.31016">
        <ele>85.2</ele>
        <time>2015-02-16T21:13:40.634Z</time>
      </trkpt>
      <trkpt lat="48.85817" lon="2.31008">
        <ele>85.6</ele>
        <time>2015-02-16T21:13:41.661Z</time>
      </trkpt>
      <trkpt lat="48.85822" lon="2.30998">
        <ele>86.3</ele>
        <time>2015-02-16T21:13:44.616Z</time>
      </trkpt>
      <trkpt lat="48.85825" lon="2.30998">
        <ele>86.4</ele>
        <time>2015-02-16T21:13:45.605Z</time>
      </trkpt>
      <trkpt lat="48.85831" lon="2.30999">
        <ele>86.7</ele>
        <time>2015-02-16T21:13:47.571Z</time>
      </trkpt>
      <trkpt lat="48.85835" lon="2.30999">
        <ele>86.8</ele>
        <time>2015-02-16T21:13:48.673Z</time>
      </trkpt>
      <trkpt lat="48.85843" lon="2.30999">
        <ele>87.1</ele>
        <time>2015-02-16T21:13:51.211Z</time>
      </trkpt>
      <trkpt lat="48.85847" lon="2.30999">
        <ele>87.3</ele>
        <time>2015-02-16T21:13:51.572Z</time>
      </trkpt>
      <trkpt lat="48.85856" lon="2.31">
        <ele>87.5</ele>
        <time>2015-02-16T21:13:53.597Z</time>
      </trkpt>
      <trkpt lat="48.85861" lon="2.31">
        <ele>87.8</ele>
        <time>2015-02-16T21:13:54.604Z</time>
      </trkpt>
      <trkpt lat="48.85869" lon="2.31001">
        <ele>88.1</ele>
        <time>2015-02-16T21:13:56.546Z</time>
      </trkpt>
      <trkpt lat="48.85873" lon="2.31002">
        <ele>88.1</ele>
        <time>2015-02-16T21:13:57.571Z</time>
      </trkpt>
      <trkpt lat="48.85881" lon="2.31001">
        <ele>88.2</ele>
        <time>2015-02-16T21:13:59.682Z</time>
      </trkpt>
      <trkpt lat="48.85885" lon="2.31001">
        <ele>88.3</ele>
        <time>2015-02-16T21:14:00.545Z</time>
      </trkpt>
      <trkpt lat="48.85889" lon="2.31001">
        <ele>88.4</ele>
        <time>2015-02-16T21:14:01.641Z</time>
      </trkpt>
      <trkpt lat="48.85894" lon="2.31001">
        <ele>88.5</ele>
        <time>2015-02-16T21:14:02.650Z</time>
      </trkpt>
      <trkpt lat="48.85899" lon="2.31">
        <ele>88.7</ele>
        <time>2015-02-16T21:14:03.559Z</time>
      </trkpt>
      <trkpt lat="48.85903" lon="2.31">
        <ele>88.8</ele>
        <time>2015-02-16T21:14:04.559Z</time>
      </trkpt>
      <trkpt lat="48.85908" lon="2.31">
        <ele>88.8</ele>
        <time>2015-02-16T21:14:05.569Z</time>
      </trkpt>
      <trkpt lat="48.85913" lon="2.30999">
        <ele>88.9</ele>
        <time>2015-02-16T21:14:06.587Z</time>
      </trkpt>
      <trkpt lat="48.85919" lon="2.30997">
        <ele>89</ele>
        <time>2015-02-16T21:14:07.610Z</time>
      </trkpt>
      <trkpt lat="48.85924" lon="2.30997">
        <ele>89</ele>
        <time>2015-02-16T21:14:08.631Z</time>
      </trkpt>
      <trkpt lat="48.85928" lon="2.30996">
        <ele>89.2</ele>
        <time>2015-02-16T21:14:09.544Z</time>
      </trkpt>
      <trkpt lat="48.85933" lon="2.30996">
        <ele>89.3</ele>
        <time>2015-02-16T21:14:10.548Z</time>
      </trkpt>
      <trkpt lat="48.85937" lon="2.30995">
        <ele>89.8</ele>
        <time>2015-02-16T21:14:11.551Z</time>
      </trkpt>
      <trkpt lat="48.85942" lon="2.30995">
        <ele>90</ele>
        <time>2015-02-16T21:14:12.560Z</time>
      </trkpt>
      <trkpt lat="48.85947" lon="2.30995">
        <ele>90</ele>
        <time>2015-02-16T21:14:13.606Z</time>
      </trkpt>
      <trkpt lat="48.85952" lon="2.30995">
        <ele>90.1</ele>
        <time>2015-02-16T21:14:14.640Z</time>
      </trkpt>
      <trkpt lat="48.85957" lon="2.30997">
        <ele>90</ele>
        <time>2015-02-16T21:14:15.665Z</time>
      </trkpt>
      <trkpt lat="48.85962" lon="2.30998">
        <ele>90</ele>
        <time>2015-02-16T21:14:16.553Z</time>
      </trkpt>
      <trkpt lat="48.85969" lon="2.31001">
        <ele>90.7</ele>
        <time>2015-02-16T21:14:17.558Z</time>
      </trkpt>
      <trkpt lat="48.85977" lon="2.31005">
        <ele>91.3</ele>
        <time>2015-02-16T21:14:18.563Z</time>
      </trkpt>
      <trkpt lat="48.85983" lon="2.31008">
        <ele>91.7</ele>
        <time>2015-02-16T21:14:19.636Z</time>
      </trkpt>
      <trkpt lat="48.85989" lon="2.3101">
        <ele>92.3</ele>
        <time>2015-02-16T21:14:20.578Z</time>
      </trkpt>
      <trkpt lat="48.85994" lon="2.3101">
        <ele>92.5</ele>
        <time>2015-02-16T21:14:21.604Z</time>
      </trkpt>
      <trkpt lat="48.85999" lon="2.3101">
        <ele>92.7</ele>
        <time>2015-02-16T21:14:22.607Z</time>
      </trkpt>
      <trkpt lat="48.86004" lon="2.3101">
        <ele>92.7</ele>
        <time>2015-02-16T21:14:23.646Z</time>
      </trkpt>
      <trkpt lat="48.86009" lon="2.31009">
        <ele>92.8</ele>
        <time>2015-02-16T21:14:24.562Z</time>
      </trkpt>
      <trkpt lat="48.86014" lon="2.31008">
        <ele>92.8</ele>
        <time>2015-02-16T21:14:25.598Z</time>
      </trkpt>
      <trkpt lat="48.8602" lon="2.31008">
        <ele>92.8</ele>
        <time>2015-02-16T21:14:26.618Z</time>
      </trkpt>
      <trkpt lat="48.86025" lon="2.31008">
        <ele>92.9</ele>
        <time>2015-02-16T21:14:27.629Z</time>
      </trkpt>
      <trkpt lat="48.8603" lon="2.31009">
        <ele>93</ele>
        <time>2015-02-16T21:14:28.634Z</time>
      </trkpt>
      <trkpt lat="48.86035" lon="2.31009">
        <ele>93</ele>
        <time>2015-02-16T21:14:29.649Z</time>
      </trkpt>
      <trkpt lat="48.86039" lon="2.31009">
        <ele>93</ele>
        <time>2015-02-16T21:14:30.653Z</time>
      </trkpt>
      <trkpt lat="48.86048" lon="2.31007">
        <ele>93.5</ele>
        <time>2015-02-16T21:14:32.563Z</time>
      </trkpt>
      <trkpt lat="48.86052" lon="2.31006">
        <ele>93.5</ele>
        <time>2015-02-16T21:14:33.558Z</time>
      </trkpt>
      <trkpt lat="48.86059" lon="2.31005">
        <ele>93.5</ele>
        <time>2015-02-16T21:14:35.582Z</time>
      </trkpt>
      <trkpt lat="48.86063" lon="2.31006">
        <ele>93.6</ele>
        <time>2015-02-16T21:14:36.650Z</time>
      </trkpt>
      <trkpt lat="48.86068" lon="2.31007">
        <ele>93.6</ele>
        <time>2015-02-16T21:14:37.706Z</time>
      </trkpt>
      <trkpt lat="48.86075" lon="2.31008">
        <ele>94</ele>
        <time>2015-02-16T21:14:38.568Z</time>
      </trkpt>
      <trkpt lat="48.86084" lon="2.31009">
        <ele>94.3</ele>
        <time>2015-02-16T21:14:39.583Z</time>
      </trkpt>
      <trkpt lat="48.86088" lon="2.31012">
        <ele>94.4</ele>
        <time>2015-02-16T21:14:40.594Z</time>
      </trkpt>
      <trkpt lat="48.86096" lon="2.31016">
        <ele>94.4</ele>
        <time>2015-02-16T21:14:43.665Z</time>
      </trkpt>
      <trkpt lat="48.86101" lon="2.31018">
        <ele>94.7</ele>
        <time>2015-02-16T21:14:43.719Z</time>
      </trkpt>
      <trkpt lat="48.86106" lon="2.3102">
        <ele>95</ele>
        <time>2015-02-16T21:14:44.557Z</time>
      </trkpt>
      <trkpt lat="48.86111" lon="2.31022">
        <ele>95.1</ele>
        <time>2015-02-16T21:14:45.558Z</time>
      </trkpt>
      <trkpt lat="48.86118" lon="2.31024">
        <ele>95.4</ele>
        <time>2015-02-16T21:14:47.586Z</time>
      </trkpt>
      <trkpt lat="48.86123" lon="2.31025">
        <ele>95.6</ele>
        <time>2015-02-16T21:14:48.605Z</time>
      </trkpt>
      <trkpt lat="48.86128" lon="2.31024">
        <ele>95.7</ele>
        <time>2015-02-16T21:14:49.637Z</time>
      </trkpt>
      <trkpt lat="48.86133" lon="2.31024">
        <ele>95.7</ele>
        <time>2015-02-16T21:14:50.646Z</time>
      </trkpt>
      <trkpt lat="48.86137" lon="2.31023">
        <ele>95.7</ele>
        <time>2015-02-16T21:14:52.049Z</time>
      </trkpt>
      <trkpt lat="48.86143" lon="2.31022">
        <ele>95.9</ele>
        <time>2015-02-16T21:14:52.656Z</time>
      </trkpt>
      <trkpt lat="48.86147" lon="2.3102">
        <ele>96.2</ele>
        <time>2015-02-16T21:14:53.564Z</time>
      </trkpt>
      <trkpt lat="48.86152" lon="2.31019">
        <ele>96.4</ele>
        <time>2015-02-16T21:14:54.564Z</time>
      </trkpt>
      <trkpt lat="48.86156" lon="2.31018">
        <ele>96.5</ele>
        <time>2015-02-16T21:14:55.585Z</time>
      </trkpt>
      <trkpt lat="48.86163" lon="2.31018">
        <ele>96.8</ele>
        <time>2015-02-16T21:14:56.587Z</time>
      </trkpt>
      <trkpt lat="48.86169" lon="2.31017">
        <ele>97</ele>
        <time>2015-02-16T21:14:57.615Z</time>
      </trkpt>
      <trkpt lat="48.86176" lon="2.31017">
        <ele>97.2</ele>
        <time>2015-02-16T21:14:58.621Z</time>
      </trkpt>
      <trkpt lat="48.86182" lon="2.31018">
        <ele>97.1</ele>
        <time>2015-02-16T21:14:59.623Z</time>
      </trkpt>
      <trkpt lat="48.86188" lon="2.31019">
        <ele>97.1</ele>
        <time>2015-02-16T21:15:00.530Z</time>
      </trkpt>
      <trkpt lat="48.86195" lon="2.3102">
        <ele>97</ele>
        <time>2015-02-16T21:15:02.623Z</time>
      </trkpt>
      <trkpt lat="48.86199" lon="2.3102">
        <ele>97</ele>
        <time>2015-02-16T21:15:03.645Z</time>
      </trkpt>
      <trkpt lat="48.86206" lon="2.31022">
        <ele>97.2</ele>
        <time>2015-02-16T21:15:05.621Z</time>
      </trkpt>
      <trkpt lat="48.86211" lon="2.31022">
        <ele>97.4</ele>
        <time>2015-02-16T21:15:06.636Z</time>
      </trkpt>
      <trkpt lat="48.86216" lon="2.31023">
        <ele>97.9</ele>
        <time>2015-02-16T21:15:07.664Z</time>
      </trkpt>
      <trkpt lat="48.8622" lon="2.31024">
        <ele>98</ele>
        <time>2015-02-16T21:15:08.575Z</time>
      </trkpt>
      <trkpt lat="48.86229" lon="2.31028">
        <ele>97.6</ele>
        <time>2015-02-16T21:15:11.588Z</time>
      </trkpt>
      <trkpt lat="48.86232" lon="2.3103">
        <ele>97.3</ele>
        <time>2015-02-16T21:15:12.602Z</time>
      </trkpt>
      <trkpt lat="48.8624" lon="2.31035">
        <ele>96</ele>
        <time>2015-02-16T21:15:15.577Z</time>
      </trkpt>
      <trkpt lat="48.86241" lon="2.31036">
        <ele>95.6</ele>
        <time>2015-02-16T21:15:16.589Z</time>
      </trkpt>
      <trkpt lat="48.86247" lon="2.3104">
        <ele>94.7</ele>
        <time>2015-02-16T21:15:18.631Z</time>
      </trkpt>
      <trkpt lat="48.8625" lon="2.31042">
        <ele>95</ele>
        <time>2015-02-16T21:15:19.642Z</time>
      </trkpt>
      <trkpt lat="48.86252" lon="2.31043">
        <ele>95.4</ele>
        <time>2015-02-16T21:15:20.563Z</time>
      </trkpt>
      <trkpt lat="48.86252" lon="2.31044">
        <ele>95.3</ele>
        <time>2015-02-16T21:15:21.577Z</time>
      </trkpt>
      <trkpt lat="48.86252" lon="2.31044">
        <ele>95</ele>
        <time>2015-02-16T21:15:22.594Z</time>
      </trkpt>
      <trkpt lat="48.86251" lon="2.31045">
        <ele>93.9</ele>
        <time>2015-02-16T21:15:23.612Z</time>
      </trkpt>
      <trkpt lat="48.86251" lon="2.31045">
        <ele>93.3</ele>
        <time>2015-02-16T21:15:24.590Z</time>
      </trkpt>
      <trkpt lat="48.86251" lon="2.31046">
        <ele>92.4</ele>
        <time>2015-02-16T21:15:30.831Z</time>
      </trkpt>
      <trkpt lat="48.86252" lon="2.31046">
        <ele>91.9</ele>
        <time>2015-02-16T21:15:31.623Z</time>
      </trkpt>
      <trkpt lat="48.86252" lon="2.31046">
        <ele>91.9</ele>
        <time>2015-02-16T21:15:32.613Z</time>
      </trkpt>
      <trkpt lat="48.86252" lon="2.31047">
        <ele>91.8</ele>
        <time>2015-02-16T21:15:45.828Z</time>
      </trkpt>
      <trkpt lat="48.8625" lon="2.31049">
        <ele>91.8</ele>
        <time>2015-02-16T21:15:46.609Z</time>
      </trkpt>
      <trkpt lat="48.8625" lon="2.31049">
        <ele>91.7</ele>
        <time>2015-02-16T21:15:47.653Z</time>
      </trkpt>
      <trkpt lat="48.8625" lon="2.31049">
        <ele>91.5</ele>
        <time>2015-02-16T21:15:48.649Z</time>
      </trkpt>
      <trkpt lat="48.8625" lon="2.31049">
        <ele>91.4</ele>
        <time>2015-02-16T21:15:51.567Z</time>
      </trkpt>
      <trkpt lat="48.86252" lon="2.31049">
        <ele>90.9</ele>
        <time>2015-02-16T21:15:52.571Z</time>
      </trkpt>
      <trkpt lat="48.8626" lon="2.31052">
        <ele>90.5</ele>
        <time>2015-02-16T21:16:00.635Z</time>
      </trkpt>
      <trkpt lat="48.86259" lon="2.31052">
        <ele>90.2</ele>
        <time>2015-02-16T21:16:01.641Z</time>
      </trkpt>
      <trkpt lat="48.8626" lon="2.31052">
        <ele>89.9</ele>
        <time>2015-02-16T21:16:02.644Z</time>
      </trkpt>
      <trkpt lat="48.86268" lon="2.31052">
        <ele>90.2</ele>
        <time>2015-02-16T21:16:07.575Z</time>
      </trkpt>
      <trkpt lat="48.8627" lon="2.31051">
        <ele>89.7</ele>
        <time>2015-02-16T21:16:08.592Z</time>
      </trkpt>
      <trkpt lat="48.86277" lon="2.3105">
        <ele>89.2</ele>
        <time>2015-02-16T21:16:11.678Z</time>
      </trkpt>
      <trkpt lat="48.8628" lon="2.3105">
        <ele>89.1</ele>
        <time>2015-02-16T21:16:12.635Z</time>
      </trkpt>
      <trkpt lat="48.86286" lon="2.3105">
        <ele>88.6</ele>
        <time>2015-02-16T21:16:14.655Z</time>
      </trkpt>
      <trkpt lat="48.86289" lon="2.3105">
        <ele>88.2</ele>
        <time>2015-02-16T21:16:15.682Z</time>
      </trkpt>
      <trkpt lat="48.86296" lon="2.3105">
        <ele>87.4</ele>
        <time>2015-02-16T21:16:17.568Z</time>
      </trkpt>
      <trkpt lat="48.86299" lon="2.3105">
        <ele>87.1</ele>
        <time>2015-02-16T21:16:18.567Z</time>
      </trkpt>
      <trkpt lat="48.86306" lon="2.31049">
        <ele>86.5</ele>
        <time>2015-02-16T21:16:20.668Z</time>
      </trkpt>
      <trkpt lat="48.86309" lon="2.31049">
        <ele>86.5</ele>
        <time>2015-02-16T21:16:21.545Z</time>
      </trkpt>
      <trkpt lat="48.86315" lon="2.3105">
        <ele>86.3</ele>
        <time>2015-02-16T21:16:23.857Z</time>
      </trkpt>
      <trkpt lat="48.86318" lon="2.3105">
        <ele>86.1</ele>
        <time>2015-02-16T21:16:24.589Z</time>
      </trkpt>
      <trkpt lat="48.86325" lon="2.3105">
        <ele>86.1</ele>
        <time>2015-02-16T21:16:26.624Z</time>
      </trkpt>
      <trkpt lat="48.86328" lon="2.3105">
        <ele>86</ele>
        <time>2015-02-16T21:16:27.682Z</time>
      </trkpt>
      <trkpt lat="48.86335" lon="2.31049">
        <ele>85.6</ele>
        <time>2015-02-16T21:16:29.773Z</time>
      </trkpt>
      <trkpt lat="48.86339" lon="2.31049">
        <ele>85.4</ele>
        <time>2015-02-16T21:16:30.595Z</time>
      </trkpt>
      <trkpt lat="48.86346" lon="2.31049">
        <ele>85.2</ele>
        <time>2015-02-16T21:16:32.678Z</time>
      </trkpt>
      <trkpt lat="48.8635" lon="2.31049">
        <ele>85</ele>
        <time>2015-02-16T21:16:33.597Z</time>
      </trkpt>
      <trkpt lat="48.86357" lon="2.31048">
        <ele>84.7</ele>
        <time>2015-02-16T21:16:35.760Z</time>
      </trkpt>
      <trkpt lat="48.86361" lon="2.31047">
        <ele>84.4</ele>
        <time>2015-02-16T21:16:36.589Z</time>
      </trkpt>
      <trkpt lat="48.86368" lon="2.31047">
        <ele>84.1</ele>
        <time>2015-02-16T21:16:38.628Z</time>
      </trkpt>
      <trkpt lat="48.86372" lon="2.31047">
        <ele>84.2</ele>
        <time>2015-02-16T21:16:39.639Z</time>
      </trkpt>
      <trkpt lat="48.86379" lon="2.31047">
        <ele>84.1</ele>
        <time>2015-02-16T21:16:41.669Z</time>
      </trkpt>
      <trkpt lat="48.86383" lon="2.31046">
        <ele>84.1</ele>
        <time>2015-02-16T21:16:42.699Z</time>
      </trkpt>
      <trkpt lat="48.86389" lon="2.31046">
        <ele>83.9</ele>
        <time>2015-02-16T21:16:44.628Z</time>
      </trkpt>
      <trkpt lat="48.86393" lon="2.31046">
        <ele>83.9</ele>
        <time>2015-02-16T21:16:45.645Z</time>
      </trkpt>
      <trkpt lat="48.86399" lon="2.31045">
        <ele>83.5</ele>
        <time>2015-02-16T21:16:47.585Z</time>
      </trkpt>
      <trkpt lat="48.86402" lon="2.31045">
        <ele>83.7</ele>
        <time>2015-02-16T21:16:48.615Z</time>
      </trkpt>
      <trkpt lat="48.86409" lon="2.31045">
        <ele>83.8</ele>
        <time>2015-02-16T21:16:50.983Z</time>
      </trkpt>
      <trkpt lat="48.86413" lon="2.31045">
        <ele>84</ele>
        <time>2015-02-16T21:16:51.571Z</time>
      </trkpt>
      <trkpt lat="48.86419" lon="2.31044">
        <ele>83.8</ele>
        <time>2015-02-16T21:16:53.605Z</time>
      </trkpt>
      <trkpt lat="48.86423" lon="2.31044">
        <ele>83.8</ele>
        <time>2015-02-16T21:16:54.577Z</time>
      </trkpt>
      <trkpt lat="48.86432" lon="2.31043">
        <ele>84</ele>
        <time>2015-02-16T21:16:57.653Z</time>
      </trkpt>
      <trkpt lat="48.86435" lon="2.31043">
        <ele>84</ele>
        <time>2015-02-16T21:16:58.662Z</time>
      </trkpt>
      <trkpt lat="48.86442" lon="2.31041">
        <ele>84.1</ele>
        <time>2015-02-16T21:17:01.626Z</time>
      </trkpt>
      <trkpt lat="48.86446" lon="2.31041">
        <ele>84.3</ele>
        <time>2015-02-16T21:17:02.631Z</time>
      </trkpt>
      <trkpt lat="48.86454" lon="2.31042">
        <ele>84.3</ele>
        <time>2015-02-16T21:17:06.212Z</time>
      </trkpt>
      <trkpt lat="48.86456" lon="2.31042">
        <ele>84.3</ele>
        <time>2015-02-16T21:17:06.579Z</time>
      </trkpt>
      <trkpt lat="48.86463" lon="2.31042">
        <ele>84.2</ele>
        <time>2015-02-16T21:17:08.619Z</time>
      </trkpt>
      <trkpt lat="48.86466" lon="2.31042">
        <ele>84.1</ele>
        <time>2015-02-16T21:17:09.639Z</time>
      </trkpt>
      <trkpt lat="48.86472" lon="2.31042">
        <ele>84.1</ele>
        <time>2015-02-16T21:17:11.571Z</time>
      </trkpt>
      <trkpt lat="48.86475" lon="2.31042">
        <ele>84.2</ele>
        <time>2015-02-16T21:17:12.602Z</time>
      </trkpt>
      <trkpt lat="48.86482" lon="2.31042">
        <ele>84.3</ele>
        <time>2015-02-16T21:17:14.618Z</time>
      </trkpt>
      <trkpt lat="48.86485" lon="2.31042">
        <ele>84.3</ele>
        <time>2015-02-16T21:17:15.645Z</time>
      </trkpt>
      <trkpt lat="48.86491" lon="2.31042">
        <ele>84.4</ele>
        <time>2015-02-16T21:17:17.578Z</time>
      </trkpt>
      <trkpt lat="48.86494" lon="2.31042">
        <ele>84.4</ele>
        <time>2015-02-16T21:17:18.645Z</time>
      </trkpt>
      <trkpt lat="48.86502" lon="2.31039">
        <ele>84.6</ele>
        <time>2015-02-16T21:17:21.574Z</time>
      </trkpt>
      <trkpt lat="48.86505" lon="2.31038">
        <ele>84.8</ele>
        <time>2015-02-16T21:17:22.666Z</time>
      </trkpt>
      <trkpt lat="48.86512" lon="2.31037">
        <ele>84.7</ele>
        <time>2015-02-16T21:17:25.623Z</time>
      </trkpt>
      <trkpt lat="48.86515" lon="2.31037">
        <ele>84.6</ele>
        <time>2015-02-16T21:17:26.626Z</time>
      </trkpt>
      <trkpt lat="48.86522" lon="2.31035">
        <ele>84.6</ele>
        <time>2015-02-16T21:17:29.559Z</time>
      </trkpt>
      <trkpt lat="48.86524" lon="2.31035">
        <ele>84.7</ele>
        <time>2015-02-16T21:17:30.573Z</time>
      </trkpt>
      <trkpt lat="48.86531" lon="2.31033">
        <ele>85.2</ele>
        <time>2015-02-16T21:17:33.660Z</time>
      </trkpt>
      <trkpt lat="48.86535" lon="2.31032">
        <ele>85.3</ele>
        <time>2015-02-16T21:17:34.565Z</time>
      </trkpt>
      <trkpt lat="48.86541" lon="2.31031">
        <ele>85.4</ele>
        <time>2015-02-16T21:17:36.640Z</time>
      </trkpt>
      <trkpt lat="48.86544" lon="2.3103">
        <ele>85.5</ele>
        <time>2015-02-16T21:17:37.653Z</time>
      </trkpt>
      <trkpt lat="48.86553" lon="2.31026">
        <ele>85.8</ele>
        <time>2015-02-16T21:17:40.575Z</time>
      </trkpt>
      <trkpt lat="48.86556" lon="2.31025">
        <ele>86</ele>
        <time>2015-02-16T21:17:41.534Z</time>
      </trkpt>
      <trkpt lat="48.86562" lon="2.31021">
        <ele>86.2</ele>
        <time>2015-02-16T21:17:43.587Z</time>
      </trkpt>
      <trkpt lat="48.86565" lon="2.31019">
        <ele>86.3</ele>
        <time>2015-02-16T21:17:44.641Z</time>
      </trkpt>
      <trkpt lat="48.86569" lon="2.31017">
        <ele>86.3</ele>
        <time>2015-02-16T21:17:45.668Z</time>
      </trkpt>
      <trkpt lat="48.86574" lon="2.31016">
        <ele>86.4</ele>
        <time>2015-02-16T21:17:46.573Z</time>
      </trkpt>
      <trkpt lat="48.86579" lon="2.31015">
        <ele>86.6</ele>
        <time>2015-02-16T21:17:47.619Z</time>
      </trkpt>
      <trkpt lat="48.86584" lon="2.31015">
        <ele>86.7</ele>
        <time>2015-02-16T21:17:48.641Z</time>
      </trkpt>
      <trkpt lat="48.86589" lon="2.31014">
        <ele>86.9</ele>
        <time>2015-02-16T21:17:49.660Z</time>
      </trkpt>
      <trkpt lat="48.86594" lon="2.31013">
        <ele>87</ele>
        <time>2015-02-16T21:17:50.563Z</time>
      </trkpt>
      <trkpt lat="48.86599" lon="2.31013">
        <ele>87.1</ele>
        <time>2015-02-16T21:17:51.652Z</time>
      </trkpt>
      <trkpt lat="48.86604" lon="2.31013">
        <ele>87.2</ele>
        <time>2015-02-16T21:17:52.561Z</time>
      </trkpt>
      <trkpt lat="48.86609" lon="2.31013">
        <ele>87.2</ele>
        <time>2015-02-16T21:17:53.580Z</time>
      </trkpt>
      <trkpt lat="48.86615" lon="2.31014">
        <ele>87</ele>
        <time>2015-02-16T21:17:54.589Z</time>
      </trkpt>
      <trkpt lat="48.86624" lon="2.31014">
        <ele>87.3</ele>
        <time>2015-02-16T21:17:56.624Z</time>
      </trkpt>
      <trkpt lat="48.86629" lon="2.31014">
        <ele>87.1</ele>
        <time>2015-02-16T21:17:57.631Z</time>
      </trkpt>
      <trkpt lat="48.86634" lon="2.31014">
        <ele>87</ele>
        <time>2015-02-16T21:17:58.654Z</time>
      </trkpt>
      <trkpt lat="48.86638" lon="2.31014">
        <ele>86.9</ele>
        <time>2015-02-16T21:17:59.557Z</time>
      </trkpt>
      <trkpt lat="48.86646" lon="2.31013">
        <ele>86.9</ele>
        <time>2015-02-16T21:18:01.588Z</time>
      </trkpt>
      <trkpt lat="48.8665" lon="2.31013">
        <ele>86.9</ele>
        <time>2015-02-16T21:18:02.535Z</time>
      </trkpt>
      <trkpt lat="48.86657" lon="2.31013">
        <ele>86.9</ele>
        <time>2015-02-16T21:18:04.587Z</time>
      </trkpt>
      <trkpt lat="48.8666" lon="2.31014">
        <ele>86.6</ele>
        <time>2015-02-16T21:18:05.622Z</time>
      </trkpt>
      <trkpt lat="48.86663" lon="2.31015">
        <ele>86.4</ele>
        <time>2015-02-16T21:18:06.661Z</time>
      </trkpt>
      <trkpt lat="48.86669" lon="2.31017">
        <ele>87.1</ele>
        <time>2015-02-16T21:18:07.671Z</time>
      </trkpt>
      <trkpt lat="48.86674" lon="2.31017">
        <ele>87.6</ele>
        <time>2015-02-16T21:18:08.562Z</time>
      </trkpt>
      <trkpt lat="48.86678" lon="2.31017">
        <ele>87.8</ele>
        <time>2015-02-16T21:18:09.561Z</time>
      </trkpt>
      <trkpt lat="48.86685" lon="2.31015">
        <ele>88.3</ele>
        <time>2015-02-16T21:18:11.616Z</time>
      </trkpt>
      <trkpt lat="48.86688" lon="2.31014">
        <ele>88.4</ele>
        <time>2015-02-16T21:18:12.630Z</time>
      </trkpt>
      <trkpt lat="48.86695" lon="2.31013">
        <ele>88.8</ele>
        <time>2015-02-16T21:18:14.576Z</time>
      </trkpt>
      <trkpt lat="48.86699" lon="2.31012">
        <ele>88.9</ele>
        <time>2015-02-16T21:18:15.587Z</time>
      </trkpt>
      <trkpt lat="48.86705" lon="2.31013">
        <ele>89.1</ele>
        <time>2015-02-16T21:18:17.632Z</time>
      </trkpt>
      <trkpt lat="48.86708" lon="2.31013">
        <ele>89.2</ele>
        <time>2015-02-16T21:18:18.639Z</time>
      </trkpt>
      <trkpt lat="48.86715" lon="2.31013">
        <ele>89.3</ele>
        <time>2015-02-16T21:18:20.576Z</time>
      </trkpt>
      <trkpt lat="48.8672" lon="2.31013">
        <ele>89.5</ele>
        <time>2015-02-16T21:18:21.587Z</time>
      </trkpt>
      <trkpt lat="48.86725" lon="2.31012">
        <ele>89.4</ele>
        <time>2015-02-16T21:18:22.609Z</time>
      </trkpt>
      <trkpt lat="48.86729" lon="2.31011">
        <ele>89.6</ele>
        <time>2015-02-16T21:18:23.653Z</time>
      </trkpt>
      <trkpt lat="48.86734" lon="2.31009">
        <ele>90</ele>
        <time>2015-02-16T21:18:24.570Z</time>
      </trkpt>
      <trkpt lat="48.86742" lon="2.31004">
        <ele>90.3</ele>
        <time>2015-02-16T21:18:25.684Z</time>
      </trkpt>
      <trkpt lat="48.86747" lon="2.31004">
        <ele>90.3</ele>
        <time>2015-02-16T21:18:26.575Z</time>
      </trkpt>
      <trkpt lat="48.86752" lon="2.31003">
        <ele>90.4</ele>
        <time>2015-02-16T21:18:27.588Z</time>
      </trkpt>
      <trkpt lat="48.86756" lon="2.31004">
        <ele>90.4</ele>
        <time>2015-02-16T21:18:28.616Z</time>
      </trkpt>
      <trkpt lat="48.86761" lon="2.31004">
        <ele>90.3</ele>
        <time>2015-02-16T21:18:29.630Z</time>
      </trkpt>
      <trkpt lat="48.86769" lon="2.31005">
        <ele>90.2</ele>
        <time>2015-02-16T21:18:31.649Z</time>
      </trkpt>
      <trkpt lat="48.86773" lon="2.31006">
        <ele>90.3</ele>
        <time>2015-02-16T21:18:32.546Z</time>
      </trkpt>
      <trkpt lat="48.86781" lon="2.31005">
        <ele>90.5</ele>
        <time>2015-02-16T21:18:34.572Z</time>
      </trkpt>
      <trkpt lat="48.86785" lon="2.31005">
        <ele>90.5</ele>
        <time>2015-02-16T21:18:35.590Z</time>
      </trkpt>
      <trkpt lat="48.86793" lon="2.31005">
        <ele>90.6</ele>
        <time>2015-02-16T21:18:37.619Z</time>
      </trkpt>
      <trkpt lat="48.86796" lon="2.31006">
        <ele>90.7</ele>
        <time>2015-02-16T21:18:38.623Z</time>
      </trkpt>
      <trkpt lat="48.86801" lon="2.31006">
        <ele>90.5</ele>
        <time>2015-02-16T21:18:39.649Z</time>
      </trkpt>
      <trkpt lat="48.86805" lon="2.31007">
        <ele>90.5</ele>
        <time>2015-02-16T21:18:40.565Z</time>
      </trkpt>
      <trkpt lat="48.86814" lon="2.31007">
        <ele>90.4</ele>
        <time>2015-02-16T21:18:42.591Z</time>
      </trkpt>
      <trkpt lat="48.86819" lon="2.31006">
        <ele>90.2</ele>
        <time>2015-02-16T21:18:43.625Z</time>
      </trkpt>
      <trkpt lat="48.86827" lon="2.31006">
        <ele>90.1</ele>
        <time>2015-02-16T21:18:45.574Z</time>
      </trkpt>
      <trkpt lat="48.86834" lon="2.31008">
        <ele>91.6</ele>
        <time>2015-02-16T21:18:46.584Z</time>
      </trkpt>
      <trkpt lat="48.86841" lon="2.3101">
        <ele>91.7</ele>
        <time>2015-02-16T21:18:48.641Z</time>
      </trkpt>
      <trkpt lat="48.86845" lon="2.31011">
        <ele>91.7</ele>
        <time>2015-02-16T21:18:49.651Z</time>
      </trkpt>
      <trkpt lat="48.86852" lon="2.31013">
        <ele>92.2</ele>
        <time>2015-02-16T21:18:51.560Z</time>
      </trkpt>
      <trkpt lat="48.86856" lon="2.31013">
        <ele>92.1</ele>
        <time>2015-02-16T21:18:52.582Z</time>
      </trkpt>
      <trkpt lat="48.86864" lon="2.31014">
        <ele>92.6</ele>
        <time>2015-02-16T21:18:54.586Z</time>
      </trkpt>
      <trkpt lat="48.86867" lon="2.31016">
        <ele>92.6</ele>
        <time>2015-02-16T21:18:55.634Z</time>
      </trkpt>
      <trkpt lat="48.86873" lon="2.31024">
        <ele>92</ele>
        <time>2015-02-16T21:18:57.554Z</time>
      </trkpt>
      <trkpt lat="48.86875" lon="2.31027">
        <ele>91.8</ele>
        <time>2015-02-16T21:18:58.587Z</time>
      </trkpt>
      <trkpt lat="48.86881" lon="2.31036">
        <ele>90.8</ele>
        <time>2015-02-16T21:19:01.657Z</time>
      </trkpt>
      <trkpt lat="48.86883" lon="2.31038">
        <ele>90.3</ele>
        <time>2015-02-16T21:19:02.609Z</time>
      </trkpt>
      <trkpt lat="48.86889" lon="2.31048">
        <ele>89.3</ele>
        <time>2015-02-16T21:19:05.543Z</time>
      </trkpt>
      <trkpt lat="48.86891" lon="2.31051">
        <ele>89.1</ele>
        <time>2015-02-16T21:19:06.583Z</time>
      </trkpt>
      <trkpt lat="48.86899" lon="2.31056">
        <ele>88.8</ele>
        <time>2015-02-16T21:19:10.575Z</time>
      </trkpt>
      <trkpt lat="48.869" lon="2.31055">
        <ele>88.5</ele>
        <time>2015-02-16T21:19:11.571Z</time>
      </trkpt>
      <trkpt lat="48.86909" lon="2.31053">
        <ele>87.6</ele>
        <time>2015-02-16T21:19:14.574Z</time>
      </trkpt>
      <trkpt lat="48.8691" lon="2.31053">
        <ele>87.3</ele>
        <time>2015-02-16T21:19:15.603Z</time>
      </trkpt>
      <trkpt lat="48.86914" lon="2.31063">
        <ele>87.1</ele>
        <time>2015-02-16T21:19:19.608Z</time>
      </trkpt>
      <trkpt lat="48.86916" lon="2.31066">
        <ele>87.3</ele>
        <time>2015-02-16T21:19:20.670Z</time>
      </trkpt>
      <trkpt lat="48.86919" lon="2.31073">
        <ele>86.7</ele>
        <time>2015-02-16T21:19:22.571Z</time>
      </trkpt>
      <trkpt lat="48.86921" lon="2.31076">
        <ele>86.6</ele>
        <time>2015-02-16T21:19:23.584Z</time>
      </trkpt>
      <trkpt lat="48.86925" lon="2.31087">
        <ele>86.2</ele>
        <time>2015-02-16T21:19:26.570Z</time>
      </trkpt>
      <trkpt lat="48.86926" lon="2.3109">
        <ele>86</ele>
        <time>2015-02-16T21:19:27.607Z</time>
      </trkpt>
      <trkpt lat="48.86928" lon="2.31097">
        <ele>84.4</ele>
        <time>2015-02-16T21:19:32.644Z</time>
      </trkpt>
      <trkpt lat="48.86928" lon="2.31096">
        <ele>84.6</ele>
        <time>2015-02-16T21:19:33.579Z</time>
      </trkpt>
      <trkpt lat="48.86929" lon="2.31096">
        <ele>84.6</ele>
        <time>2015-02-16T21:19:38.580Z</time>
      </trkpt>
      <trkpt lat="48.86931" lon="2.31093">
        <ele>85.3</ele>
        <time>2015-02-16T21:19:39.596Z</time>
      </trkpt>
      <trkpt lat="48.86938" lon="2.31097">
        <ele>85.2</ele>
        <time>2015-02-16T21:19:43.658Z</time>
      </trkpt>
      <trkpt lat="48.8694" lon="2.31101">
        <ele>85</ele>
        <time>2015-02-16T21:19:44.673Z</time>
      </trkpt>
      <trkpt lat="48.86942" lon="2.31114">
        <ele>85</ele>
        <time>2015-02-16T21:19:47.591Z</time>
      </trkpt>
      <trkpt lat="48.86942" lon="2.31119">
        <ele>85</ele>
        <time>2015-02-16T21:19:48.626Z</time>
      </trkpt>
      <trkpt lat="48.86945" lon="2.31127">
        <ele>84.7</ele>
        <time>2015-02-16T21:19:50.639Z</time>
      </trkpt>
      <trkpt lat="48.86946" lon="2.31131">
        <ele>84.7</ele>
        <time>2015-02-16T21:19:51.656Z</time>
      </trkpt>
      <trkpt lat="48.86951" lon="2.3114">
        <ele>84.3</ele>
        <time>2015-02-16T21:19:53.563Z</time>
      </trkpt>
      <trkpt lat="48.86954" lon="2.31145">
        <ele>84.2</ele>
        <time>2015-02-16T21:19:54.586Z</time>
      </trkpt>
      <trkpt lat="48.86957" lon="2.31151">
        <ele>84</ele>
        <time>2015-02-16T21:19:55.619Z</time>
      </trkpt>
      <trkpt lat="48.86961" lon="2.31158">
        <ele>83.7</ele>
        <time>2015-02-16T21:19:56.629Z</time>
      </trkpt>
      <trkpt lat="48.86964" lon="2.31164">
        <ele>83.5</ele>
        <time>2015-02-16T21:19:57.638Z</time>
      </trkpt>
      <trkpt lat="48.86966" lon="2.3117">
        <ele>83.3</ele>
        <time>2015-02-16T21:19:58.645Z</time>
      </trkpt>
      <trkpt lat="48.86968" lon="2.3118">
        <ele>83.2</ele>
        <time>2015-02-16T21:19:59.548Z</time>
      </trkpt>
      <trkpt lat="48.86971" lon="2.31187">
        <ele>83</ele>
        <time>2015-02-16T21:20:00.579Z</time>
      </trkpt>
      <trkpt lat="48.86974" lon="2.31193">
        <ele>82.8</ele>
        <time>2015-02-16T21:20:01.616Z</time>
      </trkpt>
      <trkpt lat="48.86977" lon="2.31198">
        <ele>82.9</ele>
        <time>2015-02-16T21:20:02.662Z</time>
      </trkpt>
      <trkpt lat="48.86982" lon="2.31208">
        <ele>83</ele>
        <time>2015-02-16T21:20:04.580Z</time>
      </trkpt>
      <trkpt lat="48.86985" lon="2.31213">
        <ele>82.7</ele>
        <time>2015-02-16T21:20:05.599Z</time>
      </trkpt>
      <trkpt lat="48.86991" lon="2.31222">
        <ele>82.6</ele>
        <time>2015-02-16T21:20:08.354Z</time>
      </trkpt>
      <trkpt lat="48.86995" lon="2.31227">
        <ele>82.5</ele>
        <time>2015-02-16T21:20:08.597Z</time>
      </trkpt>
      <trkpt lat="48.86999" lon="2.31231">
        <ele>82.3</ele>
        <time>2015-02-16T21:20:09.616Z</time>
      </trkpt>
      <trkpt lat="48.87003" lon="2.31236">
        <ele>82</ele>
        <time>2015-02-16T21:20:10.624Z</time>
      </trkpt>
      <trkpt lat="48.87006" lon="2.31241">
        <ele>81.7</ele>
        <time>2015-02-16T21:20:11.561Z</time>
      </trkpt>
      <trkpt lat="48.87009" lon="2.31246">
        <ele>81.6</ele>
        <time>2015-02-16T21:20:12.595Z</time>
      </trkpt>
      <trkpt lat="48.87012" lon="2.31252">
        <ele>81.4</ele>
        <time>2015-02-16T21:20:13.595Z</time>
      </trkpt>
      <trkpt lat="48.87014" lon="2.31258">
        <ele>81.3</ele>
        <time>2015-02-16T21:20:14.607Z</time>
      </trkpt>
      <trkpt lat="48.87019" lon="2.31269">
        <ele>81.2</ele>
        <time>2015-02-16T21:20:16.642Z</time>
      </trkpt>
      <trkpt lat="48.87022" lon="2.31274">
        <ele>81.2</ele>
        <time>2015-02-16T21:20:17.546Z</time>
      </trkpt>
      <trkpt lat="48.87025" lon="2.31279">
        <ele>81.4</ele>
        <time>2015-02-16T21:20:18.598Z</time>
      </trkpt>
      <trkpt lat="48.87028" lon="2.31283">
        <ele>81.4</ele>
        <time>2015-02-16T21:20:19.600Z</time>
      </trkpt>
      <trkpt lat="48.87032" lon="2.31288">
        <ele>81.4</ele>
        <time>2015-02-16T21:20:21.311Z</time>
      </trkpt>
      <trkpt lat="48.87036" lon="2.31293">
        <ele>81.4</ele>
        <time>2015-02-16T21:20:21.668Z</time>
      </trkpt>
      <trkpt lat="48.87039" lon="2.31298">
        <ele>81.6</ele>
        <time>2015-02-16T21:20:22.631Z</time>
      </trkpt>
      <trkpt lat="48.87045" lon="2.31305">
        <ele>80.3</ele>
        <time>2015-02-16T21:20:23.590Z</time>
      </trkpt>
      <trkpt lat="48.87051" lon="2.31309">
        <ele>79.8</ele>
        <time>2015-02-16T21:20:24.584Z</time>
      </trkpt>
      <trkpt lat="48.87057" lon="2.31315">
        <ele>79</ele>
        <time>2015-02-16T21:20:25.592Z</time>
      </trkpt>
      <trkpt lat="48.87061" lon="2.3132">
        <ele>78.8</ele>
        <time>2015-02-16T21:20:26.610Z</time>
      </trkpt>
      <trkpt lat="48.87065" lon="2.31325">
        <ele>78.6</ele>
        <time>2015-02-16T21:20:27.622Z</time>
      </trkpt>
      <trkpt lat="48.87069" lon="2.31329">
        <ele>78.7</ele>
        <time>2015-02-16T21:20:28.646Z</time>
      </trkpt>
      <trkpt lat="48.87073" lon="2.31332">
        <ele>78.6</ele>
        <time>2015-02-16T21:20:29.558Z</time>
      </trkpt>
      <trkpt lat="48.8708" lon="2.31336">
        <ele>78.9</ele>
        <time>2015-02-16T21:20:31.669Z</time>
      </trkpt>
      <trkpt lat="48.87083" lon="2.31338">
        <ele>79.2</ele>
        <time>2015-02-16T21:20:32.664Z</time>
      </trkpt>
      <trkpt lat="48.8709" lon="2.31343">
        <ele>79.5</ele>
        <time>2015-02-16T21:20:34.564Z</time>
      </trkpt>
      <trkpt lat="48.87093" lon="2.31346">
        <ele>79.5</ele>
        <time>2015-02-16T21:20:35.568Z</time>
      </trkpt>
      <trkpt lat="48.87097" lon="2.31349">
        <ele>79.2</ele>
        <time>2015-02-16T21:20:36.595Z</time>
      </trkpt>
      <trkpt lat="48.87102" lon="2.31353">
        <ele>79.8</ele>
        <time>2015-02-16T21:20:37.608Z</time>
      </trkpt>
      <trkpt lat="48.87107" lon="2.31357">
        <ele>80.1</ele>
        <time>2015-02-16T21:20:38.615Z</time>
      </trkpt>
      <trkpt lat="48.87112" lon="2.3136">
        <ele>80.3</ele>
        <time>2015-02-16T21:20:39.619Z</time>
      </trkpt>
      <trkpt lat="48.87117" lon="2.31362">
        <ele>80.7</ele>
        <time>2015-02-16T21:20:40.629Z</time>
      </trkpt>
      <trkpt lat="48.87121" lon="2.31365">
        <ele>81</ele>
        <time>2015-02-16T21:20:41.631Z</time>
      </trkpt>
      <trkpt lat="48.87125" lon="2.31368">
        <ele>81.5</ele>
        <time>2015-02-16T21:20:42.666Z</time>
      </trkpt>
      <trkpt lat="48.8713" lon="2.31371">
        <ele>81.9</ele>
        <time>2015-02-16T21:20:43.693Z</time>
      </trkpt>
      <trkpt lat="48.87138" lon="2.31377">
        <ele>82.4</ele>
        <time>2015-02-16T21:20:45.584Z</time>
      </trkpt>
      <trkpt lat="48.87141" lon="2.3138">
        <ele>82.6</ele>
        <time>2015-02-16T21:20:46.603Z</time>
      </trkpt>
      <trkpt lat="48.87147" lon="2.31384">
        <ele>83</ele>
        <time>2015-02-16T21:20:48.558Z</time>
      </trkpt>
      <trkpt lat="48.8715" lon="2.31387">
        <ele>83.3</ele>
        <time>2015-02-16T21:20:49.608Z</time>
      </trkpt>
      <trkpt lat="48.87157" lon="2.31396">
        <ele>84.3</ele>
        <time>2015-02-16T21:20:52.564Z</time>
      </trkpt>
      <trkpt lat="48.8716" lon="2.31398">
        <ele>85</ele>
        <time>2015-02-16T21:20:53.648Z</time>
      </trkpt>
      <trkpt lat="48.87166" lon="2.31402">
        <ele>85.5</ele>
        <time>2015-02-16T21:20:55.607Z</time>
      </trkpt>
      <trkpt lat="48.87169" lon="2.31404">
        <ele>85.6</ele>
        <time>2015-02-16T21:20:56.635Z</time>
      </trkpt>
      <trkpt lat="48.87173" lon="2.31412">
        <ele>86</ele>
        <time>2015-02-16T21:20:58.571Z</time>
      </trkpt>
      <trkpt lat="48.87173" lon="2.31416">
        <ele>86.5</ele>
        <time>2015-02-16T21:20:59.580Z</time>
      </trkpt>
      <trkpt lat="48.87173" lon="2.31428">
        <ele>87.4</ele>
        <time>2015-02-16T21:21:02.569Z</time>
      </trkpt>
      <trkpt lat="48.87173" lon="2.31433">
        <ele>87.7</ele>
        <time>2015-02-16T21:21:03.579Z</time>
      </trkpt>
      <trkpt lat="48.87172" lon="2.31442">
        <ele>88.2</ele>
        <time>2015-02-16T21:21:05.635Z</time>
      </trkpt>
      <trkpt lat="48.8717" lon="2.31447">
        <ele>88.3</ele>
        <time>2015-02-16T21:21:06.654Z</time>
      </trkpt>
      <trkpt lat="48.87166" lon="2.31456">
        <ele>88.7</ele>
        <time>2015-02-16T21:21:08.570Z</time>
      </trkpt>
      <trkpt lat="48.87164" lon="2.31461">
        <ele>88.9</ele>
        <time>2015-02-16T21:21:09.547Z</time>
      </trkpt>
      <trkpt lat="48.8716" lon="2.31472">
        <ele>89</ele>
        <time>2015-02-16T21:21:11.637Z</time>
      </trkpt>
      <trkpt lat="48.87157" lon="2.31477">
        <ele>89</ele>
        <time>2015-02-16T21:21:12.567Z</time>
      </trkpt>
      <trkpt lat="48.87153" lon="2.31488">
        <ele>89.2</ele>
        <time>2015-02-16T21:21:14.555Z</time>
      </trkpt>
      <trkpt lat="48.87151" lon="2.31494">
        <ele>89.2</ele>
        <time>2015-02-16T21:21:15.688Z</time>
      </trkpt>
      <trkpt lat="48.87147" lon="2.31506">
        <ele>89.3</ele>
        <time>2015-02-16T21:21:17.567Z</time>
      </trkpt>
      <trkpt lat="48.87145" lon="2.31512">
        <ele>89.4</ele>
        <time>2015-02-16T21:21:18.571Z</time>
      </trkpt>
      <trkpt lat="48.87142" lon="2.31522">
        <ele>89.5</ele>
        <time>2015-02-16T21:21:20.613Z</time>
      </trkpt>
      <trkpt lat="48.8714" lon="2.31527">
        <ele>89.8</ele>
        <time>2015-02-16T21:21:21.632Z</time>
      </trkpt>
      <trkpt lat="48.87138" lon="2.31539">
        <ele>90.2</ele>
        <time>2015-02-16T21:21:23.601Z</time>
      </trkpt>
      <trkpt lat="48.87137" lon="2.31546">
        <ele>90.1</ele>
        <time>2015-02-16T21:21:24.611Z</time>
      </trkpt>
      <trkpt lat="48.87136" lon="2.31555">
        <ele>89.8</ele>
        <time>2015-02-16T21:21:25.622Z</time>
      </trkpt>
      <trkpt lat="48.87134" lon="2.31562">
        <ele>89.6</ele>
        <time>2015-02-16T21:21:26.557Z</time>
      </trkpt>
      <trkpt lat="48.87132" lon="2.3157">
        <ele>89.1</ele>
        <time>2015-02-16T21:21:27.606Z</time>
      </trkpt>
      <trkpt lat="48.87131" lon="2.31576">
        <ele>88.6</ele>
        <time>2015-02-16T21:21:28.614Z</time>
      </trkpt>
      <trkpt lat="48.87129" lon="2.31588">
        <ele>87.9</ele>
        <time>2015-02-16T21:21:30.561Z</time>
      </trkpt>
      <trkpt lat="48.87128" lon="2.31594">
        <ele>87.6</ele>
        <time>2015-02-16T21:21:31.628Z</time>
      </trkpt>
      <trkpt lat="48.87127" lon="2.31607">
        <ele>87.3</ele>
        <time>2015-02-16T21:21:33.541Z</time>
      </trkpt>
      <trkpt lat="48.87126" lon="2.31613">
        <ele>87.2</ele>
        <time>2015-02-16T21:21:34.558Z</time>
      </trkpt>
      <trkpt lat="48.87123" lon="2.31625">
        <ele>87</ele>
        <time>2015-02-16T21:21:36.592Z</time>
      </trkpt>
      <trkpt lat="48.87125" lon="2.31636">
        <ele>88.3</ele>
        <time>2015-02-16T21:21:37.606Z</time>
      </trkpt>
      <trkpt lat="48.87123" lon="2.31648">
        <ele>88.6</ele>
        <time>2015-02-16T21:21:39.538Z</time>
      </trkpt>
      <trkpt lat="48.87124" lon="2.31655">
        <ele>88.8</ele>
        <time>2015-02-16T21:21:40.550Z</time>
      </trkpt>
      <trkpt lat="48.87124" lon="2.31665">
        <ele>88.7</ele>
        <time>2015-02-16T21:21:42.581Z</time>
      </trkpt>
      <trkpt lat="48.87124" lon="2.3167">
        <ele>88.5</ele>
        <time>2015-02-16T21:21:43.577Z</time>
      </trkpt>
      <trkpt lat="48.87126" lon="2.31682">
        <ele>88.3</ele>
        <time>2015-02-16T21:21:45.548Z</time>
      </trkpt>
      <trkpt lat="48.87127" lon="2.31687">
        <ele>88.2</ele>
        <time>2015-02-16T21:21:46.593Z</time>
      </trkpt>
      <trkpt lat="48.8713" lon="2.31699">
        <ele>87.8</ele>
        <time>2015-02-16T21:21:48.759Z</time>
      </trkpt>
      <trkpt lat="48.87132" lon="2.31704">
        <ele>87.4</ele>
        <time>2015-02-16T21:21:49.636Z</time>
      </trkpt>
      <trkpt lat="48.87134" lon="2.31715">
        <ele>87</ele>
        <time>2015-02-16T21:21:51.560Z</time>
      </trkpt>
      <trkpt lat="48.87135" lon="2.31721">
        <ele>86.8</ele>
        <time>2015-02-16T21:21:52.529Z</time>
      </trkpt>
      <trkpt lat="48.87135" lon="2.31733">
        <ele>86.4</ele>
        <time>2015-02-16T21:21:54.557Z</time>
      </trkpt>
      <trkpt lat="48.87135" lon="2.31739">
        <ele>86.3</ele>
        <time>2015-02-16T21:21:55.720Z</time>
      </trkpt>
      <trkpt lat="48.87134" lon="2.3175">
        <ele>86.1</ele>
        <time>2015-02-16T21:21:57.588Z</time>
      </trkpt>
      <trkpt lat="48.87134" lon="2.31756">
        <ele>85.8</ele>
        <time>2015-02-16T21:21:58.594Z</time>
      </trkpt>
      <trkpt lat="48.87135" lon="2.31767">
        <ele>85.4</ele>
        <time>2015-02-16T21:22:00.643Z</time>
      </trkpt>
      <trkpt lat="48.87137" lon="2.31772">
        <ele>85.5</ele>
        <time>2015-02-16T21:22:01.652Z</time>
      </trkpt>
      <trkpt lat="48.8714" lon="2.31784">
        <ele>87</ele>
        <time>2015-02-16T21:22:03.531Z</time>
      </trkpt>
      <trkpt lat="48.8714" lon="2.31787">
        <ele>87.1</ele>
        <time>2015-02-16T21:22:04.618Z</time>
      </trkpt>
      <trkpt lat="48.87139" lon="2.31797">
        <ele>87.4</ele>
        <time>2015-02-16T21:22:07.722Z</time>
      </trkpt>
      <trkpt lat="48.87138" lon="2.31802">
        <ele>87.4</ele>
        <time>2015-02-16T21:22:08.686Z</time>
      </trkpt>
      <trkpt lat="48.87135" lon="2.3181">
        <ele>87.6</ele>
        <time>2015-02-16T21:22:10.540Z</time>
      </trkpt>
      <trkpt lat="48.87134" lon="2.31814">
        <ele>87.6</ele>
        <time>2015-02-16T21:22:11.561Z</time>
      </trkpt>
      <trkpt lat="48.87131" lon="2.31825">
        <ele>87.3</ele>
        <time>2015-02-16T21:22:14.746Z</time>
      </trkpt>
      <trkpt lat="48.87129" lon="2.31828">
        <ele>87.3</ele>
        <time>2015-02-16T21:22:15.572Z</time>
      </trkpt>
      <trkpt lat="48.87125" lon="2.31836">
        <ele>87.3</ele>
        <time>2015-02-16T21:22:17.614Z</time>
      </trkpt>
      <trkpt lat="48.87122" lon="2.3184">
        <ele>87.3</ele>
        <time>2015-02-16T21:22:18.630Z</time>
      </trkpt>
      <trkpt lat="48.87118" lon="2.31848">
        <ele>87.4</ele>
        <time>2015-02-16T21:22:20.547Z</time>
      </trkpt>
      <trkpt lat="48.87115" lon="2.31852">
        <ele>87.5</ele>
        <time>2015-02-16T21:22:21.549Z</time>
      </trkpt>
      <trkpt lat="48.8711" lon="2.31859">
        <ele>87.7</ele>
        <time>2015-02-16T21:22:23.591Z</time>
      </trkpt>
      <trkpt lat="48.87107" lon="2.31863">
        <ele>87.9</ele>
        <time>2015-02-16T21:22:24.597Z</time>
      </trkpt>
      <trkpt lat="48.87101" lon="2.31873">
        <ele>88.3</ele>
        <time>2015-02-16T21:22:26.542Z</time>
      </trkpt>
      <trkpt lat="48.87099" lon="2.31877">
        <ele>88.3</ele>
        <time>2015-02-16T21:22:27.540Z</time>
      </trkpt>
      <trkpt lat="48.87095" lon="2.31886">
        <ele>88.3</ele>
        <time>2015-02-16T21:22:30.182Z</time>
      </trkpt>
      <trkpt lat="48.87092" lon="2.31892">
        <ele>88.2</ele>
        <time>2015-02-16T21:22:30.539Z</time>
      </trkpt>
      <trkpt lat="48.87088" lon="2.31902">
        <ele>88.2</ele>
        <time>2015-02-16T21:22:32.579Z</time>
      </trkpt>
      <trkpt lat="48.87086" lon="2.31907">
        <ele>88.1</ele>
        <time>2015-02-16T21:22:33.585Z</time>
      </trkpt>
      <trkpt lat="48.87082" lon="2.31918">
        <ele>88</ele>
        <time>2015-02-16T21:22:35.586Z</time>
      </trkpt>
      <trkpt lat="48.87081" lon="2.31923">
        <ele>87.9</ele>
        <time>2015-02-16T21:22:36.593Z</time>
      </trkpt>
      <trkpt lat="48.87079" lon="2.31933">
        <ele>88.2</ele>
        <time>2015-02-16T21:22:38.609Z</time>
      </trkpt>
      <trkpt lat="48.87078" lon="2.31938">
        <ele>88.1</ele>
        <time>2015-02-16T21:22:39.625Z</time>
      </trkpt>
      <trkpt lat="48.87076" lon="2.31947">
        <ele>88.3</ele>
        <time>2015-02-16T21:22:41.579Z</time>
      </trkpt>
      <trkpt lat="48.87075" lon="2.31951">
        <ele>88.3</ele>
        <time>2015-02-16T21:22:42.585Z</time>
      </trkpt>
      <trkpt lat="48.87076" lon="2.31963">
        <ele>88.9</ele>
        <time>2015-02-16T21:22:46.586Z</time>
      </trkpt>
      <trkpt lat="48.87077" lon="2.31966">
        <ele>89.3</ele>
        <time>2015-02-16T21:22:47.600Z</time>
      </trkpt>
      <trkpt lat="48.87084" lon="2.31975">
        <ele>89.9</ele>
        <time>2015-02-16T21:22:51.547Z</time>
      </trkpt>
      <trkpt lat="48.87085" lon="2.31978">
        <ele>89.9</ele>
        <time>2015-02-16T21:22:52.544Z</time>
      </trkpt>
      <trkpt lat="48.87091" lon="2.31987">
        <ele>90.1</ele>
        <time>2015-02-16T21:22:55.605Z</time>
      </trkpt>
      <trkpt lat="48.87094" lon="2.31989">
        <ele>90.3</ele>
        <time>2015-02-16T21:22:56.610Z</time>
      </trkpt>
      <trkpt lat="48.87098" lon="2.3199">
        <ele>90.8</ele>
        <time>2015-02-16T21:22:59.746Z</time>
      </trkpt>
      <trkpt lat="48.87099" lon="2.31991">
        <ele>90.8</ele>
        <time>2015-02-16T21:23:00.656Z</time>
      </trkpt>
      <trkpt lat="48.871" lon="2.31994">
        <ele>90.9</ele>
        <time>2015-02-16T21:23:01.637Z</time>
      </trkpt>
      <trkpt lat="48.871" lon="2.32006">
        <ele>91.2</ele>
        <time>2015-02-16T21:23:04.866Z</time>
      </trkpt>
      <trkpt lat="48.87099" lon="2.32011">
        <ele>91.5</ele>
        <time>2015-02-16T21:23:05.603Z</time>
      </trkpt>
      <trkpt lat="48.87099" lon="2.32022">
        <ele>91.3</ele>
        <time>2015-02-16T21:23:07.612Z</time>
      </trkpt>
      <trkpt lat="48.87101" lon="2.3203">
        <ele>92.1</ele>
        <time>2015-02-16T21:23:08.614Z</time>
      </trkpt>
      <trkpt lat="48.87104" lon="2.32042">
        <ele>93.6</ele>
        <time>2015-02-16T21:23:11.420Z</time>
      </trkpt>
      <trkpt lat="48.87103" lon="2.32047">
        <ele>94</ele>
        <time>2015-02-16T21:23:11.568Z</time>
      </trkpt>
      <trkpt lat="48.87097" lon="2.32055">
        <ele>94.2</ele>
        <time>2015-02-16T21:23:13.602Z</time>
      </trkpt>
      <trkpt lat="48.87093" lon="2.3206">
        <ele>94.4</ele>
        <time>2015-02-16T21:23:14.624Z</time>
      </trkpt>
      <trkpt lat="48.87089" lon="2.32064">
        <ele>94.4</ele>
        <time>2015-02-16T21:23:15.538Z</time>
      </trkpt>
      <trkpt lat="48.87085" lon="2.32069">
        <ele>94.5</ele>
        <time>2015-02-16T21:23:16.570Z</time>
      </trkpt>
      <trkpt lat="48.87081" lon="2.32075">
        <ele>94.6</ele>
        <time>2015-02-16T21:23:17.580Z</time>
      </trkpt>
      <trkpt lat="48.87076" lon="2.3208">
        <ele>94.5</ele>
        <time>2015-02-16T21:23:18.524Z</time>
      </trkpt>
      <trkpt lat="48.87072" lon="2.32086">
        <ele>94.4</ele>
        <time>2015-02-16T21:23:19.625Z</time>
      </trkpt>
      <trkpt lat="48.87068" lon="2.32092">
        <ele>94.3</ele>
        <time>2015-02-16T21:23:20.578Z</time>
      </trkpt>
      <trkpt lat="48.87065" lon="2.32098">
        <ele>94.1</ele>
        <time>2015-02-16T21:23:21.678Z</time>
      </trkpt>
      <trkpt lat="48.87062" lon="2.32103">
        <ele>94</ele>
        <time>2015-02-16T21:23:22.614Z</time>
      </trkpt>
      <trkpt lat="48.87058" lon="2.32113">
        <ele>93.5</ele>
        <time>2015-02-16T21:23:24.556Z</time>
      </trkpt>
      <trkpt lat="48.87055" lon="2.32119">
        <ele>93.4</ele>
        <time>2015-02-16T21:23:25.575Z</time>
      </trkpt>
      <trkpt lat="48.87053" lon="2.32125">
        <ele>93.3</ele>
        <time>2015-02-16T21:23:26.579Z</time>
      </trkpt>
      <trkpt lat="48.8705" lon="2.32133">
        <ele>92.9</ele>
        <time>2015-02-16T21:23:27.589Z</time>
      </trkpt>
      <trkpt lat="48.87047" lon="2.32139">
        <ele>92.8</ele>
        <time>2015-02-16T21:23:28.531Z</time>
      </trkpt>
      <trkpt lat="48.87045" lon="2.32145">
        <ele>92.8</ele>
        <time>2015-02-16T21:23:29.538Z</time>
      </trkpt>
      <trkpt lat="48.8704" lon="2.32155">
        <ele>92.6</ele>
        <time>2015-02-16T21:23:31.625Z</time>
      </trkpt>
      <trkpt lat="48.87039" lon="2.32162">
        <ele>92.7</ele>
        <time>2015-02-16T21:23:32.546Z</time>
      </trkpt>
      <trkpt lat="48.87037" lon="2.32168">
        <ele>92.6</ele>
        <time>2015-02-16T21:23:33.539Z</time>
      </trkpt>
      <trkpt lat="48.87035" lon="2.32175">
        <ele>92.8</ele>
        <time>2015-02-16T21:23:34.554Z</time>
      </trkpt>
      <trkpt lat="48.87032" lon="2.32187">
        <ele>92.7</ele>
        <time>2015-02-16T21:23:36.575Z</time>
      </trkpt>
      <trkpt lat="48.8703" lon="2.32195">
        <ele>92.7</ele>
        <time>2015-02-16T21:23:37.602Z</time>
      </trkpt>
      <trkpt lat="48.87028" lon="2.32202">
        <ele>92.8</ele>
        <time>2015-02-16T21:23:38.616Z</time>
      </trkpt>
      <trkpt lat="48.87029" lon="2.3221">
        <ele>92.7</ele>
        <time>2015-02-16T21:23:39.654Z</time>
      </trkpt>
      <trkpt lat="48.8703" lon="2.32216">
        <ele>92.6</ele>
        <time>2015-02-16T21:23:40.543Z</time>
      </trkpt>
      <trkpt lat="48.87031" lon="2.32229">
        <ele>92.1</ele>
        <time>2015-02-16T21:23:42.561Z</time>
      </trkpt>
      <trkpt lat="48.87034" lon="2.32239">
        <ele>91.3</ele>
        <time>2015-02-16T21:23:43.598Z</time>
      </trkpt>
      <trkpt lat="48.87033" lon="2.32252">
        <ele>90.8</ele>
        <time>2015-02-16T21:23:45.621Z</time>
      </trkpt>
      <trkpt lat="48.87033" lon="2.32257">
        <ele>90.8</ele>
        <time>2015-02-16T21:23:46.546Z</time>
      </trkpt>
      <trkpt lat="48.87024" lon="2.32253">
        <ele>91.9</ele>
        <time>2015-02-16T21:23:56.596Z</time>
      </trkpt>
      <trkpt lat="48.87021" lon="2.32251">
        <ele>92</ele>
        <time>2015-02-16T21:23:57.608Z</time>
      </trkpt>
      <trkpt lat="48.87014" lon="2.32247">
        <ele>91.7</ele>
        <time>2015-02-16T21:23:59.534Z</time>
      </trkpt>
      <trkpt lat="48.87009" lon="2.32244">
        <ele>91.5</ele>
        <time>2015-02-16T21:24:00.587Z</time>
      </trkpt>
      <trkpt lat="48.87003" lon="2.32236">
        <ele>91.7</ele>
        <time>2015-02-16T21:24:02.604Z</time>
      </trkpt>
      <trkpt lat="48.87" lon="2.32232">
        <ele>91.8</ele>
        <time>2015-02-16T21:24:03.637Z</time>
      </trkpt>
      <trkpt lat="48.86992" lon="2.32225">
        <ele>92.4</ele>
        <time>2015-02-16T21:24:05.535Z</time>
      </trkpt>
      <trkpt lat="48.86988" lon="2.32223">
        <ele>92.7</ele>
        <time>2015-02-16T21:24:06.544Z</time>
      </trkpt>
      <trkpt lat="48.86983" lon="2.32222">
        <ele>92.9</ele>
        <time>2015-02-16T21:24:07.586Z</time>
      </trkpt>
      <trkpt lat="48.86979" lon="2.32221">
        <ele>93.5</ele>
        <time>2015-02-16T21:24:08.601Z</time>
      </trkpt>
      <trkpt lat="48.8697" lon="2.32216">
        <ele>93.6</ele>
        <time>2015-02-16T21:24:10.530Z</time>
      </trkpt>
      <trkpt lat="48.86966" lon="2.32214">
        <ele>93.7</ele>
        <time>2015-02-16T21:24:11.542Z</time>
      </trkpt>
      <trkpt lat="48.86962" lon="2.32211">
        <ele>93.8</ele>
        <time>2015-02-16T21:24:12.607Z</time>
      </trkpt>
      <trkpt lat="48.86959" lon="2.32206">
        <ele>93.8</ele>
        <time>2015-02-16T21:24:13.633Z</time>
      </trkpt>
      <trkpt lat="48.86955" lon="2.32202">
        <ele>93.9</ele>
        <time>2015-02-16T21:24:14.521Z</time>
      </trkpt>
      <trkpt lat="48.86951" lon="2.32197">
        <ele>93.9</ele>
        <time>2015-02-16T21:24:15.556Z</time>
      </trkpt>
      <trkpt lat="48.86947" lon="2.32191">
        <ele>93.9</ele>
        <time>2015-02-16T21:24:16.562Z</time>
      </trkpt>
      <trkpt lat="48.86945" lon="2.32186">
        <ele>94</ele>
        <time>2015-02-16T21:24:17.566Z</time>
      </trkpt>
      <trkpt lat="48.86939" lon="2.32178">
        <ele>94.1</ele>
        <time>2015-02-16T21:24:19.592Z</time>
      </trkpt>
      <trkpt lat="48.86935" lon="2.32175">
        <ele>94.1</ele>
        <time>2015-02-16T21:24:20.597Z</time>
      </trkpt>
      <trkpt lat="48.86929" lon="2.32168">
        <ele>94</ele>
        <time>2015-02-16T21:24:23.583Z</time>
      </trkpt>
      <trkpt lat="48.86926" lon="2.32163">
        <ele>94</ele>
        <time>2015-02-16T21:24:24.663Z</time>
      </trkpt>
      <trkpt lat="48.86921" lon="2.32153">
        <ele>94.3</ele>
        <time>2015-02-16T21:24:26.632Z</time>
      </trkpt>
      <trkpt lat="48.86919" lon="2.32148">
        <ele>94.6</ele>
        <time>2015-02-16T21:24:27.546Z</time>
      </trkpt>
      <trkpt lat="48.8691" lon="2.32146">
        <ele>94.1</ele>
        <time>2015-02-16T21:24:30.605Z</time>
      </trkpt>
      <trkpt lat="48.86907" lon="2.32148">
        <ele>94.1</ele>
        <time>2015-02-16T21:24:31.619Z</time>
      </trkpt>
      <trkpt lat="48.86902" lon="2.32156">
        <ele>94.3</ele>
        <time>2015-02-16T21:24:32.565Z</time>
      </trkpt>
      <trkpt lat="48.86897" lon="2.32165">
        <ele>94.4</ele>
        <time>2015-02-16T21:24:33.557Z</time>
      </trkpt>
      <trkpt lat="48.86893" lon="2.32173">
        <ele>94.7</ele>
        <time>2015-02-16T21:24:34.584Z</time>
      </trkpt>
      <trkpt lat="48.8689" lon="2.32179">
        <ele>94.9</ele>
        <time>2015-02-16T21:24:35.561Z</time>
      </trkpt>
      <trkpt lat="48.86888" lon="2.32185">
        <ele>95</ele>
        <time>2015-02-16T21:24:36.571Z</time>
      </trkpt>
      <trkpt lat="48.86885" lon="2.32191">
        <ele>95.2</ele>
        <time>2015-02-16T21:24:37.606Z</time>
      </trkpt>
      <trkpt lat="48.86882" lon="2.32198">
        <ele>95.4</ele>
        <time>2015-02-16T21:24:38.541Z</time>
      </trkpt>
      <trkpt lat="48.86879" lon="2.32205">
        <ele>95.7</ele>
        <time>2015-02-16T21:24:39.539Z</time>
      </trkpt>
      <trkpt lat="48.86877" lon="2.32213">
        <ele>95.9</ele>
        <time>2015-02-16T21:24:40.550Z</time>
      </trkpt>
      <trkpt lat="48.86875" lon="2.32221">
        <ele>95.9</ele>
        <time>2015-02-16T21:24:41.612Z</time>
      </trkpt>
      <trkpt lat="48.86871" lon="2.32229">
        <ele>95.8</ele>
        <time>2015-02-16T21:24:42.536Z</time>
      </trkpt>
      <trkpt lat="48.86868" lon="2.32235">
        <ele>96.1</ele>
        <time>2015-02-16T21:24:43.562Z</time>
      </trkpt>
      <trkpt lat="48.86864" lon="2.32242">
        <ele>96.2</ele>
        <time>2015-02-16T21:24:44.627Z</time>
      </trkpt>
      <trkpt lat="48.8686" lon="2.32248">
        <ele>96</ele>
        <time>2015-02-16T21:24:45.563Z</time>
      </trkpt>
      <trkpt lat="48.86857" lon="2.32253">
        <ele>95.9</ele>
        <time>2015-02-16T21:24:46.537Z</time>
      </trkpt>
      <trkpt lat="48.86854" lon="2.32259">
        <ele>95.5</ele>
        <time>2015-02-16T21:24:47.547Z</time>
      </trkpt>
      <trkpt lat="48.86851" lon="2.32266">
        <ele>94.6</ele>
        <time>2015-02-16T21:24:48.564Z</time>
      </trkpt>
      <trkpt lat="48.86847" lon="2.32272">
        <ele>93.9</ele>
        <time>2015-02-16T21:24:49.593Z</time>
      </trkpt>
      <trkpt lat="48.86846" lon="2.32283">
        <ele>92.5</ele>
        <time>2015-02-16T21:24:51.607Z</time>
      </trkpt>
      <trkpt lat="48.86844" lon="2.32288">
        <ele>91.5</ele>
        <time>2015-02-16T21:24:52.553Z</time>
      </trkpt>
      <trkpt lat="48.86846" lon="2.32302">
        <ele>91.2</ele>
        <time>2015-02-16T21:24:55.603Z</time>
      </trkpt>
      <trkpt lat="48.86847" lon="2.32306">
        <ele>91.1</ele>
        <time>2015-02-16T21:24:56.615Z</time>
      </trkpt>
      <trkpt lat="48.86846" lon="2.32319">
        <ele>91.3</ele>
        <time>2015-02-16T21:24:59.591Z</time>
      </trkpt>
      <trkpt lat="48.86845" lon="2.32322">
        <ele>91.5</ele>
        <time>2015-02-16T21:25:00.578Z</time>
      </trkpt>
      <trkpt lat="48.86841" lon="2.32333">
        <ele>92.1</ele>
        <time>2015-02-16T21:25:04.672Z</time>
      </trkpt>
      <trkpt lat="48.86841" lon="2.32336">
        <ele>92.6</ele>
        <time>2015-02-16T21:25:05.561Z</time>
      </trkpt>
      <trkpt lat="48.86836" lon="2.32346">
        <ele>93.3</ele>
        <time>2015-02-16T21:25:08.523Z</time>
      </trkpt>
      <trkpt lat="48.86834" lon="2.3235">
        <ele>93.6</ele>
        <time>2015-02-16T21:25:09.551Z</time>
      </trkpt>
      <trkpt lat="48.86831" lon="2.3236">
        <ele>94.2</ele>
        <time>2015-02-16T21:25:11.674Z</time>
      </trkpt>
      <trkpt lat="48.86829" lon="2.32364">
        <ele>94.4</ele>
        <time>2015-02-16T21:25:12.540Z</time>
      </trkpt>
      <trkpt lat="48.86827" lon="2.32374">
        <ele>95.1</ele>
        <time>2015-02-16T21:25:14.569Z</time>
      </trkpt>
      <trkpt lat="48.86826" lon="2.32379">
        <ele>95.3</ele>
        <time>2015-02-16T21:25:15.608Z</time>
      </trkpt>
      <trkpt lat="48.86822" lon="2.32389">
        <ele>96</ele>
        <time>2015-02-16T21:25:17.540Z</time>
      </trkpt>
      <trkpt lat="48.8682" lon="2.32394">
        <ele>96.1</ele>
        <time>2015-02-16T21:25:18.558Z</time>
      </trkpt>
      <trkpt lat="48.86817" lon="2.32399">
        <ele>95.9</ele>
        <time>2015-02-16T21:25:19.583Z</time>
      </trkpt>
      <trkpt lat="48.86814" lon="2.32405">
        <ele>95.9</ele>
        <time>2015-02-16T21:25:20.588Z</time>
      </trkpt>
      <trkpt lat="48.86811" lon="2.32417">
        <ele>95.8</ele>
        <time>2015-02-16T21:25:22.628Z</time>
      </trkpt>
      <trkpt lat="48.8681" lon="2.32423">
        <ele>95.9</ele>
        <time>2015-02-16T21:25:23.636Z</time>
      </trkpt>
      <trkpt lat="48.86808" lon="2.32434">
        <ele>96.4</ele>
        <time>2015-02-16T21:25:25.584Z</time>
      </trkpt>
      <trkpt lat="48.86807" lon="2.32439">
        <ele>96.5</ele>
        <time>2015-02-16T21:25:26.590Z</time>
      </trkpt>
      <trkpt lat="48.86803" lon="2.32447">
        <ele>96.9</ele>
        <time>2015-02-16T21:25:28.538Z</time>
      </trkpt>
      <trkpt lat="48.86801" lon="2.32451">
        <ele>97.1</ele>
        <time>2015-02-16T21:25:29.556Z</time>
      </trkpt>
      <trkpt lat="48.86795" lon="2.3246">
        <ele>97.4</ele>
        <time>2015-02-16T21:25:31.598Z</time>
      </trkpt>
      <trkpt lat="48.86792" lon="2.32464">
        <ele>97.5</ele>
        <time>2015-02-16T21:25:32.759Z</time>
      </trkpt>
      <trkpt lat="48.86788" lon="2.32474">
        <ele>97.7</ele>
        <time>2015-02-16T21:25:34.554Z</time>
      </trkpt>
      <trkpt lat="48.86784" lon="2.3248">
        <ele>97.5</ele>
        <time>2015-02-16T21:25:35.585Z</time>
      </trkpt>
      <trkpt lat="48.8678" lon="2.32488">
        <ele>97.2</ele>
        <time>2015-02-16T21:25:36.602Z</time>
      </trkpt>
      <trkpt lat="48.86777" lon="2.32494">
        <ele>97</ele>
        <time>2015-02-16T21:25:37.605Z</time>
      </trkpt>
      <trkpt lat="48.86775" lon="2.32501">
        <ele>96.9</ele>
        <time>2015-02-16T21:25:38.627Z</time>
      </trkpt>
      <trkpt lat="48.86773" lon="2.32508">
        <ele>96.6</ele>
        <time>2015-02-16T21:25:39.545Z</time>
      </trkpt>
      <trkpt lat="48.86771" lon="2.32514">
        <ele>96.6</ele>
        <time>2015-02-16T21:25:40.540Z</time>
      </trkpt>
      <trkpt lat="48.86768" lon="2.32519">
        <ele>96.8</ele>
        <time>2015-02-16T21:25:41.540Z</time>
      </trkpt>
      <trkpt lat="48.86763" lon="2.32529">
        <ele>96.8</ele>
        <time>2015-02-16T21:25:43.560Z</time>
      </trkpt>
      <trkpt lat="48.8676" lon="2.32537">
        <ele>96.2</ele>
        <time>2015-02-16T21:25:44.598Z</time>
      </trkpt>
      <trkpt lat="48.86756" lon="2.32547">
        <ele>96.1</ele>
        <time>2015-02-16T21:25:46.556Z</time>
      </trkpt>
      <trkpt lat="48.86753" lon="2.32552">
        <ele>96.2</ele>
        <time>2015-02-16T21:25:47.553Z</time>
      </trkpt>
      <trkpt lat="48.8675" lon="2.32557">
        <ele>96.2</ele>
        <time>2015-02-16T21:25:48.646Z</time>
      </trkpt>
      <trkpt lat="48.86748" lon="2.32563">
        <ele>96.3</ele>
        <time>2015-02-16T21:25:49.575Z</time>
      </trkpt>
      <trkpt lat="48.86746" lon="2.32571">
        <ele>96.1</ele>
        <time>2015-02-16T21:25:50.546Z</time>
      </trkpt>
      <trkpt lat="48.86745" lon="2.32579">
        <ele>95.9</ele>
        <time>2015-02-16T21:25:51.550Z</time>
      </trkpt>
      <trkpt lat="48.86743" lon="2.32587">
        <ele>95.9</ele>
        <time>2015-02-16T21:25:52.596Z</time>
      </trkpt>
      <trkpt lat="48.86743" lon="2.32593">
        <ele>96.3</ele>
        <time>2015-02-16T21:25:53.609Z</time>
      </trkpt>
      <trkpt lat="48.86744" lon="2.32606">
        <ele>97.3</ele>
        <time>2015-02-16T21:25:55.660Z</time>
      </trkpt>
      <trkpt lat="48.86743" lon="2.32612">
        <ele>97.2</ele>
        <time>2015-02-16T21:25:56.620Z</time>
      </trkpt>
      <trkpt lat="48.8674" lon="2.32622">
        <ele>97.5</ele>
        <time>2015-02-16T21:25:58.558Z</time>
      </trkpt>
      <trkpt lat="48.86738" lon="2.32627">
        <ele>97.8</ele>
        <time>2015-02-16T21:25:59.624Z</time>
      </trkpt>
      <trkpt lat="48.86736" lon="2.32638">
        <ele>97.7</ele>
        <time>2015-02-16T21:26:01.630Z</time>
      </trkpt>
      <trkpt lat="48.86735" lon="2.32644">
        <ele>97.6</ele>
        <time>2015-02-16T21:26:02.554Z</time>
      </trkpt>
      <trkpt lat="48.86732" lon="2.32656">
        <ele>97.7</ele>
        <time>2015-02-16T21:26:04.611Z</time>
      </trkpt>
      <trkpt lat="48.8673" lon="2.32662">
        <ele>97.9</ele>
        <time>2015-02-16T21:26:05.555Z</time>
      </trkpt>
      <trkpt lat="48.86728" lon="2.32668">
        <ele>98.1</ele>
        <time>2015-02-16T21:26:06.583Z</time>
      </trkpt>
      <trkpt lat="48.86726" lon="2.32674">
        <ele>98.1</ele>
        <time>2015-02-16T21:26:07.598Z</time>
      </trkpt>
      <trkpt lat="48.86724" lon="2.32686">
        <ele>97.6</ele>
        <time>2015-02-16T21:26:09.551Z</time>
      </trkpt>
      <trkpt lat="48.86722" lon="2.32692">
        <ele>97.5</ele>
        <time>2015-02-16T21:26:10.558Z</time>
      </trkpt>
      <trkpt lat="48.86719" lon="2.32699">
        <ele>97.3</ele>
        <time>2015-02-16T21:26:11.577Z</time>
      </trkpt>
      <trkpt lat="48.86716" lon="2.32705">
        <ele>97.1</ele>
        <time>2015-02-16T21:26:12.582Z</time>
      </trkpt>
      <trkpt lat="48.86714" lon="2.32711">
        <ele>97</ele>
        <time>2015-02-16T21:26:13.588Z</time>
      </trkpt>
      <trkpt lat="48.86712" lon="2.32717">
        <ele>96.8</ele>
        <time>2015-02-16T21:26:14.597Z</time>
      </trkpt>
      <trkpt lat="48.86709" lon="2.32723">
        <ele>96.8</ele>
        <time>2015-02-16T21:26:15.664Z</time>
      </trkpt>
      <trkpt lat="48.86706" lon="2.32729">
        <ele>96.7</ele>
        <time>2015-02-16T21:26:16.552Z</time>
      </trkpt>
      <trkpt lat="48.86702" lon="2.32735">
        <ele>96.7</ele>
        <time>2015-02-16T21:26:17.556Z</time>
      </trkpt>
      <trkpt lat="48.86699" lon="2.32741">
        <ele>96.7</ele>
        <time>2015-02-16T21:26:18.559Z</time>
      </trkpt>
      <trkpt lat="48.86696" lon="2.32747">
        <ele>96.7</ele>
        <time>2015-02-16T21:26:19.576Z</time>
      </trkpt>
      <trkpt lat="48.86693" lon="2.32754">
        <ele>96.6</ele>
        <time>2015-02-16T21:26:20.570Z</time>
      </trkpt>
      <trkpt lat="48.8669" lon="2.32765">
        <ele>96.5</ele>
        <time>2015-02-16T21:26:22.583Z</time>
      </trkpt>
      <trkpt lat="48.86687" lon="2.32771">
        <ele>96.6</ele>
        <time>2015-02-16T21:26:23.592Z</time>
      </trkpt>
      <trkpt lat="48.86685" lon="2.32783">
        <ele>96.9</ele>
        <time>2015-02-16T21:26:25.610Z</time>
      </trkpt>
      <trkpt lat="48.86684" lon="2.32788">
        <ele>96.7</ele>
        <time>2015-02-16T21:26:26.582Z</time>
      </trkpt>
      <trkpt lat="48.86681" lon="2.32799">
        <ele>96.8</ele>
        <time>2015-02-16T21:26:28.555Z</time>
      </trkpt>
      <trkpt lat="48.86678" lon="2.32803">
        <ele>97.1</ele>
        <time>2015-02-16T21:26:29.616Z</time>
      </trkpt>
      <trkpt lat="48.86675" lon="2.32812">
        <ele>96.8</ele>
        <time>2015-02-16T21:26:31.573Z</time>
      </trkpt>
      <trkpt lat="48.86674" lon="2.32818">
        <ele>95.8</ele>
        <time>2015-02-16T21:26:32.764Z</time>
      </trkpt>
      <trkpt lat="48.86671" lon="2.32828">
        <ele>94.5</ele>
        <time>2015-02-16T21:26:34.507Z</time>
      </trkpt>
      <trkpt lat="48.86671" lon="2.32833">
        <ele>93.8</ele>
        <time>2015-02-16T21:26:35.555Z</time>
      </trkpt>
      <trkpt lat="48.86669" lon="2.32843">
        <ele>93.4</ele>
        <time>2015-02-16T21:26:38.572Z</time>
      </trkpt>
      <trkpt lat="48.86668" lon="2.32847">
        <ele>93.6</ele>
        <time>2015-02-16T21:26:39.570Z</time>
      </trkpt>
      <trkpt lat="48.86662" lon="2.32856">
        <ele>94</ele>
        <time>2015-02-16T21:26:42.615Z</time>
      </trkpt>
      <trkpt lat="48.86661" lon="2.3286">
        <ele>94.4</ele>
        <time>2015-02-16T21:26:43.630Z</time>
      </trkpt>
      <trkpt lat="48.86658" lon="2.32868">
        <ele>94.9</ele>
        <time>2015-02-16T21:26:45.537Z</time>
      </trkpt>
      <trkpt lat="48.86656" lon="2.32872">
        <ele>95</ele>
        <time>2015-02-16T21:26:46.601Z</time>
      </trkpt>
      <trkpt lat="48.86653" lon="2.32881">
        <ele>95</ele>
        <time>2015-02-16T21:26:48.609Z</time>
      </trkpt>
      <trkpt lat="48.86652" lon="2.32886">
        <ele>95</ele>
        <time>2015-02-16T21:26:49.626Z</time>
      </trkpt>
      <trkpt lat="48.86647" lon="2.32897">
        <ele>95</ele>
        <time>2015-02-16T21:26:51.543Z</time>
      </trkpt>
      <trkpt lat="48.86645" lon="2.32901">
        <ele>95.1</ele>
        <time>2015-02-16T21:26:52.541Z</time>
      </trkpt>
      <trkpt lat="48.8664" lon="2.32911">
        <ele>95.2</ele>
        <time>2015-02-16T21:26:54.560Z</time>
      </trkpt>
      <trkpt lat="48.86638" lon="2.32916">
        <ele>95.3</ele>
        <time>2015-02-16T21:26:55.587Z</time>
      </trkpt>
      <trkpt lat="48.86633" lon="2.32927">
        <ele>95.4</ele>
        <time>2015-02-16T21:26:57.522Z</time>
      </trkpt>
      <trkpt lat="48.86631" lon="2.32932">
        <ele>95.4</ele>
        <time>2015-02-16T21:26:58.568Z</time>
      </trkpt>
      <trkpt lat="48.86626" lon="2.3294">
        <ele>95.5</ele>
        <time>2015-02-16T21:27:03.324Z</time>
      </trkpt>
      <trkpt lat="48.86624" lon="2.32947">
        <ele>95.6</ele>
        <time>2015-02-16T21:27:03.341Z</time>
      </trkpt>
      <trkpt lat="48.86618" lon="2.32956">
        <ele>95.7</ele>
        <time>2015-02-16T21:27:05.519Z</time>
      </trkpt>
      <trkpt lat="48.86615" lon="2.3296">
        <ele>95.7</ele>
        <time>2015-02-16T21:27:06.549Z</time>
      </trkpt>
      <trkpt lat="48.8661" lon="2.32969">
        <ele>96</ele>
        <time>2015-02-16T21:27:09.554Z</time>
      </trkpt>
      <trkpt lat="48.86609" lon="2.32972">
        <ele>96.2</ele>
        <time>2015-02-16T21:27:10.549Z</time>
      </trkpt>
      <trkpt lat="48.86603" lon="2.3298">
        <ele>96.9</ele>
        <time>2015-02-16T21:27:12.579Z</time>
      </trkpt>
      <trkpt lat="48.86598" lon="2.32985">
        <ele>97.2</ele>
        <time>2015-02-16T21:27:13.618Z</time>
      </trkpt>
      <trkpt lat="48.86595" lon="2.32989">
        <ele>97.5</ele>
        <time>2015-02-16T21:27:14.523Z</time>
      </trkpt>
      <trkpt lat="48.86591" lon="2.32993">
        <ele>97.9</ele>
        <time>2015-02-16T21:27:15.556Z</time>
      </trkpt>
      <trkpt lat="48.86585" lon="2.33003">
        <ele>98.3</ele>
        <time>2015-02-16T21:27:17.554Z</time>
      </trkpt>
      <trkpt lat="48.86582" lon="2.33008">
        <ele>98.5</ele>
        <time>2015-02-16T21:27:18.657Z</time>
      </trkpt>
      <trkpt lat="48.86577" lon="2.33017">
        <ele>98.5</ele>
        <time>2015-02-16T21:27:20.579Z</time>
      </trkpt>
      <trkpt lat="48.86574" lon="2.33023">
        <ele>98.9</ele>
        <time>2015-02-16T21:27:21.583Z</time>
      </trkpt>
      <trkpt lat="48.86568" lon="2.33033">
        <ele>99.5</ele>
        <time>2015-02-16T21:27:23.622Z</time>
      </trkpt>
      <trkpt lat="48.86565" lon="2.33038">
        <ele>99.7</ele>
        <time>2015-02-16T21:27:24.580Z</time>
      </trkpt>
      <trkpt lat="48.86559" lon="2.33048">
        <ele>99.8</ele>
        <time>2015-02-16T21:27:26.593Z</time>
      </trkpt>
      <trkpt lat="48.86555" lon="2.33052">
        <ele>99.8</ele>
        <time>2015-02-16T21:27:27.568Z</time>
      </trkpt>
      <trkpt lat="48.86548" lon="2.3306">
        <ele>100.1</ele>
        <time>2015-02-16T21:27:29.583Z</time>
      </trkpt>
      <trkpt lat="48.86545" lon="2.33063">
        <ele>100.2</ele>
        <time>2015-02-16T21:27:30.643Z</time>
      </trkpt>
      <trkpt lat="48.86539" lon="2.3307">
        <ele>100.4</ele>
        <time>2015-02-16T21:27:32.519Z</time>
      </trkpt>
      <trkpt lat="48.86538" lon="2.33073">
        <ele>100.4</ele>
        <time>2015-02-16T21:27:33.639Z</time>
      </trkpt>
      <trkpt lat="48.86535" lon="2.33081">
        <ele>100.3</ele>
        <time>2015-02-16T21:27:36.535Z</time>
      </trkpt>
      <trkpt lat="48.86534" lon="2.33085">
        <ele>100.1</ele>
        <time>2015-02-16T21:27:36.612Z</time>
      </trkpt>
      <trkpt lat="48.8653" lon="2.33091">
        <ele>100.2</ele>
        <time>2015-02-16T21:27:37.638Z</time>
      </trkpt>
      <trkpt lat="48.86527" lon="2.33096">
        <ele>100.1</ele>
        <time>2015-02-16T21:27:38.556Z</time>
      </trkpt>
      <trkpt lat="48.86522" lon="2.33104">
        <ele>100</ele>
        <time>2015-02-16T21:27:40.580Z</time>
      </trkpt>
      <trkpt lat="48.8652" lon="2.33109">
        <ele>100</ele>
        <time>2015-02-16T21:27:41.596Z</time>
      </trkpt>
      <trkpt lat="48.86518" lon="2.33115">
        <ele>100.1</ele>
        <time>2015-02-16T21:27:42.617Z</time>
      </trkpt>
      <trkpt lat="48.86515" lon="2.3312">
        <ele>100.1</ele>
        <time>2015-02-16T21:27:43.637Z</time>
      </trkpt>
      <trkpt lat="48.86511" lon="2.33131">
        <ele>99.7</ele>
        <time>2015-02-16T21:27:45.827Z</time>
      </trkpt>
      <trkpt lat="48.86508" lon="2.33136">
        <ele>99.6</ele>
        <time>2015-02-16T21:27:46.631Z</time>
      </trkpt>
      <trkpt lat="48.86506" lon="2.33142">
        <ele>99.6</ele>
        <time>2015-02-16T21:27:47.546Z</time>
      </trkpt>
      <trkpt lat="48.86505" lon="2.3315">
        <ele>99.4</ele>
        <time>2015-02-16T21:27:48.546Z</time>
      </trkpt>
      <trkpt lat="48.86503" lon="2.33158">
        <ele>98.9</ele>
        <time>2015-02-16T21:27:49.559Z</time>
      </trkpt>
      <trkpt lat="48.86501" lon="2.33164">
        <ele>99.1</ele>
        <time>2015-02-16T21:27:50.577Z</time>
      </trkpt>
      <trkpt lat="48.86497" lon="2.33172">
        <ele>99.6</ele>
        <time>2015-02-16T21:27:52.552Z</time>
      </trkpt>
      <trkpt lat="48.86495" lon="2.33177">
        <ele>99.6</ele>
        <time>2015-02-16T21:27:53.554Z</time>
      </trkpt>
      <trkpt lat="48.86491" lon="2.33189">
        <ele>98.8</ele>
        <time>2015-02-16T21:27:56.069Z</time>
      </trkpt>
      <trkpt lat="48.86487" lon="2.332">
        <ele>97.5</ele>
        <time>2015-02-16T21:27:56.535Z</time>
      </trkpt>
      <trkpt lat="48.86485" lon="2.33207">
        <ele>97.1</ele>
        <time>2015-02-16T21:27:57.581Z</time>
      </trkpt>
      <trkpt lat="48.86488" lon="2.33217">
        <ele>97.9</ele>
        <time>2015-02-16T21:27:58.592Z</time>
      </trkpt>
      <trkpt lat="48.86487" lon="2.33225">
        <ele>98.4</ele>
        <time>2015-02-16T21:27:59.601Z</time>
      </trkpt>
      <trkpt lat="48.86485" lon="2.33231">
        <ele>98.7</ele>
        <time>2015-02-16T21:28:00.615Z</time>
      </trkpt>
      <trkpt lat="48.86481" lon="2.33235">
        <ele>98.6</ele>
        <time>2015-02-16T21:28:01.580Z</time>
      </trkpt>
      <trkpt lat="48.86475" lon="2.33241">
        <ele>98.9</ele>
        <time>2015-02-16T21:28:02.582Z</time>
      </trkpt>
      <trkpt lat="48.86471" lon="2.33246">
        <ele>99.3</ele>
        <time>2015-02-16T21:28:03.558Z</time>
      </trkpt>
      <trkpt lat="48.86467" lon="2.3325">
        <ele>99.7</ele>
        <time>2015-02-16T21:28:04.563Z</time>
      </trkpt>
      <trkpt lat="48.86463" lon="2.33255">
        <ele>100</ele>
        <time>2015-02-16T21:28:05.591Z</time>
      </trkpt>
      <trkpt lat="48.86458" lon="2.3326">
        <ele>100.3</ele>
        <time>2015-02-16T21:28:06.602Z</time>
      </trkpt>
      <trkpt lat="48.86455" lon="2.33265">
        <ele>100.5</ele>
        <time>2015-02-16T21:28:08.357Z</time>
      </trkpt>
      <trkpt lat="48.86451" lon="2.33269">
        <ele>100.6</ele>
        <time>2015-02-16T21:28:08.527Z</time>
      </trkpt>
      <trkpt lat="48.86448" lon="2.33275">
        <ele>100.6</ele>
        <time>2015-02-16T21:28:09.559Z</time>
      </trkpt>
      <trkpt lat="48.86445" lon="2.3328">
        <ele>100.8</ele>
        <time>2015-02-16T21:28:10.568Z</time>
      </trkpt>
      <trkpt lat="48.86442" lon="2.33287">
        <ele>100.8</ele>
        <time>2015-02-16T21:28:11.573Z</time>
      </trkpt>
      <trkpt lat="48.86438" lon="2.33292">
        <ele>101</ele>
        <time>2015-02-16T21:28:12.591Z</time>
      </trkpt>
      <trkpt lat="48.86434" lon="2.33299">
        <ele>101.2</ele>
        <time>2015-02-16T21:28:13.618Z</time>
      </trkpt>
      <trkpt lat="48.86429" lon="2.33304">
        <ele>101.3</ele>
        <time>2015-02-16T21:28:14.634Z</time>
      </trkpt>
      <trkpt lat="48.86426" lon="2.33309">
        <ele>101.4</ele>
        <time>2015-02-16T21:28:16.365Z</time>
      </trkpt>
      <trkpt lat="48.86422" lon="2.33315">
        <ele>101.6</ele>
        <time>2015-02-16T21:28:16.528Z</time>
      </trkpt>
      <trkpt lat="48.86417" lon="2.33324">
        <ele>101.6</ele>
        <time>2015-02-16T21:28:18.620Z</time>
      </trkpt>
      <trkpt lat="48.86414" lon="2.33328">
        <ele>101.6</ele>
        <time>2015-02-16T21:28:19.651Z</time>
      </trkpt>
      <trkpt lat="48.86408" lon="2.33337">
        <ele>101.8</ele>
        <time>2015-02-16T21:28:21.550Z</time>
      </trkpt>
      <trkpt lat="48.86405" lon="2.33346">
        <ele>101.2</ele>
        <time>2015-02-16T21:28:22.576Z</time>
      </trkpt>
      <trkpt lat="48.86402" lon="2.33355">
        <ele>100.3</ele>
        <time>2015-02-16T21:28:23.825Z</time>
      </trkpt>
      <trkpt lat="48.864" lon="2.33369">
        <ele>100.1</ele>
        <time>2015-02-16T21:28:25.589Z</time>
      </trkpt>
      <trkpt lat="48.86399" lon="2.33377">
        <ele>100.2</ele>
        <time>2015-02-16T21:28:26.585Z</time>
      </trkpt>
      <trkpt lat="48.864" lon="2.33383">
        <ele>100</ele>
        <time>2015-02-16T21:28:27.590Z</time>
      </trkpt>
      <trkpt lat="48.86397" lon="2.33396">
        <ele>101.7</ele>
        <time>2015-02-16T21:28:31.655Z</time>
      </trkpt>
      <trkpt lat="48.86399" lon="2.33399">
        <ele>103.8</ele>
        <time>2015-02-16T21:28:32.559Z</time>
      </trkpt>
      <trkpt lat="48.86395" lon="2.33409">
        <ele>108</ele>
        <time>2015-02-16T21:28:38.806Z</time>
      </trkpt>
      <trkpt lat="48.86393" lon="2.33411">
        <ele>108.1</ele>
        <time>2015-02-16T21:28:39.555Z</time>
      </trkpt>
      <trkpt lat="48.86387" lon="2.33417">
        <ele>108.3</ele>
        <time>2015-02-16T21:28:42.617Z</time>
      </trkpt>
      <trkpt lat="48.86386" lon="2.3342">
        <ele>108.2</ele>
        <time>2015-02-16T21:28:43.696Z</time>
      </trkpt>
      <trkpt lat="48.86381" lon="2.3343">
        <ele>106.4</ele>
        <time>2015-02-16T21:28:45.838Z</time>
      </trkpt>
      <trkpt lat="48.86379" lon="2.33436">
        <ele>105.4</ele>
        <time>2015-02-16T21:28:46.563Z</time>
      </trkpt>
      <trkpt lat="48.86377" lon="2.33444">
        <ele>101.5</ele>
        <time>2015-02-16T21:28:47.589Z</time>
      </trkpt>
      <trkpt lat="48.86376" lon="2.33449">
        <ele>100.2</ele>
        <time>2015-02-16T21:28:48.609Z</time>
      </trkpt>
      <trkpt lat="48.86373" lon="2.33462">
        <ele>98.4</ele>
        <time>2015-02-16T21:28:51.564Z</time>
      </trkpt>
      <trkpt lat="48.86372" lon="2.33466">
        <ele>98.2</ele>
        <time>2015-02-16T21:28:52.581Z</time>
      </trkpt>
      <trkpt lat="48.86368" lon="2.33477">
        <ele>96.4</ele>
        <time>2015-02-16T21:28:55.890Z</time>
      </trkpt>
      <trkpt lat="48.86367" lon="2.33481">
        <ele>96</ele>
        <time>2015-02-16T21:28:56.633Z</time>
      </trkpt>
      <trkpt lat="48.86362" lon="2.33489">
        <ele>95.4</ele>
        <time>2015-02-16T21:28:58.546Z</time>
      </trkpt>
      <trkpt lat="48.86361" lon="2.33494">
        <ele>94.8</ele>
        <time>2015-02-16T21:28:59.607Z</time>
      </trkpt>
      <trkpt lat="48.86356" lon="2.33503">
        <ele>94.3</ele>
        <time>2015-02-16T21:29:01.648Z</time>
      </trkpt>
      <trkpt lat="48.86353" lon="2.33508">
        <ele>93.9</ele>
        <time>2015-02-16T21:29:02.606Z</time>
      </trkpt>
      <trkpt lat="48.8635" lon="2.33516">
        <ele>93.4</ele>
        <time>2015-02-16T21:29:04.533Z</time>
      </trkpt>
      <trkpt lat="48.86348" lon="2.3352">
        <ele>93.2</ele>
        <time>2015-02-16T21:29:05.556Z</time>
      </trkpt>
      <trkpt lat="48.86343" lon="2.33528">
        <ele>92.9</ele>
        <time>2015-02-16T21:29:07.602Z</time>
      </trkpt>
      <trkpt lat="48.86342" lon="2.33532">
        <ele>92.7</ele>
        <time>2015-02-16T21:29:08.611Z</time>
      </trkpt>
      <trkpt lat="48.86338" lon="2.33542">
        <ele>92.2</ele>
        <time>2015-02-16T21:29:11.555Z</time>
      </trkpt>
      <trkpt lat="48.86335" lon="2.33545">
        <ele>92.6</ele>
        <time>2015-02-16T21:29:12.561Z</time>
      </trkpt>
      <trkpt lat="48.8633" lon="2.33552">
        <ele>93.3</ele>
        <time>2015-02-16T21:29:14.599Z</time>
      </trkpt>
      <trkpt lat="48.86327" lon="2.33556">
        <ele>93.6</ele>
        <time>2015-02-16T21:29:15.627Z</time>
      </trkpt>
      <trkpt lat="48.86324" lon="2.33566">
        <ele>93.8</ele>
        <time>2015-02-16T21:29:18.542Z</time>
      </trkpt>
      <trkpt lat="48.86322" lon="2.33569">
        <ele>94</ele>
        <time>2015-02-16T21:29:19.571Z</time>
      </trkpt>
      <trkpt lat="48.86319" lon="2.33579">
        <ele>94.4</ele>
        <time>2015-02-16T21:29:22.621Z</time>
      </trkpt>
      <trkpt lat="48.86318" lon="2.33582">
        <ele>94.5</ele>
        <time>2015-02-16T21:29:23.649Z</time>
      </trkpt>
      <trkpt lat="48.86316" lon="2.3359">
        <ele>94.6</ele>
        <time>2015-02-16T21:29:26.245Z</time>
      </trkpt>
      <trkpt lat="48.86314" lon="2.33594">
        <ele>94.5</ele>
        <time>2015-02-16T21:29:26.548Z</time>
      </trkpt>
      <trkpt lat="48.86311" lon="2.33605">
        <ele>94.2</ele>
        <time>2015-02-16T21:29:28.543Z</time>
      </trkpt>
      <trkpt lat="48.86308" lon="2.33611">
        <ele>94.3</ele>
        <time>2015-02-16T21:29:29.563Z</time>
      </trkpt>
      <trkpt lat="48.86302" lon="2.33619">
        <ele>94.5</ele>
        <time>2015-02-16T21:29:31.586Z</time>
      </trkpt>
      <trkpt lat="48.863" lon="2.33624">
        <ele>94.6</ele>
        <time>2015-02-16T21:29:32.537Z</time>
      </trkpt>
      <trkpt lat="48.86295" lon="2.33632">
        <ele>94.8</ele>
        <time>2015-02-16T21:29:34.552Z</time>
      </trkpt>
      <trkpt lat="48.86292" lon="2.33638">
        <ele>94.8</ele>
        <time>2015-02-16T21:29:35.553Z</time>
      </trkpt>
      <trkpt lat="48.86285" lon="2.33648">
        <ele>95</ele>
        <time>2015-02-16T21:29:37.592Z</time>
      </trkpt>
      <trkpt lat="48.86282" lon="2.33652">
        <ele>94.9</ele>
        <time>2015-02-16T21:29:38.554Z</time>
      </trkpt>
      <trkpt lat="48.86278" lon="2.33659">
        <ele>94.8</ele>
        <time>2015-02-16T21:29:40.533Z</time>
      </trkpt>
      <trkpt lat="48.86276" lon="2.33663">
        <ele>94.6</ele>
        <time>2015-02-16T21:29:41.649Z</time>
      </trkpt>
      <trkpt lat="48.86274" lon="2.33672">
        <ele>94.3</ele>
        <time>2015-02-16T21:29:43.593Z</time>
      </trkpt>
      <trkpt lat="48.86274" lon="2.33677">
        <ele>94.1</ele>
        <time>2015-02-16T21:29:44.777Z</time>
      </trkpt>
      <trkpt lat="48.86275" lon="2.33688">
        <ele>93.7</ele>
        <time>2015-02-16T21:29:46.552Z</time>
      </trkpt>
      <trkpt lat="48.86274" lon="2.33695">
        <ele>93.3</ele>
        <time>2015-02-16T21:29:47.593Z</time>
      </trkpt>
      <trkpt lat="48.86274" lon="2.33706">
        <ele>92.8</ele>
        <time>2015-02-16T21:29:49.573Z</time>
      </trkpt>
      <trkpt lat="48.86273" lon="2.33712">
        <ele>92.6</ele>
        <time>2015-02-16T21:29:50.603Z</time>
      </trkpt>
      <trkpt lat="48.86272" lon="2.33723">
        <ele>92.3</ele>
        <time>2015-02-16T21:29:52.574Z</time>
      </trkpt>
      <trkpt lat="48.86271" lon="2.33729">
        <ele>92.2</ele>
        <time>2015-02-16T21:29:53.590Z</time>
      </trkpt>
      <trkpt lat="48.86269" lon="2.3374">
        <ele>92.1</ele>
        <time>2015-02-16T21:29:55.567Z</time>
      </trkpt>
      <trkpt lat="48.86268" lon="2.33745">
        <ele>92.1</ele>
        <time>2015-02-16T21:29:56.550Z</time>
      </trkpt>
      <trkpt lat="48.86265" lon="2.33756">
        <ele>92.2</ele>
        <time>2015-02-16T21:29:58.538Z</time>
      </trkpt>
      <trkpt lat="48.86264" lon="2.33761">
        <ele>92.3</ele>
        <time>2015-02-16T21:29:59.556Z</time>
      </trkpt>
      <trkpt lat="48.86261" lon="2.33771">
        <ele>92.4</ele>
        <time>2015-02-16T21:30:01.606Z</time>
      </trkpt>
      <trkpt lat="48.8626" lon="2.33775">
        <ele>92.8</ele>
        <time>2015-02-16T21:30:02.629Z</time>
      </trkpt>
      <trkpt lat="48.86256" lon="2.33784">
        <ele>93.2</ele>
        <time>2015-02-16T21:30:04.585Z</time>
      </trkpt>
      <trkpt lat="48.86255" lon="2.33789">
        <ele>93.6</ele>
        <time>2015-02-16T21:30:05.516Z</time>
      </trkpt>
      <trkpt lat="48.86252" lon="2.33799">
        <ele>94.1</ele>
        <time>2015-02-16T21:30:07.614Z</time>
      </trkpt>
      <trkpt lat="48.8625" lon="2.33804">
        <ele>94.5</ele>
        <time>2015-02-16T21:30:08.568Z</time>
      </trkpt>
      <trkpt lat="48.86247" lon="2.33813">
        <ele>95.1</ele>
        <time>2015-02-16T21:30:10.557Z</time>
      </trkpt>
      <trkpt lat="48.86246" lon="2.33817">
        <ele>95.3</ele>
        <time>2015-02-16T21:30:11.635Z</time>
      </trkpt>
      <trkpt lat="48.86243" lon="2.33827">
        <ele>95.6</ele>
        <time>2015-02-16T21:30:13.573Z</time>
      </trkpt>
      <trkpt lat="48.86241" lon="2.33833">
        <ele>95.8</ele>
        <time>2015-02-16T21:30:14.591Z</time>
      </trkpt>
      <trkpt lat="48.86236" lon="2.33843">
        <ele>96.1</ele>
        <time>2015-02-16T21:30:16.531Z</time>
      </trkpt>
      <trkpt lat="48.86233" lon="2.33848">
        <ele>96.1</ele>
        <time>2015-02-16T21:30:17.570Z</time>
      </trkpt>
      <trkpt lat="48.86231" lon="2.33855">
        <ele>95.8</ele>
        <time>2015-02-16T21:30:18.581Z</time>
      </trkpt>
      <trkpt lat="48.86228" lon="2.33862">
        <ele>95.7</ele>
        <time>2015-02-16T21:30:19.590Z</time>
      </trkpt>
      <trkpt lat="48.86225" lon="2.3387">
        <ele>95.6</ele>
        <time>2015-02-16T21:30:20.537Z</time>
      </trkpt>
      <trkpt lat="48.86223" lon="2.33877">
        <ele>95.6</ele>
        <time>2015-02-16T21:30:21.551Z</time>
      </trkpt>
      <trkpt lat="48.86224" lon="2.3389">
        <ele>95.1</ele>
        <time>2015-02-16T21:30:23.594Z</time>
      </trkpt>
      <trkpt lat="48.86224" lon="2.33897">
        <ele>94.7</ele>
        <time>2015-02-16T21:30:24.684Z</time>
      </trkpt>
      <trkpt lat="48.86222" lon="2.33908">
        <ele>94.9</ele>
        <time>2015-02-16T21:30:26.583Z</time>
      </trkpt>
      <trkpt lat="48.86221" lon="2.33914">
        <ele>95.2</ele>
        <time>2015-02-16T21:30:27.598Z</time>
      </trkpt>
      <trkpt lat="48.86217" lon="2.33926">
        <ele>95.6</ele>
        <time>2015-02-16T21:30:29.570Z</time>
      </trkpt>
      <trkpt lat="48.86217" lon="2.33933">
        <ele>96.5</ele>
        <time>2015-02-16T21:30:30.872Z</time>
      </trkpt>
      <trkpt lat="48.86216" lon="2.33942">
        <ele>97.2</ele>
        <time>2015-02-16T21:30:31.560Z</time>
      </trkpt>
      <trkpt lat="48.86214" lon="2.33948">
        <ele>97.4</ele>
        <time>2015-02-16T21:30:32.573Z</time>
      </trkpt>
      <trkpt lat="48.86213" lon="2.3396">
        <ele>96.9</ele>
        <time>2015-02-16T21:30:34.701Z</time>
      </trkpt>
      <trkpt lat="48.86212" lon="2.33966">
        <ele>96.9</ele>
        <time>2015-02-16T21:30:35.774Z</time>
      </trkpt>
      <trkpt lat="48.86209" lon="2.33976">
        <ele>97</ele>
        <time>2015-02-16T21:30:37.644Z</time>
      </trkpt>
      <trkpt lat="48.86206" lon="2.33981">
        <ele>97</ele>
        <time>2015-02-16T21:30:38.705Z</time>
      </trkpt>
      <trkpt lat="48.86201" lon="2.33991">
        <ele>96.7</ele>
        <time>2015-02-16T21:30:41.106Z</time>
      </trkpt>
      <trkpt lat="48.86198" lon="2.33995">
        <ele>96.8</ele>
        <time>2015-02-16T21:30:41.560Z</time>
      </trkpt>
      <trkpt lat="48.86192" lon="2.34003">
        <ele>97</ele>
        <time>2015-02-16T21:30:43.701Z</time>
      </trkpt>
      <trkpt lat="48.86188" lon="2.34007">
        <ele>97.1</ele>
        <time>2015-02-16T21:30:44.834Z</time>
      </trkpt>
      <trkpt lat="48.86185" lon="2.34015">
        <ele>97.4</ele>
        <time>2015-02-16T21:30:46.574Z</time>
      </trkpt>
      <trkpt lat="48.86182" lon="2.3402">
        <ele>97.6</ele>
        <time>2015-02-16T21:30:47.704Z</time>
      </trkpt>
      <trkpt lat="48.86179" lon="2.34031">
        <ele>98</ele>
        <time>2015-02-16T21:30:49.596Z</time>
      </trkpt>
      <trkpt lat="48.86178" lon="2.34037">
        <ele>98.4</ele>
        <time>2015-02-16T21:30:50.640Z</time>
      </trkpt>
      <trkpt lat="48.86177" lon="2.34049">
        <ele>98.6</ele>
        <time>2015-02-16T21:30:52.604Z</time>
      </trkpt>
      <trkpt lat="48.86176" lon="2.34056">
        <ele>98.7</ele>
        <time>2015-02-16T21:30:53.622Z</time>
      </trkpt>
      <trkpt lat="48.86173" lon="2.34062">
        <ele>98.3</ele>
        <time>2015-02-16T21:30:54.799Z</time>
      </trkpt>
      <trkpt lat="48.86172" lon="2.3407">
        <ele>96.8</ele>
        <time>2015-02-16T21:30:55.601Z</time>
      </trkpt>
      <trkpt lat="48.86171" lon="2.3408">
        <ele>97.1</ele>
        <time>2015-02-16T21:30:57.542Z</time>
      </trkpt>
      <trkpt lat="48.86174" lon="2.34086">
        <ele>96.6</ele>
        <time>2015-02-16T21:30:58.600Z</time>
      </trkpt>
      <trkpt lat="48.86171" lon="2.34098">
        <ele>96.7</ele>
        <time>2015-02-16T21:31:02.537Z</time>
      </trkpt>
      <trkpt lat="48.86171" lon="2.34103">
        <ele>96.8</ele>
        <time>2015-02-16T21:31:03.569Z</time>
      </trkpt>
      <trkpt lat="48.86173" lon="2.34115">
        <ele>97.6</ele>
        <time>2015-02-16T21:31:06.750Z</time>
      </trkpt>
      <trkpt lat="48.86171" lon="2.34117">
        <ele>97.4</ele>
        <time>2015-02-16T21:31:07.575Z</time>
      </trkpt>
      <trkpt lat="48.86172" lon="2.34117">
        <ele>97.4</ele>
        <time>2015-02-16T21:31:11.812Z</time>
      </trkpt>
      <trkpt lat="48.86171" lon="2.34117">
        <ele>97.7</ele>
        <time>2015-02-16T21:31:12.555Z</time>
      </trkpt>
      <trkpt lat="48.86171" lon="2.34117">
        <ele>98</ele>
        <time>2015-02-16T21:31:13.595Z</time>
      </trkpt>
      <trkpt lat="48.86164" lon="2.34125">
        <ele>98.9</ele>
        <time>2015-02-16T21:31:25.576Z</time>
      </trkpt>
      <trkpt lat="48.86163" lon="2.34127">
        <ele>98.9</ele>
        <time>2015-02-16T21:31:26.575Z</time>
      </trkpt>
      <trkpt lat="48.86161" lon="2.34138">
        <ele>98.8</ele>
        <time>2015-02-16T21:31:30.614Z</time>
      </trkpt>
      <trkpt lat="48.86159" lon="2.34143">
        <ele>98.8</ele>
        <time>2015-02-16T21:31:30.654Z</time>
      </trkpt>
      <trkpt lat="48.86157" lon="2.34152">
        <ele>98.6</ele>
        <time>2015-02-16T21:31:32.608Z</time>
      </trkpt>
      <trkpt lat="48.86154" lon="2.34157">
        <ele>98.4</ele>
        <time>2015-02-16T21:31:33.657Z</time>
      </trkpt>
      <trkpt lat="48.8615" lon="2.34163">
        <ele>98.2</ele>
        <time>2015-02-16T21:31:34.537Z</time>
      </trkpt>
      <trkpt lat="48.86146" lon="2.34168">
        <ele>97.9</ele>
        <time>2015-02-16T21:31:35.538Z</time>
      </trkpt>
      <trkpt lat="48.86144" lon="2.34174">
        <ele>97.5</ele>
        <time>2015-02-16T21:31:36.529Z</time>
      </trkpt>
      <trkpt lat="48.86141" lon="2.34179">
        <ele>97.2</ele>
        <time>2015-02-16T21:31:37.555Z</time>
      </trkpt>
      <trkpt lat="48.86138" lon="2.3419">
        <ele>96.5</ele>
        <time>2015-02-16T21:31:39.577Z</time>
      </trkpt>
      <trkpt lat="48.86138" lon="2.34197">
        <ele>96.3</ele>
        <time>2015-02-16T21:31:40.564Z</time>
      </trkpt>
      <trkpt lat="48.86136" lon="2.34205">
        <ele>95.1</ele>
        <time>2015-02-16T21:31:41.737Z</time>
      </trkpt>
      <trkpt lat="48.86134" lon="2.34211">
        <ele>95</ele>
        <time>2015-02-16T21:31:42.560Z</time>
      </trkpt>
      <trkpt lat="48.8613" lon="2.34223">
        <ele>94.8</ele>
        <time>2015-02-16T21:31:44.575Z</time>
      </trkpt>
      <trkpt lat="48.86128" lon="2.34227">
        <ele>94.8</ele>
        <time>2015-02-16T21:31:45.597Z</time>
      </trkpt>
      <trkpt lat="48.86127" lon="2.34238">
        <ele>94.7</ele>
        <time>2015-02-16T21:31:47.534Z</time>
      </trkpt>
      <trkpt lat="48.86127" lon="2.34243">
        <ele>94.6</ele>
        <time>2015-02-16T21:31:48.714Z</time>
      </trkpt>
      <trkpt lat="48.86126" lon="2.34255">
        <ele>93.9</ele>
        <time>2015-02-16T21:31:50.564Z</time>
      </trkpt>
      <trkpt lat="48.86126" lon="2.34261">
        <ele>94</ele>
        <time>2015-02-16T21:31:51.611Z</time>
      </trkpt>
      <trkpt lat="48.86128" lon="2.34273">
        <ele>94.8</ele>
        <time>2015-02-16T21:31:54.686Z</time>
      </trkpt>
      <trkpt lat="48.86127" lon="2.34276">
        <ele>95.1</ele>
        <time>2015-02-16T21:31:55.599Z</time>
      </trkpt>
      <trkpt lat="48.86125" lon="2.34286">
        <ele>95.3</ele>
        <time>2015-02-16T21:31:58.579Z</time>
      </trkpt>
      <trkpt lat="48.86123" lon="2.34289">
        <ele>95.3</ele>
        <time>2015-02-16T21:31:59.588Z</time>
      </trkpt>
      <trkpt lat="48.86119" lon="2.343">
        <ele>95.2</ele>
        <time>2015-02-16T21:32:01.608Z</time>
      </trkpt>
      <trkpt lat="48.86118" lon="2.34304">
        <ele>95.2</ele>
        <time>2015-02-16T21:32:02.612Z</time>
      </trkpt>
      <trkpt lat="48.86116" lon="2.34314">
        <ele>95</ele>
        <time>2015-02-16T21:32:04.533Z</time>
      </trkpt>
      <trkpt lat="48.86115" lon="2.3432">
        <ele>94.8</ele>
        <time>2015-02-16T21:32:05.530Z</time>
      </trkpt>
      <trkpt lat="48.86114" lon="2.34327">
        <ele>94.5</ele>
        <time>2015-02-16T21:32:07.225Z</time>
      </trkpt>
      <trkpt lat="48.86113" lon="2.34335">
        <ele>94.1</ele>
        <time>2015-02-16T21:32:07.620Z</time>
      </trkpt>
      <trkpt lat="48.86112" lon="2.34343">
        <ele>93.7</ele>
        <time>2015-02-16T21:32:08.529Z</time>
      </trkpt>
      <trkpt lat="48.8611" lon="2.34351">
        <ele>93.2</ele>
        <time>2015-02-16T21:32:09.542Z</time>
      </trkpt>
      <trkpt lat="48.86108" lon="2.34359">
        <ele>92.9</ele>
        <time>2015-02-16T21:32:10.604Z</time>
      </trkpt>
      <trkpt lat="48.86105" lon="2.34367">
        <ele>92.6</ele>
        <time>2015-02-16T21:32:11.604Z</time>
      </trkpt>
      <trkpt lat="48.86101" lon="2.34374">
        <ele>92.5</ele>
        <time>2015-02-16T21:32:12.614Z</time>
      </trkpt>
      <trkpt lat="48.86098" lon="2.3438">
        <ele>92.6</ele>
        <time>2015-02-16T21:32:13.554Z</time>
      </trkpt>
      <trkpt lat="48.86095" lon="2.34387">
        <ele>92.4</ele>
        <time>2015-02-16T21:32:14.564Z</time>
      </trkpt>
      <trkpt lat="48.86091" lon="2.34397">
        <ele>91.9</ele>
        <time>2015-02-16T21:32:15.581Z</time>
      </trkpt>
      <trkpt lat="48.86087" lon="2.34407">
        <ele>91.7</ele>
        <time>2015-02-16T21:32:17.224Z</time>
      </trkpt>
      <trkpt lat="48.86085" lon="2.34415">
        <ele>91.8</ele>
        <time>2015-02-16T21:32:17.529Z</time>
      </trkpt>
      <trkpt lat="48.86083" lon="2.34426">
        <ele>91.3</ele>
        <time>2015-02-16T21:32:18.537Z</time>
      </trkpt>
      <trkpt lat="48.86081" lon="2.34433">
        <ele>91.5</ele>
        <time>2015-02-16T21:32:19.540Z</time>
      </trkpt>
      <trkpt lat="48.86081" lon="2.3444">
        <ele>91.4</ele>
        <time>2015-02-16T21:32:20.559Z</time>
      </trkpt>
      <trkpt lat="48.8608" lon="2.34447">
        <ele>91.4</ele>
        <time>2015-02-16T21:32:21.569Z</time>
      </trkpt>
      <trkpt lat="48.86082" lon="2.34454">
        <ele>91.4</ele>
        <time>2015-02-16T21:32:22.577Z</time>
      </trkpt>
      <trkpt lat="48.86082" lon="2.34462">
        <ele>92</ele>
        <time>2015-02-16T21:32:23.585Z</time>
      </trkpt>
      <trkpt lat="48.86085" lon="2.34472">
        <ele>93.9</ele>
        <time>2015-02-16T21:32:25.599Z</time>
      </trkpt>
      <trkpt lat="48.86085" lon="2.34475">
        <ele>94.7</ele>
        <time>2015-02-16T21:32:26.617Z</time>
      </trkpt>
      <trkpt lat="48.86081" lon="2.34487">
        <ele>96.1</ele>
        <time>2015-02-16T21:32:30.609Z</time>
      </trkpt>
      <trkpt lat="48.8608" lon="2.34492">
        <ele>96.5</ele>
        <time>2015-02-16T21:32:31.626Z</time>
      </trkpt>
      <trkpt lat="48.86078" lon="2.34503">
        <ele>97.3</ele>
        <time>2015-02-16T21:32:33.552Z</time>
      </trkpt>
      <trkpt lat="48.86078" lon="2.3451">
        <ele>97.8</ele>
        <time>2015-02-16T21:32:34.569Z</time>
      </trkpt>
      <trkpt lat="48.86076" lon="2.34522">
        <ele>98.1</ele>
        <time>2015-02-16T21:32:36.590Z</time>
      </trkpt>
      <trkpt lat="48.86072" lon="2.3453">
        <ele>96.8</ele>
        <time>2015-02-16T21:32:37.549Z</time>
      </trkpt>
      <trkpt lat="48.86069" lon="2.34538">
        <ele>96.1</ele>
        <time>2015-02-16T21:32:38.588Z</time>
      </trkpt>
      <trkpt lat="48.86066" lon="2.34545">
        <ele>95.9</ele>
        <time>2015-02-16T21:32:39.599Z</time>
      </trkpt>
      <trkpt lat="48.86064" lon="2.34553">
        <ele>95.6</ele>
        <time>2015-02-16T21:32:40.532Z</time>
      </trkpt>
      <trkpt lat="48.8606" lon="2.34561">
        <ele>95.1</ele>
        <time>2015-02-16T21:32:41.530Z</time>
      </trkpt>
      <trkpt lat="48.86057" lon="2.3457">
        <ele>95.2</ele>
        <time>2015-02-16T21:32:42.529Z</time>
      </trkpt>
      <trkpt lat="48.86053" lon="2.34576">
        <ele>95.1</ele>
        <time>2015-02-16T21:32:43.572Z</time>
      </trkpt>
      <trkpt lat="48.86049" lon="2.34583">
        <ele>94.9</ele>
        <time>2015-02-16T21:32:44.646Z</time>
      </trkpt>
      <trkpt lat="48.86045" lon="2.34588">
        <ele>94.5</ele>
        <time>2015-02-16T21:32:45.614Z</time>
      </trkpt>
      <trkpt lat="48.86041" lon="2.34592">
        <ele>94</ele>
        <time>2015-02-16T21:32:46.628Z</time>
      </trkpt>
      <trkpt lat="48.86036" lon="2.34596">
        <ele>93.6</ele>
        <time>2015-02-16T21:32:47.554Z</time>
      </trkpt>
      <trkpt lat="48.86032" lon="2.34601">
        <ele>93.3</ele>
        <time>2015-02-16T21:32:48.571Z</time>
      </trkpt>
      <trkpt lat="48.86029" lon="2.34605">
        <ele>92.8</ele>
        <time>2015-02-16T21:32:49.583Z</time>
      </trkpt>
      <trkpt lat="48.86025" lon="2.34609">
        <ele>92.4</ele>
        <time>2015-02-16T21:32:50.587Z</time>
      </trkpt>
      <trkpt lat="48.86021" lon="2.34613">
        <ele>92</ele>
        <time>2015-02-16T21:32:51.593Z</time>
      </trkpt>
      <trkpt lat="48.86017" lon="2.34616">
        <ele>91.8</ele>
        <time>2015-02-16T21:32:52.626Z</time>
      </trkpt>
      <trkpt lat="48.86014" lon="2.34621">
        <ele>91.4</ele>
        <time>2015-02-16T21:32:53.521Z</time>
      </trkpt>
      <trkpt lat="48.8601" lon="2.34625">
        <ele>91.3</ele>
        <time>2015-02-16T21:32:54.548Z</time>
      </trkpt>
      <trkpt lat="48.86006" lon="2.34629">
        <ele>91.3</ele>
        <time>2015-02-16T21:32:55.701Z</time>
      </trkpt>
      <trkpt lat="48.86002" lon="2.34634">
        <ele>91.7</ele>
        <time>2015-02-16T21:32:56.550Z</time>
      </trkpt>
      <trkpt lat="48.85998" lon="2.34638">
        <ele>92.2</ele>
        <time>2015-02-16T21:32:57.551Z</time>
      </trkpt>
      <trkpt lat="48.8599" lon="2.34645">
        <ele>93.1</ele>
        <time>2015-02-16T21:32:59.572Z</time>
      </trkpt>
      <trkpt lat="48.85986" lon="2.34648">
        <ele>93.2</ele>
        <time>2015-02-16T21:33:00.581Z</time>
      </trkpt>
      <trkpt lat="48.85979" lon="2.34655">
        <ele>94.2</ele>
        <time>2015-02-16T21:33:02.616Z</time>
      </trkpt>
      <trkpt lat="48.85976" lon="2.34658">
        <ele>94.6</ele>
        <time>2015-02-16T21:33:03.865Z</time>
      </trkpt>
      <trkpt lat="48.85969" lon="2.34664">
        <ele>95.2</ele>
        <time>2015-02-16T21:33:05.657Z</time>
      </trkpt>
      <trkpt lat="48.85966" lon="2.34667">
        <ele>95.4</ele>
        <time>2015-02-16T21:33:06.586Z</time>
      </trkpt>
      <trkpt lat="48.85961" lon="2.34673">
        <ele>96.2</ele>
        <time>2015-02-16T21:33:08.960Z</time>
      </trkpt>
      <trkpt lat="48.85959" lon="2.34676">
        <ele>96.1</ele>
        <time>2015-02-16T21:33:09.609Z</time>
      </trkpt>
      <trkpt lat="48.85956" lon="2.34685">
        <ele>95.5</ele>
        <time>2015-02-16T21:33:11.683Z</time>
      </trkpt>
      <trkpt lat="48.85955" lon="2.34689">
        <ele>95.4</ele>
        <time>2015-02-16T21:33:12.550Z</time>
      </trkpt>
      <trkpt lat="48.85952" lon="2.347">
        <ele>95.6</ele>
        <time>2015-02-16T21:33:16.623Z</time>
      </trkpt>
      <trkpt lat="48.85951" lon="2.34702">
        <ele>96.2</ele>
        <time>2015-02-16T21:33:17.564Z</time>
      </trkpt>
      <trkpt lat="48.85955" lon="2.34705">
        <ele>101.6</ele>
        <time>2015-02-16T21:33:32.611Z</time>
      </trkpt>
      <trkpt lat="48.85954" lon="2.34706">
        <ele>102.2</ele>
        <time>2015-02-16T21:33:33.511Z</time>
      </trkpt>
      <trkpt lat="48.85953" lon="2.34707">
        <ele>102.7</ele>
        <time>2015-02-16T21:33:48.518Z</time>
      </trkpt>
      <trkpt lat="48.8595" lon="2.34705">
        <ele>105.7</ele>
        <time>2015-02-16T21:33:49.548Z</time>
      </trkpt>
      <trkpt lat="48.85948" lon="2.34705">
        <ele>106.1</ele>
        <time>2015-02-16T21:33:52.522Z</time>
      </trkpt>
      <trkpt lat="48.8595" lon="2.34705">
        <ele>106.7</ele>
        <time>2015-02-16T21:33:53.511Z</time>
      </trkpt>
      <trkpt lat="48.85951" lon="2.34705">
        <ele>106.9</ele>
        <time>2015-02-16T21:33:54.557Z</time>
      </trkpt>
    </trkseg>
  </trk>
  <trk>
    <name><![CDATA[09/02/2015 20:19]]></name>
    <extensions>
      <line xmlns="http://www.topografix.com/GPX/gpx_style/0/2">
        <color>000000</color>
      </line>
    </extensions>
    <trkseg>
      <trkpt lat="48.85734" lon="2.34745">
        <ele>89.6</ele>
        <time>2015-02-09T19:19:22.832Z</time>
      </trkpt>
      <trkpt lat="48.85734" lon="2.34741">
        <ele>90.1</ele>
        <time>2015-02-09T19:19:56.616Z</time>
      </trkpt>
      <trkpt lat="48.85734" lon="2.34741">
        <ele>90.1</ele>
        <time>2015-02-09T19:19:57.638Z</time>
      </trkpt>
      <trkpt lat="48.85734" lon="2.34742">
        <ele>90</ele>
        <time>2015-02-09T19:19:58.537Z</time>
      </trkpt>
      <trkpt lat="48.85734" lon="2.3475">
        <ele>89.2</ele>
        <time>2015-02-09T19:20:02.591Z</time>
      </trkpt>
      <trkpt lat="48.85735" lon="2.34751">
        <ele>89.2</ele>
        <time>2015-02-09T19:20:03.615Z</time>
      </trkpt>
      <trkpt lat="48.85735" lon="2.34751">
        <ele>89.3</ele>
        <time>2015-02-09T19:20:08.543Z</time>
      </trkpt>
      <trkpt lat="48.85735" lon="2.34754">
        <ele>89.8</ele>
        <time>2015-02-09T19:20:09.596Z</time>
      </trkpt>
      <trkpt lat="48.85735" lon="2.34756">
        <ele>89.9</ele>
        <time>2015-02-09T19:20:10.528Z</time>
      </trkpt>
      <trkpt lat="48.85736" lon="2.34757">
        <ele>89.9</ele>
        <time>2015-02-09T19:20:11.543Z</time>
      </trkpt>
      <trkpt lat="48.85736" lon="2.34758">
        <ele>90.1</ele>
        <time>2015-02-09T19:20:30.604Z</time>
      </trkpt>
      <trkpt lat="48.85737" lon="2.34771">
        <ele>91.6</ele>
        <time>2015-02-09T19:20:31.631Z</time>
      </trkpt>
      <trkpt lat="48.85737" lon="2.34769">
        <ele>92.3</ele>
        <time>2015-02-09T19:20:35.555Z</time>
      </trkpt>
      <trkpt lat="48.85738" lon="2.34769">
        <ele>92.4</ele>
        <time>2015-02-09T19:20:36.569Z</time>
      </trkpt>
      <trkpt lat="48.85738" lon="2.34768">
        <ele>92.8</ele>
        <time>2015-02-09T19:20:54.600Z</time>
      </trkpt>
      <trkpt lat="48.85739" lon="2.34771">
        <ele>93.9</ele>
        <time>2015-02-09T19:20:55.619Z</time>
      </trkpt>
      <trkpt lat="48.85739" lon="2.34771">
        <ele>94</ele>
        <time>2015-02-09T19:20:56.728Z</time>
      </trkpt>
      <trkpt lat="48.85739" lon="2.34772">
        <ele>94</ele>
        <time>2015-02-09T19:20:57.566Z</time>
      </trkpt>
      <trkpt lat="48.85738" lon="2.34773">
        <ele>94</ele>
        <time>2015-02-09T19:20:58.579Z</time>
      </trkpt>
      <trkpt lat="48.85738" lon="2.34774">
        <ele>94.1</ele>
        <time>2015-02-09T19:21:03.551Z</time>
      </trkpt>
      <trkpt lat="48.85738" lon="2.34774">
        <ele>94.1</ele>
        <time>2015-02-09T19:21:04.574Z</time>
      </trkpt>
      <trkpt lat="48.85738" lon="2.34775">
        <ele>94.2</ele>
        <time>2015-02-09T19:21:05.658Z</time>
      </trkpt>
      <trkpt lat="48.85738" lon="2.34778">
        <ele>94.4</ele>
        <time>2015-02-09T19:21:11.581Z</time>
      </trkpt>
      <trkpt lat="48.85738" lon="2.34778">
        <ele>94.4</ele>
        <time>2015-02-09T19:21:12.534Z</time>
      </trkpt>
      <trkpt lat="48.85738" lon="2.34778">
        <ele>94.5</ele>
        <time>2015-02-09T19:21:13.577Z</time>
      </trkpt>
      <trkpt lat="48.85738" lon="2.34777">
        <ele>94.5</ele>
        <time>2015-02-09T19:21:14.583Z</time>
      </trkpt>
      <trkpt lat="48.85738" lon="2.34778">
        <ele>94.9</ele>
        <time>2015-02-09T19:21:35.528Z</time>
      </trkpt>
      <trkpt lat="48.8574" lon="2.34755">
        <ele>94.8</ele>
        <time>2015-02-09T19:21:36.545Z</time>
      </trkpt>
      <trkpt lat="48.8574" lon="2.34741">
        <ele>92.8</ele>
        <time>2015-02-09T19:21:40.531Z</time>
      </trkpt>
      <trkpt lat="48.8574" lon="2.34738">
        <ele>92.3</ele>
        <time>2015-02-09T19:21:41.527Z</time>
      </trkpt>
      <trkpt lat="48.8574" lon="2.34725">
        <ele>90.5</ele>
        <time>2015-02-09T19:21:46.609Z</time>
      </trkpt>
      <trkpt lat="48.85739" lon="2.34722">
        <ele>90.1</ele>
        <time>2015-02-09T19:21:47.572Z</time>
      </trkpt>
      <trkpt lat="48.85737" lon="2.3471">
        <ele>91.4</ele>
        <time>2015-02-09T19:21:52.566Z</time>
      </trkpt>
      <trkpt lat="48.85737" lon="2.34706">
        <ele>91.2</ele>
        <time>2015-02-09T19:21:53.575Z</time>
      </trkpt>
      <trkpt lat="48.85735" lon="2.34693">
        <ele>90.1</ele>
        <time>2015-02-09T19:22:00.592Z</time>
      </trkpt>
      <trkpt lat="48.85732" lon="2.34692">
        <ele>89.9</ele>
        <time>2015-02-09T19:22:01.621Z</time>
      </trkpt>
      <trkpt lat="48.85725" lon="2.34692">
        <ele>89.4</ele>
        <time>2015-02-09T19:22:04.574Z</time>
      </trkpt>
      <trkpt lat="48.85723" lon="2.34692">
        <ele>89.1</ele>
        <time>2015-02-09T19:22:05.585Z</time>
      </trkpt>
      <trkpt lat="48.85714" lon="2.34691">
        <ele>87.9</ele>
        <time>2015-02-09T19:22:09.714Z</time>
      </trkpt>
      <trkpt lat="48.85712" lon="2.3469">
        <ele>87.8</ele>
        <time>2015-02-09T19:22:10.579Z</time>
      </trkpt>
      <trkpt lat="48.85704" lon="2.34688">
        <ele>87</ele>
        <time>2015-02-09T19:22:14.656Z</time>
      </trkpt>
      <trkpt lat="48.85702" lon="2.34687">
        <ele>86.7</ele>
        <time>2015-02-09T19:22:15.567Z</time>
      </trkpt>
      <trkpt lat="48.85695" lon="2.34683">
        <ele>86.4</ele>
        <time>2015-02-09T19:22:18.614Z</time>
      </trkpt>
      <trkpt lat="48.85692" lon="2.34682">
        <ele>86.2</ele>
        <time>2015-02-09T19:22:19.628Z</time>
      </trkpt>
      <trkpt lat="48.85685" lon="2.34677">
        <ele>85.8</ele>
        <time>2015-02-09T19:22:22.607Z</time>
      </trkpt>
      <trkpt lat="48.85683" lon="2.34676">
        <ele>85.6</ele>
        <time>2015-02-09T19:22:23.626Z</time>
      </trkpt>
      <trkpt lat="48.85675" lon="2.34672">
        <ele>85.2</ele>
        <time>2015-02-09T19:22:26.549Z</time>
      </trkpt>
      <trkpt lat="48.85673" lon="2.34669">
        <ele>85.2</ele>
        <time>2015-02-09T19:22:27.554Z</time>
      </trkpt>
      <trkpt lat="48.85665" lon="2.34664">
        <ele>84.8</ele>
        <time>2015-02-09T19:22:30.549Z</time>
      </trkpt>
      <trkpt lat="48.85662" lon="2.34662">
        <ele>84.8</ele>
        <time>2015-02-09T19:22:31.620Z</time>
      </trkpt>
      <trkpt lat="48.85655" lon="2.34655">
        <ele>83.9</ele>
        <time>2015-02-09T19:22:34.553Z</time>
      </trkpt>
      <trkpt lat="48.85652" lon="2.34653">
        <ele>83.8</ele>
        <time>2015-02-09T19:22:35.550Z</time>
      </trkpt>
      <trkpt lat="48.85644" lon="2.34647">
        <ele>83.7</ele>
        <time>2015-02-09T19:22:38.592Z</time>
      </trkpt>
      <trkpt lat="48.85641" lon="2.34645">
        <ele>83.8</ele>
        <time>2015-02-09T19:22:39.612Z</time>
      </trkpt>
      <trkpt lat="48.85633" lon="2.34641">
        <ele>83.1</ele>
        <time>2015-02-09T19:22:43.616Z</time>
      </trkpt>
      <trkpt lat="48.85632" lon="2.3464">
        <ele>83.1</ele>
        <time>2015-02-09T19:22:44.615Z</time>
      </trkpt>
      <trkpt lat="48.85624" lon="2.34637">
        <ele>83.3</ele>
        <time>2015-02-09T19:22:49.605Z</time>
      </trkpt>
      <trkpt lat="48.85622" lon="2.34636">
        <ele>83.3</ele>
        <time>2015-02-09T19:22:50.619Z</time>
      </trkpt>
      <trkpt lat="48.85614" lon="2.34631">
        <ele>84.1</ele>
        <time>2015-02-09T19:22:54.559Z</time>
      </trkpt>
      <trkpt lat="48.85612" lon="2.3463">
        <ele>84.1</ele>
        <time>2015-02-09T19:22:55.597Z</time>
      </trkpt>
      <trkpt lat="48.85605" lon="2.34626">
        <ele>84.4</ele>
        <time>2015-02-09T19:22:57.615Z</time>
      </trkpt>
      <trkpt lat="48.85602" lon="2.34624">
        <ele>84.5</ele>
        <time>2015-02-09T19:22:58.620Z</time>
      </trkpt>
      <trkpt lat="48.85594" lon="2.34619">
        <ele>84.2</ele>
        <time>2015-02-09T19:23:00.542Z</time>
      </trkpt>
      <trkpt lat="48.8559" lon="2.34618">
        <ele>84.1</ele>
        <time>2015-02-09T19:23:01.624Z</time>
      </trkpt>
      <trkpt lat="48.85583" lon="2.34614">
        <ele>84.1</ele>
        <time>2015-02-09T19:23:03.529Z</time>
      </trkpt>
      <trkpt lat="48.8558" lon="2.34613">
        <ele>84.3</ele>
        <time>2015-02-09T19:23:04.542Z</time>
      </trkpt>
      <trkpt lat="48.85573" lon="2.34606">
        <ele>84.1</ele>
        <time>2015-02-09T19:23:08.542Z</time>
      </trkpt>
      <trkpt lat="48.85571" lon="2.34603">
        <ele>84</ele>
        <time>2015-02-09T19:23:09.550Z</time>
      </trkpt>
      <trkpt lat="48.85564" lon="2.34598">
        <ele>84.3</ele>
        <time>2015-02-09T19:23:11.646Z</time>
      </trkpt>
      <trkpt lat="48.85561" lon="2.34595">
        <ele>84.5</ele>
        <time>2015-02-09T19:23:12.553Z</time>
      </trkpt>
      <trkpt lat="48.85554" lon="2.34589">
        <ele>85.3</ele>
        <time>2015-02-09T19:23:15.622Z</time>
      </trkpt>
      <trkpt lat="48.85552" lon="2.34588">
        <ele>85.6</ele>
        <time>2015-02-09T19:23:16.546Z</time>
      </trkpt>
      <trkpt lat="48.85545" lon="2.34586">
        <ele>87.1</ele>
        <time>2015-02-09T19:23:19.624Z</time>
      </trkpt>
      <trkpt lat="48.85542" lon="2.34585">
        <ele>87.5</ele>
        <time>2015-02-09T19:23:20.548Z</time>
      </trkpt>
      <trkpt lat="48.85536" lon="2.34585">
        <ele>88.5</ele>
        <time>2015-02-09T19:23:22.547Z</time>
      </trkpt>
      <trkpt lat="48.85532" lon="2.34584">
        <ele>89</ele>
        <time>2015-02-09T19:23:23.548Z</time>
      </trkpt>
      <trkpt lat="48.85525" lon="2.34583">
        <ele>89.6</ele>
        <time>2015-02-09T19:23:25.577Z</time>
      </trkpt>
      <trkpt lat="48.8552" lon="2.34582">
        <ele>89.9</ele>
        <time>2015-02-09T19:23:26.584Z</time>
      </trkpt>
      <trkpt lat="48.85513" lon="2.34579">
        <ele>90.5</ele>
        <time>2015-02-09T19:23:28.546Z</time>
      </trkpt>
      <trkpt lat="48.85509" lon="2.34578">
        <ele>90.9</ele>
        <time>2015-02-09T19:23:29.721Z</time>
      </trkpt>
      <trkpt lat="48.85502" lon="2.34575">
        <ele>91.7</ele>
        <time>2015-02-09T19:23:31.595Z</time>
      </trkpt>
      <trkpt lat="48.85499" lon="2.34573">
        <ele>92</ele>
        <time>2015-02-09T19:23:32.616Z</time>
      </trkpt>
      <trkpt lat="48.85493" lon="2.34572">
        <ele>92.3</ele>
        <time>2015-02-09T19:23:34.533Z</time>
      </trkpt>
      <trkpt lat="48.8549" lon="2.34572">
        <ele>92.7</ele>
        <time>2015-02-09T19:23:35.540Z</time>
      </trkpt>
      <trkpt lat="48.85481" lon="2.3457">
        <ele>93.2</ele>
        <time>2015-02-09T19:23:38.626Z</time>
      </trkpt>
      <trkpt lat="48.85479" lon="2.34567">
        <ele>93.3</ele>
        <time>2015-02-09T19:23:39.543Z</time>
      </trkpt>
      <trkpt lat="48.85473" lon="2.34562">
        <ele>93.1</ele>
        <time>2015-02-09T19:23:41.600Z</time>
      </trkpt>
      <trkpt lat="48.85469" lon="2.34559">
        <ele>92.5</ele>
        <time>2015-02-09T19:23:42.607Z</time>
      </trkpt>
      <trkpt lat="48.85463" lon="2.34553">
        <ele>92.2</ele>
        <time>2015-02-09T19:23:44.522Z</time>
      </trkpt>
      <trkpt lat="48.8546" lon="2.34552">
        <ele>92</ele>
        <time>2015-02-09T19:23:45.590Z</time>
      </trkpt>
      <trkpt lat="48.85455" lon="2.34547">
        <ele>91.3</ele>
        <time>2015-02-09T19:23:47.538Z</time>
      </trkpt>
      <trkpt lat="48.85452" lon="2.34545">
        <ele>91</ele>
        <time>2015-02-09T19:23:48.543Z</time>
      </trkpt>
      <trkpt lat="48.85446" lon="2.34538">
        <ele>90.2</ele>
        <time>2015-02-09T19:23:50.581Z</time>
      </trkpt>
      <trkpt lat="48.85443" lon="2.34535">
        <ele>89.8</ele>
        <time>2015-02-09T19:23:51.592Z</time>
      </trkpt>
      <trkpt lat="48.85437" lon="2.34531">
        <ele>89.3</ele>
        <time>2015-02-09T19:23:53.658Z</time>
      </trkpt>
      <trkpt lat="48.85434" lon="2.34529">
        <ele>89.1</ele>
        <time>2015-02-09T19:23:54.570Z</time>
      </trkpt>
      <trkpt lat="48.85427" lon="2.3453">
        <ele>88.3</ele>
        <time>2015-02-09T19:23:58.594Z</time>
      </trkpt>
      <trkpt lat="48.85425" lon="2.3453">
        <ele>88.1</ele>
        <time>2015-02-09T19:23:59.602Z</time>
      </trkpt>
      <trkpt lat="48.85418" lon="2.34536">
        <ele>88.3</ele>
        <time>2015-02-09T19:24:04.601Z</time>
      </trkpt>
      <trkpt lat="48.85417" lon="2.34538">
        <ele>88.2</ele>
        <time>2015-02-09T19:24:05.584Z</time>
      </trkpt>
      <trkpt lat="48.8541" lon="2.34547">
        <ele>88.2</ele>
        <time>2015-02-09T19:24:09.540Z</time>
      </trkpt>
      <trkpt lat="48.85409" lon="2.3455">
        <ele>88.1</ele>
        <time>2015-02-09T19:24:10.606Z</time>
      </trkpt>
      <trkpt lat="48.85404" lon="2.34557">
        <ele>88.1</ele>
        <time>2015-02-09T19:24:13.591Z</time>
      </trkpt>
      <trkpt lat="48.85402" lon="2.3456">
        <ele>87.9</ele>
        <time>2015-02-09T19:24:14.597Z</time>
      </trkpt>
      <trkpt lat="48.85399" lon="2.34568">
        <ele>87.7</ele>
        <time>2015-02-09T19:24:16.531Z</time>
      </trkpt>
      <trkpt lat="48.85397" lon="2.34572">
        <ele>87.7</ele>
        <time>2015-02-09T19:24:17.580Z</time>
      </trkpt>
      <trkpt lat="48.85394" lon="2.3458">
        <ele>87.8</ele>
        <time>2015-02-09T19:24:19.607Z</time>
      </trkpt>
      <trkpt lat="48.85392" lon="2.34584">
        <ele>87.8</ele>
        <time>2015-02-09T19:24:20.627Z</time>
      </trkpt>
      <trkpt lat="48.85389" lon="2.34591">
        <ele>87.9</ele>
        <time>2015-02-09T19:24:22.557Z</time>
      </trkpt>
      <trkpt lat="48.85388" lon="2.34596">
        <ele>87.9</ele>
        <time>2015-02-09T19:24:23.581Z</time>
      </trkpt>
      <trkpt lat="48.85383" lon="2.34607">
        <ele>87.8</ele>
        <time>2015-02-09T19:24:26.545Z</time>
      </trkpt>
      <trkpt lat="48.85382" lon="2.34611">
        <ele>87.8</ele>
        <time>2015-02-09T19:24:27.619Z</time>
      </trkpt>
      <trkpt lat="48.85377" lon="2.34621">
        <ele>87.7</ele>
        <time>2015-02-09T19:24:30.594Z</time>
      </trkpt>
      <trkpt lat="48.85376" lon="2.34624">
        <ele>87.6</ele>
        <time>2015-02-09T19:24:31.584Z</time>
      </trkpt>
      <trkpt lat="48.85371" lon="2.34635">
        <ele>88</ele>
        <time>2015-02-09T19:24:34.544Z</time>
      </trkpt>
      <trkpt lat="48.8537" lon="2.3464">
        <ele>88.1</ele>
        <time>2015-02-09T19:24:35.549Z</time>
      </trkpt>
      <trkpt lat="48.85366" lon="2.34649">
        <ele>88.4</ele>
        <time>2015-02-09T19:24:37.614Z</time>
      </trkpt>
      <trkpt lat="48.85365" lon="2.34654">
        <ele>88.4</ele>
        <time>2015-02-09T19:24:38.628Z</time>
      </trkpt>
      <trkpt lat="48.85361" lon="2.34663">
        <ele>88.2</ele>
        <time>2015-02-09T19:24:40.534Z</time>
      </trkpt>
      <trkpt lat="48.8536" lon="2.34667">
        <ele>88</ele>
        <time>2015-02-09T19:24:41.543Z</time>
      </trkpt>
      <trkpt lat="48.8536" lon="2.34679">
        <ele>84.1</ele>
        <time>2015-02-09T19:24:43.610Z</time>
      </trkpt>
      <trkpt lat="48.85358" lon="2.34683">
        <ele>83.1</ele>
        <time>2015-02-09T19:24:44.620Z</time>
      </trkpt>
      <trkpt lat="48.85353" lon="2.34688">
        <ele>82.5</ele>
        <time>2015-02-09T19:24:46.563Z</time>
      </trkpt>
      <trkpt lat="48.85348" lon="2.34692">
        <ele>81.8</ele>
        <time>2015-02-09T19:24:47.600Z</time>
      </trkpt>
      <trkpt lat="48.85341" lon="2.34694">
        <ele>81.1</ele>
        <time>2015-02-09T19:24:49.641Z</time>
      </trkpt>
      <trkpt lat="48.85337" lon="2.34695">
        <ele>81</ele>
        <time>2015-02-09T19:24:50.546Z</time>
      </trkpt>
      <trkpt lat="48.8533" lon="2.34695">
        <ele>80.8</ele>
        <time>2015-02-09T19:24:52.569Z</time>
      </trkpt>
      <trkpt lat="48.85327" lon="2.34694">
        <ele>80.7</ele>
        <time>2015-02-09T19:24:53.591Z</time>
      </trkpt>
      <trkpt lat="48.85319" lon="2.34692">
        <ele>80.5</ele>
        <time>2015-02-09T19:24:56.558Z</time>
      </trkpt>
      <trkpt lat="48.85316" lon="2.34691">
        <ele>80.3</ele>
        <time>2015-02-09T19:24:57.552Z</time>
      </trkpt>
      <trkpt lat="48.85309" lon="2.34689">
        <ele>79.8</ele>
        <time>2015-02-09T19:25:01.593Z</time>
      </trkpt>
      <trkpt lat="48.85309" lon="2.34689">
        <ele>79.8</ele>
        <time>2015-02-09T19:25:02.607Z</time>
      </trkpt>
      <trkpt lat="48.85309" lon="2.34689">
        <ele>79.8</ele>
        <time>2015-02-09T19:25:25.597Z</time>
      </trkpt>
      <trkpt lat="48.85308" lon="2.34691">
        <ele>79.3</ele>
        <time>2015-02-09T19:25:26.619Z</time>
      </trkpt>
      <trkpt lat="48.85302" lon="2.34685">
        <ele>79.8</ele>
        <time>2015-02-09T19:25:30.563Z</time>
      </trkpt>
      <trkpt lat="48.853" lon="2.34683">
        <ele>80.1</ele>
        <time>2015-02-09T19:25:31.586Z</time>
      </trkpt>
      <trkpt lat="48.85294" lon="2.34674">
        <ele>80.4</ele>
        <time>2015-02-09T19:25:34.634Z</time>
      </trkpt>
      <trkpt lat="48.85291" lon="2.34672">
        <ele>80.5</ele>
        <time>2015-02-09T19:25:35.532Z</time>
      </trkpt>
      <trkpt lat="48.85284" lon="2.34664">
        <ele>80.8</ele>
        <time>2015-02-09T19:25:38.558Z</time>
      </trkpt>
      <trkpt lat="48.8528" lon="2.34662">
        <ele>80.9</ele>
        <time>2015-02-09T19:25:39.578Z</time>
      </trkpt>
      <trkpt lat="48.85273" lon="2.34657">
        <ele>81.1</ele>
        <time>2015-02-09T19:25:41.521Z</time>
      </trkpt>
      <trkpt lat="48.8527" lon="2.34655">
        <ele>81.2</ele>
        <time>2015-02-09T19:25:42.534Z</time>
      </trkpt>
      <trkpt lat="48.85263" lon="2.34652">
        <ele>80.9</ele>
        <time>2015-02-09T19:25:44.552Z</time>
      </trkpt>
      <trkpt lat="48.8526" lon="2.3465">
        <ele>80.9</ele>
        <time>2015-02-09T19:25:45.567Z</time>
      </trkpt>
      <trkpt lat="48.85255" lon="2.34645">
        <ele>80.9</ele>
        <time>2015-02-09T19:25:47.610Z</time>
      </trkpt>
      <trkpt lat="48.85252" lon="2.34642">
        <ele>80.8</ele>
        <time>2015-02-09T19:25:48.537Z</time>
      </trkpt>
      <trkpt lat="48.85248" lon="2.34639">
        <ele>80.6</ele>
        <time>2015-02-09T19:25:49.568Z</time>
      </trkpt>
      <trkpt lat="48.85243" lon="2.34636">
        <ele>80.7</ele>
        <time>2015-02-09T19:25:50.638Z</time>
      </trkpt>
      <trkpt lat="48.85237" lon="2.34632">
        <ele>80.9</ele>
        <time>2015-02-09T19:25:52.629Z</time>
      </trkpt>
      <trkpt lat="48.85235" lon="2.34628">
        <ele>80.9</ele>
        <time>2015-02-09T19:25:53.651Z</time>
      </trkpt>
      <trkpt lat="48.85228" lon="2.34623">
        <ele>81.4</ele>
        <time>2015-02-09T19:25:55.553Z</time>
      </trkpt>
      <trkpt lat="48.85223" lon="2.34621">
        <ele>82.1</ele>
        <time>2015-02-09T19:25:56.565Z</time>
      </trkpt>
      <trkpt lat="48.85215" lon="2.34617">
        <ele>82.9</ele>
        <time>2015-02-09T19:25:58.602Z</time>
      </trkpt>
      <trkpt lat="48.85211" lon="2.34614">
        <ele>83</ele>
        <time>2015-02-09T19:25:59.611Z</time>
      </trkpt>
      <trkpt lat="48.85203" lon="2.34609">
        <ele>83.4</ele>
        <time>2015-02-09T19:26:01.564Z</time>
      </trkpt>
      <trkpt lat="48.85199" lon="2.34608">
        <ele>83.6</ele>
        <time>2015-02-09T19:26:02.591Z</time>
      </trkpt>
      <trkpt lat="48.85192" lon="2.34601">
        <ele>83.9</ele>
        <time>2015-02-09T19:26:04.513Z</time>
      </trkpt>
      <trkpt lat="48.85189" lon="2.34599">
        <ele>84</ele>
        <time>2015-02-09T19:26:05.523Z</time>
      </trkpt>
      <trkpt lat="48.85181" lon="2.34593">
        <ele>84.3</ele>
        <time>2015-02-09T19:26:07.577Z</time>
      </trkpt>
      <trkpt lat="48.85178" lon="2.34591">
        <ele>84.4</ele>
        <time>2015-02-09T19:26:08.597Z</time>
      </trkpt>
      <trkpt lat="48.8517" lon="2.34587">
        <ele>84.5</ele>
        <time>2015-02-09T19:26:10.533Z</time>
      </trkpt>
      <trkpt lat="48.85166" lon="2.34586">
        <ele>84.6</ele>
        <time>2015-02-09T19:26:11.546Z</time>
      </trkpt>
      <trkpt lat="48.85158" lon="2.34584">
        <ele>84.5</ele>
        <time>2015-02-09T19:26:13.597Z</time>
      </trkpt>
      <trkpt lat="48.85155" lon="2.34583">
        <ele>84.4</ele>
        <time>2015-02-09T19:26:14.609Z</time>
      </trkpt>
      <trkpt lat="48.85148" lon="2.34582">
        <ele>84.3</ele>
        <time>2015-02-09T19:26:16.517Z</time>
      </trkpt>
      <trkpt lat="48.85145" lon="2.34581">
        <ele>84.2</ele>
        <time>2015-02-09T19:26:17.542Z</time>
      </trkpt>
      <trkpt lat="48.8514" lon="2.34577">
        <ele>83.9</ele>
        <time>2015-02-09T19:26:19.536Z</time>
      </trkpt>
      <trkpt lat="48.85136" lon="2.34577">
        <ele>83.8</ele>
        <time>2015-02-09T19:26:20.576Z</time>
      </trkpt>
      <trkpt lat="48.85131" lon="2.34573">
        <ele>83.8</ele>
        <time>2015-02-09T19:26:22.608Z</time>
      </trkpt>
      <trkpt lat="48.85126" lon="2.34567">
        <ele>84.1</ele>
        <time>2015-02-09T19:26:24.516Z</time>
      </trkpt>
      <trkpt lat="48.85121" lon="2.3456">
        <ele>84.6</ele>
        <time>2015-02-09T19:26:26.567Z</time>
      </trkpt>
      <trkpt lat="48.85118" lon="2.34557">
        <ele>84.9</ele>
        <time>2015-02-09T19:26:27.579Z</time>
      </trkpt>
      <trkpt lat="48.85112" lon="2.34552">
        <ele>85.6</ele>
        <time>2015-02-09T19:26:30.568Z</time>
      </trkpt>
      <trkpt lat="48.85109" lon="2.34551">
        <ele>85.9</ele>
        <time>2015-02-09T19:26:31.578Z</time>
      </trkpt>
      <trkpt lat="48.85101" lon="2.34552">
        <ele>87.4</ele>
        <time>2015-02-09T19:26:39.561Z</time>
      </trkpt>
      <trkpt lat="48.851" lon="2.34552">
        <ele>87.7</ele>
        <time>2015-02-09T19:26:40.569Z</time>
      </trkpt>
      <trkpt lat="48.85093" lon="2.34552">
        <ele>88.8</ele>
        <time>2015-02-09T19:26:58.592Z</time>
      </trkpt>
      <trkpt lat="48.85091" lon="2.34551">
        <ele>90.1</ele>
        <time>2015-02-09T19:26:59.626Z</time>
      </trkpt>
      <trkpt lat="48.85086" lon="2.34542">
        <ele>91</ele>
        <time>2015-02-09T19:27:11.500Z</time>
      </trkpt>
      <trkpt lat="48.85083" lon="2.3454">
        <ele>91.1</ele>
        <time>2015-02-09T19:27:12.575Z</time>
      </trkpt>
      <trkpt lat="48.85076" lon="2.34536">
        <ele>91.4</ele>
        <time>2015-02-09T19:27:14.515Z</time>
      </trkpt>
      <trkpt lat="48.85073" lon="2.34534">
        <ele>91.6</ele>
        <time>2015-02-09T19:27:15.532Z</time>
      </trkpt>
      <trkpt lat="48.85065" lon="2.34532">
        <ele>92.9</ele>
        <time>2015-02-09T19:27:17.569Z</time>
      </trkpt>
      <trkpt lat="48.85064" lon="2.3453">
        <ele>93.2</ele>
        <time>2015-02-09T19:27:18.582Z</time>
      </trkpt>
      <trkpt lat="48.85062" lon="2.34537">
        <ele>94.8</ele>
        <time>2015-02-09T19:27:29.530Z</time>
      </trkpt>
      <trkpt lat="48.8506" lon="2.34542">
        <ele>94.7</ele>
        <time>2015-02-09T19:27:30.541Z</time>
      </trkpt>
      <trkpt lat="48.85056" lon="2.34551">
        <ele>94.8</ele>
        <time>2015-02-09T19:27:32.594Z</time>
      </trkpt>
      <trkpt lat="48.85053" lon="2.34556">
        <ele>94.9</ele>
        <time>2015-02-09T19:27:33.499Z</time>
      </trkpt>
      <trkpt lat="48.85045" lon="2.34563">
        <ele>95.2</ele>
        <time>2015-02-09T19:27:35.588Z</time>
      </trkpt>
      <trkpt lat="48.85042" lon="2.34568">
        <ele>95.2</ele>
        <time>2015-02-09T19:27:36.602Z</time>
      </trkpt>
      <trkpt lat="48.85035" lon="2.34576">
        <ele>95.5</ele>
        <time>2015-02-09T19:27:38.537Z</time>
      </trkpt>
      <trkpt lat="48.85033" lon="2.34582">
        <ele>95.8</ele>
        <time>2015-02-09T19:27:39.556Z</time>
      </trkpt>
      <trkpt lat="48.85025" lon="2.34587">
        <ele>96.4</ele>
        <time>2015-02-09T19:27:42.558Z</time>
      </trkpt>
      <trkpt lat="48.85023" lon="2.34589">
        <ele>96.5</ele>
        <time>2015-02-09T19:27:43.657Z</time>
      </trkpt>
      <trkpt lat="48.85016" lon="2.34596">
        <ele>96.6</ele>
        <time>2015-02-09T19:27:47.580Z</time>
      </trkpt>
      <trkpt lat="48.85015" lon="2.34597">
        <ele>96.6</ele>
        <time>2015-02-09T19:27:48.591Z</time>
      </trkpt>
      <trkpt lat="48.85014" lon="2.34603">
        <ele>96.7</ele>
        <time>2015-02-09T19:27:50.573Z</time>
      </trkpt>
      <trkpt lat="48.8501" lon="2.34609">
        <ele>97.1</ele>
        <time>2015-02-09T19:27:51.583Z</time>
      </trkpt>
      <trkpt lat="48.85004" lon="2.34617">
        <ele>97</ele>
        <time>2015-02-09T19:27:53.534Z</time>
      </trkpt>
      <trkpt lat="48.84998" lon="2.3462">
        <ele>96.9</ele>
        <time>2015-02-09T19:27:54.564Z</time>
      </trkpt>
      <trkpt lat="48.84994" lon="2.34624">
        <ele>96.8</ele>
        <time>2015-02-09T19:27:55.596Z</time>
      </trkpt>
      <trkpt lat="48.8499" lon="2.34628">
        <ele>96.7</ele>
        <time>2015-02-09T19:27:56.640Z</time>
      </trkpt>
      <trkpt lat="48.84986" lon="2.34633">
        <ele>96.5</ele>
        <time>2015-02-09T19:27:57.522Z</time>
      </trkpt>
      <trkpt lat="48.84982" lon="2.34639">
        <ele>96.4</ele>
        <time>2015-02-09T19:27:58.528Z</time>
      </trkpt>
      <trkpt lat="48.84979" lon="2.34644">
        <ele>96.3</ele>
        <time>2015-02-09T19:27:59.546Z</time>
      </trkpt>
      <trkpt lat="48.84976" lon="2.34651">
        <ele>96.3</ele>
        <time>2015-02-09T19:28:00.583Z</time>
      </trkpt>
      <trkpt lat="48.84972" lon="2.34658">
        <ele>96.3</ele>
        <time>2015-02-09T19:28:01.608Z</time>
      </trkpt>
      <trkpt lat="48.84958" lon="2.34675">
        <ele>98.1</ele>
        <time>2015-02-09T19:28:03.643Z</time>
      </trkpt>
      <trkpt lat="48.84957" lon="2.34687">
        <ele>98.3</ele>
        <time>2015-02-09T19:28:05.513Z</time>
      </trkpt>
      <trkpt lat="48.84956" lon="2.3469">
        <ele>98.2</ele>
        <time>2015-02-09T19:28:06.528Z</time>
      </trkpt>
      <trkpt lat="48.84954" lon="2.34691">
        <ele>98.5</ele>
        <time>2015-02-09T19:28:09.513Z</time>
      </trkpt>
      <trkpt lat="48.84954" lon="2.34691">
        <ele>98.7</ele>
        <time>2015-02-09T19:28:10.606Z</time>
      </trkpt>
      <trkpt lat="48.84954" lon="2.34692">
        <ele>99</ele>
        <time>2015-02-09T19:28:11.505Z</time>
      </trkpt>
      <trkpt lat="48.84951" lon="2.34679">
        <ele>97.9</ele>
        <time>2015-02-09T19:28:36.508Z</time>
      </trkpt>
      <trkpt lat="48.8495" lon="2.34679">
        <ele>97.7</ele>
        <time>2015-02-09T19:28:37.537Z</time>
      </trkpt>
      <trkpt lat="48.84948" lon="2.3468">
        <ele>97.6</ele>
        <time>2015-02-09T19:28:39.550Z</time>
      </trkpt>
      <trkpt lat="48.84947" lon="2.34679">
        <ele>97.4</ele>
        <time>2015-02-09T19:28:40.558Z</time>
      </trkpt>
      <trkpt lat="48.84945" lon="2.34677">
        <ele>97.1</ele>
        <time>2015-02-09T19:28:41.565Z</time>
      </trkpt>
      <trkpt lat="48.84944" lon="2.34676">
        <ele>96.8</ele>
        <time>2015-02-09T19:28:42.565Z</time>
      </trkpt>
      <trkpt lat="48.84942" lon="2.34676">
        <ele>96.7</ele>
        <time>2015-02-09T19:28:43.574Z</time>
      </trkpt>
      <trkpt lat="48.84941" lon="2.34675">
        <ele>96.6</ele>
        <time>2015-02-09T19:28:44.584Z</time>
      </trkpt>
      <trkpt lat="48.8494" lon="2.34676">
        <ele>96.6</ele>
        <time>2015-02-09T19:28:45.595Z</time>
      </trkpt>
      <trkpt lat="48.84931" lon="2.34674">
        <ele>96.1</ele>
        <time>2015-02-09T19:28:51.441Z</time>
      </trkpt>
      <trkpt lat="48.8493" lon="2.34673">
        <ele>95.9</ele>
        <time>2015-02-09T19:28:51.533Z</time>
      </trkpt>
      <trkpt lat="48.84924" lon="2.34667">
        <ele>95.2</ele>
        <time>2015-02-09T19:28:56.558Z</time>
      </trkpt>
      <trkpt lat="48.84922" lon="2.34665">
        <ele>95.3</ele>
        <time>2015-02-09T19:28:57.666Z</time>
      </trkpt>
      <trkpt lat="48.84916" lon="2.34661">
        <ele>95.2</ele>
        <time>2015-02-09T19:28:59.526Z</time>
      </trkpt>
      <trkpt lat="48.84914" lon="2.34658">
        <ele>95.2</ele>
        <time>2015-02-09T19:29:00.534Z</time>
      </trkpt>
      <trkpt lat="48.84908" lon="2.34657">
        <ele>95.4</ele>
        <time>2015-02-09T19:29:02.530Z</time>
      </trkpt>
      <trkpt lat="48.84905" lon="2.34657">
        <ele>95.6</ele>
        <time>2015-02-09T19:29:03.542Z</time>
      </trkpt>
      <trkpt lat="48.84898" lon="2.34653">
        <ele>97</ele>
        <time>2015-02-09T19:29:06.660Z</time>
      </trkpt>
      <trkpt lat="48.84896" lon="2.34652">
        <ele>97.6</ele>
        <time>2015-02-09T19:29:07.581Z</time>
      </trkpt>
      <trkpt lat="48.84888" lon="2.34646">
        <ele>99</ele>
        <time>2015-02-09T19:29:10.547Z</time>
      </trkpt>
      <trkpt lat="48.84886" lon="2.34645">
        <ele>99.3</ele>
        <time>2015-02-09T19:29:11.591Z</time>
      </trkpt>
      <trkpt lat="48.84884" lon="2.34649">
        <ele>99.5</ele>
        <time>2015-02-09T19:29:20.583Z</time>
      </trkpt>
      <trkpt lat="48.8483" lon="2.34724">
        <ele>92.9</ele>
        <time>2015-02-09T19:30:09.535Z</time>
      </trkpt>
      <trkpt lat="48.84824" lon="2.34725">
        <ele>93.2</ele>
        <time>2015-02-09T19:30:10.546Z</time>
      </trkpt>
      <trkpt lat="48.84821" lon="2.34728">
        <ele>93</ele>
        <time>2015-02-09T19:30:11.557Z</time>
      </trkpt>
      <trkpt lat="48.84814" lon="2.34732">
        <ele>93.6</ele>
        <time>2015-02-09T19:30:13.680Z</time>
      </trkpt>
      <trkpt lat="48.84812" lon="2.34735">
        <ele>93.5</ele>
        <time>2015-02-09T19:30:14.586Z</time>
      </trkpt>
      <trkpt lat="48.84806" lon="2.34741">
        <ele>93.4</ele>
        <time>2015-02-09T19:30:17.522Z</time>
      </trkpt>
      <trkpt lat="48.84802" lon="2.34742">
        <ele>93.5</ele>
        <time>2015-02-09T19:30:18.518Z</time>
      </trkpt>
      <trkpt lat="48.84794" lon="2.34744">
        <ele>93.6</ele>
        <time>2015-02-09T19:30:21.557Z</time>
      </trkpt>
      <trkpt lat="48.84791" lon="2.34745">
        <ele>93.6</ele>
        <time>2015-02-09T19:30:22.569Z</time>
      </trkpt>
      <trkpt lat="48.84784" lon="2.34748">
        <ele>93.4</ele>
        <time>2015-02-09T19:30:24.597Z</time>
      </trkpt>
      <trkpt lat="48.8478" lon="2.34752">
        <ele>93.3</ele>
        <time>2015-02-09T19:30:25.614Z</time>
      </trkpt>
      <trkpt lat="48.84774" lon="2.34761">
        <ele>93.3</ele>
        <time>2015-02-09T19:30:27.995Z</time>
      </trkpt>
      <trkpt lat="48.84771" lon="2.34765">
        <ele>93.2</ele>
        <time>2015-02-09T19:30:28.558Z</time>
      </trkpt>
      <trkpt lat="48.84765" lon="2.34772">
        <ele>93</ele>
        <time>2015-02-09T19:30:30.600Z</time>
      </trkpt>
      <trkpt lat="48.84761" lon="2.34776">
        <ele>93.2</ele>
        <time>2015-02-09T19:30:31.614Z</time>
      </trkpt>
      <trkpt lat="48.84755" lon="2.34785">
        <ele>93.7</ele>
        <time>2015-02-09T19:30:33.515Z</time>
      </trkpt>
      <trkpt lat="48.84753" lon="2.3479">
        <ele>94</ele>
        <time>2015-02-09T19:30:34.562Z</time>
      </trkpt>
      <trkpt lat="48.8475" lon="2.34799">
        <ele>93.9</ele>
        <time>2015-02-09T19:30:36.477Z</time>
      </trkpt>
      <trkpt lat="48.84749" lon="2.34803">
        <ele>93.9</ele>
        <time>2015-02-09T19:30:37.522Z</time>
      </trkpt>
      <trkpt lat="48.84746" lon="2.34816">
        <ele>94.1</ele>
        <time>2015-02-09T19:30:43.175Z</time>
      </trkpt>
      <trkpt lat="48.84746" lon="2.34817">
        <ele>94.3</ele>
        <time>2015-02-09T19:30:43.632Z</time>
      </trkpt>
      <trkpt lat="48.84744" lon="2.34816">
        <ele>94.8</ele>
        <time>2015-02-09T19:30:46.599Z</time>
      </trkpt>
      <trkpt lat="48.84743" lon="2.34816">
        <ele>95.1</ele>
        <time>2015-02-09T19:30:47.543Z</time>
      </trkpt>
      <trkpt lat="48.84743" lon="2.34816">
        <ele>95.1</ele>
        <time>2015-02-09T19:30:48.183Z</time>
      </trkpt>
      <trkpt lat="48.84743" lon="2.34815">
        <ele>95.7</ele>
        <time>2015-02-09T19:30:48.523Z</time>
      </trkpt>
      <trkpt lat="48.84734" lon="2.34814">
        <ele>96.8</ele>
        <time>2015-02-09T19:30:53.240Z</time>
      </trkpt>
      <trkpt lat="48.84731" lon="2.34814">
        <ele>96.9</ele>
        <time>2015-02-09T19:30:53.523Z</time>
      </trkpt>
      <trkpt lat="48.84728" lon="2.34813">
        <ele>97</ele>
        <time>2015-02-09T19:30:54.538Z</time>
      </trkpt>
      <trkpt lat="48.8469" lon="2.34804">
        <ele>96.1</ele>
        <time>2015-02-09T19:31:09.585Z</time>
      </trkpt>
      <trkpt lat="48.84656" lon="2.34883">
        <ele>92.6</ele>
        <time>2015-02-09T19:31:36.499Z</time>
      </trkpt>
      <trkpt lat="48.84652" lon="2.34892">
        <ele>89.6</ele>
        <time>2015-02-09T19:31:40.565Z</time>
      </trkpt>
      <trkpt lat="48.8465" lon="2.34894">
        <ele>91.1</ele>
        <time>2015-02-09T19:31:41.581Z</time>
      </trkpt>
      <trkpt lat="48.84642" lon="2.34896">
        <ele>97.8</ele>
        <time>2015-02-09T19:31:44.544Z</time>
      </trkpt>
      <trkpt lat="48.84637" lon="2.34893">
        <ele>102.7</ele>
        <time>2015-02-09T19:31:45.549Z</time>
      </trkpt>
      <trkpt lat="48.84629" lon="2.34896">
        <ele>110.2</ele>
        <time>2015-02-09T19:31:49.566Z</time>
      </trkpt>
      <trkpt lat="48.84628" lon="2.34898">
        <ele>111</ele>
        <time>2015-02-09T19:31:50.637Z</time>
      </trkpt>
      <trkpt lat="48.84621" lon="2.34903">
        <ele>118.1</ele>
        <time>2015-02-09T19:31:55.536Z</time>
      </trkpt>
      <trkpt lat="48.8462" lon="2.34905">
        <ele>117.3</ele>
        <time>2015-02-09T19:31:56.551Z</time>
      </trkpt>
      <trkpt lat="48.84622" lon="2.34908">
        <ele>117.6</ele>
        <time>2015-02-09T19:32:03.651Z</time>
      </trkpt>
      <trkpt lat="48.84622" lon="2.34907">
        <ele>117.3</ele>
        <time>2015-02-09T19:32:03.694Z</time>
      </trkpt>
      <trkpt lat="48.84621" lon="2.34906">
        <ele>117</ele>
        <time>2015-02-09T19:32:04.520Z</time>
      </trkpt>
      <trkpt lat="48.8462" lon="2.34906">
        <ele>117</ele>
        <time>2015-02-09T19:32:05.515Z</time>
      </trkpt>
      <trkpt lat="48.8462" lon="2.34906">
        <ele>117.9</ele>
        <time>2015-02-09T19:32:06.509Z</time>
      </trkpt>
      <trkpt lat="48.84619" lon="2.34909">
        <ele>117.8</ele>
        <time>2015-02-09T19:32:07.544Z</time>
      </trkpt>
      <trkpt lat="48.8462" lon="2.34905">
        <ele>117.6</ele>
        <time>2015-02-09T19:32:13.874Z</time>
      </trkpt>
      <trkpt lat="48.8462" lon="2.34905">
        <ele>117.7</ele>
        <time>2015-02-09T19:32:14.514Z</time>
      </trkpt>
      <trkpt lat="48.8462" lon="2.34906">
        <ele>117.8</ele>
        <time>2015-02-09T19:32:15.522Z</time>
      </trkpt>
      <trkpt lat="48.84619" lon="2.34905">
        <ele>117.6</ele>
        <time>2015-02-09T19:32:19.570Z</time>
      </trkpt>
      <trkpt lat="48.84619" lon="2.34905">
        <ele>117.5</ele>
        <time>2015-02-09T19:32:20.580Z</time>
      </trkpt>
      <trkpt lat="48.84619" lon="2.34905">
        <ele>117.3</ele>
        <time>2015-02-09T19:32:21.591Z</time>
      </trkpt>
      <trkpt lat="48.84618" lon="2.34905">
        <ele>117.3</ele>
        <time>2015-02-09T19:32:23.589Z</time>
      </trkpt>
      <trkpt lat="48.84618" lon="2.34905">
        <ele>117.4</ele>
        <time>2015-02-09T19:32:24.517Z</time>
      </trkpt>
      <trkpt lat="48.84618" lon="2.34906">
        <ele>117.4</ele>
        <time>2015-02-09T19:32:51.548Z</time>
      </trkpt>
      <trkpt lat="48.84612" lon="2.34909">
        <ele>118.2</ele>
        <time>2015-02-09T19:32:52.612Z</time>
      </trkpt>
      <trkpt lat="48.84611" lon="2.34922">
        <ele>116.2</ele>
        <time>2015-02-09T19:33:00.516Z</time>
      </trkpt>
      <trkpt lat="48.84609" lon="2.34924">
        <ele>116.2</ele>
        <time>2015-02-09T19:33:01.552Z</time>
      </trkpt>
      <trkpt lat="48.84604" lon="2.34931">
        <ele>116.1</ele>
        <time>2015-02-09T19:33:04.610Z</time>
      </trkpt>
      <trkpt lat="48.84603" lon="2.34934">
        <ele>116</ele>
        <time>2015-02-09T19:33:05.524Z</time>
      </trkpt>
      <trkpt lat="48.84597" lon="2.34945">
        <ele>115.8</ele>
        <time>2015-02-09T19:33:08.541Z</time>
      </trkpt>
      <trkpt lat="48.84596" lon="2.34948">
        <ele>115.7</ele>
        <time>2015-02-09T19:33:09.569Z</time>
      </trkpt>
      <trkpt lat="48.84591" lon="2.34958">
        <ele>115.4</ele>
        <time>2015-02-09T19:33:12.554Z</time>
      </trkpt>
      <trkpt lat="48.84589" lon="2.34962">
        <ele>115.3</ele>
        <time>2015-02-09T19:33:13.582Z</time>
      </trkpt>
      <trkpt lat="48.84584" lon="2.34969">
        <ele>115.2</ele>
        <time>2015-02-09T19:33:15.559Z</time>
      </trkpt>
      <trkpt lat="48.84582" lon="2.34976">
        <ele>115.4</ele>
        <time>2015-02-09T19:33:16.600Z</time>
      </trkpt>
      <trkpt lat="48.8458" lon="2.34982">
        <ele>115.5</ele>
        <time>2015-02-09T19:33:17.501Z</time>
      </trkpt>
      <trkpt lat="48.84578" lon="2.34989">
        <ele>115.5</ele>
        <time>2015-02-09T19:33:18.515Z</time>
      </trkpt>
      <trkpt lat="48.84578" lon="2.34997">
        <ele>115.4</ele>
        <time>2015-02-09T19:33:19.580Z</time>
      </trkpt>
      <trkpt lat="48.84579" lon="2.35004">
        <ele>115.4</ele>
        <time>2015-02-09T19:33:20.586Z</time>
      </trkpt>
      <trkpt lat="48.84583" lon="2.35015">
        <ele>115.2</ele>
        <time>2015-02-09T19:33:22.479Z</time>
      </trkpt>
      <trkpt lat="48.84586" lon="2.35019">
        <ele>115</ele>
        <time>2015-02-09T19:33:23.502Z</time>
      </trkpt>
      <trkpt lat="48.84593" lon="2.35026">
        <ele>114.2</ele>
        <time>2015-02-09T19:33:24.522Z</time>
      </trkpt>
      <trkpt lat="48.84604" lon="2.35034">
        <ele>113</ele>
        <time>2015-02-09T19:33:25.540Z</time>
      </trkpt>
      <trkpt lat="48.84642" lon="2.35075">
        <ele>108.9</ele>
        <time>2015-02-09T19:33:31.546Z</time>
      </trkpt>
      <trkpt lat="48.84647" lon="2.35086">
        <ele>108.6</ele>
        <time>2015-02-09T19:33:33.572Z</time>
      </trkpt>
      <trkpt lat="48.84649" lon="2.3509">
        <ele>108.2</ele>
        <time>2015-02-09T19:33:34.496Z</time>
      </trkpt>
      <trkpt lat="48.84652" lon="2.35094">
        <ele>107.8</ele>
        <time>2015-02-09T19:33:35.517Z</time>
      </trkpt>
      <trkpt lat="48.84653" lon="2.35103">
        <ele>107</ele>
        <time>2015-02-09T19:33:36.533Z</time>
      </trkpt>
      <trkpt lat="48.84652" lon="2.35116">
        <ele>105.7</ele>
        <time>2015-02-09T19:33:37.548Z</time>
      </trkpt>
      <trkpt lat="48.84654" lon="2.35122">
        <ele>105.2</ele>
        <time>2015-02-09T19:33:38.553Z</time>
      </trkpt>
      <trkpt lat="48.84657" lon="2.35128">
        <ele>105.1</ele>
        <time>2015-02-09T19:33:39.466Z</time>
      </trkpt>
      <trkpt lat="48.8466" lon="2.35133">
        <ele>104.9</ele>
        <time>2015-02-09T19:33:40.485Z</time>
      </trkpt>
      <trkpt lat="48.84665" lon="2.35142">
        <ele>105.2</ele>
        <time>2015-02-09T19:33:42.529Z</time>
      </trkpt>
      <trkpt lat="48.84665" lon="2.35145">
        <ele>105.4</ele>
        <time>2015-02-09T19:33:43.559Z</time>
      </trkpt>
      <trkpt lat="48.84662" lon="2.35156">
        <ele>104.5</ele>
        <time>2015-02-09T19:33:46.510Z</time>
      </trkpt>
      <trkpt lat="48.84657" lon="2.3516">
        <ele>104.3</ele>
        <time>2015-02-09T19:33:47.510Z</time>
      </trkpt>
      <trkpt lat="48.84654" lon="2.35164">
        <ele>104.2</ele>
        <time>2015-02-09T19:33:48.552Z</time>
      </trkpt>
      <trkpt lat="48.84645" lon="2.35169">
        <ele>101</ele>
        <time>2015-02-09T19:33:49.563Z</time>
      </trkpt>
      <trkpt lat="48.84641" lon="2.35173">
        <ele>100.6</ele>
        <time>2015-02-09T19:33:50.575Z</time>
      </trkpt>
      <trkpt lat="48.84637" lon="2.35176">
        <ele>100.2</ele>
        <time>2015-02-09T19:33:51.588Z</time>
      </trkpt>
      <trkpt lat="48.84629" lon="2.35181">
        <ele>97.9</ele>
        <time>2015-02-09T19:33:52.500Z</time>
      </trkpt>
      <trkpt lat="48.84617" lon="2.35185">
        <ele>93.6</ele>
        <time>2015-02-09T19:33:53.508Z</time>
      </trkpt>
      <trkpt lat="48.84609" lon="2.3519">
        <ele>91.6</ele>
        <time>2015-02-09T19:33:54.513Z</time>
      </trkpt>
      <trkpt lat="48.84602" lon="2.35192">
        <ele>89.9</ele>
        <time>2015-02-09T19:33:55.528Z</time>
      </trkpt>
      <trkpt lat="48.84596" lon="2.35194">
        <ele>88.8</ele>
        <time>2015-02-09T19:33:56.592Z</time>
      </trkpt>
      <trkpt lat="48.84593" lon="2.35196">
        <ele>88.7</ele>
        <time>2015-02-09T19:33:57.498Z</time>
      </trkpt>
      <trkpt lat="48.84585" lon="2.352">
        <ele>89</ele>
        <time>2015-02-09T19:34:00.541Z</time>
      </trkpt>
      <trkpt lat="48.84582" lon="2.35202">
        <ele>89</ele>
        <time>2015-02-09T19:34:01.591Z</time>
      </trkpt>
      <trkpt lat="48.84575" lon="2.35206">
        <ele>89.2</ele>
        <time>2015-02-09T19:34:04.621Z</time>
      </trkpt>
      <trkpt lat="48.84573" lon="2.35207">
        <ele>89.2</ele>
        <time>2015-02-09T19:34:05.503Z</time>
      </trkpt>
      <trkpt lat="48.84565" lon="2.35211">
        <ele>88.8</ele>
        <time>2015-02-09T19:34:08.571Z</time>
      </trkpt>
      <trkpt lat="48.84562" lon="2.35213">
        <ele>88.9</ele>
        <time>2015-02-09T19:34:09.716Z</time>
      </trkpt>
      <trkpt lat="48.84554" lon="2.35219">
        <ele>88.8</ele>
        <time>2015-02-09T19:34:12.561Z</time>
      </trkpt>
      <trkpt lat="48.84551" lon="2.3522">
        <ele>88.7</ele>
        <time>2015-02-09T19:34:13.571Z</time>
      </trkpt>
      <trkpt lat="48.84542" lon="2.35223">
        <ele>88.6</ele>
        <time>2015-02-09T19:34:17.574Z</time>
      </trkpt>
      <trkpt lat="48.84539" lon="2.35224">
        <ele>88.6</ele>
        <time>2015-02-09T19:34:18.502Z</time>
      </trkpt>
      <trkpt lat="48.84532" lon="2.35227">
        <ele>88.6</ele>
        <time>2015-02-09T19:34:21.582Z</time>
      </trkpt>
      <trkpt lat="48.84529" lon="2.35227">
        <ele>88.6</ele>
        <time>2015-02-09T19:34:22.470Z</time>
      </trkpt>
      <trkpt lat="48.84522" lon="2.3523">
        <ele>88.4</ele>
        <time>2015-02-09T19:34:25.535Z</time>
      </trkpt>
      <trkpt lat="48.8452" lon="2.35232">
        <ele>88.4</ele>
        <time>2015-02-09T19:34:26.545Z</time>
      </trkpt>
      <trkpt lat="48.84514" lon="2.35235">
        <ele>88.4</ele>
        <time>2015-02-09T19:34:28.502Z</time>
      </trkpt>
      <trkpt lat="48.84511" lon="2.35236">
        <ele>88.5</ele>
        <time>2015-02-09T19:34:29.521Z</time>
      </trkpt>
      <trkpt lat="48.84502" lon="2.35238">
        <ele>88.5</ele>
        <time>2015-02-09T19:34:31.581Z</time>
      </trkpt>
      <trkpt lat="48.84495" lon="2.3524">
        <ele>87.9</ele>
        <time>2015-02-09T19:34:32.493Z</time>
      </trkpt>
      <trkpt lat="48.84489" lon="2.35242">
        <ele>87.6</ele>
        <time>2015-02-09T19:34:33.529Z</time>
      </trkpt>
      <trkpt lat="48.84485" lon="2.35244">
        <ele>87.5</ele>
        <time>2015-02-09T19:34:34.587Z</time>
      </trkpt>
      <trkpt lat="48.84479" lon="2.35246">
        <ele>87.6</ele>
        <time>2015-02-09T19:34:36.529Z</time>
      </trkpt>
      <trkpt lat="48.84475" lon="2.35247">
        <ele>87.7</ele>
        <time>2015-02-09T19:34:37.536Z</time>
      </trkpt>
      <trkpt lat="48.84469" lon="2.35248">
        <ele>87.9</ele>
        <time>2015-02-09T19:34:39.552Z</time>
      </trkpt>
      <trkpt lat="48.84466" lon="2.35249">
        <ele>87.9</ele>
        <time>2015-02-09T19:34:40.566Z</time>
      </trkpt>
      <trkpt lat="48.84458" lon="2.35252">
        <ele>87.6</ele>
        <time>2015-02-09T19:34:43.535Z</time>
      </trkpt>
      <trkpt lat="48.84456" lon="2.35254">
        <ele>87.4</ele>
        <time>2015-02-09T19:34:44.564Z</time>
      </trkpt>
      <trkpt lat="48.84448" lon="2.3526">
        <ele>88.4</ele>
        <time>2015-02-09T19:34:49.548Z</time>
      </trkpt>
      <trkpt lat="48.84447" lon="2.3526">
        <ele>88.7</ele>
        <time>2015-02-09T19:34:50.550Z</time>
      </trkpt>
      <trkpt lat="48.84443" lon="2.3527">
        <ele>88.9</ele>
        <time>2015-02-09T19:34:57.523Z</time>
      </trkpt>
      <trkpt lat="48.84442" lon="2.35273">
        <ele>88.9</ele>
        <time>2015-02-09T19:34:58.573Z</time>
      </trkpt>
      <trkpt lat="48.84442" lon="2.35274">
        <ele>89</ele>
        <time>2015-02-09T19:34:59.594Z</time>
      </trkpt>
      <trkpt lat="48.84442" lon="2.35274">
        <ele>89.1</ele>
        <time>2015-02-09T19:35:00.599Z</time>
      </trkpt>
      <trkpt lat="48.84441" lon="2.35275">
        <ele>89.2</ele>
        <time>2015-02-09T19:35:01.626Z</time>
      </trkpt>
      <trkpt lat="48.84438" lon="2.35284">
        <ele>89.5</ele>
        <time>2015-02-09T19:35:07.548Z</time>
      </trkpt>
      <trkpt lat="48.84437" lon="2.3529">
        <ele>90.4</ele>
        <time>2015-02-09T19:35:08.577Z</time>
      </trkpt>
      <trkpt lat="48.84438" lon="2.353">
        <ele>89.2</ele>
        <time>2015-02-09T19:35:10.505Z</time>
      </trkpt>
      <trkpt lat="48.84439" lon="2.35305">
        <ele>88.8</ele>
        <time>2015-02-09T19:35:11.616Z</time>
      </trkpt>
      <trkpt lat="48.84441" lon="2.35317">
        <ele>88.9</ele>
        <time>2015-02-09T19:35:14.603Z</time>
      </trkpt>
      <trkpt lat="48.84442" lon="2.35321">
        <ele>89.3</ele>
        <time>2015-02-09T19:35:15.613Z</time>
      </trkpt>
      <trkpt lat="48.84446" lon="2.35333">
        <ele>90.5</ele>
        <time>2015-02-09T19:35:20.506Z</time>
      </trkpt>
      <trkpt lat="48.84447" lon="2.35334">
        <ele>90.8</ele>
        <time>2015-02-09T19:35:21.528Z</time>
      </trkpt>
      <trkpt lat="48.84453" lon="2.35341">
        <ele>91.2</ele>
        <time>2015-02-09T19:35:24.588Z</time>
      </trkpt>
      <trkpt lat="48.84454" lon="2.35344">
        <ele>91.3</ele>
        <time>2015-02-09T19:35:25.606Z</time>
      </trkpt>
      <trkpt lat="48.84461" lon="2.35352">
        <ele>91.6</ele>
        <time>2015-02-09T19:35:28.520Z</time>
      </trkpt>
      <trkpt lat="48.84466" lon="2.35357">
        <ele>91</ele>
        <time>2015-02-09T19:35:29.577Z</time>
      </trkpt>
      <trkpt lat="48.8447" lon="2.35362">
        <ele>90.3</ele>
        <time>2015-02-09T19:35:30.500Z</time>
      </trkpt>
      <trkpt lat="48.84474" lon="2.35367">
        <ele>90</ele>
        <time>2015-02-09T19:35:31.544Z</time>
      </trkpt>
      <trkpt lat="48.8448" lon="2.35373">
        <ele>90.5</ele>
        <time>2015-02-09T19:35:33.503Z</time>
      </trkpt>
      <trkpt lat="48.84483" lon="2.35375">
        <ele>90.5</ele>
        <time>2015-02-09T19:35:34.511Z</time>
      </trkpt>
      <trkpt lat="48.84488" lon="2.35382">
        <ele>90.3</ele>
        <time>2015-02-09T19:35:36.547Z</time>
      </trkpt>
      <trkpt lat="48.84491" lon="2.35387">
        <ele>90.3</ele>
        <time>2015-02-09T19:35:37.558Z</time>
      </trkpt>
      <trkpt lat="48.84496" lon="2.35396">
        <ele>90.3</ele>
        <time>2015-02-09T19:35:39.552Z</time>
      </trkpt>
      <trkpt lat="48.84497" lon="2.35401">
        <ele>90.3</ele>
        <time>2015-02-09T19:35:40.508Z</time>
      </trkpt>
      <trkpt lat="48.84501" lon="2.35412">
        <ele>90.5</ele>
        <time>2015-02-09T19:35:42.541Z</time>
      </trkpt>
      <trkpt lat="48.84503" lon="2.35416">
        <ele>90.5</ele>
        <time>2015-02-09T19:35:43.567Z</time>
      </trkpt>
      <trkpt lat="48.84507" lon="2.35424">
        <ele>90.7</ele>
        <time>2015-02-09T19:35:45.509Z</time>
      </trkpt>
      <trkpt lat="48.84509" lon="2.35428">
        <ele>90.8</ele>
        <time>2015-02-09T19:35:46.516Z</time>
      </trkpt>
      <trkpt lat="48.84511" lon="2.3544">
        <ele>90.7</ele>
        <time>2015-02-09T19:35:49.595Z</time>
      </trkpt>
      <trkpt lat="48.8451" lon="2.35443">
        <ele>90.7</ele>
        <time>2015-02-09T19:35:50.523Z</time>
      </trkpt>
      <trkpt lat="48.84506" lon="2.35451">
        <ele>90.7</ele>
        <time>2015-02-09T19:35:54.518Z</time>
      </trkpt>
      <trkpt lat="48.84504" lon="2.35454">
        <ele>90.8</ele>
        <time>2015-02-09T19:35:55.552Z</time>
      </trkpt>
      <trkpt lat="48.84497" lon="2.35462">
        <ele>90</ele>
        <time>2015-02-09T19:36:00.544Z</time>
      </trkpt>
      <trkpt lat="48.84496" lon="2.35461">
        <ele>89.9</ele>
        <time>2015-02-09T19:36:01.566Z</time>
      </trkpt>
      <trkpt lat="48.8449" lon="2.35466">
        <ele>90.6</ele>
        <time>2015-02-09T19:36:04.549Z</time>
      </trkpt>
      <trkpt lat="48.84488" lon="2.35468">
        <ele>91.2</ele>
        <time>2015-02-09T19:36:05.572Z</time>
      </trkpt>
      <trkpt lat="48.8448" lon="2.35473">
        <ele>92.8</ele>
        <time>2015-02-09T19:36:08.579Z</time>
      </trkpt>
      <trkpt lat="48.84478" lon="2.35473">
        <ele>93.3</ele>
        <time>2015-02-09T19:36:09.506Z</time>
      </trkpt>
      <trkpt lat="48.84471" lon="2.35472">
        <ele>94.2</ele>
        <time>2015-02-09T19:36:12.570Z</time>
      </trkpt>
      <trkpt lat="48.84469" lon="2.35472">
        <ele>94.5</ele>
        <time>2015-02-09T19:36:13.587Z</time>
      </trkpt>
      <trkpt lat="48.84462" lon="2.35471">
        <ele>94.9</ele>
        <time>2015-02-09T19:36:16.477Z</time>
      </trkpt>
      <trkpt lat="48.84459" lon="2.35473">
        <ele>94.3</ele>
        <time>2015-02-09T19:36:17.502Z</time>
      </trkpt>
      <trkpt lat="48.84454" lon="2.35477">
        <ele>93.4</ele>
        <time>2015-02-09T19:36:19.535Z</time>
      </trkpt>
      <trkpt lat="48.84451" lon="2.35478">
        <ele>93.2</ele>
        <time>2015-02-09T19:36:20.544Z</time>
      </trkpt>
      <trkpt lat="48.84444" lon="2.3548">
        <ele>92.9</ele>
        <time>2015-02-09T19:36:22.481Z</time>
      </trkpt>
      <trkpt lat="48.8444" lon="2.35481">
        <ele>92.7</ele>
        <time>2015-02-09T19:36:23.513Z</time>
      </trkpt>
      <trkpt lat="48.84433" lon="2.35484">
        <ele>92.6</ele>
        <time>2015-02-09T19:36:25.538Z</time>
      </trkpt>
      <trkpt lat="48.8443" lon="2.35486">
        <ele>92.5</ele>
        <time>2015-02-09T19:36:26.549Z</time>
      </trkpt>
      <trkpt lat="48.84423" lon="2.35486">
        <ele>92.4</ele>
        <time>2015-02-09T19:36:28.588Z</time>
      </trkpt>
      <trkpt lat="48.84419" lon="2.35487">
        <ele>92.4</ele>
        <time>2015-02-09T19:36:29.623Z</time>
      </trkpt>
      <trkpt lat="48.84411" lon="2.35488">
        <ele>92.4</ele>
        <time>2015-02-09T19:36:32.548Z</time>
      </trkpt>
      <trkpt lat="48.84409" lon="2.35489">
        <ele>92.4</ele>
        <time>2015-02-09T19:36:33.558Z</time>
      </trkpt>
      <trkpt lat="48.84402" lon="2.35495">
        <ele>92.7</ele>
        <time>2015-02-09T19:36:37.535Z</time>
      </trkpt>
      <trkpt lat="48.84401" lon="2.35495">
        <ele>93</ele>
        <time>2015-02-09T19:36:38.583Z</time>
      </trkpt>
      <trkpt lat="48.84393" lon="2.3549">
        <ele>94.1</ele>
        <time>2015-02-09T19:36:42.544Z</time>
      </trkpt>
      <trkpt lat="48.84392" lon="2.35489">
        <ele>94.4</ele>
        <time>2015-02-09T19:36:43.588Z</time>
      </trkpt>
      <trkpt lat="48.84386" lon="2.35499">
        <ele>95.3</ele>
        <time>2015-02-09T19:36:49.551Z</time>
      </trkpt>
      <trkpt lat="48.84383" lon="2.35501">
        <ele>95.3</ele>
        <time>2015-02-09T19:36:50.674Z</time>
      </trkpt>
      <trkpt lat="48.84374" lon="2.35503">
        <ele>95.5</ele>
        <time>2015-02-09T19:36:52.509Z</time>
      </trkpt>
      <trkpt lat="48.84371" lon="2.35505">
        <ele>95.5</ele>
        <time>2015-02-09T19:36:53.522Z</time>
      </trkpt>
      <trkpt lat="48.84364" lon="2.35507">
        <ele>95.4</ele>
        <time>2015-02-09T19:36:55.597Z</time>
      </trkpt>
      <trkpt lat="48.84361" lon="2.35507">
        <ele>95.3</ele>
        <time>2015-02-09T19:36:56.523Z</time>
      </trkpt>
      <trkpt lat="48.84353" lon="2.35508">
        <ele>95.1</ele>
        <time>2015-02-09T19:36:58.528Z</time>
      </trkpt>
      <trkpt lat="48.84348" lon="2.35508">
        <ele>95</ele>
        <time>2015-02-09T19:36:59.555Z</time>
      </trkpt>
      <trkpt lat="48.84343" lon="2.35509">
        <ele>94.8</ele>
        <time>2015-02-09T19:37:00.588Z</time>
      </trkpt>
      <trkpt lat="48.84337" lon="2.35508">
        <ele>94.7</ele>
        <time>2015-02-09T19:37:01.605Z</time>
      </trkpt>
      <trkpt lat="48.84326" lon="2.35507">
        <ele>93.5</ele>
        <time>2015-02-09T19:37:02.506Z</time>
      </trkpt>
      <trkpt lat="48.84317" lon="2.35507">
        <ele>92.8</ele>
        <time>2015-02-09T19:37:03.510Z</time>
      </trkpt>
      <trkpt lat="48.84308" lon="2.35508">
        <ele>92.3</ele>
        <time>2015-02-09T19:37:04.519Z</time>
      </trkpt>
      <trkpt lat="48.84298" lon="2.35508">
        <ele>91.7</ele>
        <time>2015-02-09T19:37:05.601Z</time>
      </trkpt>
      <trkpt lat="48.8429" lon="2.35509">
        <ele>91.2</ele>
        <time>2015-02-09T19:37:06.503Z</time>
      </trkpt>
      <trkpt lat="48.84282" lon="2.35511">
        <ele>91.1</ele>
        <time>2015-02-09T19:37:07.533Z</time>
      </trkpt>
      <trkpt lat="48.84276" lon="2.35513">
        <ele>90.9</ele>
        <time>2015-02-09T19:37:08.532Z</time>
      </trkpt>
      <trkpt lat="48.8427" lon="2.35518">
        <ele>90.8</ele>
        <time>2015-02-09T19:37:09.537Z</time>
      </trkpt>
      <trkpt lat="48.84263" lon="2.35527">
        <ele>90.5</ele>
        <time>2015-02-09T19:37:10.543Z</time>
      </trkpt>
      <trkpt lat="48.8415" lon="2.35588">
        <ele>90.5</ele>
        <time>2015-02-09T19:37:29.508Z</time>
      </trkpt>
      <trkpt lat="48.84143" lon="2.3559">
        <ele>90.4</ele>
        <time>2015-02-09T19:37:31.558Z</time>
      </trkpt>
      <trkpt lat="48.84141" lon="2.35589">
        <ele>90.3</ele>
        <time>2015-02-09T19:37:32.574Z</time>
      </trkpt>
      <trkpt lat="48.84141" lon="2.35584">
        <ele>87.8</ele>
        <time>2015-02-09T19:37:37.547Z</time>
      </trkpt>
      <trkpt lat="48.84142" lon="2.35584">
        <ele>87.2</ele>
        <time>2015-02-09T19:37:38.570Z</time>
      </trkpt>
      <trkpt lat="48.84141" lon="2.35584">
        <ele>87</ele>
        <time>2015-02-09T19:37:39.587Z</time>
      </trkpt>
      <trkpt lat="48.84135" lon="2.35586">
        <ele>86.4</ele>
        <time>2015-02-09T19:37:43.578Z</time>
      </trkpt>
      <trkpt lat="48.84132" lon="2.35586">
        <ele>86.3</ele>
        <time>2015-02-09T19:37:44.597Z</time>
      </trkpt>
      <trkpt lat="48.84125" lon="2.35585">
        <ele>86.2</ele>
        <time>2015-02-09T19:37:46.504Z</time>
      </trkpt>
      <trkpt lat="48.84122" lon="2.35586">
        <ele>86.2</ele>
        <time>2015-02-09T19:37:47.544Z</time>
      </trkpt>
      <trkpt lat="48.84115" lon="2.35588">
        <ele>86.3</ele>
        <time>2015-02-09T19:37:50.572Z</time>
      </trkpt>
      <trkpt lat="48.84113" lon="2.35589">
        <ele>86.4</ele>
        <time>2015-02-09T19:37:51.588Z</time>
      </trkpt>
      <trkpt lat="48.84106" lon="2.35591">
        <ele>86.6</ele>
        <time>2015-02-09T19:37:54.519Z</time>
      </trkpt>
      <trkpt lat="48.84104" lon="2.35592">
        <ele>86.6</ele>
        <time>2015-02-09T19:37:55.594Z</time>
      </trkpt>
      <trkpt lat="48.84097" lon="2.35598">
        <ele>87.4</ele>
        <time>2015-02-09T19:38:01.574Z</time>
      </trkpt>
      <trkpt lat="48.84096" lon="2.35599">
        <ele>87.6</ele>
        <time>2015-02-09T19:38:02.582Z</time>
      </trkpt>
      <trkpt lat="48.84089" lon="2.35608">
        <ele>87.5</ele>
        <time>2015-02-09T19:38:10.520Z</time>
      </trkpt>
      <trkpt lat="48.84087" lon="2.3561">
        <ele>87.5</ele>
        <time>2015-02-09T19:38:11.547Z</time>
      </trkpt>
      <trkpt lat="48.8408" lon="2.35613">
        <ele>86.8</ele>
        <time>2015-02-09T19:38:12.554Z</time>
      </trkpt>
      <trkpt lat="48.84074" lon="2.35614">
        <ele>86.7</ele>
        <time>2015-02-09T19:38:13.562Z</time>
      </trkpt>
      <trkpt lat="48.84068" lon="2.35618">
        <ele>86.5</ele>
        <time>2015-02-09T19:38:14.599Z</time>
      </trkpt>
      <trkpt lat="48.84063" lon="2.35622">
        <ele>86.4</ele>
        <time>2015-02-09T19:38:15.502Z</time>
      </trkpt>
      <trkpt lat="48.84053" lon="2.35627">
        <ele>85.7</ele>
        <time>2015-02-09T19:38:16.553Z</time>
      </trkpt>
      <trkpt lat="48.84048" lon="2.35631">
        <ele>85.6</ele>
        <time>2015-02-09T19:38:17.558Z</time>
      </trkpt>
      <trkpt lat="48.84044" lon="2.35634">
        <ele>85.5</ele>
        <time>2015-02-09T19:38:18.560Z</time>
      </trkpt>
      <trkpt lat="48.84037" lon="2.35639">
        <ele>85.4</ele>
        <time>2015-02-09T19:38:20.503Z</time>
      </trkpt>
      <trkpt lat="48.84035" lon="2.35641">
        <ele>85.4</ele>
        <time>2015-02-09T19:38:21.580Z</time>
      </trkpt>
      <trkpt lat="48.84028" lon="2.3565">
        <ele>85.3</ele>
        <time>2015-02-09T19:38:27.513Z</time>
      </trkpt>
      <trkpt lat="48.84027" lon="2.3565">
        <ele>85.4</ele>
        <time>2015-02-09T19:38:28.516Z</time>
      </trkpt>
      <trkpt lat="48.84026" lon="2.35651">
        <ele>85.3</ele>
        <time>2015-02-09T19:38:29.526Z</time>
      </trkpt>
      <trkpt lat="48.84025" lon="2.35652">
        <ele>85.4</ele>
        <time>2015-02-09T19:38:30.550Z</time>
      </trkpt>
      <trkpt lat="48.84024" lon="2.35653">
        <ele>85.3</ele>
        <time>2015-02-09T19:38:31.598Z</time>
      </trkpt>
      <trkpt lat="48.84023" lon="2.35653">
        <ele>85.6</ele>
        <time>2015-02-09T19:38:32.499Z</time>
      </trkpt>
      <trkpt lat="48.84016" lon="2.35659">
        <ele>88</ele>
        <time>2015-02-09T19:38:35.608Z</time>
      </trkpt>
      <trkpt lat="48.84014" lon="2.35661">
        <ele>88.7</ele>
        <time>2015-02-09T19:38:36.542Z</time>
      </trkpt>
      <trkpt lat="48.84008" lon="2.3567">
        <ele>90</ele>
        <time>2015-02-09T19:38:39.523Z</time>
      </trkpt>
      <trkpt lat="48.84006" lon="2.35673">
        <ele>90.5</ele>
        <time>2015-02-09T19:38:40.533Z</time>
      </trkpt>
      <trkpt lat="48.83998" lon="2.35679">
        <ele>91.4</ele>
        <time>2015-02-09T19:38:44.614Z</time>
      </trkpt>
      <trkpt lat="48.83997" lon="2.3568">
        <ele>91.6</ele>
        <time>2015-02-09T19:38:45.579Z</time>
      </trkpt>
      <trkpt lat="48.83994" lon="2.35686">
        <ele>91.7</ele>
        <time>2015-02-09T19:38:48.585Z</time>
      </trkpt>
      <trkpt lat="48.83992" lon="2.35694">
        <ele>91.3</ele>
        <time>2015-02-09T19:38:50.519Z</time>
      </trkpt>
      <trkpt lat="48.83992" lon="2.35707">
        <ele>91</ele>
        <time>2015-02-09T19:38:53.564Z</time>
      </trkpt>
      <trkpt lat="48.83992" lon="2.35712">
        <ele>90.8</ele>
        <time>2015-02-09T19:38:54.514Z</time>
      </trkpt>
      <trkpt lat="48.83991" lon="2.35723">
        <ele>90.6</ele>
        <time>2015-02-09T19:38:56.539Z</time>
      </trkpt>
      <trkpt lat="48.83991" lon="2.35729">
        <ele>90.5</ele>
        <time>2015-02-09T19:38:57.565Z</time>
      </trkpt>
      <trkpt lat="48.83991" lon="2.35739">
        <ele>90.4</ele>
        <time>2015-02-09T19:38:59.608Z</time>
      </trkpt>
      <trkpt lat="48.83991" lon="2.35745">
        <ele>90.2</ele>
        <time>2015-02-09T19:39:00.544Z</time>
      </trkpt>
      <trkpt lat="48.83992" lon="2.35754">
        <ele>90</ele>
        <time>2015-02-09T19:39:02.574Z</time>
      </trkpt>
      <trkpt lat="48.83993" lon="2.35759">
        <ele>90</ele>
        <time>2015-02-09T19:39:03.593Z</time>
      </trkpt>
      <trkpt lat="48.83992" lon="2.3577">
        <ele>89.9</ele>
        <time>2015-02-09T19:39:06.529Z</time>
      </trkpt>
      <trkpt lat="48.83991" lon="2.35774">
        <ele>89.9</ele>
        <time>2015-02-09T19:39:07.566Z</time>
      </trkpt>
      <trkpt lat="48.83991" lon="2.35786">
        <ele>90.7</ele>
        <time>2015-02-09T19:39:10.528Z</time>
      </trkpt>
      <trkpt lat="48.83991" lon="2.35791">
        <ele>91.1</ele>
        <time>2015-02-09T19:39:11.534Z</time>
      </trkpt>
      <trkpt lat="48.83992" lon="2.358">
        <ele>91.8</ele>
        <time>2015-02-09T19:39:13.555Z</time>
      </trkpt>
      <trkpt lat="48.83994" lon="2.35805">
        <ele>92.1</ele>
        <time>2015-02-09T19:39:14.562Z</time>
      </trkpt>
      <trkpt lat="48.83994" lon="2.35815">
        <ele>92.8</ele>
        <time>2015-02-09T19:39:16.511Z</time>
      </trkpt>
      <trkpt lat="48.83995" lon="2.35822">
        <ele>93</ele>
        <time>2015-02-09T19:39:17.525Z</time>
      </trkpt>
      <trkpt lat="48.83995" lon="2.35828">
        <ele>93.1</ele>
        <time>2015-02-09T19:39:18.551Z</time>
      </trkpt>
      <trkpt lat="48.83992" lon="2.35912">
        <ele>92.8</ele>
        <time>2015-02-09T19:39:31.596Z</time>
      </trkpt>
      <trkpt lat="48.83993" lon="2.35919">
        <ele>92.5</ele>
        <time>2015-02-09T19:39:32.479Z</time>
      </trkpt>
      <trkpt lat="48.83995" lon="2.35927">
        <ele>92.2</ele>
        <time>2015-02-09T19:39:33.494Z</time>
      </trkpt>
      <trkpt lat="48.83997" lon="2.35939">
        <ele>91.8</ele>
        <time>2015-02-09T19:39:35.532Z</time>
      </trkpt>
      <trkpt lat="48.83997" lon="2.35944">
        <ele>91.8</ele>
        <time>2015-02-09T19:39:36.539Z</time>
      </trkpt>
      <trkpt lat="48.83996" lon="2.35953">
        <ele>91.6</ele>
        <time>2015-02-09T19:39:39.421Z</time>
      </trkpt>
      <trkpt lat="48.83993" lon="2.35958">
        <ele>91.5</ele>
        <time>2015-02-09T19:39:39.500Z</time>
      </trkpt>
      <trkpt lat="48.83987" lon="2.35966">
        <ele>91.3</ele>
        <time>2015-02-09T19:39:41.511Z</time>
      </trkpt>
      <trkpt lat="48.83984" lon="2.3597">
        <ele>91.1</ele>
        <time>2015-02-09T19:39:42.516Z</time>
      </trkpt>
      <trkpt lat="48.83978" lon="2.35977">
        <ele>90.8</ele>
        <time>2015-02-09T19:39:44.569Z</time>
      </trkpt>
      <trkpt lat="48.83976" lon="2.35981">
        <ele>90.6</ele>
        <time>2015-02-09T19:39:45.609Z</time>
      </trkpt>
      <trkpt lat="48.83972" lon="2.35988">
        <ele>90.3</ele>
        <time>2015-02-09T19:39:48.405Z</time>
      </trkpt>
      <trkpt lat="48.83971" lon="2.35993">
        <ele>90</ele>
        <time>2015-02-09T19:39:48.531Z</time>
      </trkpt>
      <trkpt lat="48.83966" lon="2.36001">
        <ele>89.5</ele>
        <time>2015-02-09T19:39:50.524Z</time>
      </trkpt>
      <trkpt lat="48.83966" lon="2.36006">
        <ele>90.4</ele>
        <time>2015-02-09T19:39:51.540Z</time>
      </trkpt>
      <trkpt lat="48.8396" lon="2.36011">
        <ele>90.6</ele>
        <time>2015-02-09T19:39:53.583Z</time>
      </trkpt>
      <trkpt lat="48.83957" lon="2.36015">
        <ele>90.4</ele>
        <time>2015-02-09T19:39:54.505Z</time>
      </trkpt>
      <trkpt lat="48.83949" lon="2.36021">
        <ele>90.7</ele>
        <time>2015-02-09T19:39:56.536Z</time>
      </trkpt>
      <trkpt lat="48.83948" lon="2.36025">
        <ele>91.4</ele>
        <time>2015-02-09T19:39:57.558Z</time>
      </trkpt>
      <trkpt lat="48.83941" lon="2.36032">
        <ele>92.3</ele>
        <time>2015-02-09T19:39:59.516Z</time>
      </trkpt>
      <trkpt lat="48.83938" lon="2.36036">
        <ele>92.6</ele>
        <time>2015-02-09T19:40:00.538Z</time>
      </trkpt>
      <trkpt lat="48.83938" lon="2.36046">
        <ele>93</ele>
        <time>2015-02-09T19:40:02.585Z</time>
      </trkpt>
      <trkpt lat="48.83941" lon="2.3605">
        <ele>93.4</ele>
        <time>2015-02-09T19:40:03.624Z</time>
      </trkpt>
      <trkpt lat="48.83944" lon="2.36056">
        <ele>93.4</ele>
        <time>2015-02-09T19:40:04.486Z</time>
      </trkpt>
      <trkpt lat="48.83951" lon="2.36063">
        <ele>94.3</ele>
        <time>2015-02-09T19:40:05.523Z</time>
      </trkpt>
      <trkpt lat="48.83954" lon="2.36071">
        <ele>93.3</ele>
        <time>2015-02-09T19:40:06.571Z</time>
      </trkpt>
      <trkpt lat="48.8396" lon="2.36076">
        <ele>94.5</ele>
        <time>2015-02-09T19:40:07.577Z</time>
      </trkpt>
      <trkpt lat="48.83965" lon="2.36081">
        <ele>95.2</ele>
        <time>2015-02-09T19:40:09.442Z</time>
      </trkpt>
      <trkpt lat="48.83968" lon="2.36087">
        <ele>95.8</ele>
        <time>2015-02-09T19:40:09.586Z</time>
      </trkpt>
      <trkpt lat="48.83982" lon="2.36097">
        <ele>96.9</ele>
        <time>2015-02-09T19:40:10.602Z</time>
      </trkpt>
      <trkpt lat="48.83994" lon="2.36106">
        <ele>97.9</ele>
        <time>2015-02-09T19:40:11.495Z</time>
      </trkpt>
      <trkpt lat="48.83996" lon="2.36114">
        <ele>97</ele>
        <time>2015-02-09T19:40:12.546Z</time>
      </trkpt>
      <trkpt lat="48.84014" lon="2.3613">
        <ele>89.4</ele>
        <time>2015-02-09T19:40:13.569Z</time>
      </trkpt>
      <trkpt lat="48.84025" lon="2.36143">
        <ele>83.4</ele>
        <time>2015-02-09T19:40:14.572Z</time>
      </trkpt>
      <trkpt lat="48.84029" lon="2.36151">
        <ele>80.6</ele>
        <time>2015-02-09T19:40:17.959Z</time>
      </trkpt>
      <trkpt lat="48.84034" lon="2.36161">
        <ele>78.9</ele>
        <time>2015-02-09T19:40:18.543Z</time>
      </trkpt>
      <trkpt lat="48.84034" lon="2.36161">
        <ele>78.9</ele>
        <time>2015-02-09T19:41:12.575Z</time>
      </trkpt>
      <trkpt lat="48.84033" lon="2.36188">
        <ele>80.6</ele>
        <time>2015-02-09T19:41:13.581Z</time>
      </trkpt>
      <trkpt lat="48.84033" lon="2.36188">
        <ele>80.6</ele>
        <time>2015-02-09T19:41:14.142Z</time>
      </trkpt>
      <trkpt lat="48.84032" lon="2.36189">
        <ele>80.6</ele>
        <time>2015-02-09T19:41:24.540Z</time>
      </trkpt>
      <trkpt lat="48.84032" lon="2.36195">
        <ele>82.7</ele>
        <time>2015-02-09T19:41:25.577Z</time>
      </trkpt>
      <trkpt lat="48.84034" lon="2.36207">
        <ele>84.1</ele>
        <time>2015-02-09T19:41:30.575Z</time>
      </trkpt>
      <trkpt lat="48.84035" lon="2.36211">
        <ele>84.2</ele>
        <time>2015-02-09T19:41:31.592Z</time>
      </trkpt>
      <trkpt lat="48.84039" lon="2.36222">
        <ele>84.4</ele>
        <time>2015-02-09T19:41:34.574Z</time>
      </trkpt>
      <trkpt lat="48.84041" lon="2.36225">
        <ele>84.3</ele>
        <time>2015-02-09T19:41:35.564Z</time>
      </trkpt>
      <trkpt lat="48.84047" lon="2.36234">
        <ele>84.4</ele>
        <time>2015-02-09T19:41:38.614Z</time>
      </trkpt>
      <trkpt lat="48.8405" lon="2.36236">
        <ele>84.3</ele>
        <time>2015-02-09T19:41:39.525Z</time>
      </trkpt>
      <trkpt lat="48.84058" lon="2.36242">
        <ele>84.2</ele>
        <time>2015-02-09T19:41:43.255Z</time>
      </trkpt>
      <trkpt lat="48.84061" lon="2.36244">
        <ele>84.1</ele>
        <time>2015-02-09T19:41:43.621Z</time>
      </trkpt>
      <trkpt lat="48.84068" lon="2.36247">
        <ele>84.1</ele>
        <time>2015-02-09T19:41:45.534Z</time>
      </trkpt>
      <trkpt lat="48.84071" lon="2.36249">
        <ele>84.1</ele>
        <time>2015-02-09T19:41:46.580Z</time>
      </trkpt>
      <trkpt lat="48.84078" lon="2.36254">
        <ele>84.5</ele>
        <time>2015-02-09T19:41:48.612Z</time>
      </trkpt>
      <trkpt lat="48.84081" lon="2.36256">
        <ele>84.7</ele>
        <time>2015-02-09T19:41:49.633Z</time>
      </trkpt>
      <trkpt lat="48.84087" lon="2.36259">
        <ele>84.8</ele>
        <time>2015-02-09T19:41:51.545Z</time>
      </trkpt>
      <trkpt lat="48.84091" lon="2.3626">
        <ele>85.1</ele>
        <time>2015-02-09T19:41:52.580Z</time>
      </trkpt>
      <trkpt lat="48.84098" lon="2.36265">
        <ele>85.6</ele>
        <time>2015-02-09T19:41:55.627Z</time>
      </trkpt>
      <trkpt lat="48.84102" lon="2.36267">
        <ele>85.9</ele>
        <time>2015-02-09T19:41:56.525Z</time>
      </trkpt>
      <trkpt lat="48.84108" lon="2.36273">
        <ele>86.3</ele>
        <time>2015-02-09T19:41:58.578Z</time>
      </trkpt>
      <trkpt lat="48.84111" lon="2.36276">
        <ele>86.5</ele>
        <time>2015-02-09T19:41:59.608Z</time>
      </trkpt>
      <trkpt lat="48.84118" lon="2.36281">
        <ele>86.8</ele>
        <time>2015-02-09T19:42:01.646Z</time>
      </trkpt>
      <trkpt lat="48.84121" lon="2.36283">
        <ele>86.9</ele>
        <time>2015-02-09T19:42:02.524Z</time>
      </trkpt>
      <trkpt lat="48.84127" lon="2.36289">
        <ele>87.6</ele>
        <time>2015-02-09T19:42:04.493Z</time>
      </trkpt>
      <trkpt lat="48.8413" lon="2.36291">
        <ele>87.7</ele>
        <time>2015-02-09T19:42:05.525Z</time>
      </trkpt>
      <trkpt lat="48.84134" lon="2.36296">
        <ele>87.8</ele>
        <time>2015-02-09T19:42:06.544Z</time>
      </trkpt>
      <trkpt lat="48.84141" lon="2.363">
        <ele>87.6</ele>
        <time>2015-02-09T19:42:07.694Z</time>
      </trkpt>
      <trkpt lat="48.84148" lon="2.36303">
        <ele>87.4</ele>
        <time>2015-02-09T19:42:08.519Z</time>
      </trkpt>
      <trkpt lat="48.84155" lon="2.36307">
        <ele>87.2</ele>
        <time>2015-02-09T19:42:09.522Z</time>
      </trkpt>
      <trkpt lat="48.8416" lon="2.3631">
        <ele>87.4</ele>
        <time>2015-02-09T19:42:10.539Z</time>
      </trkpt>
      <trkpt lat="48.84165" lon="2.36313">
        <ele>87.4</ele>
        <time>2015-02-09T19:42:11.555Z</time>
      </trkpt>
      <trkpt lat="48.84171" lon="2.36316">
        <ele>87.4</ele>
        <time>2015-02-09T19:42:12.586Z</time>
      </trkpt>
      <trkpt lat="48.84176" lon="2.36319">
        <ele>87.2</ele>
        <time>2015-02-09T19:42:13.589Z</time>
      </trkpt>
      <trkpt lat="48.84181" lon="2.36323">
        <ele>87.2</ele>
        <time>2015-02-09T19:42:14.607Z</time>
      </trkpt>
      <trkpt lat="48.84185" lon="2.36325">
        <ele>87.5</ele>
        <time>2015-02-09T19:42:15.622Z</time>
      </trkpt>
      <trkpt lat="48.84189" lon="2.36328">
        <ele>87.7</ele>
        <time>2015-02-09T19:42:16.502Z</time>
      </trkpt>
      <trkpt lat="48.84194" lon="2.36331">
        <ele>88</ele>
        <time>2015-02-09T19:42:17.522Z</time>
      </trkpt>
      <trkpt lat="48.84198" lon="2.36334">
        <ele>88.2</ele>
        <time>2015-02-09T19:42:18.533Z</time>
      </trkpt>
      <trkpt lat="48.84202" lon="2.36337">
        <ele>88.5</ele>
        <time>2015-02-09T19:42:19.568Z</time>
      </trkpt>
      <trkpt lat="48.8421" lon="2.36339">
        <ele>90.9</ele>
        <time>2015-02-09T19:42:20.577Z</time>
      </trkpt>
      <trkpt lat="48.84215" lon="2.36341">
        <ele>91.1</ele>
        <time>2015-02-09T19:42:21.593Z</time>
      </trkpt>
      <trkpt lat="48.84219" lon="2.36343">
        <ele>91.3</ele>
        <time>2015-02-09T19:42:22.982Z</time>
      </trkpt>
      <trkpt lat="48.84224" lon="2.36346">
        <ele>91.4</ele>
        <time>2015-02-09T19:42:23.610Z</time>
      </trkpt>
      <trkpt lat="48.8423" lon="2.36354">
        <ele>91.7</ele>
        <time>2015-02-09T19:42:25.634Z</time>
      </trkpt>
      <trkpt lat="48.84233" lon="2.36358">
        <ele>91.7</ele>
        <time>2015-02-09T19:42:26.539Z</time>
      </trkpt>
      <trkpt lat="48.8424" lon="2.36364">
        <ele>92</ele>
        <time>2015-02-09T19:42:28.537Z</time>
      </trkpt>
      <trkpt lat="48.84243" lon="2.36366">
        <ele>92</ele>
        <time>2015-02-09T19:42:29.548Z</time>
      </trkpt>
      <trkpt lat="48.84248" lon="2.36369">
        <ele>92.1</ele>
        <time>2015-02-09T19:42:30.553Z</time>
      </trkpt>
      <trkpt lat="48.84253" lon="2.36372">
        <ele>92.3</ele>
        <time>2015-02-09T19:42:31.576Z</time>
      </trkpt>
      <trkpt lat="48.84258" lon="2.36375">
        <ele>92.5</ele>
        <time>2015-02-09T19:42:33.118Z</time>
      </trkpt>
      <trkpt lat="48.84263" lon="2.36378">
        <ele>92.5</ele>
        <time>2015-02-09T19:42:33.609Z</time>
      </trkpt>
      <trkpt lat="48.84268" lon="2.36381">
        <ele>92.6</ele>
        <time>2015-02-09T19:42:34.622Z</time>
      </trkpt>
      <trkpt lat="48.84272" lon="2.36384">
        <ele>92.8</ele>
        <time>2015-02-09T19:42:35.538Z</time>
      </trkpt>
      <trkpt lat="48.8428" lon="2.36388">
        <ele>93.3</ele>
        <time>2015-02-09T19:42:38.182Z</time>
      </trkpt>
      <trkpt lat="48.84283" lon="2.36391">
        <ele>93.5</ele>
        <time>2015-02-09T19:42:38.597Z</time>
      </trkpt>
      <trkpt lat="48.8429" lon="2.36396">
        <ele>93.9</ele>
        <time>2015-02-09T19:42:40.619Z</time>
      </trkpt>
      <trkpt lat="48.84293" lon="2.36399">
        <ele>94.3</ele>
        <time>2015-02-09T19:42:41.531Z</time>
      </trkpt>
      <trkpt lat="48.843" lon="2.36404">
        <ele>94.6</ele>
        <time>2015-02-09T19:42:43.579Z</time>
      </trkpt>
      <trkpt lat="48.84306" lon="2.3641">
        <ele>94.3</ele>
        <time>2015-02-09T19:42:44.596Z</time>
      </trkpt>
      <trkpt lat="48.84313" lon="2.36416">
        <ele>94.4</ele>
        <time>2015-02-09T19:42:46.551Z</time>
      </trkpt>
      <trkpt lat="48.84317" lon="2.36419">
        <ele>94.6</ele>
        <time>2015-02-09T19:42:47.562Z</time>
      </trkpt>
      <trkpt lat="48.84323" lon="2.36428">
        <ele>94.9</ele>
        <time>2015-02-09T19:42:50.593Z</time>
      </trkpt>
      <trkpt lat="48.84325" lon="2.36431">
        <ele>95</ele>
        <time>2015-02-09T19:42:51.613Z</time>
      </trkpt>
      <trkpt lat="48.84329" lon="2.36441">
        <ele>95.2</ele>
        <time>2015-02-09T19:42:54.537Z</time>
      </trkpt>
      <trkpt lat="48.8433" lon="2.36444">
        <ele>95.4</ele>
        <time>2015-02-09T19:42:55.559Z</time>
      </trkpt>
      <trkpt lat="48.84338" lon="2.3645">
        <ele>95.5</ele>
        <time>2015-02-09T19:42:58.601Z</time>
      </trkpt>
      <trkpt lat="48.84341" lon="2.36452">
        <ele>95.6</ele>
        <time>2015-02-09T19:42:59.516Z</time>
      </trkpt>
      <trkpt lat="48.84345" lon="2.36462">
        <ele>95.8</ele>
        <time>2015-02-09T19:43:02.602Z</time>
      </trkpt>
      <trkpt lat="48.84346" lon="2.36465">
        <ele>96</ele>
        <time>2015-02-09T19:43:03.550Z</time>
      </trkpt>
      <trkpt lat="48.8435" lon="2.36476">
        <ele>97.1</ele>
        <time>2015-02-09T19:43:08.560Z</time>
      </trkpt>
      <trkpt lat="48.84352" lon="2.36483">
        <ele>95.4</ele>
        <time>2015-02-09T19:43:09.636Z</time>
      </trkpt>
      <trkpt lat="48.84355" lon="2.36493">
        <ele>95.5</ele>
        <time>2015-02-09T19:43:13.593Z</time>
      </trkpt>
      <trkpt lat="48.84355" lon="2.36496">
        <ele>95.6</ele>
        <time>2015-02-09T19:43:14.627Z</time>
      </trkpt>
      <trkpt lat="48.84358" lon="2.36506">
        <ele>95.9</ele>
        <time>2015-02-09T19:43:17.545Z</time>
      </trkpt>
      <trkpt lat="48.84359" lon="2.36509">
        <ele>95.9</ele>
        <time>2015-02-09T19:43:18.550Z</time>
      </trkpt>
      <trkpt lat="48.84361" lon="2.36521">
        <ele>93.8</ele>
        <time>2015-02-09T19:43:20.586Z</time>
      </trkpt>
      <trkpt lat="48.84361" lon="2.36526">
        <ele>93.3</ele>
        <time>2015-02-09T19:43:21.587Z</time>
      </trkpt>
      <trkpt lat="48.84362" lon="2.36535">
        <ele>92.1</ele>
        <time>2015-02-09T19:43:23.619Z</time>
      </trkpt>
      <trkpt lat="48.84363" lon="2.3654">
        <ele>91.5</ele>
        <time>2015-02-09T19:43:24.578Z</time>
      </trkpt>
      <trkpt lat="48.84362" lon="2.36551">
        <ele>90</ele>
        <time>2015-02-09T19:43:28.574Z</time>
      </trkpt>
      <trkpt lat="48.84362" lon="2.36554">
        <ele>90</ele>
        <time>2015-02-09T19:43:29.578Z</time>
      </trkpt>
      <trkpt lat="48.84359" lon="2.36566">
        <ele>89.8</ele>
        <time>2015-02-09T19:43:32.667Z</time>
      </trkpt>
      <trkpt lat="48.84358" lon="2.3657">
        <ele>90</ele>
        <time>2015-02-09T19:43:33.523Z</time>
      </trkpt>
      <trkpt lat="48.84354" lon="2.36578">
        <ele>90.5</ele>
        <time>2015-02-09T19:43:35.592Z</time>
      </trkpt>
      <trkpt lat="48.84352" lon="2.36583">
        <ele>91.1</ele>
        <time>2015-02-09T19:43:36.619Z</time>
      </trkpt>
      <trkpt lat="48.84346" lon="2.36592">
        <ele>92</ele>
        <time>2015-02-09T19:43:38.542Z</time>
      </trkpt>
      <trkpt lat="48.84342" lon="2.36597">
        <ele>92.4</ele>
        <time>2015-02-09T19:43:39.593Z</time>
      </trkpt>
      <trkpt lat="48.84338" lon="2.36603">
        <ele>92.9</ele>
        <time>2015-02-09T19:43:40.629Z</time>
      </trkpt>
      <trkpt lat="48.84334" lon="2.36608">
        <ele>93.2</ele>
        <time>2015-02-09T19:43:41.646Z</time>
      </trkpt>
      <trkpt lat="48.84329" lon="2.36614">
        <ele>93.5</ele>
        <time>2015-02-09T19:43:42.547Z</time>
      </trkpt>
      <trkpt lat="48.84324" lon="2.3662">
        <ele>93.7</ele>
        <time>2015-02-09T19:43:43.691Z</time>
      </trkpt>
      <trkpt lat="48.84321" lon="2.36625">
        <ele>93.9</ele>
        <time>2015-02-09T19:43:44.625Z</time>
      </trkpt>
      <trkpt lat="48.84317" lon="2.3663">
        <ele>94.1</ele>
        <time>2015-02-09T19:43:45.631Z</time>
      </trkpt>
      <trkpt lat="48.84312" lon="2.36635">
        <ele>94.4</ele>
        <time>2015-02-09T19:43:46.635Z</time>
      </trkpt>
      <trkpt lat="48.84308" lon="2.36642">
        <ele>94.8</ele>
        <time>2015-02-09T19:43:47.551Z</time>
      </trkpt>
      <trkpt lat="48.84303" lon="2.36649">
        <ele>95.1</ele>
        <time>2015-02-09T19:43:48.657Z</time>
      </trkpt>
      <trkpt lat="48.84296" lon="2.36654">
        <ele>92.5</ele>
        <time>2015-02-09T19:43:49.595Z</time>
      </trkpt>
      <trkpt lat="48.8429" lon="2.36658">
        <ele>90.7</ele>
        <time>2015-02-09T19:43:50.608Z</time>
      </trkpt>
      <trkpt lat="48.84284" lon="2.36663">
        <ele>89.6</ele>
        <time>2015-02-09T19:43:51.617Z</time>
      </trkpt>
      <trkpt lat="48.8428" lon="2.36665">
        <ele>88.7</ele>
        <time>2015-02-09T19:43:52.628Z</time>
      </trkpt>
      <trkpt lat="48.84274" lon="2.3667">
        <ele>87.9</ele>
        <time>2015-02-09T19:43:53.594Z</time>
      </trkpt>
      <trkpt lat="48.84268" lon="2.36675">
        <ele>86.8</ele>
        <time>2015-02-09T19:43:54.594Z</time>
      </trkpt>
      <trkpt lat="48.84263" lon="2.36679">
        <ele>86.4</ele>
        <time>2015-02-09T19:43:55.594Z</time>
      </trkpt>
      <trkpt lat="48.84258" lon="2.36682">
        <ele>85.9</ele>
        <time>2015-02-09T19:43:56.620Z</time>
      </trkpt>
      <trkpt lat="48.84254" lon="2.36685">
        <ele>85.5</ele>
        <time>2015-02-09T19:43:57.521Z</time>
      </trkpt>
      <trkpt lat="48.8425" lon="2.36689">
        <ele>85.1</ele>
        <time>2015-02-09T19:43:58.597Z</time>
      </trkpt>
      <trkpt lat="48.84246" lon="2.36692">
        <ele>84.8</ele>
        <time>2015-02-09T19:43:59.649Z</time>
      </trkpt>
      <trkpt lat="48.84239" lon="2.367">
        <ele>84.4</ele>
        <time>2015-02-09T19:44:01.615Z</time>
      </trkpt>
      <trkpt lat="48.84236" lon="2.36704">
        <ele>84.5</ele>
        <time>2015-02-09T19:44:02.624Z</time>
      </trkpt>
      <trkpt lat="48.84229" lon="2.36712">
        <ele>84.5</ele>
        <time>2015-02-09T19:44:04.549Z</time>
      </trkpt>
      <trkpt lat="48.84226" lon="2.36716">
        <ele>84.3</ele>
        <time>2015-02-09T19:44:05.549Z</time>
      </trkpt>
      <trkpt lat="48.84219" lon="2.36724">
        <ele>84.4</ele>
        <time>2015-02-09T19:44:07.601Z</time>
      </trkpt>
      <trkpt lat="48.84216" lon="2.36729">
        <ele>84.3</ele>
        <time>2015-02-09T19:44:08.603Z</time>
      </trkpt>
      <trkpt lat="48.8421" lon="2.36738">
        <ele>84.1</ele>
        <time>2015-02-09T19:44:11.139Z</time>
      </trkpt>
      <trkpt lat="48.84207" lon="2.36742">
        <ele>84.1</ele>
        <time>2015-02-09T19:44:11.584Z</time>
      </trkpt>
      <trkpt lat="48.84201" lon="2.3675">
        <ele>84</ele>
        <time>2015-02-09T19:44:13.617Z</time>
      </trkpt>
      <trkpt lat="48.84198" lon="2.36755">
        <ele>83.9</ele>
        <time>2015-02-09T19:44:14.633Z</time>
      </trkpt>
      <trkpt lat="48.84193" lon="2.36764">
        <ele>83.9</ele>
        <time>2015-02-09T19:44:16.546Z</time>
      </trkpt>
      <trkpt lat="48.84191" lon="2.36769">
        <ele>84</ele>
        <time>2015-02-09T19:44:17.554Z</time>
      </trkpt>
      <trkpt lat="48.84188" lon="2.36776">
        <ele>84.1</ele>
        <time>2015-02-09T19:44:18.559Z</time>
      </trkpt>
      <trkpt lat="48.84186" lon="2.36782">
        <ele>84.4</ele>
        <time>2015-02-09T19:44:19.630Z</time>
      </trkpt>
      <trkpt lat="48.84183" lon="2.36789">
        <ele>84.5</ele>
        <time>2015-02-09T19:44:21.272Z</time>
      </trkpt>
      <trkpt lat="48.8418" lon="2.36795">
        <ele>84.4</ele>
        <time>2015-02-09T19:44:21.544Z</time>
      </trkpt>
      <trkpt lat="48.84175" lon="2.36805">
        <ele>84.6</ele>
        <time>2015-02-09T19:44:23.645Z</time>
      </trkpt>
      <trkpt lat="48.84172" lon="2.36809">
        <ele>84.7</ele>
        <time>2015-02-09T19:44:24.519Z</time>
      </trkpt>
      <trkpt lat="48.84168" lon="2.36814">
        <ele>84.5</ele>
        <time>2015-02-09T19:44:25.598Z</time>
      </trkpt>
      <trkpt lat="48.84165" lon="2.3682">
        <ele>84.3</ele>
        <time>2015-02-09T19:44:26.601Z</time>
      </trkpt>
      <trkpt lat="48.84161" lon="2.36824">
        <ele>84.3</ele>
        <time>2015-02-09T19:44:27.994Z</time>
      </trkpt>
      <trkpt lat="48.84158" lon="2.36829">
        <ele>84.4</ele>
        <time>2015-02-09T19:44:28.539Z</time>
      </trkpt>
      <trkpt lat="48.84154" lon="2.36834">
        <ele>84.3</ele>
        <time>2015-02-09T19:44:29.538Z</time>
      </trkpt>
      <trkpt lat="48.8415" lon="2.3684">
        <ele>84.2</ele>
        <time>2015-02-09T19:44:30.585Z</time>
      </trkpt>
      <trkpt lat="48.84146" lon="2.36847">
        <ele>84.1</ele>
        <time>2015-02-09T19:44:31.588Z</time>
      </trkpt>
      <trkpt lat="48.84142" lon="2.36853">
        <ele>84.1</ele>
        <time>2015-02-09T19:44:32.598Z</time>
      </trkpt>
      <trkpt lat="48.84137" lon="2.36858">
        <ele>84.1</ele>
        <time>2015-02-09T19:44:33.608Z</time>
      </trkpt>
      <trkpt lat="48.84132" lon="2.36863">
        <ele>84.1</ele>
        <time>2015-02-09T19:44:34.619Z</time>
      </trkpt>
      <trkpt lat="48.84127" lon="2.36869">
        <ele>84.2</ele>
        <time>2015-02-09T19:44:35.503Z</time>
      </trkpt>
      <trkpt lat="48.84122" lon="2.36874">
        <ele>84.3</ele>
        <time>2015-02-09T19:44:36.521Z</time>
      </trkpt>
      <trkpt lat="48.84118" lon="2.36879">
        <ele>84.4</ele>
        <time>2015-02-09T19:44:37.573Z</time>
      </trkpt>
      <trkpt lat="48.84114" lon="2.36883">
        <ele>84.5</ele>
        <time>2015-02-09T19:44:38.644Z</time>
      </trkpt>
      <trkpt lat="48.84109" lon="2.36888">
        <ele>84.5</ele>
        <time>2015-02-09T19:44:39.523Z</time>
      </trkpt>
      <trkpt lat="48.84105" lon="2.36893">
        <ele>84.6</ele>
        <time>2015-02-09T19:44:40.528Z</time>
      </trkpt>
      <trkpt lat="48.84101" lon="2.36897">
        <ele>84.8</ele>
        <time>2015-02-09T19:44:41.557Z</time>
      </trkpt>
      <trkpt lat="48.84097" lon="2.36902">
        <ele>85</ele>
        <time>2015-02-09T19:44:42.567Z</time>
      </trkpt>
      <trkpt lat="48.84092" lon="2.36908">
        <ele>85.1</ele>
        <time>2015-02-09T19:44:43.616Z</time>
      </trkpt>
      <trkpt lat="48.84087" lon="2.36913">
        <ele>85.2</ele>
        <time>2015-02-09T19:44:44.602Z</time>
      </trkpt>
      <trkpt lat="48.84081" lon="2.3692">
        <ele>85.5</ele>
        <time>2015-02-09T19:44:45.528Z</time>
      </trkpt>
      <trkpt lat="48.84074" lon="2.36925">
        <ele>85.7</ele>
        <time>2015-02-09T19:44:46.527Z</time>
      </trkpt>
      <trkpt lat="48.84069" lon="2.36932">
        <ele>86</ele>
        <time>2015-02-09T19:44:47.527Z</time>
      </trkpt>
      <trkpt lat="48.84064" lon="2.3694">
        <ele>86.1</ele>
        <time>2015-02-09T19:44:48.532Z</time>
      </trkpt>
      <trkpt lat="48.84055" lon="2.36948">
        <ele>86.9</ele>
        <time>2015-02-09T19:44:49.571Z</time>
      </trkpt>
      <trkpt lat="48.84047" lon="2.36955">
        <ele>87</ele>
        <time>2015-02-09T19:44:50.575Z</time>
      </trkpt>
      <trkpt lat="48.84041" lon="2.36961">
        <ele>87.3</ele>
        <time>2015-02-09T19:44:51.587Z</time>
      </trkpt>
      <trkpt lat="48.84036" lon="2.36967">
        <ele>87.5</ele>
        <time>2015-02-09T19:44:52.591Z</time>
      </trkpt>
      <trkpt lat="48.84029" lon="2.36974">
        <ele>87.7</ele>
        <time>2015-02-09T19:44:53.607Z</time>
      </trkpt>
      <trkpt lat="48.84022" lon="2.36981">
        <ele>87.8</ele>
        <time>2015-02-09T19:44:54.615Z</time>
      </trkpt>
      <trkpt lat="48.84013" lon="2.36987">
        <ele>88.4</ele>
        <time>2015-02-09T19:44:55.562Z</time>
      </trkpt>
      <trkpt lat="48.84006" lon="2.36993">
        <ele>89.3</ele>
        <time>2015-02-09T19:44:56.558Z</time>
      </trkpt>
      <trkpt lat="48.83999" lon="2.37001">
        <ele>89.9</ele>
        <time>2015-02-09T19:44:57.581Z</time>
      </trkpt>
      <trkpt lat="48.83991" lon="2.37011">
        <ele>90.1</ele>
        <time>2015-02-09T19:44:58.515Z</time>
      </trkpt>
      <trkpt lat="48.83988" lon="2.37025">
        <ele>89</ele>
        <time>2015-02-09T19:44:59.519Z</time>
      </trkpt>
      <trkpt lat="48.83984" lon="2.37033">
        <ele>89.6</ele>
        <time>2015-02-09T19:45:00.561Z</time>
      </trkpt>
      <trkpt lat="48.83978" lon="2.37043">
        <ele>90</ele>
        <time>2015-02-09T19:45:01.569Z</time>
      </trkpt>
      <trkpt lat="48.83972" lon="2.37049">
        <ele>90</ele>
        <time>2015-02-09T19:45:02.572Z</time>
      </trkpt>
      <trkpt lat="48.83966" lon="2.37053">
        <ele>90.1</ele>
        <time>2015-02-09T19:45:03.589Z</time>
      </trkpt>
      <trkpt lat="48.83962" lon="2.37059">
        <ele>90.6</ele>
        <time>2015-02-09T19:45:04.630Z</time>
      </trkpt>
      <trkpt lat="48.8396" lon="2.37065">
        <ele>91.5</ele>
        <time>2015-02-09T19:45:05.514Z</time>
      </trkpt>
      <trkpt lat="48.83957" lon="2.3707">
        <ele>92.2</ele>
        <time>2015-02-09T19:45:06.516Z</time>
      </trkpt>
      <trkpt lat="48.83953" lon="2.37074">
        <ele>92.6</ele>
        <time>2015-02-09T19:45:07.561Z</time>
      </trkpt>
      <trkpt lat="48.83948" lon="2.37079">
        <ele>92.9</ele>
        <time>2015-02-09T19:45:08.565Z</time>
      </trkpt>
      <trkpt lat="48.83942" lon="2.37084">
        <ele>92.8</ele>
        <time>2015-02-09T19:45:09.576Z</time>
      </trkpt>
      <trkpt lat="48.83935" lon="2.37091">
        <ele>92.6</ele>
        <time>2015-02-09T19:45:10.596Z</time>
      </trkpt>
      <trkpt lat="48.8393" lon="2.37099">
        <ele>92.4</ele>
        <time>2015-02-09T19:45:11.599Z</time>
      </trkpt>
      <trkpt lat="48.83924" lon="2.37105">
        <ele>92.6</ele>
        <time>2015-02-09T19:45:12.521Z</time>
      </trkpt>
      <trkpt lat="48.83918" lon="2.37109">
        <ele>93</ele>
        <time>2015-02-09T19:45:13.556Z</time>
      </trkpt>
      <trkpt lat="48.83915" lon="2.37114">
        <ele>93.6</ele>
        <time>2015-02-09T19:45:14.559Z</time>
      </trkpt>
      <trkpt lat="48.83911" lon="2.37119">
        <ele>94.2</ele>
        <time>2015-02-09T19:45:15.576Z</time>
      </trkpt>
      <trkpt lat="48.83907" lon="2.37126">
        <ele>94.4</ele>
        <time>2015-02-09T19:45:16.592Z</time>
      </trkpt>
      <trkpt lat="48.83903" lon="2.37133">
        <ele>94.9</ele>
        <time>2015-02-09T19:45:17.598Z</time>
      </trkpt>
      <trkpt lat="48.839" lon="2.3714">
        <ele>95.3</ele>
        <time>2015-02-09T19:45:18.602Z</time>
      </trkpt>
      <trkpt lat="48.83896" lon="2.37147">
        <ele>96.1</ele>
        <time>2015-02-09T19:45:19.603Z</time>
      </trkpt>
      <trkpt lat="48.83895" lon="2.3716">
        <ele>99.2</ele>
        <time>2015-02-09T19:45:21.524Z</time>
      </trkpt>
      <trkpt lat="48.83894" lon="2.37168">
        <ele>101.6</ele>
        <time>2015-02-09T19:45:22.553Z</time>
      </trkpt>
      <trkpt lat="48.83891" lon="2.37174">
        <ele>102.5</ele>
        <time>2015-02-09T19:45:23.577Z</time>
      </trkpt>
      <trkpt lat="48.83888" lon="2.37179">
        <ele>103.6</ele>
        <time>2015-02-09T19:45:24.588Z</time>
      </trkpt>
      <trkpt lat="48.83884" lon="2.37186">
        <ele>105</ele>
        <time>2015-02-09T19:45:25.604Z</time>
      </trkpt>
      <trkpt lat="48.83879" lon="2.37192">
        <ele>105.9</ele>
        <time>2015-02-09T19:45:26.509Z</time>
      </trkpt>
      <trkpt lat="48.83875" lon="2.37199">
        <ele>106.6</ele>
        <time>2015-02-09T19:45:27.526Z</time>
      </trkpt>
      <trkpt lat="48.8387" lon="2.37206">
        <ele>106.9</ele>
        <time>2015-02-09T19:45:28.552Z</time>
      </trkpt>
      <trkpt lat="48.83866" lon="2.37214">
        <ele>107.7</ele>
        <time>2015-02-09T19:45:29.555Z</time>
      </trkpt>
      <trkpt lat="48.83861" lon="2.37221">
        <ele>109.1</ele>
        <time>2015-02-09T19:45:30.569Z</time>
      </trkpt>
      <trkpt lat="48.83858" lon="2.37225">
        <ele>109.6</ele>
        <time>2015-02-09T19:45:31.583Z</time>
      </trkpt>
      <trkpt lat="48.83855" lon="2.37232">
        <ele>109.8</ele>
        <time>2015-02-09T19:45:32.596Z</time>
      </trkpt>
      <trkpt lat="48.83852" lon="2.3724">
        <ele>110.2</ele>
        <time>2015-02-09T19:45:33.495Z</time>
      </trkpt>
      <trkpt lat="48.8385" lon="2.37246">
        <ele>110.3</ele>
        <time>2015-02-09T19:45:34.523Z</time>
      </trkpt>
      <trkpt lat="48.83847" lon="2.37253">
        <ele>110.4</ele>
        <time>2015-02-09T19:45:35.526Z</time>
      </trkpt>
      <trkpt lat="48.83844" lon="2.3726">
        <ele>110.7</ele>
        <time>2015-02-09T19:45:36.544Z</time>
      </trkpt>
      <trkpt lat="48.83841" lon="2.37266">
        <ele>110.7</ele>
        <time>2015-02-09T19:45:37.568Z</time>
      </trkpt>
      <trkpt lat="48.83837" lon="2.37273">
        <ele>110.7</ele>
        <time>2015-02-09T19:45:38.576Z</time>
      </trkpt>
      <trkpt lat="48.83831" lon="2.37283">
        <ele>110.2</ele>
        <time>2015-02-09T19:45:40.609Z</time>
      </trkpt>
      <trkpt lat="48.83829" lon="2.37287">
        <ele>110.1</ele>
        <time>2015-02-09T19:45:41.655Z</time>
      </trkpt>
      <trkpt lat="48.83826" lon="2.37298">
        <ele>109</ele>
        <time>2015-02-09T19:45:43.629Z</time>
      </trkpt>
      <trkpt lat="48.83823" lon="2.37303">
        <ele>108.8</ele>
        <time>2015-02-09T19:45:44.572Z</time>
      </trkpt>
      <trkpt lat="48.83819" lon="2.37313">
        <ele>108.4</ele>
        <time>2015-02-09T19:45:46.614Z</time>
      </trkpt>
      <trkpt lat="48.83816" lon="2.37318">
        <ele>108.3</ele>
        <time>2015-02-09T19:45:47.721Z</time>
      </trkpt>
      <trkpt lat="48.83811" lon="2.37327">
        <ele>107.9</ele>
        <time>2015-02-09T19:45:49.568Z</time>
      </trkpt>
      <trkpt lat="48.83808" lon="2.37331">
        <ele>107.6</ele>
        <time>2015-02-09T19:45:50.586Z</time>
      </trkpt>
      <trkpt lat="48.83801" lon="2.37337">
        <ele>106.7</ele>
        <time>2015-02-09T19:45:52.620Z</time>
      </trkpt>
      <trkpt lat="48.83798" lon="2.37341">
        <ele>106.1</ele>
        <time>2015-02-09T19:45:53.628Z</time>
      </trkpt>
      <trkpt lat="48.83792" lon="2.37348">
        <ele>104.9</ele>
        <time>2015-02-09T19:45:55.615Z</time>
      </trkpt>
      <trkpt lat="48.83789" lon="2.37351">
        <ele>104.8</ele>
        <time>2015-02-09T19:45:56.538Z</time>
      </trkpt>
      <trkpt lat="48.83783" lon="2.37356">
        <ele>105.1</ele>
        <time>2015-02-09T19:45:58.558Z</time>
      </trkpt>
      <trkpt lat="48.83781" lon="2.37359">
        <ele>105.3</ele>
        <time>2015-02-09T19:45:59.559Z</time>
      </trkpt>
      <trkpt lat="48.83776" lon="2.37367">
        <ele>106.2</ele>
        <time>2015-02-09T19:46:43.258Z</time>
      </trkpt>
      <trkpt lat="48.83744" lon="2.37365">
        <ele>99.3</ele>
        <time>2015-02-09T19:46:43.576Z</time>
      </trkpt>
      <trkpt lat="48.83738" lon="2.37372">
        <ele>99.2</ele>
        <time>2015-02-09T19:46:48.554Z</time>
      </trkpt>
      <trkpt lat="48.83737" lon="2.37373">
        <ele>98.9</ele>
        <time>2015-02-09T19:46:49.601Z</time>
      </trkpt>
      <trkpt lat="48.83731" lon="2.37384">
        <ele>97.7</ele>
        <time>2015-02-09T19:46:55.619Z</time>
      </trkpt>
      <trkpt lat="48.83732" lon="2.37386">
        <ele>97.3</ele>
        <time>2015-02-09T19:46:56.628Z</time>
      </trkpt>
      <trkpt lat="48.83724" lon="2.37393">
        <ele>96.4</ele>
        <time>2015-02-09T19:47:00.593Z</time>
      </trkpt>
      <trkpt lat="48.83722" lon="2.37396">
        <ele>96.2</ele>
        <time>2015-02-09T19:47:01.597Z</time>
      </trkpt>
      <trkpt lat="48.83716" lon="2.37403">
        <ele>96.1</ele>
        <time>2015-02-09T19:47:03.614Z</time>
      </trkpt>
      <trkpt lat="48.83713" lon="2.37406">
        <ele>96</ele>
        <time>2015-02-09T19:47:04.547Z</time>
      </trkpt>
      <trkpt lat="48.83707" lon="2.37411">
        <ele>96.2</ele>
        <time>2015-02-09T19:47:06.554Z</time>
      </trkpt>
      <trkpt lat="48.83704" lon="2.37415">
        <ele>96</ele>
        <time>2015-02-09T19:47:07.584Z</time>
      </trkpt>
      <trkpt lat="48.83698" lon="2.37421">
        <ele>95.8</ele>
        <time>2015-02-09T19:47:09.516Z</time>
      </trkpt>
      <trkpt lat="48.83694" lon="2.37425">
        <ele>95.9</ele>
        <time>2015-02-09T19:47:10.561Z</time>
      </trkpt>
      <trkpt lat="48.83688" lon="2.37431">
        <ele>95.9</ele>
        <time>2015-02-09T19:47:12.587Z</time>
      </trkpt>
      <trkpt lat="48.83686" lon="2.37435">
        <ele>95.7</ele>
        <time>2015-02-09T19:47:13.606Z</time>
      </trkpt>
      <trkpt lat="48.8368" lon="2.37441">
        <ele>95.5</ele>
        <time>2015-02-09T19:47:15.514Z</time>
      </trkpt>
      <trkpt lat="48.83677" lon="2.37444">
        <ele>95.5</ele>
        <time>2015-02-09T19:47:16.528Z</time>
      </trkpt>
      <trkpt lat="48.83672" lon="2.3745">
        <ele>95.3</ele>
        <time>2015-02-09T19:47:18.969Z</time>
      </trkpt>
      <trkpt lat="48.8367" lon="2.37453">
        <ele>95.7</ele>
        <time>2015-02-09T19:47:19.563Z</time>
      </trkpt>
      <trkpt lat="48.83664" lon="2.3746">
        <ele>96</ele>
        <time>2015-02-09T19:47:21.583Z</time>
      </trkpt>
      <trkpt lat="48.83661" lon="2.37464">
        <ele>95.8</ele>
        <time>2015-02-09T19:47:22.591Z</time>
      </trkpt>
      <trkpt lat="48.83655" lon="2.37471">
        <ele>95.8</ele>
        <time>2015-02-09T19:47:24.510Z</time>
      </trkpt>
      <trkpt lat="48.83651" lon="2.37475">
        <ele>95.6</ele>
        <time>2015-02-09T19:47:25.578Z</time>
      </trkpt>
      <trkpt lat="48.83643" lon="2.37482">
        <ele>94.9</ele>
        <time>2015-02-09T19:47:28.007Z</time>
      </trkpt>
      <trkpt lat="48.8364" lon="2.37485">
        <ele>94.7</ele>
        <time>2015-02-09T19:47:28.535Z</time>
      </trkpt>
      <trkpt lat="48.83632" lon="2.3749">
        <ele>94.2</ele>
        <time>2015-02-09T19:47:30.574Z</time>
      </trkpt>
      <trkpt lat="48.83629" lon="2.37493">
        <ele>94.5</ele>
        <time>2015-02-09T19:47:31.705Z</time>
      </trkpt>
      <trkpt lat="48.83623" lon="2.37499">
        <ele>94.2</ele>
        <time>2015-02-09T19:47:33.527Z</time>
      </trkpt>
      <trkpt lat="48.8362" lon="2.37502">
        <ele>94</ele>
        <time>2015-02-09T19:47:34.545Z</time>
      </trkpt>
      <trkpt lat="48.83615" lon="2.3751">
        <ele>94.4</ele>
        <time>2015-02-09T19:47:36.580Z</time>
      </trkpt>
      <trkpt lat="48.83612" lon="2.37513">
        <ele>94.7</ele>
        <time>2015-02-09T19:47:37.608Z</time>
      </trkpt>
      <trkpt lat="48.83605" lon="2.37521">
        <ele>95.2</ele>
        <time>2015-02-09T19:47:39.525Z</time>
      </trkpt>
      <trkpt lat="48.83601" lon="2.37524">
        <ele>95.5</ele>
        <time>2015-02-09T19:47:40.539Z</time>
      </trkpt>
      <trkpt lat="48.83595" lon="2.37531">
        <ele>95.8</ele>
        <time>2015-02-09T19:47:43.202Z</time>
      </trkpt>
      <trkpt lat="48.83592" lon="2.37534">
        <ele>96</ele>
        <time>2015-02-09T19:47:43.581Z</time>
      </trkpt>
      <trkpt lat="48.83586" lon="2.3754">
        <ele>96.5</ele>
        <time>2015-02-09T19:47:45.501Z</time>
      </trkpt>
      <trkpt lat="48.83583" lon="2.37543">
        <ele>96.5</ele>
        <time>2015-02-09T19:47:46.532Z</time>
      </trkpt>
      <trkpt lat="48.83576" lon="2.3755">
        <ele>97.6</ele>
        <time>2015-02-09T19:47:48.574Z</time>
      </trkpt>
      <trkpt lat="48.83574" lon="2.37554">
        <ele>98</ele>
        <time>2015-02-09T19:47:49.602Z</time>
      </trkpt>
      <trkpt lat="48.83568" lon="2.37561">
        <ele>99.2</ele>
        <time>2015-02-09T19:47:51.551Z</time>
      </trkpt>
      <trkpt lat="48.83565" lon="2.37566">
        <ele>99.6</ele>
        <time>2015-02-09T19:47:52.533Z</time>
      </trkpt>
      <trkpt lat="48.83559" lon="2.37572">
        <ele>99.5</ele>
        <time>2015-02-09T19:47:54.541Z</time>
      </trkpt>
      <trkpt lat="48.83556" lon="2.37574">
        <ele>99.2</ele>
        <time>2015-02-09T19:47:55.550Z</time>
      </trkpt>
      <trkpt lat="48.83551" lon="2.37579">
        <ele>98.9</ele>
        <time>2015-02-09T19:47:57.561Z</time>
      </trkpt>
      <trkpt lat="48.83547" lon="2.37582">
        <ele>98.8</ele>
        <time>2015-02-09T19:47:58.569Z</time>
      </trkpt>
      <trkpt lat="48.83542" lon="2.3759">
        <ele>98.8</ele>
        <time>2015-02-09T19:48:00.526Z</time>
      </trkpt>
      <trkpt lat="48.83539" lon="2.37593">
        <ele>98.5</ele>
        <time>2015-02-09T19:48:01.627Z</time>
      </trkpt>
      <trkpt lat="48.83532" lon="2.37599">
        <ele>98.2</ele>
        <time>2015-02-09T19:48:03.809Z</time>
      </trkpt>
      <trkpt lat="48.8353" lon="2.376">
        <ele>98</ele>
        <time>2015-02-09T19:48:04.535Z</time>
      </trkpt>
      <trkpt lat="48.83525" lon="2.37604">
        <ele>98</ele>
        <time>2015-02-09T19:48:06.565Z</time>
      </trkpt>
      <trkpt lat="48.83522" lon="2.37606">
        <ele>97.4</ele>
        <time>2015-02-09T19:48:07.601Z</time>
      </trkpt>
      <trkpt lat="48.83516" lon="2.37614">
        <ele>97.7</ele>
        <time>2015-02-09T19:48:09.545Z</time>
      </trkpt>
      <trkpt lat="48.83514" lon="2.37618">
        <ele>97.8</ele>
        <time>2015-02-09T19:48:10.570Z</time>
      </trkpt>
      <trkpt lat="48.83508" lon="2.37625">
        <ele>97.9</ele>
        <time>2015-02-09T19:48:12.617Z</time>
      </trkpt>
      <trkpt lat="48.83505" lon="2.37628">
        <ele>97.8</ele>
        <time>2015-02-09T19:48:13.620Z</time>
      </trkpt>
      <trkpt lat="48.83502" lon="2.37631">
        <ele>97.4</ele>
        <time>2015-02-09T19:48:14.522Z</time>
      </trkpt>
      <trkpt lat="48.83498" lon="2.37635">
        <ele>96.9</ele>
        <time>2015-02-09T19:48:15.553Z</time>
      </trkpt>
      <trkpt lat="48.83491" lon="2.37642">
        <ele>95.9</ele>
        <time>2015-02-09T19:48:17.588Z</time>
      </trkpt>
      <trkpt lat="48.83485" lon="2.37644">
        <ele>92.3</ele>
        <time>2015-02-09T19:48:18.607Z</time>
      </trkpt>
      <trkpt lat="48.8348" lon="2.3765">
        <ele>91.9</ele>
        <time>2015-02-09T19:48:20.542Z</time>
      </trkpt>
      <trkpt lat="48.83477" lon="2.37655">
        <ele>91.7</ele>
        <time>2015-02-09T19:48:21.575Z</time>
      </trkpt>
      <trkpt lat="48.83473" lon="2.37665">
        <ele>91.8</ele>
        <time>2015-02-09T19:48:23.607Z</time>
      </trkpt>
      <trkpt lat="48.83471" lon="2.37669">
        <ele>91.6</ele>
        <time>2015-02-09T19:48:24.616Z</time>
      </trkpt>
      <trkpt lat="48.83465" lon="2.37678">
        <ele>89.7</ele>
        <time>2015-02-09T19:48:27.933Z</time>
      </trkpt>
      <trkpt lat="48.83465" lon="2.37682">
        <ele>89.8</ele>
        <time>2015-02-09T19:48:28.566Z</time>
      </trkpt>
      <trkpt lat="48.83464" lon="2.37695">
        <ele>89.3</ele>
        <time>2015-02-09T19:48:46.570Z</time>
      </trkpt>
      <trkpt lat="48.83466" lon="2.37706">
        <ele>89.9</ele>
        <time>2015-02-09T19:48:47.594Z</time>
      </trkpt>
      <trkpt lat="48.83471" lon="2.37716">
        <ele>90.6</ele>
        <time>2015-02-09T19:48:50.538Z</time>
      </trkpt>
      <trkpt lat="48.83474" lon="2.37719">
        <ele>90.7</ele>
        <time>2015-02-09T19:48:51.546Z</time>
      </trkpt>
      <trkpt lat="48.83479" lon="2.37728">
        <ele>90.6</ele>
        <time>2015-02-09T19:48:55.316Z</time>
      </trkpt>
      <trkpt lat="48.83481" lon="2.37731">
        <ele>90.4</ele>
        <time>2015-02-09T19:48:55.595Z</time>
      </trkpt>
      <trkpt lat="48.83486" lon="2.37738">
        <ele>90.6</ele>
        <time>2015-02-09T19:48:58.507Z</time>
      </trkpt>
      <trkpt lat="48.83487" lon="2.37741">
        <ele>90.2</ele>
        <time>2015-02-09T19:48:59.544Z</time>
      </trkpt>
      <trkpt lat="48.83494" lon="2.3775">
        <ele>89.4</ele>
        <time>2015-02-09T19:49:03.367Z</time>
      </trkpt>
      <trkpt lat="48.83496" lon="2.37752">
        <ele>89.3</ele>
        <time>2015-02-09T19:49:03.538Z</time>
      </trkpt>
      <trkpt lat="48.83501" lon="2.37761">
        <ele>89.2</ele>
        <time>2015-02-09T19:49:06.591Z</time>
      </trkpt>
      <trkpt lat="48.83503" lon="2.37764">
        <ele>89</ele>
        <time>2015-02-09T19:49:07.606Z</time>
      </trkpt>
      <trkpt lat="48.83509" lon="2.37773">
        <ele>88.8</ele>
        <time>2015-02-09T19:49:10.549Z</time>
      </trkpt>
      <trkpt lat="48.8351" lon="2.37776">
        <ele>88.9</ele>
        <time>2015-02-09T19:49:11.541Z</time>
      </trkpt>
      <trkpt lat="48.83517" lon="2.37786">
        <ele>88.5</ele>
        <time>2015-02-09T19:49:15.527Z</time>
      </trkpt>
      <trkpt lat="48.83518" lon="2.37788">
        <ele>88.2</ele>
        <time>2015-02-09T19:49:16.539Z</time>
      </trkpt>
      <trkpt lat="48.83523" lon="2.37798">
        <ele>88.6</ele>
        <time>2015-02-09T19:49:21.632Z</time>
      </trkpt>
      <trkpt lat="48.83524" lon="2.378">
        <ele>88.7</ele>
        <time>2015-02-09T19:49:22.562Z</time>
      </trkpt>
      <trkpt lat="48.83527" lon="2.37808">
        <ele>86.3</ele>
        <time>2015-02-09T19:50:16.622Z</time>
      </trkpt>
      <trkpt lat="48.83529" lon="2.37811">
        <ele>86.4</ele>
        <time>2015-02-09T19:50:17.513Z</time>
      </trkpt>
      <trkpt lat="48.83533" lon="2.37819">
        <ele>85.8</ele>
        <time>2015-02-09T19:50:19.571Z</time>
      </trkpt>
      <trkpt lat="48.83536" lon="2.37822">
        <ele>86.1</ele>
        <time>2015-02-09T19:50:20.575Z</time>
      </trkpt>
      <trkpt lat="48.8354" lon="2.37831">
        <ele>86.3</ele>
        <time>2015-02-09T19:50:23.079Z</time>
      </trkpt>
      <trkpt lat="48.83543" lon="2.37835">
        <ele>86.6</ele>
        <time>2015-02-09T19:50:23.608Z</time>
      </trkpt>
      <trkpt lat="48.83549" lon="2.37845">
        <ele>86.5</ele>
        <time>2015-02-09T19:50:25.638Z</time>
      </trkpt>
      <trkpt lat="48.83552" lon="2.37851">
        <ele>86.8</ele>
        <time>2015-02-09T19:50:26.537Z</time>
      </trkpt>
      <trkpt lat="48.83555" lon="2.37857">
        <ele>87</ele>
        <time>2015-02-09T19:50:27.537Z</time>
      </trkpt>
      <trkpt lat="48.83558" lon="2.37864">
        <ele>87.1</ele>
        <time>2015-02-09T19:50:28.611Z</time>
      </trkpt>
      <trkpt lat="48.8356" lon="2.37871">
        <ele>87.2</ele>
        <time>2015-02-09T19:50:29.535Z</time>
      </trkpt>
      <trkpt lat="48.83562" lon="2.37877">
        <ele>87.1</ele>
        <time>2015-02-09T19:50:30.559Z</time>
      </trkpt>
      <trkpt lat="48.83568" lon="2.37885">
        <ele>86.9</ele>
        <time>2015-02-09T19:50:33.194Z</time>
      </trkpt>
      <trkpt lat="48.83571" lon="2.37889">
        <ele>86.9</ele>
        <time>2015-02-09T19:50:33.547Z</time>
      </trkpt>
      <trkpt lat="48.83575" lon="2.37896">
        <ele>87.3</ele>
        <time>2015-02-09T19:50:35.578Z</time>
      </trkpt>
      <trkpt lat="48.83577" lon="2.37899">
        <ele>87.5</ele>
        <time>2015-02-09T19:50:36.596Z</time>
      </trkpt>
      <trkpt lat="48.83583" lon="2.37906">
        <ele>88.2</ele>
        <time>2015-02-09T19:50:40.535Z</time>
      </trkpt>
      <trkpt lat="48.83585" lon="2.37908">
        <ele>88</ele>
        <time>2015-02-09T19:50:41.536Z</time>
      </trkpt>
      <trkpt lat="48.83591" lon="2.37916">
        <ele>88.1</ele>
        <time>2015-02-09T19:50:46.551Z</time>
      </trkpt>
      <trkpt lat="48.83592" lon="2.37918">
        <ele>87.9</ele>
        <time>2015-02-09T19:50:47.583Z</time>
      </trkpt>
      <trkpt lat="48.83586" lon="2.37909">
        <ele>86.2</ele>
        <time>2015-02-09T19:51:23.571Z</time>
      </trkpt>
      <trkpt lat="48.83586" lon="2.37908">
        <ele>86.1</ele>
        <time>2015-02-09T19:51:24.583Z</time>
      </trkpt>
      <trkpt lat="48.83582" lon="2.37897">
        <ele>86</ele>
        <time>2015-02-09T19:51:29.570Z</time>
      </trkpt>
      <trkpt lat="48.8358" lon="2.37894">
        <ele>85.9</ele>
        <time>2015-02-09T19:51:30.599Z</time>
      </trkpt>
      <trkpt lat="48.83576" lon="2.37886">
        <ele>86.2</ele>
        <time>2015-02-09T19:51:32.556Z</time>
      </trkpt>
      <trkpt lat="48.83573" lon="2.37882">
        <ele>86.1</ele>
        <time>2015-02-09T19:51:33.601Z</time>
      </trkpt>
      <trkpt lat="48.83568" lon="2.37874">
        <ele>86.1</ele>
        <time>2015-02-09T19:51:35.528Z</time>
      </trkpt>
      <trkpt lat="48.83565" lon="2.37869">
        <ele>86.1</ele>
        <time>2015-02-09T19:51:36.574Z</time>
      </trkpt>
      <trkpt lat="48.83562" lon="2.37864">
        <ele>86.3</ele>
        <time>2015-02-09T19:51:38.189Z</time>
      </trkpt>
      <trkpt lat="48.83559" lon="2.37858">
        <ele>86.3</ele>
        <time>2015-02-09T19:51:38.587Z</time>
      </trkpt>
      <trkpt lat="48.83555" lon="2.37852">
        <ele>86.8</ele>
        <time>2015-02-09T19:51:39.605Z</time>
      </trkpt>
      <trkpt lat="48.83553" lon="2.37847">
        <ele>86.9</ele>
        <time>2015-02-09T19:51:40.619Z</time>
      </trkpt>
      <trkpt lat="48.83547" lon="2.37841">
        <ele>86.5</ele>
        <time>2015-02-09T19:51:43.638Z</time>
      </trkpt>
      <trkpt lat="48.83547" lon="2.37842">
        <ele>86.2</ele>
        <time>2015-02-09T19:51:44.537Z</time>
      </trkpt>
      <trkpt lat="48.83547" lon="2.37842">
        <ele>86.2</ele>
        <time>2015-02-09T19:51:45.557Z</time>
      </trkpt>
      <trkpt lat="48.83548" lon="2.37844">
        <ele>86</ele>
        <time>2015-02-09T19:51:46.566Z</time>
      </trkpt>
      <trkpt lat="48.83553" lon="2.37851">
        <ele>85</ele>
        <time>2015-02-09T19:51:48.530Z</time>
      </trkpt>
      <trkpt lat="48.83555" lon="2.37855">
        <ele>84.4</ele>
        <time>2015-02-09T19:51:49.593Z</time>
      </trkpt>
      <trkpt lat="48.8356" lon="2.37864">
        <ele>84.3</ele>
        <time>2015-02-09T19:51:51.572Z</time>
      </trkpt>
      <trkpt lat="48.83562" lon="2.37868">
        <ele>84.6</ele>
        <time>2015-02-09T19:51:52.530Z</time>
      </trkpt>
      <trkpt lat="48.83566" lon="2.37877">
        <ele>84.9</ele>
        <time>2015-02-09T19:51:54.540Z</time>
      </trkpt>
      <trkpt lat="48.83569" lon="2.37882">
        <ele>85.1</ele>
        <time>2015-02-09T19:51:55.578Z</time>
      </trkpt>
      <trkpt lat="48.83573" lon="2.37891">
        <ele>85.3</ele>
        <time>2015-02-09T19:51:58.617Z</time>
      </trkpt>
      <trkpt lat="48.83575" lon="2.37894">
        <ele>85.4</ele>
        <time>2015-02-09T19:51:59.541Z</time>
      </trkpt>
      <trkpt lat="48.8358" lon="2.37904">
        <ele>85.8</ele>
        <time>2015-02-09T19:52:03.541Z</time>
      </trkpt>
      <trkpt lat="48.83582" lon="2.37906">
        <ele>85.7</ele>
        <time>2015-02-09T19:52:04.556Z</time>
      </trkpt>
      <trkpt lat="48.83576" lon="2.37914">
        <ele>87.5</ele>
        <time>2015-02-09T19:52:56.641Z</time>
      </trkpt>
      <trkpt lat="48.83574" lon="2.37917">
        <ele>87.2</ele>
        <time>2015-02-09T19:52:57.537Z</time>
      </trkpt>
      <trkpt lat="48.83566" lon="2.37925">
        <ele>87</ele>
        <time>2015-02-09T19:53:00.566Z</time>
      </trkpt>
      <trkpt lat="48.83564" lon="2.37927">
        <ele>87</ele>
        <time>2015-02-09T19:53:01.600Z</time>
      </trkpt>
      <trkpt lat="48.83558" lon="2.37933">
        <ele>86.7</ele>
        <time>2015-02-09T19:53:03.530Z</time>
      </trkpt>
      <trkpt lat="48.83556" lon="2.37936">
        <ele>86.5</ele>
        <time>2015-02-09T19:53:04.540Z</time>
      </trkpt>
      <trkpt lat="48.83549" lon="2.37944">
        <ele>86.5</ele>
        <time>2015-02-09T19:53:07.679Z</time>
      </trkpt>
      <trkpt lat="48.83547" lon="2.37947">
        <ele>86.6</ele>
        <time>2015-02-09T19:53:08.529Z</time>
      </trkpt>
      <trkpt lat="48.83542" lon="2.37955">
        <ele>86.2</ele>
        <time>2015-02-09T19:53:10.586Z</time>
      </trkpt>
      <trkpt lat="48.83541" lon="2.37959">
        <ele>85.6</ele>
        <time>2015-02-09T19:53:11.603Z</time>
      </trkpt>
      <trkpt lat="48.83536" lon="2.37966">
        <ele>85.3</ele>
        <time>2015-02-09T19:53:13.566Z</time>
      </trkpt>
      <trkpt lat="48.83534" lon="2.37969">
        <ele>85.1</ele>
        <time>2015-02-09T19:53:14.576Z</time>
      </trkpt>
      <trkpt lat="48.83528" lon="2.37976">
        <ele>84.9</ele>
        <time>2015-02-09T19:53:16.596Z</time>
      </trkpt>
      <trkpt lat="48.83525" lon="2.37981">
        <ele>84.9</ele>
        <time>2015-02-09T19:53:17.535Z</time>
      </trkpt>
      <trkpt lat="48.83518" lon="2.3799">
        <ele>84.8</ele>
        <time>2015-02-09T19:53:19.584Z</time>
      </trkpt>
      <trkpt lat="48.83515" lon="2.37995">
        <ele>84.8</ele>
        <time>2015-02-09T19:53:20.594Z</time>
      </trkpt>
      <trkpt lat="48.83508" lon="2.38004">
        <ele>85.1</ele>
        <time>2015-02-09T19:53:23.029Z</time>
      </trkpt>
      <trkpt lat="48.83505" lon="2.38007">
        <ele>85.1</ele>
        <time>2015-02-09T19:53:23.529Z</time>
      </trkpt>
      <trkpt lat="48.83498" lon="2.38016">
        <ele>85.2</ele>
        <time>2015-02-09T19:53:25.601Z</time>
      </trkpt>
      <trkpt lat="48.83495" lon="2.38021">
        <ele>85.3</ele>
        <time>2015-02-09T19:53:26.618Z</time>
      </trkpt>
      <trkpt lat="48.83492" lon="2.38025">
        <ele>85.2</ele>
        <time>2015-02-09T19:53:28.042Z</time>
      </trkpt>
      <trkpt lat="48.83488" lon="2.3803">
        <ele>85.3</ele>
        <time>2015-02-09T19:53:28.536Z</time>
      </trkpt>
      <trkpt lat="48.83485" lon="2.38034">
        <ele>85.1</ele>
        <time>2015-02-09T19:53:29.546Z</time>
      </trkpt>
      <trkpt lat="48.83481" lon="2.38039">
        <ele>84.9</ele>
        <time>2015-02-09T19:53:30.545Z</time>
      </trkpt>
      <trkpt lat="48.83475" lon="2.38047">
        <ele>84.6</ele>
        <time>2015-02-09T19:53:33.181Z</time>
      </trkpt>
      <trkpt lat="48.83471" lon="2.38052">
        <ele>84.6</ele>
        <time>2015-02-09T19:53:33.558Z</time>
      </trkpt>
      <trkpt lat="48.83465" lon="2.3806">
        <ele>84.8</ele>
        <time>2015-02-09T19:53:35.535Z</time>
      </trkpt>
      <trkpt lat="48.83462" lon="2.38065">
        <ele>84.7</ele>
        <time>2015-02-09T19:53:36.534Z</time>
      </trkpt>
      <trkpt lat="48.83456" lon="2.38072">
        <ele>84.5</ele>
        <time>2015-02-09T19:53:38.576Z</time>
      </trkpt>
      <trkpt lat="48.83453" lon="2.38076">
        <ele>84.4</ele>
        <time>2015-02-09T19:53:39.587Z</time>
      </trkpt>
      <trkpt lat="48.83446" lon="2.38084">
        <ele>84.4</ele>
        <time>2015-02-09T19:53:41.499Z</time>
      </trkpt>
      <trkpt lat="48.83443" lon="2.38088">
        <ele>84.4</ele>
        <time>2015-02-09T19:53:42.528Z</time>
      </trkpt>
      <trkpt lat="48.83437" lon="2.38095">
        <ele>84.3</ele>
        <time>2015-02-09T19:53:44.490Z</time>
      </trkpt>
      <trkpt lat="48.83434" lon="2.38099">
        <ele>84.3</ele>
        <time>2015-02-09T19:53:45.488Z</time>
      </trkpt>
      <trkpt lat="48.83428" lon="2.38107">
        <ele>84.3</ele>
        <time>2015-02-09T19:53:47.520Z</time>
      </trkpt>
      <trkpt lat="48.83425" lon="2.38111">
        <ele>84.2</ele>
        <time>2015-02-09T19:53:48.624Z</time>
      </trkpt>
      <trkpt lat="48.8342" lon="2.38118">
        <ele>84</ele>
        <time>2015-02-09T19:53:50.557Z</time>
      </trkpt>
      <trkpt lat="48.83417" lon="2.38121">
        <ele>83.8</ele>
        <time>2015-02-09T19:53:51.602Z</time>
      </trkpt>
      <trkpt lat="48.83412" lon="2.38128">
        <ele>83.6</ele>
        <time>2015-02-09T19:53:53.555Z</time>
      </trkpt>
      <trkpt lat="48.83409" lon="2.38131">
        <ele>83.6</ele>
        <time>2015-02-09T19:53:54.595Z</time>
      </trkpt>
      <trkpt lat="48.83404" lon="2.38139">
        <ele>83.1</ele>
        <time>2015-02-09T19:53:56.585Z</time>
      </trkpt>
      <trkpt lat="48.83401" lon="2.38142">
        <ele>82.9</ele>
        <time>2015-02-09T19:53:57.609Z</time>
      </trkpt>
      <trkpt lat="48.83395" lon="2.38151">
        <ele>82.6</ele>
        <time>2015-02-09T19:53:59.576Z</time>
      </trkpt>
      <trkpt lat="48.83392" lon="2.38155">
        <ele>82.6</ele>
        <time>2015-02-09T19:54:00.552Z</time>
      </trkpt>
      <trkpt lat="48.83386" lon="2.38163">
        <ele>82.3</ele>
        <time>2015-02-09T19:54:02.528Z</time>
      </trkpt>
      <trkpt lat="48.83382" lon="2.38167">
        <ele>82.2</ele>
        <time>2015-02-09T19:54:03.498Z</time>
      </trkpt>
      <trkpt lat="48.83377" lon="2.38175">
        <ele>82.2</ele>
        <time>2015-02-09T19:54:05.590Z</time>
      </trkpt>
      <trkpt lat="48.83374" lon="2.38179">
        <ele>82.3</ele>
        <time>2015-02-09T19:54:06.608Z</time>
      </trkpt>
      <trkpt lat="48.83369" lon="2.38185">
        <ele>82.4</ele>
        <time>2015-02-09T19:54:08.821Z</time>
      </trkpt>
      <trkpt lat="48.83366" lon="2.38188">
        <ele>82.5</ele>
        <time>2015-02-09T19:54:09.518Z</time>
      </trkpt>
      <trkpt lat="48.8336" lon="2.38196">
        <ele>82.4</ele>
        <time>2015-02-09T19:54:12.519Z</time>
      </trkpt>
      <trkpt lat="48.83358" lon="2.38198">
        <ele>82.5</ele>
        <time>2015-02-09T19:54:13.573Z</time>
      </trkpt>
      <trkpt lat="48.83351" lon="2.38205">
        <ele>82.8</ele>
        <time>2015-02-09T19:54:17.502Z</time>
      </trkpt>
      <trkpt lat="48.83349" lon="2.38207">
        <ele>82.8</ele>
        <time>2015-02-09T19:54:18.534Z</time>
      </trkpt>
      <trkpt lat="48.83348" lon="2.38217">
        <ele>82.7</ele>
        <time>2015-02-09T19:54:21.615Z</time>
      </trkpt>
      <trkpt lat="48.83349" lon="2.38222">
        <ele>82.9</ele>
        <time>2015-02-09T19:54:22.696Z</time>
      </trkpt>
      <trkpt lat="48.83353" lon="2.3823">
        <ele>82.8</ele>
        <time>2015-02-09T19:54:25.586Z</time>
      </trkpt>
      <trkpt lat="48.83355" lon="2.38233">
        <ele>82.9</ele>
        <time>2015-02-09T19:54:26.608Z</time>
      </trkpt>
      <trkpt lat="48.83359" lon="2.38241">
        <ele>83</ele>
        <time>2015-02-09T19:54:29.535Z</time>
      </trkpt>
      <trkpt lat="48.8336" lon="2.38243">
        <ele>82.9</ele>
        <time>2015-02-09T19:54:30.572Z</time>
      </trkpt>
      <trkpt lat="48.83365" lon="2.3825">
        <ele>82.9</ele>
        <time>2015-02-09T19:54:33.388Z</time>
      </trkpt>
      <trkpt lat="48.83368" lon="2.38253">
        <ele>82.9</ele>
        <time>2015-02-09T19:54:33.544Z</time>
      </trkpt>
      <trkpt lat="48.83373" lon="2.38261">
        <ele>83.1</ele>
        <time>2015-02-09T19:54:36.608Z</time>
      </trkpt>
      <trkpt lat="48.83374" lon="2.38263">
        <ele>82.9</ele>
        <time>2015-02-09T19:54:37.612Z</time>
      </trkpt>
      <trkpt lat="48.83376" lon="2.38273">
        <ele>82.9</ele>
        <time>2015-02-09T19:54:40.566Z</time>
      </trkpt>
      <trkpt lat="48.83378" lon="2.38278">
        <ele>83.1</ele>
        <time>2015-02-09T19:54:41.604Z</time>
      </trkpt>
      <trkpt lat="48.83382" lon="2.38285">
        <ele>82.8</ele>
        <time>2015-02-09T19:54:43.640Z</time>
      </trkpt>
      <trkpt lat="48.83385" lon="2.38289">
        <ele>83.1</ele>
        <time>2015-02-09T19:54:44.523Z</time>
      </trkpt>
      <trkpt lat="48.8339" lon="2.38294">
        <ele>83.1</ele>
        <time>2015-02-09T19:54:46.554Z</time>
      </trkpt>
      <trkpt lat="48.83395" lon="2.38301">
        <ele>82.6</ele>
        <time>2015-02-09T19:54:47.624Z</time>
      </trkpt>
      <trkpt lat="48.83399" lon="2.38306">
        <ele>82.1</ele>
        <time>2015-02-09T19:54:48.604Z</time>
      </trkpt>
      <trkpt lat="48.83403" lon="2.38312">
        <ele>81.9</ele>
        <time>2015-02-09T19:54:49.593Z</time>
      </trkpt>
      <trkpt lat="48.83409" lon="2.38321">
        <ele>81.9</ele>
        <time>2015-02-09T19:54:52.544Z</time>
      </trkpt>
      <trkpt lat="48.8341" lon="2.38324">
        <ele>81.9</ele>
        <time>2015-02-09T19:54:53.547Z</time>
      </trkpt>
      <trkpt lat="48.83414" lon="2.38333">
        <ele>81.9</ele>
        <time>2015-02-09T19:54:55.562Z</time>
      </trkpt>
      <trkpt lat="48.83415" lon="2.38337">
        <ele>82.4</ele>
        <time>2015-02-09T19:54:56.566Z</time>
      </trkpt>
      <trkpt lat="48.83422" lon="2.38346">
        <ele>82.8</ele>
        <time>2015-02-09T19:54:58.710Z</time>
      </trkpt>
      <trkpt lat="48.83425" lon="2.3835">
        <ele>82.7</ele>
        <time>2015-02-09T19:54:59.610Z</time>
      </trkpt>
      <trkpt lat="48.83429" lon="2.38355">
        <ele>82.8</ele>
        <time>2015-02-09T19:55:00.524Z</time>
      </trkpt>
      <trkpt lat="48.83434" lon="2.3836">
        <ele>83.1</ele>
        <time>2015-02-09T19:55:01.546Z</time>
      </trkpt>
      <trkpt lat="48.83437" lon="2.38365">
        <ele>83.4</ele>
        <time>2015-02-09T19:55:02.571Z</time>
      </trkpt>
      <trkpt lat="48.83441" lon="2.38373">
        <ele>83</ele>
        <time>2015-02-09T19:55:03.582Z</time>
      </trkpt>
      <trkpt lat="48.83445" lon="2.38379">
        <ele>83</ele>
        <time>2015-02-09T19:55:04.512Z</time>
      </trkpt>
      <trkpt lat="48.83447" lon="2.38384">
        <ele>82.9</ele>
        <time>2015-02-09T19:55:05.508Z</time>
      </trkpt>
      <trkpt lat="48.83449" lon="2.38388">
        <ele>83.1</ele>
        <time>2015-02-09T19:55:06.544Z</time>
      </trkpt>
      <trkpt lat="48.83453" lon="2.38396">
        <ele>82.9</ele>
        <time>2015-02-09T19:55:07.586Z</time>
      </trkpt>
      <trkpt lat="48.83457" lon="2.38402">
        <ele>82.7</ele>
        <time>2015-02-09T19:55:08.908Z</time>
      </trkpt>
      <trkpt lat="48.83461" lon="2.38408">
        <ele>82.5</ele>
        <time>2015-02-09T19:55:09.595Z</time>
      </trkpt>
      <trkpt lat="48.83466" lon="2.38417">
        <ele>83.1</ele>
        <time>2015-02-09T19:55:11.511Z</time>
      </trkpt>
      <trkpt lat="48.83467" lon="2.38421">
        <ele>83.6</ele>
        <time>2015-02-09T19:55:12.590Z</time>
      </trkpt>
      <trkpt lat="48.8347" lon="2.3843">
        <ele>83.8</ele>
        <time>2015-02-09T19:55:14.491Z</time>
      </trkpt>
      <trkpt lat="48.83472" lon="2.38434">
        <ele>84</ele>
        <time>2015-02-09T19:55:15.589Z</time>
      </trkpt>
      <trkpt lat="48.83476" lon="2.38442">
        <ele>84.6</ele>
        <time>2015-02-09T19:55:17.661Z</time>
      </trkpt>
      <trkpt lat="48.83477" lon="2.38447">
        <ele>85.1</ele>
        <time>2015-02-09T19:55:18.620Z</time>
      </trkpt>
      <trkpt lat="48.83483" lon="2.38456">
        <ele>86.1</ele>
        <time>2015-02-09T19:55:21.661Z</time>
      </trkpt>
      <trkpt lat="48.83485" lon="2.38461">
        <ele>86.1</ele>
        <time>2015-02-09T19:55:22.536Z</time>
      </trkpt>
      <trkpt lat="48.83488" lon="2.38465">
        <ele>86.2</ele>
        <time>2015-02-09T19:55:23.529Z</time>
      </trkpt>
      <trkpt lat="48.83492" lon="2.38471">
        <ele>86.3</ele>
        <time>2015-02-09T19:55:24.591Z</time>
      </trkpt>
      <trkpt lat="48.83495" lon="2.38483">
        <ele>87.4</ele>
        <time>2015-02-09T19:55:28.086Z</time>
      </trkpt>
      <trkpt lat="48.83496" lon="2.38486">
        <ele>87.8</ele>
        <time>2015-02-09T19:55:28.600Z</time>
      </trkpt>
      <trkpt lat="48.83501" lon="2.38494">
        <ele>88.2</ele>
        <time>2015-02-09T19:55:30.539Z</time>
      </trkpt>
      <trkpt lat="48.83505" lon="2.385">
        <ele>88.5</ele>
        <time>2015-02-09T19:55:31.589Z</time>
      </trkpt>
      <trkpt lat="48.83511" lon="2.38508">
        <ele>88.7</ele>
        <time>2015-02-09T19:55:33.525Z</time>
      </trkpt>
      <trkpt lat="48.83514" lon="2.38512">
        <ele>88.9</ele>
        <time>2015-02-09T19:55:34.634Z</time>
      </trkpt>
      <trkpt lat="48.83516" lon="2.38523">
        <ele>90.3</ele>
        <time>2015-02-09T19:55:38.262Z</time>
      </trkpt>
      <trkpt lat="48.83513" lon="2.38526">
        <ele>90.8</ele>
        <time>2015-02-09T19:55:38.516Z</time>
      </trkpt>
      <trkpt lat="48.83507" lon="2.38534">
        <ele>91.9</ele>
        <time>2015-02-09T19:55:40.536Z</time>
      </trkpt>
      <trkpt lat="48.83504" lon="2.38538">
        <ele>92.6</ele>
        <time>2015-02-09T19:55:41.613Z</time>
      </trkpt>
      <trkpt lat="48.835" lon="2.38542">
        <ele>93</ele>
        <time>2015-02-09T19:55:43.345Z</time>
      </trkpt>
      <trkpt lat="48.83495" lon="2.38546">
        <ele>93.3</ele>
        <time>2015-02-09T19:55:43.531Z</time>
      </trkpt>
      <trkpt lat="48.83489" lon="2.38553">
        <ele>94</ele>
        <time>2015-02-09T19:55:45.550Z</time>
      </trkpt>
      <trkpt lat="48.83485" lon="2.38556">
        <ele>94</ele>
        <time>2015-02-09T19:55:46.592Z</time>
      </trkpt>
      <trkpt lat="48.83479" lon="2.38559">
        <ele>94.2</ele>
        <time>2015-02-09T19:55:48.391Z</time>
      </trkpt>
      <trkpt lat="48.83474" lon="2.38562">
        <ele>94.3</ele>
        <time>2015-02-09T19:55:48.495Z</time>
      </trkpt>
      <trkpt lat="48.83468" lon="2.38571">
        <ele>95.1</ele>
        <time>2015-02-09T19:55:50.548Z</time>
      </trkpt>
      <trkpt lat="48.83467" lon="2.38577">
        <ele>95.7</ele>
        <time>2015-02-09T19:55:51.544Z</time>
      </trkpt>
      <trkpt lat="48.83465" lon="2.38588">
        <ele>96.6</ele>
        <time>2015-02-09T19:55:53.564Z</time>
      </trkpt>
      <trkpt lat="48.83464" lon="2.38594">
        <ele>97.2</ele>
        <time>2015-02-09T19:55:54.568Z</time>
      </trkpt>
      <trkpt lat="48.83458" lon="2.38604">
        <ele>98.2</ele>
        <time>2015-02-09T19:55:57.526Z</time>
      </trkpt>
      <trkpt lat="48.83457" lon="2.38607">
        <ele>98.6</ele>
        <time>2015-02-09T19:55:58.576Z</time>
      </trkpt>
      <trkpt lat="48.83451" lon="2.3861">
        <ele>99.3</ele>
        <time>2015-02-09T19:56:00.581Z</time>
      </trkpt>
      <trkpt lat="48.83447" lon="2.38612">
        <ele>99.5</ele>
        <time>2015-02-09T19:56:01.591Z</time>
      </trkpt>
      <trkpt lat="48.83439" lon="2.38614">
        <ele>100.5</ele>
        <time>2015-02-09T19:56:03.674Z</time>
      </trkpt>
      <trkpt lat="48.83433" lon="2.38613">
        <ele>100.9</ele>
        <time>2015-02-09T19:56:04.551Z</time>
      </trkpt>
      <trkpt lat="48.83429" lon="2.38613">
        <ele>101.2</ele>
        <time>2015-02-09T19:56:05.575Z</time>
      </trkpt>
      <trkpt lat="48.83423" lon="2.38612">
        <ele>101.6</ele>
        <time>2015-02-09T19:56:06.574Z</time>
      </trkpt>
      <trkpt lat="48.83417" lon="2.38612">
        <ele>101.9</ele>
        <time>2015-02-09T19:56:07.596Z</time>
      </trkpt>
      <trkpt lat="48.83412" lon="2.38613">
        <ele>101.9</ele>
        <time>2015-02-09T19:56:08.628Z</time>
      </trkpt>
      <trkpt lat="48.83406" lon="2.38618">
        <ele>102.2</ele>
        <time>2015-02-09T19:56:10.608Z</time>
      </trkpt>
      <trkpt lat="48.83404" lon="2.38622">
        <ele>102.5</ele>
        <time>2015-02-09T19:56:11.528Z</time>
      </trkpt>
      <trkpt lat="48.83406" lon="2.38635">
        <ele>102.9</ele>
        <time>2015-02-09T19:56:13.561Z</time>
      </trkpt>
      <trkpt lat="48.83407" lon="2.38643">
        <ele>103</ele>
        <time>2015-02-09T19:56:14.548Z</time>
      </trkpt>
      <trkpt lat="48.83408" lon="2.38651">
        <ele>103.3</ele>
        <time>2015-02-09T19:56:15.562Z</time>
      </trkpt>
      <trkpt lat="48.83407" lon="2.38658">
        <ele>103.8</ele>
        <time>2015-02-09T19:56:16.595Z</time>
      </trkpt>
      <trkpt lat="48.83404" lon="2.38671">
        <ele>105</ele>
        <time>2015-02-09T19:56:18.632Z</time>
      </trkpt>
      <trkpt lat="48.83402" lon="2.38678">
        <ele>106.3</ele>
        <time>2015-02-09T19:56:19.611Z</time>
      </trkpt>
      <trkpt lat="48.83403" lon="2.3869">
        <ele>107.2</ele>
        <time>2015-02-09T19:56:22.585Z</time>
      </trkpt>
      <trkpt lat="48.83406" lon="2.38694">
        <ele>107.4</ele>
        <time>2015-02-09T19:56:23.608Z</time>
      </trkpt>
      <trkpt lat="48.8341" lon="2.38705">
        <ele>107.4</ele>
        <time>2015-02-09T19:56:25.628Z</time>
      </trkpt>
      <trkpt lat="48.8341" lon="2.38709">
        <ele>107.4</ele>
        <time>2015-02-09T19:56:26.595Z</time>
      </trkpt>
      <trkpt lat="48.83407" lon="2.3872">
        <ele>108.1</ele>
        <time>2015-02-09T19:56:29.584Z</time>
      </trkpt>
      <trkpt lat="48.83405" lon="2.38725">
        <ele>108.2</ele>
        <time>2015-02-09T19:56:30.619Z</time>
      </trkpt>
      <trkpt lat="48.83399" lon="2.38732">
        <ele>108.2</ele>
        <time>2015-02-09T19:56:32.503Z</time>
      </trkpt>
      <trkpt lat="48.83396" lon="2.38736">
        <ele>108.4</ele>
        <time>2015-02-09T19:56:33.584Z</time>
      </trkpt>
      <trkpt lat="48.83393" lon="2.38745">
        <ele>108.8</ele>
        <time>2015-02-09T19:56:35.566Z</time>
      </trkpt>
      <trkpt lat="48.83391" lon="2.38748">
        <ele>108.9</ele>
        <time>2015-02-09T19:56:36.591Z</time>
      </trkpt>
      <trkpt lat="48.83386" lon="2.38759">
        <ele>109</ele>
        <time>2015-02-09T19:56:40.587Z</time>
      </trkpt>
      <trkpt lat="48.83385" lon="2.38762">
        <ele>108.7</ele>
        <time>2015-02-09T19:56:41.521Z</time>
      </trkpt>
      <trkpt lat="48.8338" lon="2.38769">
        <ele>107.5</ele>
        <time>2015-02-09T19:56:44.583Z</time>
      </trkpt>
      <trkpt lat="48.83378" lon="2.38771">
        <ele>107.2</ele>
        <time>2015-02-09T19:56:45.593Z</time>
      </trkpt>
      <trkpt lat="48.83373" lon="2.38779">
        <ele>106.5</ele>
        <time>2015-02-09T19:56:48.545Z</time>
      </trkpt>
      <trkpt lat="48.83372" lon="2.38782">
        <ele>106.5</ele>
        <time>2015-02-09T19:56:49.563Z</time>
      </trkpt>
      <trkpt lat="48.83367" lon="2.38791">
        <ele>106.3</ele>
        <time>2015-02-09T19:56:53.538Z</time>
      </trkpt>
      <trkpt lat="48.83365" lon="2.38792">
        <ele>106.1</ele>
        <time>2015-02-09T19:56:54.533Z</time>
      </trkpt>
      <trkpt lat="48.8336" lon="2.38799">
        <ele>103.2</ele>
        <time>2015-02-09T19:56:57.593Z</time>
      </trkpt>
      <trkpt lat="48.83358" lon="2.38801">
        <ele>101.8</ele>
        <time>2015-02-09T19:56:58.545Z</time>
      </trkpt>
      <trkpt lat="48.83357" lon="2.38812">
        <ele>100.1</ele>
        <time>2015-02-09T19:57:02.568Z</time>
      </trkpt>
      <trkpt lat="48.8336" lon="2.38817">
        <ele>99.6</ele>
        <time>2015-02-09T19:57:03.581Z</time>
      </trkpt>
      <trkpt lat="48.83362" lon="2.38822">
        <ele>99.3</ele>
        <time>2015-02-09T19:57:04.499Z</time>
      </trkpt>
      <trkpt lat="48.83366" lon="2.38827">
        <ele>98.6</ele>
        <time>2015-02-09T19:57:05.508Z</time>
      </trkpt>
      <trkpt lat="48.8337" lon="2.38838">
        <ele>98.2</ele>
        <time>2015-02-09T19:57:08.547Z</time>
      </trkpt>
      <trkpt lat="48.8337" lon="2.38841">
        <ele>97.7</ele>
        <time>2015-02-09T19:57:09.534Z</time>
      </trkpt>
      <trkpt lat="48.83374" lon="2.3885">
        <ele>97.4</ele>
        <time>2015-02-09T19:57:13.596Z</time>
      </trkpt>
      <trkpt lat="48.83376" lon="2.38853">
        <ele>97.5</ele>
        <time>2015-02-09T19:57:14.594Z</time>
      </trkpt>
      <trkpt lat="48.83381" lon="2.38859">
        <ele>98.2</ele>
        <time>2015-02-09T19:57:16.548Z</time>
      </trkpt>
      <trkpt lat="48.83384" lon="2.38862">
        <ele>98.3</ele>
        <time>2015-02-09T19:57:17.583Z</time>
      </trkpt>
      <trkpt lat="48.83389" lon="2.38871">
        <ele>98.9</ele>
        <time>2015-02-09T19:57:20.572Z</time>
      </trkpt>
      <trkpt lat="48.83389" lon="2.38873">
        <ele>99.4</ele>
        <time>2015-02-09T19:57:21.571Z</time>
      </trkpt>
      <trkpt lat="48.83392" lon="2.38884">
        <ele>99</ele>
        <time>2015-02-09T19:57:26.584Z</time>
      </trkpt>
      <trkpt lat="48.83394" lon="2.38887">
        <ele>99</ele>
        <time>2015-02-09T19:57:27.588Z</time>
      </trkpt>
      <trkpt lat="48.83402" lon="2.38888">
        <ele>96.9</ele>
        <time>2015-02-09T19:57:31.601Z</time>
      </trkpt>
      <trkpt lat="48.83407" lon="2.38886">
        <ele>96.6</ele>
        <time>2015-02-09T19:57:32.586Z</time>
      </trkpt>
      <trkpt lat="48.83413" lon="2.38878">
        <ele>95.6</ele>
        <time>2015-02-09T19:57:34.596Z</time>
      </trkpt>
      <trkpt lat="48.83415" lon="2.38874">
        <ele>95.3</ele>
        <time>2015-02-09T19:57:35.634Z</time>
      </trkpt>
      <trkpt lat="48.8342" lon="2.38865">
        <ele>94.5</ele>
        <time>2015-02-09T19:57:37.624Z</time>
      </trkpt>
      <trkpt lat="48.83423" lon="2.3886">
        <ele>94.4</ele>
        <time>2015-02-09T19:57:38.587Z</time>
      </trkpt>
      <trkpt lat="48.83426" lon="2.38856">
        <ele>94.4</ele>
        <time>2015-02-09T19:57:39.588Z</time>
      </trkpt>
      <trkpt lat="48.83431" lon="2.38853">
        <ele>94.5</ele>
        <time>2015-02-09T19:57:40.691Z</time>
      </trkpt>
      <trkpt lat="48.83437" lon="2.38847">
        <ele>94.4</ele>
        <time>2015-02-09T19:57:42.614Z</time>
      </trkpt>
      <trkpt lat="48.8344" lon="2.38844">
        <ele>94.6</ele>
        <time>2015-02-09T19:57:43.631Z</time>
      </trkpt>
      <trkpt lat="48.83443" lon="2.38831">
        <ele>94.5</ele>
        <time>2015-02-09T19:57:46.591Z</time>
      </trkpt>
      <trkpt lat="48.83444" lon="2.38827">
        <ele>93.8</ele>
        <time>2015-02-09T19:57:47.718Z</time>
      </trkpt>
      <trkpt lat="48.83446" lon="2.38819">
        <ele>93</ele>
        <time>2015-02-09T19:57:49.577Z</time>
      </trkpt>
      <trkpt lat="48.83447" lon="2.38813">
        <ele>93</ele>
        <time>2015-02-09T19:57:50.599Z</time>
      </trkpt>
      <trkpt lat="48.83449" lon="2.38808">
        <ele>93.1</ele>
        <time>2015-02-09T19:57:51.612Z</time>
      </trkpt>
      <trkpt lat="48.83454" lon="2.38805">
        <ele>93.2</ele>
        <time>2015-02-09T19:57:52.560Z</time>
      </trkpt>
      <trkpt lat="48.83459" lon="2.38801">
        <ele>92.8</ele>
        <time>2015-02-09T19:57:53.574Z</time>
      </trkpt>
      <trkpt lat="48.83464" lon="2.38798">
        <ele>93</ele>
        <time>2015-02-09T19:57:54.581Z</time>
      </trkpt>
      <trkpt lat="48.83469" lon="2.38794">
        <ele>92.9</ele>
        <time>2015-02-09T19:57:56.059Z</time>
      </trkpt>
      <trkpt lat="48.83472" lon="2.38791">
        <ele>93</ele>
        <time>2015-02-09T19:57:56.597Z</time>
      </trkpt>
      <trkpt lat="48.83475" lon="2.38787">
        <ele>93</ele>
        <time>2015-02-09T19:57:58.150Z</time>
      </trkpt>
      <trkpt lat="48.83479" lon="2.38782">
        <ele>92.9</ele>
        <time>2015-02-09T19:57:58.523Z</time>
      </trkpt>
      <trkpt lat="48.83483" lon="2.38778">
        <ele>93.1</ele>
        <time>2015-02-09T19:57:59.546Z</time>
      </trkpt>
      <trkpt lat="48.83487" lon="2.38773">
        <ele>93.3</ele>
        <time>2015-02-09T19:58:00.479Z</time>
      </trkpt>
      <trkpt lat="48.83491" lon="2.3877">
        <ele>93.5</ele>
        <time>2015-02-09T19:58:01.691Z</time>
      </trkpt>
      <trkpt lat="48.83496" lon="2.38765">
        <ele>93.4</ele>
        <time>2015-02-09T19:58:02.598Z</time>
      </trkpt>
      <trkpt lat="48.835" lon="2.38761">
        <ele>93.5</ele>
        <time>2015-02-09T19:58:03.507Z</time>
      </trkpt>
      <trkpt lat="48.83503" lon="2.38755">
        <ele>93.5</ele>
        <time>2015-02-09T19:58:04.527Z</time>
      </trkpt>
      <trkpt lat="48.83508" lon="2.38746">
        <ele>93.8</ele>
        <time>2015-02-09T19:58:06.574Z</time>
      </trkpt>
      <trkpt lat="48.83512" lon="2.38743">
        <ele>94.2</ele>
        <time>2015-02-09T19:58:07.632Z</time>
      </trkpt>
      <trkpt lat="48.83518" lon="2.38737">
        <ele>94.4</ele>
        <time>2015-02-09T19:58:09.646Z</time>
      </trkpt>
      <trkpt lat="48.83521" lon="2.38736">
        <ele>94.6</ele>
        <time>2015-02-09T19:58:10.556Z</time>
      </trkpt>
      <trkpt lat="48.83528" lon="2.3874">
        <ele>93.9</ele>
        <time>2015-02-09T19:58:12.598Z</time>
      </trkpt>
      <trkpt lat="48.83531" lon="2.38742">
        <ele>92.9</ele>
        <time>2015-02-09T19:58:13.604Z</time>
      </trkpt>
      <trkpt lat="48.83537" lon="2.38749">
        <ele>92.3</ele>
        <time>2015-02-09T19:58:16.497Z</time>
      </trkpt>
      <trkpt lat="48.83539" lon="2.38751">
        <ele>91.5</ele>
        <time>2015-02-09T19:58:17.584Z</time>
      </trkpt>
      <trkpt lat="48.83539" lon="2.38738">
        <ele>89.7</ele>
        <time>2015-02-09T19:58:26.604Z</time>
      </trkpt>
      <trkpt lat="48.83541" lon="2.38736">
        <ele>89.6</ele>
        <time>2015-02-09T19:58:27.526Z</time>
      </trkpt>
      <trkpt lat="48.83546" lon="2.38726">
        <ele>89</ele>
        <time>2015-02-09T19:58:31.530Z</time>
      </trkpt>
      <trkpt lat="48.83548" lon="2.38723">
        <ele>88.8</ele>
        <time>2015-02-09T19:58:32.540Z</time>
      </trkpt>
      <trkpt lat="48.83555" lon="2.38715">
        <ele>88.2</ele>
        <time>2015-02-09T19:58:35.522Z</time>
      </trkpt>
      <trkpt lat="48.83557" lon="2.38712">
        <ele>88.1</ele>
        <time>2015-02-09T19:58:36.548Z</time>
      </trkpt>
      <trkpt lat="48.83564" lon="2.38705">
        <ele>88</ele>
        <time>2015-02-09T19:58:38.490Z</time>
      </trkpt>
      <trkpt lat="48.83566" lon="2.38702">
        <ele>87.9</ele>
        <time>2015-02-09T19:58:39.493Z</time>
      </trkpt>
      <trkpt lat="48.83573" lon="2.38694">
        <ele>88</ele>
        <time>2015-02-09T19:58:43.167Z</time>
      </trkpt>
      <trkpt lat="48.83576" lon="2.38693">
        <ele>88</ele>
        <time>2015-02-09T19:58:43.507Z</time>
      </trkpt>
      <trkpt lat="48.83584" lon="2.38692">
        <ele>87.9</ele>
        <time>2015-02-09T19:58:46.545Z</time>
      </trkpt>
      <trkpt lat="48.83585" lon="2.38689">
        <ele>87.7</ele>
        <time>2015-02-09T19:58:47.556Z</time>
      </trkpt>
      <trkpt lat="48.83588" lon="2.3868">
        <ele>86.3</ele>
        <time>2015-02-09T19:58:50.672Z</time>
      </trkpt>
      <trkpt lat="48.83589" lon="2.38677">
        <ele>85.7</ele>
        <time>2015-02-09T19:58:51.487Z</time>
      </trkpt>
      <trkpt lat="48.83597" lon="2.38681">
        <ele>85.1</ele>
        <time>2015-02-09T19:58:58.480Z</time>
      </trkpt>
      <trkpt lat="48.836" lon="2.38683">
        <ele>85.2</ele>
        <time>2015-02-09T19:58:59.512Z</time>
      </trkpt>
      <trkpt lat="48.83605" lon="2.38694">
        <ele>85.2</ele>
        <time>2015-02-09T19:59:03.601Z</time>
      </trkpt>
      <trkpt lat="48.83605" lon="2.38697">
        <ele>85.2</ele>
        <time>2015-02-09T19:59:04.465Z</time>
      </trkpt>
      <trkpt lat="48.83607" lon="2.38706">
        <ele>85.5</ele>
        <time>2015-02-09T19:59:07.530Z</time>
      </trkpt>
      <trkpt lat="48.83609" lon="2.3871">
        <ele>85.8</ele>
        <time>2015-02-09T19:59:08.564Z</time>
      </trkpt>
      <trkpt lat="48.83612" lon="2.38721">
        <ele>86.8</ele>
        <time>2015-02-09T19:59:11.501Z</time>
      </trkpt>
      <trkpt lat="48.83614" lon="2.38725">
        <ele>87.2</ele>
        <time>2015-02-09T19:59:12.505Z</time>
      </trkpt>
      <trkpt lat="48.83617" lon="2.38737">
        <ele>87.6</ele>
        <time>2015-02-09T19:59:15.523Z</time>
      </trkpt>
      <trkpt lat="48.83618" lon="2.38741">
        <ele>87.6</ele>
        <time>2015-02-09T19:59:16.539Z</time>
      </trkpt>
      <trkpt lat="48.83622" lon="2.38753">
        <ele>88.4</ele>
        <time>2015-02-09T19:59:19.549Z</time>
      </trkpt>
      <trkpt lat="48.83623" lon="2.38756">
        <ele>88.9</ele>
        <time>2015-02-09T19:59:20.546Z</time>
      </trkpt>
      <trkpt lat="48.83629" lon="2.3876">
        <ele>90.7</ele>
        <time>2015-02-09T19:59:23.021Z</time>
      </trkpt>
      <trkpt lat="48.83633" lon="2.38762">
        <ele>91.2</ele>
        <time>2015-02-09T19:59:23.501Z</time>
      </trkpt>
      <trkpt lat="48.83636" lon="2.38765">
        <ele>91.1</ele>
        <time>2015-02-09T19:59:24.504Z</time>
      </trkpt>
      <trkpt lat="48.83642" lon="2.38772">
        <ele>90.2</ele>
        <time>2015-02-09T19:59:25.514Z</time>
      </trkpt>
      <trkpt lat="48.83648" lon="2.38779">
        <ele>89.9</ele>
        <time>2015-02-09T19:59:26.520Z</time>
      </trkpt>
      <trkpt lat="48.83651" lon="2.38784">
        <ele>89.9</ele>
        <time>2015-02-09T19:59:27.527Z</time>
      </trkpt>
      <trkpt lat="48.83654" lon="2.38794">
        <ele>90.5</ele>
        <time>2015-02-09T19:59:29.558Z</time>
      </trkpt>
      <trkpt lat="48.83655" lon="2.38797">
        <ele>90.7</ele>
        <time>2015-02-09T19:59:30.470Z</time>
      </trkpt>
      <trkpt lat="48.83658" lon="2.3881">
        <ele>90.8</ele>
        <time>2015-02-09T19:59:35.603Z</time>
      </trkpt>
      <trkpt lat="48.83657" lon="2.38814">
        <ele>90.7</ele>
        <time>2015-02-09T19:59:36.509Z</time>
      </trkpt>
      <trkpt lat="48.83653" lon="2.38824">
        <ele>91.2</ele>
        <time>2015-02-09T19:59:38.527Z</time>
      </trkpt>
      <trkpt lat="48.83651" lon="2.38829">
        <ele>91.1</ele>
        <time>2015-02-09T19:59:39.551Z</time>
      </trkpt>
      <trkpt lat="48.83647" lon="2.38839">
        <ele>91.1</ele>
        <time>2015-02-09T19:59:41.471Z</time>
      </trkpt>
      <trkpt lat="48.83646" lon="2.38842">
        <ele>91.3</ele>
        <time>2015-02-09T19:59:42.502Z</time>
      </trkpt>
      <trkpt lat="48.83645" lon="2.38847">
        <ele>91.5</ele>
        <time>2015-02-09T19:59:43.538Z</time>
      </trkpt>
      <trkpt lat="48.83645" lon="2.38857">
        <ele>91.4</ele>
        <time>2015-02-09T19:59:45.557Z</time>
      </trkpt>
      <trkpt lat="48.83647" lon="2.38863">
        <ele>91.3</ele>
        <time>2015-02-09T19:59:46.465Z</time>
      </trkpt>
      <trkpt lat="48.83667" lon="2.38889">
        <ele>91.1</ele>
        <time>2015-02-09T19:59:53.528Z</time>
      </trkpt>
      <trkpt lat="48.83673" lon="2.3889">
        <ele>91.1</ele>
        <time>2015-02-09T19:59:54.463Z</time>
      </trkpt>
      <trkpt lat="48.837" lon="2.38903">
        <ele>90</ele>
        <time>2015-02-09T19:59:58.539Z</time>
      </trkpt>
      <trkpt lat="48.83713" lon="2.38918">
        <ele>89.9</ele>
        <time>2015-02-09T20:00:01.514Z</time>
      </trkpt>
      <trkpt lat="48.83714" lon="2.38926">
        <ele>89.8</ele>
        <time>2015-02-09T20:00:03.531Z</time>
      </trkpt>
      <trkpt lat="48.83719" lon="2.38929">
        <ele>89.6</ele>
        <time>2015-02-09T20:00:04.551Z</time>
      </trkpt>
      <trkpt lat="48.83728" lon="2.38933">
        <ele>88.5</ele>
        <time>2015-02-09T20:00:05.561Z</time>
      </trkpt>
      <trkpt lat="48.83732" lon="2.3894">
        <ele>86.7</ele>
        <time>2015-02-09T20:00:06.482Z</time>
      </trkpt>
      <trkpt lat="48.83733" lon="2.3895">
        <ele>85.1</ele>
        <time>2015-02-09T20:00:07.501Z</time>
      </trkpt>
      <trkpt lat="48.83732" lon="2.3896">
        <ele>84.6</ele>
        <time>2015-02-09T20:00:08.493Z</time>
      </trkpt>
      <trkpt lat="48.83732" lon="2.38971">
        <ele>84.4</ele>
        <time>2015-02-09T20:00:09.507Z</time>
      </trkpt>
      <trkpt lat="48.83733" lon="2.38981">
        <ele>84.4</ele>
        <time>2015-02-09T20:00:10.521Z</time>
      </trkpt>
      <trkpt lat="48.83733" lon="2.38991">
        <ele>84.3</ele>
        <time>2015-02-09T20:00:11.548Z</time>
      </trkpt>
      <trkpt lat="48.83733" lon="2.39001">
        <ele>84.2</ele>
        <time>2015-02-09T20:00:13.423Z</time>
      </trkpt>
      <trkpt lat="48.83734" lon="2.3901">
        <ele>83.8</ele>
        <time>2015-02-09T20:00:13.568Z</time>
      </trkpt>
      <trkpt lat="48.83735" lon="2.39022">
        <ele>84</ele>
        <time>2015-02-09T20:00:15.496Z</time>
      </trkpt>
      <trkpt lat="48.83736" lon="2.39028">
        <ele>84.1</ele>
        <time>2015-02-09T20:00:16.522Z</time>
      </trkpt>
      <trkpt lat="48.83737" lon="2.3904">
        <ele>86</ele>
        <time>2015-02-09T20:00:18.560Z</time>
      </trkpt>
      <trkpt lat="48.83737" lon="2.39046">
        <ele>86.7</ele>
        <time>2015-02-09T20:00:19.578Z</time>
      </trkpt>
      <trkpt lat="48.83737" lon="2.39057">
        <ele>88.1</ele>
        <time>2015-02-09T20:00:21.495Z</time>
      </trkpt>
      <trkpt lat="48.83736" lon="2.39065">
        <ele>89.9</ele>
        <time>2015-02-09T20:00:22.499Z</time>
      </trkpt>
      <trkpt lat="48.83736" lon="2.39077">
        <ele>88.9</ele>
        <time>2015-02-09T20:00:24.551Z</time>
      </trkpt>
      <trkpt lat="48.83736" lon="2.39082">
        <ele>89.4</ele>
        <time>2015-02-09T20:00:25.576Z</time>
      </trkpt>
      <trkpt lat="48.83733" lon="2.39093">
        <ele>88.5</ele>
        <time>2015-02-09T20:00:27.980Z</time>
      </trkpt>
      <trkpt lat="48.83733" lon="2.39099">
        <ele>88.8</ele>
        <time>2015-02-09T20:00:28.509Z</time>
      </trkpt>
      <trkpt lat="48.83732" lon="2.39109">
        <ele>91.4</ele>
        <time>2015-02-09T20:00:38.606Z</time>
      </trkpt>
      <trkpt lat="48.83728" lon="2.39112">
        <ele>96.6</ele>
        <time>2015-02-09T20:00:39.482Z</time>
      </trkpt>
      <trkpt lat="48.83729" lon="2.39113">
        <ele>98</ele>
        <time>2015-02-09T20:00:55.558Z</time>
      </trkpt>
      <trkpt lat="48.83738" lon="2.39124">
        <ele>99.4</ele>
        <time>2015-02-09T20:00:56.550Z</time>
      </trkpt>
      <trkpt lat="48.83743" lon="2.39132">
        <ele>99.6</ele>
        <time>2015-02-09T20:00:58.493Z</time>
      </trkpt>
      <trkpt lat="48.83746" lon="2.39135">
        <ele>99.9</ele>
        <time>2015-02-09T20:00:59.525Z</time>
      </trkpt>
      <trkpt lat="48.83748" lon="2.39144">
        <ele>98</ele>
        <time>2015-02-09T20:01:08.546Z</time>
      </trkpt>
      <trkpt lat="48.83753" lon="2.39154">
        <ele>99.5</ele>
        <time>2015-02-09T20:01:09.474Z</time>
      </trkpt>
      <trkpt lat="48.83757" lon="2.39163">
        <ele>99.7</ele>
        <time>2015-02-09T20:01:11.651Z</time>
      </trkpt>
      <trkpt lat="48.83761" lon="2.39167">
        <ele>99.7</ele>
        <time>2015-02-09T20:01:12.488Z</time>
      </trkpt>
      <trkpt lat="48.83765" lon="2.3917">
        <ele>99.8</ele>
        <time>2015-02-09T20:01:13.605Z</time>
      </trkpt>
      <trkpt lat="48.8377" lon="2.39173">
        <ele>99.9</ele>
        <time>2015-02-09T20:01:14.521Z</time>
      </trkpt>
      <trkpt lat="48.83775" lon="2.39177">
        <ele>100.2</ele>
        <time>2015-02-09T20:01:15.542Z</time>
      </trkpt>
      <trkpt lat="48.83778" lon="2.39181">
        <ele>100.3</ele>
        <time>2015-02-09T20:01:16.554Z</time>
      </trkpt>
      <trkpt lat="48.83782" lon="2.39189">
        <ele>100.5</ele>
        <time>2015-02-09T20:01:18.699Z</time>
      </trkpt>
      <trkpt lat="48.83784" lon="2.39193">
        <ele>100.6</ele>
        <time>2015-02-09T20:01:19.568Z</time>
      </trkpt>
      <trkpt lat="48.83789" lon="2.39199">
        <ele>100.5</ele>
        <time>2015-02-09T20:01:21.510Z</time>
      </trkpt>
      <trkpt lat="48.83792" lon="2.39202">
        <ele>100.7</ele>
        <time>2015-02-09T20:01:22.621Z</time>
      </trkpt>
      <trkpt lat="48.83796" lon="2.39214">
        <ele>101.2</ele>
        <time>2015-02-09T20:01:25.545Z</time>
      </trkpt>
      <trkpt lat="48.83798" lon="2.39218">
        <ele>101.3</ele>
        <time>2015-02-09T20:01:26.552Z</time>
      </trkpt>
      <trkpt lat="48.83804" lon="2.39225">
        <ele>101.6</ele>
        <time>2015-02-09T20:01:28.587Z</time>
      </trkpt>
      <trkpt lat="48.83806" lon="2.39228">
        <ele>101.8</ele>
        <time>2015-02-09T20:01:29.496Z</time>
      </trkpt>
      <trkpt lat="48.83807" lon="2.3924">
        <ele>102.4</ele>
        <time>2015-02-09T20:01:33.482Z</time>
      </trkpt>
      <trkpt lat="48.83809" lon="2.39243">
        <ele>102.6</ele>
        <time>2015-02-09T20:01:34.600Z</time>
      </trkpt>
      <trkpt lat="48.83813" lon="2.39255">
        <ele>103</ele>
        <time>2015-02-09T20:01:38.081Z</time>
      </trkpt>
      <trkpt lat="48.83816" lon="2.39258">
        <ele>103.1</ele>
        <time>2015-02-09T20:01:38.534Z</time>
      </trkpt>
      <trkpt lat="48.8382" lon="2.39266">
        <ele>103.7</ele>
        <time>2015-02-09T20:01:40.563Z</time>
      </trkpt>
      <trkpt lat="48.83821" lon="2.39268">
        <ele>103.7</ele>
        <time>2015-02-09T20:01:41.526Z</time>
      </trkpt>
      <trkpt lat="48.83827" lon="2.39277">
        <ele>104.5</ele>
        <time>2015-02-09T20:01:43.554Z</time>
      </trkpt>
      <trkpt lat="48.8383" lon="2.39281">
        <ele>105</ele>
        <time>2015-02-09T20:01:44.450Z</time>
      </trkpt>
      <trkpt lat="48.83834" lon="2.39286">
        <ele>105.6</ele>
        <time>2015-02-09T20:01:46.502Z</time>
      </trkpt>
      <trkpt lat="48.83837" lon="2.39289">
        <ele>106</ele>
        <time>2015-02-09T20:01:47.612Z</time>
      </trkpt>
      <trkpt lat="48.83842" lon="2.39299">
        <ele>106.7</ele>
        <time>2015-02-09T20:01:50.510Z</time>
      </trkpt>
      <trkpt lat="48.83843" lon="2.39301">
        <ele>107.1</ele>
        <time>2015-02-09T20:01:51.523Z</time>
      </trkpt>
      <trkpt lat="48.83846" lon="2.39303">
        <ele>107.6</ele>
        <time>2015-02-09T20:02:38.573Z</time>
      </trkpt>
      <trkpt lat="48.83862" lon="2.39295">
        <ele>108</ele>
        <time>2015-02-09T20:02:39.494Z</time>
      </trkpt>
      <trkpt lat="48.83865" lon="2.3929">
        <ele>107.9</ele>
        <time>2015-02-09T20:02:41.539Z</time>
      </trkpt>
      <trkpt lat="48.83874" lon="2.3928">
        <ele>107.8</ele>
        <time>2015-02-09T20:02:45.508Z</time>
      </trkpt>
      <trkpt lat="48.83877" lon="2.39271">
        <ele>106.7</ele>
        <time>2015-02-09T20:02:48.579Z</time>
      </trkpt>
      <trkpt lat="48.83881" lon="2.3927">
        <ele>106.8</ele>
        <time>2015-02-09T20:02:49.504Z</time>
      </trkpt>
      <trkpt lat="48.83883" lon="2.39264">
        <ele>106.3</ele>
        <time>2015-02-09T20:02:51.524Z</time>
      </trkpt>
      <trkpt lat="48.83891" lon="2.39249">
        <ele>104.5</ele>
        <time>2015-02-09T20:02:56.525Z</time>
      </trkpt>
      <trkpt lat="48.83897" lon="2.39239">
        <ele>104.3</ele>
        <time>2015-02-09T20:03:00.495Z</time>
      </trkpt>
      <trkpt lat="48.83897" lon="2.39237">
        <ele>104.2</ele>
        <time>2015-02-09T20:03:01.502Z</time>
      </trkpt>
      <trkpt lat="48.83897" lon="2.39235">
        <ele>103.6</ele>
        <time>2015-02-09T20:03:56.571Z</time>
      </trkpt>
      <trkpt lat="48.83921" lon="2.39238">
        <ele>98.4</ele>
        <time>2015-02-09T20:03:57.452Z</time>
      </trkpt>
      <trkpt lat="48.83925" lon="2.39245">
        <ele>98.7</ele>
        <time>2015-02-09T20:03:59.510Z</time>
      </trkpt>
      <trkpt lat="48.83926" lon="2.39249">
        <ele>99</ele>
        <time>2015-02-09T20:04:00.539Z</time>
      </trkpt>
      <trkpt lat="48.8393" lon="2.39261">
        <ele>98.7</ele>
        <time>2015-02-09T20:04:03.903Z</time>
      </trkpt>
      <trkpt lat="48.83932" lon="2.39264">
        <ele>98.7</ele>
        <time>2015-02-09T20:04:04.532Z</time>
      </trkpt>
      <trkpt lat="48.83935" lon="2.39272">
        <ele>98.9</ele>
        <time>2015-02-09T20:04:06.472Z</time>
      </trkpt>
      <trkpt lat="48.83936" lon="2.39277">
        <ele>99</ele>
        <time>2015-02-09T20:04:07.573Z</time>
      </trkpt>
      <trkpt lat="48.83937" lon="2.39286">
        <ele>99.8</ele>
        <time>2015-02-09T20:04:09.536Z</time>
      </trkpt>
      <trkpt lat="48.8394" lon="2.3929">
        <ele>99.9</ele>
        <time>2015-02-09T20:04:10.481Z</time>
      </trkpt>
      <trkpt lat="48.83943" lon="2.39299">
        <ele>99.3</ele>
        <time>2015-02-09T20:04:12.501Z</time>
      </trkpt>
      <trkpt lat="48.83945" lon="2.39304">
        <ele>99.2</ele>
        <time>2015-02-09T20:04:13.531Z</time>
      </trkpt>
      <trkpt lat="48.83947" lon="2.39314">
        <ele>99.3</ele>
        <time>2015-02-09T20:04:15.476Z</time>
      </trkpt>
      <trkpt lat="48.83949" lon="2.39319">
        <ele>99.4</ele>
        <time>2015-02-09T20:04:16.480Z</time>
      </trkpt>
      <trkpt lat="48.8395" lon="2.3933">
        <ele>100</ele>
        <time>2015-02-09T20:04:19.209Z</time>
      </trkpt>
      <trkpt lat="48.83951" lon="2.39335">
        <ele>100.2</ele>
        <time>2015-02-09T20:04:19.550Z</time>
      </trkpt>
      <trkpt lat="48.83951" lon="2.39346">
        <ele>100.6</ele>
        <time>2015-02-09T20:04:21.583Z</time>
      </trkpt>
      <trkpt lat="48.83952" lon="2.39351">
        <ele>101</ele>
        <time>2015-02-09T20:04:22.485Z</time>
      </trkpt>
      <trkpt lat="48.83954" lon="2.39362">
        <ele>101.5</ele>
        <time>2015-02-09T20:04:24.500Z</time>
      </trkpt>
      <trkpt lat="48.83955" lon="2.39367">
        <ele>101.5</ele>
        <time>2015-02-09T20:04:25.500Z</time>
      </trkpt>
      <trkpt lat="48.83953" lon="2.39377">
        <ele>101.6</ele>
        <time>2015-02-09T20:04:28.190Z</time>
      </trkpt>
      <trkpt lat="48.83953" lon="2.39382">
        <ele>101.2</ele>
        <time>2015-02-09T20:04:28.569Z</time>
      </trkpt>
      <trkpt lat="48.83953" lon="2.39394">
        <ele>101.4</ele>
        <time>2015-02-09T20:04:31.549Z</time>
      </trkpt>
      <trkpt lat="48.83954" lon="2.39397">
        <ele>101.6</ele>
        <time>2015-02-09T20:04:32.630Z</time>
      </trkpt>
      <trkpt lat="48.83954" lon="2.39409">
        <ele>102.4</ele>
        <time>2015-02-09T20:04:36.530Z</time>
      </trkpt>
      <trkpt lat="48.83949" lon="2.39413">
        <ele>103.5</ele>
        <time>2015-02-09T20:04:37.547Z</time>
      </trkpt>
      <trkpt lat="48.83949" lon="2.39413">
        <ele>103.5</ele>
        <time>2015-02-09T20:05:23.542Z</time>
      </trkpt>
      <trkpt lat="48.83939" lon="2.39424">
        <ele>107.2</ele>
        <time>2015-02-09T20:05:24.562Z</time>
      </trkpt>
      <trkpt lat="48.83944" lon="2.39413">
        <ele>107.8</ele>
        <time>2015-02-09T20:05:46.496Z</time>
      </trkpt>
      <trkpt lat="48.83951" lon="2.39422">
        <ele>106.5</ele>
        <time>2015-02-09T20:05:47.506Z</time>
      </trkpt>
      <trkpt lat="48.83955" lon="2.39429">
        <ele>106.7</ele>
        <time>2015-02-09T20:05:49.558Z</time>
      </trkpt>
      <trkpt lat="48.83957" lon="2.39434">
        <ele>106.7</ele>
        <time>2015-02-09T20:05:50.581Z</time>
      </trkpt>
      <trkpt lat="48.83959" lon="2.39444">
        <ele>107.2</ele>
        <time>2015-02-09T20:05:53.240Z</time>
      </trkpt>
      <trkpt lat="48.83961" lon="2.39447">
        <ele>107.1</ele>
        <time>2015-02-09T20:05:53.580Z</time>
      </trkpt>
      <trkpt lat="48.83964" lon="2.39455">
        <ele>106.7</ele>
        <time>2015-02-09T20:05:55.559Z</time>
      </trkpt>
      <trkpt lat="48.83966" lon="2.39459">
        <ele>106.7</ele>
        <time>2015-02-09T20:05:56.452Z</time>
      </trkpt>
      <trkpt lat="48.83963" lon="2.39469">
        <ele>106.3</ele>
        <time>2015-02-09T20:05:59.516Z</time>
      </trkpt>
      <trkpt lat="48.83961" lon="2.39472">
        <ele>106.1</ele>
        <time>2015-02-09T20:06:00.548Z</time>
      </trkpt>
      <trkpt lat="48.83954" lon="2.39477">
        <ele>106.2</ele>
        <time>2015-02-09T20:06:02.487Z</time>
      </trkpt>
      <trkpt lat="48.83951" lon="2.39479">
        <ele>105.8</ele>
        <time>2015-02-09T20:06:03.562Z</time>
      </trkpt>
      <trkpt lat="48.83948" lon="2.39489">
        <ele>106</ele>
        <time>2015-02-09T20:06:07.613Z</time>
      </trkpt>
      <trkpt lat="48.83947" lon="2.39493">
        <ele>105.7</ele>
        <time>2015-02-09T20:06:08.537Z</time>
      </trkpt>
      <trkpt lat="48.83947" lon="2.39505">
        <ele>105.5</ele>
        <time>2015-02-09T20:06:11.535Z</time>
      </trkpt>
      <trkpt lat="48.83949" lon="2.39508">
        <ele>105.4</ele>
        <time>2015-02-09T20:06:12.557Z</time>
      </trkpt>
      <trkpt lat="48.83954" lon="2.39518">
        <ele>104.4</ele>
        <time>2015-02-09T20:06:15.578Z</time>
      </trkpt>
      <trkpt lat="48.83954" lon="2.39523">
        <ele>104.1</ele>
        <time>2015-02-09T20:06:16.597Z</time>
      </trkpt>
      <trkpt lat="48.83952" lon="2.39533">
        <ele>103.4</ele>
        <time>2015-02-09T20:06:19.026Z</time>
      </trkpt>
      <trkpt lat="48.83951" lon="2.39538">
        <ele>103.1</ele>
        <time>2015-02-09T20:06:19.537Z</time>
      </trkpt>
      <trkpt lat="48.83949" lon="2.39548">
        <ele>102.4</ele>
        <time>2015-02-09T20:06:21.544Z</time>
      </trkpt>
      <trkpt lat="48.83948" lon="2.39553">
        <ele>102.4</ele>
        <time>2015-02-09T20:06:22.556Z</time>
      </trkpt>
      <trkpt lat="48.83947" lon="2.39564">
        <ele>102.4</ele>
        <time>2015-02-09T20:06:24.487Z</time>
      </trkpt>
      <trkpt lat="48.83947" lon="2.39569">
        <ele>101.9</ele>
        <time>2015-02-09T20:06:25.538Z</time>
      </trkpt>
      <trkpt lat="48.83947" lon="2.39579">
        <ele>101.5</ele>
        <time>2015-02-09T20:06:28.250Z</time>
      </trkpt>
      <trkpt lat="48.83947" lon="2.39585">
        <ele>101.3</ele>
        <time>2015-02-09T20:06:28.578Z</time>
      </trkpt>
      <trkpt lat="48.8395" lon="2.39596">
        <ele>101.3</ele>
        <time>2015-02-09T20:06:30.550Z</time>
      </trkpt>
      <trkpt lat="48.83952" lon="2.39602">
        <ele>101.8</ele>
        <time>2015-02-09T20:06:31.569Z</time>
      </trkpt>
      <trkpt lat="48.83957" lon="2.39607">
        <ele>101.6</ele>
        <time>2015-02-09T20:06:33.520Z</time>
      </trkpt>
      <trkpt lat="48.83961" lon="2.39608">
        <ele>101.5</ele>
        <time>2015-02-09T20:06:34.530Z</time>
      </trkpt>
      <trkpt lat="48.83967" lon="2.39608">
        <ele>100.9</ele>
        <time>2015-02-09T20:06:36.568Z</time>
      </trkpt>
      <trkpt lat="48.83971" lon="2.39607">
        <ele>100.4</ele>
        <time>2015-02-09T20:06:37.595Z</time>
      </trkpt>
      <trkpt lat="48.83976" lon="2.39597">
        <ele>99</ele>
        <time>2015-02-09T20:06:40.514Z</time>
      </trkpt>
      <trkpt lat="48.83977" lon="2.39592">
        <ele>98.5</ele>
        <time>2015-02-09T20:06:41.542Z</time>
      </trkpt>
      <trkpt lat="48.83978" lon="2.39585">
        <ele>97.8</ele>
        <time>2015-02-09T20:06:43.552Z</time>
      </trkpt>
      <trkpt lat="48.83978" lon="2.39575">
        <ele>97.2</ele>
        <time>2015-02-09T20:06:44.487Z</time>
      </trkpt>
      <trkpt lat="48.83971" lon="2.39567">
        <ele>97.4</ele>
        <time>2015-02-09T20:06:46.526Z</time>
      </trkpt>
      <trkpt lat="48.8397" lon="2.39565">
        <ele>97.5</ele>
        <time>2015-02-09T20:06:47.533Z</time>
      </trkpt>
      <trkpt lat="48.83965" lon="2.39563">
        <ele>97.7</ele>
        <time>2015-02-09T20:06:48.678Z</time>
      </trkpt>
      <trkpt lat="48.83961" lon="2.39562">
        <ele>97.8</ele>
        <time>2015-02-09T20:06:49.582Z</time>
      </trkpt>
      <trkpt lat="48.83952" lon="2.39565">
        <ele>98</ele>
        <time>2015-02-09T20:06:51.478Z</time>
      </trkpt>
      <trkpt lat="48.83951" lon="2.39568">
        <ele>98.2</ele>
        <time>2015-02-09T20:06:52.608Z</time>
      </trkpt>
      <trkpt lat="48.83947" lon="2.39576">
        <ele>98.3</ele>
        <time>2015-02-09T20:06:54.480Z</time>
      </trkpt>
      <trkpt lat="48.83945" lon="2.39579">
        <ele>98.3</ele>
        <time>2015-02-09T20:06:55.611Z</time>
      </trkpt>
      <trkpt lat="48.83939" lon="2.39584">
        <ele>98.6</ele>
        <time>2015-02-09T20:06:57.487Z</time>
      </trkpt>
      <trkpt lat="48.83935" lon="2.39586">
        <ele>98.8</ele>
        <time>2015-02-09T20:06:58.516Z</time>
      </trkpt>
      <trkpt lat="48.83929" lon="2.3959">
        <ele>99</ele>
        <time>2015-02-09T20:07:00.527Z</time>
      </trkpt>
      <trkpt lat="48.83925" lon="2.39591">
        <ele>99.2</ele>
        <time>2015-02-09T20:07:01.556Z</time>
      </trkpt>
      <trkpt lat="48.83918" lon="2.39594">
        <ele>100</ele>
        <time>2015-02-09T20:07:03.859Z</time>
      </trkpt>
      <trkpt lat="48.83915" lon="2.39596">
        <ele>100.3</ele>
        <time>2015-02-09T20:07:04.504Z</time>
      </trkpt>
      <trkpt lat="48.83908" lon="2.39596">
        <ele>101.2</ele>
        <time>2015-02-09T20:07:06.518Z</time>
      </trkpt>
      <trkpt lat="48.83905" lon="2.39597">
        <ele>101.5</ele>
        <time>2015-02-09T20:07:07.547Z</time>
      </trkpt>
      <trkpt lat="48.839" lon="2.396">
        <ele>102</ele>
        <time>2015-02-09T20:07:09.489Z</time>
      </trkpt>
      <trkpt lat="48.83895" lon="2.39602">
        <ele>102.1</ele>
        <time>2015-02-09T20:07:10.509Z</time>
      </trkpt>
      <trkpt lat="48.83888" lon="2.39605">
        <ele>102.6</ele>
        <time>2015-02-09T20:07:12.579Z</time>
      </trkpt>
      <trkpt lat="48.83885" lon="2.39608">
        <ele>102.9</ele>
        <time>2015-02-09T20:07:13.596Z</time>
      </trkpt>
      <trkpt lat="48.83876" lon="2.39612">
        <ele>103.1</ele>
        <time>2015-02-09T20:07:15.485Z</time>
      </trkpt>
      <trkpt lat="48.83868" lon="2.39613">
        <ele>103.8</ele>
        <time>2015-02-09T20:07:18.115Z</time>
      </trkpt>
      <trkpt lat="48.83866" lon="2.39615">
        <ele>104.2</ele>
        <time>2015-02-09T20:07:18.487Z</time>
      </trkpt>
      <trkpt lat="48.83862" lon="2.39621">
        <ele>104.4</ele>
        <time>2015-02-09T20:07:20.543Z</time>
      </trkpt>
      <trkpt lat="48.83859" lon="2.39625">
        <ele>104.3</ele>
        <time>2015-02-09T20:07:21.680Z</time>
      </trkpt>
      <trkpt lat="48.83858" lon="2.39629">
        <ele>104.4</ele>
        <time>2015-02-09T20:07:22.997Z</time>
      </trkpt>
      <trkpt lat="48.83833" lon="2.39649">
        <ele>104.4</ele>
        <time>2015-02-09T20:07:30.453Z</time>
      </trkpt>
      <trkpt lat="48.83827" lon="2.39657">
        <ele>104.3</ele>
        <time>2015-02-09T20:07:33.086Z</time>
      </trkpt>
      <trkpt lat="48.83824" lon="2.3966">
        <ele>104.2</ele>
        <time>2015-02-09T20:07:33.537Z</time>
      </trkpt>
      <trkpt lat="48.83817" lon="2.39666">
        <ele>104.6</ele>
        <time>2015-02-09T20:07:35.634Z</time>
      </trkpt>
      <trkpt lat="48.83814" lon="2.39668">
        <ele>104.8</ele>
        <time>2015-02-09T20:07:36.482Z</time>
      </trkpt>
      <trkpt lat="48.83807" lon="2.39671">
        <ele>105.6</ele>
        <time>2015-02-09T20:07:38.521Z</time>
      </trkpt>
      <trkpt lat="48.83803" lon="2.39671">
        <ele>105.9</ele>
        <time>2015-02-09T20:07:39.529Z</time>
      </trkpt>
      <trkpt lat="48.83796" lon="2.39675">
        <ele>106.6</ele>
        <time>2015-02-09T20:07:41.564Z</time>
      </trkpt>
      <trkpt lat="48.83792" lon="2.39677">
        <ele>106.9</ele>
        <time>2015-02-09T20:07:42.581Z</time>
      </trkpt>
      <trkpt lat="48.83786" lon="2.39678">
        <ele>107.4</ele>
        <time>2015-02-09T20:07:43.491Z</time>
      </trkpt>
      <trkpt lat="48.83781" lon="2.39677">
        <ele>107.8</ele>
        <time>2015-02-09T20:07:44.508Z</time>
      </trkpt>
      <trkpt lat="48.83773" lon="2.39681">
        <ele>108.6</ele>
        <time>2015-02-09T20:07:46.546Z</time>
      </trkpt>
      <trkpt lat="48.8377" lon="2.39683">
        <ele>108.6</ele>
        <time>2015-02-09T20:07:47.483Z</time>
      </trkpt>
      <trkpt lat="48.83765" lon="2.39688">
        <ele>108.2</ele>
        <time>2015-02-09T20:07:50.208Z</time>
      </trkpt>
      <trkpt lat="48.8377" lon="2.39699">
        <ele>105.8</ele>
        <time>2015-02-09T20:07:50.470Z</time>
      </trkpt>
      <trkpt lat="48.83767" lon="2.39708">
        <ele>104.8</ele>
        <time>2015-02-09T20:07:52.485Z</time>
      </trkpt>
      <trkpt lat="48.83763" lon="2.3971">
        <ele>104.9</ele>
        <time>2015-02-09T20:07:53.496Z</time>
      </trkpt>
      <trkpt lat="48.83758" lon="2.39711">
        <ele>105.2</ele>
        <time>2015-02-09T20:07:54.519Z</time>
      </trkpt>
      <trkpt lat="48.83753" lon="2.39713">
        <ele>105.3</ele>
        <time>2015-02-09T20:07:55.527Z</time>
      </trkpt>
      <trkpt lat="48.83746" lon="2.39717">
        <ele>105.6</ele>
        <time>2015-02-09T20:07:57.483Z</time>
      </trkpt>
      <trkpt lat="48.83743" lon="2.39719">
        <ele>105.6</ele>
        <time>2015-02-09T20:07:58.496Z</time>
      </trkpt>
      <trkpt lat="48.83736" lon="2.39725">
        <ele>105.7</ele>
        <time>2015-02-09T20:08:00.521Z</time>
      </trkpt>
      <trkpt lat="48.83734" lon="2.39729">
        <ele>105.7</ele>
        <time>2015-02-09T20:08:01.558Z</time>
      </trkpt>
      <trkpt lat="48.83727" lon="2.39736">
        <ele>105</ele>
        <time>2015-02-09T20:08:03.479Z</time>
      </trkpt>
      <trkpt lat="48.83725" lon="2.3974">
        <ele>105</ele>
        <time>2015-02-09T20:08:04.555Z</time>
      </trkpt>
      <trkpt lat="48.83721" lon="2.39748">
        <ele>105.2</ele>
        <time>2015-02-09T20:08:06.471Z</time>
      </trkpt>
      <trkpt lat="48.8372" lon="2.39753">
        <ele>105</ele>
        <time>2015-02-09T20:08:07.515Z</time>
      </trkpt>
      <trkpt lat="48.83716" lon="2.39764">
        <ele>104.9</ele>
        <time>2015-02-09T20:08:09.468Z</time>
      </trkpt>
      <trkpt lat="48.83715" lon="2.3977">
        <ele>105.1</ele>
        <time>2015-02-09T20:08:10.487Z</time>
      </trkpt>
      <trkpt lat="48.83712" lon="2.3978">
        <ele>105.3</ele>
        <time>2015-02-09T20:08:12.544Z</time>
      </trkpt>
      <trkpt lat="48.83709" lon="2.39784">
        <ele>105.2</ele>
        <time>2015-02-09T20:08:13.566Z</time>
      </trkpt>
      <trkpt lat="48.83704" lon="2.39793">
        <ele>105.3</ele>
        <time>2015-02-09T20:08:15.503Z</time>
      </trkpt>
      <trkpt lat="48.83701" lon="2.39797">
        <ele>105.2</ele>
        <time>2015-02-09T20:08:16.513Z</time>
      </trkpt>
      <trkpt lat="48.83696" lon="2.39802">
        <ele>105.1</ele>
        <time>2015-02-09T20:08:17.532Z</time>
      </trkpt>
      <trkpt lat="48.83692" lon="2.39808">
        <ele>105.1</ele>
        <time>2015-02-09T20:08:18.539Z</time>
      </trkpt>
      <trkpt lat="48.83686" lon="2.39812">
        <ele>105.3</ele>
        <time>2015-02-09T20:08:19.604Z</time>
      </trkpt>
      <trkpt lat="48.83681" lon="2.39816">
        <ele>105.6</ele>
        <time>2015-02-09T20:08:20.485Z</time>
      </trkpt>
      <trkpt lat="48.83676" lon="2.3982">
        <ele>105.7</ele>
        <time>2015-02-09T20:08:21.532Z</time>
      </trkpt>
      <trkpt lat="48.83671" lon="2.39824">
        <ele>105.8</ele>
        <time>2015-02-09T20:08:22.545Z</time>
      </trkpt>
      <trkpt lat="48.83666" lon="2.39829">
        <ele>106</ele>
        <time>2015-02-09T20:08:23.549Z</time>
      </trkpt>
      <trkpt lat="48.83661" lon="2.39833">
        <ele>106.1</ele>
        <time>2015-02-09T20:08:24.555Z</time>
      </trkpt>
      <trkpt lat="48.83657" lon="2.39835">
        <ele>106.2</ele>
        <time>2015-02-09T20:08:25.559Z</time>
      </trkpt>
      <trkpt lat="48.83652" lon="2.39838">
        <ele>106.4</ele>
        <time>2015-02-09T20:08:26.566Z</time>
      </trkpt>
      <trkpt lat="48.83648" lon="2.39843">
        <ele>106.5</ele>
        <time>2015-02-09T20:08:27.483Z</time>
      </trkpt>
      <trkpt lat="48.83645" lon="2.39848">
        <ele>106.6</ele>
        <time>2015-02-09T20:08:28.496Z</time>
      </trkpt>
      <trkpt lat="48.8364" lon="2.39853">
        <ele>106.6</ele>
        <time>2015-02-09T20:08:29.592Z</time>
      </trkpt>
      <trkpt lat="48.83635" lon="2.39858">
        <ele>106.7</ele>
        <time>2015-02-09T20:08:30.492Z</time>
      </trkpt>
      <trkpt lat="48.83632" lon="2.39864">
        <ele>106.8</ele>
        <time>2015-02-09T20:08:31.547Z</time>
      </trkpt>
      <trkpt lat="48.83628" lon="2.39869">
        <ele>106.9</ele>
        <time>2015-02-09T20:08:32.561Z</time>
      </trkpt>
      <trkpt lat="48.83621" lon="2.39878">
        <ele>107</ele>
        <time>2015-02-09T20:08:34.490Z</time>
      </trkpt>
      <trkpt lat="48.83615" lon="2.3988">
        <ele>106.9</ele>
        <time>2015-02-09T20:08:35.522Z</time>
      </trkpt>
      <trkpt lat="48.8361" lon="2.39882">
        <ele>106.8</ele>
        <time>2015-02-09T20:08:36.551Z</time>
      </trkpt>
      <trkpt lat="48.83606" lon="2.39886">
        <ele>107</ele>
        <time>2015-02-09T20:08:37.555Z</time>
      </trkpt>
      <trkpt lat="48.83602" lon="2.3989">
        <ele>106.9</ele>
        <time>2015-02-09T20:08:38.468Z</time>
      </trkpt>
      <trkpt lat="48.83595" lon="2.39901">
        <ele>107</ele>
        <time>2015-02-09T20:08:40.468Z</time>
      </trkpt>
      <trkpt lat="48.83588" lon="2.39912">
        <ele>106.8</ele>
        <time>2015-02-09T20:08:42.551Z</time>
      </trkpt>
      <trkpt lat="48.83504" lon="2.40015">
        <ele>107.7</ele>
        <time>2015-02-09T20:09:03.483Z</time>
      </trkpt>
      <trkpt lat="48.83497" lon="2.40017">
        <ele>107.6</ele>
        <time>2015-02-09T20:09:04.484Z</time>
      </trkpt>
      <trkpt lat="48.83491" lon="2.40021">
        <ele>107.6</ele>
        <time>2015-02-09T20:09:05.489Z</time>
      </trkpt>
      <trkpt lat="48.83487" lon="2.40024">
        <ele>107.5</ele>
        <time>2015-02-09T20:09:06.507Z</time>
      </trkpt>
      <trkpt lat="48.83482" lon="2.40029">
        <ele>108</ele>
        <time>2015-02-09T20:09:08.556Z</time>
      </trkpt>
      <trkpt lat="48.83476" lon="2.40037">
        <ele>107.8</ele>
        <time>2015-02-09T20:09:11.469Z</time>
      </trkpt>
      <trkpt lat="48.83474" lon="2.40041">
        <ele>107.5</ele>
        <time>2015-02-09T20:09:12.477Z</time>
      </trkpt>
      <trkpt lat="48.83472" lon="2.4005">
        <ele>105.4</ele>
        <time>2015-02-09T20:09:14.502Z</time>
      </trkpt>
      <trkpt lat="48.83472" lon="2.40054">
        <ele>104.1</ele>
        <time>2015-02-09T20:09:15.529Z</time>
      </trkpt>
      <trkpt lat="48.83468" lon="2.40065">
        <ele>102.5</ele>
        <time>2015-02-09T20:09:19.501Z</time>
      </trkpt>
      <trkpt lat="48.83468" lon="2.40067">
        <ele>102.2</ele>
        <time>2015-02-09T20:09:20.500Z</time>
      </trkpt>
      <trkpt lat="48.83461" lon="2.4007">
        <ele>104.5</ele>
        <time>2015-02-09T20:09:25.559Z</time>
      </trkpt>
      <trkpt lat="48.83461" lon="2.4007">
        <ele>104.5</ele>
        <time>2015-02-09T20:09:26.480Z</time>
      </trkpt>
      <trkpt lat="48.83462" lon="2.4007">
        <ele>104.6</ele>
        <time>2015-02-09T20:10:03.490Z</time>
      </trkpt>
      <trkpt lat="48.8347" lon="2.40057">
        <ele>104.9</ele>
        <time>2015-02-09T20:10:04.497Z</time>
      </trkpt>
      <trkpt lat="48.83472" lon="2.40047">
        <ele>104.5</ele>
        <time>2015-02-09T20:10:08.557Z</time>
      </trkpt>
      <trkpt lat="48.83474" lon="2.40043">
        <ele>104.2</ele>
        <time>2015-02-09T20:10:09.453Z</time>
      </trkpt>
      <trkpt lat="48.83475" lon="2.40033">
        <ele>103.2</ele>
        <time>2015-02-09T20:10:12.551Z</time>
      </trkpt>
      <trkpt lat="48.83475" lon="2.40029">
        <ele>102.7</ele>
        <time>2015-02-09T20:10:13.577Z</time>
      </trkpt>
      <trkpt lat="48.83478" lon="2.4002">
        <ele>101.7</ele>
        <time>2015-02-09T20:10:15.479Z</time>
      </trkpt>
      <trkpt lat="48.8348" lon="2.40016">
        <ele>101.2</ele>
        <time>2015-02-09T20:10:16.527Z</time>
      </trkpt>
      <trkpt lat="48.83485" lon="2.40005">
        <ele>100.4</ele>
        <time>2015-02-09T20:10:18.477Z</time>
      </trkpt>
      <trkpt lat="48.83487" lon="2.4">
        <ele>100</ele>
        <time>2015-02-09T20:10:19.581Z</time>
      </trkpt>
      <trkpt lat="48.83492" lon="2.39991">
        <ele>99.4</ele>
        <time>2015-02-09T20:10:21.544Z</time>
      </trkpt>
      <trkpt lat="48.83494" lon="2.39986">
        <ele>99.2</ele>
        <time>2015-02-09T20:10:22.475Z</time>
      </trkpt>
      <trkpt lat="48.83496" lon="2.39979">
        <ele>98.8</ele>
        <time>2015-02-09T20:10:23.501Z</time>
      </trkpt>
      <trkpt lat="48.83498" lon="2.39973">
        <ele>98.5</ele>
        <time>2015-02-09T20:10:24.516Z</time>
      </trkpt>
      <trkpt lat="48.83501" lon="2.39966">
        <ele>98.3</ele>
        <time>2015-02-09T20:10:25.508Z</time>
      </trkpt>
      <trkpt lat="48.83504" lon="2.39959">
        <ele>98.2</ele>
        <time>2015-02-09T20:10:26.519Z</time>
      </trkpt>
      <trkpt lat="48.83505" lon="2.39952">
        <ele>98.1</ele>
        <time>2015-02-09T20:10:27.475Z</time>
      </trkpt>
      <trkpt lat="48.83507" lon="2.39945">
        <ele>98</ele>
        <time>2015-02-09T20:10:28.480Z</time>
      </trkpt>
      <trkpt lat="48.83509" lon="2.39937">
        <ele>98</ele>
        <time>2015-02-09T20:10:29.484Z</time>
      </trkpt>
      <trkpt lat="48.8351" lon="2.3993">
        <ele>97.9</ele>
        <time>2015-02-09T20:10:30.486Z</time>
      </trkpt>
      <trkpt lat="48.83511" lon="2.39922">
        <ele>97.6</ele>
        <time>2015-02-09T20:10:31.501Z</time>
      </trkpt>
      <trkpt lat="48.83513" lon="2.39915">
        <ele>97.5</ele>
        <time>2015-02-09T20:10:32.508Z</time>
      </trkpt>
      <trkpt lat="48.83513" lon="2.39908">
        <ele>97.2</ele>
        <time>2015-02-09T20:10:33.518Z</time>
      </trkpt>
      <trkpt lat="48.83514" lon="2.39901">
        <ele>96.8</ele>
        <time>2015-02-09T20:10:34.528Z</time>
      </trkpt>
      <trkpt lat="48.83516" lon="2.39894">
        <ele>96.8</ele>
        <time>2015-02-09T20:10:35.539Z</time>
      </trkpt>
      <trkpt lat="48.83517" lon="2.39887">
        <ele>96.6</ele>
        <time>2015-02-09T20:10:36.585Z</time>
      </trkpt>
      <trkpt lat="48.83518" lon="2.39874">
        <ele>96</ele>
        <time>2015-02-09T20:10:39.515Z</time>
      </trkpt>
      <trkpt lat="48.83503" lon="2.39855">
        <ele>95.4</ele>
        <time>2015-02-09T20:10:45.469Z</time>
      </trkpt>
      <trkpt lat="48.83498" lon="2.39851">
        <ele>95.3</ele>
        <time>2015-02-09T20:10:47.479Z</time>
      </trkpt>
      <trkpt lat="48.83482" lon="2.39836">
        <ele>94.8</ele>
        <time>2015-02-09T20:10:50.543Z</time>
      </trkpt>
      <trkpt lat="48.83475" lon="2.39829">
        <ele>94.9</ele>
        <time>2015-02-09T20:10:52.471Z</time>
      </trkpt>
      <trkpt lat="48.83471" lon="2.39824">
        <ele>95</ele>
        <time>2015-02-09T20:10:53.476Z</time>
      </trkpt>
      <trkpt lat="48.83467" lon="2.3982">
        <ele>95.2</ele>
        <time>2015-02-09T20:10:54.552Z</time>
      </trkpt>
      <trkpt lat="48.83462" lon="2.39815">
        <ele>95.4</ele>
        <time>2015-02-09T20:10:55.573Z</time>
      </trkpt>
      <trkpt lat="48.83456" lon="2.39808">
        <ele>95.8</ele>
        <time>2015-02-09T20:10:57.462Z</time>
      </trkpt>
      <trkpt lat="48.83454" lon="2.39805">
        <ele>95.9</ele>
        <time>2015-02-09T20:10:58.475Z</time>
      </trkpt>
      <trkpt lat="48.8345" lon="2.39801">
        <ele>96.7</ele>
        <time>2015-02-09T20:10:59.495Z</time>
      </trkpt>
      <trkpt lat="48.83447" lon="2.39796">
        <ele>97.6</ele>
        <time>2015-02-09T20:11:00.518Z</time>
      </trkpt>
      <trkpt lat="48.8344" lon="2.39793">
        <ele>98.9</ele>
        <time>2015-02-09T20:11:01.559Z</time>
      </trkpt>
      <trkpt lat="48.83436" lon="2.3979">
        <ele>99.9</ele>
        <time>2015-02-09T20:11:02.471Z</time>
      </trkpt>
      <trkpt lat="48.83432" lon="2.39786">
        <ele>99.9</ele>
        <time>2015-02-09T20:11:03.453Z</time>
      </trkpt>
      <trkpt lat="48.83428" lon="2.39783">
        <ele>100.3</ele>
        <time>2015-02-09T20:11:04.456Z</time>
      </trkpt>
      <trkpt lat="48.83424" lon="2.39774">
        <ele>101.1</ele>
        <time>2015-02-09T20:11:08.563Z</time>
      </trkpt>
      <trkpt lat="48.83423" lon="2.39771">
        <ele>101.3</ele>
        <time>2015-02-09T20:11:09.473Z</time>
      </trkpt>
      <trkpt lat="48.83422" lon="2.39758">
        <ele>101.1</ele>
        <time>2015-02-09T20:11:12.500Z</time>
      </trkpt>
      <trkpt lat="48.83424" lon="2.39755">
        <ele>101.4</ele>
        <time>2015-02-09T20:11:13.507Z</time>
      </trkpt>
      <trkpt lat="48.83428" lon="2.39745">
        <ele>102.1</ele>
        <time>2015-02-09T20:11:16.532Z</time>
      </trkpt>
      <trkpt lat="48.83429" lon="2.39742">
        <ele>102.4</ele>
        <time>2015-02-09T20:11:17.486Z</time>
      </trkpt>
      <trkpt lat="48.83433" lon="2.39732">
        <ele>103.9</ele>
        <time>2015-02-09T20:11:21.227Z</time>
      </trkpt>
      <trkpt lat="48.83436" lon="2.39728">
        <ele>104.4</ele>
        <time>2015-02-09T20:11:21.446Z</time>
      </trkpt>
      <trkpt lat="48.83441" lon="2.39722">
        <ele>105.4</ele>
        <time>2015-02-09T20:11:23.472Z</time>
      </trkpt>
      <trkpt lat="48.83444" lon="2.39719">
        <ele>105.8</ele>
        <time>2015-02-09T20:11:24.512Z</time>
      </trkpt>
      <trkpt lat="48.83447" lon="2.3971">
        <ele>106.6</ele>
        <time>2015-02-09T20:11:26.459Z</time>
      </trkpt>
      <trkpt lat="48.83449" lon="2.39707">
        <ele>106.8</ele>
        <time>2015-02-09T20:11:27.532Z</time>
      </trkpt>
      <trkpt lat="48.83454" lon="2.39702">
        <ele>107.3</ele>
        <time>2015-02-09T20:11:29.460Z</time>
      </trkpt>
      <trkpt lat="48.83457" lon="2.397">
        <ele>107</ele>
        <time>2015-02-09T20:11:30.489Z</time>
      </trkpt>
      <trkpt lat="48.83463" lon="2.39693">
        <ele>107.2</ele>
        <time>2015-02-09T20:11:33.458Z</time>
      </trkpt>
      <trkpt lat="48.83463" lon="2.3969">
        <ele>106.7</ele>
        <time>2015-02-09T20:11:34.466Z</time>
      </trkpt>
      <trkpt lat="48.83461" lon="2.39677">
        <ele>106</ele>
        <time>2015-02-09T20:11:45.595Z</time>
      </trkpt>
      <trkpt lat="48.83463" lon="2.39673">
        <ele>106.2</ele>
        <time>2015-02-09T20:11:46.537Z</time>
      </trkpt>
      <trkpt lat="48.83469" lon="2.39664">
        <ele>105.2</ele>
        <time>2015-02-09T20:11:48.450Z</time>
      </trkpt>
      <trkpt lat="48.83472" lon="2.3966">
        <ele>105.4</ele>
        <time>2015-02-09T20:11:49.588Z</time>
      </trkpt>
      <trkpt lat="48.83477" lon="2.39655">
        <ele>105.3</ele>
        <time>2015-02-09T20:11:51.119Z</time>
      </trkpt>
      <trkpt lat="48.83479" lon="2.3965">
        <ele>105.5</ele>
        <time>2015-02-09T20:11:51.462Z</time>
      </trkpt>
      <trkpt lat="48.83481" lon="2.3964">
        <ele>105.6</ele>
        <time>2015-02-09T20:11:53.520Z</time>
      </trkpt>
      <trkpt lat="48.83481" lon="2.39633">
        <ele>105.5</ele>
        <time>2015-02-09T20:11:54.514Z</time>
      </trkpt>
      <trkpt lat="48.83486" lon="2.39621">
        <ele>105.3</ele>
        <time>2015-02-09T20:11:56.417Z</time>
      </trkpt>
      <trkpt lat="48.83488" lon="2.39616">
        <ele>105.2</ele>
        <time>2015-02-09T20:11:57.417Z</time>
      </trkpt>
      <trkpt lat="48.83491" lon="2.39605">
        <ele>104.6</ele>
        <time>2015-02-09T20:11:59.441Z</time>
      </trkpt>
      <trkpt lat="48.83492" lon="2.396">
        <ele>104.3</ele>
        <time>2015-02-09T20:12:00.529Z</time>
      </trkpt>
      <trkpt lat="48.83495" lon="2.39596">
        <ele>104</ele>
        <time>2015-02-09T20:12:01.531Z</time>
      </trkpt>
      <trkpt lat="48.83504" lon="2.39583">
        <ele>104.1</ele>
        <time>2015-02-09T20:12:04.489Z</time>
      </trkpt>
      <trkpt lat="48.83508" lon="2.39578">
        <ele>104.1</ele>
        <time>2015-02-09T20:12:05.458Z</time>
      </trkpt>
      <trkpt lat="48.83512" lon="2.39575">
        <ele>104.3</ele>
        <time>2015-02-09T20:12:06.457Z</time>
      </trkpt>
      <trkpt lat="48.83518" lon="2.39566">
        <ele>104.4</ele>
        <time>2015-02-09T20:12:08.901Z</time>
      </trkpt>
      <trkpt lat="48.83521" lon="2.39561">
        <ele>104.6</ele>
        <time>2015-02-09T20:12:09.509Z</time>
      </trkpt>
      <trkpt lat="48.83528" lon="2.39553">
        <ele>104.6</ele>
        <time>2015-02-09T20:12:11.538Z</time>
      </trkpt>
      <trkpt lat="48.83532" lon="2.39549">
        <ele>104.5</ele>
        <time>2015-02-09T20:12:12.547Z</time>
      </trkpt>
      <trkpt lat="48.83536" lon="2.39544">
        <ele>104.5</ele>
        <time>2015-02-09T20:12:14.034Z</time>
      </trkpt>
      <trkpt lat="48.8354" lon="2.39539">
        <ele>104.3</ele>
        <time>2015-02-09T20:12:14.572Z</time>
      </trkpt>
      <trkpt lat="48.83542" lon="2.39533">
        <ele>104.6</ele>
        <time>2015-02-09T20:12:15.481Z</time>
      </trkpt>
      <trkpt lat="48.83546" lon="2.39527">
        <ele>105</ele>
        <time>2015-02-09T20:12:16.482Z</time>
      </trkpt>
      <trkpt lat="48.83549" lon="2.39521">
        <ele>105.3</ele>
        <time>2015-02-09T20:12:17.828Z</time>
      </trkpt>
      <trkpt lat="48.83551" lon="2.39515">
        <ele>105.7</ele>
        <time>2015-02-09T20:12:18.481Z</time>
      </trkpt>
      <trkpt lat="48.83556" lon="2.39504">
        <ele>106.5</ele>
        <time>2015-02-09T20:12:20.501Z</time>
      </trkpt>
      <trkpt lat="48.8356" lon="2.395">
        <ele>106.9</ele>
        <time>2015-02-09T20:12:21.530Z</time>
      </trkpt>
      <trkpt lat="48.83564" lon="2.39495">
        <ele>107.3</ele>
        <time>2015-02-09T20:12:22.992Z</time>
      </trkpt>
      <trkpt lat="48.83568" lon="2.39488">
        <ele>107.7</ele>
        <time>2015-02-09T20:12:23.563Z</time>
      </trkpt>
      <trkpt lat="48.83571" lon="2.39476">
        <ele>108</ele>
        <time>2015-02-09T20:12:25.509Z</time>
      </trkpt>
      <trkpt lat="48.83574" lon="2.39471">
        <ele>108</ele>
        <time>2015-02-09T20:12:26.512Z</time>
      </trkpt>
      <trkpt lat="48.83577" lon="2.39464">
        <ele>108.2</ele>
        <time>2015-02-09T20:12:28.042Z</time>
      </trkpt>
      <trkpt lat="48.8358" lon="2.39458">
        <ele>108.3</ele>
        <time>2015-02-09T20:12:28.473Z</time>
      </trkpt>
      <trkpt lat="48.83586" lon="2.39448">
        <ele>108.5</ele>
        <time>2015-02-09T20:12:30.467Z</time>
      </trkpt>
      <trkpt lat="48.83589" lon="2.39445">
        <ele>108.4</ele>
        <time>2015-02-09T20:12:31.492Z</time>
      </trkpt>
      <trkpt lat="48.83593" lon="2.39436">
        <ele>108.8</ele>
        <time>2015-02-09T20:12:33.459Z</time>
      </trkpt>
      <trkpt lat="48.83592" lon="2.39431">
        <ele>109.2</ele>
        <time>2015-02-09T20:12:34.476Z</time>
      </trkpt>
      <trkpt lat="48.83598" lon="2.39424">
        <ele>108.7</ele>
        <time>2015-02-09T20:12:36.627Z</time>
      </trkpt>
      <trkpt lat="48.83603" lon="2.39416">
        <ele>108.3</ele>
        <time>2015-02-09T20:12:37.474Z</time>
      </trkpt>
      <trkpt lat="48.83605" lon="2.3941">
        <ele>108.3</ele>
        <time>2015-02-09T20:12:38.525Z</time>
      </trkpt>
      <trkpt lat="48.83608" lon="2.39404">
        <ele>108.4</ele>
        <time>2015-02-09T20:12:39.543Z</time>
      </trkpt>
      <trkpt lat="48.83611" lon="2.39399">
        <ele>108.5</ele>
        <time>2015-02-09T20:12:40.458Z</time>
      </trkpt>
      <trkpt lat="48.83614" lon="2.39393">
        <ele>108.7</ele>
        <time>2015-02-09T20:12:41.466Z</time>
      </trkpt>
      <trkpt lat="48.83618" lon="2.39384">
        <ele>108.8</ele>
        <time>2015-02-09T20:12:43.543Z</time>
      </trkpt>
      <trkpt lat="48.83622" lon="2.39381">
        <ele>108.9</ele>
        <time>2015-02-09T20:12:44.464Z</time>
      </trkpt>
      <trkpt lat="48.83626" lon="2.39374">
        <ele>108.7</ele>
        <time>2015-02-09T20:12:46.458Z</time>
      </trkpt>
      <trkpt lat="48.83628" lon="2.3937">
        <ele>108.7</ele>
        <time>2015-02-09T20:12:47.473Z</time>
      </trkpt>
      <trkpt lat="48.83626" lon="2.39361">
        <ele>107.9</ele>
        <time>2015-02-09T20:12:48.497Z</time>
      </trkpt>
      <trkpt lat="48.83624" lon="2.39354">
        <ele>107</ele>
        <time>2015-02-09T20:12:49.505Z</time>
      </trkpt>
      <trkpt lat="48.83627" lon="2.39343">
        <ele>106.7</ele>
        <time>2015-02-09T20:12:52.461Z</time>
      </trkpt>
      <trkpt lat="48.83626" lon="2.39338">
        <ele>106.6</ele>
        <time>2015-02-09T20:12:53.496Z</time>
      </trkpt>
      <trkpt lat="48.83626" lon="2.39332">
        <ele>106.3</ele>
        <time>2015-02-09T20:12:54.539Z</time>
      </trkpt>
      <trkpt lat="48.83627" lon="2.39324">
        <ele>105.7</ele>
        <time>2015-02-09T20:12:55.567Z</time>
      </trkpt>
      <trkpt lat="48.83628" lon="2.39312">
        <ele>105.3</ele>
        <time>2015-02-09T20:12:57.452Z</time>
      </trkpt>
      <trkpt lat="48.83628" lon="2.39308">
        <ele>105.3</ele>
        <time>2015-02-09T20:12:58.497Z</time>
      </trkpt>
      <trkpt lat="48.83631" lon="2.39302">
        <ele>105.3</ele>
        <time>2015-02-09T20:13:03.468Z</time>
      </trkpt>
      <trkpt lat="48.83643" lon="2.39303">
        <ele>106.3</ele>
        <time>2015-02-09T20:13:04.469Z</time>
      </trkpt>
      <trkpt lat="48.83647" lon="2.39294">
        <ele>105.4</ele>
        <time>2015-02-09T20:13:10.471Z</time>
      </trkpt>
      <trkpt lat="48.83649" lon="2.39289">
        <ele>105.2</ele>
        <time>2015-02-09T20:13:11.481Z</time>
      </trkpt>
      <trkpt lat="48.83654" lon="2.3928">
        <ele>104.9</ele>
        <time>2015-02-09T20:13:13.506Z</time>
      </trkpt>
      <trkpt lat="48.83656" lon="2.39276">
        <ele>104.6</ele>
        <time>2015-02-09T20:13:14.519Z</time>
      </trkpt>
      <trkpt lat="48.83662" lon="2.39267">
        <ele>103.8</ele>
        <time>2015-02-09T20:13:16.463Z</time>
      </trkpt>
      <trkpt lat="48.83665" lon="2.39262">
        <ele>103.2</ele>
        <time>2015-02-09T20:13:17.475Z</time>
      </trkpt>
      <trkpt lat="48.83669" lon="2.39256">
        <ele>102.6</ele>
        <time>2015-02-09T20:13:18.484Z</time>
      </trkpt>
      <trkpt lat="48.83673" lon="2.39251">
        <ele>102.4</ele>
        <time>2015-02-09T20:13:19.498Z</time>
      </trkpt>
      <trkpt lat="48.83677" lon="2.39241">
        <ele>100.8</ele>
        <time>2015-02-09T20:13:21.523Z</time>
      </trkpt>
      <trkpt lat="48.8368" lon="2.39235">
        <ele>100.2</ele>
        <time>2015-02-09T20:13:22.532Z</time>
      </trkpt>
      <trkpt lat="48.83682" lon="2.39228">
        <ele>99.4</ele>
        <time>2015-02-09T20:13:23.457Z</time>
      </trkpt>
      <trkpt lat="48.83685" lon="2.39222">
        <ele>99.1</ele>
        <time>2015-02-09T20:13:24.456Z</time>
      </trkpt>
      <trkpt lat="48.83688" lon="2.39216">
        <ele>99.1</ele>
        <time>2015-02-09T20:13:25.494Z</time>
      </trkpt>
      <trkpt lat="48.83691" lon="2.39211">
        <ele>98.8</ele>
        <time>2015-02-09T20:13:26.508Z</time>
      </trkpt>
      <trkpt lat="48.83695" lon="2.39199">
        <ele>98.3</ele>
        <time>2015-02-09T20:13:28.542Z</time>
      </trkpt>
      <trkpt lat="48.83698" lon="2.39193">
        <ele>98.2</ele>
        <time>2015-02-09T20:13:29.544Z</time>
      </trkpt>
      <trkpt lat="48.83701" lon="2.39183">
        <ele>97.3</ele>
        <time>2015-02-09T20:13:31.529Z</time>
      </trkpt>
      <trkpt lat="48.83701" lon="2.39176">
        <ele>98</ele>
        <time>2015-02-09T20:13:32.529Z</time>
      </trkpt>
      <trkpt lat="48.83704" lon="2.39166">
        <ele>98.3</ele>
        <time>2015-02-09T20:13:34.503Z</time>
      </trkpt>
      <trkpt lat="48.83706" lon="2.39162">
        <ele>98.3</ele>
        <time>2015-02-09T20:13:35.714Z</time>
      </trkpt>
      <trkpt lat="48.83711" lon="2.39154">
        <ele>98.6</ele>
        <time>2015-02-09T20:13:37.531Z</time>
      </trkpt>
      <trkpt lat="48.83712" lon="2.3915">
        <ele>98.9</ele>
        <time>2015-02-09T20:13:38.553Z</time>
      </trkpt>
      <trkpt lat="48.83707" lon="2.39147">
        <ele>99.5</ele>
        <time>2015-02-09T20:13:48.502Z</time>
      </trkpt>
      <trkpt lat="48.83697" lon="2.39148">
        <ele>96.4</ele>
        <time>2015-02-09T20:13:49.582Z</time>
      </trkpt>
      <trkpt lat="48.83689" lon="2.39154">
        <ele>95.6</ele>
        <time>2015-02-09T20:13:52.495Z</time>
      </trkpt>
      <trkpt lat="48.83686" lon="2.39155">
        <ele>96</ele>
        <time>2015-02-09T20:13:53.516Z</time>
      </trkpt>
      <trkpt lat="48.83679" lon="2.39157">
        <ele>96.9</ele>
        <time>2015-02-09T20:13:55.506Z</time>
      </trkpt>
      <trkpt lat="48.83677" lon="2.39158">
        <ele>97.5</ele>
        <time>2015-02-09T20:13:56.501Z</time>
      </trkpt>
      <trkpt lat="48.83669" lon="2.3916">
        <ele>98.8</ele>
        <time>2015-02-09T20:13:58.532Z</time>
      </trkpt>
      <trkpt lat="48.83664" lon="2.3916">
        <ele>99.1</ele>
        <time>2015-02-09T20:13:59.627Z</time>
      </trkpt>
      <trkpt lat="48.83656" lon="2.3916">
        <ele>100.1</ele>
        <time>2015-02-09T20:14:01.523Z</time>
      </trkpt>
      <trkpt lat="48.83652" lon="2.3916">
        <ele>100.3</ele>
        <time>2015-02-09T20:14:02.529Z</time>
      </trkpt>
      <trkpt lat="48.83646" lon="2.39165">
        <ele>100.9</ele>
        <time>2015-02-09T20:14:04.531Z</time>
      </trkpt>
      <trkpt lat="48.83642" lon="2.39167">
        <ele>101.3</ele>
        <time>2015-02-09T20:14:05.598Z</time>
      </trkpt>
      <trkpt lat="48.83637" lon="2.39168">
        <ele>101.6</ele>
        <time>2015-02-09T20:14:06.478Z</time>
      </trkpt>
      <trkpt lat="48.83633" lon="2.39169">
        <ele>102</ele>
        <time>2015-02-09T20:14:07.501Z</time>
      </trkpt>
      <trkpt lat="48.83624" lon="2.39172">
        <ele>103</ele>
        <time>2015-02-09T20:14:09.498Z</time>
      </trkpt>
      <trkpt lat="48.83619" lon="2.39173">
        <ele>103.3</ele>
        <time>2015-02-09T20:14:10.500Z</time>
      </trkpt>
      <trkpt lat="48.83615" lon="2.39174">
        <ele>103.7</ele>
        <time>2015-02-09T20:14:11.516Z</time>
      </trkpt>
      <trkpt lat="48.8361" lon="2.39175">
        <ele>103.9</ele>
        <time>2015-02-09T20:14:12.528Z</time>
      </trkpt>
      <trkpt lat="48.83603" lon="2.39179">
        <ele>104.1</ele>
        <time>2015-02-09T20:14:14.472Z</time>
      </trkpt>
      <trkpt lat="48.83599" lon="2.39182">
        <ele>103.8</ele>
        <time>2015-02-09T20:14:15.486Z</time>
      </trkpt>
      <trkpt lat="48.83596" lon="2.39191">
        <ele>102.5</ele>
        <time>2015-02-09T20:14:17.507Z</time>
      </trkpt>
      <trkpt lat="48.83597" lon="2.392">
        <ele>101</ele>
        <time>2015-02-09T20:14:18.518Z</time>
      </trkpt>
      <trkpt lat="48.83593" lon="2.39204">
        <ele>101</ele>
        <time>2015-02-09T20:14:19.527Z</time>
      </trkpt>
      <trkpt lat="48.8359" lon="2.39209">
        <ele>101</ele>
        <time>2015-02-09T20:14:20.540Z</time>
      </trkpt>
      <trkpt lat="48.83584" lon="2.39217">
        <ele>101.3</ele>
        <time>2015-02-09T20:14:23.029Z</time>
      </trkpt>
      <trkpt lat="48.83581" lon="2.39221">
        <ele>101.8</ele>
        <time>2015-02-09T20:14:23.434Z</time>
      </trkpt>
      <trkpt lat="48.83573" lon="2.39227">
        <ele>102.5</ele>
        <time>2015-02-09T20:14:25.513Z</time>
      </trkpt>
      <trkpt lat="48.83568" lon="2.39229">
        <ele>102.9</ele>
        <time>2015-02-09T20:14:26.527Z</time>
      </trkpt>
      <trkpt lat="48.83564" lon="2.39232">
        <ele>103.3</ele>
        <time>2015-02-09T20:14:28.038Z</time>
      </trkpt>
      <trkpt lat="48.8356" lon="2.39237">
        <ele>103.7</ele>
        <time>2015-02-09T20:14:28.567Z</time>
      </trkpt>
      <trkpt lat="48.83554" lon="2.39245">
        <ele>104.4</ele>
        <time>2015-02-09T20:14:30.507Z</time>
      </trkpt>
      <trkpt lat="48.83552" lon="2.39249">
        <ele>104.7</ele>
        <time>2015-02-09T20:14:31.634Z</time>
      </trkpt>
      <trkpt lat="48.83546" lon="2.39254">
        <ele>105.3</ele>
        <time>2015-02-09T20:14:33.494Z</time>
      </trkpt>
      <trkpt lat="48.83543" lon="2.39255">
        <ele>105.3</ele>
        <time>2015-02-09T20:14:34.545Z</time>
      </trkpt>
      <trkpt lat="48.83535" lon="2.39256">
        <ele>105.6</ele>
        <time>2015-02-09T20:14:36.518Z</time>
      </trkpt>
      <trkpt lat="48.8353" lon="2.39256">
        <ele>105.4</ele>
        <time>2015-02-09T20:14:37.535Z</time>
      </trkpt>
      <trkpt lat="48.83529" lon="2.39265">
        <ele>103.5</ele>
        <time>2015-02-09T20:14:39.506Z</time>
      </trkpt>
      <trkpt lat="48.83529" lon="2.39271">
        <ele>101.7</ele>
        <time>2015-02-09T20:14:40.543Z</time>
      </trkpt>
      <trkpt lat="48.83527" lon="2.3928">
        <ele>100.6</ele>
        <time>2015-02-09T20:14:43.183Z</time>
      </trkpt>
      <trkpt lat="48.83524" lon="2.39284">
        <ele>100.6</ele>
        <time>2015-02-09T20:14:43.485Z</time>
      </trkpt>
      <trkpt lat="48.8352" lon="2.39293">
        <ele>100.9</ele>
        <time>2015-02-09T20:14:45.563Z</time>
      </trkpt>
      <trkpt lat="48.83516" lon="2.39297">
        <ele>101.2</ele>
        <time>2015-02-09T20:14:46.577Z</time>
      </trkpt>
      <trkpt lat="48.8351" lon="2.393">
        <ele>101.8</ele>
        <time>2015-02-09T20:14:48.502Z</time>
      </trkpt>
      <trkpt lat="48.83506" lon="2.39301">
        <ele>102</ele>
        <time>2015-02-09T20:14:49.536Z</time>
      </trkpt>
      <trkpt lat="48.83498" lon="2.39303">
        <ele>102.3</ele>
        <time>2015-02-09T20:14:51.572Z</time>
      </trkpt>
      <trkpt lat="48.83495" lon="2.39305">
        <ele>102.8</ele>
        <time>2015-02-09T20:14:52.507Z</time>
      </trkpt>
      <trkpt lat="48.83492" lon="2.39318">
        <ele>102.7</ele>
        <time>2015-02-09T20:14:55.558Z</time>
      </trkpt>
      <trkpt lat="48.83491" lon="2.39321">
        <ele>102.8</ele>
        <time>2015-02-09T20:14:56.447Z</time>
      </trkpt>
      <trkpt lat="48.83488" lon="2.39328">
        <ele>102.1</ele>
        <time>2015-02-09T20:14:58.551Z</time>
      </trkpt>
      <trkpt lat="48.83485" lon="2.39332">
        <ele>102.2</ele>
        <time>2015-02-09T20:14:59.513Z</time>
      </trkpt>
      <trkpt lat="48.83478" lon="2.39341">
        <ele>101.8</ele>
        <time>2015-02-09T20:15:01.545Z</time>
      </trkpt>
      <trkpt lat="48.83474" lon="2.39344">
        <ele>101.1</ele>
        <time>2015-02-09T20:15:02.437Z</time>
      </trkpt>
      <trkpt lat="48.83468" lon="2.39349">
        <ele>100.8</ele>
        <time>2015-02-09T20:15:04.457Z</time>
      </trkpt>
      <trkpt lat="48.83464" lon="2.3935">
        <ele>100.7</ele>
        <time>2015-02-09T20:15:05.460Z</time>
      </trkpt>
      <trkpt lat="48.83457" lon="2.39353">
        <ele>101.2</ele>
        <time>2015-02-09T20:15:07.502Z</time>
      </trkpt>
      <trkpt lat="48.83453" lon="2.39355">
        <ele>101.7</ele>
        <time>2015-02-09T20:15:08.515Z</time>
      </trkpt>
      <trkpt lat="48.83448" lon="2.3936">
        <ele>102.3</ele>
        <time>2015-02-09T20:15:10.479Z</time>
      </trkpt>
      <trkpt lat="48.83445" lon="2.39363">
        <ele>102.9</ele>
        <time>2015-02-09T20:15:11.534Z</time>
      </trkpt>
      <trkpt lat="48.8344" lon="2.39367">
        <ele>103.5</ele>
        <time>2015-02-09T20:15:13.980Z</time>
      </trkpt>
      <trkpt lat="48.83436" lon="2.39369">
        <ele>104.1</ele>
        <time>2015-02-09T20:15:14.508Z</time>
      </trkpt>
      <trkpt lat="48.8343" lon="2.39372">
        <ele>104.6</ele>
        <time>2015-02-09T20:15:16.607Z</time>
      </trkpt>
      <trkpt lat="48.83426" lon="2.39372">
        <ele>105.1</ele>
        <time>2015-02-09T20:15:17.524Z</time>
      </trkpt>
      <trkpt lat="48.83419" lon="2.39375">
        <ele>106.1</ele>
        <time>2015-02-09T20:15:19.560Z</time>
      </trkpt>
      <trkpt lat="48.83415" lon="2.39376">
        <ele>106.5</ele>
        <time>2015-02-09T20:15:20.493Z</time>
      </trkpt>
      <trkpt lat="48.83406" lon="2.3938">
        <ele>108</ele>
        <time>2015-02-09T20:15:23.436Z</time>
      </trkpt>
      <trkpt lat="48.83403" lon="2.39381">
        <ele>108.3</ele>
        <time>2015-02-09T20:15:24.498Z</time>
      </trkpt>
      <trkpt lat="48.83396" lon="2.39385">
        <ele>109</ele>
        <time>2015-02-09T20:15:26.510Z</time>
      </trkpt>
      <trkpt lat="48.83392" lon="2.39386">
        <ele>109.3</ele>
        <time>2015-02-09T20:15:27.520Z</time>
      </trkpt>
      <trkpt lat="48.83384" lon="2.39388">
        <ele>109.8</ele>
        <time>2015-02-09T20:15:29.566Z</time>
      </trkpt>
      <trkpt lat="48.83381" lon="2.39391">
        <ele>109.9</ele>
        <time>2015-02-09T20:15:30.464Z</time>
      </trkpt>
      <trkpt lat="48.83374" lon="2.39398">
        <ele>110.1</ele>
        <time>2015-02-09T20:15:33.205Z</time>
      </trkpt>
      <trkpt lat="48.83372" lon="2.39403">
        <ele>110.1</ele>
        <time>2015-02-09T20:15:33.528Z</time>
      </trkpt>
      <trkpt lat="48.83366" lon="2.39412">
        <ele>108</ele>
        <time>2015-02-09T20:15:35.434Z</time>
      </trkpt>
      <trkpt lat="48.83363" lon="2.39416">
        <ele>108.2</ele>
        <time>2015-02-09T20:15:36.505Z</time>
      </trkpt>
      <trkpt lat="48.83358" lon="2.39425">
        <ele>108.9</ele>
        <time>2015-02-09T20:15:38.531Z</time>
      </trkpt>
      <trkpt lat="48.83356" lon="2.3943">
        <ele>109.3</ele>
        <time>2015-02-09T20:15:39.546Z</time>
      </trkpt>
      <trkpt lat="48.83352" lon="2.3944">
        <ele>109.3</ele>
        <time>2015-02-09T20:15:41.475Z</time>
      </trkpt>
      <trkpt lat="48.83357" lon="2.3945">
        <ele>107.7</ele>
        <time>2015-02-09T20:15:42.474Z</time>
      </trkpt>
      <trkpt lat="48.83357" lon="2.39463">
        <ele>105.9</ele>
        <time>2015-02-09T20:15:45.380Z</time>
      </trkpt>
      <trkpt lat="48.83354" lon="2.39466">
        <ele>106.1</ele>
        <time>2015-02-09T20:15:45.530Z</time>
      </trkpt>
      <trkpt lat="48.83347" lon="2.39473">
        <ele>105.5</ele>
        <time>2015-02-09T20:15:47.498Z</time>
      </trkpt>
      <trkpt lat="48.83343" lon="2.39476">
        <ele>105.7</ele>
        <time>2015-02-09T20:15:48.492Z</time>
      </trkpt>
      <trkpt lat="48.83336" lon="2.39482">
        <ele>106.2</ele>
        <time>2015-02-09T20:15:50.589Z</time>
      </trkpt>
      <trkpt lat="48.8333" lon="2.39483">
        <ele>106.2</ele>
        <time>2015-02-09T20:15:51.449Z</time>
      </trkpt>
      <trkpt lat="48.83329" lon="2.39493">
        <ele>104.8</ele>
        <time>2015-02-09T20:15:53.572Z</time>
      </trkpt>
      <trkpt lat="48.83331" lon="2.395">
        <ele>103.2</ele>
        <time>2015-02-09T20:15:54.504Z</time>
      </trkpt>
      <trkpt lat="48.83328" lon="2.3951">
        <ele>102.8</ele>
        <time>2015-02-09T20:15:56.496Z</time>
      </trkpt>
      <trkpt lat="48.83327" lon="2.39517">
        <ele>102.1</ele>
        <time>2015-02-09T20:15:57.510Z</time>
      </trkpt>
      <trkpt lat="48.83326" lon="2.39525">
        <ele>101.6</ele>
        <time>2015-02-09T20:15:58.516Z</time>
      </trkpt>
      <trkpt lat="48.83324" lon="2.39533">
        <ele>101.3</ele>
        <time>2015-02-09T20:15:59.519Z</time>
      </trkpt>
      <trkpt lat="48.83321" lon="2.39539">
        <ele>101.6</ele>
        <time>2015-02-09T20:16:00.745Z</time>
      </trkpt>
      <trkpt lat="48.83317" lon="2.39544">
        <ele>102.1</ele>
        <time>2015-02-09T20:16:01.541Z</time>
      </trkpt>
      <trkpt lat="48.83314" lon="2.3955">
        <ele>102.3</ele>
        <time>2015-02-09T20:16:02.456Z</time>
      </trkpt>
      <trkpt lat="48.83276" lon="2.39595">
        <ele>105.5</ele>
        <time>2015-02-09T20:16:14.515Z</time>
      </trkpt>
      <trkpt lat="48.83273" lon="2.396">
        <ele>104.5</ele>
        <time>2015-02-09T20:16:16.016Z</time>
      </trkpt>
      <trkpt lat="48.83273" lon="2.39608">
        <ele>101.3</ele>
        <time>2015-02-09T20:16:16.568Z</time>
      </trkpt>
      <trkpt lat="48.8327" lon="2.3962">
        <ele>99.7</ele>
        <time>2015-02-09T20:16:18.500Z</time>
      </trkpt>
      <trkpt lat="48.83268" lon="2.39625">
        <ele>99.1</ele>
        <time>2015-02-09T20:16:19.638Z</time>
      </trkpt>
      <trkpt lat="48.83264" lon="2.39633">
        <ele>98.7</ele>
        <time>2015-02-09T20:16:21.480Z</time>
      </trkpt>
      <trkpt lat="48.83261" lon="2.39638">
        <ele>98.2</ele>
        <time>2015-02-09T20:16:22.503Z</time>
      </trkpt>
      <trkpt lat="48.83257" lon="2.39649">
        <ele>97.3</ele>
        <time>2015-02-09T20:16:24.542Z</time>
      </trkpt>
      <trkpt lat="48.83254" lon="2.39653">
        <ele>97.4</ele>
        <time>2015-02-09T20:16:25.550Z</time>
      </trkpt>
      <trkpt lat="48.8325" lon="2.39662">
        <ele>97.8</ele>
        <time>2015-02-09T20:16:28.101Z</time>
      </trkpt>
      <trkpt lat="48.83247" lon="2.39666">
        <ele>97.6</ele>
        <time>2015-02-09T20:16:28.459Z</time>
      </trkpt>
      <trkpt lat="48.83241" lon="2.39674">
        <ele>97.9</ele>
        <time>2015-02-09T20:16:30.481Z</time>
      </trkpt>
      <trkpt lat="48.83238" lon="2.39678">
        <ele>98.2</ele>
        <time>2015-02-09T20:16:31.528Z</time>
      </trkpt>
      <trkpt lat="48.83232" lon="2.39687">
        <ele>98.4</ele>
        <time>2015-02-09T20:16:33.455Z</time>
      </trkpt>
      <trkpt lat="48.8323" lon="2.39692">
        <ele>98.6</ele>
        <time>2015-02-09T20:16:34.475Z</time>
      </trkpt>
      <trkpt lat="48.83225" lon="2.397">
        <ele>99.1</ele>
        <time>2015-02-09T20:16:36.478Z</time>
      </trkpt>
      <trkpt lat="48.83222" lon="2.39704">
        <ele>99.2</ele>
        <time>2015-02-09T20:16:37.549Z</time>
      </trkpt>
      <trkpt lat="48.83218" lon="2.39712">
        <ele>99.7</ele>
        <time>2015-02-09T20:16:39.471Z</time>
      </trkpt>
      <trkpt lat="48.83215" lon="2.39714">
        <ele>99.5</ele>
        <time>2015-02-09T20:16:40.462Z</time>
      </trkpt>
      <trkpt lat="48.83209" lon="2.39721">
        <ele>99.2</ele>
        <time>2015-02-09T20:16:43.524Z</time>
      </trkpt>
      <trkpt lat="48.83208" lon="2.39723">
        <ele>99.2</ele>
        <time>2015-02-09T20:16:44.529Z</time>
      </trkpt>
      <trkpt lat="48.83203" lon="2.39729">
        <ele>100.4</ele>
        <time>2015-02-09T20:17:44.462Z</time>
      </trkpt>
      <trkpt lat="48.83192" lon="2.39739">
        <ele>97.3</ele>
        <time>2015-02-09T20:17:45.474Z</time>
      </trkpt>
      <trkpt lat="48.83189" lon="2.39741">
        <ele>97.4</ele>
        <time>2015-02-09T20:17:56.529Z</time>
      </trkpt>
      <trkpt lat="48.83179" lon="2.39747">
        <ele>97.4</ele>
        <time>2015-02-09T20:17:57.532Z</time>
      </trkpt>
      <trkpt lat="48.83172" lon="2.39742">
        <ele>97.3</ele>
        <time>2015-02-09T20:18:01.556Z</time>
      </trkpt>
      <trkpt lat="48.8317" lon="2.39738">
        <ele>97.1</ele>
        <time>2015-02-09T20:18:02.634Z</time>
      </trkpt>
      <trkpt lat="48.83165" lon="2.39728">
        <ele>96.9</ele>
        <time>2015-02-09T20:18:05.542Z</time>
      </trkpt>
      <trkpt lat="48.83163" lon="2.39724">
        <ele>96.9</ele>
        <time>2015-02-09T20:18:06.557Z</time>
      </trkpt>
      <trkpt lat="48.83159" lon="2.39715">
        <ele>96.7</ele>
        <time>2015-02-09T20:18:08.932Z</time>
      </trkpt>
      <trkpt lat="48.83157" lon="2.3971">
        <ele>96.7</ele>
        <time>2015-02-09T20:18:09.486Z</time>
      </trkpt>
      <trkpt lat="48.83154" lon="2.397">
        <ele>96.6</ele>
        <time>2015-02-09T20:18:11.523Z</time>
      </trkpt>
      <trkpt lat="48.83152" lon="2.39696">
        <ele>96.5</ele>
        <time>2015-02-09T20:18:12.647Z</time>
      </trkpt>
      <trkpt lat="48.83147" lon="2.39686">
        <ele>96.4</ele>
        <time>2015-02-09T20:18:14.529Z</time>
      </trkpt>
      <trkpt lat="48.83144" lon="2.3968">
        <ele>96.3</ele>
        <time>2015-02-09T20:18:15.558Z</time>
      </trkpt>
      <trkpt lat="48.83142" lon="2.39674">
        <ele>96.1</ele>
        <time>2015-02-09T20:18:16.489Z</time>
      </trkpt>
      <trkpt lat="48.83138" lon="2.39668">
        <ele>96.1</ele>
        <time>2015-02-09T20:18:17.482Z</time>
      </trkpt>
      <trkpt lat="48.83136" lon="2.39662">
        <ele>95.8</ele>
        <time>2015-02-09T20:18:19.061Z</time>
      </trkpt>
      <trkpt lat="48.83134" lon="2.39656">
        <ele>95.7</ele>
        <time>2015-02-09T20:18:19.516Z</time>
      </trkpt>
      <trkpt lat="48.8313" lon="2.39649">
        <ele>95.7</ele>
        <time>2015-02-09T20:18:20.520Z</time>
      </trkpt>
      <trkpt lat="48.83129" lon="2.39643">
        <ele>95.6</ele>
        <time>2015-02-09T20:18:21.533Z</time>
      </trkpt>
      <trkpt lat="48.83126" lon="2.39637">
        <ele>95.9</ele>
        <time>2015-02-09T20:18:22.544Z</time>
      </trkpt>
      <trkpt lat="48.83125" lon="2.3963">
        <ele>95.7</ele>
        <time>2015-02-09T20:18:23.448Z</time>
      </trkpt>
      <trkpt lat="48.83122" lon="2.39619">
        <ele>95.3</ele>
        <time>2015-02-09T20:18:25.517Z</time>
      </trkpt>
      <trkpt lat="48.83119" lon="2.39613">
        <ele>95.3</ele>
        <time>2015-02-09T20:18:26.517Z</time>
      </trkpt>
      <trkpt lat="48.83117" lon="2.39607">
        <ele>95.2</ele>
        <time>2015-02-09T20:18:27.476Z</time>
      </trkpt>
      <trkpt lat="48.83115" lon="2.396">
        <ele>95.4</ele>
        <time>2015-02-09T20:18:28.488Z</time>
      </trkpt>
      <trkpt lat="48.83113" lon="2.39594">
        <ele>95.5</ele>
        <time>2015-02-09T20:18:29.534Z</time>
      </trkpt>
      <trkpt lat="48.8311" lon="2.39588">
        <ele>95.5</ele>
        <time>2015-02-09T20:18:30.566Z</time>
      </trkpt>
      <trkpt lat="48.83108" lon="2.39581">
        <ele>95.6</ele>
        <time>2015-02-09T20:18:31.523Z</time>
      </trkpt>
      <trkpt lat="48.83106" lon="2.39574">
        <ele>95.6</ele>
        <time>2015-02-09T20:18:32.504Z</time>
      </trkpt>
      <trkpt lat="48.83104" lon="2.39567">
        <ele>95.5</ele>
        <time>2015-02-09T20:18:33.516Z</time>
      </trkpt>
      <trkpt lat="48.83101" lon="2.3956">
        <ele>95.5</ele>
        <time>2015-02-09T20:18:34.525Z</time>
      </trkpt>
      <trkpt lat="48.83099" lon="2.39553">
        <ele>95.4</ele>
        <time>2015-02-09T20:18:35.545Z</time>
      </trkpt>
      <trkpt lat="48.83097" lon="2.39546">
        <ele>95.3</ele>
        <time>2015-02-09T20:18:36.617Z</time>
      </trkpt>
      <trkpt lat="48.83095" lon="2.39539">
        <ele>95.2</ele>
        <time>2015-02-09T20:18:37.527Z</time>
      </trkpt>
      <trkpt lat="48.83093" lon="2.39532">
        <ele>95.1</ele>
        <time>2015-02-09T20:18:38.523Z</time>
      </trkpt>
      <trkpt lat="48.8309" lon="2.39525">
        <ele>95.1</ele>
        <time>2015-02-09T20:18:39.525Z</time>
      </trkpt>
      <trkpt lat="48.83088" lon="2.39518">
        <ele>95</ele>
        <time>2015-02-09T20:18:40.451Z</time>
      </trkpt>
      <trkpt lat="48.83087" lon="2.39511">
        <ele>95</ele>
        <time>2015-02-09T20:18:41.490Z</time>
      </trkpt>
      <trkpt lat="48.83085" lon="2.39504">
        <ele>95</ele>
        <time>2015-02-09T20:18:42.494Z</time>
      </trkpt>
      <trkpt lat="48.83083" lon="2.39496">
        <ele>94.8</ele>
        <time>2015-02-09T20:18:43.504Z</time>
      </trkpt>
      <trkpt lat="48.83081" lon="2.39489">
        <ele>94.4</ele>
        <time>2015-02-09T20:18:44.540Z</time>
      </trkpt>
      <trkpt lat="48.83079" lon="2.39482">
        <ele>94.3</ele>
        <time>2015-02-09T20:18:45.537Z</time>
      </trkpt>
      <trkpt lat="48.83077" lon="2.39475">
        <ele>93.6</ele>
        <time>2015-02-09T20:18:46.486Z</time>
      </trkpt>
      <trkpt lat="48.83075" lon="2.39468">
        <ele>93.7</ele>
        <time>2015-02-09T20:18:47.499Z</time>
      </trkpt>
      <trkpt lat="48.83074" lon="2.39461">
        <ele>93.8</ele>
        <time>2015-02-09T20:18:48.495Z</time>
      </trkpt>
      <trkpt lat="48.83072" lon="2.39449">
        <ele>93.8</ele>
        <time>2015-02-09T20:18:50.532Z</time>
      </trkpt>
      <trkpt lat="48.83071" lon="2.39443">
        <ele>93.9</ele>
        <time>2015-02-09T20:18:51.545Z</time>
      </trkpt>
      <trkpt lat="48.83069" lon="2.39431">
        <ele>93.5</ele>
        <time>2015-02-09T20:18:53.486Z</time>
      </trkpt>
      <trkpt lat="48.83068" lon="2.39425">
        <ele>93.4</ele>
        <time>2015-02-09T20:18:54.485Z</time>
      </trkpt>
      <trkpt lat="48.83067" lon="2.39413">
        <ele>93.2</ele>
        <time>2015-02-09T20:18:56.542Z</time>
      </trkpt>
      <trkpt lat="48.83066" lon="2.39407">
        <ele>93.1</ele>
        <time>2015-02-09T20:18:57.566Z</time>
      </trkpt>
      <trkpt lat="48.83064" lon="2.39395">
        <ele>92.9</ele>
        <time>2015-02-09T20:18:59.478Z</time>
      </trkpt>
      <trkpt lat="48.83062" lon="2.39388">
        <ele>92.8</ele>
        <time>2015-02-09T20:19:00.491Z</time>
      </trkpt>
      <trkpt lat="48.8306" lon="2.39376">
        <ele>92.6</ele>
        <time>2015-02-09T20:19:02.555Z</time>
      </trkpt>
      <trkpt lat="48.83059" lon="2.39369">
        <ele>92.6</ele>
        <time>2015-02-09T20:19:03.479Z</time>
      </trkpt>
      <trkpt lat="48.83057" lon="2.39363">
        <ele>92.5</ele>
        <time>2015-02-09T20:19:04.498Z</time>
      </trkpt>
      <trkpt lat="48.83055" lon="2.39356">
        <ele>92.3</ele>
        <time>2015-02-09T20:19:05.510Z</time>
      </trkpt>
      <trkpt lat="48.83052" lon="2.39343">
        <ele>91.9</ele>
        <time>2015-02-09T20:19:07.662Z</time>
      </trkpt>
      <trkpt lat="48.83051" lon="2.39336">
        <ele>91.8</ele>
        <time>2015-02-09T20:19:08.481Z</time>
      </trkpt>
      <trkpt lat="48.83049" lon="2.39323">
        <ele>91.7</ele>
        <time>2015-02-09T20:19:10.484Z</time>
      </trkpt>
      <trkpt lat="48.83048" lon="2.39317">
        <ele>91.5</ele>
        <time>2015-02-09T20:19:11.495Z</time>
      </trkpt>
      <trkpt lat="48.83046" lon="2.39309">
        <ele>91.3</ele>
        <time>2015-02-09T20:19:12.506Z</time>
      </trkpt>
      <trkpt lat="48.83045" lon="2.39302">
        <ele>91.1</ele>
        <time>2015-02-09T20:19:13.513Z</time>
      </trkpt>
      <trkpt lat="48.83043" lon="2.39295">
        <ele>91.2</ele>
        <time>2015-02-09T20:19:14.519Z</time>
      </trkpt>
      <trkpt lat="48.83042" lon="2.39287">
        <ele>91.2</ele>
        <time>2015-02-09T20:19:15.561Z</time>
      </trkpt>
      <trkpt lat="48.83039" lon="2.3928">
        <ele>91</ele>
        <time>2015-02-09T20:19:16.476Z</time>
      </trkpt>
      <trkpt lat="48.83037" lon="2.39272">
        <ele>90.8</ele>
        <time>2015-02-09T20:19:17.487Z</time>
      </trkpt>
      <trkpt lat="48.83034" lon="2.39264">
        <ele>90.9</ele>
        <time>2015-02-09T20:19:18.488Z</time>
      </trkpt>
      <trkpt lat="48.83031" lon="2.39257">
        <ele>90.6</ele>
        <time>2015-02-09T20:19:19.512Z</time>
      </trkpt>
      <trkpt lat="48.83028" lon="2.3925">
        <ele>90.4</ele>
        <time>2015-02-09T20:19:20.516Z</time>
      </trkpt>
      <trkpt lat="48.83026" lon="2.39243">
        <ele>90.2</ele>
        <time>2015-02-09T20:19:21.523Z</time>
      </trkpt>
      <trkpt lat="48.83025" lon="2.39236">
        <ele>90.2</ele>
        <time>2015-02-09T20:19:22.536Z</time>
      </trkpt>
      <trkpt lat="48.83024" lon="2.39229">
        <ele>89.9</ele>
        <time>2015-02-09T20:19:23.555Z</time>
      </trkpt>
      <trkpt lat="48.83023" lon="2.39223">
        <ele>90</ele>
        <time>2015-02-09T20:19:24.472Z</time>
      </trkpt>
      <trkpt lat="48.83018" lon="2.39215">
        <ele>89.1</ele>
        <time>2015-02-09T20:19:25.580Z</time>
      </trkpt>
      <trkpt lat="48.83015" lon="2.39207">
        <ele>88.8</ele>
        <time>2015-02-09T20:19:26.510Z</time>
      </trkpt>
      <trkpt lat="48.83012" lon="2.39199">
        <ele>88.3</ele>
        <time>2015-02-09T20:19:27.525Z</time>
      </trkpt>
      <trkpt lat="48.83009" lon="2.3919">
        <ele>88.1</ele>
        <time>2015-02-09T20:19:28.535Z</time>
      </trkpt>
      <trkpt lat="48.83007" lon="2.39181">
        <ele>88.2</ele>
        <time>2015-02-09T20:19:29.543Z</time>
      </trkpt>
      <trkpt lat="48.83004" lon="2.39173">
        <ele>88.2</ele>
        <time>2015-02-09T20:19:30.558Z</time>
      </trkpt>
      <trkpt lat="48.83002" lon="2.39165">
        <ele>88.2</ele>
        <time>2015-02-09T20:19:31.650Z</time>
      </trkpt>
      <trkpt lat="48.82999" lon="2.39158">
        <ele>88.3</ele>
        <time>2015-02-09T20:19:32.471Z</time>
      </trkpt>
      <trkpt lat="48.82997" lon="2.3915">
        <ele>88.4</ele>
        <time>2015-02-09T20:19:33.469Z</time>
      </trkpt>
      <trkpt lat="48.82994" lon="2.39141">
        <ele>88.1</ele>
        <time>2015-02-09T20:19:34.481Z</time>
      </trkpt>
      <trkpt lat="48.82991" lon="2.39132">
        <ele>88</ele>
        <time>2015-02-09T20:19:35.498Z</time>
      </trkpt>
      <trkpt lat="48.82988" lon="2.39124">
        <ele>88</ele>
        <time>2015-02-09T20:19:36.519Z</time>
      </trkpt>
      <trkpt lat="48.82985" lon="2.39115">
        <ele>88</ele>
        <time>2015-02-09T20:19:37.544Z</time>
      </trkpt>
      <trkpt lat="48.82981" lon="2.39107">
        <ele>88</ele>
        <time>2015-02-09T20:19:38.446Z</time>
      </trkpt>
      <trkpt lat="48.82978" lon="2.39098">
        <ele>88.1</ele>
        <time>2015-02-09T20:19:39.455Z</time>
      </trkpt>
      <trkpt lat="48.82974" lon="2.3909">
        <ele>88.2</ele>
        <time>2015-02-09T20:19:40.462Z</time>
      </trkpt>
      <trkpt lat="48.82971" lon="2.39082">
        <ele>88.5</ele>
        <time>2015-02-09T20:19:41.472Z</time>
      </trkpt>
      <trkpt lat="48.82967" lon="2.39075">
        <ele>88.8</ele>
        <time>2015-02-09T20:19:42.496Z</time>
      </trkpt>
      <trkpt lat="48.82964" lon="2.39067">
        <ele>88.8</ele>
        <time>2015-02-09T20:19:43.535Z</time>
      </trkpt>
      <trkpt lat="48.82961" lon="2.39059">
        <ele>88.6</ele>
        <time>2015-02-09T20:19:44.465Z</time>
      </trkpt>
      <trkpt lat="48.82958" lon="2.39052">
        <ele>88.5</ele>
        <time>2015-02-09T20:19:45.462Z</time>
      </trkpt>
      <trkpt lat="48.82955" lon="2.39043">
        <ele>88.5</ele>
        <time>2015-02-09T20:19:46.480Z</time>
      </trkpt>
      <trkpt lat="48.82952" lon="2.39036">
        <ele>88.3</ele>
        <time>2015-02-09T20:19:47.494Z</time>
      </trkpt>
      <trkpt lat="48.82949" lon="2.39028">
        <ele>88.2</ele>
        <time>2015-02-09T20:19:48.507Z</time>
      </trkpt>
      <trkpt lat="48.82946" lon="2.3902">
        <ele>88.3</ele>
        <time>2015-02-09T20:19:49.516Z</time>
      </trkpt>
      <trkpt lat="48.82943" lon="2.39012">
        <ele>88.3</ele>
        <time>2015-02-09T20:19:50.559Z</time>
      </trkpt>
      <trkpt lat="48.8294" lon="2.39004">
        <ele>88.1</ele>
        <time>2015-02-09T20:19:51.475Z</time>
      </trkpt>
      <trkpt lat="48.82937" lon="2.38998">
        <ele>88.1</ele>
        <time>2015-02-09T20:19:52.533Z</time>
      </trkpt>
      <trkpt lat="48.82934" lon="2.38991">
        <ele>88.2</ele>
        <time>2015-02-09T20:19:53.546Z</time>
      </trkpt>
      <trkpt lat="48.82932" lon="2.38984">
        <ele>87.8</ele>
        <time>2015-02-09T20:19:54.559Z</time>
      </trkpt>
      <trkpt lat="48.82929" lon="2.38976">
        <ele>87.6</ele>
        <time>2015-02-09T20:19:55.574Z</time>
      </trkpt>
      <trkpt lat="48.82926" lon="2.38968">
        <ele>87.2</ele>
        <time>2015-02-09T20:19:56.474Z</time>
      </trkpt>
      <trkpt lat="48.82923" lon="2.3896">
        <ele>86.9</ele>
        <time>2015-02-09T20:19:57.471Z</time>
      </trkpt>
      <trkpt lat="48.8292" lon="2.38953">
        <ele>86.7</ele>
        <time>2015-02-09T20:19:58.483Z</time>
      </trkpt>
      <trkpt lat="48.82917" lon="2.38946">
        <ele>86.5</ele>
        <time>2015-02-09T20:19:59.490Z</time>
      </trkpt>
      <trkpt lat="48.82914" lon="2.3894">
        <ele>86.3</ele>
        <time>2015-02-09T20:20:00.502Z</time>
      </trkpt>
      <trkpt lat="48.82911" lon="2.38932">
        <ele>86.3</ele>
        <time>2015-02-09T20:20:01.522Z</time>
      </trkpt>
      <trkpt lat="48.82908" lon="2.38925">
        <ele>86.1</ele>
        <time>2015-02-09T20:20:02.525Z</time>
      </trkpt>
      <trkpt lat="48.82906" lon="2.38918">
        <ele>86.4</ele>
        <time>2015-02-09T20:20:03.571Z</time>
      </trkpt>
      <trkpt lat="48.82903" lon="2.38911">
        <ele>86.3</ele>
        <time>2015-02-09T20:20:04.462Z</time>
      </trkpt>
      <trkpt lat="48.829" lon="2.38905">
        <ele>86.5</ele>
        <time>2015-02-09T20:20:05.475Z</time>
      </trkpt>
      <trkpt lat="48.82897" lon="2.38898">
        <ele>86.6</ele>
        <time>2015-02-09T20:20:06.490Z</time>
      </trkpt>
      <trkpt lat="48.82895" lon="2.38892">
        <ele>86.4</ele>
        <time>2015-02-09T20:20:07.505Z</time>
      </trkpt>
      <trkpt lat="48.8289" lon="2.38881">
        <ele>86.4</ele>
        <time>2015-02-09T20:20:09.528Z</time>
      </trkpt>
      <trkpt lat="48.82888" lon="2.38875">
        <ele>86.5</ele>
        <time>2015-02-09T20:20:10.546Z</time>
      </trkpt>
      <trkpt lat="48.82885" lon="2.38869">
        <ele>86.3</ele>
        <time>2015-02-09T20:20:11.512Z</time>
      </trkpt>
      <trkpt lat="48.82883" lon="2.38863">
        <ele>86.3</ele>
        <time>2015-02-09T20:20:12.531Z</time>
      </trkpt>
      <trkpt lat="48.8288" lon="2.38858">
        <ele>86.2</ele>
        <time>2015-02-09T20:20:13.548Z</time>
      </trkpt>
      <trkpt lat="48.82877" lon="2.38851">
        <ele>86.4</ele>
        <time>2015-02-09T20:20:14.484Z</time>
      </trkpt>
      <trkpt lat="48.82875" lon="2.38845">
        <ele>86.4</ele>
        <time>2015-02-09T20:20:15.472Z</time>
      </trkpt>
      <trkpt lat="48.82872" lon="2.38838">
        <ele>86.4</ele>
        <time>2015-02-09T20:20:16.466Z</time>
      </trkpt>
      <trkpt lat="48.82869" lon="2.38833">
        <ele>86.5</ele>
        <time>2015-02-09T20:20:17.478Z</time>
      </trkpt>
      <trkpt lat="48.82866" lon="2.38827">
        <ele>86.6</ele>
        <time>2015-02-09T20:20:18.486Z</time>
      </trkpt>
      <trkpt lat="48.82863" lon="2.38822">
        <ele>86.5</ele>
        <time>2015-02-09T20:20:19.515Z</time>
      </trkpt>
      <trkpt lat="48.8286" lon="2.38816">
        <ele>86.5</ele>
        <time>2015-02-09T20:20:20.518Z</time>
      </trkpt>
      <trkpt lat="48.82857" lon="2.3881">
        <ele>86.6</ele>
        <time>2015-02-09T20:20:21.528Z</time>
      </trkpt>
      <trkpt lat="48.82855" lon="2.38804">
        <ele>86.6</ele>
        <time>2015-02-09T20:20:22.542Z</time>
      </trkpt>
      <trkpt lat="48.82852" lon="2.38798">
        <ele>86.3</ele>
        <time>2015-02-09T20:20:23.565Z</time>
      </trkpt>
      <trkpt lat="48.82849" lon="2.38792">
        <ele>86.1</ele>
        <time>2015-02-09T20:20:24.468Z</time>
      </trkpt>
      <trkpt lat="48.82846" lon="2.38787">
        <ele>85.6</ele>
        <time>2015-02-09T20:20:25.513Z</time>
      </trkpt>
      <trkpt lat="48.82844" lon="2.38781">
        <ele>85.4</ele>
        <time>2015-02-09T20:20:26.510Z</time>
      </trkpt>
      <trkpt lat="48.8284" lon="2.38776">
        <ele>85.7</ele>
        <time>2015-02-09T20:20:27.523Z</time>
      </trkpt>
      <trkpt lat="48.82837" lon="2.3877">
        <ele>85.8</ele>
        <time>2015-02-09T20:20:28.522Z</time>
      </trkpt>
      <trkpt lat="48.82832" lon="2.38759">
        <ele>86.1</ele>
        <time>2015-02-09T20:20:30.541Z</time>
      </trkpt>
      <trkpt lat="48.82829" lon="2.38754">
        <ele>86.1</ele>
        <time>2015-02-09T20:20:31.551Z</time>
      </trkpt>
      <trkpt lat="48.82824" lon="2.38744">
        <ele>86.1</ele>
        <time>2015-02-09T20:20:33.474Z</time>
      </trkpt>
      <trkpt lat="48.82821" lon="2.38739">
        <ele>86.2</ele>
        <time>2015-02-09T20:20:34.482Z</time>
      </trkpt>
      <trkpt lat="48.82816" lon="2.38729">
        <ele>85.7</ele>
        <time>2015-02-09T20:20:36.500Z</time>
      </trkpt>
      <trkpt lat="48.82814" lon="2.38723">
        <ele>85.4</ele>
        <time>2015-02-09T20:20:37.504Z</time>
      </trkpt>
      <trkpt lat="48.82811" lon="2.38717">
        <ele>85.7</ele>
        <time>2015-02-09T20:20:38.472Z</time>
      </trkpt>
      <trkpt lat="48.82808" lon="2.38712">
        <ele>85.6</ele>
        <time>2015-02-09T20:20:39.471Z</time>
      </trkpt>
      <trkpt lat="48.82805" lon="2.38706">
        <ele>85.6</ele>
        <time>2015-02-09T20:20:40.480Z</time>
      </trkpt>
      <trkpt lat="48.82803" lon="2.387">
        <ele>85.8</ele>
        <time>2015-02-09T20:20:41.487Z</time>
      </trkpt>
      <trkpt lat="48.82798" lon="2.3869">
        <ele>86.2</ele>
        <time>2015-02-09T20:20:43.514Z</time>
      </trkpt>
      <trkpt lat="48.82795" lon="2.38685">
        <ele>86.4</ele>
        <time>2015-02-09T20:20:44.564Z</time>
      </trkpt>
      <trkpt lat="48.82792" lon="2.38679">
        <ele>86.6</ele>
        <time>2015-02-09T20:20:45.470Z</time>
      </trkpt>
      <trkpt lat="48.82789" lon="2.38673">
        <ele>86.5</ele>
        <time>2015-02-09T20:20:46.472Z</time>
      </trkpt>
      <trkpt lat="48.82786" lon="2.38667">
        <ele>86.5</ele>
        <time>2015-02-09T20:20:47.486Z</time>
      </trkpt>
      <trkpt lat="48.82783" lon="2.38661">
        <ele>86.6</ele>
        <time>2015-02-09T20:20:48.502Z</time>
      </trkpt>
      <trkpt lat="48.82781" lon="2.38655">
        <ele>86.4</ele>
        <time>2015-02-09T20:20:49.529Z</time>
      </trkpt>
      <trkpt lat="48.82778" lon="2.3865">
        <ele>86.1</ele>
        <time>2015-02-09T20:20:50.539Z</time>
      </trkpt>
      <trkpt lat="48.82776" lon="2.38644">
        <ele>86.1</ele>
        <time>2015-02-09T20:20:51.544Z</time>
      </trkpt>
      <trkpt lat="48.82773" lon="2.38637">
        <ele>85.9</ele>
        <time>2015-02-09T20:20:52.547Z</time>
      </trkpt>
      <trkpt lat="48.8277" lon="2.38631">
        <ele>85.9</ele>
        <time>2015-02-09T20:20:53.560Z</time>
      </trkpt>
      <trkpt lat="48.82767" lon="2.38625">
        <ele>85.9</ele>
        <time>2015-02-09T20:20:54.482Z</time>
      </trkpt>
      <trkpt lat="48.82764" lon="2.38619">
        <ele>85.6</ele>
        <time>2015-02-09T20:20:55.540Z</time>
      </trkpt>
      <trkpt lat="48.82761" lon="2.38613">
        <ele>85.6</ele>
        <time>2015-02-09T20:20:56.546Z</time>
      </trkpt>
      <trkpt lat="48.82759" lon="2.38606">
        <ele>85.1</ele>
        <time>2015-02-09T20:20:57.549Z</time>
      </trkpt>
      <trkpt lat="48.82756" lon="2.386">
        <ele>84.9</ele>
        <time>2015-02-09T20:20:58.560Z</time>
      </trkpt>
      <trkpt lat="48.82751" lon="2.38589">
        <ele>85.1</ele>
        <time>2015-02-09T20:21:00.471Z</time>
      </trkpt>
      <trkpt lat="48.82748" lon="2.38584">
        <ele>85.5</ele>
        <time>2015-02-09T20:21:01.530Z</time>
      </trkpt>
      <trkpt lat="48.82745" lon="2.38578">
        <ele>85.9</ele>
        <time>2015-02-09T20:21:02.484Z</time>
      </trkpt>
      <trkpt lat="48.82742" lon="2.38573">
        <ele>86.1</ele>
        <time>2015-02-09T20:21:03.478Z</time>
      </trkpt>
      <trkpt lat="48.8274" lon="2.38567">
        <ele>86.2</ele>
        <time>2015-02-09T20:21:04.513Z</time>
      </trkpt>
      <trkpt lat="48.82736" lon="2.38562">
        <ele>86.3</ele>
        <time>2015-02-09T20:21:05.558Z</time>
      </trkpt>
      <trkpt lat="48.82733" lon="2.38556">
        <ele>86.6</ele>
        <time>2015-02-09T20:21:06.473Z</time>
      </trkpt>
      <trkpt lat="48.82731" lon="2.3855">
        <ele>86.8</ele>
        <time>2015-02-09T20:21:07.511Z</time>
      </trkpt>
      <trkpt lat="48.82726" lon="2.38539">
        <ele>86.6</ele>
        <time>2015-02-09T20:21:09.552Z</time>
      </trkpt>
      <trkpt lat="48.82724" lon="2.38533">
        <ele>86.6</ele>
        <time>2015-02-09T20:21:10.562Z</time>
      </trkpt>
      <trkpt lat="48.82719" lon="2.38522">
        <ele>87.3</ele>
        <time>2015-02-09T20:21:12.455Z</time>
      </trkpt>
      <trkpt lat="48.82715" lon="2.38517">
        <ele>87.1</ele>
        <time>2015-02-09T20:21:13.463Z</time>
      </trkpt>
      <trkpt lat="48.8271" lon="2.38507">
        <ele>86.5</ele>
        <time>2015-02-09T20:21:15.519Z</time>
      </trkpt>
      <trkpt lat="48.82708" lon="2.38502">
        <ele>86.4</ele>
        <time>2015-02-09T20:21:16.567Z</time>
      </trkpt>
      <trkpt lat="48.82705" lon="2.38496">
        <ele>86.4</ele>
        <time>2015-02-09T20:21:17.466Z</time>
      </trkpt>
      <trkpt lat="48.82702" lon="2.3849">
        <ele>86.4</ele>
        <time>2015-02-09T20:21:18.481Z</time>
      </trkpt>
      <trkpt lat="48.82697" lon="2.38479">
        <ele>86.9</ele>
        <time>2015-02-09T20:21:20.517Z</time>
      </trkpt>
      <trkpt lat="48.82695" lon="2.38474">
        <ele>86.8</ele>
        <time>2015-02-09T20:21:21.607Z</time>
      </trkpt>
      <trkpt lat="48.82692" lon="2.38467">
        <ele>86.4</ele>
        <time>2015-02-09T20:21:22.466Z</time>
      </trkpt>
      <trkpt lat="48.82689" lon="2.38461">
        <ele>86.4</ele>
        <time>2015-02-09T20:21:23.468Z</time>
      </trkpt>
      <trkpt lat="48.82683" lon="2.38451">
        <ele>86.7</ele>
        <time>2015-02-09T20:21:26.177Z</time>
      </trkpt>
      <trkpt lat="48.8268" lon="2.38446">
        <ele>86.7</ele>
        <time>2015-02-09T20:21:26.516Z</time>
      </trkpt>
      <trkpt lat="48.82675" lon="2.38435">
        <ele>86.6</ele>
        <time>2015-02-09T20:21:28.532Z</time>
      </trkpt>
      <trkpt lat="48.82672" lon="2.38429">
        <ele>86.7</ele>
        <time>2015-02-09T20:21:29.542Z</time>
      </trkpt>
      <trkpt lat="48.82667" lon="2.38419">
        <ele>86.9</ele>
        <time>2015-02-09T20:21:31.477Z</time>
      </trkpt>
      <trkpt lat="48.82664" lon="2.38414">
        <ele>87</ele>
        <time>2015-02-09T20:21:32.486Z</time>
      </trkpt>
      <trkpt lat="48.8266" lon="2.38403">
        <ele>86.9</ele>
        <time>2015-02-09T20:21:34.514Z</time>
      </trkpt>
      <trkpt lat="48.82657" lon="2.38397">
        <ele>87.1</ele>
        <time>2015-02-09T20:21:35.515Z</time>
      </trkpt>
      <trkpt lat="48.82654" lon="2.38386">
        <ele>87.5</ele>
        <time>2015-02-09T20:21:38.139Z</time>
      </trkpt>
      <trkpt lat="48.82653" lon="2.38381">
        <ele>87.5</ele>
        <time>2015-02-09T20:21:38.452Z</time>
      </trkpt>
      <trkpt lat="48.8265" lon="2.3837">
        <ele>87.9</ele>
        <time>2015-02-09T20:21:40.498Z</time>
      </trkpt>
      <trkpt lat="48.82648" lon="2.38364">
        <ele>88.1</ele>
        <time>2015-02-09T20:21:41.523Z</time>
      </trkpt>
      <trkpt lat="48.82646" lon="2.38358">
        <ele>88.2</ele>
        <time>2015-02-09T20:21:43.171Z</time>
      </trkpt>
      <trkpt lat="48.82644" lon="2.38351">
        <ele>88.4</ele>
        <time>2015-02-09T20:21:43.491Z</time>
      </trkpt>
      <trkpt lat="48.82642" lon="2.38346">
        <ele>88.7</ele>
        <time>2015-02-09T20:21:44.487Z</time>
      </trkpt>
      <trkpt lat="48.82638" lon="2.38341">
        <ele>88.9</ele>
        <time>2015-02-09T20:21:45.495Z</time>
      </trkpt>
      <trkpt lat="48.82635" lon="2.38335">
        <ele>89.4</ele>
        <time>2015-02-09T20:21:46.510Z</time>
      </trkpt>
      <trkpt lat="48.82632" lon="2.38328">
        <ele>89.8</ele>
        <time>2015-02-09T20:21:47.516Z</time>
      </trkpt>
      <trkpt lat="48.82629" lon="2.38321">
        <ele>90.1</ele>
        <time>2015-02-09T20:21:48.528Z</time>
      </trkpt>
      <trkpt lat="48.82626" lon="2.38315">
        <ele>90.7</ele>
        <time>2015-02-09T20:21:49.579Z</time>
      </trkpt>
      <trkpt lat="48.82624" lon="2.38309">
        <ele>91.1</ele>
        <time>2015-02-09T20:21:50.462Z</time>
      </trkpt>
      <trkpt lat="48.82622" lon="2.38302">
        <ele>91.6</ele>
        <time>2015-02-09T20:21:51.469Z</time>
      </trkpt>
      <trkpt lat="48.82618" lon="2.3829">
        <ele>92.6</ele>
        <time>2015-02-09T20:21:53.475Z</time>
      </trkpt>
      <trkpt lat="48.82616" lon="2.38285">
        <ele>93.2</ele>
        <time>2015-02-09T20:21:54.495Z</time>
      </trkpt>
      <trkpt lat="48.82612" lon="2.38275">
        <ele>94.1</ele>
        <time>2015-02-09T20:21:56.520Z</time>
      </trkpt>
      <trkpt lat="48.8261" lon="2.38271">
        <ele>94.5</ele>
        <time>2015-02-09T20:21:57.528Z</time>
      </trkpt>
      <trkpt lat="48.82606" lon="2.3826">
        <ele>94.9</ele>
        <time>2015-02-09T20:22:00.514Z</time>
      </trkpt>
      <trkpt lat="48.82605" lon="2.38259">
        <ele>95.1</ele>
        <time>2015-02-09T20:22:01.489Z</time>
      </trkpt>
      <trkpt lat="48.82598" lon="2.38256">
        <ele>95.2</ele>
        <time>2015-02-09T20:22:05.632Z</time>
      </trkpt>
      <trkpt lat="48.82596" lon="2.38255">
        <ele>94.9</ele>
        <time>2015-02-09T20:22:06.491Z</time>
      </trkpt>
      <trkpt lat="48.82589" lon="2.38251">
        <ele>95</ele>
        <time>2015-02-09T20:22:09.517Z</time>
      </trkpt>
      <trkpt lat="48.82586" lon="2.38249">
        <ele>95.1</ele>
        <time>2015-02-09T20:22:10.541Z</time>
      </trkpt>
      <trkpt lat="48.82579" lon="2.38245">
        <ele>94.6</ele>
        <time>2015-02-09T20:22:13.591Z</time>
      </trkpt>
      <trkpt lat="48.82575" lon="2.38243">
        <ele>94.6</ele>
        <time>2015-02-09T20:22:13.631Z</time>
      </trkpt>
      <trkpt lat="48.82571" lon="2.38236">
        <ele>95.2</ele>
        <time>2015-02-09T20:22:15.466Z</time>
      </trkpt>
      <trkpt lat="48.82571" lon="2.38229">
        <ele>95.3</ele>
        <time>2015-02-09T20:22:16.505Z</time>
      </trkpt>
      <trkpt lat="48.82574" lon="2.38221">
        <ele>95.6</ele>
        <time>2015-02-09T20:22:17.521Z</time>
      </trkpt>
      <trkpt lat="48.82578" lon="2.38211">
        <ele>96.1</ele>
        <time>2015-02-09T20:22:18.533Z</time>
      </trkpt>
      <trkpt lat="48.82583" lon="2.38202">
        <ele>96.1</ele>
        <time>2015-02-09T20:22:19.561Z</time>
      </trkpt>
      <trkpt lat="48.82583" lon="2.38198">
        <ele>96.2</ele>
        <time>2015-02-09T20:22:20.607Z</time>
      </trkpt>
      <trkpt lat="48.82586" lon="2.38185">
        <ele>94.9</ele>
        <time>2015-02-09T20:22:53.514Z</time>
      </trkpt>
      <trkpt lat="48.82586" lon="2.3818">
        <ele>94.7</ele>
        <time>2015-02-09T20:22:53.547Z</time>
      </trkpt>
      <trkpt lat="48.82585" lon="2.38171">
        <ele>94.7</ele>
        <time>2015-02-09T20:22:55.518Z</time>
      </trkpt>
      <trkpt lat="48.82585" lon="2.38166">
        <ele>94.4</ele>
        <time>2015-02-09T20:22:56.521Z</time>
      </trkpt>
      <trkpt lat="48.82585" lon="2.38155">
        <ele>93.6</ele>
        <time>2015-02-09T20:22:59.480Z</time>
      </trkpt>
      <trkpt lat="48.82584" lon="2.38151">
        <ele>93.5</ele>
        <time>2015-02-09T20:23:00.458Z</time>
      </trkpt>
      <trkpt lat="48.8258" lon="2.38141">
        <ele>93.6</ele>
        <time>2015-02-09T20:23:02.528Z</time>
      </trkpt>
      <trkpt lat="48.82578" lon="2.38136">
        <ele>93.5</ele>
        <time>2015-02-09T20:23:03.546Z</time>
      </trkpt>
      <trkpt lat="48.82574" lon="2.38125">
        <ele>93.1</ele>
        <time>2015-02-09T20:23:05.475Z</time>
      </trkpt>
      <trkpt lat="48.82572" lon="2.38119">
        <ele>93.1</ele>
        <time>2015-02-09T20:23:06.507Z</time>
      </trkpt>
      <trkpt lat="48.82569" lon="2.38107">
        <ele>92.8</ele>
        <time>2015-02-09T20:23:08.915Z</time>
      </trkpt>
      <trkpt lat="48.82567" lon="2.38102">
        <ele>92.9</ele>
        <time>2015-02-09T20:23:09.474Z</time>
      </trkpt>
      <trkpt lat="48.82563" lon="2.38092">
        <ele>92.8</ele>
        <time>2015-02-09T20:23:11.545Z</time>
      </trkpt>
      <trkpt lat="48.82561" lon="2.38087">
        <ele>93</ele>
        <time>2015-02-09T20:23:12.565Z</time>
      </trkpt>
      <trkpt lat="48.82557" lon="2.38077">
        <ele>93</ele>
        <time>2015-02-09T20:23:14.504Z</time>
      </trkpt>
      <trkpt lat="48.82555" lon="2.38072">
        <ele>93.2</ele>
        <time>2015-02-09T20:23:15.566Z</time>
      </trkpt>
      <trkpt lat="48.82551" lon="2.38063">
        <ele>92.9</ele>
        <time>2015-02-09T20:23:17.477Z</time>
      </trkpt>
      <trkpt lat="48.82548" lon="2.38058">
        <ele>92.7</ele>
        <time>2015-02-09T20:23:18.496Z</time>
      </trkpt>
      <trkpt lat="48.82543" lon="2.3805">
        <ele>92.8</ele>
        <time>2015-02-09T20:23:20.534Z</time>
      </trkpt>
      <trkpt lat="48.82542" lon="2.38046">
        <ele>92.7</ele>
        <time>2015-02-09T20:23:21.556Z</time>
      </trkpt>
      <trkpt lat="48.8254" lon="2.38036">
        <ele>92.7</ele>
        <time>2015-02-09T20:23:23.454Z</time>
      </trkpt>
      <trkpt lat="48.82539" lon="2.38031">
        <ele>92.8</ele>
        <time>2015-02-09T20:23:24.500Z</time>
      </trkpt>
      <trkpt lat="48.82536" lon="2.38021">
        <ele>93</ele>
        <time>2015-02-09T20:23:26.532Z</time>
      </trkpt>
      <trkpt lat="48.82535" lon="2.38016">
        <ele>93.1</ele>
        <time>2015-02-09T20:23:27.551Z</time>
      </trkpt>
      <trkpt lat="48.82532" lon="2.38005">
        <ele>93.4</ele>
        <time>2015-02-09T20:23:29.477Z</time>
      </trkpt>
      <trkpt lat="48.8253" lon="2.38">
        <ele>93.5</ele>
        <time>2015-02-09T20:23:30.512Z</time>
      </trkpt>
      <trkpt lat="48.82527" lon="2.37994">
        <ele>93.8</ele>
        <time>2015-02-09T20:23:31.525Z</time>
      </trkpt>
      <trkpt lat="48.82524" lon="2.37988">
        <ele>93.9</ele>
        <time>2015-02-09T20:23:32.551Z</time>
      </trkpt>
      <trkpt lat="48.82519" lon="2.37978">
        <ele>94.9</ele>
        <time>2015-02-09T20:23:34.470Z</time>
      </trkpt>
      <trkpt lat="48.82517" lon="2.37974">
        <ele>95.4</ele>
        <time>2015-02-09T20:23:35.502Z</time>
      </trkpt>
      <trkpt lat="48.82511" lon="2.37968">
        <ele>96.6</ele>
        <time>2015-02-09T20:23:37.558Z</time>
      </trkpt>
      <trkpt lat="48.82508" lon="2.37962">
        <ele>97.1</ele>
        <time>2015-02-09T20:23:38.471Z</time>
      </trkpt>
      <trkpt lat="48.82505" lon="2.37957">
        <ele>97.6</ele>
        <time>2015-02-09T20:23:39.505Z</time>
      </trkpt>
      <trkpt lat="48.82501" lon="2.37951">
        <ele>98.1</ele>
        <time>2015-02-09T20:23:40.463Z</time>
      </trkpt>
      <trkpt lat="48.82498" lon="2.37945">
        <ele>98.6</ele>
        <time>2015-02-09T20:23:41.502Z</time>
      </trkpt>
      <trkpt lat="48.82495" lon="2.37939">
        <ele>99</ele>
        <time>2015-02-09T20:23:42.509Z</time>
      </trkpt>
      <trkpt lat="48.82491" lon="2.37933">
        <ele>99.5</ele>
        <time>2015-02-09T20:23:43.521Z</time>
      </trkpt>
      <trkpt lat="48.82488" lon="2.37927">
        <ele>99.9</ele>
        <time>2015-02-09T20:23:44.437Z</time>
      </trkpt>
      <trkpt lat="48.82486" lon="2.37919">
        <ele>100.3</ele>
        <time>2015-02-09T20:23:45.456Z</time>
      </trkpt>
      <trkpt lat="48.82484" lon="2.37912">
        <ele>100.9</ele>
        <time>2015-02-09T20:23:46.468Z</time>
      </trkpt>
      <trkpt lat="48.82481" lon="2.37904">
        <ele>101.4</ele>
        <time>2015-02-09T20:23:47.514Z</time>
      </trkpt>
      <trkpt lat="48.82479" lon="2.37898">
        <ele>102.2</ele>
        <time>2015-02-09T20:23:48.525Z</time>
      </trkpt>
      <trkpt lat="48.82476" lon="2.37891">
        <ele>102.7</ele>
        <time>2015-02-09T20:23:49.548Z</time>
      </trkpt>
      <trkpt lat="48.82473" lon="2.37885">
        <ele>103.1</ele>
        <time>2015-02-09T20:23:50.453Z</time>
      </trkpt>
      <trkpt lat="48.8247" lon="2.37879">
        <ele>103.5</ele>
        <time>2015-02-09T20:23:51.522Z</time>
      </trkpt>
      <trkpt lat="48.82467" lon="2.37872">
        <ele>103.1</ele>
        <time>2015-02-09T20:23:52.545Z</time>
      </trkpt>
      <trkpt lat="48.82465" lon="2.37866">
        <ele>103.4</ele>
        <time>2015-02-09T20:23:53.554Z</time>
      </trkpt>
      <trkpt lat="48.82463" lon="2.3786">
        <ele>103.6</ele>
        <time>2015-02-09T20:23:54.455Z</time>
      </trkpt>
      <trkpt lat="48.82461" lon="2.37854">
        <ele>103.8</ele>
        <time>2015-02-09T20:23:55.493Z</time>
      </trkpt>
      <trkpt lat="48.82458" lon="2.37846">
        <ele>103.7</ele>
        <time>2015-02-09T20:23:56.498Z</time>
      </trkpt>
      <trkpt lat="48.82456" lon="2.37839">
        <ele>103.9</ele>
        <time>2015-02-09T20:23:57.543Z</time>
      </trkpt>
      <trkpt lat="48.82453" lon="2.37832">
        <ele>103.9</ele>
        <time>2015-02-09T20:23:58.548Z</time>
      </trkpt>
      <trkpt lat="48.8245" lon="2.37825">
        <ele>104</ele>
        <time>2015-02-09T20:23:59.455Z</time>
      </trkpt>
      <trkpt lat="48.82448" lon="2.37818">
        <ele>103.6</ele>
        <time>2015-02-09T20:24:00.446Z</time>
      </trkpt>
      <trkpt lat="48.82446" lon="2.3781">
        <ele>103.2</ele>
        <time>2015-02-09T20:24:01.526Z</time>
      </trkpt>
      <trkpt lat="48.82443" lon="2.37804">
        <ele>103.2</ele>
        <time>2015-02-09T20:24:02.529Z</time>
      </trkpt>
      <trkpt lat="48.82442" lon="2.37797">
        <ele>103</ele>
        <time>2015-02-09T20:24:03.455Z</time>
      </trkpt>
      <trkpt lat="48.82441" lon="2.3779">
        <ele>102.9</ele>
        <time>2015-02-09T20:24:04.453Z</time>
      </trkpt>
      <trkpt lat="48.8244" lon="2.37783">
        <ele>102.6</ele>
        <time>2015-02-09T20:24:05.460Z</time>
      </trkpt>
      <trkpt lat="48.82438" lon="2.37777">
        <ele>102.5</ele>
        <time>2015-02-09T20:24:06.504Z</time>
      </trkpt>
      <trkpt lat="48.82434" lon="2.37766">
        <ele>101.9</ele>
        <time>2015-02-09T20:24:08.448Z</time>
      </trkpt>
      <trkpt lat="48.82434" lon="2.37759">
        <ele>101.4</ele>
        <time>2015-02-09T20:24:09.462Z</time>
      </trkpt>
      <trkpt lat="48.82432" lon="2.37747">
        <ele>101.1</ele>
        <time>2015-02-09T20:24:11.474Z</time>
      </trkpt>
      <trkpt lat="48.82432" lon="2.37739">
        <ele>101</ele>
        <time>2015-02-09T20:24:12.489Z</time>
      </trkpt>
      <trkpt lat="48.82432" lon="2.37732">
        <ele>100.9</ele>
        <time>2015-02-09T20:24:13.498Z</time>
      </trkpt>
      <trkpt lat="48.82431" lon="2.37725">
        <ele>100.7</ele>
        <time>2015-02-09T20:24:14.574Z</time>
      </trkpt>
      <trkpt lat="48.8243" lon="2.37718">
        <ele>101.2</ele>
        <time>2015-02-09T20:24:15.458Z</time>
      </trkpt>
      <trkpt lat="48.8243" lon="2.37711">
        <ele>102</ele>
        <time>2015-02-09T20:24:16.457Z</time>
      </trkpt>
      <trkpt lat="48.8243" lon="2.37698">
        <ele>102</ele>
        <time>2015-02-09T20:24:19.519Z</time>
      </trkpt>
      <trkpt lat="48.82431" lon="2.37694">
        <ele>102</ele>
        <time>2015-02-09T20:24:20.541Z</time>
      </trkpt>
      <trkpt lat="48.82435" lon="2.37683">
        <ele>101.3</ele>
        <time>2015-02-09T20:24:35.470Z</time>
      </trkpt>
      <trkpt lat="48.82452" lon="2.37664">
        <ele>97</ele>
        <time>2015-02-09T20:24:36.525Z</time>
      </trkpt>
      <trkpt lat="48.82457" lon="2.37671">
        <ele>94.4</ele>
        <time>2015-02-09T20:24:38.441Z</time>
      </trkpt>
      <trkpt lat="48.82459" lon="2.37675">
        <ele>93.7</ele>
        <time>2015-02-09T20:24:39.448Z</time>
      </trkpt>
      <trkpt lat="48.82461" lon="2.37683">
        <ele>93.3</ele>
        <time>2015-02-09T20:24:41.411Z</time>
      </trkpt>
      <trkpt lat="48.82461" lon="2.37689">
        <ele>93.3</ele>
        <time>2015-02-09T20:24:42.454Z</time>
      </trkpt>
      <trkpt lat="48.82463" lon="2.37701">
        <ele>93.3</ele>
        <time>2015-02-09T20:24:44.533Z</time>
      </trkpt>
      <trkpt lat="48.82465" lon="2.37706">
        <ele>93.4</ele>
        <time>2015-02-09T20:24:45.443Z</time>
      </trkpt>
      <trkpt lat="48.82469" lon="2.37715">
        <ele>93.1</ele>
        <time>2015-02-09T20:24:47.524Z</time>
      </trkpt>
      <trkpt lat="48.82471" lon="2.37719">
        <ele>92.9</ele>
        <time>2015-02-09T20:24:48.506Z</time>
      </trkpt>
      <trkpt lat="48.82478" lon="2.37727">
        <ele>92.5</ele>
        <time>2015-02-09T20:24:50.530Z</time>
      </trkpt>
      <trkpt lat="48.8248" lon="2.37732">
        <ele>92.3</ele>
        <time>2015-02-09T20:24:51.540Z</time>
      </trkpt>
      <trkpt lat="48.82484" lon="2.3774">
        <ele>91.3</ele>
        <time>2015-02-09T20:24:53.459Z</time>
      </trkpt>
      <trkpt lat="48.82487" lon="2.37744">
        <ele>90.5</ele>
        <time>2015-02-09T20:24:54.468Z</time>
      </trkpt>
      <trkpt lat="48.82491" lon="2.37754">
        <ele>89.8</ele>
        <time>2015-02-09T20:24:56.490Z</time>
      </trkpt>
      <trkpt lat="48.82493" lon="2.3776">
        <ele>89.7</ele>
        <time>2015-02-09T20:24:57.504Z</time>
      </trkpt>
      <trkpt lat="48.82497" lon="2.37771">
        <ele>88.8</ele>
        <time>2015-02-09T20:24:59.445Z</time>
      </trkpt>
      <trkpt lat="48.82499" lon="2.37776">
        <ele>88.5</ele>
        <time>2015-02-09T20:25:00.481Z</time>
      </trkpt>
      <trkpt lat="48.82503" lon="2.37785">
        <ele>88.1</ele>
        <time>2015-02-09T20:25:02.502Z</time>
      </trkpt>
      <trkpt lat="48.82505" lon="2.3779">
        <ele>88.2</ele>
        <time>2015-02-09T20:25:03.514Z</time>
      </trkpt>
      <trkpt lat="48.8251" lon="2.378">
        <ele>88.2</ele>
        <time>2015-02-09T20:25:05.544Z</time>
      </trkpt>
      <trkpt lat="48.82513" lon="2.37806">
        <ele>88.2</ele>
        <time>2015-02-09T20:25:06.458Z</time>
      </trkpt>
      <trkpt lat="48.82517" lon="2.37816">
        <ele>88.1</ele>
        <time>2015-02-09T20:25:09.546Z</time>
      </trkpt>
      <trkpt lat="48.82519" lon="2.37818">
        <ele>88.2</ele>
        <time>2015-02-09T20:25:10.454Z</time>
      </trkpt>
      <trkpt lat="48.82524" lon="2.37822">
        <ele>88.5</ele>
        <time>2015-02-09T20:25:12.505Z</time>
      </trkpt>
      <trkpt lat="48.82527" lon="2.37823">
        <ele>88.6</ele>
        <time>2015-02-09T20:25:13.514Z</time>
      </trkpt>
      <trkpt lat="48.82534" lon="2.37824">
        <ele>89.1</ele>
        <time>2015-02-09T20:25:15.465Z</time>
      </trkpt>
      <trkpt lat="48.82537" lon="2.37826">
        <ele>89.7</ele>
        <time>2015-02-09T20:25:16.453Z</time>
      </trkpt>
      <trkpt lat="48.82543" lon="2.37828">
        <ele>91</ele>
        <time>2015-02-09T20:25:19.517Z</time>
      </trkpt>
      <trkpt lat="48.82546" lon="2.37829">
        <ele>91.2</ele>
        <time>2015-02-09T20:25:20.571Z</time>
      </trkpt>
      <trkpt lat="48.82554" lon="2.37828">
        <ele>91.4</ele>
        <time>2015-02-09T20:25:22.456Z</time>
      </trkpt>
      <trkpt lat="48.82557" lon="2.37828">
        <ele>91.5</ele>
        <time>2015-02-09T20:25:23.473Z</time>
      </trkpt>
      <trkpt lat="48.82563" lon="2.3783">
        <ele>91.4</ele>
        <time>2015-02-09T20:25:25.524Z</time>
      </trkpt>
      <trkpt lat="48.82568" lon="2.3783">
        <ele>90.8</ele>
        <time>2015-02-09T20:25:26.532Z</time>
      </trkpt>
      <trkpt lat="48.82573" lon="2.37831">
        <ele>90.5</ele>
        <time>2015-02-09T20:25:27.557Z</time>
      </trkpt>
      <trkpt lat="48.82578" lon="2.3783">
        <ele>90.4</ele>
        <time>2015-02-09T20:25:28.473Z</time>
      </trkpt>
      <trkpt lat="48.82586" lon="2.37826">
        <ele>89.9</ele>
        <time>2015-02-09T20:25:30.484Z</time>
      </trkpt>
      <trkpt lat="48.82589" lon="2.37826">
        <ele>89.5</ele>
        <time>2015-02-09T20:25:31.532Z</time>
      </trkpt>
      <trkpt lat="48.82596" lon="2.37826">
        <ele>89.3</ele>
        <time>2015-02-09T20:25:33.460Z</time>
      </trkpt>
      <trkpt lat="48.82604" lon="2.37826">
        <ele>89.6</ele>
        <time>2015-02-09T20:25:34.472Z</time>
      </trkpt>
      <trkpt lat="48.82613" lon="2.37823">
        <ele>89.1</ele>
        <time>2015-02-09T20:25:35.508Z</time>
      </trkpt>
      <trkpt lat="48.8262" lon="2.37824">
        <ele>88.9</ele>
        <time>2015-02-09T20:25:36.522Z</time>
      </trkpt>
      <trkpt lat="48.82625" lon="2.37826">
        <ele>89</ele>
        <time>2015-02-09T20:25:37.528Z</time>
      </trkpt>
      <trkpt lat="48.82632" lon="2.37829">
        <ele>89.4</ele>
        <time>2015-02-09T20:25:38.446Z</time>
      </trkpt>
      <trkpt lat="48.82637" lon="2.37833">
        <ele>89.6</ele>
        <time>2015-02-09T20:25:39.461Z</time>
      </trkpt>
      <trkpt lat="48.82642" lon="2.37837">
        <ele>89.8</ele>
        <time>2015-02-09T20:25:40.471Z</time>
      </trkpt>
      <trkpt lat="48.82646" lon="2.37843">
        <ele>90</ele>
        <time>2015-02-09T20:25:41.513Z</time>
      </trkpt>
      <trkpt lat="48.82649" lon="2.37846">
        <ele>90</ele>
        <time>2015-02-09T20:25:42.519Z</time>
      </trkpt>
      <trkpt lat="48.82771" lon="2.38083">
        <ele>93.4</ele>
        <time>2015-02-09T20:26:19.568Z</time>
      </trkpt>
      <trkpt lat="48.82774" lon="2.38095">
        <ele>93.5</ele>
        <time>2015-02-09T20:26:23.364Z</time>
      </trkpt>
      <trkpt lat="48.82776" lon="2.38096">
        <ele>92.8</ele>
        <time>2015-02-09T20:26:23.445Z</time>
      </trkpt>
      <trkpt lat="48.82778" lon="2.38096">
        <ele>92.7</ele>
        <time>2015-02-09T20:26:45.454Z</time>
      </trkpt>
      <trkpt lat="48.82759" lon="2.38083">
        <ele>128.2</ele>
        <time>2015-02-09T20:26:46.495Z</time>
      </trkpt>
      <trkpt lat="48.82753" lon="2.38074">
        <ele>132.8</ele>
        <time>2015-02-09T20:28:09.577Z</time>
      </trkpt>
      <trkpt lat="48.82746" lon="2.38085">
        <ele>118.6</ele>
        <time>2015-02-09T20:28:10.597Z</time>
      </trkpt>
      <trkpt lat="48.82754" lon="2.38091">
        <ele>117.4</ele>
        <time>2015-02-09T20:28:13.683Z</time>
      </trkpt>
      <trkpt lat="48.82758" lon="2.38091">
        <ele>116.9</ele>
        <time>2015-02-09T20:28:14.575Z</time>
      </trkpt>
      <trkpt lat="48.82764" lon="2.38095">
        <ele>116</ele>
        <time>2015-02-09T20:28:16.523Z</time>
      </trkpt>
      <trkpt lat="48.82767" lon="2.38099">
        <ele>116</ele>
        <time>2015-02-09T20:28:17.575Z</time>
      </trkpt>
      <trkpt lat="48.82774" lon="2.38102">
        <ele>115.2</ele>
        <time>2015-02-09T20:28:19.522Z</time>
      </trkpt>
      <trkpt lat="48.82776" lon="2.38105">
        <ele>114.8</ele>
        <time>2015-02-09T20:28:20.639Z</time>
      </trkpt>
      <trkpt lat="48.82781" lon="2.38115">
        <ele>113.8</ele>
        <time>2015-02-09T20:28:25.584Z</time>
      </trkpt>
      <trkpt lat="48.82781" lon="2.38116">
        <ele>113.9</ele>
        <time>2015-02-09T20:28:26.576Z</time>
      </trkpt>
      <trkpt lat="48.82775" lon="2.38113">
        <ele>111.7</ele>
        <time>2015-02-09T20:28:41.456Z</time>
      </trkpt>
      <trkpt lat="48.82771" lon="2.38104">
        <ele>111.2</ele>
        <time>2015-02-09T20:28:42.465Z</time>
      </trkpt>
      <trkpt lat="48.82778" lon="2.38096">
        <ele>110.9</ele>
        <time>2015-02-09T20:28:45.511Z</time>
      </trkpt>
      <trkpt lat="48.8278" lon="2.38091">
        <ele>110.7</ele>
        <time>2015-02-09T20:28:46.532Z</time>
      </trkpt>
      <trkpt lat="48.82788" lon="2.38086">
        <ele>111.1</ele>
        <time>2015-02-09T20:28:48.451Z</time>
      </trkpt>
      <trkpt lat="48.82792" lon="2.38084">
        <ele>111.2</ele>
        <time>2015-02-09T20:28:49.585Z</time>
      </trkpt>
      <trkpt lat="48.82801" lon="2.38084">
        <ele>111.2</ele>
        <time>2015-02-09T20:28:51.479Z</time>
      </trkpt>
      <trkpt lat="48.82804" lon="2.38085">
        <ele>111.5</ele>
        <time>2015-02-09T20:28:52.582Z</time>
      </trkpt>
      <trkpt lat="48.82807" lon="2.38073">
        <ele>111.7</ele>
        <time>2015-02-09T20:28:55.622Z</time>
      </trkpt>
      <trkpt lat="48.82806" lon="2.38067">
        <ele>111.6</ele>
        <time>2015-02-09T20:28:56.452Z</time>
      </trkpt>
      <trkpt lat="48.82811" lon="2.38056">
        <ele>111.7</ele>
        <time>2015-02-09T20:28:59.533Z</time>
      </trkpt>
      <trkpt lat="48.82815" lon="2.38055">
        <ele>111.8</ele>
        <time>2015-02-09T20:29:00.418Z</time>
      </trkpt>
      <trkpt lat="48.82821" lon="2.38046">
        <ele>110.9</ele>
        <time>2015-02-09T20:29:04.586Z</time>
      </trkpt>
      <trkpt lat="48.82823" lon="2.38042">
        <ele>111.1</ele>
        <time>2015-02-09T20:29:05.456Z</time>
      </trkpt>
      <trkpt lat="48.82823" lon="2.38042">
        <ele>111.1</ele>
        <time>2015-02-09T20:29:12.567Z</time>
      </trkpt>
      <trkpt lat="48.82849" lon="2.38012">
        <ele>109.3</ele>
        <time>2015-02-09T20:29:13.582Z</time>
      </trkpt>
      <trkpt lat="48.82854" lon="2.38007">
        <ele>108.7</ele>
        <time>2015-02-09T20:29:14.492Z</time>
      </trkpt>
      <trkpt lat="48.82859" lon="2.38002">
        <ele>108.1</ele>
        <time>2015-02-09T20:29:15.532Z</time>
      </trkpt>
      <trkpt lat="48.82863" lon="2.37998">
        <ele>107.4</ele>
        <time>2015-02-09T20:29:16.458Z</time>
      </trkpt>
      <trkpt lat="48.82866" lon="2.37995">
        <ele>106.8</ele>
        <time>2015-02-09T20:29:17.445Z</time>
      </trkpt>
      <trkpt lat="48.8287" lon="2.37993">
        <ele>106.5</ele>
        <time>2015-02-09T20:29:18.749Z</time>
      </trkpt>
      <trkpt lat="48.82875" lon="2.3799">
        <ele>106.2</ele>
        <time>2015-02-09T20:29:19.497Z</time>
      </trkpt>
      <trkpt lat="48.82881" lon="2.37987">
        <ele>106.4</ele>
        <time>2015-02-09T20:29:20.507Z</time>
      </trkpt>
      <trkpt lat="48.82887" lon="2.37983">
        <ele>106.5</ele>
        <time>2015-02-09T20:29:21.521Z</time>
      </trkpt>
      <trkpt lat="48.82893" lon="2.3798">
        <ele>106.8</ele>
        <time>2015-02-09T20:29:23.004Z</time>
      </trkpt>
      <trkpt lat="48.82897" lon="2.37977">
        <ele>107.6</ele>
        <time>2015-02-09T20:29:23.534Z</time>
      </trkpt>
      <trkpt lat="48.82903" lon="2.37974">
        <ele>108.5</ele>
        <time>2015-02-09T20:29:24.546Z</time>
      </trkpt>
      <trkpt lat="48.82907" lon="2.37972">
        <ele>108.8</ele>
        <time>2015-02-09T20:29:25.556Z</time>
      </trkpt>
      <trkpt lat="48.82914" lon="2.3797">
        <ele>109</ele>
        <time>2015-02-09T20:29:28.067Z</time>
      </trkpt>
      <trkpt lat="48.82918" lon="2.37968">
        <ele>108.8</ele>
        <time>2015-02-09T20:29:28.522Z</time>
      </trkpt>
      <trkpt lat="48.82923" lon="2.37962">
        <ele>107.9</ele>
        <time>2015-02-09T20:29:30.466Z</time>
      </trkpt>
      <trkpt lat="48.82927" lon="2.37957">
        <ele>107.5</ele>
        <time>2015-02-09T20:29:31.538Z</time>
      </trkpt>
      <trkpt lat="48.82933" lon="2.37948">
        <ele>106</ele>
        <time>2015-02-09T20:29:33.471Z</time>
      </trkpt>
      <trkpt lat="48.82937" lon="2.37944">
        <ele>105.4</ele>
        <time>2015-02-09T20:29:34.487Z</time>
      </trkpt>
      <trkpt lat="48.82941" lon="2.37941">
        <ele>105.8</ele>
        <time>2015-02-09T20:29:35.531Z</time>
      </trkpt>
      <trkpt lat="48.82946" lon="2.37937">
        <ele>106.3</ele>
        <time>2015-02-09T20:29:36.600Z</time>
      </trkpt>
      <trkpt lat="48.82951" lon="2.37933">
        <ele>107</ele>
        <time>2015-02-09T20:29:38.194Z</time>
      </trkpt>
      <trkpt lat="48.82955" lon="2.37932">
        <ele>107.2</ele>
        <time>2015-02-09T20:29:38.473Z</time>
      </trkpt>
      <trkpt lat="48.8296" lon="2.3793">
        <ele>107.8</ele>
        <time>2015-02-09T20:29:40.485Z</time>
      </trkpt>
      <trkpt lat="48.82964" lon="2.37928">
        <ele>108.8</ele>
        <time>2015-02-09T20:29:41.587Z</time>
      </trkpt>
      <trkpt lat="48.82971" lon="2.3792">
        <ele>109.6</ele>
        <time>2015-02-09T20:29:43.513Z</time>
      </trkpt>
      <trkpt lat="48.82974" lon="2.37915">
        <ele>110.1</ele>
        <time>2015-02-09T20:29:44.521Z</time>
      </trkpt>
      <trkpt lat="48.82979" lon="2.37907">
        <ele>110.9</ele>
        <time>2015-02-09T20:29:46.546Z</time>
      </trkpt>
      <trkpt lat="48.82981" lon="2.37904">
        <ele>111</ele>
        <time>2015-02-09T20:29:47.559Z</time>
      </trkpt>
      <trkpt lat="48.82986" lon="2.37902">
        <ele>110.9</ele>
        <time>2015-02-09T20:29:48.445Z</time>
      </trkpt>
      <trkpt lat="48.82992" lon="2.37898">
        <ele>110.2</ele>
        <time>2015-02-09T20:29:49.513Z</time>
      </trkpt>
      <trkpt lat="48.82998" lon="2.37893">
        <ele>109.9</ele>
        <time>2015-02-09T20:29:50.519Z</time>
      </trkpt>
      <trkpt lat="48.83005" lon="2.37887">
        <ele>110.2</ele>
        <time>2015-02-09T20:29:51.520Z</time>
      </trkpt>
      <trkpt lat="48.83014" lon="2.37881">
        <ele>110.7</ele>
        <time>2015-02-09T20:29:52.532Z</time>
      </trkpt>
      <trkpt lat="48.83023" lon="2.37874">
        <ele>111.3</ele>
        <time>2015-02-09T20:29:53.538Z</time>
      </trkpt>
      <trkpt lat="48.83023" lon="2.37874">
        <ele>111.3</ele>
        <time>2015-02-09T20:29:53.359Z</time>
      </trkpt>
      <trkpt lat="48.83033" lon="2.37868">
        <ele>112</ele>
        <time>2015-02-09T20:29:54.555Z</time>
      </trkpt>
      <trkpt lat="48.83042" lon="2.3786">
        <ele>112.6</ele>
        <time>2015-02-09T20:29:55.587Z</time>
      </trkpt>
      <trkpt lat="48.83054" lon="2.37851">
        <ele>112.7</ele>
        <time>2015-02-09T20:29:56.469Z</time>
      </trkpt>
      <trkpt lat="48.8306" lon="2.37846">
        <ele>112.7</ele>
        <time>2015-02-09T20:29:58.352Z</time>
      </trkpt>
      <trkpt lat="48.83062" lon="2.37844">
        <ele>112.9</ele>
        <time>2015-02-09T20:29:58.500Z</time>
      </trkpt>
      <trkpt lat="48.83063" lon="2.37831">
        <ele>113.9</ele>
        <time>2015-02-09T20:30:02.500Z</time>
      </trkpt>
      <trkpt lat="48.83063" lon="2.37828">
        <ele>114.3</ele>
        <time>2015-02-09T20:30:03.505Z</time>
      </trkpt>
      <trkpt lat="48.83066" lon="2.37817">
        <ele>116.9</ele>
        <time>2015-02-09T20:30:05.436Z</time>
      </trkpt>
      <trkpt lat="48.83069" lon="2.37811">
        <ele>118.3</ele>
        <time>2015-02-09T20:30:06.502Z</time>
      </trkpt>
      <trkpt lat="48.83072" lon="2.37799">
        <ele>118.8</ele>
        <time>2015-02-09T20:30:09.457Z</time>
      </trkpt>
      <trkpt lat="48.83073" lon="2.37795">
        <ele>119.6</ele>
        <time>2015-02-09T20:30:10.467Z</time>
      </trkpt>
      <trkpt lat="48.8308" lon="2.37787">
        <ele>120.7</ele>
        <time>2015-02-09T20:30:13.532Z</time>
      </trkpt>
      <trkpt lat="48.83083" lon="2.37784">
        <ele>120.5</ele>
        <time>2015-02-09T20:30:14.443Z</time>
      </trkpt>
      <trkpt lat="48.83085" lon="2.3778">
        <ele>120.2</ele>
        <time>2015-02-09T20:30:15.562Z</time>
      </trkpt>
      <trkpt lat="48.83089" lon="2.37775">
        <ele>121.1</ele>
        <time>2015-02-09T20:30:16.472Z</time>
      </trkpt>
      <trkpt lat="48.83092" lon="2.37769">
        <ele>122.1</ele>
        <time>2015-02-09T20:30:17.499Z</time>
      </trkpt>
      <trkpt lat="48.83094" lon="2.37762">
        <ele>123.5</ele>
        <time>2015-02-09T20:30:18.516Z</time>
      </trkpt>
      <trkpt lat="48.83093" lon="2.37749">
        <ele>126.1</ele>
        <time>2015-02-09T20:30:22.479Z</time>
      </trkpt>
      <trkpt lat="48.83092" lon="2.37749">
        <ele>127.4</ele>
        <time>2015-02-09T20:30:23.461Z</time>
      </trkpt>
      <trkpt lat="48.83086" lon="2.37742">
        <ele>130</ele>
        <time>2015-02-09T20:30:28.518Z</time>
      </trkpt>
      <trkpt lat="48.83084" lon="2.3774">
        <ele>130</ele>
        <time>2015-02-09T20:30:29.466Z</time>
      </trkpt>
      <trkpt lat="48.83079" lon="2.37734">
        <ele>129.5</ele>
        <time>2015-02-09T20:30:31.496Z</time>
      </trkpt>
      <trkpt lat="48.83075" lon="2.37732">
        <ele>129.3</ele>
        <time>2015-02-09T20:30:32.517Z</time>
      </trkpt>
      <trkpt lat="48.83069" lon="2.37727">
        <ele>129.1</ele>
        <time>2015-02-09T20:30:34.468Z</time>
      </trkpt>
      <trkpt lat="48.83066" lon="2.37726">
        <ele>128.8</ele>
        <time>2015-02-09T20:30:35.474Z</time>
      </trkpt>
      <trkpt lat="48.83063" lon="2.37714">
        <ele>127.3</ele>
        <time>2015-02-09T20:30:38.560Z</time>
      </trkpt>
      <trkpt lat="48.83062" lon="2.37709">
        <ele>127.1</ele>
        <time>2015-02-09T20:30:39.472Z</time>
      </trkpt>
      <trkpt lat="48.83062" lon="2.37705">
        <ele>126.9</ele>
        <time>2015-02-09T20:30:44.479Z</time>
      </trkpt>
      <trkpt lat="48.8306" lon="2.37685">
        <ele>127.5</ele>
        <time>2015-02-09T20:30:45.526Z</time>
      </trkpt>
      <trkpt lat="48.83056" lon="2.37678">
        <ele>128.8</ele>
        <time>2015-02-09T20:30:47.472Z</time>
      </trkpt>
      <trkpt lat="48.83052" lon="2.37675">
        <ele>128.8</ele>
        <time>2015-02-09T20:30:48.497Z</time>
      </trkpt>
      <trkpt lat="48.83046" lon="2.37668">
        <ele>128.8</ele>
        <time>2015-02-09T20:30:50.511Z</time>
      </trkpt>
      <trkpt lat="48.83043" lon="2.37662">
        <ele>128.4</ele>
        <time>2015-02-09T20:30:51.438Z</time>
      </trkpt>
      <trkpt lat="48.8304" lon="2.37655">
        <ele>128.1</ele>
        <time>2015-02-09T20:30:52.466Z</time>
      </trkpt>
      <trkpt lat="48.83036" lon="2.37649">
        <ele>127.8</ele>
        <time>2015-02-09T20:30:53.477Z</time>
      </trkpt>
      <trkpt lat="48.83031" lon="2.37638">
        <ele>127.2</ele>
        <time>2015-02-09T20:30:55.510Z</time>
      </trkpt>
      <trkpt lat="48.83028" lon="2.37634">
        <ele>127</ele>
        <time>2015-02-09T20:30:56.514Z</time>
      </trkpt>
      <trkpt lat="48.83024" lon="2.37627">
        <ele>126.3</ele>
        <time>2015-02-09T20:30:57.543Z</time>
      </trkpt>
      <trkpt lat="48.8302" lon="2.37622">
        <ele>125.3</ele>
        <time>2015-02-09T20:30:58.459Z</time>
      </trkpt>
      <trkpt lat="48.83014" lon="2.37611">
        <ele>124.2</ele>
        <time>2015-02-09T20:31:00.476Z</time>
      </trkpt>
      <trkpt lat="48.83013" lon="2.37607">
        <ele>123.9</ele>
        <time>2015-02-09T20:31:01.529Z</time>
      </trkpt>
      <trkpt lat="48.83011" lon="2.37601">
        <ele>124.1</ele>
        <time>2015-02-09T20:31:02.461Z</time>
      </trkpt>
      <trkpt lat="48.83007" lon="2.37594">
        <ele>124.5</ele>
        <time>2015-02-09T20:31:03.554Z</time>
      </trkpt>
      <trkpt lat="48.83001" lon="2.37587">
        <ele>124.2</ele>
        <time>2015-02-09T20:31:04.459Z</time>
      </trkpt>
      <trkpt lat="48.82997" lon="2.37581">
        <ele>123.4</ele>
        <time>2015-02-09T20:31:05.458Z</time>
      </trkpt>
      <trkpt lat="48.82993" lon="2.37573">
        <ele>122.5</ele>
        <time>2015-02-09T20:31:06.467Z</time>
      </trkpt>
      <trkpt lat="48.82989" lon="2.37565">
        <ele>122.8</ele>
        <time>2015-02-09T20:31:07.500Z</time>
      </trkpt>
      <trkpt lat="48.82985" lon="2.37558">
        <ele>123.3</ele>
        <time>2015-02-09T20:31:08.501Z</time>
      </trkpt>
      <trkpt lat="48.82981" lon="2.37552">
        <ele>122.9</ele>
        <time>2015-02-09T20:31:09.517Z</time>
      </trkpt>
      <trkpt lat="48.82977" lon="2.37544">
        <ele>122.3</ele>
        <time>2015-02-09T20:31:10.536Z</time>
      </trkpt>
      <trkpt lat="48.82975" lon="2.37538">
        <ele>121.5</ele>
        <time>2015-02-09T20:31:11.545Z</time>
      </trkpt>
      <trkpt lat="48.82972" lon="2.37532">
        <ele>120.9</ele>
        <time>2015-02-09T20:31:12.563Z</time>
      </trkpt>
      <trkpt lat="48.8297" lon="2.37526">
        <ele>120.3</ele>
        <time>2015-02-09T20:31:13.483Z</time>
      </trkpt>
      <trkpt lat="48.82969" lon="2.37514">
        <ele>119.5</ele>
        <time>2015-02-09T20:31:17.450Z</time>
      </trkpt>
      <trkpt lat="48.82968" lon="2.37511">
        <ele>119.6</ele>
        <time>2015-02-09T20:31:18.482Z</time>
      </trkpt>
      <trkpt lat="48.82963" lon="2.375">
        <ele>120.1</ele>
        <time>2015-02-09T20:31:20.556Z</time>
      </trkpt>
      <trkpt lat="48.82962" lon="2.37496">
        <ele>119.9</ele>
        <time>2015-02-09T20:31:21.447Z</time>
      </trkpt>
      <trkpt lat="48.82959" lon="2.37489">
        <ele>119.6</ele>
        <time>2015-02-09T20:31:24.065Z</time>
      </trkpt>
      <trkpt lat="48.82957" lon="2.37485">
        <ele>119.5</ele>
        <time>2015-02-09T20:31:24.486Z</time>
      </trkpt>
      <trkpt lat="48.82954" lon="2.37477">
        <ele>119.2</ele>
        <time>2015-02-09T20:31:26.445Z</time>
      </trkpt>
      <trkpt lat="48.82952" lon="2.37473">
        <ele>119.1</ele>
        <time>2015-02-09T20:31:27.489Z</time>
      </trkpt>
      <trkpt lat="48.82948" lon="2.37467">
        <ele>118.9</ele>
        <time>2015-02-09T20:31:28.529Z</time>
      </trkpt>
      <trkpt lat="48.82941" lon="2.37462">
        <ele>118.3</ele>
        <time>2015-02-09T20:31:29.474Z</time>
      </trkpt>
      <trkpt lat="48.82936" lon="2.37459">
        <ele>118.4</ele>
        <time>2015-02-09T20:31:30.454Z</time>
      </trkpt>
      <trkpt lat="48.82932" lon="2.37457">
        <ele>117.9</ele>
        <time>2015-02-09T20:31:31.503Z</time>
      </trkpt>
      <trkpt lat="48.82926" lon="2.37452">
        <ele>117.4</ele>
        <time>2015-02-09T20:31:33.512Z</time>
      </trkpt>
      <trkpt lat="48.82923" lon="2.37447">
        <ele>117.4</ele>
        <time>2015-02-09T20:31:34.516Z</time>
      </trkpt>
      <trkpt lat="48.82917" lon="2.37443">
        <ele>116.9</ele>
        <time>2015-02-09T20:31:36.454Z</time>
      </trkpt>
      <trkpt lat="48.82913" lon="2.37442">
        <ele>117.1</ele>
        <time>2015-02-09T20:31:37.486Z</time>
      </trkpt>
      <trkpt lat="48.82909" lon="2.37441">
        <ele>117.1</ele>
        <time>2015-02-09T20:31:38.491Z</time>
      </trkpt>
      <trkpt lat="48.82904" lon="2.37442">
        <ele>118.1</ele>
        <time>2015-02-09T20:31:39.511Z</time>
      </trkpt>
      <trkpt lat="48.82899" lon="2.37444">
        <ele>119.1</ele>
        <time>2015-02-09T20:31:40.453Z</time>
      </trkpt>
      <trkpt lat="48.82893" lon="2.37444">
        <ele>119.4</ele>
        <time>2015-02-09T20:31:41.472Z</time>
      </trkpt>
      <trkpt lat="48.82885" lon="2.37446">
        <ele>120.1</ele>
        <time>2015-02-09T20:31:43.476Z</time>
      </trkpt>
      <trkpt lat="48.82882" lon="2.37448">
        <ele>120.2</ele>
        <time>2015-02-09T20:31:44.480Z</time>
      </trkpt>
      <trkpt lat="48.82878" lon="2.37453">
        <ele>120.4</ele>
        <time>2015-02-09T20:31:46.500Z</time>
      </trkpt>
      <trkpt lat="48.82874" lon="2.37456">
        <ele>120.4</ele>
        <time>2015-02-09T20:31:47.514Z</time>
      </trkpt>
      <trkpt lat="48.82866" lon="2.37455">
        <ele>118.9</ele>
        <time>2015-02-09T20:31:50.531Z</time>
      </trkpt>
      <trkpt lat="48.82864" lon="2.37452">
        <ele>118.6</ele>
        <time>2015-02-09T20:31:51.510Z</time>
      </trkpt>
      <trkpt lat="48.82861" lon="2.37442">
        <ele>119</ele>
        <time>2015-02-09T20:31:54.517Z</time>
      </trkpt>
      <trkpt lat="48.82859" lon="2.37436">
        <ele>118.7</ele>
        <time>2015-02-09T20:31:55.562Z</time>
      </trkpt>
      <trkpt lat="48.82856" lon="2.37426">
        <ele>118.7</ele>
        <time>2015-02-09T20:31:58.553Z</time>
      </trkpt>
      <trkpt lat="48.82854" lon="2.37423">
        <ele>118.9</ele>
        <time>2015-02-09T20:31:58.640Z</time>
      </trkpt>
      <trkpt lat="48.82852" lon="2.37413">
        <ele>119.3</ele>
        <time>2015-02-09T20:32:00.458Z</time>
      </trkpt>
      <trkpt lat="48.8285" lon="2.37409">
        <ele>119.5</ele>
        <time>2015-02-09T20:32:01.547Z</time>
      </trkpt>
      <trkpt lat="48.82846" lon="2.37402">
        <ele>119.7</ele>
        <time>2015-02-09T20:32:03.687Z</time>
      </trkpt>
      <trkpt lat="48.82845" lon="2.37397">
        <ele>119.6</ele>
        <time>2015-02-09T20:32:04.508Z</time>
      </trkpt>
      <trkpt lat="48.82841" lon="2.37387">
        <ele>118.9</ele>
        <time>2015-02-09T20:32:07.526Z</time>
      </trkpt>
      <trkpt lat="48.82841" lon="2.37383">
        <ele>118.8</ele>
        <time>2015-02-09T20:32:08.487Z</time>
      </trkpt>
      <trkpt lat="48.8284" lon="2.37374">
        <ele>119.2</ele>
        <time>2015-02-09T20:32:12.461Z</time>
      </trkpt>
      <trkpt lat="48.82833" lon="2.37368">
        <ele>120.2</ele>
        <time>2015-02-09T20:32:13.497Z</time>
      </trkpt>
      <trkpt lat="48.82828" lon="2.37365">
        <ele>120.2</ele>
        <time>2015-02-09T20:32:14.498Z</time>
      </trkpt>
      <trkpt lat="48.82822" lon="2.37363">
        <ele>119.8</ele>
        <time>2015-02-09T20:32:15.494Z</time>
      </trkpt>
      <trkpt lat="48.82817" lon="2.37355">
        <ele>119.6</ele>
        <time>2015-02-09T20:32:17.523Z</time>
      </trkpt>
      <trkpt lat="48.82816" lon="2.37353">
        <ele>119.8</ele>
        <time>2015-02-09T20:32:18.542Z</time>
      </trkpt>
      <trkpt lat="48.82816" lon="2.3735">
        <ele>120.2</ele>
        <time>2015-02-09T20:32:23.511Z</time>
      </trkpt>
      <trkpt lat="48.82819" lon="2.37337">
        <ele>120.6</ele>
        <time>2015-02-09T20:32:24.515Z</time>
      </trkpt>
      <trkpt lat="48.82821" lon="2.37327">
        <ele>121.1</ele>
        <time>2015-02-09T20:32:28.114Z</time>
      </trkpt>
      <trkpt lat="48.82823" lon="2.37324">
        <ele>121.3</ele>
        <time>2015-02-09T20:32:28.508Z</time>
      </trkpt>
      <trkpt lat="48.82827" lon="2.37318">
        <ele>122.4</ele>
        <time>2015-02-09T20:32:31.520Z</time>
      </trkpt>
      <trkpt lat="48.82829" lon="2.37314">
        <ele>122</ele>
        <time>2015-02-09T20:32:32.423Z</time>
      </trkpt>
      <trkpt lat="48.82831" lon="2.37311">
        <ele>121.5</ele>
        <time>2015-02-09T20:32:59.455Z</time>
      </trkpt>
      <trkpt lat="48.82852" lon="2.3729">
        <ele>120.6</ele>
        <time>2015-02-09T20:33:00.462Z</time>
      </trkpt>
      <trkpt lat="48.82855" lon="2.37278">
        <ele>121.5</ele>
        <time>2015-02-09T20:33:03.564Z</time>
      </trkpt>
      <trkpt lat="48.82855" lon="2.37275">
        <ele>121.6</ele>
        <time>2015-02-09T20:33:04.433Z</time>
      </trkpt>
      <trkpt lat="48.82859" lon="2.37266">
        <ele>121</ele>
        <time>2015-02-09T20:33:06.432Z</time>
      </trkpt>
      <trkpt lat="48.82862" lon="2.37261">
        <ele>120.3</ele>
        <time>2015-02-09T20:33:07.466Z</time>
      </trkpt>
      <trkpt lat="48.82868" lon="2.37253">
        <ele>120.5</ele>
        <time>2015-02-09T20:33:09.481Z</time>
      </trkpt>
      <trkpt lat="48.8287" lon="2.37248">
        <ele>121</ele>
        <time>2015-02-09T20:33:10.517Z</time>
      </trkpt>
      <trkpt lat="48.82869" lon="2.37238">
        <ele>121.5</ele>
        <time>2015-02-09T20:33:12.451Z</time>
      </trkpt>
      <trkpt lat="48.82868" lon="2.37232">
        <ele>121.6</ele>
        <time>2015-02-09T20:33:13.521Z</time>
      </trkpt>
      <trkpt lat="48.82867" lon="2.37225">
        <ele>121.8</ele>
        <time>2015-02-09T20:33:14.490Z</time>
      </trkpt>
      <trkpt lat="48.82866" lon="2.37218">
        <ele>121.7</ele>
        <time>2015-02-09T20:33:15.453Z</time>
      </trkpt>
      <trkpt lat="48.82863" lon="2.37206">
        <ele>121.7</ele>
        <time>2015-02-09T20:33:17.455Z</time>
      </trkpt>
      <trkpt lat="48.82863" lon="2.37202">
        <ele>121.7</ele>
        <time>2015-02-09T20:33:18.457Z</time>
      </trkpt>
      <trkpt lat="48.82863" lon="2.37194">
        <ele>121.4</ele>
        <time>2015-02-09T20:33:20.606Z</time>
      </trkpt>
      <trkpt lat="48.82862" lon="2.37188">
        <ele>121</ele>
        <time>2015-02-09T20:33:21.524Z</time>
      </trkpt>
      <trkpt lat="48.82858" lon="2.3718">
        <ele>120.3</ele>
        <time>2015-02-09T20:33:24.551Z</time>
      </trkpt>
      <trkpt lat="48.82856" lon="2.37177">
        <ele>120</ele>
        <time>2015-02-09T20:33:25.505Z</time>
      </trkpt>
      <trkpt lat="48.82851" lon="2.3717">
        <ele>119.4</ele>
        <time>2015-02-09T20:33:28.245Z</time>
      </trkpt>
      <trkpt lat="48.8285" lon="2.37166">
        <ele>119</ele>
        <time>2015-02-09T20:33:28.507Z</time>
      </trkpt>
      <trkpt lat="48.82847" lon="2.37155">
        <ele>118.2</ele>
        <time>2015-02-09T20:33:31.450Z</time>
      </trkpt>
      <trkpt lat="48.82847" lon="2.37151">
        <ele>118.4</ele>
        <time>2015-02-09T20:33:32.467Z</time>
      </trkpt>
      <trkpt lat="48.82844" lon="2.37138">
        <ele>118.2</ele>
        <time>2015-02-09T20:33:35.504Z</time>
      </trkpt>
      <trkpt lat="48.82844" lon="2.37135">
        <ele>118.2</ele>
        <time>2015-02-09T20:33:36.419Z</time>
      </trkpt>
      <trkpt lat="48.82841" lon="2.37123">
        <ele>118</ele>
        <time>2015-02-09T20:33:40.502Z</time>
      </trkpt>
      <trkpt lat="48.82839" lon="2.3712">
        <ele>118.2</ele>
        <time>2015-02-09T20:33:41.506Z</time>
      </trkpt>
      <trkpt lat="48.82837" lon="2.37111">
        <ele>117.6</ele>
        <time>2015-02-09T20:33:43.580Z</time>
      </trkpt>
      <trkpt lat="48.82835" lon="2.37106">
        <ele>117.3</ele>
        <time>2015-02-09T20:33:44.487Z</time>
      </trkpt>
      <trkpt lat="48.82832" lon="2.37097">
        <ele>117.6</ele>
        <time>2015-02-09T20:33:46.516Z</time>
      </trkpt>
      <trkpt lat="48.82831" lon="2.37093">
        <ele>118</ele>
        <time>2015-02-09T20:33:47.557Z</time>
      </trkpt>
      <trkpt lat="48.82826" lon="2.37083">
        <ele>118.2</ele>
        <time>2015-02-09T20:33:49.492Z</time>
      </trkpt>
      <trkpt lat="48.82825" lon="2.3708">
        <ele>118.5</ele>
        <time>2015-02-09T20:33:50.524Z</time>
      </trkpt>
      <trkpt lat="48.82829" lon="2.37071">
        <ele>118.2</ele>
        <time>2015-02-09T20:33:52.452Z</time>
      </trkpt>
      <trkpt lat="48.82831" lon="2.37067">
        <ele>118.1</ele>
        <time>2015-02-09T20:33:53.528Z</time>
      </trkpt>
      <trkpt lat="48.82835" lon="2.37062">
        <ele>117.4</ele>
        <time>2015-02-09T20:33:55.491Z</time>
      </trkpt>
      <trkpt lat="48.82838" lon="2.37059">
        <ele>117.4</ele>
        <time>2015-02-09T20:33:56.561Z</time>
      </trkpt>
      <trkpt lat="48.82844" lon="2.37053">
        <ele>117.9</ele>
        <time>2015-02-09T20:33:58.978Z</time>
      </trkpt>
      <trkpt lat="48.82848" lon="2.3705">
        <ele>117.6</ele>
        <time>2015-02-09T20:33:59.467Z</time>
      </trkpt>
      <trkpt lat="48.82854" lon="2.37044">
        <ele>117</ele>
        <time>2015-02-09T20:34:01.551Z</time>
      </trkpt>
      <trkpt lat="48.82856" lon="2.3704">
        <ele>117.2</ele>
        <time>2015-02-09T20:34:02.453Z</time>
      </trkpt>
      <trkpt lat="48.82862" lon="2.37032">
        <ele>117.6</ele>
        <time>2015-02-09T20:34:04.464Z</time>
      </trkpt>
      <trkpt lat="48.82864" lon="2.37029">
        <ele>117.8</ele>
        <time>2015-02-09T20:34:05.488Z</time>
      </trkpt>
      <trkpt lat="48.8287" lon="2.37023">
        <ele>117.3</ele>
        <time>2015-02-09T20:34:07.519Z</time>
      </trkpt>
      <trkpt lat="48.82873" lon="2.3702">
        <ele>116.9</ele>
        <time>2015-02-09T20:34:08.533Z</time>
      </trkpt>
      <trkpt lat="48.82877" lon="2.37012">
        <ele>116.4</ele>
        <time>2015-02-09T20:34:10.585Z</time>
      </trkpt>
      <trkpt lat="48.82879" lon="2.37009">
        <ele>116.3</ele>
        <time>2015-02-09T20:34:11.463Z</time>
      </trkpt>
      <trkpt lat="48.82883" lon="2.37002">
        <ele>116.5</ele>
        <time>2015-02-09T20:34:13.516Z</time>
      </trkpt>
      <trkpt lat="48.82885" lon="2.36999">
        <ele>116.7</ele>
        <time>2015-02-09T20:34:14.510Z</time>
      </trkpt>
      <trkpt lat="48.82887" lon="2.36988">
        <ele>117.3</ele>
        <time>2015-02-09T20:34:17.472Z</time>
      </trkpt>
      <trkpt lat="48.82886" lon="2.36983">
        <ele>116.8</ele>
        <time>2015-02-09T20:34:18.481Z</time>
      </trkpt>
      <trkpt lat="48.82891" lon="2.36975">
        <ele>116.5</ele>
        <time>2015-02-09T20:34:20.533Z</time>
      </trkpt>
      <trkpt lat="48.82893" lon="2.36971">
        <ele>116.8</ele>
        <time>2015-02-09T20:34:21.435Z</time>
      </trkpt>
      <trkpt lat="48.82898" lon="2.36963">
        <ele>117.4</ele>
        <time>2015-02-09T20:34:23.479Z</time>
      </trkpt>
      <trkpt lat="48.82901" lon="2.36959">
        <ele>117.6</ele>
        <time>2015-02-09T20:34:24.510Z</time>
      </trkpt>
      <trkpt lat="48.82907" lon="2.36951">
        <ele>118.2</ele>
        <time>2015-02-09T20:34:26.438Z</time>
      </trkpt>
      <trkpt lat="48.8291" lon="2.36948">
        <ele>118.5</ele>
        <time>2015-02-09T20:34:27.624Z</time>
      </trkpt>
      <trkpt lat="48.82916" lon="2.3694">
        <ele>118.9</ele>
        <time>2015-02-09T20:34:29.463Z</time>
      </trkpt>
      <trkpt lat="48.82919" lon="2.36936">
        <ele>119.5</ele>
        <time>2015-02-09T20:34:30.484Z</time>
      </trkpt>
      <trkpt lat="48.82923" lon="2.36928">
        <ele>119.8</ele>
        <time>2015-02-09T20:34:32.521Z</time>
      </trkpt>
      <trkpt lat="48.82925" lon="2.36923">
        <ele>120.2</ele>
        <time>2015-02-09T20:34:33.473Z</time>
      </trkpt>
      <trkpt lat="48.82931" lon="2.36916">
        <ele>120.7</ele>
        <time>2015-02-09T20:34:35.480Z</time>
      </trkpt>
      <trkpt lat="48.82934" lon="2.36913">
        <ele>120.7</ele>
        <time>2015-02-09T20:34:36.487Z</time>
      </trkpt>
      <trkpt lat="48.82939" lon="2.36906">
        <ele>120.6</ele>
        <time>2015-02-09T20:34:38.527Z</time>
      </trkpt>
      <trkpt lat="48.8294" lon="2.36902">
        <ele>120.5</ele>
        <time>2015-02-09T20:34:39.535Z</time>
      </trkpt>
      <trkpt lat="48.82941" lon="2.3689">
        <ele>120.4</ele>
        <time>2015-02-09T20:34:44.489Z</time>
      </trkpt>
      <trkpt lat="48.82939" lon="2.36887">
        <ele>120.6</ele>
        <time>2015-02-09T20:34:45.500Z</time>
      </trkpt>
      <trkpt lat="48.82939" lon="2.36879">
        <ele>121.7</ele>
        <time>2015-02-09T20:34:47.443Z</time>
      </trkpt>
      <trkpt lat="48.82939" lon="2.36873">
        <ele>122.3</ele>
        <time>2015-02-09T20:34:48.457Z</time>
      </trkpt>
      <trkpt lat="48.82941" lon="2.36862">
        <ele>124.1</ele>
        <time>2015-02-09T20:34:50.481Z</time>
      </trkpt>
      <trkpt lat="48.82943" lon="2.36858">
        <ele>124.9</ele>
        <time>2015-02-09T20:34:51.488Z</time>
      </trkpt>
      <trkpt lat="48.82941" lon="2.36846">
        <ele>125.6</ele>
        <time>2015-02-09T20:34:55.500Z</time>
      </trkpt>
      <trkpt lat="48.82939" lon="2.36844">
        <ele>125.8</ele>
        <time>2015-02-09T20:34:56.495Z</time>
      </trkpt>
      <trkpt lat="48.82932" lon="2.36844">
        <ele>125.9</ele>
        <time>2015-02-09T20:34:58.441Z</time>
      </trkpt>
      <trkpt lat="48.82926" lon="2.36843">
        <ele>125.5</ele>
        <time>2015-02-09T20:34:59.457Z</time>
      </trkpt>
      <trkpt lat="48.82926" lon="2.36843">
        <ele>125.5</ele>
        <time>2015-02-09T20:35:05.455Z</time>
      </trkpt>
      <trkpt lat="48.82905" lon="2.3683">
        <ele>121.8</ele>
        <time>2015-02-09T20:35:06.491Z</time>
      </trkpt>
      <trkpt lat="48.82897" lon="2.36826">
        <ele>122</ele>
        <time>2015-02-09T20:35:09.460Z</time>
      </trkpt>
      <trkpt lat="48.82895" lon="2.36824">
        <ele>122.1</ele>
        <time>2015-02-09T20:35:10.506Z</time>
      </trkpt>
      <trkpt lat="48.82889" lon="2.36816">
        <ele>122.5</ele>
        <time>2015-02-09T20:35:13.496Z</time>
      </trkpt>
      <trkpt lat="48.82885" lon="2.36813">
        <ele>122.4</ele>
        <time>2015-02-09T20:35:14.528Z</time>
      </trkpt>
      <trkpt lat="48.82878" lon="2.36808">
        <ele>122</ele>
        <time>2015-02-09T20:35:16.486Z</time>
      </trkpt>
      <trkpt lat="48.82875" lon="2.36805">
        <ele>121.7</ele>
        <time>2015-02-09T20:35:17.495Z</time>
      </trkpt>
      <trkpt lat="48.82868" lon="2.36798">
        <ele>121.2</ele>
        <time>2015-02-09T20:35:19.466Z</time>
      </trkpt>
      <trkpt lat="48.82865" lon="2.36794">
        <ele>121.2</ele>
        <time>2015-02-09T20:35:20.466Z</time>
      </trkpt>
      <trkpt lat="48.82859" lon="2.36789">
        <ele>121.2</ele>
        <time>2015-02-09T20:35:22.488Z</time>
      </trkpt>
      <trkpt lat="48.82857" lon="2.36787">
        <ele>120.9</ele>
        <time>2015-02-09T20:35:23.494Z</time>
      </trkpt>
      <trkpt lat="48.82849" lon="2.36781">
        <ele>119.7</ele>
        <time>2015-02-09T20:35:27.456Z</time>
      </trkpt>
      <trkpt lat="48.82846" lon="2.36777">
        <ele>119.3</ele>
        <time>2015-02-09T20:35:28.460Z</time>
      </trkpt>
      <trkpt lat="48.82841" lon="2.36771">
        <ele>118.6</ele>
        <time>2015-02-09T20:35:30.510Z</time>
      </trkpt>
      <trkpt lat="48.82838" lon="2.36768">
        <ele>118.5</ele>
        <time>2015-02-09T20:35:31.522Z</time>
      </trkpt>
      <trkpt lat="48.82833" lon="2.36764">
        <ele>117.5</ele>
        <time>2015-02-09T20:36:40.494Z</time>
      </trkpt>
      <trkpt lat="48.82831" lon="2.36719">
        <ele>105.7</ele>
        <time>2015-02-09T20:36:41.524Z</time>
      </trkpt>
      <trkpt lat="48.82827" lon="2.36707">
        <ele>105.1</ele>
        <time>2015-02-09T20:36:46.494Z</time>
      </trkpt>
      <trkpt lat="48.82825" lon="2.36705">
        <ele>105</ele>
        <time>2015-02-09T20:36:47.511Z</time>
      </trkpt>
      <trkpt lat="48.8282" lon="2.36695">
        <ele>105.2</ele>
        <time>2015-02-09T20:36:51.544Z</time>
      </trkpt>
      <trkpt lat="48.82819" lon="2.36692">
        <ele>105.2</ele>
        <time>2015-02-09T20:36:52.452Z</time>
      </trkpt>
      <trkpt lat="48.82813" lon="2.36686">
        <ele>104.7</ele>
        <time>2015-02-09T20:36:55.528Z</time>
      </trkpt>
      <trkpt lat="48.8281" lon="2.36684">
        <ele>104.9</ele>
        <time>2015-02-09T20:36:56.547Z</time>
      </trkpt>
      <trkpt lat="48.82804" lon="2.36675">
        <ele>105</ele>
        <time>2015-02-09T20:37:01.506Z</time>
      </trkpt>
      <trkpt lat="48.82803" lon="2.36674">
        <ele>104.9</ele>
        <time>2015-02-09T20:37:02.505Z</time>
      </trkpt>
      <trkpt lat="48.82797" lon="2.36665">
        <ele>106.4</ele>
        <time>2015-02-09T20:37:07.496Z</time>
      </trkpt>
      <trkpt lat="48.82795" lon="2.36663">
        <ele>106.9</ele>
        <time>2015-02-09T20:37:08.502Z</time>
      </trkpt>
      <trkpt lat="48.82792" lon="2.36653">
        <ele>107.1</ele>
        <time>2015-02-09T20:37:12.537Z</time>
      </trkpt>
      <trkpt lat="48.8279" lon="2.3665">
        <ele>107.5</ele>
        <time>2015-02-09T20:37:13.469Z</time>
      </trkpt>
      <trkpt lat="48.82786" lon="2.3664">
        <ele>107.7</ele>
        <time>2015-02-09T20:37:16.418Z</time>
      </trkpt>
      <trkpt lat="48.8278" lon="2.36638">
        <ele>107.6</ele>
        <time>2015-02-09T20:37:17.442Z</time>
      </trkpt>
      <trkpt lat="48.82772" lon="2.36633">
        <ele>107.5</ele>
        <time>2015-02-09T20:37:19.524Z</time>
      </trkpt>
      <trkpt lat="48.82769" lon="2.36631">
        <ele>107.5</ele>
        <time>2015-02-09T20:37:20.420Z</time>
      </trkpt>
      <trkpt lat="48.82762" lon="2.36624">
        <ele>107</ele>
        <time>2015-02-09T20:37:24.436Z</time>
      </trkpt>
      <trkpt lat="48.82761" lon="2.36624">
        <ele>107.2</ele>
        <time>2015-02-09T20:37:25.515Z</time>
      </trkpt>
      <trkpt lat="48.82753" lon="2.36621">
        <ele>107.4</ele>
        <time>2015-02-09T20:37:31.535Z</time>
      </trkpt>
      <trkpt lat="48.82749" lon="2.36622">
        <ele>108.1</ele>
        <time>2015-02-09T20:37:32.429Z</time>
      </trkpt>
      <trkpt lat="48.82742" lon="2.36623">
        <ele>110</ele>
        <time>2015-02-09T20:37:35.494Z</time>
      </trkpt>
      <trkpt lat="48.82739" lon="2.36624">
        <ele>110.8</ele>
        <time>2015-02-09T20:37:36.506Z</time>
      </trkpt>
      <trkpt lat="48.82732" lon="2.36627">
        <ele>112.5</ele>
        <time>2015-02-09T20:37:39.540Z</time>
      </trkpt>
      <trkpt lat="48.82729" lon="2.36628">
        <ele>112.9</ele>
        <time>2015-02-09T20:37:40.456Z</time>
      </trkpt>
      <trkpt lat="48.82721" lon="2.36629">
        <ele>114.4</ele>
        <time>2015-02-09T20:37:43.503Z</time>
      </trkpt>
      <trkpt lat="48.82717" lon="2.36628">
        <ele>114.7</ele>
        <time>2015-02-09T20:37:44.508Z</time>
      </trkpt>
      <trkpt lat="48.82714" lon="2.36619">
        <ele>115.7</ele>
        <time>2015-02-09T20:37:48.502Z</time>
      </trkpt>
      <trkpt lat="48.82713" lon="2.36616">
        <ele>115.8</ele>
        <time>2015-02-09T20:37:49.518Z</time>
      </trkpt>
      <trkpt lat="48.82711" lon="2.36604">
        <ele>118.1</ele>
        <time>2015-02-09T20:37:55.494Z</time>
      </trkpt>
      <trkpt lat="48.82712" lon="2.36601">
        <ele>117.9</ele>
        <time>2015-02-09T20:37:56.507Z</time>
      </trkpt>
      <trkpt lat="48.82717" lon="2.36591">
        <ele>117.3</ele>
        <time>2015-02-09T20:37:58.444Z</time>
      </trkpt>
      <trkpt lat="48.8272" lon="2.36587">
        <ele>117.4</ele>
        <time>2015-02-09T20:37:59.457Z</time>
      </trkpt>
      <trkpt lat="48.82725" lon="2.3658">
        <ele>117.1</ele>
        <time>2015-02-09T20:38:01.506Z</time>
      </trkpt>
      <trkpt lat="48.82726" lon="2.36576">
        <ele>116.9</ele>
        <time>2015-02-09T20:38:02.502Z</time>
      </trkpt>
      <trkpt lat="48.8273" lon="2.36568">
        <ele>116</ele>
        <time>2015-02-09T20:38:04.434Z</time>
      </trkpt>
      <trkpt lat="48.82732" lon="2.36565">
        <ele>116.1</ele>
        <time>2015-02-09T20:38:05.445Z</time>
      </trkpt>
      <trkpt lat="48.82736" lon="2.36556">
        <ele>115.6</ele>
        <time>2015-02-09T20:38:07.498Z</time>
      </trkpt>
      <trkpt lat="48.82738" lon="2.36551">
        <ele>115.6</ele>
        <time>2015-02-09T20:38:08.523Z</time>
      </trkpt>
      <trkpt lat="48.82741" lon="2.36541">
        <ele>115.6</ele>
        <time>2015-02-09T20:38:10.436Z</time>
      </trkpt>
      <trkpt lat="48.82733" lon="2.36538">
        <ele>115.3</ele>
        <time>2015-02-09T20:38:11.453Z</time>
      </trkpt>
      <trkpt lat="48.82725" lon="2.36536">
        <ele>114.8</ele>
        <time>2015-02-09T20:38:12.493Z</time>
      </trkpt>
      <trkpt lat="48.82721" lon="2.36532">
        <ele>114.6</ele>
        <time>2015-02-09T20:38:13.494Z</time>
      </trkpt>
      <trkpt lat="48.82721" lon="2.36532">
        <ele>114.6</ele>
        <time>2015-02-09T20:38:16.564Z</time>
      </trkpt>
      <trkpt lat="48.82708" lon="2.36517">
        <ele>112.2</ele>
        <time>2015-02-09T20:38:17.420Z</time>
      </trkpt>
      <trkpt lat="48.82706" lon="2.36505">
        <ele>111.2</ele>
        <time>2015-02-09T20:38:19.490Z</time>
      </trkpt>
      <trkpt lat="48.82705" lon="2.365">
        <ele>110.6</ele>
        <time>2015-02-09T20:38:20.528Z</time>
      </trkpt>
      <trkpt lat="48.82702" lon="2.3649">
        <ele>109.3</ele>
        <time>2015-02-09T20:38:22.517Z</time>
      </trkpt>
      <trkpt lat="48.827" lon="2.36486">
        <ele>108.5</ele>
        <time>2015-02-09T20:38:23.529Z</time>
      </trkpt>
      <trkpt lat="48.82695" lon="2.36478">
        <ele>108.1</ele>
        <time>2015-02-09T20:38:25.567Z</time>
      </trkpt>
      <trkpt lat="48.82695" lon="2.36475">
        <ele>107.9</ele>
        <time>2015-02-09T20:38:26.453Z</time>
      </trkpt>
      <trkpt lat="48.82696" lon="2.36464">
        <ele>107.5</ele>
        <time>2015-02-09T20:38:29.544Z</time>
      </trkpt>
      <trkpt lat="48.82694" lon="2.36458">
        <ele>107.4</ele>
        <time>2015-02-09T20:38:30.454Z</time>
      </trkpt>
      <trkpt lat="48.82688" lon="2.36452">
        <ele>108</ele>
        <time>2015-02-09T20:38:31.504Z</time>
      </trkpt>
      <trkpt lat="48.82685" lon="2.36448">
        <ele>108.4</ele>
        <time>2015-02-09T20:38:32.514Z</time>
      </trkpt>
      <trkpt lat="48.82678" lon="2.36443">
        <ele>109.7</ele>
        <time>2015-02-09T20:38:34.433Z</time>
      </trkpt>
      <trkpt lat="48.82676" lon="2.36443">
        <ele>110.2</ele>
        <time>2015-02-09T20:38:35.457Z</time>
      </trkpt>
      <trkpt lat="48.82672" lon="2.36446">
        <ele>111.9</ele>
        <time>2015-02-09T20:39:09.480Z</time>
      </trkpt>
      <trkpt lat="48.82662" lon="2.36472">
        <ele>113.7</ele>
        <time>2015-02-09T20:39:10.520Z</time>
      </trkpt>
      <trkpt lat="48.82661" lon="2.36481">
        <ele>115.2</ele>
        <time>2015-02-09T20:39:34.416Z</time>
      </trkpt>
      <trkpt lat="48.82642" lon="2.36527">
        <ele>125.9</ele>
        <time>2015-02-09T20:39:35.512Z</time>
      </trkpt>
      <trkpt lat="48.82637" lon="2.36528">
        <ele>125.9</ele>
        <time>2015-02-09T20:39:40.510Z</time>
      </trkpt>
      <trkpt lat="48.82631" lon="2.36526">
        <ele>125.7</ele>
        <time>2015-02-09T20:39:41.524Z</time>
      </trkpt>
      <trkpt lat="48.82624" lon="2.36523">
        <ele>125.1</ele>
        <time>2015-02-09T20:39:44.490Z</time>
      </trkpt>
      <trkpt lat="48.82621" lon="2.36523">
        <ele>125</ele>
        <time>2015-02-09T20:39:45.512Z</time>
      </trkpt>
      <trkpt lat="48.82613" lon="2.3652">
        <ele>125.3</ele>
        <time>2015-02-09T20:39:49.516Z</time>
      </trkpt>
      <trkpt lat="48.82611" lon="2.36518">
        <ele>125.6</ele>
        <time>2015-02-09T20:39:50.569Z</time>
      </trkpt>
      <trkpt lat="48.82604" lon="2.36509">
        <ele>127.6</ele>
        <time>2015-02-09T20:39:54.539Z</time>
      </trkpt>
      <trkpt lat="48.82604" lon="2.36505">
        <ele>128.7</ele>
        <time>2015-02-09T20:39:55.550Z</time>
      </trkpt>
      <trkpt lat="48.82597" lon="2.36497">
        <ele>130.1</ele>
        <time>2015-02-09T20:39:59.456Z</time>
      </trkpt>
      <trkpt lat="48.82595" lon="2.36497">
        <ele>130.6</ele>
        <time>2015-02-09T20:40:00.499Z</time>
      </trkpt>
      <trkpt lat="48.82589" lon="2.36494">
        <ele>131.5</ele>
        <time>2015-02-09T20:40:04.460Z</time>
      </trkpt>
      <trkpt lat="48.82586" lon="2.36493">
        <ele>131.7</ele>
        <time>2015-02-09T20:40:05.460Z</time>
      </trkpt>
      <trkpt lat="48.82577" lon="2.36495">
        <ele>132.4</ele>
        <time>2015-02-09T20:40:11.458Z</time>
      </trkpt>
      <trkpt lat="48.82571" lon="2.36506">
        <ele>133.1</ele>
        <time>2015-02-09T20:40:13.541Z</time>
      </trkpt>
      <trkpt lat="48.82569" lon="2.36512">
        <ele>133.3</ele>
        <time>2015-02-09T20:40:14.460Z</time>
      </trkpt>
      <trkpt lat="48.82563" lon="2.36519">
        <ele>133.4</ele>
        <time>2015-02-09T20:40:16.494Z</time>
      </trkpt>
      <trkpt lat="48.82557" lon="2.36526">
        <ele>133.6</ele>
        <time>2015-02-09T20:40:19.493Z</time>
      </trkpt>
      <trkpt lat="48.82469" lon="2.36572">
        <ele>130.8</ele>
        <time>2015-02-09T20:40:56.470Z</time>
      </trkpt>
      <trkpt lat="48.82467" lon="2.36585">
        <ele>130.6</ele>
        <time>2015-02-09T20:41:03.652Z</time>
      </trkpt>
      <trkpt lat="48.82465" lon="2.3659">
        <ele>130.8</ele>
        <time>2015-02-09T20:41:06.483Z</time>
      </trkpt>
      <trkpt lat="48.82445" lon="2.36613">
        <ele>131.5</ele>
        <time>2015-02-09T20:41:14.470Z</time>
      </trkpt>
      <trkpt lat="48.82441" lon="2.36624">
        <ele>131.2</ele>
        <time>2015-02-09T20:41:19.520Z</time>
      </trkpt>
      <trkpt lat="48.82441" lon="2.36626">
        <ele>131.4</ele>
        <time>2015-02-09T20:41:20.433Z</time>
      </trkpt>
      <trkpt lat="48.82438" lon="2.36634">
        <ele>129.2</ele>
        <time>2015-02-09T20:41:44.487Z</time>
      </trkpt>
      <trkpt lat="48.82429" lon="2.36644">
        <ele>127.4</ele>
        <time>2015-02-09T20:41:45.508Z</time>
      </trkpt>
      <trkpt lat="48.82422" lon="2.36649">
        <ele>127.4</ele>
        <time>2015-02-09T20:41:49.534Z</time>
      </trkpt>
      <trkpt lat="48.82419" lon="2.3665">
        <ele>127.1</ele>
        <time>2015-02-09T20:41:50.429Z</time>
      </trkpt>
      <trkpt lat="48.82412" lon="2.36647">
        <ele>126.6</ele>
        <time>2015-02-09T20:41:54.529Z</time>
      </trkpt>
      <trkpt lat="48.8241" lon="2.36646">
        <ele>126.4</ele>
        <time>2015-02-09T20:41:55.544Z</time>
      </trkpt>
      <trkpt lat="48.82401" lon="2.36645">
        <ele>125.9</ele>
        <time>2015-02-09T20:41:59.525Z</time>
      </trkpt>
      <trkpt lat="48.82399" lon="2.36646">
        <ele>125.6</ele>
        <time>2015-02-09T20:42:00.435Z</time>
      </trkpt>
      <trkpt lat="48.82392" lon="2.36653">
        <ele>125.4</ele>
        <time>2015-02-09T20:42:04.404Z</time>
      </trkpt>
      <trkpt lat="48.8239" lon="2.36655">
        <ele>125.1</ele>
        <time>2015-02-09T20:42:05.411Z</time>
      </trkpt>
      <trkpt lat="48.82383" lon="2.36657">
        <ele>124.9</ele>
        <time>2015-02-09T20:42:09.496Z</time>
      </trkpt>
      <trkpt lat="48.82381" lon="2.36658">
        <ele>124.8</ele>
        <time>2015-02-09T20:42:10.510Z</time>
      </trkpt>
      <trkpt lat="48.82373" lon="2.36658">
        <ele>123.8</ele>
        <time>2015-02-09T20:42:14.457Z</time>
      </trkpt>
      <trkpt lat="48.82372" lon="2.36658">
        <ele>123.7</ele>
        <time>2015-02-09T20:42:15.486Z</time>
      </trkpt>
      <trkpt lat="48.82342" lon="2.36623">
        <ele>121</ele>
        <time>2015-02-09T20:42:30.504Z</time>
      </trkpt>
      <trkpt lat="48.82342" lon="2.36623">
        <ele>121</ele>
        <time>2015-02-09T20:42:33.415Z</time>
      </trkpt>
      <trkpt lat="48.8233" lon="2.36619">
        <ele>122.1</ele>
        <time>2015-02-09T20:42:34.437Z</time>
      </trkpt>
      <trkpt lat="48.82323" lon="2.36626">
        <ele>124.8</ele>
        <time>2015-02-09T20:42:38.272Z</time>
      </trkpt>
      <trkpt lat="48.82321" lon="2.36628">
        <ele>126.9</ele>
        <time>2015-02-09T20:42:38.474Z</time>
      </trkpt>
      <trkpt lat="48.82321" lon="2.36635">
        <ele>131.7</ele>
        <time>2015-02-09T20:42:43.448Z</time>
      </trkpt>
      <trkpt lat="48.82343" lon="2.36585">
        <ele>147.4</ele>
        <time>2015-02-09T20:43:04.426Z</time>
      </trkpt>
      <trkpt lat="48.82345" lon="2.36587">
        <ele>147.9</ele>
        <time>2015-02-09T20:43:05.430Z</time>
      </trkpt>
      <trkpt lat="48.8235" lon="2.36676">
        <ele>128.2</ele>
        <time>2015-02-09T20:43:20.474Z</time>
      </trkpt>
      <trkpt lat="48.82344" lon="2.36683">
        <ele>126.4</ele>
        <time>2015-02-09T20:43:33.478Z</time>
      </trkpt>
      <trkpt lat="48.82342" lon="2.36684">
        <ele>127.9</ele>
        <time>2015-02-09T20:43:34.478Z</time>
      </trkpt>
      <trkpt lat="48.82336" lon="2.36687">
        <ele>130.2</ele>
        <time>2015-02-09T20:43:38.274Z</time>
      </trkpt>
      <trkpt lat="48.82333" lon="2.36688">
        <ele>130.3</ele>
        <time>2015-02-09T20:43:38.402Z</time>
      </trkpt>
      <trkpt lat="48.82327" lon="2.36693">
        <ele>129</ele>
        <time>2015-02-09T20:43:41.459Z</time>
      </trkpt>
      <trkpt lat="48.82324" lon="2.36695">
        <ele>128.9</ele>
        <time>2015-02-09T20:43:42.480Z</time>
      </trkpt>
      <trkpt lat="48.82317" lon="2.36699">
        <ele>129.6</ele>
        <time>2015-02-09T20:43:44.432Z</time>
      </trkpt>
      <trkpt lat="48.82313" lon="2.36701">
        <ele>130.1</ele>
        <time>2015-02-09T20:43:45.577Z</time>
      </trkpt>
      <trkpt lat="48.82304" lon="2.36706">
        <ele>130.8</ele>
        <time>2015-02-09T20:43:48.640Z</time>
      </trkpt>
      <trkpt lat="48.82302" lon="2.36708">
        <ele>130.9</ele>
        <time>2015-02-09T20:43:49.444Z</time>
      </trkpt>
      <trkpt lat="48.82308" lon="2.36706">
        <ele>132.4</ele>
        <time>2015-02-09T20:43:57.511Z</time>
      </trkpt>
      <trkpt lat="48.8232" lon="2.3671">
        <ele>133.8</ele>
        <time>2015-02-09T20:44:03.440Z</time>
      </trkpt>
      <trkpt lat="48.82314" lon="2.36713">
        <ele>135.1</ele>
        <time>2015-02-09T20:44:06.487Z</time>
      </trkpt>
      <trkpt lat="48.8231" lon="2.36711">
        <ele>135.3</ele>
        <time>2015-02-09T20:44:07.450Z</time>
      </trkpt>
      <trkpt lat="48.82303" lon="2.36708">
        <ele>136.3</ele>
        <time>2015-02-09T20:44:09.401Z</time>
      </trkpt>
      <trkpt lat="48.823" lon="2.36708">
        <ele>136.4</ele>
        <time>2015-02-09T20:44:10.414Z</time>
      </trkpt>
      <trkpt lat="48.82293" lon="2.36708">
        <ele>137.6</ele>
        <time>2015-02-09T20:44:13.480Z</time>
      </trkpt>
      <trkpt lat="48.82287" lon="2.36709">
        <ele>138.8</ele>
        <time>2015-02-09T20:44:14.500Z</time>
      </trkpt>
      <trkpt lat="48.82284" lon="2.3672">
        <ele>138.1</ele>
        <time>2015-02-09T20:44:17.426Z</time>
      </trkpt>
      <trkpt lat="48.82283" lon="2.36724">
        <ele>138.1</ele>
        <time>2015-02-09T20:44:18.425Z</time>
      </trkpt>
      <trkpt lat="48.82281" lon="2.36711">
        <ele>124.8</ele>
        <time>2015-02-09T20:44:38.511Z</time>
      </trkpt>
      <trkpt lat="48.82282" lon="2.36709">
        <ele>123.8</ele>
        <time>2015-02-09T20:44:39.543Z</time>
      </trkpt>
      <trkpt lat="48.82274" lon="2.36712">
        <ele>119.1</ele>
        <time>2015-02-09T20:46:27.410Z</time>
      </trkpt>
      <trkpt lat="48.82264" lon="2.36722">
        <ele>125.8</ele>
        <time>2015-02-09T20:46:28.461Z</time>
      </trkpt>
      <trkpt lat="48.82261" lon="2.36719">
        <ele>126</ele>
        <time>2015-02-09T20:46:48.407Z</time>
      </trkpt>
      <trkpt lat="48.82247" lon="2.36686">
        <ele>123.5</ele>
        <time>2015-02-09T20:46:49.446Z</time>
      </trkpt>
      <trkpt lat="48.82243" lon="2.36679">
        <ele>122.5</ele>
        <time>2015-02-09T20:46:51.479Z</time>
      </trkpt>
      <trkpt lat="48.82242" lon="2.36672">
        <ele>121.4</ele>
        <time>2015-02-09T20:46:52.492Z</time>
      </trkpt>
      <trkpt lat="48.8224" lon="2.36662">
        <ele>119.5</ele>
        <time>2015-02-09T20:46:54.427Z</time>
      </trkpt>
      <trkpt lat="48.82238" lon="2.36657">
        <ele>118.8</ele>
        <time>2015-02-09T20:46:55.520Z</time>
      </trkpt>
      <trkpt lat="48.82235" lon="2.36644">
        <ele>118</ele>
        <time>2015-02-09T20:46:58.538Z</time>
      </trkpt>
      <trkpt lat="48.82235" lon="2.36641">
        <ele>117.8</ele>
        <time>2015-02-09T20:46:59.497Z</time>
      </trkpt>
      <trkpt lat="48.82234" lon="2.36628">
        <ele>117</ele>
        <time>2015-02-09T20:47:03.437Z</time>
      </trkpt>
      <trkpt lat="48.82235" lon="2.36625">
        <ele>116.8</ele>
        <time>2015-02-09T20:47:04.433Z</time>
      </trkpt>
      <trkpt lat="48.82236" lon="2.36637">
        <ele>112.1</ele>
        <time>2015-02-09T20:47:16.448Z</time>
      </trkpt>
      <trkpt lat="48.82236" lon="2.36639">
        <ele>112</ele>
        <time>2015-02-09T20:47:17.461Z</time>
      </trkpt>
      <trkpt lat="48.82233" lon="2.3665">
        <ele>111.3</ele>
        <time>2015-02-09T20:47:27.517Z</time>
      </trkpt>
      <trkpt lat="48.82232" lon="2.36652">
        <ele>111.3</ele>
        <time>2015-02-09T20:47:28.421Z</time>
      </trkpt>
      <trkpt lat="48.82225" lon="2.36653">
        <ele>111.3</ele>
        <time>2015-02-09T20:47:31.482Z</time>
      </trkpt>
      <trkpt lat="48.82219" lon="2.36655">
        <ele>111.4</ele>
        <time>2015-02-09T20:47:32.495Z</time>
      </trkpt>
      <trkpt lat="48.82214" lon="2.36656">
        <ele>111.5</ele>
        <time>2015-02-09T20:47:33.528Z</time>
      </trkpt>
      <trkpt lat="48.8221" lon="2.36657">
        <ele>111.6</ele>
        <time>2015-02-09T20:47:34.440Z</time>
      </trkpt>
      <trkpt lat="48.82202" lon="2.3666">
        <ele>112</ele>
        <time>2015-02-09T20:47:36.437Z</time>
      </trkpt>
      <trkpt lat="48.82199" lon="2.36661">
        <ele>112.2</ele>
        <time>2015-02-09T20:47:37.483Z</time>
      </trkpt>
      <trkpt lat="48.82192" lon="2.36665">
        <ele>112.7</ele>
        <time>2015-02-09T20:47:39.492Z</time>
      </trkpt>
      <trkpt lat="48.82189" lon="2.36667">
        <ele>113</ele>
        <time>2015-02-09T20:47:40.500Z</time>
      </trkpt>
      <trkpt lat="48.82184" lon="2.36676">
        <ele>114.5</ele>
        <time>2015-02-09T20:47:42.436Z</time>
      </trkpt>
      <trkpt lat="48.8218" lon="2.36679">
        <ele>115.2</ele>
        <time>2015-02-09T20:47:43.482Z</time>
      </trkpt>
      <trkpt lat="48.82175" lon="2.36685">
        <ele>116.2</ele>
        <time>2015-02-09T20:47:45.431Z</time>
      </trkpt>
      <trkpt lat="48.82173" lon="2.36689">
        <ele>116.5</ele>
        <time>2015-02-09T20:47:46.443Z</time>
      </trkpt>
      <trkpt lat="48.82169" lon="2.36697">
        <ele>117.1</ele>
        <time>2015-02-09T20:47:48.508Z</time>
      </trkpt>
      <trkpt lat="48.82168" lon="2.36701">
        <ele>117.4</ele>
        <time>2015-02-09T20:47:49.528Z</time>
      </trkpt>
      <trkpt lat="48.82162" lon="2.3671">
        <ele>118.2</ele>
        <time>2015-02-09T20:47:53.469Z</time>
      </trkpt>
      <trkpt lat="48.82159" lon="2.36712">
        <ele>118</ele>
        <time>2015-02-09T20:47:54.482Z</time>
      </trkpt>
      <trkpt lat="48.82154" lon="2.3672">
        <ele>118.5</ele>
        <time>2015-02-09T20:47:56.608Z</time>
      </trkpt>
      <trkpt lat="48.82152" lon="2.36724">
        <ele>118.7</ele>
        <time>2015-02-09T20:47:57.439Z</time>
      </trkpt>
      <trkpt lat="48.82148" lon="2.36732">
        <ele>119.7</ele>
        <time>2015-02-09T20:47:59.484Z</time>
      </trkpt>
      <trkpt lat="48.82146" lon="2.36737">
        <ele>120.4</ele>
        <time>2015-02-09T20:48:00.407Z</time>
      </trkpt>
      <trkpt lat="48.82143" lon="2.36747">
        <ele>120.4</ele>
        <time>2015-02-09T20:48:02.479Z</time>
      </trkpt>
      <trkpt lat="48.82142" lon="2.36749">
        <ele>119.7</ele>
        <time>2015-02-09T20:48:03.494Z</time>
      </trkpt>
      <trkpt lat="48.82133" lon="2.36749">
        <ele>119.8</ele>
        <time>2015-02-09T20:48:06.438Z</time>
      </trkpt>
      <trkpt lat="48.8213" lon="2.36749">
        <ele>120.1</ele>
        <time>2015-02-09T20:48:07.477Z</time>
      </trkpt>
      <trkpt lat="48.82125" lon="2.36759">
        <ele>114.3</ele>
        <time>2015-02-09T20:48:18.471Z</time>
      </trkpt>
      <trkpt lat="48.82125" lon="2.36761">
        <ele>115</ele>
        <time>2015-02-09T20:48:19.530Z</time>
      </trkpt>
      <trkpt lat="48.82132" lon="2.36757">
        <ele>113.7</ele>
        <time>2015-02-09T20:48:22.493Z</time>
      </trkpt>
      <trkpt lat="48.82135" lon="2.36754">
        <ele>113.5</ele>
        <time>2015-02-09T20:48:23.535Z</time>
      </trkpt>
      <trkpt lat="48.8214" lon="2.3675">
        <ele>113</ele>
        <time>2015-02-09T20:48:25.470Z</time>
      </trkpt>
      <trkpt lat="48.82144" lon="2.36748">
        <ele>113</ele>
        <time>2015-02-09T20:48:26.530Z</time>
      </trkpt>
      <trkpt lat="48.82152" lon="2.36749">
        <ele>113.1</ele>
        <time>2015-02-09T20:48:29.466Z</time>
      </trkpt>
      <trkpt lat="48.82155" lon="2.36753">
        <ele>113.4</ele>
        <time>2015-02-09T20:48:30.478Z</time>
      </trkpt>
      <trkpt lat="48.82159" lon="2.3676">
        <ele>113.5</ele>
        <time>2015-02-09T20:48:32.509Z</time>
      </trkpt>
      <trkpt lat="48.82161" lon="2.36764">
        <ele>113.9</ele>
        <time>2015-02-09T20:48:33.513Z</time>
      </trkpt>
      <trkpt lat="48.82162" lon="2.36766">
        <ele>114.3</ele>
        <time>2015-02-09T20:48:42.444Z</time>
      </trkpt>
      <trkpt lat="48.82157" lon="2.3678">
        <ele>118.7</ele>
        <time>2015-02-09T20:48:43.461Z</time>
      </trkpt>
      <trkpt lat="48.82149" lon="2.36784">
        <ele>118.2</ele>
        <time>2015-02-09T20:48:46.533Z</time>
      </trkpt>
      <trkpt lat="48.82147" lon="2.36785">
        <ele>118.3</ele>
        <time>2015-02-09T20:48:47.424Z</time>
      </trkpt>
      <trkpt lat="48.82141" lon="2.36794">
        <ele>118.2</ele>
        <time>2015-02-09T20:48:50.541Z</time>
      </trkpt>
      <trkpt lat="48.82142" lon="2.36799">
        <ele>118.7</ele>
        <time>2015-02-09T20:48:51.535Z</time>
      </trkpt>
      <trkpt lat="48.82148" lon="2.36807">
        <ele>118.3</ele>
        <time>2015-02-09T20:48:54.486Z</time>
      </trkpt>
      <trkpt lat="48.8215" lon="2.36809">
        <ele>118.4</ele>
        <time>2015-02-09T20:48:55.533Z</time>
      </trkpt>
      <trkpt lat="48.82157" lon="2.36816">
        <ele>117.6</ele>
        <time>2015-02-09T20:48:58.457Z</time>
      </trkpt>
      <trkpt lat="48.8216" lon="2.36818">
        <ele>117.2</ele>
        <time>2015-02-09T20:48:59.479Z</time>
      </trkpt>
      <trkpt lat="48.82161" lon="2.36827">
        <ele>117.7</ele>
        <time>2015-02-09T20:49:36.437Z</time>
      </trkpt>
      <trkpt lat="48.82134" lon="2.36815">
        <ele>116.5</ele>
        <time>2015-02-09T20:49:37.498Z</time>
      </trkpt>
      <trkpt lat="48.82131" lon="2.36805">
        <ele>114</ele>
        <time>2015-02-09T20:49:40.491Z</time>
      </trkpt>
      <trkpt lat="48.8213" lon="2.36801">
        <ele>113.2</ele>
        <time>2015-02-09T20:49:41.514Z</time>
      </trkpt>
      <trkpt lat="48.82127" lon="2.36791">
        <ele>112.3</ele>
        <time>2015-02-09T20:49:43.496Z</time>
      </trkpt>
      <trkpt lat="48.82126" lon="2.36788">
        <ele>112.5</ele>
        <time>2015-02-09T20:49:44.528Z</time>
      </trkpt>
      <trkpt lat="48.82121" lon="2.36777">
        <ele>113.2</ele>
        <time>2015-02-09T20:49:48.499Z</time>
      </trkpt>
      <trkpt lat="48.82119" lon="2.36775">
        <ele>113.2</ele>
        <time>2015-02-09T20:49:49.502Z</time>
      </trkpt>
      <trkpt lat="48.82114" lon="2.36766">
        <ele>115.3</ele>
        <time>2015-02-09T20:49:52.498Z</time>
      </trkpt>
      <trkpt lat="48.82113" lon="2.36763">
        <ele>116</ele>
        <time>2015-02-09T20:49:53.425Z</time>
      </trkpt>
      <trkpt lat="48.82109" lon="2.36756">
        <ele>116.4</ele>
        <time>2015-02-09T20:49:55.475Z</time>
      </trkpt>
      <trkpt lat="48.82107" lon="2.36751">
        <ele>116.6</ele>
        <time>2015-02-09T20:49:56.486Z</time>
      </trkpt>
      <trkpt lat="48.82105" lon="2.36745">
        <ele>116.7</ele>
        <time>2015-02-09T20:49:57.520Z</time>
      </trkpt>
      <trkpt lat="48.82102" lon="2.36738">
        <ele>118.6</ele>
        <time>2015-02-09T20:49:58.432Z</time>
      </trkpt>
      <trkpt lat="48.82101" lon="2.3673">
        <ele>118.5</ele>
        <time>2015-02-09T20:49:59.444Z</time>
      </trkpt>
      <trkpt lat="48.82098" lon="2.36719">
        <ele>119.7</ele>
        <time>2015-02-09T20:50:00.441Z</time>
      </trkpt>
      <trkpt lat="48.82094" lon="2.36708">
        <ele>119.8</ele>
        <time>2015-02-09T20:50:02.430Z</time>
      </trkpt>
      <trkpt lat="48.82093" lon="2.36702">
        <ele>119.5</ele>
        <time>2015-02-09T20:50:03.439Z</time>
      </trkpt>
      <trkpt lat="48.82092" lon="2.36696">
        <ele>119.1</ele>
        <time>2015-02-09T20:50:04.463Z</time>
      </trkpt>
      <trkpt lat="48.8209" lon="2.36688">
        <ele>119</ele>
        <time>2015-02-09T20:50:05.470Z</time>
      </trkpt>
      <trkpt lat="48.82089" lon="2.3668">
        <ele>118.5</ele>
        <time>2015-02-09T20:50:06.477Z</time>
      </trkpt>
      <trkpt lat="48.82088" lon="2.36674">
        <ele>118.6</ele>
        <time>2015-02-09T20:50:07.489Z</time>
      </trkpt>
      <trkpt lat="48.82087" lon="2.36668">
        <ele>118.5</ele>
        <time>2015-02-09T20:50:08.508Z</time>
      </trkpt>
      <trkpt lat="48.82085" lon="2.36661">
        <ele>118.8</ele>
        <time>2015-02-09T20:50:09.511Z</time>
      </trkpt>
      <trkpt lat="48.82082" lon="2.36653">
        <ele>119</ele>
        <time>2015-02-09T20:50:10.427Z</time>
      </trkpt>
      <trkpt lat="48.82079" lon="2.36646">
        <ele>119.1</ele>
        <time>2015-02-09T20:50:11.426Z</time>
      </trkpt>
      <trkpt lat="48.82076" lon="2.3664">
        <ele>119.1</ele>
        <time>2015-02-09T20:50:12.436Z</time>
      </trkpt>
      <trkpt lat="48.82073" lon="2.36634">
        <ele>119.3</ele>
        <time>2015-02-09T20:50:13.468Z</time>
      </trkpt>
      <trkpt lat="48.82071" lon="2.36628">
        <ele>119.5</ele>
        <time>2015-02-09T20:50:14.470Z</time>
      </trkpt>
      <trkpt lat="48.82069" lon="2.36622">
        <ele>119.4</ele>
        <time>2015-02-09T20:50:15.476Z</time>
      </trkpt>
      <trkpt lat="48.82065" lon="2.3661">
        <ele>119.4</ele>
        <time>2015-02-09T20:50:17.507Z</time>
      </trkpt>
      <trkpt lat="48.82062" lon="2.36604">
        <ele>119.5</ele>
        <time>2015-02-09T20:50:18.518Z</time>
      </trkpt>
      <trkpt lat="48.82061" lon="2.36595">
        <ele>119.6</ele>
        <time>2015-02-09T20:50:20.427Z</time>
      </trkpt>
      <trkpt lat="48.8206" lon="2.3659">
        <ele>119.6</ele>
        <time>2015-02-09T20:50:21.441Z</time>
      </trkpt>
      <trkpt lat="48.82057" lon="2.36577">
        <ele>119.1</ele>
        <time>2015-02-09T20:50:23.482Z</time>
      </trkpt>
      <trkpt lat="48.82054" lon="2.36571">
        <ele>118.6</ele>
        <time>2015-02-09T20:50:24.491Z</time>
      </trkpt>
      <trkpt lat="48.82051" lon="2.36564">
        <ele>118.6</ele>
        <time>2015-02-09T20:50:25.516Z</time>
      </trkpt>
      <trkpt lat="48.82049" lon="2.36558">
        <ele>118.2</ele>
        <time>2015-02-09T20:50:26.428Z</time>
      </trkpt>
      <trkpt lat="48.82045" lon="2.36547">
        <ele>117.8</ele>
        <time>2015-02-09T20:50:28.452Z</time>
      </trkpt>
      <trkpt lat="48.82043" lon="2.36541">
        <ele>117.6</ele>
        <time>2015-02-09T20:50:29.467Z</time>
      </trkpt>
      <trkpt lat="48.82041" lon="2.36529">
        <ele>116.7</ele>
        <time>2015-02-09T20:50:31.504Z</time>
      </trkpt>
      <trkpt lat="48.82039" lon="2.36522">
        <ele>116.3</ele>
        <time>2015-02-09T20:50:32.509Z</time>
      </trkpt>
      <trkpt lat="48.82036" lon="2.36516">
        <ele>116.3</ele>
        <time>2015-02-09T20:50:33.408Z</time>
      </trkpt>
      <trkpt lat="48.82034" lon="2.3651">
        <ele>116.2</ele>
        <time>2015-02-09T20:50:34.422Z</time>
      </trkpt>
      <trkpt lat="48.8203" lon="2.36499">
        <ele>116.1</ele>
        <time>2015-02-09T20:50:36.435Z</time>
      </trkpt>
      <trkpt lat="48.82028" lon="2.36495">
        <ele>116.4</ele>
        <time>2015-02-09T20:50:37.478Z</time>
      </trkpt>
      <trkpt lat="48.82023" lon="2.36486">
        <ele>116.3</ele>
        <time>2015-02-09T20:50:39.520Z</time>
      </trkpt>
      <trkpt lat="48.82021" lon="2.36483">
        <ele>115.8</ele>
        <time>2015-02-09T20:50:40.435Z</time>
      </trkpt>
      <trkpt lat="48.82015" lon="2.36476">
        <ele>114</ele>
        <time>2015-02-09T20:50:55.518Z</time>
      </trkpt>
      <trkpt lat="48.82017" lon="2.36462">
        <ele>106.3</ele>
        <time>2015-02-09T20:50:56.530Z</time>
      </trkpt>
      <trkpt lat="48.82012" lon="2.36451">
        <ele>106.2</ele>
        <time>2015-02-09T20:50:59.499Z</time>
      </trkpt>
      <trkpt lat="48.82011" lon="2.36447">
        <ele>106.4</ele>
        <time>2015-02-09T20:51:00.530Z</time>
      </trkpt>
      <trkpt lat="48.82008" lon="2.36439">
        <ele>106.7</ele>
        <time>2015-02-09T20:51:02.419Z</time>
      </trkpt>
      <trkpt lat="48.82007" lon="2.36433">
        <ele>106.6</ele>
        <time>2015-02-09T20:51:03.423Z</time>
      </trkpt>
      <trkpt lat="48.82003" lon="2.36425">
        <ele>106.9</ele>
        <time>2015-02-09T20:51:05.497Z</time>
      </trkpt>
      <trkpt lat="48.82002" lon="2.36419">
        <ele>106.9</ele>
        <time>2015-02-09T20:51:06.510Z</time>
      </trkpt>
      <trkpt lat="48.81998" lon="2.3641">
        <ele>106.9</ele>
        <time>2015-02-09T20:51:08.499Z</time>
      </trkpt>
      <trkpt lat="48.81997" lon="2.36404">
        <ele>106.8</ele>
        <time>2015-02-09T20:51:09.514Z</time>
      </trkpt>
      <trkpt lat="48.81994" lon="2.36394">
        <ele>107.1</ele>
        <time>2015-02-09T20:51:11.497Z</time>
      </trkpt>
      <trkpt lat="48.81992" lon="2.36389">
        <ele>107.5</ele>
        <time>2015-02-09T20:51:12.531Z</time>
      </trkpt>
      <trkpt lat="48.81988" lon="2.36379">
        <ele>108</ele>
        <time>2015-02-09T20:51:14.443Z</time>
      </trkpt>
      <trkpt lat="48.81986" lon="2.36375">
        <ele>108.4</ele>
        <time>2015-02-09T20:51:15.448Z</time>
      </trkpt>
      <trkpt lat="48.81982" lon="2.36366">
        <ele>108.7</ele>
        <time>2015-02-09T20:51:17.439Z</time>
      </trkpt>
      <trkpt lat="48.8198" lon="2.36361">
        <ele>108.9</ele>
        <time>2015-02-09T20:51:18.444Z</time>
      </trkpt>
      <trkpt lat="48.81977" lon="2.3635">
        <ele>109.4</ele>
        <time>2015-02-09T20:51:20.471Z</time>
      </trkpt>
      <trkpt lat="48.81977" lon="2.36343">
        <ele>108.4</ele>
        <time>2015-02-09T20:51:21.483Z</time>
      </trkpt>
      <trkpt lat="48.81975" lon="2.36336">
        <ele>108.2</ele>
        <time>2015-02-09T20:51:22.516Z</time>
      </trkpt>
      <trkpt lat="48.81973" lon="2.36329">
        <ele>107.4</ele>
        <time>2015-02-09T20:51:23.439Z</time>
      </trkpt>
      <trkpt lat="48.8197" lon="2.36323">
        <ele>107.3</ele>
        <time>2015-02-09T20:51:24.450Z</time>
      </trkpt>
      <trkpt lat="48.81968" lon="2.36317">
        <ele>107.1</ele>
        <time>2015-02-09T20:51:25.463Z</time>
      </trkpt>
      <trkpt lat="48.81966" lon="2.36312">
        <ele>107.2</ele>
        <time>2015-02-09T20:51:26.490Z</time>
      </trkpt>
      <trkpt lat="48.81963" lon="2.36305">
        <ele>107.1</ele>
        <time>2015-02-09T20:51:27.506Z</time>
      </trkpt>
      <trkpt lat="48.81958" lon="2.36294">
        <ele>107.4</ele>
        <time>2015-02-09T20:51:29.468Z</time>
      </trkpt>
      <trkpt lat="48.81956" lon="2.36288">
        <ele>107.1</ele>
        <time>2015-02-09T20:51:30.484Z</time>
      </trkpt>
      <trkpt lat="48.81953" lon="2.36276">
        <ele>106.8</ele>
        <time>2015-02-09T20:51:32.501Z</time>
      </trkpt>
      <trkpt lat="48.81952" lon="2.3627">
        <ele>106.8</ele>
        <time>2015-02-09T20:51:33.515Z</time>
      </trkpt>
      <trkpt lat="48.81947" lon="2.36259">
        <ele>107.6</ele>
        <time>2015-02-09T20:51:35.429Z</time>
      </trkpt>
      <trkpt lat="48.81944" lon="2.36255">
        <ele>108.8</ele>
        <time>2015-02-09T20:51:36.428Z</time>
      </trkpt>
      <trkpt lat="48.8194" lon="2.36246">
        <ele>110.6</ele>
        <time>2015-02-09T20:51:38.478Z</time>
      </trkpt>
      <trkpt lat="48.81939" lon="2.3624">
        <ele>110.8</ele>
        <time>2015-02-09T20:51:39.487Z</time>
      </trkpt>
      <trkpt lat="48.81936" lon="2.36229">
        <ele>111.3</ele>
        <time>2015-02-09T20:51:41.416Z</time>
      </trkpt>
      <trkpt lat="48.81936" lon="2.36222">
        <ele>111.4</ele>
        <time>2015-02-09T20:51:42.436Z</time>
      </trkpt>
      <trkpt lat="48.81934" lon="2.36209">
        <ele>111.9</ele>
        <time>2015-02-09T20:51:44.476Z</time>
      </trkpt>
      <trkpt lat="48.81933" lon="2.36202">
        <ele>112.1</ele>
        <time>2015-02-09T20:51:45.480Z</time>
      </trkpt>
      <trkpt lat="48.81932" lon="2.36195">
        <ele>112.3</ele>
        <time>2015-02-09T20:51:46.418Z</time>
      </trkpt>
      <trkpt lat="48.81931" lon="2.36187">
        <ele>112.3</ele>
        <time>2015-02-09T20:51:47.427Z</time>
      </trkpt>
      <trkpt lat="48.8193" lon="2.36179">
        <ele>112.2</ele>
        <time>2015-02-09T20:51:48.437Z</time>
      </trkpt>
      <trkpt lat="48.81929" lon="2.36172">
        <ele>112.9</ele>
        <time>2015-02-09T20:51:49.455Z</time>
      </trkpt>
      <trkpt lat="48.81927" lon="2.36165">
        <ele>113.6</ele>
        <time>2015-02-09T20:51:50.430Z</time>
      </trkpt>
      <trkpt lat="48.81926" lon="2.36158">
        <ele>114.3</ele>
        <time>2015-02-09T20:51:51.427Z</time>
      </trkpt>
      <trkpt lat="48.81925" lon="2.36145">
        <ele>114.6</ele>
        <time>2015-02-09T20:51:53.460Z</time>
      </trkpt>
      <trkpt lat="48.81924" lon="2.36138">
        <ele>114.5</ele>
        <time>2015-02-09T20:51:54.488Z</time>
      </trkpt>
      <trkpt lat="48.81923" lon="2.36126">
        <ele>114.8</ele>
        <time>2015-02-09T20:51:56.514Z</time>
      </trkpt>
      <trkpt lat="48.81923" lon="2.36119">
        <ele>114.7</ele>
        <time>2015-02-09T20:51:57.442Z</time>
      </trkpt>
      <trkpt lat="48.81922" lon="2.36107">
        <ele>114.2</ele>
        <time>2015-02-09T20:51:59.469Z</time>
      </trkpt>
      <trkpt lat="48.81922" lon="2.36102">
        <ele>114.2</ele>
        <time>2015-02-09T20:52:00.491Z</time>
      </trkpt>
      <trkpt lat="48.81922" lon="2.3609">
        <ele>113.9</ele>
        <time>2015-02-09T20:52:02.526Z</time>
      </trkpt>
      <trkpt lat="48.81922" lon="2.36084">
        <ele>113.9</ele>
        <time>2015-02-09T20:52:03.447Z</time>
      </trkpt>
      <trkpt lat="48.81923" lon="2.36073">
        <ele>114.2</ele>
        <time>2015-02-09T20:52:05.463Z</time>
      </trkpt>
      <trkpt lat="48.81922" lon="2.36067">
        <ele>114.2</ele>
        <time>2015-02-09T20:52:06.493Z</time>
      </trkpt>
      <trkpt lat="48.81923" lon="2.36054">
        <ele>114.1</ele>
        <time>2015-02-09T20:52:08.409Z</time>
      </trkpt>
      <trkpt lat="48.81923" lon="2.3605">
        <ele>114.1</ele>
        <time>2015-02-09T20:52:09.455Z</time>
      </trkpt>
      <trkpt lat="48.81923" lon="2.36038">
        <ele>114.1</ele>
        <time>2015-02-09T20:52:11.432Z</time>
      </trkpt>
      <trkpt lat="48.81922" lon="2.36033">
        <ele>114.3</ele>
        <time>2015-02-09T20:52:12.472Z</time>
      </trkpt>
      <trkpt lat="48.81921" lon="2.36022">
        <ele>114.6</ele>
        <time>2015-02-09T20:52:14.505Z</time>
      </trkpt>
      <trkpt lat="48.8192" lon="2.36016">
        <ele>114.6</ele>
        <time>2015-02-09T20:52:15.515Z</time>
      </trkpt>
      <trkpt lat="48.81919" lon="2.36006">
        <ele>114.5</ele>
        <time>2015-02-09T20:52:17.441Z</time>
      </trkpt>
      <trkpt lat="48.81918" lon="2.36002">
        <ele>114.5</ele>
        <time>2015-02-09T20:52:18.637Z</time>
      </trkpt>
      <trkpt lat="48.81918" lon="2.35989">
        <ele>113.9</ele>
        <time>2015-02-09T20:52:22.521Z</time>
      </trkpt>
      <trkpt lat="48.81919" lon="2.35987">
        <ele>113.2</ele>
        <time>2015-02-09T20:52:23.464Z</time>
      </trkpt>
      <trkpt lat="48.81922" lon="2.35977">
        <ele>113</ele>
        <time>2015-02-09T20:52:49.477Z</time>
      </trkpt>
      <trkpt lat="48.8192" lon="2.35961">
        <ele>114.3</ele>
        <time>2015-02-09T20:52:50.487Z</time>
      </trkpt>
      <trkpt lat="48.8192" lon="2.35949">
        <ele>114.3</ele>
        <time>2015-02-09T20:52:54.474Z</time>
      </trkpt>
      <trkpt lat="48.8192" lon="2.35946">
        <ele>114.7</ele>
        <time>2015-02-09T20:52:55.458Z</time>
      </trkpt>
      <trkpt lat="48.81918" lon="2.35934">
        <ele>115.3</ele>
        <time>2015-02-09T20:52:59.406Z</time>
      </trkpt>
      <trkpt lat="48.81918" lon="2.3593">
        <ele>115.2</ele>
        <time>2015-02-09T20:53:00.609Z</time>
      </trkpt>
      <trkpt lat="48.81916" lon="2.35919">
        <ele>116</ele>
        <time>2015-02-09T20:53:03.425Z</time>
      </trkpt>
      <trkpt lat="48.81917" lon="2.35915">
        <ele>116.1</ele>
        <time>2015-02-09T20:53:04.427Z</time>
      </trkpt>
      <trkpt lat="48.81917" lon="2.35905">
        <ele>116.5</ele>
        <time>2015-02-09T20:53:06.482Z</time>
      </trkpt>
      <trkpt lat="48.81917" lon="2.359">
        <ele>116.5</ele>
        <time>2015-02-09T20:53:07.465Z</time>
      </trkpt>
      <trkpt lat="48.81918" lon="2.3589">
        <ele>116.7</ele>
        <time>2015-02-09T20:53:09.602Z</time>
      </trkpt>
      <trkpt lat="48.81918" lon="2.35884">
        <ele>116.6</ele>
        <time>2015-02-09T20:53:10.426Z</time>
      </trkpt>
      <trkpt lat="48.81919" lon="2.35874">
        <ele>116.5</ele>
        <time>2015-02-09T20:53:12.438Z</time>
      </trkpt>
      <trkpt lat="48.8192" lon="2.35869">
        <ele>116.4</ele>
        <time>2015-02-09T20:53:13.472Z</time>
      </trkpt>
      <trkpt lat="48.81921" lon="2.35858">
        <ele>116.5</ele>
        <time>2015-02-09T20:53:15.507Z</time>
      </trkpt>
      <trkpt lat="48.81922" lon="2.35852">
        <ele>116.1</ele>
        <time>2015-02-09T20:53:16.574Z</time>
      </trkpt>
      <trkpt lat="48.81924" lon="2.35841">
        <ele>115.2</ele>
        <time>2015-02-09T20:53:18.412Z</time>
      </trkpt>
      <trkpt lat="48.81924" lon="2.35836">
        <ele>114.7</ele>
        <time>2015-02-09T20:53:19.464Z</time>
      </trkpt>
      <trkpt lat="48.81927" lon="2.35824">
        <ele>113.6</ele>
        <time>2015-02-09T20:53:21.474Z</time>
      </trkpt>
      <trkpt lat="48.81928" lon="2.35818">
        <ele>113</ele>
        <time>2015-02-09T20:53:22.493Z</time>
      </trkpt>
      <trkpt lat="48.8193" lon="2.35806">
        <ele>111.6</ele>
        <time>2015-02-09T20:53:24.433Z</time>
      </trkpt>
      <trkpt lat="48.81931" lon="2.358">
        <ele>110.7</ele>
        <time>2015-02-09T20:53:25.490Z</time>
      </trkpt>
      <trkpt lat="48.81934" lon="2.35788">
        <ele>109.4</ele>
        <time>2015-02-09T20:53:27.523Z</time>
      </trkpt>
      <trkpt lat="48.81936" lon="2.35783">
        <ele>108.9</ele>
        <time>2015-02-09T20:53:28.652Z</time>
      </trkpt>
      <trkpt lat="48.81941" lon="2.35772">
        <ele>108.2</ele>
        <time>2015-02-09T20:53:30.453Z</time>
      </trkpt>
      <trkpt lat="48.81943" lon="2.35766">
        <ele>107.8</ele>
        <time>2015-02-09T20:53:31.476Z</time>
      </trkpt>
      <trkpt lat="48.81948" lon="2.35756">
        <ele>107.5</ele>
        <time>2015-02-09T20:53:33.500Z</time>
      </trkpt>
      <trkpt lat="48.81951" lon="2.35751">
        <ele>107.3</ele>
        <time>2015-02-09T20:53:34.527Z</time>
      </trkpt>
      <trkpt lat="48.81957" lon="2.35742">
        <ele>107.2</ele>
        <time>2015-02-09T20:53:36.436Z</time>
      </trkpt>
      <trkpt lat="48.8196" lon="2.35737">
        <ele>106.8</ele>
        <time>2015-02-09T20:53:37.478Z</time>
      </trkpt>
      <trkpt lat="48.81965" lon="2.35729">
        <ele>106.1</ele>
        <time>2015-02-09T20:53:39.441Z</time>
      </trkpt>
      <trkpt lat="48.81968" lon="2.35725">
        <ele>106.1</ele>
        <time>2015-02-09T20:53:40.456Z</time>
      </trkpt>
      <trkpt lat="48.81974" lon="2.35716">
        <ele>105.4</ele>
        <time>2015-02-09T20:53:42.501Z</time>
      </trkpt>
      <trkpt lat="48.81977" lon="2.3571">
        <ele>104.3</ele>
        <time>2015-02-09T20:53:43.522Z</time>
      </trkpt>
      <trkpt lat="48.8198" lon="2.35706">
        <ele>104</ele>
        <time>2015-02-09T20:53:44.429Z</time>
      </trkpt>
      <trkpt lat="48.81984" lon="2.35701">
        <ele>103.8</ele>
        <time>2015-02-09T20:53:45.444Z</time>
      </trkpt>
      <trkpt lat="48.81987" lon="2.35697">
        <ele>103.6</ele>
        <time>2015-02-09T20:53:46.462Z</time>
      </trkpt>
      <trkpt lat="48.8199" lon="2.35692">
        <ele>103.5</ele>
        <time>2015-02-09T20:53:47.467Z</time>
      </trkpt>
      <trkpt lat="48.81994" lon="2.35687">
        <ele>103.4</ele>
        <time>2015-02-09T20:53:48.558Z</time>
      </trkpt>
      <trkpt lat="48.81998" lon="2.35683">
        <ele>103</ele>
        <time>2015-02-09T20:53:49.533Z</time>
      </trkpt>
      <trkpt lat="48.82002" lon="2.35678">
        <ele>102.7</ele>
        <time>2015-02-09T20:53:50.425Z</time>
      </trkpt>
      <trkpt lat="48.82005" lon="2.35672">
        <ele>102.5</ele>
        <time>2015-02-09T20:53:51.424Z</time>
      </trkpt>
      <trkpt lat="48.82009" lon="2.35667">
        <ele>102.3</ele>
        <time>2015-02-09T20:53:52.435Z</time>
      </trkpt>
      <trkpt lat="48.82013" lon="2.35663">
        <ele>102.3</ele>
        <time>2015-02-09T20:53:53.445Z</time>
      </trkpt>
      <trkpt lat="48.82017" lon="2.35658">
        <ele>102.1</ele>
        <time>2015-02-09T20:53:54.494Z</time>
      </trkpt>
      <trkpt lat="48.8202" lon="2.35652">
        <ele>101.4</ele>
        <time>2015-02-09T20:53:55.510Z</time>
      </trkpt>
      <trkpt lat="48.82024" lon="2.35647">
        <ele>101</ele>
        <time>2015-02-09T20:53:56.527Z</time>
      </trkpt>
      <trkpt lat="48.82027" lon="2.35641">
        <ele>100.9</ele>
        <time>2015-02-09T20:53:57.438Z</time>
      </trkpt>
      <trkpt lat="48.8203" lon="2.35635">
        <ele>100.5</ele>
        <time>2015-02-09T20:53:58.433Z</time>
      </trkpt>
      <trkpt lat="48.82034" lon="2.35628">
        <ele>100.3</ele>
        <time>2015-02-09T20:53:59.444Z</time>
      </trkpt>
      <trkpt lat="48.82037" lon="2.35621">
        <ele>100.4</ele>
        <time>2015-02-09T20:54:00.460Z</time>
      </trkpt>
      <trkpt lat="48.8204" lon="2.35614">
        <ele>100.3</ele>
        <time>2015-02-09T20:54:01.481Z</time>
      </trkpt>
      <trkpt lat="48.82044" lon="2.35608">
        <ele>100.1</ele>
        <time>2015-02-09T20:54:02.489Z</time>
      </trkpt>
      <trkpt lat="48.82048" lon="2.35602">
        <ele>100.2</ele>
        <time>2015-02-09T20:54:03.511Z</time>
      </trkpt>
      <trkpt lat="48.82051" lon="2.35597">
        <ele>100.1</ele>
        <time>2015-02-09T20:54:04.426Z</time>
      </trkpt>
      <trkpt lat="48.82054" lon="2.35592">
        <ele>100</ele>
        <time>2015-02-09T20:54:05.423Z</time>
      </trkpt>
      <trkpt lat="48.8206" lon="2.35583">
        <ele>100.3</ele>
        <time>2015-02-09T20:54:07.478Z</time>
      </trkpt>
      <trkpt lat="48.82062" lon="2.35579">
        <ele>100.3</ele>
        <time>2015-02-09T20:54:08.417Z</time>
      </trkpt>
      <trkpt lat="48.82069" lon="2.35574">
        <ele>98.7</ele>
        <time>2015-02-09T20:54:11.522Z</time>
      </trkpt>
      <trkpt lat="48.82071" lon="2.3557">
        <ele>98.7</ele>
        <time>2015-02-09T20:54:12.450Z</time>
      </trkpt>
      <trkpt lat="48.82077" lon="2.35561">
        <ele>98.7</ele>
        <time>2015-02-09T20:54:16.449Z</time>
      </trkpt>
      <trkpt lat="48.82079" lon="2.35561">
        <ele>98.7</ele>
        <time>2015-02-09T20:54:17.465Z</time>
      </trkpt>
      <trkpt lat="48.8208" lon="2.35562">
        <ele>97.8</ele>
        <time>2015-02-09T20:54:28.451Z</time>
      </trkpt>
      <trkpt lat="48.82088" lon="2.35552">
        <ele>99.6</ele>
        <time>2015-02-09T20:54:29.469Z</time>
      </trkpt>
      <trkpt lat="48.82095" lon="2.35546">
        <ele>99.5</ele>
        <time>2015-02-09T20:54:33.472Z</time>
      </trkpt>
      <trkpt lat="48.82096" lon="2.35543">
        <ele>99.3</ele>
        <time>2015-02-09T20:54:34.593Z</time>
      </trkpt>
      <trkpt lat="48.821" lon="2.35532">
        <ele>99.3</ele>
        <time>2015-02-09T20:54:38.493Z</time>
      </trkpt>
      <trkpt lat="48.82101" lon="2.3553">
        <ele>99.6</ele>
        <time>2015-02-09T20:54:39.506Z</time>
      </trkpt>
      <trkpt lat="48.82108" lon="2.35524">
        <ele>99.6</ele>
        <time>2015-02-09T20:54:43.451Z</time>
      </trkpt>
      <trkpt lat="48.8211" lon="2.35523">
        <ele>99.6</ele>
        <time>2015-02-09T20:54:44.454Z</time>
      </trkpt>
      <trkpt lat="48.82119" lon="2.35522">
        <ele>100.1</ele>
        <time>2015-02-09T20:54:48.475Z</time>
      </trkpt>
      <trkpt lat="48.82121" lon="2.35522">
        <ele>100.6</ele>
        <time>2015-02-09T20:54:49.484Z</time>
      </trkpt>
      <trkpt lat="48.82127" lon="2.35523">
        <ele>100</ele>
        <time>2015-02-09T20:54:51.425Z</time>
      </trkpt>
      <trkpt lat="48.82131" lon="2.35524">
        <ele>99.7</ele>
        <time>2015-02-09T20:54:52.460Z</time>
      </trkpt>
      <trkpt lat="48.82139" lon="2.35527">
        <ele>99.8</ele>
        <time>2015-02-09T20:54:54.423Z</time>
      </trkpt>
      <trkpt lat="48.82142" lon="2.35528">
        <ele>100.1</ele>
        <time>2015-02-09T20:54:55.524Z</time>
      </trkpt>
      <trkpt lat="48.82149" lon="2.35533">
        <ele>100.6</ele>
        <time>2015-02-09T20:54:59.431Z</time>
      </trkpt>
      <trkpt lat="48.82152" lon="2.35534">
        <ele>101</ele>
        <time>2015-02-09T20:55:00.492Z</time>
      </trkpt>
      <trkpt lat="48.82158" lon="2.35531">
        <ele>102.3</ele>
        <time>2015-02-09T20:55:03.433Z</time>
      </trkpt>
      <trkpt lat="48.82158" lon="2.35532">
        <ele>102.2</ele>
        <time>2015-02-09T20:55:04.431Z</time>
      </trkpt>
      <trkpt lat="48.82157" lon="2.35531">
        <ele>102.2</ele>
        <time>2015-02-09T20:55:17.429Z</time>
      </trkpt>
      <trkpt lat="48.82161" lon="2.35524">
        <ele>105.7</ele>
        <time>2015-02-09T20:55:18.439Z</time>
      </trkpt>
      <trkpt lat="48.82168" lon="2.35518">
        <ele>105.7</ele>
        <time>2015-02-09T20:55:20.482Z</time>
      </trkpt>
      <trkpt lat="48.82171" lon="2.35517">
        <ele>106</ele>
        <time>2015-02-09T20:55:21.489Z</time>
      </trkpt>
      <trkpt lat="48.82177" lon="2.35518">
        <ele>106.4</ele>
        <time>2015-02-09T20:55:23.434Z</time>
      </trkpt>
      <trkpt lat="48.82181" lon="2.35519">
        <ele>107.3</ele>
        <time>2015-02-09T20:55:24.439Z</time>
      </trkpt>
      <trkpt lat="48.82189" lon="2.35519">
        <ele>108.8</ele>
        <time>2015-02-09T20:55:26.464Z</time>
      </trkpt>
      <trkpt lat="48.82191" lon="2.35518">
        <ele>109.5</ele>
        <time>2015-02-09T20:55:27.471Z</time>
      </trkpt>
      <trkpt lat="48.82199" lon="2.35519">
        <ele>110.5</ele>
        <time>2015-02-09T20:55:30.439Z</time>
      </trkpt>
      <trkpt lat="48.822" lon="2.3552">
        <ele>110.9</ele>
        <time>2015-02-09T20:55:31.479Z</time>
      </trkpt>
      <trkpt lat="48.82203" lon="2.3552">
        <ele>111.5</ele>
        <time>2015-02-09T20:55:33.497Z</time>
      </trkpt>
      <trkpt lat="48.82205" lon="2.35521">
        <ele>112</ele>
        <time>2015-02-09T20:55:34.516Z</time>
      </trkpt>
      <trkpt lat="48.82205" lon="2.35519">
        <ele>111.9</ele>
        <time>2015-02-09T20:56:00.434Z</time>
      </trkpt>
      <trkpt lat="48.82226" lon="2.35531">
        <ele>118.4</ele>
        <time>2015-02-09T20:56:01.488Z</time>
      </trkpt>
      <trkpt lat="48.82231" lon="2.3553">
        <ele>116.9</ele>
        <time>2015-02-09T20:56:02.474Z</time>
      </trkpt>
      <trkpt lat="48.82236" lon="2.35529">
        <ele>115.4</ele>
        <time>2015-02-09T20:56:03.490Z</time>
      </trkpt>
      <trkpt lat="48.82245" lon="2.35531">
        <ele>115.7</ele>
        <time>2015-02-09T20:56:07.493Z</time>
      </trkpt>
      <trkpt lat="48.82247" lon="2.35532">
        <ele>115.9</ele>
        <time>2015-02-09T20:56:08.506Z</time>
      </trkpt>
      <trkpt lat="48.82255" lon="2.35535">
        <ele>115.9</ele>
        <time>2015-02-09T20:56:12.452Z</time>
      </trkpt>
      <trkpt lat="48.82257" lon="2.35535">
        <ele>116.2</ele>
        <time>2015-02-09T20:56:13.460Z</time>
      </trkpt>
      <trkpt lat="48.82264" lon="2.35534">
        <ele>116.6</ele>
        <time>2015-02-09T20:56:15.500Z</time>
      </trkpt>
      <trkpt lat="48.82267" lon="2.35534">
        <ele>116.8</ele>
        <time>2015-02-09T20:56:16.423Z</time>
      </trkpt>
      <trkpt lat="48.82274" lon="2.35541">
        <ele>116.9</ele>
        <time>2015-02-09T20:56:24.449Z</time>
      </trkpt>
      <trkpt lat="48.82298" lon="2.35534">
        <ele>112.8</ele>
        <time>2015-02-09T20:56:25.522Z</time>
      </trkpt>
      <trkpt lat="48.82305" lon="2.35531">
        <ele>112.2</ele>
        <time>2015-02-09T20:56:27.428Z</time>
      </trkpt>
      <trkpt lat="48.82307" lon="2.35531">
        <ele>112.1</ele>
        <time>2015-02-09T20:56:28.443Z</time>
      </trkpt>
      <trkpt lat="48.82315" lon="2.35534">
        <ele>112.1</ele>
        <time>2015-02-09T20:56:35.484Z</time>
      </trkpt>
      <trkpt lat="48.82316" lon="2.35535">
        <ele>112.3</ele>
        <time>2015-02-09T20:56:36.490Z</time>
      </trkpt>
      <trkpt lat="48.82317" lon="2.35536">
        <ele>112.4</ele>
        <time>2015-02-09T20:56:44.452Z</time>
      </trkpt>
      <trkpt lat="48.82331" lon="2.35537">
        <ele>112.7</ele>
        <time>2015-02-09T20:56:45.464Z</time>
      </trkpt>
      <trkpt lat="48.82336" lon="2.35536">
        <ele>111.9</ele>
        <time>2015-02-09T20:56:46.501Z</time>
      </trkpt>
      <trkpt lat="48.8234" lon="2.35533">
        <ele>111.1</ele>
        <time>2015-02-09T20:56:47.418Z</time>
      </trkpt>
      <trkpt lat="48.82348" lon="2.35531">
        <ele>110.6</ele>
        <time>2015-02-09T20:56:49.449Z</time>
      </trkpt>
      <trkpt lat="48.82351" lon="2.3553">
        <ele>110.2</ele>
        <time>2015-02-09T20:56:50.468Z</time>
      </trkpt>
      <trkpt lat="48.82355" lon="2.35533">
        <ele>110</ele>
        <time>2015-02-09T20:57:04.439Z</time>
      </trkpt>
      <trkpt lat="48.82366" lon="2.35529">
        <ele>110.5</ele>
        <time>2015-02-09T20:57:05.450Z</time>
      </trkpt>
      <trkpt lat="48.82373" lon="2.35523">
        <ele>109.1</ele>
        <time>2015-02-09T20:57:08.524Z</time>
      </trkpt>
      <trkpt lat="48.82376" lon="2.35519">
        <ele>108.3</ele>
        <time>2015-02-09T20:57:09.487Z</time>
      </trkpt>
      <trkpt lat="48.82381" lon="2.35514">
        <ele>108</ele>
        <time>2015-02-09T20:57:11.434Z</time>
      </trkpt>
      <trkpt lat="48.82383" lon="2.35511">
        <ele>107.8</ele>
        <time>2015-02-09T20:57:12.475Z</time>
      </trkpt>
      <trkpt lat="48.82389" lon="2.355">
        <ele>107.4</ele>
        <time>2015-02-09T20:57:15.431Z</time>
      </trkpt>
      <trkpt lat="48.8239" lon="2.35496">
        <ele>107.3</ele>
        <time>2015-02-09T20:57:16.495Z</time>
      </trkpt>
      <trkpt lat="48.82395" lon="2.35486">
        <ele>107.3</ele>
        <time>2015-02-09T20:57:19.475Z</time>
      </trkpt>
      <trkpt lat="48.82395" lon="2.35484">
        <ele>107.6</ele>
        <time>2015-02-09T20:57:20.486Z</time>
      </trkpt>
      <trkpt lat="48.82401" lon="2.3548">
        <ele>107.6</ele>
        <time>2015-02-09T20:57:22.438Z</time>
      </trkpt>
      <trkpt lat="48.82403" lon="2.35476">
        <ele>107.8</ele>
        <time>2015-02-09T20:57:23.456Z</time>
      </trkpt>
      <trkpt lat="48.82408" lon="2.3547">
        <ele>108.3</ele>
        <time>2015-02-09T20:57:25.511Z</time>
      </trkpt>
      <trkpt lat="48.82413" lon="2.35463">
        <ele>107.9</ele>
        <time>2015-02-09T20:57:26.437Z</time>
      </trkpt>
      <trkpt lat="48.82418" lon="2.35457">
        <ele>107.3</ele>
        <time>2015-02-09T20:57:27.538Z</time>
      </trkpt>
      <trkpt lat="48.82423" lon="2.35452">
        <ele>106.6</ele>
        <time>2015-02-09T20:57:28.434Z</time>
      </trkpt>
      <trkpt lat="48.82427" lon="2.35449">
        <ele>106.7</ele>
        <time>2015-02-09T20:57:29.445Z</time>
      </trkpt>
      <trkpt lat="48.82431" lon="2.35443">
        <ele>107.4</ele>
        <time>2015-02-09T20:57:30.491Z</time>
      </trkpt>
      <trkpt lat="48.82435" lon="2.35439">
        <ele>107.9</ele>
        <time>2015-02-09T20:57:31.513Z</time>
      </trkpt>
      <trkpt lat="48.82441" lon="2.35438">
        <ele>108</ele>
        <time>2015-02-09T20:57:32.419Z</time>
      </trkpt>
      <trkpt lat="48.82446" lon="2.35437">
        <ele>108</ele>
        <time>2015-02-09T20:57:33.434Z</time>
      </trkpt>
      <trkpt lat="48.8245" lon="2.35436">
        <ele>108.1</ele>
        <time>2015-02-09T20:57:34.442Z</time>
      </trkpt>
      <trkpt lat="48.82457" lon="2.35433">
        <ele>107.9</ele>
        <time>2015-02-09T20:57:36.421Z</time>
      </trkpt>
      <trkpt lat="48.8246" lon="2.35431">
        <ele>108.2</ele>
        <time>2015-02-09T20:57:37.474Z</time>
      </trkpt>
      <trkpt lat="48.82468" lon="2.35428">
        <ele>108.1</ele>
        <time>2015-02-09T20:57:39.478Z</time>
      </trkpt>
      <trkpt lat="48.8247" lon="2.35427">
        <ele>107.8</ele>
        <time>2015-02-09T20:57:40.509Z</time>
      </trkpt>
      <trkpt lat="48.82477" lon="2.35424">
        <ele>107.8</ele>
        <time>2015-02-09T20:57:42.456Z</time>
      </trkpt>
      <trkpt lat="48.8248" lon="2.35421">
        <ele>108</ele>
        <time>2015-02-09T20:57:43.470Z</time>
      </trkpt>
      <trkpt lat="48.82488" lon="2.35419">
        <ele>108.3</ele>
        <time>2015-02-09T20:57:45.422Z</time>
      </trkpt>
      <trkpt lat="48.82492" lon="2.35418">
        <ele>108.6</ele>
        <time>2015-02-09T20:57:46.437Z</time>
      </trkpt>
      <trkpt lat="48.82499" lon="2.35415">
        <ele>108.5</ele>
        <time>2015-02-09T20:57:48.442Z</time>
      </trkpt>
      <trkpt lat="48.82502" lon="2.35412">
        <ele>108.7</ele>
        <time>2015-02-09T20:57:49.463Z</time>
      </trkpt>
      <trkpt lat="48.82506" lon="2.35408">
        <ele>107.9</ele>
        <time>2015-02-09T20:57:50.513Z</time>
      </trkpt>
      <trkpt lat="48.82511" lon="2.35405">
        <ele>107.5</ele>
        <time>2015-02-09T20:57:51.402Z</time>
      </trkpt>
      <trkpt lat="48.82519" lon="2.35401">
        <ele>106.7</ele>
        <time>2015-02-09T20:57:53.421Z</time>
      </trkpt>
      <trkpt lat="48.82521" lon="2.35399">
        <ele>107</ele>
        <time>2015-02-09T20:57:54.432Z</time>
      </trkpt>
      <trkpt lat="48.82527" lon="2.35396">
        <ele>107.6</ele>
        <time>2015-02-09T20:57:56.465Z</time>
      </trkpt>
      <trkpt lat="48.8253" lon="2.35394">
        <ele>108.2</ele>
        <time>2015-02-09T20:57:57.479Z</time>
      </trkpt>
      <trkpt lat="48.82536" lon="2.35391">
        <ele>109.3</ele>
        <time>2015-02-09T20:57:59.519Z</time>
      </trkpt>
      <trkpt lat="48.82539" lon="2.35388">
        <ele>109.8</ele>
        <time>2015-02-09T20:58:00.402Z</time>
      </trkpt>
      <trkpt lat="48.82548" lon="2.35385">
        <ele>111.1</ele>
        <time>2015-02-09T20:58:04.492Z</time>
      </trkpt>
      <trkpt lat="48.8255" lon="2.35384">
        <ele>111.4</ele>
        <time>2015-02-09T20:58:05.502Z</time>
      </trkpt>
      <trkpt lat="48.82557" lon="2.35384">
        <ele>111.9</ele>
        <time>2015-02-09T20:58:12.508Z</time>
      </trkpt>
      <trkpt lat="48.82563" lon="2.35381">
        <ele>113.5</ele>
        <time>2015-02-09T20:58:13.512Z</time>
      </trkpt>
      <trkpt lat="48.82571" lon="2.35379">
        <ele>113.4</ele>
        <time>2015-02-09T20:58:46.540Z</time>
      </trkpt>
      <trkpt lat="48.82603" lon="2.35399">
        <ele>115.7</ele>
        <time>2015-02-09T20:58:47.426Z</time>
      </trkpt>
      <trkpt lat="48.82605" lon="2.35409">
        <ele>114.8</ele>
        <time>2015-02-09T20:58:50.463Z</time>
      </trkpt>
      <trkpt lat="48.82606" lon="2.35412">
        <ele>114.5</ele>
        <time>2015-02-09T20:58:51.483Z</time>
      </trkpt>
      <trkpt lat="48.82606" lon="2.35424">
        <ele>113.6</ele>
        <time>2015-02-09T20:58:55.470Z</time>
      </trkpt>
      <trkpt lat="48.82607" lon="2.35426">
        <ele>113.3</ele>
        <time>2015-02-09T20:58:56.481Z</time>
      </trkpt>
      <trkpt lat="48.82613" lon="2.35424">
        <ele>112.5</ele>
        <time>2015-02-09T20:59:00.429Z</time>
      </trkpt>
      <trkpt lat="48.82617" lon="2.35424">
        <ele>112.4</ele>
        <time>2015-02-09T20:59:01.474Z</time>
      </trkpt>
      <trkpt lat="48.82625" lon="2.35422">
        <ele>112</ele>
        <time>2015-02-09T20:59:03.694Z</time>
      </trkpt>
      <trkpt lat="48.82628" lon="2.35421">
        <ele>111.8</ele>
        <time>2015-02-09T20:59:04.476Z</time>
      </trkpt>
      <trkpt lat="48.82636" lon="2.35413">
        <ele>111.2</ele>
        <time>2015-02-09T20:59:07.648Z</time>
      </trkpt>
      <trkpt lat="48.82637" lon="2.35413">
        <ele>111</ele>
        <time>2015-02-09T20:59:08.479Z</time>
      </trkpt>
      <trkpt lat="48.82643" lon="2.35411">
        <ele>110.5</ele>
        <time>2015-02-09T20:59:11.514Z</time>
      </trkpt>
      <trkpt lat="48.82647" lon="2.3541">
        <ele>110.3</ele>
        <time>2015-02-09T20:59:12.656Z</time>
      </trkpt>
      <trkpt lat="48.82653" lon="2.35407">
        <ele>109.6</ele>
        <time>2015-02-09T20:59:14.424Z</time>
      </trkpt>
      <trkpt lat="48.82655" lon="2.35403">
        <ele>109.7</ele>
        <time>2015-02-09T20:59:15.465Z</time>
      </trkpt>
      <trkpt lat="48.82662" lon="2.35394">
        <ele>110.3</ele>
        <time>2015-02-09T20:59:18.891Z</time>
      </trkpt>
      <trkpt lat="48.82663" lon="2.35391">
        <ele>110.2</ele>
        <time>2015-02-09T20:59:19.552Z</time>
      </trkpt>
      <trkpt lat="48.82668" lon="2.35381">
        <ele>110.7</ele>
        <time>2015-02-09T20:59:22.453Z</time>
      </trkpt>
      <trkpt lat="48.82669" lon="2.35379">
        <ele>110.8</ele>
        <time>2015-02-09T20:59:23.490Z</time>
      </trkpt>
      <trkpt lat="48.82671" lon="2.35379">
        <ele>111.1</ele>
        <time>2015-02-09T21:00:06.524Z</time>
      </trkpt>
      <trkpt lat="48.82705" lon="2.35366">
        <ele>120.7</ele>
        <time>2015-02-09T21:00:07.481Z</time>
      </trkpt>
      <trkpt lat="48.82711" lon="2.35361">
        <ele>121.2</ele>
        <time>2015-02-09T21:00:10.418Z</time>
      </trkpt>
      <trkpt lat="48.82713" lon="2.3536">
        <ele>121.4</ele>
        <time>2015-02-09T21:00:11.424Z</time>
      </trkpt>
      <trkpt lat="48.82713" lon="2.3536">
        <ele>121.4</ele>
        <time>2015-02-09T21:00:30.422Z</time>
      </trkpt>
      <trkpt lat="48.82745" lon="2.35343">
        <ele>122.9</ele>
        <time>2015-02-09T21:00:31.443Z</time>
      </trkpt>
      <trkpt lat="48.8275" lon="2.35336">
        <ele>123.2</ele>
        <time>2015-02-09T21:00:36.458Z</time>
      </trkpt>
      <trkpt lat="48.82752" lon="2.35335">
        <ele>123.8</ele>
        <time>2015-02-09T21:00:37.476Z</time>
      </trkpt>
      <trkpt lat="48.82759" lon="2.35331">
        <ele>121.9</ele>
        <time>2015-02-09T21:00:40.610Z</time>
      </trkpt>
      <trkpt lat="48.82762" lon="2.35329">
        <ele>120.8</ele>
        <time>2015-02-09T21:00:41.458Z</time>
      </trkpt>
      <trkpt lat="48.82767" lon="2.35324">
        <ele>119.7</ele>
        <time>2015-02-09T21:00:43.477Z</time>
      </trkpt>
      <trkpt lat="48.8277" lon="2.35321">
        <ele>119.1</ele>
        <time>2015-02-09T21:00:44.493Z</time>
      </trkpt>
      <trkpt lat="48.82778" lon="2.35317">
        <ele>118.8</ele>
        <time>2015-02-09T21:00:46.425Z</time>
      </trkpt>
      <trkpt lat="48.8278" lon="2.35314">
        <ele>118.7</ele>
        <time>2015-02-09T21:00:47.430Z</time>
      </trkpt>
      <trkpt lat="48.82786" lon="2.3531">
        <ele>118.1</ele>
        <time>2015-02-09T21:00:49.532Z</time>
      </trkpt>
      <trkpt lat="48.82788" lon="2.35307">
        <ele>117.2</ele>
        <time>2015-02-09T21:00:50.453Z</time>
      </trkpt>
      <trkpt lat="48.82792" lon="2.35302">
        <ele>115.3</ele>
        <time>2015-02-09T21:00:53.410Z</time>
      </trkpt>
      <trkpt lat="48.82795" lon="2.35299">
        <ele>114.8</ele>
        <time>2015-02-09T21:00:53.468Z</time>
      </trkpt>
      <trkpt lat="48.82802" lon="2.35292">
        <ele>114.1</ele>
        <time>2015-02-09T21:00:56.450Z</time>
      </trkpt>
      <trkpt lat="48.82803" lon="2.35289">
        <ele>113.8</ele>
        <time>2015-02-09T21:00:57.460Z</time>
      </trkpt>
      <trkpt lat="48.82808" lon="2.3528">
        <ele>114.6</ele>
        <time>2015-02-09T21:01:01.495Z</time>
      </trkpt>
      <trkpt lat="48.82809" lon="2.35277">
        <ele>114.8</ele>
        <time>2015-02-09T21:01:02.501Z</time>
      </trkpt>
      <trkpt lat="48.8281" lon="2.35272">
        <ele>115</ele>
        <time>2015-02-09T21:01:04.464Z</time>
      </trkpt>
      <trkpt lat="48.82811" lon="2.35273">
        <ele>115.2</ele>
        <time>2015-02-09T21:01:05.475Z</time>
      </trkpt>
      <trkpt lat="48.82812" lon="2.35274">
        <ele>115.4</ele>
        <time>2015-02-09T21:02:34.450Z</time>
      </trkpt>
      <trkpt lat="48.82839" lon="2.35281">
        <ele>132.8</ele>
        <time>2015-02-09T21:02:35.466Z</time>
      </trkpt>
      <trkpt lat="48.82846" lon="2.35287">
        <ele>133</ele>
        <time>2015-02-09T21:02:39.426Z</time>
      </trkpt>
      <trkpt lat="48.82849" lon="2.35289">
        <ele>133</ele>
        <time>2015-02-09T21:02:40.434Z</time>
      </trkpt>
      <trkpt lat="48.82854" lon="2.35297">
        <ele>133.7</ele>
        <time>2015-02-09T21:02:43.496Z</time>
      </trkpt>
      <trkpt lat="48.82857" lon="2.35299">
        <ele>133.9</ele>
        <time>2015-02-09T21:02:44.429Z</time>
      </trkpt>
      <trkpt lat="48.82861" lon="2.35305">
        <ele>134.4</ele>
        <time>2015-02-09T21:02:46.420Z</time>
      </trkpt>
      <trkpt lat="48.82863" lon="2.35309">
        <ele>134.5</ele>
        <time>2015-02-09T21:02:47.429Z</time>
      </trkpt>
      <trkpt lat="48.82867" lon="2.35318">
        <ele>135.4</ele>
        <time>2015-02-09T21:02:49.465Z</time>
      </trkpt>
      <trkpt lat="48.82869" lon="2.35321">
        <ele>135.6</ele>
        <time>2015-02-09T21:02:50.474Z</time>
      </trkpt>
      <trkpt lat="48.82875" lon="2.35328">
        <ele>135.7</ele>
        <time>2015-02-09T21:02:52.414Z</time>
      </trkpt>
      <trkpt lat="48.82877" lon="2.35331">
        <ele>135.8</ele>
        <time>2015-02-09T21:02:53.425Z</time>
      </trkpt>
      <trkpt lat="48.82885" lon="2.35329">
        <ele>134.8</ele>
        <time>2015-02-09T21:02:55.461Z</time>
      </trkpt>
      <trkpt lat="48.82888" lon="2.35331">
        <ele>134.8</ele>
        <time>2015-02-09T21:02:56.461Z</time>
      </trkpt>
      <trkpt lat="48.82894" lon="2.35335">
        <ele>134</ele>
        <time>2015-02-09T21:02:58.439Z</time>
      </trkpt>
      <trkpt lat="48.82898" lon="2.35336">
        <ele>133.4</ele>
        <time>2015-02-09T21:02:59.454Z</time>
      </trkpt>
      <trkpt lat="48.82903" lon="2.35342">
        <ele>133</ele>
        <time>2015-02-09T21:03:01.492Z</time>
      </trkpt>
      <trkpt lat="48.82907" lon="2.35344">
        <ele>133.1</ele>
        <time>2015-02-09T21:03:02.413Z</time>
      </trkpt>
      <trkpt lat="48.82914" lon="2.35349">
        <ele>133.3</ele>
        <time>2015-02-09T21:03:04.439Z</time>
      </trkpt>
      <trkpt lat="48.82918" lon="2.35354">
        <ele>133.2</ele>
        <time>2015-02-09T21:03:05.452Z</time>
      </trkpt>
      <trkpt lat="48.82924" lon="2.35361">
        <ele>133.2</ele>
        <time>2015-02-09T21:03:07.472Z</time>
      </trkpt>
      <trkpt lat="48.82927" lon="2.35365">
        <ele>133.1</ele>
        <time>2015-02-09T21:03:08.484Z</time>
      </trkpt>
      <trkpt lat="48.82934" lon="2.35371">
        <ele>133.3</ele>
        <time>2015-02-09T21:03:10.413Z</time>
      </trkpt>
      <trkpt lat="48.82938" lon="2.35372">
        <ele>133.3</ele>
        <time>2015-02-09T21:03:11.479Z</time>
      </trkpt>
      <trkpt lat="48.82945" lon="2.35375">
        <ele>133</ele>
        <time>2015-02-09T21:03:13.461Z</time>
      </trkpt>
      <trkpt lat="48.82949" lon="2.35379">
        <ele>133.1</ele>
        <time>2015-02-09T21:03:14.464Z</time>
      </trkpt>
      <trkpt lat="48.82956" lon="2.35385">
        <ele>133.2</ele>
        <time>2015-02-09T21:03:16.416Z</time>
      </trkpt>
      <trkpt lat="48.8296" lon="2.35388">
        <ele>133.3</ele>
        <time>2015-02-09T21:03:17.424Z</time>
      </trkpt>
      <trkpt lat="48.82965" lon="2.35392">
        <ele>133.4</ele>
        <time>2015-02-09T21:03:18.441Z</time>
      </trkpt>
      <trkpt lat="48.82969" lon="2.35396">
        <ele>133</ele>
        <time>2015-02-09T21:03:19.460Z</time>
      </trkpt>
      <trkpt lat="48.82974" lon="2.354">
        <ele>132.7</ele>
        <time>2015-02-09T21:03:20.479Z</time>
      </trkpt>
      <trkpt lat="48.82979" lon="2.35403">
        <ele>132.5</ele>
        <time>2015-02-09T21:03:21.489Z</time>
      </trkpt>
      <trkpt lat="48.82985" lon="2.35406">
        <ele>132.2</ele>
        <time>2015-02-09T21:03:22.512Z</time>
      </trkpt>
      <trkpt lat="48.82992" lon="2.35409">
        <ele>132</ele>
        <time>2015-02-09T21:03:23.425Z</time>
      </trkpt>
      <trkpt lat="48.82999" lon="2.35413">
        <ele>132.1</ele>
        <time>2015-02-09T21:03:24.405Z</time>
      </trkpt>
      <trkpt lat="48.83006" lon="2.35418">
        <ele>132</ele>
        <time>2015-02-09T21:03:25.445Z</time>
      </trkpt>
      <trkpt lat="48.83012" lon="2.35422">
        <ele>132.1</ele>
        <time>2015-02-09T21:03:26.455Z</time>
      </trkpt>
      <trkpt lat="48.83015" lon="2.35426">
        <ele>132.2</ele>
        <time>2015-02-09T21:03:27.489Z</time>
      </trkpt>
      <trkpt lat="48.83018" lon="2.35438">
        <ele>133.5</ele>
        <time>2015-02-09T21:03:30.430Z</time>
      </trkpt>
      <trkpt lat="48.83018" lon="2.35441">
        <ele>133.8</ele>
        <time>2015-02-09T21:03:31.469Z</time>
      </trkpt>
      <trkpt lat="48.83021" lon="2.35452">
        <ele>134.8</ele>
        <time>2015-02-09T21:03:35.424Z</time>
      </trkpt>
      <trkpt lat="48.83024" lon="2.35455">
        <ele>135.2</ele>
        <time>2015-02-09T21:03:36.454Z</time>
      </trkpt>
      <trkpt lat="48.83029" lon="2.35465">
        <ele>137</ele>
        <time>2015-02-09T21:03:39.502Z</time>
      </trkpt>
      <trkpt lat="48.83031" lon="2.35468">
        <ele>136.9</ele>
        <time>2015-02-09T21:03:40.423Z</time>
      </trkpt>
      <trkpt lat="48.83037" lon="2.35474">
        <ele>134.7</ele>
        <time>2015-02-09T21:03:42.457Z</time>
      </trkpt>
      <trkpt lat="48.83044" lon="2.35478">
        <ele>131.8</ele>
        <time>2015-02-09T21:03:43.471Z</time>
      </trkpt>
      <trkpt lat="48.83049" lon="2.35482">
        <ele>130.3</ele>
        <time>2015-02-09T21:03:44.506Z</time>
      </trkpt>
      <trkpt lat="48.83054" lon="2.35485">
        <ele>129.2</ele>
        <time>2015-02-09T21:03:45.414Z</time>
      </trkpt>
      <trkpt lat="48.83061" lon="2.3549">
        <ele>127.5</ele>
        <time>2015-02-09T21:03:47.427Z</time>
      </trkpt>
      <trkpt lat="48.83065" lon="2.35492">
        <ele>126.4</ele>
        <time>2015-02-09T21:03:48.439Z</time>
      </trkpt>
      <trkpt lat="48.83071" lon="2.35494">
        <ele>124.2</ele>
        <time>2015-02-09T21:03:50.478Z</time>
      </trkpt>
      <trkpt lat="48.83074" lon="2.35495">
        <ele>123.6</ele>
        <time>2015-02-09T21:03:51.483Z</time>
      </trkpt>
      <trkpt lat="48.8308" lon="2.35495">
        <ele>122</ele>
        <time>2015-02-09T21:03:53.416Z</time>
      </trkpt>
      <trkpt lat="48.83083" lon="2.35496">
        <ele>121.5</ele>
        <time>2015-02-09T21:03:54.429Z</time>
      </trkpt>
      <trkpt lat="48.8309" lon="2.355">
        <ele>119.4</ele>
        <time>2015-02-09T21:03:59.417Z</time>
      </trkpt>
      <trkpt lat="48.83091" lon="2.35501">
        <ele>119.1</ele>
        <time>2015-02-09T21:04:00.380Z</time>
      </trkpt>
      <trkpt lat="48.83096" lon="2.35503">
        <ele>118.1</ele>
        <time>2015-02-09T21:04:32.421Z</time>
      </trkpt>
      <trkpt lat="48.83089" lon="2.3554">
        <ele>122</ele>
        <time>2015-02-09T21:04:33.423Z</time>
      </trkpt>
      <trkpt lat="48.83087" lon="2.35553">
        <ele>120.7</ele>
        <time>2015-02-09T21:04:38.423Z</time>
      </trkpt>
      <trkpt lat="48.83087" lon="2.35556">
        <ele>120.3</ele>
        <time>2015-02-09T21:04:39.426Z</time>
      </trkpt>
      <trkpt lat="48.83081" lon="2.35566">
        <ele>118.7</ele>
        <time>2015-02-09T21:04:44.423Z</time>
      </trkpt>
      <trkpt lat="48.83081" lon="2.35568">
        <ele>118.5</ele>
        <time>2015-02-09T21:04:45.431Z</time>
      </trkpt>
      <trkpt lat="48.83079" lon="2.35574">
        <ele>117.3</ele>
        <time>2015-02-09T21:04:57.422Z</time>
      </trkpt>
      <trkpt lat="48.83068" lon="2.35582">
        <ele>117.4</ele>
        <time>2015-02-09T21:04:58.456Z</time>
      </trkpt>
      <trkpt lat="48.83067" lon="2.35593">
        <ele>116.9</ele>
        <time>2015-02-09T21:05:01.505Z</time>
      </trkpt>
      <trkpt lat="48.83067" lon="2.35596">
        <ele>117.1</ele>
        <time>2015-02-09T21:05:02.402Z</time>
      </trkpt>
      <trkpt lat="48.8307" lon="2.35608">
        <ele>117.3</ele>
        <time>2015-02-09T21:05:06.416Z</time>
      </trkpt>
      <trkpt lat="48.83071" lon="2.3561">
        <ele>117.5</ele>
        <time>2015-02-09T21:05:07.450Z</time>
      </trkpt>
      <trkpt lat="48.83075" lon="2.35619">
        <ele>117.3</ele>
        <time>2015-02-09T21:05:16.425Z</time>
      </trkpt>
      <trkpt lat="48.83075" lon="2.35625">
        <ele>116.4</ele>
        <time>2015-02-09T21:05:17.435Z</time>
      </trkpt>
      <trkpt lat="48.83079" lon="2.35638">
        <ele>115.4</ele>
        <time>2015-02-09T21:05:22.465Z</time>
      </trkpt>
      <trkpt lat="48.83081" lon="2.35639">
        <ele>115.2</ele>
        <time>2015-02-09T21:05:23.485Z</time>
      </trkpt>
      <trkpt lat="48.83087" lon="2.35645">
        <ele>114.8</ele>
        <time>2015-02-09T21:05:26.453Z</time>
      </trkpt>
      <trkpt lat="48.83088" lon="2.35647">
        <ele>114.6</ele>
        <time>2015-02-09T21:05:27.462Z</time>
      </trkpt>
      <trkpt lat="48.83094" lon="2.35656">
        <ele>114.7</ele>
        <time>2015-02-09T21:05:31.433Z</time>
      </trkpt>
      <trkpt lat="48.83096" lon="2.35657">
        <ele>114.2</ele>
        <time>2015-02-09T21:05:32.450Z</time>
      </trkpt>
      <trkpt lat="48.83103" lon="2.35663">
        <ele>113.7</ele>
        <time>2015-02-09T21:05:35.419Z</time>
      </trkpt>
      <trkpt lat="48.83106" lon="2.35666">
        <ele>113.9</ele>
        <time>2015-02-09T21:05:36.476Z</time>
      </trkpt>
      <trkpt lat="48.83111" lon="2.35675">
        <ele>114.5</ele>
        <time>2015-02-09T21:05:38.427Z</time>
      </trkpt>
      <trkpt lat="48.83114" lon="2.35681">
        <ele>114.8</ele>
        <time>2015-02-09T21:05:39.475Z</time>
      </trkpt>
      <trkpt lat="48.83117" lon="2.35693">
        <ele>114.5</ele>
        <time>2015-02-09T21:05:41.506Z</time>
      </trkpt>
      <trkpt lat="48.83119" lon="2.35699">
        <ele>114.7</ele>
        <time>2015-02-09T21:05:42.506Z</time>
      </trkpt>
      <trkpt lat="48.8312" lon="2.35705">
        <ele>114.5</ele>
        <time>2015-02-09T21:05:43.517Z</time>
      </trkpt>
      <trkpt lat="48.83123" lon="2.35711">
        <ele>114.5</ele>
        <time>2015-02-09T21:05:44.418Z</time>
      </trkpt>
      <trkpt lat="48.83128" lon="2.35722">
        <ele>114.9</ele>
        <time>2015-02-09T21:05:46.438Z</time>
      </trkpt>
      <trkpt lat="48.8313" lon="2.35727">
        <ele>114.9</ele>
        <time>2015-02-09T21:05:47.479Z</time>
      </trkpt>
      <trkpt lat="48.83134" lon="2.35739">
        <ele>114.4</ele>
        <time>2015-02-09T21:05:49.501Z</time>
      </trkpt>
      <trkpt lat="48.83136" lon="2.35745">
        <ele>114.3</ele>
        <time>2015-02-09T21:05:50.528Z</time>
      </trkpt>
      <trkpt lat="48.83138" lon="2.35751">
        <ele>114.2</ele>
        <time>2015-02-09T21:05:51.435Z</time>
      </trkpt>
      <trkpt lat="48.83141" lon="2.35757">
        <ele>114.4</ele>
        <time>2015-02-09T21:05:52.440Z</time>
      </trkpt>
      <trkpt lat="48.83145" lon="2.35767">
        <ele>114.2</ele>
        <time>2015-02-09T21:05:54.460Z</time>
      </trkpt>
      <trkpt lat="48.83147" lon="2.35773">
        <ele>114</ele>
        <time>2015-02-09T21:05:55.491Z</time>
      </trkpt>
      <trkpt lat="48.83149" lon="2.35779">
        <ele>114</ele>
        <time>2015-02-09T21:05:56.433Z</time>
      </trkpt>
      <trkpt lat="48.83151" lon="2.35787">
        <ele>113.7</ele>
        <time>2015-02-09T21:05:57.432Z</time>
      </trkpt>
      <trkpt lat="48.83153" lon="2.35793">
        <ele>113.8</ele>
        <time>2015-02-09T21:05:58.457Z</time>
      </trkpt>
      <trkpt lat="48.83155" lon="2.358">
        <ele>113.8</ele>
        <time>2015-02-09T21:05:59.458Z</time>
      </trkpt>
      <trkpt lat="48.83157" lon="2.35806">
        <ele>113.8</ele>
        <time>2015-02-09T21:06:00.493Z</time>
      </trkpt>
      <trkpt lat="48.83159" lon="2.35813">
        <ele>113.6</ele>
        <time>2015-02-09T21:06:01.495Z</time>
      </trkpt>
      <trkpt lat="48.83161" lon="2.35819">
        <ele>113.7</ele>
        <time>2015-02-09T21:06:02.504Z</time>
      </trkpt>
      <trkpt lat="48.83164" lon="2.35826">
        <ele>114.2</ele>
        <time>2015-02-09T21:06:03.511Z</time>
      </trkpt>
      <trkpt lat="48.83166" lon="2.35832">
        <ele>114</ele>
        <time>2015-02-09T21:06:04.420Z</time>
      </trkpt>
      <trkpt lat="48.83169" lon="2.35838">
        <ele>114.5</ele>
        <time>2015-02-09T21:06:05.425Z</time>
      </trkpt>
      <trkpt lat="48.83172" lon="2.35843">
        <ele>115.3</ele>
        <time>2015-02-09T21:06:06.449Z</time>
      </trkpt>
      <trkpt lat="48.83175" lon="2.3585">
        <ele>115.2</ele>
        <time>2015-02-09T21:06:07.460Z</time>
      </trkpt>
      <trkpt lat="48.83177" lon="2.35857">
        <ele>114.9</ele>
        <time>2015-02-09T21:06:08.451Z</time>
      </trkpt>
      <trkpt lat="48.8318" lon="2.35864">
        <ele>114.9</ele>
        <time>2015-02-09T21:06:09.462Z</time>
      </trkpt>
      <trkpt lat="48.83183" lon="2.35871">
        <ele>114.7</ele>
        <time>2015-02-09T21:06:10.470Z</time>
      </trkpt>
      <trkpt lat="48.83185" lon="2.35878">
        <ele>114.5</ele>
        <time>2015-02-09T21:06:11.486Z</time>
      </trkpt>
      <trkpt lat="48.83188" lon="2.35886">
        <ele>114.6</ele>
        <time>2015-02-09T21:06:12.496Z</time>
      </trkpt>
      <trkpt lat="48.8319" lon="2.35894">
        <ele>114.1</ele>
        <time>2015-02-09T21:06:13.500Z</time>
      </trkpt>
      <trkpt lat="48.83192" lon="2.35901">
        <ele>113.8</ele>
        <time>2015-02-09T21:06:14.419Z</time>
      </trkpt>
      <trkpt lat="48.83195" lon="2.35908">
        <ele>113.7</ele>
        <time>2015-02-09T21:06:15.409Z</time>
      </trkpt>
      <trkpt lat="48.83197" lon="2.35915">
        <ele>113.2</ele>
        <time>2015-02-09T21:06:16.434Z</time>
      </trkpt>
      <trkpt lat="48.83199" lon="2.35922">
        <ele>113</ele>
        <time>2015-02-09T21:06:17.456Z</time>
      </trkpt>
      <trkpt lat="48.83202" lon="2.35929">
        <ele>113</ele>
        <time>2015-02-09T21:06:18.469Z</time>
      </trkpt>
      <trkpt lat="48.83205" lon="2.35937">
        <ele>113.1</ele>
        <time>2015-02-09T21:06:19.479Z</time>
      </trkpt>
      <trkpt lat="48.83208" lon="2.35945">
        <ele>113</ele>
        <time>2015-02-09T21:06:20.492Z</time>
      </trkpt>
      <trkpt lat="48.8321" lon="2.35952">
        <ele>112.9</ele>
        <time>2015-02-09T21:06:21.504Z</time>
      </trkpt>
      <trkpt lat="48.83213" lon="2.35961">
        <ele>112.6</ele>
        <time>2015-02-09T21:06:22.422Z</time>
      </trkpt>
      <trkpt lat="48.83215" lon="2.35969">
        <ele>112.7</ele>
        <time>2015-02-09T21:06:23.430Z</time>
      </trkpt>
      <trkpt lat="48.83218" lon="2.35976">
        <ele>112.8</ele>
        <time>2015-02-09T21:06:24.450Z</time>
      </trkpt>
      <trkpt lat="48.8322" lon="2.35985">
        <ele>112.7</ele>
        <time>2015-02-09T21:06:25.464Z</time>
      </trkpt>
      <trkpt lat="48.83222" lon="2.35993">
        <ele>112.7</ele>
        <time>2015-02-09T21:06:26.476Z</time>
      </trkpt>
      <trkpt lat="48.83224" lon="2.36002">
        <ele>113</ele>
        <time>2015-02-09T21:06:27.495Z</time>
      </trkpt>
      <trkpt lat="48.83227" lon="2.36009">
        <ele>113.3</ele>
        <time>2015-02-09T21:06:28.407Z</time>
      </trkpt>
      <trkpt lat="48.8323" lon="2.36017">
        <ele>113.4</ele>
        <time>2015-02-09T21:06:29.409Z</time>
      </trkpt>
      <trkpt lat="48.83232" lon="2.36024">
        <ele>113.5</ele>
        <time>2015-02-09T21:06:30.414Z</time>
      </trkpt>
      <trkpt lat="48.83234" lon="2.36031">
        <ele>113.6</ele>
        <time>2015-02-09T21:06:31.473Z</time>
      </trkpt>
      <trkpt lat="48.83236" lon="2.36039">
        <ele>113.6</ele>
        <time>2015-02-09T21:06:32.496Z</time>
      </trkpt>
      <trkpt lat="48.83237" lon="2.36047">
        <ele>113.5</ele>
        <time>2015-02-09T21:06:33.512Z</time>
      </trkpt>
      <trkpt lat="48.83239" lon="2.36055">
        <ele>113.4</ele>
        <time>2015-02-09T21:06:34.466Z</time>
      </trkpt>
      <trkpt lat="48.83242" lon="2.36063">
        <ele>113.2</ele>
        <time>2015-02-09T21:06:35.468Z</time>
      </trkpt>
      <trkpt lat="48.83244" lon="2.36071">
        <ele>113.1</ele>
        <time>2015-02-09T21:06:36.513Z</time>
      </trkpt>
      <trkpt lat="48.83247" lon="2.36078">
        <ele>112.9</ele>
        <time>2015-02-09T21:06:37.521Z</time>
      </trkpt>
      <trkpt lat="48.83249" lon="2.36085">
        <ele>112.3</ele>
        <time>2015-02-09T21:06:38.408Z</time>
      </trkpt>
      <trkpt lat="48.83251" lon="2.36092">
        <ele>111.9</ele>
        <time>2015-02-09T21:06:39.412Z</time>
      </trkpt>
      <trkpt lat="48.83254" lon="2.361">
        <ele>111.6</ele>
        <time>2015-02-09T21:06:40.413Z</time>
      </trkpt>
      <trkpt lat="48.83256" lon="2.36107">
        <ele>111.2</ele>
        <time>2015-02-09T21:06:41.530Z</time>
      </trkpt>
      <trkpt lat="48.83259" lon="2.36115">
        <ele>111.1</ele>
        <time>2015-02-09T21:06:42.416Z</time>
      </trkpt>
      <trkpt lat="48.83261" lon="2.36121">
        <ele>111.1</ele>
        <time>2015-02-09T21:06:43.447Z</time>
      </trkpt>
      <trkpt lat="48.83264" lon="2.36128">
        <ele>110.5</ele>
        <time>2015-02-09T21:06:44.453Z</time>
      </trkpt>
      <trkpt lat="48.83266" lon="2.36134">
        <ele>110.3</ele>
        <time>2015-02-09T21:06:45.468Z</time>
      </trkpt>
      <trkpt lat="48.83271" lon="2.36143">
        <ele>109.8</ele>
        <time>2015-02-09T21:06:47.486Z</time>
      </trkpt>
      <trkpt lat="48.83273" lon="2.36147">
        <ele>109.8</ele>
        <time>2015-02-09T21:06:48.532Z</time>
      </trkpt>
      <trkpt lat="48.83275" lon="2.36159">
        <ele>109.9</ele>
        <time>2015-02-09T21:06:50.461Z</time>
      </trkpt>
      <trkpt lat="48.83277" lon="2.36164">
        <ele>109.6</ele>
        <time>2015-02-09T21:06:51.521Z</time>
      </trkpt>
      <trkpt lat="48.8328" lon="2.36177">
        <ele>109.2</ele>
        <time>2015-02-09T21:06:53.414Z</time>
      </trkpt>
      <trkpt lat="48.83282" lon="2.36184">
        <ele>109.5</ele>
        <time>2015-02-09T21:06:54.423Z</time>
      </trkpt>
      <trkpt lat="48.83284" lon="2.3619">
        <ele>109.5</ele>
        <time>2015-02-09T21:06:55.529Z</time>
      </trkpt>
      <trkpt lat="48.83286" lon="2.36197">
        <ele>109.9</ele>
        <time>2015-02-09T21:06:56.420Z</time>
      </trkpt>
      <trkpt lat="48.83289" lon="2.36209">
        <ele>109.9</ele>
        <time>2015-02-09T21:06:58.464Z</time>
      </trkpt>
      <trkpt lat="48.83292" lon="2.36215">
        <ele>109.9</ele>
        <time>2015-02-09T21:06:59.477Z</time>
      </trkpt>
      <trkpt lat="48.83294" lon="2.36225">
        <ele>109.2</ele>
        <time>2015-02-09T21:07:01.435Z</time>
      </trkpt>
      <trkpt lat="48.83295" lon="2.3623">
        <ele>108.7</ele>
        <time>2015-02-09T21:07:02.439Z</time>
      </trkpt>
      <trkpt lat="48.83298" lon="2.36242">
        <ele>107.9</ele>
        <time>2015-02-09T21:07:04.424Z</time>
      </trkpt>
      <trkpt lat="48.833" lon="2.36247">
        <ele>107.8</ele>
        <time>2015-02-09T21:07:05.430Z</time>
      </trkpt>
      <trkpt lat="48.83302" lon="2.36256">
        <ele>107.9</ele>
        <time>2015-02-09T21:07:07.544Z</time>
      </trkpt>
      <trkpt lat="48.83304" lon="2.3626">
        <ele>108.3</ele>
        <time>2015-02-09T21:07:08.423Z</time>
      </trkpt>
      <trkpt lat="48.83306" lon="2.3627">
        <ele>108.1</ele>
        <time>2015-02-09T21:07:10.400Z</time>
      </trkpt>
      <trkpt lat="48.83307" lon="2.36275">
        <ele>108.5</ele>
        <time>2015-02-09T21:07:11.424Z</time>
      </trkpt>
      <trkpt lat="48.83309" lon="2.36285">
        <ele>108</ele>
        <time>2015-02-09T21:07:13.458Z</time>
      </trkpt>
      <trkpt lat="48.83309" lon="2.36291">
        <ele>108.2</ele>
        <time>2015-02-09T21:07:14.469Z</time>
      </trkpt>
      <trkpt lat="48.83308" lon="2.36304">
        <ele>108.3</ele>
        <time>2015-02-09T21:07:16.419Z</time>
      </trkpt>
      <trkpt lat="48.83309" lon="2.36311">
        <ele>108.4</ele>
        <time>2015-02-09T21:07:17.427Z</time>
      </trkpt>
      <trkpt lat="48.8331" lon="2.36317">
        <ele>108.6</ele>
        <time>2015-02-09T21:07:18.438Z</time>
      </trkpt>
      <trkpt lat="48.83311" lon="2.36324">
        <ele>108.9</ele>
        <time>2015-02-09T21:07:19.514Z</time>
      </trkpt>
      <trkpt lat="48.83311" lon="2.36331">
        <ele>108.9</ele>
        <time>2015-02-09T21:07:20.463Z</time>
      </trkpt>
      <trkpt lat="48.83314" lon="2.36338">
        <ele>108.3</ele>
        <time>2015-02-09T21:07:21.508Z</time>
      </trkpt>
      <trkpt lat="48.83317" lon="2.36344">
        <ele>107.6</ele>
        <time>2015-02-09T21:07:22.406Z</time>
      </trkpt>
      <trkpt lat="48.8332" lon="2.3635">
        <ele>106.9</ele>
        <time>2015-02-09T21:07:23.410Z</time>
      </trkpt>
      <trkpt lat="48.83324" lon="2.36355">
        <ele>106.3</ele>
        <time>2015-02-09T21:07:24.459Z</time>
      </trkpt>
      <trkpt lat="48.83328" lon="2.36361">
        <ele>105.6</ele>
        <time>2015-02-09T21:07:25.470Z</time>
      </trkpt>
      <trkpt lat="48.83333" lon="2.36372">
        <ele>105.7</ele>
        <time>2015-02-09T21:07:27.478Z</time>
      </trkpt>
      <trkpt lat="48.83335" lon="2.36378">
        <ele>105.9</ele>
        <time>2015-02-09T21:07:28.422Z</time>
      </trkpt>
      <trkpt lat="48.83339" lon="2.36389">
        <ele>106.2</ele>
        <time>2015-02-09T21:07:30.460Z</time>
      </trkpt>
      <trkpt lat="48.83341" lon="2.36395">
        <ele>106.1</ele>
        <time>2015-02-09T21:07:31.457Z</time>
      </trkpt>
      <trkpt lat="48.83344" lon="2.36407">
        <ele>106</ele>
        <time>2015-02-09T21:07:33.419Z</time>
      </trkpt>
      <trkpt lat="48.83344" lon="2.36415">
        <ele>106.1</ele>
        <time>2015-02-09T21:07:34.421Z</time>
      </trkpt>
      <trkpt lat="48.83344" lon="2.36422">
        <ele>106.1</ele>
        <time>2015-02-09T21:07:35.439Z</time>
      </trkpt>
      <trkpt lat="48.83343" lon="2.36429">
        <ele>106.1</ele>
        <time>2015-02-09T21:07:36.449Z</time>
      </trkpt>
      <trkpt lat="48.83344" lon="2.36436">
        <ele>106</ele>
        <time>2015-02-09T21:07:37.492Z</time>
      </trkpt>
      <trkpt lat="48.83346" lon="2.36442">
        <ele>106.3</ele>
        <time>2015-02-09T21:07:38.419Z</time>
      </trkpt>
      <trkpt lat="48.83349" lon="2.36448">
        <ele>106.4</ele>
        <time>2015-02-09T21:07:39.418Z</time>
      </trkpt>
      <trkpt lat="48.83351" lon="2.36454">
        <ele>106.1</ele>
        <time>2015-02-09T21:07:40.398Z</time>
      </trkpt>
      <trkpt lat="48.83353" lon="2.36467">
        <ele>106.1</ele>
        <time>2015-02-09T21:07:42.427Z</time>
      </trkpt>
      <trkpt lat="48.83356" lon="2.36473">
        <ele>106.3</ele>
        <time>2015-02-09T21:07:43.511Z</time>
      </trkpt>
      <trkpt lat="48.83357" lon="2.3648">
        <ele>106.4</ele>
        <time>2015-02-09T21:07:44.480Z</time>
      </trkpt>
      <trkpt lat="48.8336" lon="2.36487">
        <ele>106.6</ele>
        <time>2015-02-09T21:07:45.484Z</time>
      </trkpt>
      <trkpt lat="48.83362" lon="2.36493">
        <ele>106.3</ele>
        <time>2015-02-09T21:07:46.505Z</time>
      </trkpt>
      <trkpt lat="48.83365" lon="2.365">
        <ele>105.9</ele>
        <time>2015-02-09T21:07:47.418Z</time>
      </trkpt>
      <trkpt lat="48.83367" lon="2.36507">
        <ele>106</ele>
        <time>2015-02-09T21:07:48.428Z</time>
      </trkpt>
      <trkpt lat="48.83371" lon="2.36513">
        <ele>105.8</ele>
        <time>2015-02-09T21:07:49.451Z</time>
      </trkpt>
      <trkpt lat="48.83375" lon="2.36519">
        <ele>106.1</ele>
        <time>2015-02-09T21:07:50.456Z</time>
      </trkpt>
      <trkpt lat="48.83378" lon="2.36525">
        <ele>106</ele>
        <time>2015-02-09T21:07:51.460Z</time>
      </trkpt>
      <trkpt lat="48.8338" lon="2.36531">
        <ele>105.7</ele>
        <time>2015-02-09T21:07:52.545Z</time>
      </trkpt>
      <trkpt lat="48.83384" lon="2.36538">
        <ele>105.8</ele>
        <time>2015-02-09T21:07:53.422Z</time>
      </trkpt>
      <trkpt lat="48.83388" lon="2.36545">
        <ele>105.5</ele>
        <time>2015-02-09T21:07:54.495Z</time>
      </trkpt>
      <trkpt lat="48.8339" lon="2.36553">
        <ele>105.5</ele>
        <time>2015-02-09T21:07:55.508Z</time>
      </trkpt>
      <trkpt lat="48.83393" lon="2.36561">
        <ele>105.2</ele>
        <time>2015-02-09T21:07:56.405Z</time>
      </trkpt>
      <trkpt lat="48.83397" lon="2.36569">
        <ele>104.7</ele>
        <time>2015-02-09T21:07:57.407Z</time>
      </trkpt>
      <trkpt lat="48.83403" lon="2.36576">
        <ele>103.4</ele>
        <time>2015-02-09T21:07:58.419Z</time>
      </trkpt>
      <trkpt lat="48.83407" lon="2.36583">
        <ele>102.1</ele>
        <time>2015-02-09T21:07:59.435Z</time>
      </trkpt>
      <trkpt lat="48.8341" lon="2.3659">
        <ele>102</ele>
        <time>2015-02-09T21:08:00.544Z</time>
      </trkpt>
      <trkpt lat="48.83412" lon="2.36598">
        <ele>101.7</ele>
        <time>2015-02-09T21:08:01.520Z</time>
      </trkpt>
      <trkpt lat="48.83415" lon="2.36606">
        <ele>101.5</ele>
        <time>2015-02-09T21:08:02.408Z</time>
      </trkpt>
      <trkpt lat="48.83418" lon="2.36613">
        <ele>101.2</ele>
        <time>2015-02-09T21:08:03.414Z</time>
      </trkpt>
      <trkpt lat="48.83421" lon="2.3662">
        <ele>100.9</ele>
        <time>2015-02-09T21:08:04.434Z</time>
      </trkpt>
      <trkpt lat="48.83424" lon="2.36627">
        <ele>100.8</ele>
        <time>2015-02-09T21:08:05.445Z</time>
      </trkpt>
      <trkpt lat="48.83427" lon="2.36634">
        <ele>100.2</ele>
        <time>2015-02-09T21:08:06.459Z</time>
      </trkpt>
      <trkpt lat="48.8343" lon="2.36641">
        <ele>100</ele>
        <time>2015-02-09T21:08:07.467Z</time>
      </trkpt>
      <trkpt lat="48.83433" lon="2.36648">
        <ele>99.8</ele>
        <time>2015-02-09T21:08:08.484Z</time>
      </trkpt>
      <trkpt lat="48.83435" lon="2.36655">
        <ele>99.7</ele>
        <time>2015-02-09T21:08:09.498Z</time>
      </trkpt>
      <trkpt lat="48.83437" lon="2.36662">
        <ele>99.6</ele>
        <time>2015-02-09T21:08:10.419Z</time>
      </trkpt>
      <trkpt lat="48.83439" lon="2.36668">
        <ele>99.7</ele>
        <time>2015-02-09T21:08:11.406Z</time>
      </trkpt>
      <trkpt lat="48.83442" lon="2.36676">
        <ele>99.5</ele>
        <time>2015-02-09T21:08:13.448Z</time>
      </trkpt>
      <trkpt lat="48.83444" lon="2.36681">
        <ele>99.3</ele>
        <time>2015-02-09T21:08:14.455Z</time>
      </trkpt>
      <trkpt lat="48.83449" lon="2.36692">
        <ele>99.6</ele>
        <time>2015-02-09T21:08:16.490Z</time>
      </trkpt>
      <trkpt lat="48.83451" lon="2.36699">
        <ele>100.3</ele>
        <time>2015-02-09T21:08:17.419Z</time>
      </trkpt>
      <trkpt lat="48.83454" lon="2.36705">
        <ele>100.8</ele>
        <time>2015-02-09T21:08:18.429Z</time>
      </trkpt>
      <trkpt lat="48.83457" lon="2.36712">
        <ele>101.1</ele>
        <time>2015-02-09T21:08:19.448Z</time>
      </trkpt>
      <trkpt lat="48.8346" lon="2.36719">
        <ele>101.2</ele>
        <time>2015-02-09T21:08:20.453Z</time>
      </trkpt>
      <trkpt lat="48.83462" lon="2.36725">
        <ele>101.9</ele>
        <time>2015-02-09T21:08:21.461Z</time>
      </trkpt>
      <trkpt lat="48.83465" lon="2.36732">
        <ele>102.6</ele>
        <time>2015-02-09T21:08:22.468Z</time>
      </trkpt>
      <trkpt lat="48.83468" lon="2.36737">
        <ele>103.2</ele>
        <time>2015-02-09T21:08:23.479Z</time>
      </trkpt>
      <trkpt lat="48.83471" lon="2.36745">
        <ele>103.3</ele>
        <time>2015-02-09T21:08:24.408Z</time>
      </trkpt>
      <trkpt lat="48.83472" lon="2.36752">
        <ele>103.5</ele>
        <time>2015-02-09T21:08:25.447Z</time>
      </trkpt>
      <trkpt lat="48.83473" lon="2.3676">
        <ele>103.9</ele>
        <time>2015-02-09T21:08:26.451Z</time>
      </trkpt>
      <trkpt lat="48.83474" lon="2.36768">
        <ele>103.9</ele>
        <time>2015-02-09T21:08:27.458Z</time>
      </trkpt>
      <trkpt lat="48.83477" lon="2.36777">
        <ele>104.4</ele>
        <time>2015-02-09T21:08:28.463Z</time>
      </trkpt>
      <trkpt lat="48.83479" lon="2.36785">
        <ele>104.9</ele>
        <time>2015-02-09T21:08:29.469Z</time>
      </trkpt>
      <trkpt lat="48.83482" lon="2.36793">
        <ele>105.3</ele>
        <time>2015-02-09T21:08:30.491Z</time>
      </trkpt>
      <trkpt lat="48.83485" lon="2.368">
        <ele>105.6</ele>
        <time>2015-02-09T21:08:31.498Z</time>
      </trkpt>
      <trkpt lat="48.83488" lon="2.36808">
        <ele>106.1</ele>
        <time>2015-02-09T21:08:32.398Z</time>
      </trkpt>
      <trkpt lat="48.83491" lon="2.36815">
        <ele>106.8</ele>
        <time>2015-02-09T21:08:33.435Z</time>
      </trkpt>
      <trkpt lat="48.83493" lon="2.36823">
        <ele>106.8</ele>
        <time>2015-02-09T21:08:34.445Z</time>
      </trkpt>
      <trkpt lat="48.83496" lon="2.3683">
        <ele>107.1</ele>
        <time>2015-02-09T21:08:35.473Z</time>
      </trkpt>
      <trkpt lat="48.83498" lon="2.36838">
        <ele>106.9</ele>
        <time>2015-02-09T21:08:36.485Z</time>
      </trkpt>
      <trkpt lat="48.83498" lon="2.36846">
        <ele>106.6</ele>
        <time>2015-02-09T21:08:37.502Z</time>
      </trkpt>
      <trkpt lat="48.83498" lon="2.36854">
        <ele>106.6</ele>
        <time>2015-02-09T21:08:38.503Z</time>
      </trkpt>
      <trkpt lat="48.83498" lon="2.36862">
        <ele>106.6</ele>
        <time>2015-02-09T21:08:39.412Z</time>
      </trkpt>
      <trkpt lat="48.835" lon="2.3687">
        <ele>106.5</ele>
        <time>2015-02-09T21:08:40.448Z</time>
      </trkpt>
      <trkpt lat="48.83503" lon="2.36877">
        <ele>106.6</ele>
        <time>2015-02-09T21:08:41.465Z</time>
      </trkpt>
      <trkpt lat="48.83506" lon="2.36883">
        <ele>106.6</ele>
        <time>2015-02-09T21:08:42.389Z</time>
      </trkpt>
      <trkpt lat="48.83508" lon="2.3689">
        <ele>106.6</ele>
        <time>2015-02-09T21:08:43.441Z</time>
      </trkpt>
      <trkpt lat="48.83511" lon="2.36897">
        <ele>106.7</ele>
        <time>2015-02-09T21:08:44.454Z</time>
      </trkpt>
      <trkpt lat="48.83512" lon="2.36906">
        <ele>107.3</ele>
        <time>2015-02-09T21:08:45.461Z</time>
      </trkpt>
      <trkpt lat="48.83513" lon="2.36913">
        <ele>107.4</ele>
        <time>2015-02-09T21:08:46.467Z</time>
      </trkpt>
      <trkpt lat="48.83515" lon="2.3692">
        <ele>107.4</ele>
        <time>2015-02-09T21:08:47.477Z</time>
      </trkpt>
      <trkpt lat="48.83517" lon="2.36927">
        <ele>107.5</ele>
        <time>2015-02-09T21:08:48.497Z</time>
      </trkpt>
      <trkpt lat="48.83519" lon="2.36933">
        <ele>107.3</ele>
        <time>2015-02-09T21:08:49.467Z</time>
      </trkpt>
      <trkpt lat="48.83519" lon="2.36941">
        <ele>107.6</ele>
        <time>2015-02-09T21:08:50.410Z</time>
      </trkpt>
      <trkpt lat="48.83521" lon="2.36949">
        <ele>107.5</ele>
        <time>2015-02-09T21:08:51.427Z</time>
      </trkpt>
      <trkpt lat="48.83524" lon="2.36956">
        <ele>107.4</ele>
        <time>2015-02-09T21:08:52.459Z</time>
      </trkpt>
      <trkpt lat="48.83533" lon="2.36961">
        <ele>106.4</ele>
        <time>2015-02-09T21:08:53.471Z</time>
      </trkpt>
      <trkpt lat="48.83539" lon="2.36968">
        <ele>106.3</ele>
        <time>2015-02-09T21:08:54.409Z</time>
      </trkpt>
      <trkpt lat="48.83545" lon="2.36974">
        <ele>105.9</ele>
        <time>2015-02-09T21:08:55.442Z</time>
      </trkpt>
      <trkpt lat="48.8355" lon="2.36979">
        <ele>105.6</ele>
        <time>2015-02-09T21:08:56.450Z</time>
      </trkpt>
      <trkpt lat="48.83555" lon="2.36984">
        <ele>105.4</ele>
        <time>2015-02-09T21:08:57.462Z</time>
      </trkpt>
      <trkpt lat="48.83558" lon="2.3699">
        <ele>105.3</ele>
        <time>2015-02-09T21:08:58.478Z</time>
      </trkpt>
      <trkpt lat="48.83561" lon="2.36995">
        <ele>105.4</ele>
        <time>2015-02-09T21:08:59.495Z</time>
      </trkpt>
      <trkpt lat="48.83567" lon="2.37005">
        <ele>105.3</ele>
        <time>2015-02-09T21:09:01.487Z</time>
      </trkpt>
      <trkpt lat="48.8357" lon="2.37011">
        <ele>105.2</ele>
        <time>2015-02-09T21:09:02.487Z</time>
      </trkpt>
      <trkpt lat="48.83574" lon="2.37015">
        <ele>105</ele>
        <time>2015-02-09T21:09:03.403Z</time>
      </trkpt>
      <trkpt lat="48.83579" lon="2.37018">
        <ele>105.1</ele>
        <time>2015-02-09T21:09:04.406Z</time>
      </trkpt>
      <trkpt lat="48.83582" lon="2.37023">
        <ele>105.4</ele>
        <time>2015-02-09T21:09:05.410Z</time>
      </trkpt>
      <trkpt lat="48.83585" lon="2.37028">
        <ele>105.5</ele>
        <time>2015-02-09T21:09:06.420Z</time>
      </trkpt>
      <trkpt lat="48.8359" lon="2.37039">
        <ele>105.3</ele>
        <time>2015-02-09T21:09:08.440Z</time>
      </trkpt>
      <trkpt lat="48.83594" lon="2.37043">
        <ele>105.9</ele>
        <time>2015-02-09T21:09:09.453Z</time>
      </trkpt>
      <trkpt lat="48.83598" lon="2.37051">
        <ele>105.6</ele>
        <time>2015-02-09T21:09:11.498Z</time>
      </trkpt>
      <trkpt lat="48.83599" lon="2.37056">
        <ele>104.8</ele>
        <time>2015-02-09T21:09:12.528Z</time>
      </trkpt>
      <trkpt lat="48.83601" lon="2.37067">
        <ele>104.2</ele>
        <time>2015-02-09T21:09:14.450Z</time>
      </trkpt>
      <trkpt lat="48.83601" lon="2.37074">
        <ele>104</ele>
        <time>2015-02-09T21:09:15.469Z</time>
      </trkpt>
      <trkpt lat="48.83603" lon="2.37084">
        <ele>103.8</ele>
        <time>2015-02-09T21:09:17.409Z</time>
      </trkpt>
      <trkpt lat="48.83604" lon="2.37089">
        <ele>103.6</ele>
        <time>2015-02-09T21:09:18.415Z</time>
      </trkpt>
      <trkpt lat="48.83607" lon="2.37101">
        <ele>102.6</ele>
        <time>2015-02-09T21:09:22.391Z</time>
      </trkpt>
      <trkpt lat="48.83608" lon="2.37105">
        <ele>102.1</ele>
        <time>2015-02-09T21:09:22.495Z</time>
      </trkpt>
      <trkpt lat="48.83612" lon="2.37114">
        <ele>100.9</ele>
        <time>2015-02-09T21:09:25.484Z</time>
      </trkpt>
      <trkpt lat="48.83614" lon="2.37118">
        <ele>100.5</ele>
        <time>2015-02-09T21:09:26.414Z</time>
      </trkpt>
      <trkpt lat="48.83618" lon="2.37127">
        <ele>99.2</ele>
        <time>2015-02-09T21:09:30.480Z</time>
      </trkpt>
      <trkpt lat="48.8362" lon="2.3713">
        <ele>98.9</ele>
        <time>2015-02-09T21:09:30.526Z</time>
      </trkpt>
      <trkpt lat="48.83623" lon="2.3714">
        <ele>98.1</ele>
        <time>2015-02-09T21:09:33.382Z</time>
      </trkpt>
      <trkpt lat="48.83624" lon="2.37144">
        <ele>98.1</ele>
        <time>2015-02-09T21:09:34.414Z</time>
      </trkpt>
      <trkpt lat="48.8363" lon="2.37151">
        <ele>97.5</ele>
        <time>2015-02-09T21:09:38.432Z</time>
      </trkpt>
      <trkpt lat="48.83633" lon="2.37152">
        <ele>97.1</ele>
        <time>2015-02-09T21:09:38.479Z</time>
      </trkpt>
      <trkpt lat="48.83641" lon="2.37147">
        <ele>95.9</ele>
        <time>2015-02-09T21:09:41.445Z</time>
      </trkpt>
      <trkpt lat="48.83643" lon="2.37145">
        <ele>95.5</ele>
        <time>2015-02-09T21:09:42.467Z</time>
      </trkpt>
      <trkpt lat="48.83649" lon="2.37137">
        <ele>94.7</ele>
        <time>2015-02-09T21:09:45.447Z</time>
      </trkpt>
      <trkpt lat="48.8365" lon="2.37134">
        <ele>94.8</ele>
        <time>2015-02-09T21:09:46.471Z</time>
      </trkpt>
      <trkpt lat="48.83656" lon="2.37128">
        <ele>95</ele>
        <time>2015-02-09T21:09:49.482Z</time>
      </trkpt>
      <trkpt lat="48.83658" lon="2.37126">
        <ele>94.8</ele>
        <time>2015-02-09T21:09:50.498Z</time>
      </trkpt>
      <trkpt lat="48.83665" lon="2.37118">
        <ele>94.5</ele>
        <time>2015-02-09T21:09:53.584Z</time>
      </trkpt>
      <trkpt lat="48.83667" lon="2.37115">
        <ele>94.5</ele>
        <time>2015-02-09T21:09:54.447Z</time>
      </trkpt>
      <trkpt lat="48.83672" lon="2.37109">
        <ele>94.3</ele>
        <time>2015-02-09T21:09:56.501Z</time>
      </trkpt>
      <trkpt lat="48.83675" lon="2.37106">
        <ele>94.1</ele>
        <time>2015-02-09T21:09:57.514Z</time>
      </trkpt>
      <trkpt lat="48.83681" lon="2.37103">
        <ele>93.9</ele>
        <time>2015-02-09T21:09:59.412Z</time>
      </trkpt>
      <trkpt lat="48.83684" lon="2.37102">
        <ele>93.8</ele>
        <time>2015-02-09T21:10:00.421Z</time>
      </trkpt>
      <trkpt lat="48.83691" lon="2.37098">
        <ele>93.8</ele>
        <time>2015-02-09T21:10:02.459Z</time>
      </trkpt>
      <trkpt lat="48.83694" lon="2.37097">
        <ele>94</ele>
        <time>2015-02-09T21:10:03.469Z</time>
      </trkpt>
      <trkpt lat="48.83701" lon="2.37094">
        <ele>93.9</ele>
        <time>2015-02-09T21:10:05.488Z</time>
      </trkpt>
      <trkpt lat="48.83704" lon="2.37093">
        <ele>93.7</ele>
        <time>2015-02-09T21:10:06.505Z</time>
      </trkpt>
      <trkpt lat="48.83711" lon="2.37092">
        <ele>92.8</ele>
        <time>2015-02-09T21:10:08.905Z</time>
      </trkpt>
      <trkpt lat="48.83715" lon="2.3709">
        <ele>92.3</ele>
        <time>2015-02-09T21:10:09.443Z</time>
      </trkpt>
      <trkpt lat="48.83722" lon="2.37088">
        <ele>91.6</ele>
        <time>2015-02-09T21:10:11.464Z</time>
      </trkpt>
      <trkpt lat="48.83726" lon="2.37085">
        <ele>91.6</ele>
        <time>2015-02-09T21:10:12.474Z</time>
      </trkpt>
      <trkpt lat="48.83734" lon="2.37084">
        <ele>92.1</ele>
        <time>2015-02-09T21:10:14.410Z</time>
      </trkpt>
      <trkpt lat="48.83762" lon="2.37072">
        <ele>91.8</ele>
        <time>2015-02-09T21:10:21.495Z</time>
      </trkpt>
      <trkpt lat="48.8377" lon="2.37071">
        <ele>91.9</ele>
        <time>2015-02-09T21:10:23.421Z</time>
      </trkpt>
      <trkpt lat="48.83774" lon="2.37071">
        <ele>91.6</ele>
        <time>2015-02-09T21:10:24.420Z</time>
      </trkpt>
      <trkpt lat="48.83782" lon="2.37067">
        <ele>91.5</ele>
        <time>2015-02-09T21:10:26.446Z</time>
      </trkpt>
      <trkpt lat="48.83786" lon="2.37067">
        <ele>91.1</ele>
        <time>2015-02-09T21:10:27.471Z</time>
      </trkpt>
      <trkpt lat="48.83793" lon="2.37063">
        <ele>90.8</ele>
        <time>2015-02-09T21:10:29.413Z</time>
      </trkpt>
      <trkpt lat="48.83797" lon="2.3706">
        <ele>91</ele>
        <time>2015-02-09T21:10:30.443Z</time>
      </trkpt>
      <trkpt lat="48.83805" lon="2.37057">
        <ele>91.3</ele>
        <time>2015-02-09T21:10:33.286Z</time>
      </trkpt>
      <trkpt lat="48.83808" lon="2.37055">
        <ele>91.1</ele>
        <time>2015-02-09T21:10:33.388Z</time>
      </trkpt>
      <trkpt lat="48.83816" lon="2.37051">
        <ele>90.7</ele>
        <time>2015-02-09T21:10:35.412Z</time>
      </trkpt>
      <trkpt lat="48.8382" lon="2.37049">
        <ele>90.5</ele>
        <time>2015-02-09T21:10:36.440Z</time>
      </trkpt>
      <trkpt lat="48.83828" lon="2.37046">
        <ele>91.3</ele>
        <time>2015-02-09T21:10:38.471Z</time>
      </trkpt>
      <trkpt lat="48.83831" lon="2.37045">
        <ele>91.4</ele>
        <time>2015-02-09T21:10:39.486Z</time>
      </trkpt>
      <trkpt lat="48.83838" lon="2.37042">
        <ele>91.7</ele>
        <time>2015-02-09T21:10:41.606Z</time>
      </trkpt>
      <trkpt lat="48.83841" lon="2.37041">
        <ele>91.9</ele>
        <time>2015-02-09T21:10:42.407Z</time>
      </trkpt>
      <trkpt lat="48.83848" lon="2.37037">
        <ele>91.8</ele>
        <time>2015-02-09T21:10:44.425Z</time>
      </trkpt>
      <trkpt lat="48.83852" lon="2.37035">
        <ele>91.8</ele>
        <time>2015-02-09T21:10:45.437Z</time>
      </trkpt>
      <trkpt lat="48.83859" lon="2.37031">
        <ele>92.2</ele>
        <time>2015-02-09T21:10:48.517Z</time>
      </trkpt>
      <trkpt lat="48.83863" lon="2.37028">
        <ele>92.3</ele>
        <time>2015-02-09T21:10:48.562Z</time>
      </trkpt>
      <trkpt lat="48.83872" lon="2.37023">
        <ele>92.2</ele>
        <time>2015-02-09T21:10:50.428Z</time>
      </trkpt>
      <trkpt lat="48.83875" lon="2.37021">
        <ele>91.7</ele>
        <time>2015-02-09T21:10:51.436Z</time>
      </trkpt>
      <trkpt lat="48.83883" lon="2.37015">
        <ele>91.8</ele>
        <time>2015-02-09T21:10:53.622Z</time>
      </trkpt>
      <trkpt lat="48.83887" lon="2.37012">
        <ele>91.6</ele>
        <time>2015-02-09T21:10:54.527Z</time>
      </trkpt>
      <trkpt lat="48.83891" lon="2.37008">
        <ele>92.1</ele>
        <time>2015-02-09T21:10:55.452Z</time>
      </trkpt>
      <trkpt lat="48.83894" lon="2.37003">
        <ele>92.8</ele>
        <time>2015-02-09T21:10:56.456Z</time>
      </trkpt>
      <trkpt lat="48.83901" lon="2.36997">
        <ele>93</ele>
        <time>2015-02-09T21:10:58.613Z</time>
      </trkpt>
      <trkpt lat="48.83905" lon="2.36993">
        <ele>93.1</ele>
        <time>2015-02-09T21:10:59.411Z</time>
      </trkpt>
      <trkpt lat="48.83921" lon="2.3698">
        <ele>93.2</ele>
        <time>2015-02-09T21:11:03.472Z</time>
      </trkpt>
      <trkpt lat="48.83925" lon="2.36976">
        <ele>93.2</ele>
        <time>2015-02-09T21:11:04.500Z</time>
      </trkpt>
      <trkpt lat="48.83929" lon="2.36973">
        <ele>93.3</ele>
        <time>2015-02-09T21:11:05.393Z</time>
      </trkpt>
      <trkpt lat="48.83933" lon="2.3697">
        <ele>93</ele>
        <time>2015-02-09T21:11:06.411Z</time>
      </trkpt>
      <trkpt lat="48.83937" lon="2.36967">
        <ele>93</ele>
        <time>2015-02-09T21:11:07.428Z</time>
      </trkpt>
      <trkpt lat="48.83946" lon="2.36962">
        <ele>92.4</ele>
        <time>2015-02-09T21:11:09.497Z</time>
      </trkpt>
      <trkpt lat="48.8395" lon="2.3696">
        <ele>92.5</ele>
        <time>2015-02-09T21:11:10.413Z</time>
      </trkpt>
      <trkpt lat="48.83954" lon="2.36956">
        <ele>92.3</ele>
        <time>2015-02-09T21:11:11.434Z</time>
      </trkpt>
      <trkpt lat="48.83958" lon="2.36953">
        <ele>92.6</ele>
        <time>2015-02-09T21:11:12.448Z</time>
      </trkpt>
      <trkpt lat="48.83963" lon="2.36949">
        <ele>92.5</ele>
        <time>2015-02-09T21:11:13.507Z</time>
      </trkpt>
      <trkpt lat="48.83967" lon="2.36946">
        <ele>92.5</ele>
        <time>2015-02-09T21:11:14.403Z</time>
      </trkpt>
      <trkpt lat="48.83975" lon="2.36939">
        <ele>92.6</ele>
        <time>2015-02-09T21:11:16.424Z</time>
      </trkpt>
      <trkpt lat="48.84006" lon="2.36915">
        <ele>92.3</ele>
        <time>2015-02-09T21:11:24.488Z</time>
      </trkpt>
      <trkpt lat="48.8401" lon="2.36911">
        <ele>92.2</ele>
        <time>2015-02-09T21:11:25.506Z</time>
      </trkpt>
      <trkpt lat="48.84014" lon="2.36908">
        <ele>92.1</ele>
        <time>2015-02-09T21:11:26.408Z</time>
      </trkpt>
      <trkpt lat="48.84022" lon="2.369">
        <ele>92.7</ele>
        <time>2015-02-09T21:11:28.442Z</time>
      </trkpt>
      <trkpt lat="48.84026" lon="2.36897">
        <ele>92.7</ele>
        <time>2015-02-09T21:11:29.445Z</time>
      </trkpt>
      <trkpt lat="48.8403" lon="2.36892">
        <ele>93.3</ele>
        <time>2015-02-09T21:11:30.451Z</time>
      </trkpt>
      <trkpt lat="48.84038" lon="2.36885">
        <ele>94</ele>
        <time>2015-02-09T21:11:32.478Z</time>
      </trkpt>
      <trkpt lat="48.84042" lon="2.36882">
        <ele>93.9</ele>
        <time>2015-02-09T21:11:33.491Z</time>
      </trkpt>
      <trkpt lat="48.84049" lon="2.36876">
        <ele>93.3</ele>
        <time>2015-02-09T21:11:35.419Z</time>
      </trkpt>
      <trkpt lat="48.84053" lon="2.36873">
        <ele>93.2</ele>
        <time>2015-02-09T21:11:36.435Z</time>
      </trkpt>
      <trkpt lat="48.8406" lon="2.36865">
        <ele>93.6</ele>
        <time>2015-02-09T21:11:38.467Z</time>
      </trkpt>
      <trkpt lat="48.84064" lon="2.36861">
        <ele>93.6</ele>
        <time>2015-02-09T21:11:39.381Z</time>
      </trkpt>
      <trkpt lat="48.84071" lon="2.36855">
        <ele>93.8</ele>
        <time>2015-02-09T21:11:41.430Z</time>
      </trkpt>
      <trkpt lat="48.84075" lon="2.36852">
        <ele>93.6</ele>
        <time>2015-02-09T21:11:42.435Z</time>
      </trkpt>
      <trkpt lat="48.84128" lon="2.36808">
        <ele>92.8</ele>
        <time>2015-02-09T21:11:55.430Z</time>
      </trkpt>
      <trkpt lat="48.84133" lon="2.36804">
        <ele>92.8</ele>
        <time>2015-02-09T21:11:56.445Z</time>
      </trkpt>
      <trkpt lat="48.84137" lon="2.368">
        <ele>92.8</ele>
        <time>2015-02-09T21:11:57.456Z</time>
      </trkpt>
      <trkpt lat="48.84142" lon="2.36796">
        <ele>92.9</ele>
        <time>2015-02-09T21:11:58.482Z</time>
      </trkpt>
      <trkpt lat="48.84147" lon="2.36792">
        <ele>92.6</ele>
        <time>2015-02-09T21:11:59.497Z</time>
      </trkpt>
      <trkpt lat="48.84151" lon="2.36788">
        <ele>92.4</ele>
        <time>2015-02-09T21:12:00.379Z</time>
      </trkpt>
      <trkpt lat="48.84155" lon="2.36784">
        <ele>92.4</ele>
        <time>2015-02-09T21:12:01.419Z</time>
      </trkpt>
      <trkpt lat="48.84163" lon="2.36777">
        <ele>92.5</ele>
        <time>2015-02-09T21:12:03.382Z</time>
      </trkpt>
      <trkpt lat="48.84166" lon="2.36775">
        <ele>92.4</ele>
        <time>2015-02-09T21:12:04.425Z</time>
      </trkpt>
      <trkpt lat="48.84174" lon="2.3677">
        <ele>93</ele>
        <time>2015-02-09T21:12:06.455Z</time>
      </trkpt>
      <trkpt lat="48.84177" lon="2.36767">
        <ele>95</ele>
        <time>2015-02-09T21:12:07.465Z</time>
      </trkpt>
      <trkpt lat="48.84185" lon="2.36773">
        <ele>93.9</ele>
        <time>2015-02-09T21:12:09.392Z</time>
      </trkpt>
      <trkpt lat="48.84188" lon="2.36775">
        <ele>93.1</ele>
        <time>2015-02-09T21:12:10.457Z</time>
      </trkpt>
      <trkpt lat="48.84195" lon="2.36779">
        <ele>91.4</ele>
        <time>2015-02-09T21:12:12.396Z</time>
      </trkpt>
      <trkpt lat="48.84198" lon="2.3678">
        <ele>91.1</ele>
        <time>2015-02-09T21:12:13.448Z</time>
      </trkpt>
      <trkpt lat="48.84205" lon="2.36772">
        <ele>90.3</ele>
        <time>2015-02-09T21:12:17.414Z</time>
      </trkpt>
      <trkpt lat="48.84206" lon="2.3677">
        <ele>90.1</ele>
        <time>2015-02-09T21:12:18.427Z</time>
      </trkpt>
      <trkpt lat="48.84212" lon="2.36761">
        <ele>89.2</ele>
        <time>2015-02-09T21:12:21.415Z</time>
      </trkpt>
      <trkpt lat="48.84214" lon="2.36758">
        <ele>88.6</ele>
        <time>2015-02-09T21:12:22.415Z</time>
      </trkpt>
      <trkpt lat="48.84218" lon="2.36752">
        <ele>87.6</ele>
        <time>2015-02-09T21:12:24.403Z</time>
      </trkpt>
      <trkpt lat="48.84221" lon="2.36748">
        <ele>87.6</ele>
        <time>2015-02-09T21:12:25.539Z</time>
      </trkpt>
      <trkpt lat="48.84226" lon="2.3674">
        <ele>86.8</ele>
        <time>2015-02-09T21:12:27.401Z</time>
      </trkpt>
      <trkpt lat="48.84229" lon="2.36735">
        <ele>86.6</ele>
        <time>2015-02-09T21:12:28.410Z</time>
      </trkpt>
      <trkpt lat="48.84233" lon="2.3673">
        <ele>86.3</ele>
        <time>2015-02-09T21:12:29.423Z</time>
      </trkpt>
      <trkpt lat="48.84236" lon="2.36726">
        <ele>85.7</ele>
        <time>2015-02-09T21:12:30.439Z</time>
      </trkpt>
      <trkpt lat="48.84239" lon="2.36721">
        <ele>85.5</ele>
        <time>2015-02-09T21:12:31.461Z</time>
      </trkpt>
      <trkpt lat="48.84243" lon="2.36715">
        <ele>84.1</ele>
        <time>2015-02-09T21:12:32.485Z</time>
      </trkpt>
      <trkpt lat="48.84246" lon="2.36709">
        <ele>82.8</ele>
        <time>2015-02-09T21:12:33.408Z</time>
      </trkpt>
      <trkpt lat="48.8425" lon="2.36702">
        <ele>81.9</ele>
        <time>2015-02-09T21:12:34.403Z</time>
      </trkpt>
      <trkpt lat="48.84253" lon="2.36696">
        <ele>80.9</ele>
        <time>2015-02-09T21:12:35.415Z</time>
      </trkpt>
      <trkpt lat="48.84257" lon="2.3669">
        <ele>79.8</ele>
        <time>2015-02-09T21:12:36.467Z</time>
      </trkpt>
      <trkpt lat="48.8426" lon="2.36685">
        <ele>78.6</ele>
        <time>2015-02-09T21:12:37.488Z</time>
      </trkpt>
      <trkpt lat="48.84264" lon="2.3668">
        <ele>78.1</ele>
        <time>2015-02-09T21:12:38.501Z</time>
      </trkpt>
      <trkpt lat="48.84268" lon="2.36675">
        <ele>78.3</ele>
        <time>2015-02-09T21:12:39.412Z</time>
      </trkpt>
      <trkpt lat="48.84271" lon="2.36669">
        <ele>78.6</ele>
        <time>2015-02-09T21:12:40.408Z</time>
      </trkpt>
      <trkpt lat="48.84275" lon="2.36664">
        <ele>78.9</ele>
        <time>2015-02-09T21:12:41.414Z</time>
      </trkpt>
      <trkpt lat="48.84278" lon="2.3666">
        <ele>79</ele>
        <time>2015-02-09T21:12:42.429Z</time>
      </trkpt>
      <trkpt lat="48.84285" lon="2.36654">
        <ele>77.7</ele>
        <time>2015-02-09T21:12:44.448Z</time>
      </trkpt>
      <trkpt lat="48.84288" lon="2.3665">
        <ele>77.8</ele>
        <time>2015-02-09T21:12:45.388Z</time>
      </trkpt>
      <trkpt lat="48.84293" lon="2.36641">
        <ele>78.1</ele>
        <time>2015-02-09T21:12:47.455Z</time>
      </trkpt>
      <trkpt lat="48.84295" lon="2.36636">
        <ele>77.9</ele>
        <time>2015-02-09T21:12:48.504Z</time>
      </trkpt>
      <trkpt lat="48.84301" lon="2.36628">
        <ele>76.9</ele>
        <time>2015-02-09T21:12:50.459Z</time>
      </trkpt>
      <trkpt lat="48.84303" lon="2.36625">
        <ele>76.4</ele>
        <time>2015-02-09T21:12:51.482Z</time>
      </trkpt>
      <trkpt lat="48.84309" lon="2.3662">
        <ele>76.5</ele>
        <time>2015-02-09T21:12:53.411Z</time>
      </trkpt>
      <trkpt lat="48.84313" lon="2.36618">
        <ele>77.2</ele>
        <time>2015-02-09T21:12:54.419Z</time>
      </trkpt>
      <trkpt lat="48.8432" lon="2.36615">
        <ele>77.3</ele>
        <time>2015-02-09T21:12:56.473Z</time>
      </trkpt>
      <trkpt lat="48.84325" lon="2.36616">
        <ele>76.4</ele>
        <time>2015-02-09T21:12:57.479Z</time>
      </trkpt>
      <trkpt lat="48.84332" lon="2.36615">
        <ele>77.1</ele>
        <time>2015-02-09T21:12:59.405Z</time>
      </trkpt>
      <trkpt lat="48.84337" lon="2.36613">
        <ele>77.5</ele>
        <time>2015-02-09T21:13:00.493Z</time>
      </trkpt>
      <trkpt lat="48.84345" lon="2.36612">
        <ele>77.9</ele>
        <time>2015-02-09T21:13:02.398Z</time>
      </trkpt>
      <trkpt lat="48.84348" lon="2.36612">
        <ele>77.6</ele>
        <time>2015-02-09T21:13:03.415Z</time>
      </trkpt>
      <trkpt lat="48.84356" lon="2.36608">
        <ele>77.7</ele>
        <time>2015-02-09T21:13:06.543Z</time>
      </trkpt>
      <trkpt lat="48.84358" lon="2.36608">
        <ele>77.8</ele>
        <time>2015-02-09T21:13:07.436Z</time>
      </trkpt>
      <trkpt lat="48.84364" lon="2.36604">
        <ele>77.4</ele>
        <time>2015-02-09T21:13:10.477Z</time>
      </trkpt>
      <trkpt lat="48.84367" lon="2.36603">
        <ele>77</ele>
        <time>2015-02-09T21:13:11.503Z</time>
      </trkpt>
      <trkpt lat="48.84372" lon="2.36599">
        <ele>76.2</ele>
        <time>2015-02-09T21:13:12.410Z</time>
      </trkpt>
      <trkpt lat="48.84377" lon="2.36595">
        <ele>75.9</ele>
        <time>2015-02-09T21:13:13.465Z</time>
      </trkpt>
      <trkpt lat="48.84382" lon="2.3659">
        <ele>75.8</ele>
        <time>2015-02-09T21:13:14.461Z</time>
      </trkpt>
      <trkpt lat="48.84387" lon="2.36584">
        <ele>76</ele>
        <time>2015-02-09T21:13:15.468Z</time>
      </trkpt>
      <trkpt lat="48.84394" lon="2.36577">
        <ele>75.9</ele>
        <time>2015-02-09T21:13:16.382Z</time>
      </trkpt>
      <trkpt lat="48.844" lon="2.3657">
        <ele>75.4</ele>
        <time>2015-02-09T21:13:17.481Z</time>
      </trkpt>
      <trkpt lat="48.84406" lon="2.36564">
        <ele>75.3</ele>
        <time>2015-02-09T21:13:18.422Z</time>
      </trkpt>
      <trkpt lat="48.84413" lon="2.36557">
        <ele>74.5</ele>
        <time>2015-02-09T21:13:19.435Z</time>
      </trkpt>
      <trkpt lat="48.84419" lon="2.36551">
        <ele>74</ele>
        <time>2015-02-09T21:13:20.476Z</time>
      </trkpt>
      <trkpt lat="48.84423" lon="2.36546">
        <ele>74</ele>
        <time>2015-02-09T21:13:21.477Z</time>
      </trkpt>
      <trkpt lat="48.8443" lon="2.36539">
        <ele>74</ele>
        <time>2015-02-09T21:13:23.484Z</time>
      </trkpt>
      <trkpt lat="48.84434" lon="2.36535">
        <ele>74.1</ele>
        <time>2015-02-09T21:13:24.495Z</time>
      </trkpt>
      <trkpt lat="48.84454" lon="2.36512">
        <ele>74.1</ele>
        <time>2015-02-09T21:13:29.468Z</time>
      </trkpt>
      <trkpt lat="48.84459" lon="2.36505">
        <ele>74.3</ele>
        <time>2015-02-09T21:13:30.481Z</time>
      </trkpt>
      <trkpt lat="48.84463" lon="2.36497">
        <ele>74.4</ele>
        <time>2015-02-09T21:13:31.491Z</time>
      </trkpt>
      <trkpt lat="48.84468" lon="2.36489">
        <ele>73.8</ele>
        <time>2015-02-09T21:13:32.373Z</time>
      </trkpt>
      <trkpt lat="48.84472" lon="2.36483">
        <ele>73.9</ele>
        <time>2015-02-09T21:13:33.403Z</time>
      </trkpt>
      <trkpt lat="48.84475" lon="2.36476">
        <ele>74.1</ele>
        <time>2015-02-09T21:13:34.419Z</time>
      </trkpt>
      <trkpt lat="48.84478" lon="2.36469">
        <ele>74.9</ele>
        <time>2015-02-09T21:13:35.457Z</time>
      </trkpt>
      <trkpt lat="48.84482" lon="2.36459">
        <ele>76.1</ele>
        <time>2015-02-09T21:13:37.432Z</time>
      </trkpt>
      <trkpt lat="48.84484" lon="2.36453">
        <ele>76.5</ele>
        <time>2015-02-09T21:13:38.386Z</time>
      </trkpt>
      <trkpt lat="48.84485" lon="2.36444">
        <ele>76</ele>
        <time>2015-02-09T21:13:41.286Z</time>
      </trkpt>
      <trkpt lat="48.84486" lon="2.3644">
        <ele>75.2</ele>
        <time>2015-02-09T21:13:41.374Z</time>
      </trkpt>
      <trkpt lat="48.84487" lon="2.36429">
        <ele>77.1</ele>
        <time>2015-02-09T21:13:44.452Z</time>
      </trkpt>
      <trkpt lat="48.84487" lon="2.36424">
        <ele>79.3</ele>
        <time>2015-02-09T21:13:45.405Z</time>
      </trkpt>
      <trkpt lat="48.84486" lon="2.36412">
        <ele>79.9</ele>
        <time>2015-02-09T21:13:48.440Z</time>
      </trkpt>
      <trkpt lat="48.84486" lon="2.36407">
        <ele>78.9</ele>
        <time>2015-02-09T21:13:49.456Z</time>
      </trkpt>
      <trkpt lat="48.84484" lon="2.36399">
        <ele>72.8</ele>
        <time>2015-02-09T21:14:16.755Z</time>
      </trkpt>
      <trkpt lat="48.84493" lon="2.36387">
        <ele>79</ele>
        <time>2015-02-09T21:14:17.424Z</time>
      </trkpt>
      <trkpt lat="48.84497" lon="2.36377">
        <ele>79.3</ele>
        <time>2015-02-09T21:14:21.851Z</time>
      </trkpt>
      <trkpt lat="48.84499" lon="2.36375">
        <ele>79.3</ele>
        <time>2015-02-09T21:14:22.513Z</time>
      </trkpt>
      <trkpt lat="48.84504" lon="2.36367">
        <ele>78.8</ele>
        <time>2015-02-09T21:14:25.413Z</time>
      </trkpt>
      <trkpt lat="48.84506" lon="2.36365">
        <ele>78.8</ele>
        <time>2015-02-09T21:14:26.428Z</time>
      </trkpt>
      <trkpt lat="48.84514" lon="2.36357">
        <ele>79.3</ele>
        <time>2015-02-09T21:14:29.458Z</time>
      </trkpt>
      <trkpt lat="48.84516" lon="2.36354">
        <ele>79.3</ele>
        <time>2015-02-09T21:14:30.476Z</time>
      </trkpt>
      <trkpt lat="48.84522" lon="2.36347">
        <ele>79.2</ele>
        <time>2015-02-09T21:14:33.271Z</time>
      </trkpt>
      <trkpt lat="48.84525" lon="2.36343">
        <ele>79.4</ele>
        <time>2015-02-09T21:14:33.373Z</time>
      </trkpt>
      <trkpt lat="48.84529" lon="2.36335">
        <ele>78.9</ele>
        <time>2015-02-09T21:14:35.414Z</time>
      </trkpt>
      <trkpt lat="48.84532" lon="2.36331">
        <ele>79</ele>
        <time>2015-02-09T21:14:36.431Z</time>
      </trkpt>
      <trkpt lat="48.84537" lon="2.36323">
        <ele>79.4</ele>
        <time>2015-02-09T21:14:38.753Z</time>
      </trkpt>
      <trkpt lat="48.8454" lon="2.3632">
        <ele>79.2</ele>
        <time>2015-02-09T21:14:39.403Z</time>
      </trkpt>
      <trkpt lat="48.84545" lon="2.36314">
        <ele>79.5</ele>
        <time>2015-02-09T21:14:41.437Z</time>
      </trkpt>
      <trkpt lat="48.84548" lon="2.3631">
        <ele>79.8</ele>
        <time>2015-02-09T21:14:42.530Z</time>
      </trkpt>
      <trkpt lat="48.84553" lon="2.36302">
        <ele>80.2</ele>
        <time>2015-02-09T21:14:44.427Z</time>
      </trkpt>
      <trkpt lat="48.84556" lon="2.36298">
        <ele>80.4</ele>
        <time>2015-02-09T21:14:45.511Z</time>
      </trkpt>
      <trkpt lat="48.84562" lon="2.3629">
        <ele>80.2</ele>
        <time>2015-02-09T21:14:47.410Z</time>
      </trkpt>
      <trkpt lat="48.84565" lon="2.36286">
        <ele>80.2</ele>
        <time>2015-02-09T21:14:48.420Z</time>
      </trkpt>
      <trkpt lat="48.84571" lon="2.36277">
        <ele>80.4</ele>
        <time>2015-02-09T21:14:50.453Z</time>
      </trkpt>
      <trkpt lat="48.84575" lon="2.36272">
        <ele>80.9</ele>
        <time>2015-02-09T21:14:51.488Z</time>
      </trkpt>
      <trkpt lat="48.84579" lon="2.36268">
        <ele>80.9</ele>
        <time>2015-02-09T21:14:52.400Z</time>
      </trkpt>
      <trkpt lat="48.84583" lon="2.36263">
        <ele>80.9</ele>
        <time>2015-02-09T21:14:53.409Z</time>
      </trkpt>
      <trkpt lat="48.84587" lon="2.36259">
        <ele>81.1</ele>
        <time>2015-02-09T21:14:54.419Z</time>
      </trkpt>
      <trkpt lat="48.8459" lon="2.36254">
        <ele>81</ele>
        <time>2015-02-09T21:14:55.444Z</time>
      </trkpt>
      <trkpt lat="48.84593" lon="2.36249">
        <ele>81.1</ele>
        <time>2015-02-09T21:14:56.447Z</time>
      </trkpt>
      <trkpt lat="48.84597" lon="2.36243">
        <ele>81.2</ele>
        <time>2015-02-09T21:14:57.459Z</time>
      </trkpt>
      <trkpt lat="48.84603" lon="2.36234">
        <ele>80.7</ele>
        <time>2015-02-09T21:14:59.481Z</time>
      </trkpt>
      <trkpt lat="48.84607" lon="2.36229">
        <ele>80.3</ele>
        <time>2015-02-09T21:15:00.376Z</time>
      </trkpt>
      <trkpt lat="48.8461" lon="2.36223">
        <ele>80.2</ele>
        <time>2015-02-09T21:15:01.488Z</time>
      </trkpt>
      <trkpt lat="48.84613" lon="2.36217">
        <ele>80.2</ele>
        <time>2015-02-09T21:15:02.568Z</time>
      </trkpt>
      <trkpt lat="48.84617" lon="2.36212">
        <ele>80.3</ele>
        <time>2015-02-09T21:15:04.097Z</time>
      </trkpt>
      <trkpt lat="48.8462" lon="2.36206">
        <ele>80</ele>
        <time>2015-02-09T21:15:04.402Z</time>
      </trkpt>
      <trkpt lat="48.84623" lon="2.36201">
        <ele>79.6</ele>
        <time>2015-02-09T21:15:05.411Z</time>
      </trkpt>
      <trkpt lat="48.84627" lon="2.36196">
        <ele>79.7</ele>
        <time>2015-02-09T21:15:06.418Z</time>
      </trkpt>
      <trkpt lat="48.8463" lon="2.3619">
        <ele>80.1</ele>
        <time>2015-02-09T21:15:07.445Z</time>
      </trkpt>
      <trkpt lat="48.84633" lon="2.36185">
        <ele>80.2</ele>
        <time>2015-02-09T21:15:08.449Z</time>
      </trkpt>
      <trkpt lat="48.84637" lon="2.3618">
        <ele>80.5</ele>
        <time>2015-02-09T21:15:09.471Z</time>
      </trkpt>
      <trkpt lat="48.8464" lon="2.36175">
        <ele>80.8</ele>
        <time>2015-02-09T21:15:10.480Z</time>
      </trkpt>
      <trkpt lat="48.84643" lon="2.36169">
        <ele>80.6</ele>
        <time>2015-02-09T21:15:11.375Z</time>
      </trkpt>
      <trkpt lat="48.84647" lon="2.36163">
        <ele>80.5</ele>
        <time>2015-02-09T21:15:12.378Z</time>
      </trkpt>
      <trkpt lat="48.8465" lon="2.36157">
        <ele>80.3</ele>
        <time>2015-02-09T21:15:13.446Z</time>
      </trkpt>
      <trkpt lat="48.84654" lon="2.36151">
        <ele>80.3</ele>
        <time>2015-02-09T21:15:14.487Z</time>
      </trkpt>
      <trkpt lat="48.84658" lon="2.36146">
        <ele>79.8</ele>
        <time>2015-02-09T21:15:15.398Z</time>
      </trkpt>
      <trkpt lat="48.84661" lon="2.36141">
        <ele>79.7</ele>
        <time>2015-02-09T21:15:16.401Z</time>
      </trkpt>
      <trkpt lat="48.84665" lon="2.36135">
        <ele>79.6</ele>
        <time>2015-02-09T21:15:17.416Z</time>
      </trkpt>
      <trkpt lat="48.84669" lon="2.3613">
        <ele>79.3</ele>
        <time>2015-02-09T21:15:18.429Z</time>
      </trkpt>
      <trkpt lat="48.84673" lon="2.36126">
        <ele>79.4</ele>
        <time>2015-02-09T21:15:19.441Z</time>
      </trkpt>
      <trkpt lat="48.84677" lon="2.36121">
        <ele>79.2</ele>
        <time>2015-02-09T21:15:20.452Z</time>
      </trkpt>
      <trkpt lat="48.8468" lon="2.36115">
        <ele>79.4</ele>
        <time>2015-02-09T21:15:21.482Z</time>
      </trkpt>
      <trkpt lat="48.84684" lon="2.36109">
        <ele>79.4</ele>
        <time>2015-02-09T21:15:22.495Z</time>
      </trkpt>
      <trkpt lat="48.84688" lon="2.36103">
        <ele>79.4</ele>
        <time>2015-02-09T21:15:23.411Z</time>
      </trkpt>
      <trkpt lat="48.84691" lon="2.36097">
        <ele>79.7</ele>
        <time>2015-02-09T21:15:24.432Z</time>
      </trkpt>
      <trkpt lat="48.84695" lon="2.36092">
        <ele>79.8</ele>
        <time>2015-02-09T21:15:25.453Z</time>
      </trkpt>
      <trkpt lat="48.84699" lon="2.36086">
        <ele>79.8</ele>
        <time>2015-02-09T21:15:26.463Z</time>
      </trkpt>
      <trkpt lat="48.84702" lon="2.3608">
        <ele>80</ele>
        <time>2015-02-09T21:15:27.470Z</time>
      </trkpt>
      <trkpt lat="48.84706" lon="2.36075">
        <ele>80</ele>
        <time>2015-02-09T21:15:28.396Z</time>
      </trkpt>
      <trkpt lat="48.84709" lon="2.36069">
        <ele>79.9</ele>
        <time>2015-02-09T21:15:29.402Z</time>
      </trkpt>
      <trkpt lat="48.84712" lon="2.36063">
        <ele>80.3</ele>
        <time>2015-02-09T21:15:30.409Z</time>
      </trkpt>
      <trkpt lat="48.84716" lon="2.36057">
        <ele>80.5</ele>
        <time>2015-02-09T21:15:31.445Z</time>
      </trkpt>
      <trkpt lat="48.84719" lon="2.36051">
        <ele>80.9</ele>
        <time>2015-02-09T21:15:32.500Z</time>
      </trkpt>
      <trkpt lat="48.84722" lon="2.36047">
        <ele>81.2</ele>
        <time>2015-02-09T21:15:33.412Z</time>
      </trkpt>
      <trkpt lat="48.84726" lon="2.36042">
        <ele>81.5</ele>
        <time>2015-02-09T21:15:34.489Z</time>
      </trkpt>
      <trkpt lat="48.8473" lon="2.36038">
        <ele>82</ele>
        <time>2015-02-09T21:15:35.412Z</time>
      </trkpt>
      <trkpt lat="48.84733" lon="2.36033">
        <ele>82.1</ele>
        <time>2015-02-09T21:15:36.438Z</time>
      </trkpt>
      <trkpt lat="48.8474" lon="2.36026">
        <ele>82.5</ele>
        <time>2015-02-09T21:15:38.413Z</time>
      </trkpt>
      <trkpt lat="48.84744" lon="2.36022">
        <ele>82.6</ele>
        <time>2015-02-09T21:15:39.431Z</time>
      </trkpt>
      <trkpt lat="48.84748" lon="2.36018">
        <ele>82.3</ele>
        <time>2015-02-09T21:15:40.468Z</time>
      </trkpt>
      <trkpt lat="48.84753" lon="2.36014">
        <ele>82.2</ele>
        <time>2015-02-09T21:15:41.490Z</time>
      </trkpt>
      <trkpt lat="48.84758" lon="2.36009">
        <ele>82.4</ele>
        <time>2015-02-09T21:15:42.483Z</time>
      </trkpt>
      <trkpt lat="48.84762" lon="2.36003">
        <ele>82.9</ele>
        <time>2015-02-09T21:15:43.492Z</time>
      </trkpt>
      <trkpt lat="48.84766" lon="2.35996">
        <ele>83.2</ele>
        <time>2015-02-09T21:15:44.396Z</time>
      </trkpt>
      <trkpt lat="48.8477" lon="2.3599">
        <ele>83.1</ele>
        <time>2015-02-09T21:15:45.400Z</time>
      </trkpt>
      <trkpt lat="48.84774" lon="2.35984">
        <ele>82.9</ele>
        <time>2015-02-09T21:15:46.413Z</time>
      </trkpt>
      <trkpt lat="48.84778" lon="2.35977">
        <ele>83.5</ele>
        <time>2015-02-09T21:15:47.471Z</time>
      </trkpt>
      <trkpt lat="48.84783" lon="2.3597">
        <ele>83.3</ele>
        <time>2015-02-09T21:15:48.465Z</time>
      </trkpt>
      <trkpt lat="48.84786" lon="2.35964">
        <ele>83.3</ele>
        <time>2015-02-09T21:15:49.471Z</time>
      </trkpt>
      <trkpt lat="48.8479" lon="2.35957">
        <ele>83.3</ele>
        <time>2015-02-09T21:15:50.397Z</time>
      </trkpt>
      <trkpt lat="48.84793" lon="2.35947">
        <ele>83.5</ele>
        <time>2015-02-09T21:15:51.403Z</time>
      </trkpt>
      <trkpt lat="48.84796" lon="2.3594">
        <ele>83.5</ele>
        <time>2015-02-09T21:15:52.452Z</time>
      </trkpt>
      <trkpt lat="48.84799" lon="2.35934">
        <ele>83.9</ele>
        <time>2015-02-09T21:15:53.469Z</time>
      </trkpt>
      <trkpt lat="48.84803" lon="2.35929">
        <ele>83.9</ele>
        <time>2015-02-09T21:15:54.481Z</time>
      </trkpt>
      <trkpt lat="48.84807" lon="2.35923">
        <ele>83.9</ele>
        <time>2015-02-09T21:15:55.445Z</time>
      </trkpt>
      <trkpt lat="48.84811" lon="2.35917">
        <ele>84</ele>
        <time>2015-02-09T21:15:56.400Z</time>
      </trkpt>
      <trkpt lat="48.84816" lon="2.35912">
        <ele>84.3</ele>
        <time>2015-02-09T21:15:57.409Z</time>
      </trkpt>
      <trkpt lat="48.84819" lon="2.35906">
        <ele>85</ele>
        <time>2015-02-09T21:15:58.430Z</time>
      </trkpt>
      <trkpt lat="48.84822" lon="2.359">
        <ele>85.3</ele>
        <time>2015-02-09T21:15:59.448Z</time>
      </trkpt>
      <trkpt lat="48.84826" lon="2.35894">
        <ele>85.4</ele>
        <time>2015-02-09T21:16:00.467Z</time>
      </trkpt>
      <trkpt lat="48.84828" lon="2.35887">
        <ele>85.4</ele>
        <time>2015-02-09T21:16:01.477Z</time>
      </trkpt>
      <trkpt lat="48.84831" lon="2.3588">
        <ele>85.7</ele>
        <time>2015-02-09T21:16:02.484Z</time>
      </trkpt>
      <trkpt lat="48.84833" lon="2.35873">
        <ele>85.8</ele>
        <time>2015-02-09T21:16:03.396Z</time>
      </trkpt>
      <trkpt lat="48.84837" lon="2.35866">
        <ele>85.6</ele>
        <time>2015-02-09T21:16:04.397Z</time>
      </trkpt>
      <trkpt lat="48.84841" lon="2.3586">
        <ele>85.9</ele>
        <time>2015-02-09T21:16:05.519Z</time>
      </trkpt>
      <trkpt lat="48.84844" lon="2.35854">
        <ele>86</ele>
        <time>2015-02-09T21:16:06.439Z</time>
      </trkpt>
      <trkpt lat="48.84847" lon="2.35848">
        <ele>86</ele>
        <time>2015-02-09T21:16:07.446Z</time>
      </trkpt>
      <trkpt lat="48.84851" lon="2.35843">
        <ele>86.3</ele>
        <time>2015-02-09T21:16:08.455Z</time>
      </trkpt>
      <trkpt lat="48.84855" lon="2.35837">
        <ele>86.8</ele>
        <time>2015-02-09T21:16:09.469Z</time>
      </trkpt>
      <trkpt lat="48.84858" lon="2.35833">
        <ele>86.7</ele>
        <time>2015-02-09T21:16:10.373Z</time>
      </trkpt>
      <trkpt lat="48.84862" lon="2.35827">
        <ele>86.6</ele>
        <time>2015-02-09T21:16:11.406Z</time>
      </trkpt>
      <trkpt lat="48.84866" lon="2.35821">
        <ele>86.2</ele>
        <time>2015-02-09T21:16:12.429Z</time>
      </trkpt>
      <trkpt lat="48.84871" lon="2.35814">
        <ele>86</ele>
        <time>2015-02-09T21:16:13.509Z</time>
      </trkpt>
      <trkpt lat="48.84876" lon="2.35808">
        <ele>86.3</ele>
        <time>2015-02-09T21:16:15.373Z</time>
      </trkpt>
      <trkpt lat="48.84879" lon="2.35801">
        <ele>86.6</ele>
        <time>2015-02-09T21:16:15.434Z</time>
      </trkpt>
      <trkpt lat="48.84884" lon="2.35795">
        <ele>87</ele>
        <time>2015-02-09T21:16:16.408Z</time>
      </trkpt>
      <trkpt lat="48.8489" lon="2.35789">
        <ele>87.2</ele>
        <time>2015-02-09T21:16:17.409Z</time>
      </trkpt>
      <trkpt lat="48.84896" lon="2.35784">
        <ele>87.4</ele>
        <time>2015-02-09T21:16:18.414Z</time>
      </trkpt>
      <trkpt lat="48.84902" lon="2.35779">
        <ele>87.2</ele>
        <time>2015-02-09T21:16:19.435Z</time>
      </trkpt>
      <trkpt lat="48.84908" lon="2.35774">
        <ele>87</ele>
        <time>2015-02-09T21:16:20.526Z</time>
      </trkpt>
      <trkpt lat="48.84913" lon="2.35768">
        <ele>87</ele>
        <time>2015-02-09T21:16:21.407Z</time>
      </trkpt>
      <trkpt lat="48.84918" lon="2.35762">
        <ele>87.3</ele>
        <time>2015-02-09T21:16:22.425Z</time>
      </trkpt>
      <trkpt lat="48.84922" lon="2.35756">
        <ele>87.5</ele>
        <time>2015-02-09T21:16:23.439Z</time>
      </trkpt>
      <trkpt lat="48.84926" lon="2.3575">
        <ele>87.6</ele>
        <time>2015-02-09T21:16:24.448Z</time>
      </trkpt>
      <trkpt lat="48.84931" lon="2.35746">
        <ele>87.4</ele>
        <time>2015-02-09T21:16:25.454Z</time>
      </trkpt>
      <trkpt lat="48.84936" lon="2.35736">
        <ele>86.7</ele>
        <time>2015-02-09T21:16:27.468Z</time>
      </trkpt>
      <trkpt lat="48.84936" lon="2.35729">
        <ele>86.2</ele>
        <time>2015-02-09T21:16:28.483Z</time>
      </trkpt>
      <trkpt lat="48.84936" lon="2.35716">
        <ele>86.8</ele>
        <time>2015-02-09T21:16:30.395Z</time>
      </trkpt>
      <trkpt lat="48.84938" lon="2.35712">
        <ele>86.7</ele>
        <time>2015-02-09T21:16:31.444Z</time>
      </trkpt>
      <trkpt lat="48.8494" lon="2.35705">
        <ele>84.7</ele>
        <time>2015-02-09T21:16:59.411Z</time>
      </trkpt>
      <trkpt lat="48.84943" lon="2.357">
        <ele>85.6</ele>
        <time>2015-02-09T21:17:00.450Z</time>
      </trkpt>
      <trkpt lat="48.84943" lon="2.35689">
        <ele>84.9</ele>
        <time>2015-02-09T21:17:03.494Z</time>
      </trkpt>
      <trkpt lat="48.84944" lon="2.35684">
        <ele>85.1</ele>
        <time>2015-02-09T21:17:04.408Z</time>
      </trkpt>
      <trkpt lat="48.84946" lon="2.35675">
        <ele>85.5</ele>
        <time>2015-02-09T21:17:06.411Z</time>
      </trkpt>
      <trkpt lat="48.84946" lon="2.3567">
        <ele>85.5</ele>
        <time>2015-02-09T21:17:07.449Z</time>
      </trkpt>
      <trkpt lat="48.84948" lon="2.3566">
        <ele>85.6</ele>
        <time>2015-02-09T21:17:09.461Z</time>
      </trkpt>
      <trkpt lat="48.84949" lon="2.35654">
        <ele>85.6</ele>
        <time>2015-02-09T21:17:10.482Z</time>
      </trkpt>
      <trkpt lat="48.84952" lon="2.35644">
        <ele>85.5</ele>
        <time>2015-02-09T21:17:12.397Z</time>
      </trkpt>
      <trkpt lat="48.84954" lon="2.35639">
        <ele>85.3</ele>
        <time>2015-02-09T21:17:13.444Z</time>
      </trkpt>
      <trkpt lat="48.84958" lon="2.35628">
        <ele>85.5</ele>
        <time>2015-02-09T21:17:15.394Z</time>
      </trkpt>
      <trkpt lat="48.8496" lon="2.35623">
        <ele>85.9</ele>
        <time>2015-02-09T21:17:16.392Z</time>
      </trkpt>
      <trkpt lat="48.84962" lon="2.35616">
        <ele>86.1</ele>
        <time>2015-02-09T21:17:17.410Z</time>
      </trkpt>
      <trkpt lat="48.84963" lon="2.35609">
        <ele>86.3</ele>
        <time>2015-02-09T21:17:18.440Z</time>
      </trkpt>
      <trkpt lat="48.84965" lon="2.35603">
        <ele>86.5</ele>
        <time>2015-02-09T21:17:19.453Z</time>
      </trkpt>
      <trkpt lat="48.84967" lon="2.35596">
        <ele>86.8</ele>
        <time>2015-02-09T21:17:20.459Z</time>
      </trkpt>
      <trkpt lat="48.8497" lon="2.35584">
        <ele>87</ele>
        <time>2015-02-09T21:17:22.483Z</time>
      </trkpt>
      <trkpt lat="48.84972" lon="2.35578">
        <ele>87.2</ele>
        <time>2015-02-09T21:17:23.407Z</time>
      </trkpt>
      <trkpt lat="48.84975" lon="2.35567">
        <ele>86.7</ele>
        <time>2015-02-09T21:17:25.555Z</time>
      </trkpt>
      <trkpt lat="48.84977" lon="2.35562">
        <ele>86.6</ele>
        <time>2015-02-09T21:17:26.409Z</time>
      </trkpt>
      <trkpt lat="48.84979" lon="2.3555">
        <ele>85.7</ele>
        <time>2015-02-09T21:17:28.464Z</time>
      </trkpt>
      <trkpt lat="48.84981" lon="2.35544">
        <ele>85.9</ele>
        <time>2015-02-09T21:17:29.411Z</time>
      </trkpt>
      <trkpt lat="48.84984" lon="2.35534">
        <ele>85.9</ele>
        <time>2015-02-09T21:17:31.447Z</time>
      </trkpt>
      <trkpt lat="48.84986" lon="2.3553">
        <ele>85.7</ele>
        <time>2015-02-09T21:17:32.479Z</time>
      </trkpt>
      <trkpt lat="48.8499" lon="2.3552">
        <ele>85.5</ele>
        <time>2015-02-09T21:17:34.386Z</time>
      </trkpt>
      <trkpt lat="48.84992" lon="2.35515">
        <ele>85.7</ele>
        <time>2015-02-09T21:17:35.461Z</time>
      </trkpt>
      <trkpt lat="48.84995" lon="2.35503">
        <ele>85.9</ele>
        <time>2015-02-09T21:17:37.494Z</time>
      </trkpt>
      <trkpt lat="48.84997" lon="2.35498">
        <ele>86.1</ele>
        <time>2015-02-09T21:17:38.366Z</time>
      </trkpt>
      <trkpt lat="48.85" lon="2.35485">
        <ele>86.5</ele>
        <time>2015-02-09T21:17:40.436Z</time>
      </trkpt>
      <trkpt lat="48.85002" lon="2.35479">
        <ele>87.1</ele>
        <time>2015-02-09T21:17:41.449Z</time>
      </trkpt>
      <trkpt lat="48.85006" lon="2.3547">
        <ele>87.4</ele>
        <time>2015-02-09T21:17:43.476Z</time>
      </trkpt>
      <trkpt lat="48.85008" lon="2.35465">
        <ele>87.3</ele>
        <time>2015-02-09T21:17:44.497Z</time>
      </trkpt>
      <trkpt lat="48.85013" lon="2.35455">
        <ele>87.3</ele>
        <time>2015-02-09T21:17:46.389Z</time>
      </trkpt>
      <trkpt lat="48.85015" lon="2.35448">
        <ele>88.1</ele>
        <time>2015-02-09T21:17:47.386Z</time>
      </trkpt>
      <trkpt lat="48.85017" lon="2.35442">
        <ele>88.3</ele>
        <time>2015-02-09T21:17:48.485Z</time>
      </trkpt>
      <trkpt lat="48.85019" lon="2.35435">
        <ele>88.7</ele>
        <time>2015-02-09T21:17:49.462Z</time>
      </trkpt>
      <trkpt lat="48.85022" lon="2.35428">
        <ele>89.1</ele>
        <time>2015-02-09T21:17:50.473Z</time>
      </trkpt>
      <trkpt lat="48.85025" lon="2.35421">
        <ele>89.8</ele>
        <time>2015-02-09T21:17:51.476Z</time>
      </trkpt>
      <trkpt lat="48.85028" lon="2.35411">
        <ele>90</ele>
        <time>2015-02-09T21:17:52.422Z</time>
      </trkpt>
      <trkpt lat="48.85031" lon="2.354">
        <ele>90.1</ele>
        <time>2015-02-09T21:17:53.428Z</time>
      </trkpt>
      <trkpt lat="48.85035" lon="2.35391">
        <ele>89.9</ele>
        <time>2015-02-09T21:17:54.449Z</time>
      </trkpt>
      <trkpt lat="48.85038" lon="2.35381">
        <ele>89.9</ele>
        <time>2015-02-09T21:17:55.468Z</time>
      </trkpt>
      <trkpt lat="48.8504" lon="2.35369">
        <ele>89.7</ele>
        <time>2015-02-09T21:17:56.484Z</time>
      </trkpt>
      <trkpt lat="48.85043" lon="2.35359">
        <ele>90.1</ele>
        <time>2015-02-09T21:17:57.494Z</time>
      </trkpt>
      <trkpt lat="48.85045" lon="2.35348">
        <ele>89.9</ele>
        <time>2015-02-09T21:17:58.436Z</time>
      </trkpt>
      <trkpt lat="48.85048" lon="2.35336">
        <ele>90.2</ele>
        <time>2015-02-09T21:17:59.455Z</time>
      </trkpt>
      <trkpt lat="48.85051" lon="2.35325">
        <ele>90.3</ele>
        <time>2015-02-09T21:18:00.372Z</time>
      </trkpt>
      <trkpt lat="48.85054" lon="2.35313">
        <ele>90.6</ele>
        <time>2015-02-09T21:18:01.428Z</time>
      </trkpt>
      <trkpt lat="48.85057" lon="2.35302">
        <ele>91.2</ele>
        <time>2015-02-09T21:18:02.430Z</time>
      </trkpt>
      <trkpt lat="48.85061" lon="2.3529">
        <ele>91.5</ele>
        <time>2015-02-09T21:18:03.442Z</time>
      </trkpt>
      <trkpt lat="48.85064" lon="2.3528">
        <ele>91.7</ele>
        <time>2015-02-09T21:18:04.471Z</time>
      </trkpt>
      <trkpt lat="48.85068" lon="2.35268">
        <ele>91.9</ele>
        <time>2015-02-09T21:18:05.485Z</time>
      </trkpt>
      <trkpt lat="48.8507" lon="2.35256">
        <ele>91.9</ele>
        <time>2015-02-09T21:18:06.395Z</time>
      </trkpt>
      <trkpt lat="48.85073" lon="2.35244">
        <ele>91.9</ele>
        <time>2015-02-09T21:18:07.434Z</time>
      </trkpt>
      <trkpt lat="48.85075" lon="2.35233">
        <ele>92.1</ele>
        <time>2015-02-09T21:18:08.451Z</time>
      </trkpt>
      <trkpt lat="48.85079" lon="2.35224">
        <ele>92.4</ele>
        <time>2015-02-09T21:18:09.468Z</time>
      </trkpt>
      <trkpt lat="48.85082" lon="2.35214">
        <ele>92.4</ele>
        <time>2015-02-09T21:18:10.476Z</time>
      </trkpt>
      <trkpt lat="48.85085" lon="2.35204">
        <ele>93</ele>
        <time>2015-02-09T21:18:11.485Z</time>
      </trkpt>
      <trkpt lat="48.85089" lon="2.35195">
        <ele>93.4</ele>
        <time>2015-02-09T21:18:12.458Z</time>
      </trkpt>
      <trkpt lat="48.85093" lon="2.35185">
        <ele>93.7</ele>
        <time>2015-02-09T21:18:13.449Z</time>
      </trkpt>
      <trkpt lat="48.85097" lon="2.35177">
        <ele>94.1</ele>
        <time>2015-02-09T21:18:14.452Z</time>
      </trkpt>
      <trkpt lat="48.851" lon="2.35168">
        <ele>94.3</ele>
        <time>2015-02-09T21:18:15.459Z</time>
      </trkpt>
      <trkpt lat="48.85103" lon="2.35161">
        <ele>94.1</ele>
        <time>2015-02-09T21:18:16.400Z</time>
      </trkpt>
      <trkpt lat="48.85105" lon="2.35153">
        <ele>93.7</ele>
        <time>2015-02-09T21:18:17.406Z</time>
      </trkpt>
      <trkpt lat="48.85107" lon="2.35143">
        <ele>92.9</ele>
        <time>2015-02-09T21:18:18.423Z</time>
      </trkpt>
      <trkpt lat="48.85109" lon="2.35134">
        <ele>91.6</ele>
        <time>2015-02-09T21:18:19.447Z</time>
      </trkpt>
      <trkpt lat="48.85112" lon="2.35122">
        <ele>91.1</ele>
        <time>2015-02-09T21:18:21.454Z</time>
      </trkpt>
      <trkpt lat="48.85114" lon="2.35118">
        <ele>90.5</ele>
        <time>2015-02-09T21:18:22.461Z</time>
      </trkpt>
      <trkpt lat="48.85118" lon="2.35109">
        <ele>88.5</ele>
        <time>2015-02-09T21:18:26.549Z</time>
      </trkpt>
      <trkpt lat="48.85119" lon="2.35108">
        <ele>88.6</ele>
        <time>2015-02-09T21:18:27.419Z</time>
      </trkpt>
      <trkpt lat="48.85124" lon="2.35118">
        <ele>85.7</ele>
        <time>2015-02-09T21:18:30.454Z</time>
      </trkpt>
      <trkpt lat="48.85125" lon="2.35121">
        <ele>85.4</ele>
        <time>2015-02-09T21:18:31.489Z</time>
      </trkpt>
      <trkpt lat="48.8513" lon="2.35128">
        <ele>84.1</ele>
        <time>2015-02-09T21:18:33.406Z</time>
      </trkpt>
      <trkpt lat="48.85132" lon="2.35131">
        <ele>83.6</ele>
        <time>2015-02-09T21:18:34.426Z</time>
      </trkpt>
      <trkpt lat="48.85137" lon="2.35137">
        <ele>83.1</ele>
        <time>2015-02-09T21:18:36.484Z</time>
      </trkpt>
      <trkpt lat="48.8514" lon="2.35139">
        <ele>83.1</ele>
        <time>2015-02-09T21:18:37.531Z</time>
      </trkpt>
      <trkpt lat="48.85148" lon="2.35146">
        <ele>82.8</ele>
        <time>2015-02-09T21:18:40.424Z</time>
      </trkpt>
      <trkpt lat="48.85151" lon="2.35148">
        <ele>82.8</ele>
        <time>2015-02-09T21:18:41.451Z</time>
      </trkpt>
      <trkpt lat="48.85157" lon="2.35152">
        <ele>83.1</ele>
        <time>2015-02-09T21:18:43.497Z</time>
      </trkpt>
      <trkpt lat="48.8516" lon="2.35153">
        <ele>82.9</ele>
        <time>2015-02-09T21:18:44.410Z</time>
      </trkpt>
      <trkpt lat="48.85166" lon="2.35157">
        <ele>82.3</ele>
        <time>2015-02-09T21:18:46.476Z</time>
      </trkpt>
      <trkpt lat="48.85169" lon="2.35159">
        <ele>82.4</ele>
        <time>2015-02-09T21:18:47.485Z</time>
      </trkpt>
      <trkpt lat="48.85175" lon="2.35163">
        <ele>82.5</ele>
        <time>2015-02-09T21:18:49.443Z</time>
      </trkpt>
      <trkpt lat="48.85178" lon="2.35165">
        <ele>82.3</ele>
        <time>2015-02-09T21:18:50.461Z</time>
      </trkpt>
      <trkpt lat="48.85184" lon="2.35168">
        <ele>82.3</ele>
        <time>2015-02-09T21:18:52.391Z</time>
      </trkpt>
      <trkpt lat="48.85188" lon="2.35169">
        <ele>82.3</ele>
        <time>2015-02-09T21:18:53.407Z</time>
      </trkpt>
      <trkpt lat="48.85195" lon="2.35173">
        <ele>82.4</ele>
        <time>2015-02-09T21:18:55.425Z</time>
      </trkpt>
      <trkpt lat="48.85198" lon="2.35175">
        <ele>82.6</ele>
        <time>2015-02-09T21:18:56.439Z</time>
      </trkpt>
      <trkpt lat="48.85204" lon="2.3518">
        <ele>82.5</ele>
        <time>2015-02-09T21:18:58.474Z</time>
      </trkpt>
      <trkpt lat="48.85208" lon="2.35182">
        <ele>82.6</ele>
        <time>2015-02-09T21:18:59.486Z</time>
      </trkpt>
      <trkpt lat="48.85215" lon="2.35187">
        <ele>82.4</ele>
        <time>2015-02-09T21:19:01.427Z</time>
      </trkpt>
      <trkpt lat="48.85218" lon="2.35189">
        <ele>82.4</ele>
        <time>2015-02-09T21:19:02.433Z</time>
      </trkpt>
      <trkpt lat="48.85225" lon="2.35194">
        <ele>82.3</ele>
        <time>2015-02-09T21:19:04.455Z</time>
      </trkpt>
      <trkpt lat="48.85228" lon="2.35196">
        <ele>82.3</ele>
        <time>2015-02-09T21:19:05.489Z</time>
      </trkpt>
      <trkpt lat="48.85234" lon="2.35201">
        <ele>81.8</ele>
        <time>2015-02-09T21:19:07.465Z</time>
      </trkpt>
      <trkpt lat="48.85238" lon="2.35203">
        <ele>81.7</ele>
        <time>2015-02-09T21:19:08.441Z</time>
      </trkpt>
      <trkpt lat="48.85245" lon="2.35208">
        <ele>82.5</ele>
        <time>2015-02-09T21:19:10.394Z</time>
      </trkpt>
      <trkpt lat="48.85249" lon="2.3521">
        <ele>82.7</ele>
        <time>2015-02-09T21:19:11.396Z</time>
      </trkpt>
      <trkpt lat="48.85257" lon="2.35215">
        <ele>82.9</ele>
        <time>2015-02-09T21:19:13.446Z</time>
      </trkpt>
      <trkpt lat="48.8526" lon="2.35217">
        <ele>82.8</ele>
        <time>2015-02-09T21:19:14.459Z</time>
      </trkpt>
      <trkpt lat="48.85267" lon="2.35219">
        <ele>82.6</ele>
        <time>2015-02-09T21:19:16.397Z</time>
      </trkpt>
      <trkpt lat="48.85271" lon="2.35218">
        <ele>82.7</ele>
        <time>2015-02-09T21:19:17.408Z</time>
      </trkpt>
      <trkpt lat="48.85275" lon="2.35211">
        <ele>82.5</ele>
        <time>2015-02-09T21:19:19.435Z</time>
      </trkpt>
      <trkpt lat="48.85277" lon="2.35206">
        <ele>82.5</ele>
        <time>2015-02-09T21:19:20.448Z</time>
      </trkpt>
      <trkpt lat="48.85279" lon="2.35194">
        <ele>81.7</ele>
        <time>2015-02-09T21:19:22.480Z</time>
      </trkpt>
      <trkpt lat="48.85281" lon="2.35187">
        <ele>81.4</ele>
        <time>2015-02-09T21:19:23.472Z</time>
      </trkpt>
      <trkpt lat="48.85283" lon="2.3518">
        <ele>81.2</ele>
        <time>2015-02-09T21:19:24.442Z</time>
      </trkpt>
      <trkpt lat="48.85284" lon="2.35172">
        <ele>81</ele>
        <time>2015-02-09T21:19:25.442Z</time>
      </trkpt>
      <trkpt lat="48.85286" lon="2.35165">
        <ele>80.8</ele>
        <time>2015-02-09T21:19:26.458Z</time>
      </trkpt>
      <trkpt lat="48.85288" lon="2.35157">
        <ele>80.6</ele>
        <time>2015-02-09T21:19:27.471Z</time>
      </trkpt>
      <trkpt lat="48.85291" lon="2.35148">
        <ele>80.2</ele>
        <time>2015-02-09T21:19:28.392Z</time>
      </trkpt>
      <trkpt lat="48.85293" lon="2.35139">
        <ele>80.2</ele>
        <time>2015-02-09T21:19:29.398Z</time>
      </trkpt>
      <trkpt lat="48.85296" lon="2.35131">
        <ele>80.3</ele>
        <time>2015-02-09T21:19:30.399Z</time>
      </trkpt>
      <trkpt lat="48.853" lon="2.35124">
        <ele>80.7</ele>
        <time>2015-02-09T21:19:31.432Z</time>
      </trkpt>
      <trkpt lat="48.85304" lon="2.35122">
        <ele>80.8</ele>
        <time>2015-02-09T21:19:32.452Z</time>
      </trkpt>
      <trkpt lat="48.85309" lon="2.35121">
        <ele>81</ele>
        <time>2015-02-09T21:19:33.448Z</time>
      </trkpt>
      <trkpt lat="48.85314" lon="2.35118">
        <ele>81.5</ele>
        <time>2015-02-09T21:19:34.465Z</time>
      </trkpt>
      <trkpt lat="48.85319" lon="2.35114">
        <ele>81.9</ele>
        <time>2015-02-09T21:19:35.473Z</time>
      </trkpt>
      <trkpt lat="48.85324" lon="2.35109">
        <ele>82.4</ele>
        <time>2015-02-09T21:19:36.377Z</time>
      </trkpt>
      <trkpt lat="48.85329" lon="2.35106">
        <ele>82.9</ele>
        <time>2015-02-09T21:19:37.427Z</time>
      </trkpt>
      <trkpt lat="48.85335" lon="2.35107">
        <ele>82.9</ele>
        <time>2015-02-09T21:19:38.447Z</time>
      </trkpt>
      <trkpt lat="48.85341" lon="2.35109">
        <ele>82.8</ele>
        <time>2015-02-09T21:19:39.454Z</time>
      </trkpt>
      <trkpt lat="48.85348" lon="2.35108">
        <ele>82.7</ele>
        <time>2015-02-09T21:19:40.458Z</time>
      </trkpt>
      <trkpt lat="48.85355" lon="2.35106">
        <ele>82.9</ele>
        <time>2015-02-09T21:19:41.462Z</time>
      </trkpt>
      <trkpt lat="48.85361" lon="2.35103">
        <ele>83.1</ele>
        <time>2015-02-09T21:19:42.479Z</time>
      </trkpt>
      <trkpt lat="48.85365" lon="2.351">
        <ele>83.3</ele>
        <time>2015-02-09T21:19:43.495Z</time>
      </trkpt>
      <trkpt lat="48.85371" lon="2.35096">
        <ele>83.3</ele>
        <time>2015-02-09T21:19:44.393Z</time>
      </trkpt>
      <trkpt lat="48.85375" lon="2.35093">
        <ele>83.7</ele>
        <time>2015-02-09T21:19:45.410Z</time>
      </trkpt>
      <trkpt lat="48.85377" lon="2.35086">
        <ele>85</ele>
        <time>2015-02-09T21:19:46.417Z</time>
      </trkpt>
      <trkpt lat="48.8538" lon="2.35081">
        <ele>85.5</ele>
        <time>2015-02-09T21:19:47.424Z</time>
      </trkpt>
      <trkpt lat="48.85384" lon="2.35076">
        <ele>85.9</ele>
        <time>2015-02-09T21:19:48.427Z</time>
      </trkpt>
      <trkpt lat="48.85386" lon="2.35071">
        <ele>86.1</ele>
        <time>2015-02-09T21:19:49.433Z</time>
      </trkpt>
      <trkpt lat="48.8539" lon="2.35063">
        <ele>86</ele>
        <time>2015-02-09T21:19:51.477Z</time>
      </trkpt>
      <trkpt lat="48.85393" lon="2.3506">
        <ele>86.1</ele>
        <time>2015-02-09T21:19:52.512Z</time>
      </trkpt>
      <trkpt lat="48.85399" lon="2.35055">
        <ele>86.3</ele>
        <time>2015-02-09T21:19:54.414Z</time>
      </trkpt>
      <trkpt lat="48.85402" lon="2.35051">
        <ele>86.5</ele>
        <time>2015-02-09T21:19:55.441Z</time>
      </trkpt>
      <trkpt lat="48.85405" lon="2.35042">
        <ele>85.9</ele>
        <time>2015-02-09T21:19:57.486Z</time>
      </trkpt>
      <trkpt lat="48.85407" lon="2.35037">
        <ele>85.9</ele>
        <time>2015-02-09T21:19:58.407Z</time>
      </trkpt>
      <trkpt lat="48.85414" lon="2.3503">
        <ele>86.1</ele>
        <time>2015-02-09T21:20:00.393Z</time>
      </trkpt>
      <trkpt lat="48.85417" lon="2.35026">
        <ele>85.9</ele>
        <time>2015-02-09T21:20:01.422Z</time>
      </trkpt>
      <trkpt lat="48.85423" lon="2.35017">
        <ele>86</ele>
        <time>2015-02-09T21:20:03.641Z</time>
      </trkpt>
      <trkpt lat="48.85426" lon="2.35014">
        <ele>85.8</ele>
        <time>2015-02-09T21:20:04.447Z</time>
      </trkpt>
      <trkpt lat="48.85434" lon="2.35012">
        <ele>86.1</ele>
        <time>2015-02-09T21:20:07.267Z</time>
      </trkpt>
      <trkpt lat="48.85437" lon="2.35014">
        <ele>86.4</ele>
        <time>2015-02-09T21:20:07.414Z</time>
      </trkpt>
      <trkpt lat="48.85442" lon="2.35019">
        <ele>86.5</ele>
        <time>2015-02-09T21:20:10.077Z</time>
      </trkpt>
      <trkpt lat="48.85445" lon="2.35022">
        <ele>86.6</ele>
        <time>2015-02-09T21:20:10.469Z</time>
      </trkpt>
      <trkpt lat="48.85449" lon="2.35028">
        <ele>86.3</ele>
        <time>2015-02-09T21:20:12.481Z</time>
      </trkpt>
      <trkpt lat="48.85454" lon="2.3503">
        <ele>85.6</ele>
        <time>2015-02-09T21:20:13.487Z</time>
      </trkpt>
      <trkpt lat="48.8546" lon="2.35033">
        <ele>85.8</ele>
        <time>2015-02-09T21:20:15.403Z</time>
      </trkpt>
      <trkpt lat="48.85463" lon="2.35036">
        <ele>85.8</ele>
        <time>2015-02-09T21:20:16.431Z</time>
      </trkpt>
      <trkpt lat="48.8547" lon="2.3504">
        <ele>85</ele>
        <time>2015-02-09T21:20:18.441Z</time>
      </trkpt>
      <trkpt lat="48.85481" lon="2.35038">
        <ele>84.8</ele>
        <time>2015-02-09T21:20:20.481Z</time>
      </trkpt>
      <trkpt lat="48.85488" lon="2.35045">
        <ele>82.5</ele>
        <time>2015-02-09T21:20:25.437Z</time>
      </trkpt>
      <trkpt lat="48.8549" lon="2.35043">
        <ele>81.9</ele>
        <time>2015-02-09T21:20:26.450Z</time>
      </trkpt>
      <trkpt lat="48.85491" lon="2.3505">
        <ele>82</ele>
        <time>2015-02-09T21:20:29.445Z</time>
      </trkpt>
      <trkpt lat="48.8549" lon="2.35058">
        <ele>82.7</ele>
        <time>2015-02-09T21:20:30.419Z</time>
      </trkpt>
      <trkpt lat="48.85495" lon="2.3505">
        <ele>84.3</ele>
        <time>2015-02-09T21:20:55.509Z</time>
      </trkpt>
      <trkpt lat="48.85497" lon="2.35047">
        <ele>84.3</ele>
        <time>2015-02-09T21:20:56.425Z</time>
      </trkpt>
      <trkpt lat="48.855" lon="2.35035">
        <ele>82.1</ele>
        <time>2015-02-09T21:21:01.498Z</time>
      </trkpt>
      <trkpt lat="48.85501" lon="2.35032">
        <ele>81.8</ele>
        <time>2015-02-09T21:21:02.404Z</time>
      </trkpt>
      <trkpt lat="48.85509" lon="2.35033">
        <ele>81</ele>
        <time>2015-02-09T21:22:18.438Z</time>
      </trkpt>
      <trkpt lat="48.85512" lon="2.35035">
        <ele>80.8</ele>
        <time>2015-02-09T21:22:19.473Z</time>
      </trkpt>
      <trkpt lat="48.85518" lon="2.35038">
        <ele>80.4</ele>
        <time>2015-02-09T21:22:21.411Z</time>
      </trkpt>
      <trkpt lat="48.85522" lon="2.3504">
        <ele>80.3</ele>
        <time>2015-02-09T21:22:22.403Z</time>
      </trkpt>
      <trkpt lat="48.85528" lon="2.35044">
        <ele>80.3</ele>
        <time>2015-02-09T21:22:24.441Z</time>
      </trkpt>
      <trkpt lat="48.85531" lon="2.35046">
        <ele>80.3</ele>
        <time>2015-02-09T21:22:25.450Z</time>
      </trkpt>
      <trkpt lat="48.85537" lon="2.3505">
        <ele>80.6</ele>
        <time>2015-02-09T21:22:28.155Z</time>
      </trkpt>
      <trkpt lat="48.85539" lon="2.35052">
        <ele>80.7</ele>
        <time>2015-02-09T21:22:28.471Z</time>
      </trkpt>
      <trkpt lat="48.85547" lon="2.35058">
        <ele>80.8</ele>
        <time>2015-02-09T21:22:31.453Z</time>
      </trkpt>
      <trkpt lat="48.8555" lon="2.35059">
        <ele>80.8</ele>
        <time>2015-02-09T21:22:32.456Z</time>
      </trkpt>
      <trkpt lat="48.85557" lon="2.35065">
        <ele>81</ele>
        <time>2015-02-09T21:22:35.403Z</time>
      </trkpt>
      <trkpt lat="48.85559" lon="2.35067">
        <ele>81</ele>
        <time>2015-02-09T21:22:36.420Z</time>
      </trkpt>
      <trkpt lat="48.85566" lon="2.35072">
        <ele>80.4</ele>
        <time>2015-02-09T21:22:39.377Z</time>
      </trkpt>
      <trkpt lat="48.85568" lon="2.35074">
        <ele>80.6</ele>
        <time>2015-02-09T21:22:40.405Z</time>
      </trkpt>
      <trkpt lat="48.85576" lon="2.35079">
        <ele>80.7</ele>
        <time>2015-02-09T21:22:44.450Z</time>
      </trkpt>
      <trkpt lat="48.85577" lon="2.3508">
        <ele>80.4</ele>
        <time>2015-02-09T21:22:45.461Z</time>
      </trkpt>
      <trkpt lat="48.85583" lon="2.35083">
        <ele>80.6</ele>
        <time>2015-02-09T21:23:25.501Z</time>
      </trkpt>
      <trkpt lat="48.85589" lon="2.35089">
        <ele>80.7</ele>
        <time>2015-02-09T21:23:26.370Z</time>
      </trkpt>
      <trkpt lat="48.85594" lon="2.35088">
        <ele>80.7</ele>
        <time>2015-02-09T21:23:38.294Z</time>
      </trkpt>
      <trkpt lat="48.85598" lon="2.35085">
        <ele>80.2</ele>
        <time>2015-02-09T21:23:38.362Z</time>
      </trkpt>
      <trkpt lat="48.85607" lon="2.35083">
        <ele>79.9</ele>
        <time>2015-02-09T21:23:41.419Z</time>
      </trkpt>
      <trkpt lat="48.8561" lon="2.35081">
        <ele>80.1</ele>
        <time>2015-02-09T21:23:42.441Z</time>
      </trkpt>
      <trkpt lat="48.85618" lon="2.35081">
        <ele>81.1</ele>
        <time>2015-02-09T21:23:45.393Z</time>
      </trkpt>
      <trkpt lat="48.8562" lon="2.35083">
        <ele>81</ele>
        <time>2015-02-09T21:23:46.394Z</time>
      </trkpt>
      <trkpt lat="48.85625" lon="2.35085">
        <ele>81.4</ele>
        <time>2015-02-09T21:23:48.478Z</time>
      </trkpt>
      <trkpt lat="48.85628" lon="2.35086">
        <ele>82</ele>
        <time>2015-02-09T21:23:49.481Z</time>
      </trkpt>
      <trkpt lat="48.85633" lon="2.35086">
        <ele>82.1</ele>
        <time>2015-02-09T21:23:50.391Z</time>
      </trkpt>
      <trkpt lat="48.85639" lon="2.35087">
        <ele>81.4</ele>
        <time>2015-02-09T21:23:51.400Z</time>
      </trkpt>
      <trkpt lat="48.85645" lon="2.3509">
        <ele>81.3</ele>
        <time>2015-02-09T21:23:53.525Z</time>
      </trkpt>
      <trkpt lat="48.85648" lon="2.35092">
        <ele>81.5</ele>
        <time>2015-02-09T21:23:54.484Z</time>
      </trkpt>
      <trkpt lat="48.85656" lon="2.35094">
        <ele>80.7</ele>
        <time>2015-02-09T21:23:56.444Z</time>
      </trkpt>
      <trkpt lat="48.8566" lon="2.35096">
        <ele>81</ele>
        <time>2015-02-09T21:23:57.448Z</time>
      </trkpt>
      <trkpt lat="48.85666" lon="2.35099">
        <ele>81.2</ele>
        <time>2015-02-09T21:23:59.492Z</time>
      </trkpt>
      <trkpt lat="48.85671" lon="2.35101">
        <ele>81</ele>
        <time>2015-02-09T21:24:00.379Z</time>
      </trkpt>
      <trkpt lat="48.85678" lon="2.35101">
        <ele>81</ele>
        <time>2015-02-09T21:24:02.371Z</time>
      </trkpt>
      <trkpt lat="48.85683" lon="2.35098">
        <ele>81.5</ele>
        <time>2015-02-09T21:24:03.398Z</time>
      </trkpt>
      <trkpt lat="48.85688" lon="2.35091">
        <ele>82.2</ele>
        <time>2015-02-09T21:24:05.423Z</time>
      </trkpt>
      <trkpt lat="48.85689" lon="2.35088">
        <ele>82.4</ele>
        <time>2015-02-09T21:24:06.440Z</time>
      </trkpt>
      <trkpt lat="48.85694" lon="2.35079">
        <ele>81.9</ele>
        <time>2015-02-09T21:24:09.477Z</time>
      </trkpt>
      <trkpt lat="48.85695" lon="2.35076">
        <ele>81.8</ele>
        <time>2015-02-09T21:24:10.478Z</time>
      </trkpt>
      <trkpt lat="48.85699" lon="2.35063">
        <ele>80.9</ele>
        <time>2015-02-09T21:24:13.403Z</time>
      </trkpt>
      <trkpt lat="48.857" lon="2.35059">
        <ele>80.6</ele>
        <time>2015-02-09T21:24:14.407Z</time>
      </trkpt>
      <trkpt lat="48.85701" lon="2.35049">
        <ele>80.7</ele>
        <time>2015-02-09T21:24:16.621Z</time>
      </trkpt>
      <trkpt lat="48.85702" lon="2.35044">
        <ele>80.9</ele>
        <time>2015-02-09T21:24:17.447Z</time>
      </trkpt>
      <trkpt lat="48.85704" lon="2.35032">
        <ele>81</ele>
        <time>2015-02-09T21:24:19.480Z</time>
      </trkpt>
      <trkpt lat="48.85706" lon="2.35028">
        <ele>81.4</ele>
        <time>2015-02-09T21:24:20.368Z</time>
      </trkpt>
      <trkpt lat="48.85709" lon="2.35018">
        <ele>82.4</ele>
        <time>2015-02-09T21:24:23.180Z</time>
      </trkpt>
      <trkpt lat="48.8571" lon="2.35015">
        <ele>83.1</ele>
        <time>2015-02-09T21:24:23.426Z</time>
      </trkpt>
      <trkpt lat="48.85713" lon="2.35003">
        <ele>83.1</ele>
        <time>2015-02-09T21:24:25.480Z</time>
      </trkpt>
      <trkpt lat="48.85715" lon="2.34997">
        <ele>83.3</ele>
        <time>2015-02-09T21:24:26.508Z</time>
      </trkpt>
      <trkpt lat="48.85718" lon="2.34985">
        <ele>83.5</ele>
        <time>2015-02-09T21:24:28.406Z</time>
      </trkpt>
      <trkpt lat="48.85719" lon="2.34979">
        <ele>83.8</ele>
        <time>2015-02-09T21:24:29.410Z</time>
      </trkpt>
      <trkpt lat="48.85722" lon="2.34971">
        <ele>84.6</ele>
        <time>2015-02-09T21:24:31.405Z</time>
      </trkpt>
      <trkpt lat="48.85723" lon="2.34965">
        <ele>85.7</ele>
        <time>2015-02-09T21:24:32.481Z</time>
      </trkpt>
      <trkpt lat="48.85727" lon="2.34954">
        <ele>86.5</ele>
        <time>2015-02-09T21:24:35.462Z</time>
      </trkpt>
      <trkpt lat="48.85727" lon="2.34951">
        <ele>86.7</ele>
        <time>2015-02-09T21:24:36.466Z</time>
      </trkpt>
      <trkpt lat="48.8573" lon="2.34938">
        <ele>86.8</ele>
        <time>2015-02-09T21:24:39.392Z</time>
      </trkpt>
      <trkpt lat="48.8573" lon="2.34935">
        <ele>86.8</ele>
        <time>2015-02-09T21:24:40.393Z</time>
      </trkpt>
      <trkpt lat="48.85733" lon="2.34923">
        <ele>87.1</ele>
        <time>2015-02-09T21:24:43.404Z</time>
      </trkpt>
      <trkpt lat="48.85734" lon="2.34915">
        <ele>87.8</ele>
        <time>2015-02-09T21:24:43.465Z</time>
      </trkpt>
      <trkpt lat="48.85736" lon="2.34908">
        <ele>88.9</ele>
        <time>2015-02-09T21:24:44.463Z</time>
      </trkpt>
      <trkpt lat="48.85737" lon="2.34901">
        <ele>89.9</ele>
        <time>2015-02-09T21:24:45.486Z</time>
      </trkpt>
      <trkpt lat="48.85739" lon="2.34889">
        <ele>90.9</ele>
        <time>2015-02-09T21:24:48.501Z</time>
      </trkpt>
      <trkpt lat="48.8574" lon="2.34883">
        <ele>91.2</ele>
        <time>2015-02-09T21:24:48.543Z</time>
      </trkpt>
      <trkpt lat="48.85743" lon="2.34874">
        <ele>90.6</ele>
        <time>2015-02-09T21:24:50.445Z</time>
      </trkpt>
      <trkpt lat="48.85745" lon="2.34869">
        <ele>90.9</ele>
        <time>2015-02-09T21:24:51.447Z</time>
      </trkpt>
      <trkpt lat="48.8575" lon="2.3486">
        <ele>92</ele>
        <time>2015-02-09T21:24:53.520Z</time>
      </trkpt>
      <trkpt lat="48.85752" lon="2.34855">
        <ele>92.5</ele>
        <time>2015-02-09T21:24:54.451Z</time>
      </trkpt>
      <trkpt lat="48.85755" lon="2.34845">
        <ele>92.8</ele>
        <time>2015-02-09T21:24:56.448Z</time>
      </trkpt>
      <trkpt lat="48.85757" lon="2.3484">
        <ele>92.7</ele>
        <time>2015-02-09T21:24:57.366Z</time>
      </trkpt>
      <trkpt lat="48.8576" lon="2.3483">
        <ele>92.2</ele>
        <time>2015-02-09T21:24:59.398Z</time>
      </trkpt>
      <trkpt lat="48.85762" lon="2.34825">
        <ele>92.2</ele>
        <time>2015-02-09T21:25:00.410Z</time>
      </trkpt>
      <trkpt lat="48.85765" lon="2.34812">
        <ele>92</ele>
        <time>2015-02-09T21:25:03.777Z</time>
      </trkpt>
      <trkpt lat="48.85766" lon="2.34808">
        <ele>91.8</ele>
        <time>2015-02-09T21:25:04.415Z</time>
      </trkpt>
      <trkpt lat="48.8577" lon="2.34797">
        <ele>91.2</ele>
        <time>2015-02-09T21:25:07.461Z</time>
      </trkpt>
      <trkpt lat="48.85771" lon="2.34793">
        <ele>91</ele>
        <time>2015-02-09T21:25:08.487Z</time>
      </trkpt>
      <trkpt lat="48.85773" lon="2.34779">
        <ele>91.1</ele>
        <time>2015-02-09T21:25:12.511Z</time>
      </trkpt>
      <trkpt lat="48.85773" lon="2.34779">
        <ele>91</ele>
        <time>2015-02-09T21:25:13.538Z</time>
      </trkpt>
      <trkpt lat="48.85779" lon="2.3477">
        <ele>89</ele>
        <time>2015-02-09T21:25:31.432Z</time>
      </trkpt>
      <trkpt lat="48.8578" lon="2.34765">
        <ele>88.8</ele>
        <time>2015-02-09T21:25:32.431Z</time>
      </trkpt>
      <trkpt lat="48.85782" lon="2.34754">
        <ele>89.2</ele>
        <time>2015-02-09T21:25:35.477Z</time>
      </trkpt>
      <trkpt lat="48.85783" lon="2.3475">
        <ele>88.9</ele>
        <time>2015-02-09T21:25:36.478Z</time>
      </trkpt>
      <trkpt lat="48.85787" lon="2.34739">
        <ele>87.9</ele>
        <time>2015-02-09T21:25:39.421Z</time>
      </trkpt>
      <trkpt lat="48.85789" lon="2.34737">
        <ele>88.1</ele>
        <time>2015-02-09T21:25:40.439Z</time>
      </trkpt>
      <trkpt lat="48.85796" lon="2.3473">
        <ele>89.1</ele>
        <time>2015-02-09T21:25:43.461Z</time>
      </trkpt>
      <trkpt lat="48.85797" lon="2.34728">
        <ele>89.7</ele>
        <time>2015-02-09T21:25:44.479Z</time>
      </trkpt>
      <trkpt lat="48.85803" lon="2.34726">
        <ele>91.7</ele>
        <time>2015-02-09T21:25:46.380Z</time>
      </trkpt>
      <trkpt lat="48.85806" lon="2.34725">
        <ele>92.7</ele>
        <time>2015-02-09T21:25:47.387Z</time>
      </trkpt>
      <trkpt lat="48.85814" lon="2.34723">
        <ele>94.7</ele>
        <time>2015-02-09T21:25:49.409Z</time>
      </trkpt>
      <trkpt lat="48.85818" lon="2.34722">
        <ele>94.2</ele>
        <time>2015-02-09T21:25:50.438Z</time>
      </trkpt>
      <trkpt lat="48.85825" lon="2.34721">
        <ele>95.3</ele>
        <time>2015-02-09T21:25:52.449Z</time>
      </trkpt>
      <trkpt lat="48.85829" lon="2.34722">
        <ele>95.6</ele>
        <time>2015-02-09T21:25:53.467Z</time>
      </trkpt>
      <trkpt lat="48.85837" lon="2.34724">
        <ele>96.6</ele>
        <time>2015-02-09T21:25:55.407Z</time>
      </trkpt>
      <trkpt lat="48.85842" lon="2.34723">
        <ele>97.6</ele>
        <time>2015-02-09T21:25:56.426Z</time>
      </trkpt>
      <trkpt lat="48.85848" lon="2.34725">
        <ele>98.1</ele>
        <time>2015-02-09T21:25:58.822Z</time>
      </trkpt>
      <trkpt lat="48.85851" lon="2.34725">
        <ele>98.4</ele>
        <time>2015-02-09T21:25:59.475Z</time>
      </trkpt>
      <trkpt lat="48.85858" lon="2.34733">
        <ele>99.2</ele>
        <time>2015-02-09T21:26:02.549Z</time>
      </trkpt>
      <trkpt lat="48.85859" lon="2.34738">
        <ele>99.5</ele>
        <time>2015-02-09T21:26:03.495Z</time>
      </trkpt>
      <trkpt lat="48.85861" lon="2.34743">
        <ele>99.8</ele>
        <time>2015-02-09T21:26:25.521Z</time>
      </trkpt>
      <trkpt lat="48.85878" lon="2.34745">
        <ele>103.4</ele>
        <time>2015-02-09T21:26:26.541Z</time>
      </trkpt>
      <trkpt lat="48.85885" lon="2.34742">
        <ele>103.3</ele>
        <time>2015-02-09T21:26:29.370Z</time>
      </trkpt>
      <trkpt lat="48.85887" lon="2.34741">
        <ele>103.5</ele>
        <time>2015-02-09T21:26:30.432Z</time>
      </trkpt>
      <trkpt lat="48.85896" lon="2.34739">
        <ele>104.2</ele>
        <time>2015-02-09T21:26:34.408Z</time>
      </trkpt>
      <trkpt lat="48.85898" lon="2.34738">
        <ele>104.3</ele>
        <time>2015-02-09T21:26:35.473Z</time>
      </trkpt>
      <trkpt lat="48.85906" lon="2.34734">
        <ele>104</ele>
        <time>2015-02-09T21:26:38.262Z</time>
      </trkpt>
      <trkpt lat="48.8591" lon="2.34732">
        <ele>104</ele>
        <time>2015-02-09T21:26:38.374Z</time>
      </trkpt>
      <trkpt lat="48.85916" lon="2.34727">
        <ele>104.1</ele>
        <time>2015-02-09T21:26:40.355Z</time>
      </trkpt>
      <trkpt lat="48.8592" lon="2.34724">
        <ele>103.9</ele>
        <time>2015-02-09T21:26:41.425Z</time>
      </trkpt>
      <trkpt lat="48.85927" lon="2.34719">
        <ele>103.7</ele>
        <time>2015-02-09T21:26:43.398Z</time>
      </trkpt>
      <trkpt lat="48.8593" lon="2.34716">
        <ele>103.5</ele>
        <time>2015-02-09T21:26:44.461Z</time>
      </trkpt>
      <trkpt lat="48.85937" lon="2.34713">
        <ele>103.4</ele>
        <time>2015-02-09T21:26:46.425Z</time>
      </trkpt>
      <trkpt lat="48.85939" lon="2.34711">
        <ele>103.1</ele>
        <time>2015-02-09T21:26:47.431Z</time>
      </trkpt>
      <trkpt lat="48.85947" lon="2.34707">
        <ele>102.7</ele>
        <time>2015-02-09T21:26:50.460Z</time>
      </trkpt>
      <trkpt lat="48.85948" lon="2.34706">
        <ele>102.9</ele>
        <time>2015-02-09T21:26:51.484Z</time>
      </trkpt>
      <trkpt lat="48.85952" lon="2.34706">
        <ele>103.7</ele>
        <time>2015-02-09T21:27:52.730Z</time>
      </trkpt>
    </trkseg>
  </trk>
  <trk>
    <name><![CDATA[02/02/2015 20:16]]></name>
    <extensions>
      <line xmlns="http://www.topografix.com/GPX/gpx_style/0/2">
        <color>000000</color>
      </line>
    </extensions>
    <trkseg>
      <trkpt lat="48.85737" lon="2.34744">
        <ele>91.1</ele>
        <time>2015-02-02T19:16:47.806Z</time>
      </trkpt>
      <trkpt lat="48.85731" lon="2.3475">
        <ele>95.1</ele>
        <time>2015-02-02T19:17:20.574Z</time>
      </trkpt>
      <trkpt lat="48.85731" lon="2.3475">
        <ele>95.1</ele>
        <time>2015-02-02T19:17:21.581Z</time>
      </trkpt>
      <trkpt lat="48.85731" lon="2.3475">
        <ele>95.2</ele>
        <time>2015-02-02T19:17:22.646Z</time>
      </trkpt>
      <trkpt lat="48.85733" lon="2.3475">
        <ele>95.4</ele>
        <time>2015-02-02T19:17:24.566Z</time>
      </trkpt>
      <trkpt lat="48.85732" lon="2.3475">
        <ele>95.5</ele>
        <time>2015-02-02T19:17:25.574Z</time>
      </trkpt>
      <trkpt lat="48.85732" lon="2.34751">
        <ele>95</ele>
        <time>2015-02-02T19:18:28.596Z</time>
      </trkpt>
      <trkpt lat="48.85732" lon="2.34749">
        <ele>94.8</ele>
        <time>2015-02-02T19:18:29.597Z</time>
      </trkpt>
      <trkpt lat="48.85732" lon="2.3475">
        <ele>94.5</ele>
        <time>2015-02-02T19:18:30.608Z</time>
      </trkpt>
      <trkpt lat="48.85732" lon="2.3475">
        <ele>94.4</ele>
        <time>2015-02-02T19:18:31.617Z</time>
      </trkpt>
      <trkpt lat="48.85732" lon="2.3475">
        <ele>94.4</ele>
        <time>2015-02-02T19:18:35.657Z</time>
      </trkpt>
      <trkpt lat="48.85731" lon="2.34752">
        <ele>94.1</ele>
        <time>2015-02-02T19:18:36.565Z</time>
      </trkpt>
      <trkpt lat="48.8573" lon="2.34751">
        <ele>93.9</ele>
        <time>2015-02-02T19:18:40.632Z</time>
      </trkpt>
      <trkpt lat="48.8573" lon="2.34751">
        <ele>94.2</ele>
        <time>2015-02-02T19:18:41.652Z</time>
      </trkpt>
      <trkpt lat="48.85731" lon="2.3475">
        <ele>94.3</ele>
        <time>2015-02-02T19:19:04.651Z</time>
      </trkpt>
      <trkpt lat="48.85732" lon="2.34748">
        <ele>93.3</ele>
        <time>2015-02-02T19:19:05.670Z</time>
      </trkpt>
      <trkpt lat="48.85731" lon="2.34752">
        <ele>94.7</ele>
        <time>2015-02-02T19:19:46.619Z</time>
      </trkpt>
      <trkpt lat="48.85732" lon="2.34752">
        <ele>94.8</ele>
        <time>2015-02-02T19:19:47.718Z</time>
      </trkpt>
      <trkpt lat="48.85731" lon="2.34752">
        <ele>94.8</ele>
        <time>2015-02-02T19:20:10.623Z</time>
      </trkpt>
      <trkpt lat="48.85731" lon="2.34752">
        <ele>94.8</ele>
        <time>2015-02-02T19:20:11.579Z</time>
      </trkpt>
      <trkpt lat="48.85731" lon="2.34753">
        <ele>94.6</ele>
        <time>2015-02-02T19:20:14.576Z</time>
      </trkpt>
      <trkpt lat="48.8573" lon="2.34753">
        <ele>94.6</ele>
        <time>2015-02-02T19:20:15.585Z</time>
      </trkpt>
      <trkpt lat="48.85731" lon="2.34753">
        <ele>94.6</ele>
        <time>2015-02-02T19:20:25.610Z</time>
      </trkpt>
      <trkpt lat="48.85731" lon="2.34752">
        <ele>94</ele>
        <time>2015-02-02T19:20:26.632Z</time>
      </trkpt>
      <trkpt lat="48.85732" lon="2.34752">
        <ele>94.2</ele>
        <time>2015-02-02T19:20:28.660Z</time>
      </trkpt>
      <trkpt lat="48.85732" lon="2.34752">
        <ele>94.3</ele>
        <time>2015-02-02T19:20:29.603Z</time>
      </trkpt>
      <trkpt lat="48.85732" lon="2.34752">
        <ele>94.4</ele>
        <time>2015-02-02T19:20:59.636Z</time>
      </trkpt>
      <trkpt lat="48.85734" lon="2.3475">
        <ele>92.9</ele>
        <time>2015-02-02T19:21:00.652Z</time>
      </trkpt>
      <trkpt lat="48.85732" lon="2.34752">
        <ele>92.5</ele>
        <time>2015-02-02T19:21:22.632Z</time>
      </trkpt>
      <trkpt lat="48.85734" lon="2.34751">
        <ele>92.7</ele>
        <time>2015-02-02T19:21:23.664Z</time>
      </trkpt>
      <trkpt lat="48.85735" lon="2.34751">
        <ele>92.6</ele>
        <time>2015-02-02T19:21:24.565Z</time>
      </trkpt>
      <trkpt lat="48.85736" lon="2.3475">
        <ele>92.7</ele>
        <time>2015-02-02T19:21:25.565Z</time>
      </trkpt>
      <trkpt lat="48.85737" lon="2.34737">
        <ele>91.3</ele>
        <time>2015-02-02T19:21:29.639Z</time>
      </trkpt>
      <trkpt lat="48.85737" lon="2.34733">
        <ele>91.1</ele>
        <time>2015-02-02T19:21:30.641Z</time>
      </trkpt>
      <trkpt lat="48.85738" lon="2.34723">
        <ele>89.5</ele>
        <time>2015-02-02T19:21:34.634Z</time>
      </trkpt>
      <trkpt lat="48.85736" lon="2.34717">
        <ele>89.5</ele>
        <time>2015-02-02T19:21:35.642Z</time>
      </trkpt>
      <trkpt lat="48.85736" lon="2.34706">
        <ele>88.3</ele>
        <time>2015-02-02T19:21:39.610Z</time>
      </trkpt>
      <trkpt lat="48.85736" lon="2.34703">
        <ele>88</ele>
        <time>2015-02-02T19:21:40.630Z</time>
      </trkpt>
      <trkpt lat="48.85738" lon="2.3469">
        <ele>87.2</ele>
        <time>2015-02-02T19:21:46.606Z</time>
      </trkpt>
      <trkpt lat="48.85738" lon="2.34689">
        <ele>87.1</ele>
        <time>2015-02-02T19:21:47.610Z</time>
      </trkpt>
      <trkpt lat="48.85731" lon="2.34686">
        <ele>86.1</ele>
        <time>2015-02-02T19:21:52.619Z</time>
      </trkpt>
      <trkpt lat="48.85729" lon="2.34687">
        <ele>85.9</ele>
        <time>2015-02-02T19:21:53.623Z</time>
      </trkpt>
      <trkpt lat="48.85722" lon="2.34688">
        <ele>85.2</ele>
        <time>2015-02-02T19:21:56.539Z</time>
      </trkpt>
      <trkpt lat="48.85718" lon="2.34687">
        <ele>85.2</ele>
        <time>2015-02-02T19:21:57.574Z</time>
      </trkpt>
      <trkpt lat="48.85711" lon="2.34686">
        <ele>85.3</ele>
        <time>2015-02-02T19:21:59.567Z</time>
      </trkpt>
      <trkpt lat="48.85708" lon="2.34685">
        <ele>85.4</ele>
        <time>2015-02-02T19:22:00.572Z</time>
      </trkpt>
      <trkpt lat="48.85702" lon="2.34681">
        <ele>85.2</ele>
        <time>2015-02-02T19:22:02.597Z</time>
      </trkpt>
      <trkpt lat="48.857" lon="2.34679">
        <ele>84.9</ele>
        <time>2015-02-02T19:22:03.621Z</time>
      </trkpt>
      <trkpt lat="48.85693" lon="2.34674">
        <ele>84.5</ele>
        <time>2015-02-02T19:22:05.662Z</time>
      </trkpt>
      <trkpt lat="48.8569" lon="2.34672">
        <ele>84.3</ele>
        <time>2015-02-02T19:22:06.573Z</time>
      </trkpt>
      <trkpt lat="48.85683" lon="2.34669">
        <ele>84</ele>
        <time>2015-02-02T19:22:08.609Z</time>
      </trkpt>
      <trkpt lat="48.8568" lon="2.34667">
        <ele>83.9</ele>
        <time>2015-02-02T19:22:09.622Z</time>
      </trkpt>
      <trkpt lat="48.85673" lon="2.34663">
        <ele>83.5</ele>
        <time>2015-02-02T19:22:11.559Z</time>
      </trkpt>
      <trkpt lat="48.8567" lon="2.34661">
        <ele>83.4</ele>
        <time>2015-02-02T19:22:12.572Z</time>
      </trkpt>
      <trkpt lat="48.85664" lon="2.34658">
        <ele>83.4</ele>
        <time>2015-02-02T19:22:14.643Z</time>
      </trkpt>
      <trkpt lat="48.85661" lon="2.34656">
        <ele>83.3</ele>
        <time>2015-02-02T19:22:15.651Z</time>
      </trkpt>
      <trkpt lat="48.85653" lon="2.34652">
        <ele>83</ele>
        <time>2015-02-02T19:22:17.575Z</time>
      </trkpt>
      <trkpt lat="48.85649" lon="2.34651">
        <ele>83.1</ele>
        <time>2015-02-02T19:22:18.624Z</time>
      </trkpt>
      <trkpt lat="48.85642" lon="2.34647">
        <ele>83.1</ele>
        <time>2015-02-02T19:22:20.567Z</time>
      </trkpt>
      <trkpt lat="48.85638" lon="2.34645">
        <ele>83</ele>
        <time>2015-02-02T19:22:21.626Z</time>
      </trkpt>
      <trkpt lat="48.8563" lon="2.34641">
        <ele>83</ele>
        <time>2015-02-02T19:22:24.640Z</time>
      </trkpt>
      <trkpt lat="48.85629" lon="2.3464">
        <ele>82.9</ele>
        <time>2015-02-02T19:22:25.657Z</time>
      </trkpt>
      <trkpt lat="48.85632" lon="2.34628">
        <ele>82.5</ele>
        <time>2015-02-02T19:22:28.599Z</time>
      </trkpt>
      <trkpt lat="48.85635" lon="2.34623">
        <ele>82.4</ele>
        <time>2015-02-02T19:22:29.556Z</time>
      </trkpt>
      <trkpt lat="48.85638" lon="2.34617">
        <ele>82.4</ele>
        <time>2015-02-02T19:22:30.548Z</time>
      </trkpt>
      <trkpt lat="48.85651" lon="2.34588">
        <ele>82.5</ele>
        <time>2015-02-02T19:22:35.609Z</time>
      </trkpt>
      <trkpt lat="48.85653" lon="2.34581">
        <ele>82.4</ele>
        <time>2015-02-02T19:22:36.632Z</time>
      </trkpt>
      <trkpt lat="48.85655" lon="2.34574">
        <ele>82.4</ele>
        <time>2015-02-02T19:22:37.620Z</time>
      </trkpt>
      <trkpt lat="48.85657" lon="2.34567">
        <ele>82.4</ele>
        <time>2015-02-02T19:22:38.544Z</time>
      </trkpt>
      <trkpt lat="48.85657" lon="2.34559">
        <ele>82.3</ele>
        <time>2015-02-02T19:22:39.558Z</time>
      </trkpt>
      <trkpt lat="48.85658" lon="2.34551">
        <ele>82.2</ele>
        <time>2015-02-02T19:22:40.583Z</time>
      </trkpt>
      <trkpt lat="48.85659" lon="2.34543">
        <ele>82</ele>
        <time>2015-02-02T19:22:41.605Z</time>
      </trkpt>
      <trkpt lat="48.8566" lon="2.34535">
        <ele>81.9</ele>
        <time>2015-02-02T19:22:42.539Z</time>
      </trkpt>
      <trkpt lat="48.85662" lon="2.34527">
        <ele>81.6</ele>
        <time>2015-02-02T19:22:43.547Z</time>
      </trkpt>
      <trkpt lat="48.85664" lon="2.3452">
        <ele>81.4</ele>
        <time>2015-02-02T19:22:44.558Z</time>
      </trkpt>
      <trkpt lat="48.85665" lon="2.34512">
        <ele>81.5</ele>
        <time>2015-02-02T19:22:45.565Z</time>
      </trkpt>
      <trkpt lat="48.85667" lon="2.34505">
        <ele>81.5</ele>
        <time>2015-02-02T19:22:46.602Z</time>
      </trkpt>
      <trkpt lat="48.85668" lon="2.34498">
        <ele>81.6</ele>
        <time>2015-02-02T19:22:47.622Z</time>
      </trkpt>
      <trkpt lat="48.85669" lon="2.34491">
        <ele>81.8</ele>
        <time>2015-02-02T19:22:48.541Z</time>
      </trkpt>
      <trkpt lat="48.8567" lon="2.34484">
        <ele>81.8</ele>
        <time>2015-02-02T19:22:49.536Z</time>
      </trkpt>
      <trkpt lat="48.85671" lon="2.34477">
        <ele>81.7</ele>
        <time>2015-02-02T19:22:50.553Z</time>
      </trkpt>
      <trkpt lat="48.85672" lon="2.3447">
        <ele>81.8</ele>
        <time>2015-02-02T19:22:51.582Z</time>
      </trkpt>
      <trkpt lat="48.85675" lon="2.34458">
        <ele>81.8</ele>
        <time>2015-02-02T19:22:53.668Z</time>
      </trkpt>
      <trkpt lat="48.85676" lon="2.34452">
        <ele>81.7</ele>
        <time>2015-02-02T19:22:54.544Z</time>
      </trkpt>
      <trkpt lat="48.85679" lon="2.34441">
        <ele>81.6</ele>
        <time>2015-02-02T19:22:56.552Z</time>
      </trkpt>
      <trkpt lat="48.8568" lon="2.34435">
        <ele>81.6</ele>
        <time>2015-02-02T19:22:57.572Z</time>
      </trkpt>
      <trkpt lat="48.85682" lon="2.34422">
        <ele>81.4</ele>
        <time>2015-02-02T19:22:59.505Z</time>
      </trkpt>
      <trkpt lat="48.85683" lon="2.34416">
        <ele>81.4</ele>
        <time>2015-02-02T19:23:00.587Z</time>
      </trkpt>
      <trkpt lat="48.85686" lon="2.34405">
        <ele>81.3</ele>
        <time>2015-02-02T19:23:02.613Z</time>
      </trkpt>
      <trkpt lat="48.85687" lon="2.34398">
        <ele>81.2</ele>
        <time>2015-02-02T19:23:03.658Z</time>
      </trkpt>
      <trkpt lat="48.8569" lon="2.34386">
        <ele>81.2</ele>
        <time>2015-02-02T19:23:05.546Z</time>
      </trkpt>
      <trkpt lat="48.85691" lon="2.3438">
        <ele>81.1</ele>
        <time>2015-02-02T19:23:06.564Z</time>
      </trkpt>
      <trkpt lat="48.85693" lon="2.34368">
        <ele>80.8</ele>
        <time>2015-02-02T19:23:08.614Z</time>
      </trkpt>
      <trkpt lat="48.85694" lon="2.34363">
        <ele>80.7</ele>
        <time>2015-02-02T19:23:09.632Z</time>
      </trkpt>
      <trkpt lat="48.85694" lon="2.34352">
        <ele>80.2</ele>
        <time>2015-02-02T19:23:11.522Z</time>
      </trkpt>
      <trkpt lat="48.85694" lon="2.34348">
        <ele>80</ele>
        <time>2015-02-02T19:23:12.586Z</time>
      </trkpt>
      <trkpt lat="48.85687" lon="2.34339">
        <ele>79</ele>
        <time>2015-02-02T19:23:15.652Z</time>
      </trkpt>
      <trkpt lat="48.85684" lon="2.34337">
        <ele>78.8</ele>
        <time>2015-02-02T19:23:16.656Z</time>
      </trkpt>
      <trkpt lat="48.85678" lon="2.34332">
        <ele>78.6</ele>
        <time>2015-02-02T19:23:18.668Z</time>
      </trkpt>
      <trkpt lat="48.85675" lon="2.3433">
        <ele>78.4</ele>
        <time>2015-02-02T19:23:19.597Z</time>
      </trkpt>
      <trkpt lat="48.85668" lon="2.34325">
        <ele>77.7</ele>
        <time>2015-02-02T19:23:21.525Z</time>
      </trkpt>
      <trkpt lat="48.85664" lon="2.34323">
        <ele>77.5</ele>
        <time>2015-02-02T19:23:22.603Z</time>
      </trkpt>
      <trkpt lat="48.85657" lon="2.34318">
        <ele>77.5</ele>
        <time>2015-02-02T19:23:25.097Z</time>
      </trkpt>
      <trkpt lat="48.85654" lon="2.34316">
        <ele>77.6</ele>
        <time>2015-02-02T19:23:25.674Z</time>
      </trkpt>
      <trkpt lat="48.85647" lon="2.34312">
        <ele>77.3</ele>
        <time>2015-02-02T19:23:27.546Z</time>
      </trkpt>
      <trkpt lat="48.85643" lon="2.3431">
        <ele>77.3</ele>
        <time>2015-02-02T19:23:28.635Z</time>
      </trkpt>
      <trkpt lat="48.85635" lon="2.34306">
        <ele>77.3</ele>
        <time>2015-02-02T19:23:31.285Z</time>
      </trkpt>
      <trkpt lat="48.85632" lon="2.34304">
        <ele>77.2</ele>
        <time>2015-02-02T19:23:31.584Z</time>
      </trkpt>
      <trkpt lat="48.85624" lon="2.343">
        <ele>77.1</ele>
        <time>2015-02-02T19:23:33.607Z</time>
      </trkpt>
      <trkpt lat="48.8562" lon="2.34299">
        <ele>77.1</ele>
        <time>2015-02-02T19:23:34.625Z</time>
      </trkpt>
      <trkpt lat="48.85613" lon="2.34295">
        <ele>77.2</ele>
        <time>2015-02-02T19:23:36.525Z</time>
      </trkpt>
      <trkpt lat="48.8561" lon="2.34293">
        <ele>77.3</ele>
        <time>2015-02-02T19:23:37.552Z</time>
      </trkpt>
      <trkpt lat="48.85603" lon="2.34291">
        <ele>77.3</ele>
        <time>2015-02-02T19:23:40.248Z</time>
      </trkpt>
      <trkpt lat="48.856" lon="2.3429">
        <ele>77.3</ele>
        <time>2015-02-02T19:23:40.665Z</time>
      </trkpt>
      <trkpt lat="48.85591" lon="2.34286">
        <ele>77.4</ele>
        <time>2015-02-02T19:23:43.583Z</time>
      </trkpt>
      <trkpt lat="48.85589" lon="2.34284">
        <ele>77.4</ele>
        <time>2015-02-02T19:23:44.696Z</time>
      </trkpt>
      <trkpt lat="48.85584" lon="2.34274">
        <ele>77.5</ele>
        <time>2015-02-02T19:23:46.590Z</time>
      </trkpt>
      <trkpt lat="48.85582" lon="2.34268">
        <ele>77.3</ele>
        <time>2015-02-02T19:23:47.599Z</time>
      </trkpt>
      <trkpt lat="48.85584" lon="2.34257">
        <ele>76.8</ele>
        <time>2015-02-02T19:23:49.558Z</time>
      </trkpt>
      <trkpt lat="48.85586" lon="2.34252">
        <ele>76.5</ele>
        <time>2015-02-02T19:23:50.602Z</time>
      </trkpt>
      <trkpt lat="48.85591" lon="2.34244">
        <ele>75.8</ele>
        <time>2015-02-02T19:23:52.979Z</time>
      </trkpt>
      <trkpt lat="48.85594" lon="2.34241">
        <ele>75.9</ele>
        <time>2015-02-02T19:23:53.543Z</time>
      </trkpt>
      <trkpt lat="48.856" lon="2.34233">
        <ele>75.7</ele>
        <time>2015-02-02T19:23:55.563Z</time>
      </trkpt>
      <trkpt lat="48.85603" lon="2.3423">
        <ele>75.7</ele>
        <time>2015-02-02T19:23:56.576Z</time>
      </trkpt>
      <trkpt lat="48.85609" lon="2.34223">
        <ele>75.6</ele>
        <time>2015-02-02T19:23:58.594Z</time>
      </trkpt>
      <trkpt lat="48.85613" lon="2.34219">
        <ele>75.6</ele>
        <time>2015-02-02T19:23:59.609Z</time>
      </trkpt>
      <trkpt lat="48.85619" lon="2.34211">
        <ele>75.4</ele>
        <time>2015-02-02T19:24:01.634Z</time>
      </trkpt>
      <trkpt lat="48.85622" lon="2.34207">
        <ele>75.4</ele>
        <time>2015-02-02T19:24:02.634Z</time>
      </trkpt>
      <trkpt lat="48.85629" lon="2.34198">
        <ele>75</ele>
        <time>2015-02-02T19:24:04.648Z</time>
      </trkpt>
      <trkpt lat="48.85632" lon="2.34195">
        <ele>75</ele>
        <time>2015-02-02T19:24:05.703Z</time>
      </trkpt>
      <trkpt lat="48.85637" lon="2.34188">
        <ele>75.1</ele>
        <time>2015-02-02T19:24:08.085Z</time>
      </trkpt>
      <trkpt lat="48.8564" lon="2.34184">
        <ele>75</ele>
        <time>2015-02-02T19:24:08.551Z</time>
      </trkpt>
      <trkpt lat="48.85646" lon="2.34177">
        <ele>75.1</ele>
        <time>2015-02-02T19:24:10.572Z</time>
      </trkpt>
      <trkpt lat="48.85648" lon="2.34173">
        <ele>75.4</ele>
        <time>2015-02-02T19:24:11.638Z</time>
      </trkpt>
      <trkpt lat="48.85656" lon="2.34166">
        <ele>75.9</ele>
        <time>2015-02-02T19:24:14.594Z</time>
      </trkpt>
      <trkpt lat="48.85659" lon="2.34164">
        <ele>76.1</ele>
        <time>2015-02-02T19:24:15.672Z</time>
      </trkpt>
      <trkpt lat="48.85665" lon="2.34158">
        <ele>75.9</ele>
        <time>2015-02-02T19:24:18.579Z</time>
      </trkpt>
      <trkpt lat="48.85667" lon="2.34157">
        <ele>75.6</ele>
        <time>2015-02-02T19:24:19.547Z</time>
      </trkpt>
      <trkpt lat="48.85672" lon="2.34147">
        <ele>75.9</ele>
        <time>2015-02-02T19:24:23.322Z</time>
      </trkpt>
      <trkpt lat="48.85673" lon="2.34145">
        <ele>75.8</ele>
        <time>2015-02-02T19:24:23.554Z</time>
      </trkpt>
      <trkpt lat="48.85678" lon="2.34133">
        <ele>75.7</ele>
        <time>2015-02-02T19:24:27.594Z</time>
      </trkpt>
      <trkpt lat="48.85679" lon="2.3413">
        <ele>75.8</ele>
        <time>2015-02-02T19:24:28.598Z</time>
      </trkpt>
      <trkpt lat="48.85676" lon="2.3412">
        <ele>75.8</ele>
        <time>2015-02-02T19:24:33.520Z</time>
      </trkpt>
      <trkpt lat="48.85674" lon="2.34118">
        <ele>75.9</ele>
        <time>2015-02-02T19:24:33.580Z</time>
      </trkpt>
      <trkpt lat="48.85668" lon="2.34112">
        <ele>75.9</ele>
        <time>2015-02-02T19:24:36.592Z</time>
      </trkpt>
      <trkpt lat="48.85666" lon="2.3411">
        <ele>76.1</ele>
        <time>2015-02-02T19:24:37.615Z</time>
      </trkpt>
      <trkpt lat="48.85659" lon="2.34105">
        <ele>76.8</ele>
        <time>2015-02-02T19:24:40.649Z</time>
      </trkpt>
      <trkpt lat="48.85656" lon="2.34103">
        <ele>77</ele>
        <time>2015-02-02T19:24:41.661Z</time>
      </trkpt>
      <trkpt lat="48.85649" lon="2.34096">
        <ele>77.3</ele>
        <time>2015-02-02T19:24:44.602Z</time>
      </trkpt>
      <trkpt lat="48.85646" lon="2.34094">
        <ele>77.2</ele>
        <time>2015-02-02T19:24:45.616Z</time>
      </trkpt>
      <trkpt lat="48.85641" lon="2.34089">
        <ele>77.2</ele>
        <time>2015-02-02T19:24:47.564Z</time>
      </trkpt>
      <trkpt lat="48.85638" lon="2.34087">
        <ele>77.3</ele>
        <time>2015-02-02T19:24:48.594Z</time>
      </trkpt>
      <trkpt lat="48.85632" lon="2.34081">
        <ele>77.6</ele>
        <time>2015-02-02T19:24:50.567Z</time>
      </trkpt>
      <trkpt lat="48.85629" lon="2.34079">
        <ele>78</ele>
        <time>2015-02-02T19:24:51.564Z</time>
      </trkpt>
      <trkpt lat="48.85622" lon="2.34073">
        <ele>78.6</ele>
        <time>2015-02-02T19:24:54.530Z</time>
      </trkpt>
      <trkpt lat="48.8562" lon="2.34072">
        <ele>78.8</ele>
        <time>2015-02-02T19:24:55.556Z</time>
      </trkpt>
      <trkpt lat="48.85613" lon="2.34066">
        <ele>79.4</ele>
        <time>2015-02-02T19:24:59.664Z</time>
      </trkpt>
      <trkpt lat="48.85611" lon="2.34063">
        <ele>79.6</ele>
        <time>2015-02-02T19:25:00.566Z</time>
      </trkpt>
      <trkpt lat="48.85607" lon="2.34056">
        <ele>80.3</ele>
        <time>2015-02-02T19:25:06.571Z</time>
      </trkpt>
      <trkpt lat="48.85607" lon="2.34055">
        <ele>80.4</ele>
        <time>2015-02-02T19:25:07.565Z</time>
      </trkpt>
      <trkpt lat="48.85607" lon="2.34055">
        <ele>80.4</ele>
        <time>2015-02-02T19:25:08.538Z</time>
      </trkpt>
      <trkpt lat="48.85607" lon="2.34053">
        <ele>80.3</ele>
        <time>2015-02-02T19:25:08.587Z</time>
      </trkpt>
      <trkpt lat="48.85607" lon="2.34051">
        <ele>80.6</ele>
        <time>2015-02-02T19:25:10.778Z</time>
      </trkpt>
      <trkpt lat="48.85607" lon="2.3405">
        <ele>80.7</ele>
        <time>2015-02-02T19:25:11.516Z</time>
      </trkpt>
      <trkpt lat="48.85607" lon="2.34049">
        <ele>81</ele>
        <time>2015-02-02T19:25:13.645Z</time>
      </trkpt>
      <trkpt lat="48.85606" lon="2.34046">
        <ele>81.8</ele>
        <time>2015-02-02T19:25:14.543Z</time>
      </trkpt>
      <trkpt lat="48.8561" lon="2.34036">
        <ele>82.3</ele>
        <time>2015-02-02T19:25:18.498Z</time>
      </trkpt>
      <trkpt lat="48.85612" lon="2.34033">
        <ele>82.3</ele>
        <time>2015-02-02T19:25:19.560Z</time>
      </trkpt>
      <trkpt lat="48.85615" lon="2.34022">
        <ele>82.2</ele>
        <time>2015-02-02T19:25:21.581Z</time>
      </trkpt>
      <trkpt lat="48.85617" lon="2.34017">
        <ele>82.4</ele>
        <time>2015-02-02T19:25:22.597Z</time>
      </trkpt>
      <trkpt lat="48.85528" lon="2.33877">
        <ele>74.8</ele>
        <time>2015-02-02T19:26:22.691Z</time>
      </trkpt>
      <trkpt lat="48.85528" lon="2.33877">
        <ele>74.8</ele>
        <time>2015-02-02T19:26:25.571Z</time>
      </trkpt>
      <trkpt lat="48.85521" lon="2.33897">
        <ele>71.7</ele>
        <time>2015-02-02T19:26:26.565Z</time>
      </trkpt>
      <trkpt lat="48.85518" lon="2.33902">
        <ele>71.9</ele>
        <time>2015-02-02T19:26:27.575Z</time>
      </trkpt>
      <trkpt lat="48.85299" lon="2.34082">
        <ele>81.2</ele>
        <time>2015-02-02T19:27:53.571Z</time>
      </trkpt>
      <trkpt lat="48.85293" lon="2.34083">
        <ele>80.8</ele>
        <time>2015-02-02T19:27:55.629Z</time>
      </trkpt>
      <trkpt lat="48.85289" lon="2.34083">
        <ele>80.6</ele>
        <time>2015-02-02T19:27:56.538Z</time>
      </trkpt>
      <trkpt lat="48.85282" lon="2.34082">
        <ele>80.5</ele>
        <time>2015-02-02T19:27:58.591Z</time>
      </trkpt>
      <trkpt lat="48.85279" lon="2.34082">
        <ele>80.4</ele>
        <time>2015-02-02T19:27:59.621Z</time>
      </trkpt>
      <trkpt lat="48.85272" lon="2.34076">
        <ele>79.3</ele>
        <time>2015-02-02T19:28:03.221Z</time>
      </trkpt>
      <trkpt lat="48.85268" lon="2.34074">
        <ele>79.1</ele>
        <time>2015-02-02T19:28:03.562Z</time>
      </trkpt>
      <trkpt lat="48.85265" lon="2.34073">
        <ele>78.9</ele>
        <time>2015-02-02T19:28:04.592Z</time>
      </trkpt>
      <trkpt lat="48.85221" lon="2.34056">
        <ele>81</ele>
        <time>2015-02-02T19:28:17.562Z</time>
      </trkpt>
      <trkpt lat="48.85216" lon="2.3405">
        <ele>81.4</ele>
        <time>2015-02-02T19:28:19.627Z</time>
      </trkpt>
      <trkpt lat="48.85212" lon="2.34036">
        <ele>83.3</ele>
        <time>2015-02-02T19:28:20.534Z</time>
      </trkpt>
      <trkpt lat="48.85207" lon="2.34025">
        <ele>86.8</ele>
        <time>2015-02-02T19:28:23.562Z</time>
      </trkpt>
      <trkpt lat="48.85207" lon="2.34023">
        <ele>87</ele>
        <time>2015-02-02T19:28:24.512Z</time>
      </trkpt>
      <trkpt lat="48.85207" lon="2.3401">
        <ele>85.3</ele>
        <time>2015-02-02T19:28:27.547Z</time>
      </trkpt>
      <trkpt lat="48.85206" lon="2.34006">
        <ele>85.1</ele>
        <time>2015-02-02T19:28:28.587Z</time>
      </trkpt>
      <trkpt lat="48.85205" lon="2.33993">
        <ele>85.2</ele>
        <time>2015-02-02T19:28:31.624Z</time>
      </trkpt>
      <trkpt lat="48.85205" lon="2.33989">
        <ele>85.9</ele>
        <time>2015-02-02T19:28:32.540Z</time>
      </trkpt>
      <trkpt lat="48.85201" lon="2.33978">
        <ele>88.7</ele>
        <time>2015-02-02T19:28:34.573Z</time>
      </trkpt>
      <trkpt lat="48.85195" lon="2.33976">
        <ele>87.8</ele>
        <time>2015-02-02T19:28:35.614Z</time>
      </trkpt>
      <trkpt lat="48.85188" lon="2.33972">
        <ele>87.5</ele>
        <time>2015-02-02T19:28:37.542Z</time>
      </trkpt>
      <trkpt lat="48.85185" lon="2.3397">
        <ele>87.5</ele>
        <time>2015-02-02T19:28:38.547Z</time>
      </trkpt>
      <trkpt lat="48.85179" lon="2.33963">
        <ele>87.3</ele>
        <time>2015-02-02T19:28:41.609Z</time>
      </trkpt>
      <trkpt lat="48.85178" lon="2.33962">
        <ele>87.2</ele>
        <time>2015-02-02T19:28:42.622Z</time>
      </trkpt>
      <trkpt lat="48.8517" lon="2.33961">
        <ele>87.4</ele>
        <time>2015-02-02T19:28:48.008Z</time>
      </trkpt>
      <trkpt lat="48.85167" lon="2.33961">
        <ele>87.1</ele>
        <time>2015-02-02T19:28:48.559Z</time>
      </trkpt>
      <trkpt lat="48.85159" lon="2.33962">
        <ele>87.4</ele>
        <time>2015-02-02T19:28:53.127Z</time>
      </trkpt>
      <trkpt lat="48.85157" lon="2.33964">
        <ele>87.6</ele>
        <time>2015-02-02T19:28:53.590Z</time>
      </trkpt>
      <trkpt lat="48.85149" lon="2.33972">
        <ele>88.1</ele>
        <time>2015-02-02T19:28:58.146Z</time>
      </trkpt>
      <trkpt lat="48.85146" lon="2.3398">
        <ele>88.6</ele>
        <time>2015-02-02T19:29:00.533Z</time>
      </trkpt>
      <trkpt lat="48.85141" lon="2.3399">
        <ele>88.7</ele>
        <time>2015-02-02T19:29:03.550Z</time>
      </trkpt>
      <trkpt lat="48.85139" lon="2.33993">
        <ele>88.5</ele>
        <time>2015-02-02T19:29:04.576Z</time>
      </trkpt>
      <trkpt lat="48.85133" lon="2.34">
        <ele>88.4</ele>
        <time>2015-02-02T19:29:08.238Z</time>
      </trkpt>
      <trkpt lat="48.85132" lon="2.34003">
        <ele>88.4</ele>
        <time>2015-02-02T19:29:08.608Z</time>
      </trkpt>
      <trkpt lat="48.85131" lon="2.34006">
        <ele>88.5</ele>
        <time>2015-02-02T19:29:09.543Z</time>
      </trkpt>
      <trkpt lat="48.85127" lon="2.34017">
        <ele>89.2</ele>
        <time>2015-02-02T19:29:10.629Z</time>
      </trkpt>
      <trkpt lat="48.85124" lon="2.34029">
        <ele>89.4</ele>
        <time>2015-02-02T19:29:13.314Z</time>
      </trkpt>
      <trkpt lat="48.85122" lon="2.34035">
        <ele>89.6</ele>
        <time>2015-02-02T19:29:13.499Z</time>
      </trkpt>
      <trkpt lat="48.8512" lon="2.34042">
        <ele>89.8</ele>
        <time>2015-02-02T19:29:14.520Z</time>
      </trkpt>
      <trkpt lat="48.85116" lon="2.34052">
        <ele>90.4</ele>
        <time>2015-02-02T19:29:15.576Z</time>
      </trkpt>
      <trkpt lat="48.85112" lon="2.34062">
        <ele>90.9</ele>
        <time>2015-02-02T19:29:16.578Z</time>
      </trkpt>
      <trkpt lat="48.85109" lon="2.34076">
        <ele>90.4</ele>
        <time>2015-02-02T19:29:17.584Z</time>
      </trkpt>
      <trkpt lat="48.85107" lon="2.34087">
        <ele>90.1</ele>
        <time>2015-02-02T19:29:18.598Z</time>
      </trkpt>
      <trkpt lat="48.85106" lon="2.34094">
        <ele>89.9</ele>
        <time>2015-02-02T19:29:19.611Z</time>
      </trkpt>
      <trkpt lat="48.85104" lon="2.34107">
        <ele>89.9</ele>
        <time>2015-02-02T19:29:21.540Z</time>
      </trkpt>
      <trkpt lat="48.85102" lon="2.34116">
        <ele>90.1</ele>
        <time>2015-02-02T19:29:22.589Z</time>
      </trkpt>
      <trkpt lat="48.85096" lon="2.34122">
        <ele>90.8</ele>
        <time>2015-02-02T19:29:26.600Z</time>
      </trkpt>
      <trkpt lat="48.85093" lon="2.34127">
        <ele>91.8</ele>
        <time>2015-02-02T19:29:27.633Z</time>
      </trkpt>
      <trkpt lat="48.85085" lon="2.34129">
        <ele>92.7</ele>
        <time>2015-02-02T19:29:33.679Z</time>
      </trkpt>
      <trkpt lat="48.85083" lon="2.34131">
        <ele>92.8</ele>
        <time>2015-02-02T19:29:34.561Z</time>
      </trkpt>
      <trkpt lat="48.85076" lon="2.34138">
        <ele>91.9</ele>
        <time>2015-02-02T19:29:37.620Z</time>
      </trkpt>
      <trkpt lat="48.85075" lon="2.3414">
        <ele>92</ele>
        <time>2015-02-02T19:29:38.533Z</time>
      </trkpt>
      <trkpt lat="48.85074" lon="2.34152">
        <ele>92.3</ele>
        <time>2015-02-02T19:29:44.619Z</time>
      </trkpt>
      <trkpt lat="48.85074" lon="2.34155">
        <ele>92.4</ele>
        <time>2015-02-02T19:29:45.627Z</time>
      </trkpt>
      <trkpt lat="48.85071" lon="2.34167">
        <ele>92.8</ele>
        <time>2015-02-02T19:29:48.536Z</time>
      </trkpt>
      <trkpt lat="48.85068" lon="2.34171">
        <ele>92.5</ele>
        <time>2015-02-02T19:29:49.542Z</time>
      </trkpt>
      <trkpt lat="48.85069" lon="2.34185">
        <ele>92.8</ele>
        <time>2015-02-02T19:29:54.582Z</time>
      </trkpt>
      <trkpt lat="48.85069" lon="2.34187">
        <ele>92.9</ele>
        <time>2015-02-02T19:29:55.590Z</time>
      </trkpt>
      <trkpt lat="48.85066" lon="2.34195">
        <ele>92.9</ele>
        <time>2015-02-02T19:29:58.612Z</time>
      </trkpt>
      <trkpt lat="48.85063" lon="2.34199">
        <ele>92.8</ele>
        <time>2015-02-02T19:29:59.614Z</time>
      </trkpt>
      <trkpt lat="48.85061" lon="2.34207">
        <ele>92.5</ele>
        <time>2015-02-02T19:30:01.550Z</time>
      </trkpt>
      <trkpt lat="48.8506" lon="2.34213">
        <ele>91.5</ele>
        <time>2015-02-02T19:30:02.567Z</time>
      </trkpt>
      <trkpt lat="48.85052" lon="2.34216">
        <ele>90.9</ele>
        <time>2015-02-02T19:30:04.619Z</time>
      </trkpt>
      <trkpt lat="48.85049" lon="2.3422">
        <ele>90.3</ele>
        <time>2015-02-02T19:30:05.522Z</time>
      </trkpt>
      <trkpt lat="48.85043" lon="2.34227">
        <ele>88.9</ele>
        <time>2015-02-02T19:30:08.481Z</time>
      </trkpt>
      <trkpt lat="48.8504" lon="2.34232">
        <ele>87.7</ele>
        <time>2015-02-02T19:30:08.570Z</time>
      </trkpt>
      <trkpt lat="48.85034" lon="2.34239">
        <ele>86.8</ele>
        <time>2015-02-02T19:30:10.622Z</time>
      </trkpt>
      <trkpt lat="48.85032" lon="2.34242">
        <ele>86.5</ele>
        <time>2015-02-02T19:30:11.544Z</time>
      </trkpt>
      <trkpt lat="48.85029" lon="2.34252">
        <ele>86.5</ele>
        <time>2015-02-02T19:30:14.577Z</time>
      </trkpt>
      <trkpt lat="48.85028" lon="2.34255">
        <ele>86.9</ele>
        <time>2015-02-02T19:30:15.608Z</time>
      </trkpt>
      <trkpt lat="48.85022" lon="2.34264">
        <ele>88.6</ele>
        <time>2015-02-02T19:30:19.601Z</time>
      </trkpt>
      <trkpt lat="48.8502" lon="2.34267">
        <ele>88.9</ele>
        <time>2015-02-02T19:30:20.609Z</time>
      </trkpt>
      <trkpt lat="48.85017" lon="2.34275">
        <ele>89.6</ele>
        <time>2015-02-02T19:30:22.624Z</time>
      </trkpt>
      <trkpt lat="48.85016" lon="2.3428">
        <ele>90</ele>
        <time>2015-02-02T19:30:23.652Z</time>
      </trkpt>
      <trkpt lat="48.85011" lon="2.34289">
        <ele>91.6</ele>
        <time>2015-02-02T19:30:28.972Z</time>
      </trkpt>
      <trkpt lat="48.84884" lon="2.34251">
        <ele>89.8</ele>
        <time>2015-02-02T19:31:06.526Z</time>
      </trkpt>
      <trkpt lat="48.84878" lon="2.34241">
        <ele>91.2</ele>
        <time>2015-02-02T19:31:08.402Z</time>
      </trkpt>
      <trkpt lat="48.84871" lon="2.34224">
        <ele>95.8</ele>
        <time>2015-02-02T19:31:08.540Z</time>
      </trkpt>
      <trkpt lat="48.84865" lon="2.34219">
        <ele>100</ele>
        <time>2015-02-02T19:31:09.550Z</time>
      </trkpt>
      <trkpt lat="48.84862" lon="2.34216">
        <ele>102.9</ele>
        <time>2015-02-02T19:31:10.564Z</time>
      </trkpt>
      <trkpt lat="48.84856" lon="2.34224">
        <ele>108.5</ele>
        <time>2015-02-02T19:31:14.582Z</time>
      </trkpt>
      <trkpt lat="48.84855" lon="2.34225">
        <ele>110.2</ele>
        <time>2015-02-02T19:31:15.593Z</time>
      </trkpt>
      <trkpt lat="48.84853" lon="2.34236">
        <ele>117.8</ele>
        <time>2015-02-02T19:31:19.562Z</time>
      </trkpt>
      <trkpt lat="48.84852" lon="2.34239">
        <ele>119.4</ele>
        <time>2015-02-02T19:31:20.559Z</time>
      </trkpt>
      <trkpt lat="48.84849" lon="2.34251">
        <ele>123.9</ele>
        <time>2015-02-02T19:31:31.617Z</time>
      </trkpt>
      <trkpt lat="48.84849" lon="2.34252">
        <ele>123.8</ele>
        <time>2015-02-02T19:31:32.541Z</time>
      </trkpt>
      <trkpt lat="48.84841" lon="2.34254">
        <ele>120.1</ele>
        <time>2015-02-02T19:31:46.589Z</time>
      </trkpt>
      <trkpt lat="48.84838" lon="2.34253">
        <ele>119.5</ele>
        <time>2015-02-02T19:31:47.598Z</time>
      </trkpt>
      <trkpt lat="48.84831" lon="2.34248">
        <ele>118.5</ele>
        <time>2015-02-02T19:31:50.536Z</time>
      </trkpt>
      <trkpt lat="48.84829" lon="2.34246">
        <ele>118.4</ele>
        <time>2015-02-02T19:31:51.539Z</time>
      </trkpt>
      <trkpt lat="48.84822" lon="2.34244">
        <ele>118</ele>
        <time>2015-02-02T19:31:54.595Z</time>
      </trkpt>
      <trkpt lat="48.84819" lon="2.34244">
        <ele>118</ele>
        <time>2015-02-02T19:31:55.567Z</time>
      </trkpt>
      <trkpt lat="48.84812" lon="2.34241">
        <ele>118.1</ele>
        <time>2015-02-02T19:31:58.658Z</time>
      </trkpt>
      <trkpt lat="48.8481" lon="2.34241">
        <ele>117.7</ele>
        <time>2015-02-02T19:31:59.507Z</time>
      </trkpt>
      <trkpt lat="48.84803" lon="2.34232">
        <ele>118.6</ele>
        <time>2015-02-02T19:32:06.517Z</time>
      </trkpt>
      <trkpt lat="48.84803" lon="2.34231">
        <ele>118.8</ele>
        <time>2015-02-02T19:32:07.525Z</time>
      </trkpt>
      <trkpt lat="48.84796" lon="2.34225">
        <ele>119</ele>
        <time>2015-02-02T19:32:13.482Z</time>
      </trkpt>
      <trkpt lat="48.84794" lon="2.34224">
        <ele>118.8</ele>
        <time>2015-02-02T19:32:13.544Z</time>
      </trkpt>
      <trkpt lat="48.84787" lon="2.34216">
        <ele>118.7</ele>
        <time>2015-02-02T19:32:18.598Z</time>
      </trkpt>
      <trkpt lat="48.84785" lon="2.34212">
        <ele>119</ele>
        <time>2015-02-02T19:32:18.647Z</time>
      </trkpt>
      <trkpt lat="48.84777" lon="2.34206">
        <ele>119</ele>
        <time>2015-02-02T19:32:22.574Z</time>
      </trkpt>
      <trkpt lat="48.84775" lon="2.34205">
        <ele>118.8</ele>
        <time>2015-02-02T19:32:23.575Z</time>
      </trkpt>
      <trkpt lat="48.84768" lon="2.34203">
        <ele>117.6</ele>
        <time>2015-02-02T19:32:25.886Z</time>
      </trkpt>
      <trkpt lat="48.84761" lon="2.34205">
        <ele>115.8</ele>
        <time>2015-02-02T19:32:26.600Z</time>
      </trkpt>
      <trkpt lat="48.84756" lon="2.34206">
        <ele>115.1</ele>
        <time>2015-02-02T19:32:27.508Z</time>
      </trkpt>
      <trkpt lat="48.84749" lon="2.34209">
        <ele>113.6</ele>
        <time>2015-02-02T19:32:28.623Z</time>
      </trkpt>
      <trkpt lat="48.84741" lon="2.34209">
        <ele>113.5</ele>
        <time>2015-02-02T19:32:29.523Z</time>
      </trkpt>
      <trkpt lat="48.84736" lon="2.34205">
        <ele>114.6</ele>
        <time>2015-02-02T19:32:30.524Z</time>
      </trkpt>
      <trkpt lat="48.84732" lon="2.34199">
        <ele>116.3</ele>
        <time>2015-02-02T19:32:31.547Z</time>
      </trkpt>
      <trkpt lat="48.84728" lon="2.34193">
        <ele>118.5</ele>
        <time>2015-02-02T19:32:32.563Z</time>
      </trkpt>
      <trkpt lat="48.84726" lon="2.34187">
        <ele>120.8</ele>
        <time>2015-02-02T19:32:37.634Z</time>
      </trkpt>
      <trkpt lat="48.84726" lon="2.34187">
        <ele>121.2</ele>
        <time>2015-02-02T19:32:38.659Z</time>
      </trkpt>
      <trkpt lat="48.84726" lon="2.34187">
        <ele>121.2</ele>
        <time>2015-02-02T19:32:39.115Z</time>
      </trkpt>
      <trkpt lat="48.84725" lon="2.34187">
        <ele>121.9</ele>
        <time>2015-02-02T19:32:39.575Z</time>
      </trkpt>
      <trkpt lat="48.84724" lon="2.34186">
        <ele>126.5</ele>
        <time>2015-02-02T19:32:48.012Z</time>
      </trkpt>
      <trkpt lat="48.84713" lon="2.34174">
        <ele>125.4</ele>
        <time>2015-02-02T19:32:52.621Z</time>
      </trkpt>
      <trkpt lat="48.84707" lon="2.34172">
        <ele>125</ele>
        <time>2015-02-02T19:32:54.571Z</time>
      </trkpt>
      <trkpt lat="48.84704" lon="2.34171">
        <ele>125</ele>
        <time>2015-02-02T19:32:55.580Z</time>
      </trkpt>
      <trkpt lat="48.84698" lon="2.34162">
        <ele>124.6</ele>
        <time>2015-02-02T19:32:58.639Z</time>
      </trkpt>
      <trkpt lat="48.84697" lon="2.3416">
        <ele>124.5</ele>
        <time>2015-02-02T19:32:59.541Z</time>
      </trkpt>
      <trkpt lat="48.84692" lon="2.34169">
        <ele>124.5</ele>
        <time>2015-02-02T19:33:08.209Z</time>
      </trkpt>
      <trkpt lat="48.8469" lon="2.34174">
        <ele>124.7</ele>
        <time>2015-02-02T19:33:08.629Z</time>
      </trkpt>
      <trkpt lat="48.84684" lon="2.34183">
        <ele>124.6</ele>
        <time>2015-02-02T19:33:13.569Z</time>
      </trkpt>
      <trkpt lat="48.84683" lon="2.34184">
        <ele>124.5</ele>
        <time>2015-02-02T19:33:14.613Z</time>
      </trkpt>
      <trkpt lat="48.84677" lon="2.34191">
        <ele>124.7</ele>
        <time>2015-02-02T19:33:20.554Z</time>
      </trkpt>
      <trkpt lat="48.84676" lon="2.34193">
        <ele>124.7</ele>
        <time>2015-02-02T19:33:21.565Z</time>
      </trkpt>
      <trkpt lat="48.84672" lon="2.34204">
        <ele>124.9</ele>
        <time>2015-02-02T19:33:28.592Z</time>
      </trkpt>
      <trkpt lat="48.84671" lon="2.34206">
        <ele>125</ele>
        <time>2015-02-02T19:33:29.612Z</time>
      </trkpt>
      <trkpt lat="48.84668" lon="2.34215">
        <ele>124</ele>
        <time>2015-02-02T19:33:33.542Z</time>
      </trkpt>
      <trkpt lat="48.84665" lon="2.34218">
        <ele>123.4</ele>
        <time>2015-02-02T19:33:33.584Z</time>
      </trkpt>
      <trkpt lat="48.8466" lon="2.34227">
        <ele>122.3</ele>
        <time>2015-02-02T19:33:35.608Z</time>
      </trkpt>
      <trkpt lat="48.84659" lon="2.34229">
        <ele>122.4</ele>
        <time>2015-02-02T19:33:36.640Z</time>
      </trkpt>
      <trkpt lat="48.84655" lon="2.3424">
        <ele>124.1</ele>
        <time>2015-02-02T19:33:44.617Z</time>
      </trkpt>
      <trkpt lat="48.84654" lon="2.34241">
        <ele>124.1</ele>
        <time>2015-02-02T19:33:45.636Z</time>
      </trkpt>
      <trkpt lat="48.84653" lon="2.34242">
        <ele>124.1</ele>
        <time>2015-02-02T19:33:46.646Z</time>
      </trkpt>
      <trkpt lat="48.84653" lon="2.34242">
        <ele>124.2</ele>
        <time>2015-02-02T19:33:47.534Z</time>
      </trkpt>
      <trkpt lat="48.84653" lon="2.34242">
        <ele>124.2</ele>
        <time>2015-02-02T19:33:48.164Z</time>
      </trkpt>
      <trkpt lat="48.84653" lon="2.34243">
        <ele>124.3</ele>
        <time>2015-02-02T19:33:48.546Z</time>
      </trkpt>
      <trkpt lat="48.84647" lon="2.34251">
        <ele>124.6</ele>
        <time>2015-02-02T19:33:53.202Z</time>
      </trkpt>
      <trkpt lat="48.84646" lon="2.34253">
        <ele>124.7</ele>
        <time>2015-02-02T19:33:53.630Z</time>
      </trkpt>
      <trkpt lat="48.8464" lon="2.34262">
        <ele>124.7</ele>
        <time>2015-02-02T19:33:58.289Z</time>
      </trkpt>
      <trkpt lat="48.84637" lon="2.34265">
        <ele>124.2</ele>
        <time>2015-02-02T19:33:58.580Z</time>
      </trkpt>
      <trkpt lat="48.84631" lon="2.3427">
        <ele>122.6</ele>
        <time>2015-02-02T19:33:59.585Z</time>
      </trkpt>
      <trkpt lat="48.84627" lon="2.34273">
        <ele>121.8</ele>
        <time>2015-02-02T19:34:00.512Z</time>
      </trkpt>
      <trkpt lat="48.84623" lon="2.34285">
        <ele>121.5</ele>
        <time>2015-02-02T19:34:06.529Z</time>
      </trkpt>
      <trkpt lat="48.84623" lon="2.34286">
        <ele>121.2</ele>
        <time>2015-02-02T19:34:07.541Z</time>
      </trkpt>
      <trkpt lat="48.84623" lon="2.34287">
        <ele>121</ele>
        <time>2015-02-02T19:34:08.553Z</time>
      </trkpt>
      <trkpt lat="48.84623" lon="2.34286">
        <ele>121</ele>
        <time>2015-02-02T19:34:09.577Z</time>
      </trkpt>
      <trkpt lat="48.84623" lon="2.34286">
        <ele>121</ele>
        <time>2015-02-02T19:34:10.580Z</time>
      </trkpt>
      <trkpt lat="48.84623" lon="2.34285">
        <ele>121</ele>
        <time>2015-02-02T19:34:11.592Z</time>
      </trkpt>
      <trkpt lat="48.84623" lon="2.34285">
        <ele>121.1</ele>
        <time>2015-02-02T19:34:12.606Z</time>
      </trkpt>
      <trkpt lat="48.84623" lon="2.34286">
        <ele>120.9</ele>
        <time>2015-02-02T19:34:13.503Z</time>
      </trkpt>
      <trkpt lat="48.84623" lon="2.34287">
        <ele>120.7</ele>
        <time>2015-02-02T19:34:14.569Z</time>
      </trkpt>
      <trkpt lat="48.84622" lon="2.34287">
        <ele>120.6</ele>
        <time>2015-02-02T19:34:15.625Z</time>
      </trkpt>
      <trkpt lat="48.84622" lon="2.34287">
        <ele>120.6</ele>
        <time>2015-02-02T19:34:16.605Z</time>
      </trkpt>
      <trkpt lat="48.84622" lon="2.34287">
        <ele>120.5</ele>
        <time>2015-02-02T19:34:17.531Z</time>
      </trkpt>
      <trkpt lat="48.84621" lon="2.34287">
        <ele>120.3</ele>
        <time>2015-02-02T19:34:18.560Z</time>
      </trkpt>
      <trkpt lat="48.84624" lon="2.343">
        <ele>121.5</ele>
        <time>2015-02-02T19:34:39.590Z</time>
      </trkpt>
      <trkpt lat="48.84624" lon="2.34301">
        <ele>121.4</ele>
        <time>2015-02-02T19:34:40.714Z</time>
      </trkpt>
      <trkpt lat="48.84622" lon="2.34312">
        <ele>121.9</ele>
        <time>2015-02-02T19:34:46.585Z</time>
      </trkpt>
      <trkpt lat="48.84621" lon="2.34315">
        <ele>121.9</ele>
        <time>2015-02-02T19:34:47.581Z</time>
      </trkpt>
      <trkpt lat="48.84619" lon="2.34322">
        <ele>121.9</ele>
        <time>2015-02-02T19:34:49.606Z</time>
      </trkpt>
      <trkpt lat="48.84558" lon="2.34443">
        <ele>121.2</ele>
        <time>2015-02-02T19:35:19.542Z</time>
      </trkpt>
      <trkpt lat="48.8455" lon="2.34444">
        <ele>122.5</ele>
        <time>2015-02-02T19:35:44.497Z</time>
      </trkpt>
      <trkpt lat="48.84548" lon="2.34447">
        <ele>122.6</ele>
        <time>2015-02-02T19:35:45.516Z</time>
      </trkpt>
      <trkpt lat="48.84544" lon="2.34454">
        <ele>123.1</ele>
        <time>2015-02-02T19:35:48.553Z</time>
      </trkpt>
      <trkpt lat="48.84542" lon="2.34457">
        <ele>123.3</ele>
        <time>2015-02-02T19:35:49.554Z</time>
      </trkpt>
      <trkpt lat="48.84539" lon="2.34467">
        <ele>123.1</ele>
        <time>2015-02-02T19:35:53.558Z</time>
      </trkpt>
      <trkpt lat="48.84536" lon="2.34472">
        <ele>122.9</ele>
        <time>2015-02-02T19:35:54.585Z</time>
      </trkpt>
      <trkpt lat="48.84534" lon="2.34477">
        <ele>122.9</ele>
        <time>2015-02-02T19:35:55.602Z</time>
      </trkpt>
      <trkpt lat="48.8453" lon="2.34486">
        <ele>122.4</ele>
        <time>2015-02-02T19:35:57.520Z</time>
      </trkpt>
      <trkpt lat="48.8453" lon="2.34486">
        <ele>122.4</ele>
        <time>2015-02-02T19:35:58.177Z</time>
      </trkpt>
      <trkpt lat="48.84508" lon="2.3452">
        <ele>117.3</ele>
        <time>2015-02-02T19:36:02.592Z</time>
      </trkpt>
      <trkpt lat="48.84502" lon="2.34528">
        <ele>116.5</ele>
        <time>2015-02-02T19:36:03.605Z</time>
      </trkpt>
      <trkpt lat="48.84497" lon="2.34537">
        <ele>116.5</ele>
        <time>2015-02-02T19:36:04.612Z</time>
      </trkpt>
      <trkpt lat="48.84491" lon="2.34547">
        <ele>117.2</ele>
        <time>2015-02-02T19:36:06.522Z</time>
      </trkpt>
      <trkpt lat="48.84486" lon="2.34545">
        <ele>117.4</ele>
        <time>2015-02-02T19:36:07.531Z</time>
      </trkpt>
      <trkpt lat="48.84481" lon="2.34548">
        <ele>117</ele>
        <time>2015-02-02T19:36:09.539Z</time>
      </trkpt>
      <trkpt lat="48.84475" lon="2.34546">
        <ele>115.8</ele>
        <time>2015-02-02T19:36:10.554Z</time>
      </trkpt>
      <trkpt lat="48.84473" lon="2.34541">
        <ele>115.8</ele>
        <time>2015-02-02T19:36:11.565Z</time>
      </trkpt>
      <trkpt lat="48.8447" lon="2.34531">
        <ele>115.3</ele>
        <time>2015-02-02T19:36:12.579Z</time>
      </trkpt>
      <trkpt lat="48.84466" lon="2.34522">
        <ele>115.4</ele>
        <time>2015-02-02T19:36:14.531Z</time>
      </trkpt>
      <trkpt lat="48.84463" lon="2.34513">
        <ele>114.8</ele>
        <time>2015-02-02T19:36:15.528Z</time>
      </trkpt>
      <trkpt lat="48.84455" lon="2.34507">
        <ele>115.1</ele>
        <time>2015-02-02T19:36:18.528Z</time>
      </trkpt>
      <trkpt lat="48.84452" lon="2.34505">
        <ele>115.1</ele>
        <time>2015-02-02T19:36:19.618Z</time>
      </trkpt>
      <trkpt lat="48.84445" lon="2.34501">
        <ele>115.3</ele>
        <time>2015-02-02T19:36:21.643Z</time>
      </trkpt>
      <trkpt lat="48.84443" lon="2.34499">
        <ele>115.4</ele>
        <time>2015-02-02T19:36:22.660Z</time>
      </trkpt>
      <trkpt lat="48.84437" lon="2.34496">
        <ele>115.4</ele>
        <time>2015-02-02T19:36:24.568Z</time>
      </trkpt>
      <trkpt lat="48.84433" lon="2.34495">
        <ele>115.3</ele>
        <time>2015-02-02T19:36:25.711Z</time>
      </trkpt>
      <trkpt lat="48.84427" lon="2.34496">
        <ele>114.5</ele>
        <time>2015-02-02T19:36:26.545Z</time>
      </trkpt>
      <trkpt lat="48.8442" lon="2.34497">
        <ele>114.1</ele>
        <time>2015-02-02T19:36:27.547Z</time>
      </trkpt>
      <trkpt lat="48.84412" lon="2.34492">
        <ele>114.3</ele>
        <time>2015-02-02T19:36:29.591Z</time>
      </trkpt>
      <trkpt lat="48.84409" lon="2.3449">
        <ele>114.3</ele>
        <time>2015-02-02T19:36:30.590Z</time>
      </trkpt>
      <trkpt lat="48.84404" lon="2.34488">
        <ele>114.9</ele>
        <time>2015-02-02T19:36:31.611Z</time>
      </trkpt>
      <trkpt lat="48.84399" lon="2.34486">
        <ele>114.7</ele>
        <time>2015-02-02T19:36:32.627Z</time>
      </trkpt>
      <trkpt lat="48.84395" lon="2.34484">
        <ele>114.6</ele>
        <time>2015-02-02T19:36:33.539Z</time>
      </trkpt>
      <trkpt lat="48.84388" lon="2.34482">
        <ele>114</ele>
        <time>2015-02-02T19:36:34.604Z</time>
      </trkpt>
      <trkpt lat="48.84382" lon="2.34479">
        <ele>113.7</ele>
        <time>2015-02-02T19:36:35.797Z</time>
      </trkpt>
      <trkpt lat="48.84376" lon="2.34477">
        <ele>113.5</ele>
        <time>2015-02-02T19:36:36.510Z</time>
      </trkpt>
      <trkpt lat="48.84371" lon="2.34475">
        <ele>113.2</ele>
        <time>2015-02-02T19:36:37.516Z</time>
      </trkpt>
      <trkpt lat="48.84366" lon="2.34473">
        <ele>113.2</ele>
        <time>2015-02-02T19:36:38.563Z</time>
      </trkpt>
      <trkpt lat="48.8436" lon="2.34471">
        <ele>113</ele>
        <time>2015-02-02T19:36:39.574Z</time>
      </trkpt>
      <trkpt lat="48.84355" lon="2.3447">
        <ele>113</ele>
        <time>2015-02-02T19:36:40.581Z</time>
      </trkpt>
      <trkpt lat="48.8435" lon="2.34469">
        <ele>112.9</ele>
        <time>2015-02-02T19:36:41.616Z</time>
      </trkpt>
      <trkpt lat="48.84345" lon="2.34469">
        <ele>113</ele>
        <time>2015-02-02T19:36:42.558Z</time>
      </trkpt>
      <trkpt lat="48.84341" lon="2.34469">
        <ele>113</ele>
        <time>2015-02-02T19:36:43.572Z</time>
      </trkpt>
      <trkpt lat="48.84336" lon="2.34468">
        <ele>112.9</ele>
        <time>2015-02-02T19:36:44.602Z</time>
      </trkpt>
      <trkpt lat="48.84331" lon="2.34466">
        <ele>112.9</ele>
        <time>2015-02-02T19:36:45.663Z</time>
      </trkpt>
      <trkpt lat="48.84326" lon="2.34464">
        <ele>112.9</ele>
        <time>2015-02-02T19:36:46.577Z</time>
      </trkpt>
      <trkpt lat="48.84321" lon="2.34461">
        <ele>113</ele>
        <time>2015-02-02T19:36:47.494Z</time>
      </trkpt>
      <trkpt lat="48.84317" lon="2.34458">
        <ele>113</ele>
        <time>2015-02-02T19:36:48.515Z</time>
      </trkpt>
      <trkpt lat="48.84309" lon="2.34453">
        <ele>113</ele>
        <time>2015-02-02T19:36:50.532Z</time>
      </trkpt>
      <trkpt lat="48.84305" lon="2.3445">
        <ele>112.9</ele>
        <time>2015-02-02T19:36:51.564Z</time>
      </trkpt>
      <trkpt lat="48.84299" lon="2.34449">
        <ele>112.3</ele>
        <time>2015-02-02T19:36:52.575Z</time>
      </trkpt>
      <trkpt lat="48.84294" lon="2.34449">
        <ele>111.8</ele>
        <time>2015-02-02T19:36:53.659Z</time>
      </trkpt>
      <trkpt lat="48.8429" lon="2.34449">
        <ele>111.4</ele>
        <time>2015-02-02T19:36:54.528Z</time>
      </trkpt>
      <trkpt lat="48.84285" lon="2.3445">
        <ele>111.1</ele>
        <time>2015-02-02T19:36:55.538Z</time>
      </trkpt>
      <trkpt lat="48.84277" lon="2.34451">
        <ele>110.9</ele>
        <time>2015-02-02T19:36:57.538Z</time>
      </trkpt>
      <trkpt lat="48.84272" lon="2.3445">
        <ele>110.6</ele>
        <time>2015-02-02T19:36:58.553Z</time>
      </trkpt>
      <trkpt lat="48.84267" lon="2.34448">
        <ele>110.6</ele>
        <time>2015-02-02T19:36:59.568Z</time>
      </trkpt>
      <trkpt lat="48.84263" lon="2.34446">
        <ele>110.8</ele>
        <time>2015-02-02T19:37:00.605Z</time>
      </trkpt>
      <trkpt lat="48.84256" lon="2.34443">
        <ele>110.8</ele>
        <time>2015-02-02T19:37:02.532Z</time>
      </trkpt>
      <trkpt lat="48.84251" lon="2.34441">
        <ele>110.8</ele>
        <time>2015-02-02T19:37:03.554Z</time>
      </trkpt>
      <trkpt lat="48.84247" lon="2.34439">
        <ele>110.6</ele>
        <time>2015-02-02T19:37:04.589Z</time>
      </trkpt>
      <trkpt lat="48.84242" lon="2.34435">
        <ele>110.6</ele>
        <time>2015-02-02T19:37:05.590Z</time>
      </trkpt>
      <trkpt lat="48.84237" lon="2.34431">
        <ele>111</ele>
        <time>2015-02-02T19:37:06.516Z</time>
      </trkpt>
      <trkpt lat="48.84231" lon="2.34428">
        <ele>111.2</ele>
        <time>2015-02-02T19:37:07.524Z</time>
      </trkpt>
      <trkpt lat="48.84225" lon="2.34426">
        <ele>111.2</ele>
        <time>2015-02-02T19:37:08.534Z</time>
      </trkpt>
      <trkpt lat="48.84218" lon="2.34424">
        <ele>111.1</ele>
        <time>2015-02-02T19:37:09.540Z</time>
      </trkpt>
      <trkpt lat="48.84212" lon="2.34423">
        <ele>110.9</ele>
        <time>2015-02-02T19:37:10.548Z</time>
      </trkpt>
      <trkpt lat="48.84207" lon="2.34421">
        <ele>111.1</ele>
        <time>2015-02-02T19:37:11.556Z</time>
      </trkpt>
      <trkpt lat="48.84202" lon="2.34419">
        <ele>111.3</ele>
        <time>2015-02-02T19:37:12.594Z</time>
      </trkpt>
      <trkpt lat="48.84197" lon="2.34417">
        <ele>111.3</ele>
        <time>2015-02-02T19:37:13.605Z</time>
      </trkpt>
      <trkpt lat="48.84191" lon="2.34416">
        <ele>111.2</ele>
        <time>2015-02-02T19:37:14.523Z</time>
      </trkpt>
      <trkpt lat="48.84186" lon="2.34415">
        <ele>111.2</ele>
        <time>2015-02-02T19:37:15.539Z</time>
      </trkpt>
      <trkpt lat="48.84182" lon="2.34413">
        <ele>111.4</ele>
        <time>2015-02-02T19:37:16.547Z</time>
      </trkpt>
      <trkpt lat="48.84177" lon="2.34411">
        <ele>111.5</ele>
        <time>2015-02-02T19:37:17.548Z</time>
      </trkpt>
      <trkpt lat="48.84172" lon="2.34409">
        <ele>111.6</ele>
        <time>2015-02-02T19:37:18.562Z</time>
      </trkpt>
      <trkpt lat="48.84168" lon="2.34407">
        <ele>111.7</ele>
        <time>2015-02-02T19:37:19.577Z</time>
      </trkpt>
      <trkpt lat="48.84163" lon="2.34403">
        <ele>111.8</ele>
        <time>2015-02-02T19:37:20.583Z</time>
      </trkpt>
      <trkpt lat="48.84159" lon="2.34399">
        <ele>111.7</ele>
        <time>2015-02-02T19:37:21.604Z</time>
      </trkpt>
      <trkpt lat="48.84151" lon="2.34392">
        <ele>111.6</ele>
        <time>2015-02-02T19:37:23.514Z</time>
      </trkpt>
      <trkpt lat="48.84148" lon="2.3439">
        <ele>111.5</ele>
        <time>2015-02-02T19:37:24.529Z</time>
      </trkpt>
      <trkpt lat="48.84141" lon="2.34385">
        <ele>111.4</ele>
        <time>2015-02-02T19:37:26.551Z</time>
      </trkpt>
      <trkpt lat="48.84138" lon="2.34383">
        <ele>111.5</ele>
        <time>2015-02-02T19:37:27.591Z</time>
      </trkpt>
      <trkpt lat="48.84133" lon="2.34373">
        <ele>111</ele>
        <time>2015-02-02T19:37:31.603Z</time>
      </trkpt>
      <trkpt lat="48.84132" lon="2.34371">
        <ele>111</ele>
        <time>2015-02-02T19:37:32.554Z</time>
      </trkpt>
      <trkpt lat="48.84129" lon="2.34359">
        <ele>115.3</ele>
        <time>2015-02-02T19:37:38.527Z</time>
      </trkpt>
      <trkpt lat="48.84129" lon="2.34358">
        <ele>115.6</ele>
        <time>2015-02-02T19:37:39.560Z</time>
      </trkpt>
      <trkpt lat="48.84135" lon="2.34348">
        <ele>116</ele>
        <time>2015-02-02T19:37:45.597Z</time>
      </trkpt>
      <trkpt lat="48.84136" lon="2.34345">
        <ele>116</ele>
        <time>2015-02-02T19:37:46.535Z</time>
      </trkpt>
      <trkpt lat="48.84142" lon="2.34336">
        <ele>115.7</ele>
        <time>2015-02-02T19:37:50.560Z</time>
      </trkpt>
      <trkpt lat="48.84144" lon="2.34334">
        <ele>115.7</ele>
        <time>2015-02-02T19:37:51.590Z</time>
      </trkpt>
      <trkpt lat="48.84152" lon="2.34327">
        <ele>115.4</ele>
        <time>2015-02-02T19:37:55.589Z</time>
      </trkpt>
      <trkpt lat="48.84154" lon="2.34325">
        <ele>115.3</ele>
        <time>2015-02-02T19:37:56.609Z</time>
      </trkpt>
      <trkpt lat="48.84161" lon="2.34317">
        <ele>114.8</ele>
        <time>2015-02-02T19:37:59.575Z</time>
      </trkpt>
      <trkpt lat="48.84163" lon="2.34314">
        <ele>114.6</ele>
        <time>2015-02-02T19:38:00.515Z</time>
      </trkpt>
      <trkpt lat="48.84168" lon="2.34304">
        <ele>114</ele>
        <time>2015-02-02T19:38:03.532Z</time>
      </trkpt>
      <trkpt lat="48.84168" lon="2.34301">
        <ele>113.8</ele>
        <time>2015-02-02T19:38:04.659Z</time>
      </trkpt>
      <trkpt lat="48.84172" lon="2.34289">
        <ele>113.1</ele>
        <time>2015-02-02T19:38:09.574Z</time>
      </trkpt>
      <trkpt lat="48.84172" lon="2.34287">
        <ele>113.1</ele>
        <time>2015-02-02T19:38:10.636Z</time>
      </trkpt>
      <trkpt lat="48.84175" lon="2.34277">
        <ele>112.9</ele>
        <time>2015-02-02T19:38:14.542Z</time>
      </trkpt>
      <trkpt lat="48.84178" lon="2.34273">
        <ele>112.7</ele>
        <time>2015-02-02T19:38:15.554Z</time>
      </trkpt>
      <trkpt lat="48.84181" lon="2.34264">
        <ele>112.5</ele>
        <time>2015-02-02T19:38:17.546Z</time>
      </trkpt>
      <trkpt lat="48.84182" lon="2.3426">
        <ele>112.5</ele>
        <time>2015-02-02T19:38:18.549Z</time>
      </trkpt>
      <trkpt lat="48.84185" lon="2.34248">
        <ele>112.2</ele>
        <time>2015-02-02T19:38:21.529Z</time>
      </trkpt>
      <trkpt lat="48.84187" lon="2.34246">
        <ele>112.1</ele>
        <time>2015-02-02T19:38:22.529Z</time>
      </trkpt>
      <trkpt lat="48.84193" lon="2.34239">
        <ele>111.8</ele>
        <time>2015-02-02T19:38:25.600Z</time>
      </trkpt>
      <trkpt lat="48.84194" lon="2.34235">
        <ele>111.7</ele>
        <time>2015-02-02T19:38:26.520Z</time>
      </trkpt>
      <trkpt lat="48.84199" lon="2.34229">
        <ele>111.6</ele>
        <time>2015-02-02T19:38:29.602Z</time>
      </trkpt>
      <trkpt lat="48.84201" lon="2.34226">
        <ele>111.8</ele>
        <time>2015-02-02T19:38:30.522Z</time>
      </trkpt>
      <trkpt lat="48.84206" lon="2.34215">
        <ele>112.1</ele>
        <time>2015-02-02T19:38:33.528Z</time>
      </trkpt>
      <trkpt lat="48.84207" lon="2.34212">
        <ele>112.2</ele>
        <time>2015-02-02T19:38:34.707Z</time>
      </trkpt>
      <trkpt lat="48.84212" lon="2.34203">
        <ele>113.7</ele>
        <time>2015-02-02T19:38:36.513Z</time>
      </trkpt>
      <trkpt lat="48.84214" lon="2.34197">
        <ele>115.1</ele>
        <time>2015-02-02T19:38:37.524Z</time>
      </trkpt>
      <trkpt lat="48.84213" lon="2.34184">
        <ele>116.9</ele>
        <time>2015-02-02T19:38:42.523Z</time>
      </trkpt>
      <trkpt lat="48.84213" lon="2.34182">
        <ele>117.2</ele>
        <time>2015-02-02T19:38:43.555Z</time>
      </trkpt>
      <trkpt lat="48.84213" lon="2.34181">
        <ele>117.3</ele>
        <time>2015-02-02T19:38:44.594Z</time>
      </trkpt>
      <trkpt lat="48.84212" lon="2.34179">
        <ele>117.5</ele>
        <time>2015-02-02T19:38:45.612Z</time>
      </trkpt>
      <trkpt lat="48.84213" lon="2.34178">
        <ele>117.8</ele>
        <time>2015-02-02T19:38:46.631Z</time>
      </trkpt>
      <trkpt lat="48.84209" lon="2.34167">
        <ele>119.8</ele>
        <time>2015-02-02T19:38:57.528Z</time>
      </trkpt>
      <trkpt lat="48.84208" lon="2.34166">
        <ele>119.9</ele>
        <time>2015-02-02T19:38:58.552Z</time>
      </trkpt>
      <trkpt lat="48.84208" lon="2.34166">
        <ele>120</ele>
        <time>2015-02-02T19:38:59.570Z</time>
      </trkpt>
      <trkpt lat="48.84208" lon="2.34166">
        <ele>120.1</ele>
        <time>2015-02-02T19:39:00.490Z</time>
      </trkpt>
      <trkpt lat="48.84203" lon="2.34157">
        <ele>124.4</ele>
        <time>2015-02-02T19:40:14.517Z</time>
      </trkpt>
      <trkpt lat="48.84199" lon="2.34153">
        <ele>130.1</ele>
        <time>2015-02-02T19:40:15.525Z</time>
      </trkpt>
      <trkpt lat="48.84199" lon="2.34151">
        <ele>130.5</ele>
        <time>2015-02-02T19:40:16.560Z</time>
      </trkpt>
      <trkpt lat="48.84199" lon="2.34151">
        <ele>130.7</ele>
        <time>2015-02-02T19:40:17.542Z</time>
      </trkpt>
      <trkpt lat="48.84199" lon="2.3415">
        <ele>131.1</ele>
        <time>2015-02-02T19:40:20.526Z</time>
      </trkpt>
      <trkpt lat="48.84198" lon="2.34149">
        <ele>131.5</ele>
        <time>2015-02-02T19:40:21.605Z</time>
      </trkpt>
      <trkpt lat="48.84203" lon="2.3414">
        <ele>130.2</ele>
        <time>2015-02-02T19:40:40.641Z</time>
      </trkpt>
      <trkpt lat="48.84204" lon="2.34138">
        <ele>130.2</ele>
        <time>2015-02-02T19:40:41.593Z</time>
      </trkpt>
      <trkpt lat="48.84208" lon="2.34129">
        <ele>129</ele>
        <time>2015-02-02T19:40:44.595Z</time>
      </trkpt>
      <trkpt lat="48.8421" lon="2.34126">
        <ele>128.6</ele>
        <time>2015-02-02T19:40:45.634Z</time>
      </trkpt>
      <trkpt lat="48.84216" lon="2.34117">
        <ele>127.6</ele>
        <time>2015-02-02T19:40:47.584Z</time>
      </trkpt>
      <trkpt lat="48.8422" lon="2.3411">
        <ele>125.6</ele>
        <time>2015-02-02T19:40:48.601Z</time>
      </trkpt>
      <trkpt lat="48.84226" lon="2.34101">
        <ele>124.8</ele>
        <time>2015-02-02T19:40:50.530Z</time>
      </trkpt>
      <trkpt lat="48.84229" lon="2.34095">
        <ele>123.8</ele>
        <time>2015-02-02T19:40:51.544Z</time>
      </trkpt>
      <trkpt lat="48.84232" lon="2.34057">
        <ele>118.4</ele>
        <time>2015-02-02T19:40:56.515Z</time>
      </trkpt>
      <trkpt lat="48.8423" lon="2.34047">
        <ele>118.1</ele>
        <time>2015-02-02T19:40:58.568Z</time>
      </trkpt>
      <trkpt lat="48.84229" lon="2.34041">
        <ele>117.8</ele>
        <time>2015-02-02T19:40:59.567Z</time>
      </trkpt>
      <trkpt lat="48.84226" lon="2.34031">
        <ele>117.5</ele>
        <time>2015-02-02T19:41:01.590Z</time>
      </trkpt>
      <trkpt lat="48.84223" lon="2.34028">
        <ele>117.3</ele>
        <time>2015-02-02T19:41:02.600Z</time>
      </trkpt>
      <trkpt lat="48.84169" lon="2.33993">
        <ele>116.8</ele>
        <time>2015-02-02T19:41:15.534Z</time>
      </trkpt>
      <trkpt lat="48.8416" lon="2.33989">
        <ele>116.3</ele>
        <time>2015-02-02T19:41:17.577Z</time>
      </trkpt>
      <trkpt lat="48.84156" lon="2.33987">
        <ele>116</ele>
        <time>2015-02-02T19:41:18.587Z</time>
      </trkpt>
      <trkpt lat="48.84147" lon="2.33985">
        <ele>115.3</ele>
        <time>2015-02-02T19:41:20.625Z</time>
      </trkpt>
      <trkpt lat="48.84142" lon="2.33985">
        <ele>115.2</ele>
        <time>2015-02-02T19:41:21.525Z</time>
      </trkpt>
      <trkpt lat="48.84135" lon="2.33983">
        <ele>115</ele>
        <time>2015-02-02T19:41:23.548Z</time>
      </trkpt>
      <trkpt lat="48.84132" lon="2.33981">
        <ele>115</ele>
        <time>2015-02-02T19:41:24.561Z</time>
      </trkpt>
      <trkpt lat="48.84127" lon="2.33977">
        <ele>115</ele>
        <time>2015-02-02T19:41:26.508Z</time>
      </trkpt>
      <trkpt lat="48.84122" lon="2.33973">
        <ele>114.9</ele>
        <time>2015-02-02T19:41:28.547Z</time>
      </trkpt>
      <trkpt lat="48.84114" lon="2.33968">
        <ele>114.6</ele>
        <time>2015-02-02T19:41:30.569Z</time>
      </trkpt>
      <trkpt lat="48.8411" lon="2.33964">
        <ele>114.3</ele>
        <time>2015-02-02T19:41:31.725Z</time>
      </trkpt>
      <trkpt lat="48.84106" lon="2.33959">
        <ele>114.1</ele>
        <time>2015-02-02T19:41:32.543Z</time>
      </trkpt>
      <trkpt lat="48.84102" lon="2.33956">
        <ele>114</ele>
        <time>2015-02-02T19:41:33.554Z</time>
      </trkpt>
      <trkpt lat="48.84094" lon="2.3395">
        <ele>113.8</ele>
        <time>2015-02-02T19:41:35.566Z</time>
      </trkpt>
      <trkpt lat="48.84061" lon="2.33925">
        <ele>113.5</ele>
        <time>2015-02-02T19:41:43.517Z</time>
      </trkpt>
      <trkpt lat="48.84056" lon="2.33922">
        <ele>113.4</ele>
        <time>2015-02-02T19:41:44.561Z</time>
      </trkpt>
      <trkpt lat="48.84049" lon="2.33914">
        <ele>113.3</ele>
        <time>2015-02-02T19:41:46.542Z</time>
      </trkpt>
      <trkpt lat="48.84042" lon="2.33906">
        <ele>113.2</ele>
        <time>2015-02-02T19:41:48.530Z</time>
      </trkpt>
      <trkpt lat="48.84039" lon="2.33902">
        <ele>113.1</ele>
        <time>2015-02-02T19:41:49.517Z</time>
      </trkpt>
      <trkpt lat="48.84034" lon="2.33899">
        <ele>112.9</ele>
        <time>2015-02-02T19:41:50.540Z</time>
      </trkpt>
      <trkpt lat="48.84029" lon="2.33896">
        <ele>112.9</ele>
        <time>2015-02-02T19:41:51.535Z</time>
      </trkpt>
      <trkpt lat="48.84024" lon="2.33893">
        <ele>112.9</ele>
        <time>2015-02-02T19:41:53.378Z</time>
      </trkpt>
      <trkpt lat="48.84019" lon="2.33892">
        <ele>112.9</ele>
        <time>2015-02-02T19:41:53.550Z</time>
      </trkpt>
      <trkpt lat="48.84015" lon="2.3389">
        <ele>112.9</ele>
        <time>2015-02-02T19:41:54.568Z</time>
      </trkpt>
      <trkpt lat="48.8401" lon="2.33888">
        <ele>113</ele>
        <time>2015-02-02T19:41:55.589Z</time>
      </trkpt>
      <trkpt lat="48.84004" lon="2.33885">
        <ele>113.1</ele>
        <time>2015-02-02T19:41:56.603Z</time>
      </trkpt>
      <trkpt lat="48.83995" lon="2.33878">
        <ele>113.4</ele>
        <time>2015-02-02T19:41:58.527Z</time>
      </trkpt>
      <trkpt lat="48.83989" lon="2.33876">
        <ele>113.6</ele>
        <time>2015-02-02T19:41:59.535Z</time>
      </trkpt>
      <trkpt lat="48.83984" lon="2.33874">
        <ele>113.7</ele>
        <time>2015-02-02T19:42:00.557Z</time>
      </trkpt>
      <trkpt lat="48.83979" lon="2.33872">
        <ele>113.9</ele>
        <time>2015-02-02T19:42:01.570Z</time>
      </trkpt>
      <trkpt lat="48.83974" lon="2.33867">
        <ele>113.9</ele>
        <time>2015-02-02T19:42:02.583Z</time>
      </trkpt>
      <trkpt lat="48.8397" lon="2.33864">
        <ele>114</ele>
        <time>2015-02-02T19:42:03.551Z</time>
      </trkpt>
      <trkpt lat="48.83966" lon="2.33861">
        <ele>114.2</ele>
        <time>2015-02-02T19:42:04.554Z</time>
      </trkpt>
      <trkpt lat="48.83963" lon="2.33859">
        <ele>114.4</ele>
        <time>2015-02-02T19:42:05.561Z</time>
      </trkpt>
      <trkpt lat="48.83957" lon="2.33858">
        <ele>114.3</ele>
        <time>2015-02-02T19:42:06.494Z</time>
      </trkpt>
      <trkpt lat="48.83949" lon="2.33858">
        <ele>114</ele>
        <time>2015-02-02T19:42:07.518Z</time>
      </trkpt>
      <trkpt lat="48.83944" lon="2.33855">
        <ele>113.8</ele>
        <time>2015-02-02T19:42:08.531Z</time>
      </trkpt>
      <trkpt lat="48.83937" lon="2.3385">
        <ele>113.9</ele>
        <time>2015-02-02T19:42:10.586Z</time>
      </trkpt>
      <trkpt lat="48.83933" lon="2.33849">
        <ele>114.1</ele>
        <time>2015-02-02T19:42:11.517Z</time>
      </trkpt>
      <trkpt lat="48.83926" lon="2.3384">
        <ele>114.5</ele>
        <time>2015-02-02T19:42:15.602Z</time>
      </trkpt>
      <trkpt lat="48.83928" lon="2.33842">
        <ele>113.4</ele>
        <time>2015-02-02T19:42:16.615Z</time>
      </trkpt>
      <trkpt lat="48.8393" lon="2.33842">
        <ele>112</ele>
        <time>2015-02-02T19:42:21.530Z</time>
      </trkpt>
      <trkpt lat="48.83931" lon="2.33835">
        <ele>110.9</ele>
        <time>2015-02-02T19:42:22.566Z</time>
      </trkpt>
      <trkpt lat="48.83935" lon="2.33825">
        <ele>108.8</ele>
        <time>2015-02-02T19:42:26.525Z</time>
      </trkpt>
      <trkpt lat="48.83936" lon="2.33821">
        <ele>108.3</ele>
        <time>2015-02-02T19:42:27.537Z</time>
      </trkpt>
      <trkpt lat="48.83937" lon="2.33809">
        <ele>107.5</ele>
        <time>2015-02-02T19:42:30.575Z</time>
      </trkpt>
      <trkpt lat="48.83938" lon="2.33805">
        <ele>107.2</ele>
        <time>2015-02-02T19:42:31.591Z</time>
      </trkpt>
      <trkpt lat="48.8394" lon="2.33796">
        <ele>106</ele>
        <time>2015-02-02T19:42:33.521Z</time>
      </trkpt>
      <trkpt lat="48.8394" lon="2.33792">
        <ele>105.7</ele>
        <time>2015-02-02T19:42:34.580Z</time>
      </trkpt>
      <trkpt lat="48.83942" lon="2.33778">
        <ele>105</ele>
        <time>2015-02-02T19:42:38.537Z</time>
      </trkpt>
      <trkpt lat="48.83942" lon="2.33775">
        <ele>104.8</ele>
        <time>2015-02-02T19:42:39.537Z</time>
      </trkpt>
      <trkpt lat="48.83941" lon="2.33772">
        <ele>103.9</ele>
        <time>2015-02-02T19:42:41.587Z</time>
      </trkpt>
      <trkpt lat="48.8394" lon="2.33773">
        <ele>103.2</ele>
        <time>2015-02-02T19:42:42.601Z</time>
      </trkpt>
      <trkpt lat="48.83939" lon="2.33772">
        <ele>102.9</ele>
        <time>2015-02-02T19:42:43.624Z</time>
      </trkpt>
      <trkpt lat="48.83935" lon="2.33764">
        <ele>103.1</ele>
        <time>2015-02-02T19:42:47.591Z</time>
      </trkpt>
      <trkpt lat="48.83933" lon="2.33761">
        <ele>103.8</ele>
        <time>2015-02-02T19:42:48.554Z</time>
      </trkpt>
      <trkpt lat="48.83927" lon="2.33752">
        <ele>106</ele>
        <time>2015-02-02T19:42:52.596Z</time>
      </trkpt>
      <trkpt lat="48.83925" lon="2.33749">
        <ele>106.9</ele>
        <time>2015-02-02T19:42:53.522Z</time>
      </trkpt>
      <trkpt lat="48.83922" lon="2.33745">
        <ele>109.3</ele>
        <time>2015-02-02T19:42:57.623Z</time>
      </trkpt>
      <trkpt lat="48.83921" lon="2.33744">
        <ele>109.7</ele>
        <time>2015-02-02T19:42:58.649Z</time>
      </trkpt>
      <trkpt lat="48.83921" lon="2.33741">
        <ele>110</ele>
        <time>2015-02-02T19:42:59.643Z</time>
      </trkpt>
      <trkpt lat="48.83918" lon="2.3373">
        <ele>109.6</ele>
        <time>2015-02-02T19:43:01.611Z</time>
      </trkpt>
      <trkpt lat="48.83915" lon="2.33724">
        <ele>109.4</ele>
        <time>2015-02-02T19:43:02.615Z</time>
      </trkpt>
      <trkpt lat="48.8391" lon="2.33717">
        <ele>109.2</ele>
        <time>2015-02-02T19:43:04.632Z</time>
      </trkpt>
      <trkpt lat="48.83908" lon="2.33713">
        <ele>109</ele>
        <time>2015-02-02T19:43:05.613Z</time>
      </trkpt>
      <trkpt lat="48.83901" lon="2.33705">
        <ele>108.6</ele>
        <time>2015-02-02T19:43:07.536Z</time>
      </trkpt>
      <trkpt lat="48.83898" lon="2.33702">
        <ele>108.4</ele>
        <time>2015-02-02T19:43:08.550Z</time>
      </trkpt>
      <trkpt lat="48.83893" lon="2.33693">
        <ele>108.1</ele>
        <time>2015-02-02T19:43:10.564Z</time>
      </trkpt>
      <trkpt lat="48.83889" lon="2.3369">
        <ele>108.1</ele>
        <time>2015-02-02T19:43:11.562Z</time>
      </trkpt>
      <trkpt lat="48.83882" lon="2.33688">
        <ele>107.9</ele>
        <time>2015-02-02T19:43:13.588Z</time>
      </trkpt>
      <trkpt lat="48.83879" lon="2.33688">
        <ele>107.7</ele>
        <time>2015-02-02T19:43:14.605Z</time>
      </trkpt>
      <trkpt lat="48.83873" lon="2.33689">
        <ele>107.4</ele>
        <time>2015-02-02T19:43:16.640Z</time>
      </trkpt>
      <trkpt lat="48.8387" lon="2.3369">
        <ele>107.3</ele>
        <time>2015-02-02T19:43:17.526Z</time>
      </trkpt>
      <trkpt lat="48.83863" lon="2.33688">
        <ele>107</ele>
        <time>2015-02-02T19:43:19.563Z</time>
      </trkpt>
      <trkpt lat="48.8386" lon="2.33684">
        <ele>106.8</ele>
        <time>2015-02-02T19:43:20.591Z</time>
      </trkpt>
      <trkpt lat="48.83857" lon="2.33679">
        <ele>106.6</ele>
        <time>2015-02-02T19:43:21.594Z</time>
      </trkpt>
      <trkpt lat="48.83853" lon="2.33674">
        <ele>106.3</ele>
        <time>2015-02-02T19:43:22.629Z</time>
      </trkpt>
      <trkpt lat="48.83849" lon="2.33663">
        <ele>105.5</ele>
        <time>2015-02-02T19:43:24.526Z</time>
      </trkpt>
      <trkpt lat="48.83849" lon="2.33657">
        <ele>105.2</ele>
        <time>2015-02-02T19:43:25.538Z</time>
      </trkpt>
      <trkpt lat="48.83848" lon="2.33644">
        <ele>105</ele>
        <time>2015-02-02T19:43:27.503Z</time>
      </trkpt>
      <trkpt lat="48.83847" lon="2.3364">
        <ele>104.9</ele>
        <time>2015-02-02T19:43:28.578Z</time>
      </trkpt>
      <trkpt lat="48.83841" lon="2.33636">
        <ele>105</ele>
        <time>2015-02-02T19:43:30.520Z</time>
      </trkpt>
      <trkpt lat="48.83838" lon="2.33633">
        <ele>105.3</ele>
        <time>2015-02-02T19:43:31.568Z</time>
      </trkpt>
      <trkpt lat="48.83833" lon="2.33625">
        <ele>105.9</ele>
        <time>2015-02-02T19:43:33.504Z</time>
      </trkpt>
      <trkpt lat="48.8383" lon="2.3362">
        <ele>106.1</ele>
        <time>2015-02-02T19:43:34.579Z</time>
      </trkpt>
      <trkpt lat="48.83828" lon="2.33615">
        <ele>106.3</ele>
        <time>2015-02-02T19:43:35.575Z</time>
      </trkpt>
      <trkpt lat="48.83824" lon="2.3361">
        <ele>106.4</ele>
        <time>2015-02-02T19:43:36.615Z</time>
      </trkpt>
      <trkpt lat="48.8382" lon="2.33608">
        <ele>106.8</ele>
        <time>2015-02-02T19:43:37.538Z</time>
      </trkpt>
      <trkpt lat="48.83815" lon="2.33604">
        <ele>107.1</ele>
        <time>2015-02-02T19:43:38.575Z</time>
      </trkpt>
      <trkpt lat="48.83809" lon="2.33601">
        <ele>107.4</ele>
        <time>2015-02-02T19:43:39.602Z</time>
      </trkpt>
      <trkpt lat="48.83804" lon="2.33597">
        <ele>107.5</ele>
        <time>2015-02-02T19:43:40.610Z</time>
      </trkpt>
      <trkpt lat="48.83799" lon="2.33593">
        <ele>107.8</ele>
        <time>2015-02-02T19:43:41.509Z</time>
      </trkpt>
      <trkpt lat="48.83794" lon="2.33589">
        <ele>108</ele>
        <time>2015-02-02T19:43:42.524Z</time>
      </trkpt>
      <trkpt lat="48.83788" lon="2.33586">
        <ele>107.9</ele>
        <time>2015-02-02T19:43:44.174Z</time>
      </trkpt>
      <trkpt lat="48.83783" lon="2.33583">
        <ele>107.6</ele>
        <time>2015-02-02T19:43:44.554Z</time>
      </trkpt>
      <trkpt lat="48.83777" lon="2.33579">
        <ele>107.5</ele>
        <time>2015-02-02T19:43:45.567Z</time>
      </trkpt>
      <trkpt lat="48.83773" lon="2.33576">
        <ele>107.3</ele>
        <time>2015-02-02T19:43:46.583Z</time>
      </trkpt>
      <trkpt lat="48.83769" lon="2.33571">
        <ele>107.2</ele>
        <time>2015-02-02T19:43:47.598Z</time>
      </trkpt>
      <trkpt lat="48.83764" lon="2.33567">
        <ele>107.1</ele>
        <time>2015-02-02T19:43:48.604Z</time>
      </trkpt>
      <trkpt lat="48.83759" lon="2.33562">
        <ele>107.1</ele>
        <time>2015-02-02T19:43:49.527Z</time>
      </trkpt>
      <trkpt lat="48.83754" lon="2.33556">
        <ele>107</ele>
        <time>2015-02-02T19:43:50.522Z</time>
      </trkpt>
      <trkpt lat="48.83749" lon="2.33551">
        <ele>107</ele>
        <time>2015-02-02T19:43:51.535Z</time>
      </trkpt>
      <trkpt lat="48.83745" lon="2.33545">
        <ele>107</ele>
        <time>2015-02-02T19:43:52.574Z</time>
      </trkpt>
      <trkpt lat="48.83739" lon="2.3354">
        <ele>106.9</ele>
        <time>2015-02-02T19:43:53.598Z</time>
      </trkpt>
      <trkpt lat="48.83734" lon="2.33535">
        <ele>107</ele>
        <time>2015-02-02T19:43:54.505Z</time>
      </trkpt>
      <trkpt lat="48.8373" lon="2.33529">
        <ele>107.1</ele>
        <time>2015-02-02T19:43:55.535Z</time>
      </trkpt>
      <trkpt lat="48.83724" lon="2.33524">
        <ele>107.2</ele>
        <time>2015-02-02T19:43:56.538Z</time>
      </trkpt>
      <trkpt lat="48.83719" lon="2.3352">
        <ele>107.3</ele>
        <time>2015-02-02T19:43:57.565Z</time>
      </trkpt>
      <trkpt lat="48.83714" lon="2.33516">
        <ele>107.3</ele>
        <time>2015-02-02T19:43:58.580Z</time>
      </trkpt>
      <trkpt lat="48.83709" lon="2.33512">
        <ele>107.4</ele>
        <time>2015-02-02T19:43:59.594Z</time>
      </trkpt>
      <trkpt lat="48.83705" lon="2.33508">
        <ele>107.5</ele>
        <time>2015-02-02T19:44:00.505Z</time>
      </trkpt>
      <trkpt lat="48.837" lon="2.33504">
        <ele>107.7</ele>
        <time>2015-02-02T19:44:01.522Z</time>
      </trkpt>
      <trkpt lat="48.83696" lon="2.33499">
        <ele>107.9</ele>
        <time>2015-02-02T19:44:02.546Z</time>
      </trkpt>
      <trkpt lat="48.83691" lon="2.33493">
        <ele>108.3</ele>
        <time>2015-02-02T19:44:03.570Z</time>
      </trkpt>
      <trkpt lat="48.83685" lon="2.33488">
        <ele>108.8</ele>
        <time>2015-02-02T19:44:04.603Z</time>
      </trkpt>
      <trkpt lat="48.8368" lon="2.33483">
        <ele>109.3</ele>
        <time>2015-02-02T19:44:05.601Z</time>
      </trkpt>
      <trkpt lat="48.83675" lon="2.3348">
        <ele>109.5</ele>
        <time>2015-02-02T19:44:06.612Z</time>
      </trkpt>
      <trkpt lat="48.8367" lon="2.33476">
        <ele>109.6</ele>
        <time>2015-02-02T19:44:07.520Z</time>
      </trkpt>
      <trkpt lat="48.83666" lon="2.33471">
        <ele>109.8</ele>
        <time>2015-02-02T19:44:08.522Z</time>
      </trkpt>
      <trkpt lat="48.83662" lon="2.33465">
        <ele>110.2</ele>
        <time>2015-02-02T19:44:09.547Z</time>
      </trkpt>
      <trkpt lat="48.83658" lon="2.33459">
        <ele>110.2</ele>
        <time>2015-02-02T19:44:10.668Z</time>
      </trkpt>
      <trkpt lat="48.83654" lon="2.33453">
        <ele>110.3</ele>
        <time>2015-02-02T19:44:11.571Z</time>
      </trkpt>
      <trkpt lat="48.8365" lon="2.33449">
        <ele>110.4</ele>
        <time>2015-02-02T19:44:12.579Z</time>
      </trkpt>
      <trkpt lat="48.83646" lon="2.33444">
        <ele>110.6</ele>
        <time>2015-02-02T19:44:13.586Z</time>
      </trkpt>
      <trkpt lat="48.83641" lon="2.33439">
        <ele>110.9</ele>
        <time>2015-02-02T19:44:14.591Z</time>
      </trkpt>
      <trkpt lat="48.83636" lon="2.33434">
        <ele>111.1</ele>
        <time>2015-02-02T19:44:15.611Z</time>
      </trkpt>
      <trkpt lat="48.8363" lon="2.33429">
        <ele>111.3</ele>
        <time>2015-02-02T19:44:16.623Z</time>
      </trkpt>
      <trkpt lat="48.83625" lon="2.33424">
        <ele>111.5</ele>
        <time>2015-02-02T19:44:17.523Z</time>
      </trkpt>
      <trkpt lat="48.83619" lon="2.33419">
        <ele>111.8</ele>
        <time>2015-02-02T19:44:18.537Z</time>
      </trkpt>
      <trkpt lat="48.8361" lon="2.33416">
        <ele>112</ele>
        <time>2015-02-02T19:44:19.547Z</time>
      </trkpt>
      <trkpt lat="48.83602" lon="2.33411">
        <ele>112.7</ele>
        <time>2015-02-02T19:44:20.568Z</time>
      </trkpt>
      <trkpt lat="48.83595" lon="2.33406">
        <ele>113.5</ele>
        <time>2015-02-02T19:44:21.574Z</time>
      </trkpt>
      <trkpt lat="48.83588" lon="2.33401">
        <ele>113.9</ele>
        <time>2015-02-02T19:44:22.597Z</time>
      </trkpt>
      <trkpt lat="48.83582" lon="2.33397">
        <ele>114.6</ele>
        <time>2015-02-02T19:44:23.611Z</time>
      </trkpt>
      <trkpt lat="48.83577" lon="2.33394">
        <ele>115.6</ele>
        <time>2015-02-02T19:44:24.520Z</time>
      </trkpt>
      <trkpt lat="48.83572" lon="2.33388">
        <ele>116.1</ele>
        <time>2015-02-02T19:44:25.523Z</time>
      </trkpt>
      <trkpt lat="48.83567" lon="2.33384">
        <ele>116.5</ele>
        <time>2015-02-02T19:44:26.533Z</time>
      </trkpt>
      <trkpt lat="48.83562" lon="2.33378">
        <ele>116.8</ele>
        <time>2015-02-02T19:44:27.554Z</time>
      </trkpt>
      <trkpt lat="48.83556" lon="2.33373">
        <ele>117.4</ele>
        <time>2015-02-02T19:44:28.559Z</time>
      </trkpt>
      <trkpt lat="48.83551" lon="2.33367">
        <ele>117.8</ele>
        <time>2015-02-02T19:44:29.564Z</time>
      </trkpt>
      <trkpt lat="48.83544" lon="2.3336">
        <ele>118.5</ele>
        <time>2015-02-02T19:44:31.590Z</time>
      </trkpt>
      <trkpt lat="48.83542" lon="2.33356">
        <ele>118.6</ele>
        <time>2015-02-02T19:44:32.596Z</time>
      </trkpt>
      <trkpt lat="48.83534" lon="2.33351">
        <ele>118.3</ele>
        <time>2015-02-02T19:44:34.628Z</time>
      </trkpt>
      <trkpt lat="48.83531" lon="2.33348">
        <ele>118.4</ele>
        <time>2015-02-02T19:44:35.533Z</time>
      </trkpt>
      <trkpt lat="48.83525" lon="2.33341">
        <ele>118.6</ele>
        <time>2015-02-02T19:44:37.560Z</time>
      </trkpt>
      <trkpt lat="48.83523" lon="2.33339">
        <ele>118.6</ele>
        <time>2015-02-02T19:44:38.567Z</time>
      </trkpt>
      <trkpt lat="48.83515" lon="2.33334">
        <ele>119</ele>
        <time>2015-02-02T19:44:40.612Z</time>
      </trkpt>
      <trkpt lat="48.83511" lon="2.33331">
        <ele>119.2</ele>
        <time>2015-02-02T19:44:41.628Z</time>
      </trkpt>
      <trkpt lat="48.83505" lon="2.33331">
        <ele>118</ele>
        <time>2015-02-02T19:44:42.528Z</time>
      </trkpt>
      <trkpt lat="48.835" lon="2.3333">
        <ele>117.6</ele>
        <time>2015-02-02T19:44:43.529Z</time>
      </trkpt>
      <trkpt lat="48.83493" lon="2.33324">
        <ele>117.7</ele>
        <time>2015-02-02T19:44:45.550Z</time>
      </trkpt>
      <trkpt lat="48.83489" lon="2.33322">
        <ele>117.8</ele>
        <time>2015-02-02T19:44:46.571Z</time>
      </trkpt>
      <trkpt lat="48.83483" lon="2.33317">
        <ele>117.9</ele>
        <time>2015-02-02T19:44:48.598Z</time>
      </trkpt>
      <trkpt lat="48.8348" lon="2.33315">
        <ele>117.9</ele>
        <time>2015-02-02T19:44:49.646Z</time>
      </trkpt>
      <trkpt lat="48.83476" lon="2.33307">
        <ele>118.3</ele>
        <time>2015-02-02T19:44:51.536Z</time>
      </trkpt>
      <trkpt lat="48.83474" lon="2.33303">
        <ele>118.7</ele>
        <time>2015-02-02T19:44:52.572Z</time>
      </trkpt>
      <trkpt lat="48.83471" lon="2.33292">
        <ele>119.1</ele>
        <time>2015-02-02T19:44:54.606Z</time>
      </trkpt>
      <trkpt lat="48.8347" lon="2.33289">
        <ele>119.4</ele>
        <time>2015-02-02T19:44:55.674Z</time>
      </trkpt>
      <trkpt lat="48.83472" lon="2.33288">
        <ele>118.5</ele>
        <time>2015-02-02T19:44:58.575Z</time>
      </trkpt>
      <trkpt lat="48.83472" lon="2.33288">
        <ele>118.7</ele>
        <time>2015-02-02T19:44:59.621Z</time>
      </trkpt>
      <trkpt lat="48.83472" lon="2.33288">
        <ele>118.7</ele>
        <time>2015-02-02T19:45:07.534Z</time>
      </trkpt>
      <trkpt lat="48.83471" lon="2.33293">
        <ele>118.1</ele>
        <time>2015-02-02T19:45:08.533Z</time>
      </trkpt>
      <trkpt lat="48.83471" lon="2.33292">
        <ele>118.2</ele>
        <time>2015-02-02T19:45:09.571Z</time>
      </trkpt>
      <trkpt lat="48.83471" lon="2.33292">
        <ele>118.4</ele>
        <time>2015-02-02T19:45:10.639Z</time>
      </trkpt>
      <trkpt lat="48.83471" lon="2.33294">
        <ele>119.1</ele>
        <time>2015-02-02T19:45:17.534Z</time>
      </trkpt>
      <trkpt lat="48.8347" lon="2.33297">
        <ele>118</ele>
        <time>2015-02-02T19:45:18.546Z</time>
      </trkpt>
      <trkpt lat="48.83471" lon="2.33284">
        <ele>114.9</ele>
        <time>2015-02-02T19:45:33.585Z</time>
      </trkpt>
      <trkpt lat="48.83472" lon="2.33283">
        <ele>114.6</ele>
        <time>2015-02-02T19:45:34.631Z</time>
      </trkpt>
      <trkpt lat="48.83473" lon="2.33283">
        <ele>114.3</ele>
        <time>2015-02-02T19:45:35.529Z</time>
      </trkpt>
      <trkpt lat="48.83473" lon="2.33284">
        <ele>114.3</ele>
        <time>2015-02-02T19:45:36.546Z</time>
      </trkpt>
      <trkpt lat="48.83472" lon="2.33286">
        <ele>114.7</ele>
        <time>2015-02-02T19:45:50.548Z</time>
      </trkpt>
      <trkpt lat="48.8347" lon="2.33286">
        <ele>113.4</ele>
        <time>2015-02-02T19:45:51.569Z</time>
      </trkpt>
      <trkpt lat="48.83471" lon="2.33277">
        <ele>112</ele>
        <time>2015-02-02T19:45:55.531Z</time>
      </trkpt>
      <trkpt lat="48.83471" lon="2.33276">
        <ele>111.6</ele>
        <time>2015-02-02T19:45:56.582Z</time>
      </trkpt>
      <trkpt lat="48.83471" lon="2.33276">
        <ele>111.1</ele>
        <time>2015-02-02T19:46:11.569Z</time>
      </trkpt>
      <trkpt lat="48.83471" lon="2.33274">
        <ele>109.5</ele>
        <time>2015-02-02T19:46:12.599Z</time>
      </trkpt>
      <trkpt lat="48.83467" lon="2.33284">
        <ele>109.2</ele>
        <time>2015-02-02T19:46:20.682Z</time>
      </trkpt>
      <trkpt lat="48.83466" lon="2.33285">
        <ele>109.2</ele>
        <time>2015-02-02T19:46:21.539Z</time>
      </trkpt>
      <trkpt lat="48.83459" lon="2.33284">
        <ele>109.2</ele>
        <time>2015-02-02T19:46:24.583Z</time>
      </trkpt>
      <trkpt lat="48.83457" lon="2.33285">
        <ele>109.3</ele>
        <time>2015-02-02T19:46:25.597Z</time>
      </trkpt>
      <trkpt lat="48.83448" lon="2.33286">
        <ele>109</ele>
        <time>2015-02-02T19:46:28.652Z</time>
      </trkpt>
      <trkpt lat="48.83446" lon="2.33288">
        <ele>109</ele>
        <time>2015-02-02T19:46:29.524Z</time>
      </trkpt>
      <trkpt lat="48.8344" lon="2.33295">
        <ele>108.9</ele>
        <time>2015-02-02T19:46:32.688Z</time>
      </trkpt>
      <trkpt lat="48.83438" lon="2.33297">
        <ele>108.8</ele>
        <time>2015-02-02T19:46:33.564Z</time>
      </trkpt>
      <trkpt lat="48.83434" lon="2.33306">
        <ele>110.5</ele>
        <time>2015-02-02T19:46:41.609Z</time>
      </trkpt>
      <trkpt lat="48.83432" lon="2.33311">
        <ele>111.3</ele>
        <time>2015-02-02T19:46:42.628Z</time>
      </trkpt>
      <trkpt lat="48.83428" lon="2.33315">
        <ele>111.6</ele>
        <time>2015-02-02T19:46:43.522Z</time>
      </trkpt>
      <trkpt lat="48.83423" lon="2.3332">
        <ele>111.9</ele>
        <time>2015-02-02T19:46:44.527Z</time>
      </trkpt>
      <trkpt lat="48.83415" lon="2.33322">
        <ele>111.1</ele>
        <time>2015-02-02T19:46:48.606Z</time>
      </trkpt>
      <trkpt lat="48.83414" lon="2.33323">
        <ele>111</ele>
        <time>2015-02-02T19:46:49.626Z</time>
      </trkpt>
      <trkpt lat="48.8341" lon="2.33327">
        <ele>110.6</ele>
        <time>2015-02-02T19:46:52.585Z</time>
      </trkpt>
      <trkpt lat="48.8341" lon="2.33328">
        <ele>110.4</ele>
        <time>2015-02-02T19:46:53.583Z</time>
      </trkpt>
      <trkpt lat="48.83409" lon="2.33329">
        <ele>110.2</ele>
        <time>2015-02-02T19:47:01.546Z</time>
      </trkpt>
      <trkpt lat="48.83408" lon="2.33339">
        <ele>108.1</ele>
        <time>2015-02-02T19:47:02.542Z</time>
      </trkpt>
      <trkpt lat="48.83402" lon="2.33346">
        <ele>107.5</ele>
        <time>2015-02-02T19:47:06.624Z</time>
      </trkpt>
      <trkpt lat="48.834" lon="2.33346">
        <ele>107.4</ele>
        <time>2015-02-02T19:47:07.543Z</time>
      </trkpt>
      <trkpt lat="48.83393" lon="2.33355">
        <ele>106.5</ele>
        <time>2015-02-02T19:47:12.546Z</time>
      </trkpt>
      <trkpt lat="48.83391" lon="2.33356">
        <ele>106.5</ele>
        <time>2015-02-02T19:47:13.601Z</time>
      </trkpt>
      <trkpt lat="48.83383" lon="2.33356">
        <ele>106.2</ele>
        <time>2015-02-02T19:47:17.622Z</time>
      </trkpt>
      <trkpt lat="48.83381" lon="2.33355">
        <ele>106.4</ele>
        <time>2015-02-02T19:47:18.545Z</time>
      </trkpt>
      <trkpt lat="48.83372" lon="2.33352">
        <ele>107.3</ele>
        <time>2015-02-02T19:47:22.630Z</time>
      </trkpt>
      <trkpt lat="48.8337" lon="2.33351">
        <ele>107.4</ele>
        <time>2015-02-02T19:47:23.530Z</time>
      </trkpt>
      <trkpt lat="48.83362" lon="2.33345">
        <ele>108</ele>
        <time>2015-02-02T19:47:27.580Z</time>
      </trkpt>
      <trkpt lat="48.83359" lon="2.33344">
        <ele>107.8</ele>
        <time>2015-02-02T19:47:28.668Z</time>
      </trkpt>
      <trkpt lat="48.83351" lon="2.33338">
        <ele>107.7</ele>
        <time>2015-02-02T19:47:31.545Z</time>
      </trkpt>
      <trkpt lat="48.83348" lon="2.33336">
        <ele>107.7</ele>
        <time>2015-02-02T19:47:32.549Z</time>
      </trkpt>
      <trkpt lat="48.8334" lon="2.33332">
        <ele>107.8</ele>
        <time>2015-02-02T19:47:35.541Z</time>
      </trkpt>
      <trkpt lat="48.83338" lon="2.3333">
        <ele>107.8</ele>
        <time>2015-02-02T19:47:36.542Z</time>
      </trkpt>
      <trkpt lat="48.8333" lon="2.33325">
        <ele>107.8</ele>
        <time>2015-02-02T19:47:40.624Z</time>
      </trkpt>
      <trkpt lat="48.83328" lon="2.33324">
        <ele>107.6</ele>
        <time>2015-02-02T19:47:41.509Z</time>
      </trkpt>
      <trkpt lat="48.83324" lon="2.33314">
        <ele>108.8</ele>
        <time>2015-02-02T19:47:46.663Z</time>
      </trkpt>
      <trkpt lat="48.83322" lon="2.33312">
        <ele>108.9</ele>
        <time>2015-02-02T19:47:47.511Z</time>
      </trkpt>
      <trkpt lat="48.83319" lon="2.33299">
        <ele>109.6</ele>
        <time>2015-02-02T19:47:52.636Z</time>
      </trkpt>
      <trkpt lat="48.83319" lon="2.33297">
        <ele>109.8</ele>
        <time>2015-02-02T19:47:53.540Z</time>
      </trkpt>
      <trkpt lat="48.83322" lon="2.33293">
        <ele>108.9</ele>
        <time>2015-02-02T19:47:58.638Z</time>
      </trkpt>
      <trkpt lat="48.83321" lon="2.33291">
        <ele>109.4</ele>
        <time>2015-02-02T19:47:59.541Z</time>
      </trkpt>
      <trkpt lat="48.83321" lon="2.33291">
        <ele>109.5</ele>
        <time>2015-02-02T19:48:25.520Z</time>
      </trkpt>
      <trkpt lat="48.83319" lon="2.33289">
        <ele>109.7</ele>
        <time>2015-02-02T19:48:26.534Z</time>
      </trkpt>
      <trkpt lat="48.83313" lon="2.33281">
        <ele>108.5</ele>
        <time>2015-02-02T19:48:30.524Z</time>
      </trkpt>
      <trkpt lat="48.8331" lon="2.33279">
        <ele>108.2</ele>
        <time>2015-02-02T19:48:31.521Z</time>
      </trkpt>
      <trkpt lat="48.83304" lon="2.33275">
        <ele>107.7</ele>
        <time>2015-02-02T19:48:36.524Z</time>
      </trkpt>
      <trkpt lat="48.83302" lon="2.33275">
        <ele>107.7</ele>
        <time>2015-02-02T19:48:37.526Z</time>
      </trkpt>
      <trkpt lat="48.83295" lon="2.33275">
        <ele>107.5</ele>
        <time>2015-02-02T19:48:39.586Z</time>
      </trkpt>
      <trkpt lat="48.83291" lon="2.33275">
        <ele>106.7</ele>
        <time>2015-02-02T19:48:40.592Z</time>
      </trkpt>
      <trkpt lat="48.83286" lon="2.33275">
        <ele>105.9</ele>
        <time>2015-02-02T19:48:41.515Z</time>
      </trkpt>
      <trkpt lat="48.83281" lon="2.33274">
        <ele>105.2</ele>
        <time>2015-02-02T19:48:42.521Z</time>
      </trkpt>
      <trkpt lat="48.83273" lon="2.33271">
        <ele>104.2</ele>
        <time>2015-02-02T19:48:44.559Z</time>
      </trkpt>
      <trkpt lat="48.83269" lon="2.3327">
        <ele>103.8</ele>
        <time>2015-02-02T19:48:45.581Z</time>
      </trkpt>
      <trkpt lat="48.83265" lon="2.33269">
        <ele>103.5</ele>
        <time>2015-02-02T19:48:46.612Z</time>
      </trkpt>
      <trkpt lat="48.8326" lon="2.33269">
        <ele>103.1</ele>
        <time>2015-02-02T19:48:47.521Z</time>
      </trkpt>
      <trkpt lat="48.83255" lon="2.33272">
        <ele>103</ele>
        <time>2015-02-02T19:48:48.585Z</time>
      </trkpt>
      <trkpt lat="48.83251" lon="2.33275">
        <ele>102.9</ele>
        <time>2015-02-02T19:48:49.559Z</time>
      </trkpt>
      <trkpt lat="48.83242" lon="2.33279">
        <ele>102.7</ele>
        <time>2015-02-02T19:48:51.532Z</time>
      </trkpt>
      <trkpt lat="48.83238" lon="2.33282">
        <ele>102.7</ele>
        <time>2015-02-02T19:48:52.566Z</time>
      </trkpt>
      <trkpt lat="48.83232" lon="2.33284">
        <ele>102.6</ele>
        <time>2015-02-02T19:48:53.590Z</time>
      </trkpt>
      <trkpt lat="48.83227" lon="2.33288">
        <ele>102.7</ele>
        <time>2015-02-02T19:48:54.595Z</time>
      </trkpt>
      <trkpt lat="48.83222" lon="2.33292">
        <ele>103</ele>
        <time>2015-02-02T19:48:55.529Z</time>
      </trkpt>
      <trkpt lat="48.83218" lon="2.33296">
        <ele>103</ele>
        <time>2015-02-02T19:48:56.541Z</time>
      </trkpt>
      <trkpt lat="48.83213" lon="2.333">
        <ele>103.1</ele>
        <time>2015-02-02T19:48:57.584Z</time>
      </trkpt>
      <trkpt lat="48.83208" lon="2.33304">
        <ele>103.1</ele>
        <time>2015-02-02T19:48:58.593Z</time>
      </trkpt>
      <trkpt lat="48.83204" lon="2.33306">
        <ele>103.1</ele>
        <time>2015-02-02T19:48:59.633Z</time>
      </trkpt>
      <trkpt lat="48.832" lon="2.33309">
        <ele>103</ele>
        <time>2015-02-02T19:49:00.504Z</time>
      </trkpt>
      <trkpt lat="48.83196" lon="2.33312">
        <ele>103.1</ele>
        <time>2015-02-02T19:49:01.546Z</time>
      </trkpt>
      <trkpt lat="48.83191" lon="2.33314">
        <ele>103</ele>
        <time>2015-02-02T19:49:02.553Z</time>
      </trkpt>
      <trkpt lat="48.83184" lon="2.33317">
        <ele>103.1</ele>
        <time>2015-02-02T19:49:04.626Z</time>
      </trkpt>
      <trkpt lat="48.83181" lon="2.3332">
        <ele>103.1</ele>
        <time>2015-02-02T19:49:05.597Z</time>
      </trkpt>
      <trkpt lat="48.83174" lon="2.33321">
        <ele>103.4</ele>
        <time>2015-02-02T19:49:07.586Z</time>
      </trkpt>
      <trkpt lat="48.8317" lon="2.33321">
        <ele>103.8</ele>
        <time>2015-02-02T19:49:08.573Z</time>
      </trkpt>
      <trkpt lat="48.83166" lon="2.3332">
        <ele>104</ele>
        <time>2015-02-02T19:49:09.605Z</time>
      </trkpt>
      <trkpt lat="48.8316" lon="2.3332">
        <ele>103.5</ele>
        <time>2015-02-02T19:49:10.633Z</time>
      </trkpt>
      <trkpt lat="48.83154" lon="2.33321">
        <ele>103.5</ele>
        <time>2015-02-02T19:49:11.518Z</time>
      </trkpt>
      <trkpt lat="48.83149" lon="2.33322">
        <ele>103.4</ele>
        <time>2015-02-02T19:49:12.519Z</time>
      </trkpt>
      <trkpt lat="48.83143" lon="2.33324">
        <ele>103.1</ele>
        <time>2015-02-02T19:49:13.542Z</time>
      </trkpt>
      <trkpt lat="48.83138" lon="2.33326">
        <ele>102.9</ele>
        <time>2015-02-02T19:49:14.557Z</time>
      </trkpt>
      <trkpt lat="48.83132" lon="2.3333">
        <ele>102.8</ele>
        <time>2015-02-02T19:49:15.566Z</time>
      </trkpt>
      <trkpt lat="48.83127" lon="2.33336">
        <ele>102.9</ele>
        <time>2015-02-02T19:49:16.606Z</time>
      </trkpt>
      <trkpt lat="48.83121" lon="2.33344">
        <ele>102.9</ele>
        <time>2015-02-02T19:49:17.586Z</time>
      </trkpt>
      <trkpt lat="48.83116" lon="2.33351">
        <ele>102.9</ele>
        <time>2015-02-02T19:49:18.605Z</time>
      </trkpt>
      <trkpt lat="48.8311" lon="2.33359">
        <ele>103.1</ele>
        <time>2015-02-02T19:49:19.526Z</time>
      </trkpt>
      <trkpt lat="48.83104" lon="2.33366">
        <ele>103</ele>
        <time>2015-02-02T19:49:20.537Z</time>
      </trkpt>
      <trkpt lat="48.83099" lon="2.33372">
        <ele>102.9</ele>
        <time>2015-02-02T19:49:21.632Z</time>
      </trkpt>
      <trkpt lat="48.83094" lon="2.33376">
        <ele>102.8</ele>
        <time>2015-02-02T19:49:22.655Z</time>
      </trkpt>
      <trkpt lat="48.8309" lon="2.33379">
        <ele>103</ele>
        <time>2015-02-02T19:49:23.561Z</time>
      </trkpt>
      <trkpt lat="48.83085" lon="2.33382">
        <ele>102.9</ele>
        <time>2015-02-02T19:49:24.572Z</time>
      </trkpt>
      <trkpt lat="48.8308" lon="2.33385">
        <ele>102.9</ele>
        <time>2015-02-02T19:49:25.583Z</time>
      </trkpt>
      <trkpt lat="48.83075" lon="2.33386">
        <ele>102.7</ele>
        <time>2015-02-02T19:49:26.615Z</time>
      </trkpt>
      <trkpt lat="48.8307" lon="2.33386">
        <ele>102.5</ele>
        <time>2015-02-02T19:49:27.531Z</time>
      </trkpt>
      <trkpt lat="48.83066" lon="2.33387">
        <ele>102.4</ele>
        <time>2015-02-02T19:49:28.565Z</time>
      </trkpt>
      <trkpt lat="48.83058" lon="2.33388">
        <ele>102.7</ele>
        <time>2015-02-02T19:49:30.540Z</time>
      </trkpt>
      <trkpt lat="48.83053" lon="2.33387">
        <ele>103.2</ele>
        <time>2015-02-02T19:49:31.557Z</time>
      </trkpt>
      <trkpt lat="48.83045" lon="2.33386">
        <ele>103.9</ele>
        <time>2015-02-02T19:49:33.525Z</time>
      </trkpt>
      <trkpt lat="48.83042" lon="2.33388">
        <ele>104.2</ele>
        <time>2015-02-02T19:49:34.582Z</time>
      </trkpt>
      <trkpt lat="48.83034" lon="2.33392">
        <ele>104.7</ele>
        <time>2015-02-02T19:49:36.506Z</time>
      </trkpt>
      <trkpt lat="48.83029" lon="2.33394">
        <ele>105</ele>
        <time>2015-02-02T19:49:37.548Z</time>
      </trkpt>
      <trkpt lat="48.83024" lon="2.33396">
        <ele>105.3</ele>
        <time>2015-02-02T19:49:38.563Z</time>
      </trkpt>
      <trkpt lat="48.8302" lon="2.33398">
        <ele>105.5</ele>
        <time>2015-02-02T19:49:39.604Z</time>
      </trkpt>
      <trkpt lat="48.83012" lon="2.33399">
        <ele>106.4</ele>
        <time>2015-02-02T19:49:41.590Z</time>
      </trkpt>
      <trkpt lat="48.83009" lon="2.33399">
        <ele>106.7</ele>
        <time>2015-02-02T19:49:42.521Z</time>
      </trkpt>
      <trkpt lat="48.83004" lon="2.33399">
        <ele>106.8</ele>
        <time>2015-02-02T19:49:43.541Z</time>
      </trkpt>
      <trkpt lat="48.82999" lon="2.334">
        <ele>106.8</ele>
        <time>2015-02-02T19:49:44.546Z</time>
      </trkpt>
      <trkpt lat="48.82994" lon="2.334">
        <ele>106.7</ele>
        <time>2015-02-02T19:49:45.565Z</time>
      </trkpt>
      <trkpt lat="48.8299" lon="2.33401">
        <ele>106.7</ele>
        <time>2015-02-02T19:49:46.582Z</time>
      </trkpt>
      <trkpt lat="48.82982" lon="2.33405">
        <ele>107.2</ele>
        <time>2015-02-02T19:49:48.599Z</time>
      </trkpt>
      <trkpt lat="48.82978" lon="2.33408">
        <ele>107.4</ele>
        <time>2015-02-02T19:49:49.517Z</time>
      </trkpt>
      <trkpt lat="48.82972" lon="2.33414">
        <ele>107.5</ele>
        <time>2015-02-02T19:49:51.504Z</time>
      </trkpt>
      <trkpt lat="48.82969" lon="2.33417">
        <ele>107.7</ele>
        <time>2015-02-02T19:49:52.559Z</time>
      </trkpt>
      <trkpt lat="48.82961" lon="2.33421">
        <ele>107.8</ele>
        <time>2015-02-02T19:49:54.547Z</time>
      </trkpt>
      <trkpt lat="48.82957" lon="2.33424">
        <ele>107.8</ele>
        <time>2015-02-02T19:49:55.580Z</time>
      </trkpt>
      <trkpt lat="48.82953" lon="2.33426">
        <ele>107.9</ele>
        <time>2015-02-02T19:49:56.507Z</time>
      </trkpt>
      <trkpt lat="48.82948" lon="2.3343">
        <ele>107.8</ele>
        <time>2015-02-02T19:49:57.509Z</time>
      </trkpt>
      <trkpt lat="48.82943" lon="2.33433">
        <ele>107.7</ele>
        <time>2015-02-02T19:49:58.536Z</time>
      </trkpt>
      <trkpt lat="48.82938" lon="2.33436">
        <ele>107.7</ele>
        <time>2015-02-02T19:49:59.541Z</time>
      </trkpt>
      <trkpt lat="48.82934" lon="2.33439">
        <ele>107.6</ele>
        <time>2015-02-02T19:50:00.547Z</time>
      </trkpt>
      <trkpt lat="48.82929" lon="2.33441">
        <ele>107.5</ele>
        <time>2015-02-02T19:50:01.563Z</time>
      </trkpt>
      <trkpt lat="48.82924" lon="2.33442">
        <ele>107.5</ele>
        <time>2015-02-02T19:50:02.506Z</time>
      </trkpt>
      <trkpt lat="48.8292" lon="2.33444">
        <ele>107.5</ele>
        <time>2015-02-02T19:50:03.505Z</time>
      </trkpt>
      <trkpt lat="48.82911" lon="2.33447">
        <ele>107.5</ele>
        <time>2015-02-02T19:50:05.573Z</time>
      </trkpt>
      <trkpt lat="48.82907" lon="2.33449">
        <ele>107.7</ele>
        <time>2015-02-02T19:50:06.613Z</time>
      </trkpt>
      <trkpt lat="48.82899" lon="2.33453">
        <ele>108.4</ele>
        <time>2015-02-02T19:50:08.526Z</time>
      </trkpt>
      <trkpt lat="48.82895" lon="2.33456">
        <ele>108.6</ele>
        <time>2015-02-02T19:50:09.593Z</time>
      </trkpt>
      <trkpt lat="48.8289" lon="2.3346">
        <ele>108.9</ele>
        <time>2015-02-02T19:50:10.632Z</time>
      </trkpt>
      <trkpt lat="48.82886" lon="2.33464">
        <ele>109.2</ele>
        <time>2015-02-02T19:50:11.533Z</time>
      </trkpt>
      <trkpt lat="48.82882" lon="2.33468">
        <ele>109.3</ele>
        <time>2015-02-02T19:50:12.550Z</time>
      </trkpt>
      <trkpt lat="48.82877" lon="2.3347">
        <ele>109.6</ele>
        <time>2015-02-02T19:50:13.549Z</time>
      </trkpt>
      <trkpt lat="48.82873" lon="2.33472">
        <ele>109.7</ele>
        <time>2015-02-02T19:50:14.569Z</time>
      </trkpt>
      <trkpt lat="48.82869" lon="2.33474">
        <ele>109.8</ele>
        <time>2015-02-02T19:50:15.573Z</time>
      </trkpt>
      <trkpt lat="48.82861" lon="2.33475">
        <ele>110.4</ele>
        <time>2015-02-02T19:50:17.593Z</time>
      </trkpt>
      <trkpt lat="48.82857" lon="2.33475">
        <ele>110.6</ele>
        <time>2015-02-02T19:50:18.508Z</time>
      </trkpt>
      <trkpt lat="48.82849" lon="2.33478">
        <ele>110.8</ele>
        <time>2015-02-02T19:50:20.522Z</time>
      </trkpt>
      <trkpt lat="48.82845" lon="2.3348">
        <ele>111.1</ele>
        <time>2015-02-02T19:50:21.538Z</time>
      </trkpt>
      <trkpt lat="48.82839" lon="2.33483">
        <ele>111.1</ele>
        <time>2015-02-02T19:50:22.572Z</time>
      </trkpt>
      <trkpt lat="48.82834" lon="2.33485">
        <ele>111.1</ele>
        <time>2015-02-02T19:50:23.589Z</time>
      </trkpt>
      <trkpt lat="48.82826" lon="2.33486">
        <ele>110.6</ele>
        <time>2015-02-02T19:50:24.690Z</time>
      </trkpt>
      <trkpt lat="48.82817" lon="2.33487">
        <ele>110.4</ele>
        <time>2015-02-02T19:50:25.528Z</time>
      </trkpt>
      <trkpt lat="48.82811" lon="2.33488">
        <ele>110.2</ele>
        <time>2015-02-02T19:50:26.567Z</time>
      </trkpt>
      <trkpt lat="48.82805" lon="2.33489">
        <ele>110</ele>
        <time>2015-02-02T19:50:27.572Z</time>
      </trkpt>
      <trkpt lat="48.82798" lon="2.33489">
        <ele>109.6</ele>
        <time>2015-02-02T19:50:28.596Z</time>
      </trkpt>
      <trkpt lat="48.82793" lon="2.3349">
        <ele>109.5</ele>
        <time>2015-02-02T19:50:29.510Z</time>
      </trkpt>
      <trkpt lat="48.82787" lon="2.3349">
        <ele>109.1</ele>
        <time>2015-02-02T19:50:30.509Z</time>
      </trkpt>
      <trkpt lat="48.82783" lon="2.3349">
        <ele>108.9</ele>
        <time>2015-02-02T19:50:31.522Z</time>
      </trkpt>
      <trkpt lat="48.82774" lon="2.33493">
        <ele>108</ele>
        <time>2015-02-02T19:50:33.547Z</time>
      </trkpt>
      <trkpt lat="48.8277" lon="2.33496">
        <ele>107.5</ele>
        <time>2015-02-02T19:50:34.649Z</time>
      </trkpt>
      <trkpt lat="48.82761" lon="2.33496">
        <ele>107.4</ele>
        <time>2015-02-02T19:50:36.512Z</time>
      </trkpt>
      <trkpt lat="48.82757" lon="2.33496">
        <ele>107.3</ele>
        <time>2015-02-02T19:50:37.541Z</time>
      </trkpt>
      <trkpt lat="48.82749" lon="2.33498">
        <ele>107.6</ele>
        <time>2015-02-02T19:50:39.505Z</time>
      </trkpt>
      <trkpt lat="48.82745" lon="2.33498">
        <ele>108.2</ele>
        <time>2015-02-02T19:50:40.550Z</time>
      </trkpt>
      <trkpt lat="48.82738" lon="2.33502">
        <ele>110.1</ele>
        <time>2015-02-02T19:50:42.565Z</time>
      </trkpt>
      <trkpt lat="48.82736" lon="2.33502">
        <ele>110.3</ele>
        <time>2015-02-02T19:50:43.584Z</time>
      </trkpt>
      <trkpt lat="48.82732" lon="2.33496">
        <ele>112.6</ele>
        <time>2015-02-02T19:50:49.527Z</time>
      </trkpt>
      <trkpt lat="48.82732" lon="2.33497">
        <ele>112.8</ele>
        <time>2015-02-02T19:50:50.561Z</time>
      </trkpt>
      <trkpt lat="48.82731" lon="2.33498">
        <ele>112.9</ele>
        <time>2015-02-02T19:50:51.599Z</time>
      </trkpt>
      <trkpt lat="48.82724" lon="2.33504">
        <ele>113.9</ele>
        <time>2015-02-02T19:50:58.606Z</time>
      </trkpt>
      <trkpt lat="48.82722" lon="2.33505">
        <ele>114</ele>
        <time>2015-02-02T19:50:59.527Z</time>
      </trkpt>
      <trkpt lat="48.8272" lon="2.33505">
        <ele>114.1</ele>
        <time>2015-02-02T19:51:04.408Z</time>
      </trkpt>
      <trkpt lat="48.8272" lon="2.33505">
        <ele>114.3</ele>
        <time>2015-02-02T19:51:04.599Z</time>
      </trkpt>
      <trkpt lat="48.82721" lon="2.33506">
        <ele>114.4</ele>
        <time>2015-02-02T19:51:14.503Z</time>
      </trkpt>
      <trkpt lat="48.8272" lon="2.33507">
        <ele>116.4</ele>
        <time>2015-02-02T19:51:15.545Z</time>
      </trkpt>
      <trkpt lat="48.82719" lon="2.33494">
        <ele>115</ele>
        <time>2015-02-02T19:51:21.877Z</time>
      </trkpt>
      <trkpt lat="48.82718" lon="2.33493">
        <ele>114.8</ele>
        <time>2015-02-02T19:51:22.549Z</time>
      </trkpt>
      <trkpt lat="48.8271" lon="2.33492">
        <ele>114.5</ele>
        <time>2015-02-02T19:51:30.625Z</time>
      </trkpt>
      <trkpt lat="48.82707" lon="2.33493">
        <ele>114.7</ele>
        <time>2015-02-02T19:51:32.541Z</time>
      </trkpt>
      <trkpt lat="48.82701" lon="2.33496">
        <ele>114.4</ele>
        <time>2015-02-02T19:51:36.937Z</time>
      </trkpt>
      <trkpt lat="48.82698" lon="2.33496">
        <ele>114.4</ele>
        <time>2015-02-02T19:51:37.586Z</time>
      </trkpt>
      <trkpt lat="48.82692" lon="2.33494">
        <ele>114.6</ele>
        <time>2015-02-02T19:51:40.545Z</time>
      </trkpt>
      <trkpt lat="48.82689" lon="2.33493">
        <ele>114.6</ele>
        <time>2015-02-02T19:51:41.610Z</time>
      </trkpt>
      <trkpt lat="48.82683" lon="2.33487">
        <ele>113.6</ele>
        <time>2015-02-02T19:51:43.556Z</time>
      </trkpt>
      <trkpt lat="48.82681" lon="2.33485">
        <ele>113.5</ele>
        <time>2015-02-02T19:51:44.564Z</time>
      </trkpt>
      <trkpt lat="48.82675" lon="2.33478">
        <ele>113</ele>
        <time>2015-02-02T19:51:48.043Z</time>
      </trkpt>
      <trkpt lat="48.82674" lon="2.33473">
        <ele>112.4</ele>
        <time>2015-02-02T19:51:48.530Z</time>
      </trkpt>
      <trkpt lat="48.82669" lon="2.33467">
        <ele>111.1</ele>
        <time>2015-02-02T19:51:51.581Z</time>
      </trkpt>
      <trkpt lat="48.82663" lon="2.33467">
        <ele>109.4</ele>
        <time>2015-02-02T19:51:52.601Z</time>
      </trkpt>
      <trkpt lat="48.82654" lon="2.33467">
        <ele>107.8</ele>
        <time>2015-02-02T19:51:54.600Z</time>
      </trkpt>
      <trkpt lat="48.82651" lon="2.33467">
        <ele>107.1</ele>
        <time>2015-02-02T19:51:55.546Z</time>
      </trkpt>
      <trkpt lat="48.82644" lon="2.33468">
        <ele>106.3</ele>
        <time>2015-02-02T19:51:58.084Z</time>
      </trkpt>
      <trkpt lat="48.8264" lon="2.33467">
        <ele>105.9</ele>
        <time>2015-02-02T19:51:58.586Z</time>
      </trkpt>
      <trkpt lat="48.82633" lon="2.33467">
        <ele>105.6</ele>
        <time>2015-02-02T19:52:00.483Z</time>
      </trkpt>
      <trkpt lat="48.82629" lon="2.33467">
        <ele>105.3</ele>
        <time>2015-02-02T19:52:01.486Z</time>
      </trkpt>
      <trkpt lat="48.82621" lon="2.33466">
        <ele>104.6</ele>
        <time>2015-02-02T19:52:03.590Z</time>
      </trkpt>
      <trkpt lat="48.82617" lon="2.33466">
        <ele>104.5</ele>
        <time>2015-02-02T19:52:04.612Z</time>
      </trkpt>
      <trkpt lat="48.82611" lon="2.33463">
        <ele>104.6</ele>
        <time>2015-02-02T19:52:06.513Z</time>
      </trkpt>
      <trkpt lat="48.82608" lon="2.33462">
        <ele>104.7</ele>
        <time>2015-02-02T19:52:07.524Z</time>
      </trkpt>
      <trkpt lat="48.826" lon="2.33457">
        <ele>105</ele>
        <time>2015-02-02T19:52:10.523Z</time>
      </trkpt>
      <trkpt lat="48.82597" lon="2.33456">
        <ele>105.2</ele>
        <time>2015-02-02T19:52:11.510Z</time>
      </trkpt>
      <trkpt lat="48.82594" lon="2.33455">
        <ele>105.2</ele>
        <time>2015-02-02T19:52:13.552Z</time>
      </trkpt>
      <trkpt lat="48.82586" lon="2.33453">
        <ele>105.2</ele>
        <time>2015-02-02T19:52:15.516Z</time>
      </trkpt>
      <trkpt lat="48.82579" lon="2.33453">
        <ele>104.8</ele>
        <time>2015-02-02T19:52:18.573Z</time>
      </trkpt>
      <trkpt lat="48.82577" lon="2.33453">
        <ele>104.8</ele>
        <time>2015-02-02T19:52:19.534Z</time>
      </trkpt>
      <trkpt lat="48.82576" lon="2.33452">
        <ele>104</ele>
        <time>2015-02-02T19:52:23.768Z</time>
      </trkpt>
      <trkpt lat="48.82576" lon="2.33451">
        <ele>103.9</ele>
        <time>2015-02-02T19:52:24.601Z</time>
      </trkpt>
      <trkpt lat="48.82576" lon="2.33451">
        <ele>103.9</ele>
        <time>2015-02-02T19:52:31.599Z</time>
      </trkpt>
      <trkpt lat="48.82575" lon="2.33454">
        <ele>104</ele>
        <time>2015-02-02T19:52:32.570Z</time>
      </trkpt>
      <trkpt lat="48.82571" lon="2.33465">
        <ele>105.4</ele>
        <time>2015-02-02T19:52:41.534Z</time>
      </trkpt>
      <trkpt lat="48.8257" lon="2.33468">
        <ele>105.9</ele>
        <time>2015-02-02T19:52:42.654Z</time>
      </trkpt>
      <trkpt lat="48.82567" lon="2.33479">
        <ele>106.4</ele>
        <time>2015-02-02T19:52:46.575Z</time>
      </trkpt>
      <trkpt lat="48.82565" lon="2.33482">
        <ele>106.4</ele>
        <time>2015-02-02T19:52:47.587Z</time>
      </trkpt>
      <trkpt lat="48.82561" lon="2.33494">
        <ele>106.8</ele>
        <time>2015-02-02T19:52:50.586Z</time>
      </trkpt>
      <trkpt lat="48.82561" lon="2.33498">
        <ele>106.8</ele>
        <time>2015-02-02T19:52:51.597Z</time>
      </trkpt>
      <trkpt lat="48.82559" lon="2.33509">
        <ele>107.1</ele>
        <time>2015-02-02T19:52:54.565Z</time>
      </trkpt>
      <trkpt lat="48.82558" lon="2.33513">
        <ele>107</ele>
        <time>2015-02-02T19:52:55.578Z</time>
      </trkpt>
      <trkpt lat="48.82553" lon="2.33518">
        <ele>106.6</ele>
        <time>2015-02-02T19:52:58.566Z</time>
      </trkpt>
      <trkpt lat="48.82549" lon="2.33519">
        <ele>106.6</ele>
        <time>2015-02-02T19:52:59.581Z</time>
      </trkpt>
      <trkpt lat="48.82541" lon="2.33519">
        <ele>106.5</ele>
        <time>2015-02-02T19:53:01.519Z</time>
      </trkpt>
      <trkpt lat="48.82537" lon="2.33519">
        <ele>106.5</ele>
        <time>2015-02-02T19:53:02.548Z</time>
      </trkpt>
      <trkpt lat="48.82532" lon="2.3352">
        <ele>106.4</ele>
        <time>2015-02-02T19:53:03.561Z</time>
      </trkpt>
      <trkpt lat="48.82527" lon="2.3352">
        <ele>106.3</ele>
        <time>2015-02-02T19:53:04.621Z</time>
      </trkpt>
      <trkpt lat="48.82522" lon="2.33522">
        <ele>106.5</ele>
        <time>2015-02-02T19:53:05.515Z</time>
      </trkpt>
      <trkpt lat="48.82517" lon="2.33525">
        <ele>106.6</ele>
        <time>2015-02-02T19:53:06.519Z</time>
      </trkpt>
      <trkpt lat="48.82512" lon="2.33528">
        <ele>106.7</ele>
        <time>2015-02-02T19:53:07.523Z</time>
      </trkpt>
      <trkpt lat="48.82507" lon="2.3353">
        <ele>106.9</ele>
        <time>2015-02-02T19:53:08.547Z</time>
      </trkpt>
      <trkpt lat="48.82501" lon="2.33533">
        <ele>106.9</ele>
        <time>2015-02-02T19:53:09.542Z</time>
      </trkpt>
      <trkpt lat="48.82496" lon="2.33535">
        <ele>106.9</ele>
        <time>2015-02-02T19:53:10.553Z</time>
      </trkpt>
      <trkpt lat="48.8249" lon="2.33536">
        <ele>107.1</ele>
        <time>2015-02-02T19:53:11.567Z</time>
      </trkpt>
      <trkpt lat="48.82485" lon="2.33538">
        <ele>107.2</ele>
        <time>2015-02-02T19:53:12.580Z</time>
      </trkpt>
      <trkpt lat="48.8248" lon="2.3354">
        <ele>107.4</ele>
        <time>2015-02-02T19:53:13.602Z</time>
      </trkpt>
      <trkpt lat="48.82474" lon="2.33542">
        <ele>107.4</ele>
        <time>2015-02-02T19:53:14.607Z</time>
      </trkpt>
      <trkpt lat="48.82469" lon="2.33546">
        <ele>107.5</ele>
        <time>2015-02-02T19:53:15.586Z</time>
      </trkpt>
      <trkpt lat="48.82464" lon="2.33549">
        <ele>107.6</ele>
        <time>2015-02-02T19:53:16.562Z</time>
      </trkpt>
      <trkpt lat="48.8246" lon="2.33553">
        <ele>107.6</ele>
        <time>2015-02-02T19:53:17.526Z</time>
      </trkpt>
      <trkpt lat="48.82456" lon="2.33557">
        <ele>107.7</ele>
        <time>2015-02-02T19:53:18.535Z</time>
      </trkpt>
      <trkpt lat="48.82449" lon="2.33562">
        <ele>108.1</ele>
        <time>2015-02-02T19:53:20.547Z</time>
      </trkpt>
      <trkpt lat="48.82446" lon="2.33564">
        <ele>108.1</ele>
        <time>2015-02-02T19:53:21.574Z</time>
      </trkpt>
      <trkpt lat="48.82437" lon="2.33567">
        <ele>108</ele>
        <time>2015-02-02T19:53:24.522Z</time>
      </trkpt>
      <trkpt lat="48.82434" lon="2.33568">
        <ele>107.9</ele>
        <time>2015-02-02T19:53:25.525Z</time>
      </trkpt>
      <trkpt lat="48.82429" lon="2.33562">
        <ele>109.9</ele>
        <time>2015-02-02T19:53:31.515Z</time>
      </trkpt>
      <trkpt lat="48.82427" lon="2.33559">
        <ele>110.6</ele>
        <time>2015-02-02T19:53:32.582Z</time>
      </trkpt>
      <trkpt lat="48.82424" lon="2.33549">
        <ele>111.5</ele>
        <time>2015-02-02T19:53:34.623Z</time>
      </trkpt>
      <trkpt lat="48.82422" lon="2.33544">
        <ele>111.6</ele>
        <time>2015-02-02T19:53:35.512Z</time>
      </trkpt>
      <trkpt lat="48.82421" lon="2.33537">
        <ele>111.9</ele>
        <time>2015-02-02T19:53:36.535Z</time>
      </trkpt>
      <trkpt lat="48.82419" lon="2.33531">
        <ele>112</ele>
        <time>2015-02-02T19:53:37.587Z</time>
      </trkpt>
      <trkpt lat="48.82417" lon="2.33518">
        <ele>111.8</ele>
        <time>2015-02-02T19:53:39.507Z</time>
      </trkpt>
      <trkpt lat="48.82416" lon="2.33512">
        <ele>111.8</ele>
        <time>2015-02-02T19:53:40.652Z</time>
      </trkpt>
      <trkpt lat="48.82415" lon="2.33506">
        <ele>111.9</ele>
        <time>2015-02-02T19:53:41.506Z</time>
      </trkpt>
      <trkpt lat="48.82414" lon="2.33499">
        <ele>111.8</ele>
        <time>2015-02-02T19:53:42.547Z</time>
      </trkpt>
      <trkpt lat="48.82412" lon="2.33492">
        <ele>112</ele>
        <time>2015-02-02T19:53:43.521Z</time>
      </trkpt>
      <trkpt lat="48.8241" lon="2.33485">
        <ele>112.1</ele>
        <time>2015-02-02T19:53:44.574Z</time>
      </trkpt>
      <trkpt lat="48.82408" lon="2.33478">
        <ele>112.2</ele>
        <time>2015-02-02T19:53:45.978Z</time>
      </trkpt>
      <trkpt lat="48.82406" lon="2.33472">
        <ele>112.3</ele>
        <time>2015-02-02T19:53:46.548Z</time>
      </trkpt>
      <trkpt lat="48.82404" lon="2.33461">
        <ele>112.6</ele>
        <time>2015-02-02T19:53:48.563Z</time>
      </trkpt>
      <trkpt lat="48.82403" lon="2.33456">
        <ele>112.8</ele>
        <time>2015-02-02T19:53:49.572Z</time>
      </trkpt>
      <trkpt lat="48.82401" lon="2.33443">
        <ele>113.3</ele>
        <time>2015-02-02T19:53:51.514Z</time>
      </trkpt>
      <trkpt lat="48.82398" lon="2.33436">
        <ele>113.4</ele>
        <time>2015-02-02T19:53:52.574Z</time>
      </trkpt>
      <trkpt lat="48.82396" lon="2.3343">
        <ele>113.5</ele>
        <time>2015-02-02T19:53:53.482Z</time>
      </trkpt>
      <trkpt lat="48.82393" lon="2.33424">
        <ele>113.7</ele>
        <time>2015-02-02T19:53:54.511Z</time>
      </trkpt>
      <trkpt lat="48.82392" lon="2.33417">
        <ele>113.9</ele>
        <time>2015-02-02T19:53:55.506Z</time>
      </trkpt>
      <trkpt lat="48.8239" lon="2.3341">
        <ele>113.9</ele>
        <time>2015-02-02T19:53:56.517Z</time>
      </trkpt>
      <trkpt lat="48.82389" lon="2.33401">
        <ele>113.4</ele>
        <time>2015-02-02T19:53:58.246Z</time>
      </trkpt>
      <trkpt lat="48.82388" lon="2.33394">
        <ele>113.5</ele>
        <time>2015-02-02T19:53:58.537Z</time>
      </trkpt>
      <trkpt lat="48.82387" lon="2.3338">
        <ele>113.5</ele>
        <time>2015-02-02T19:54:00.497Z</time>
      </trkpt>
      <trkpt lat="48.82386" lon="2.33372">
        <ele>113.1</ele>
        <time>2015-02-02T19:54:01.581Z</time>
      </trkpt>
      <trkpt lat="48.82384" lon="2.33365">
        <ele>112.8</ele>
        <time>2015-02-02T19:54:03.303Z</time>
      </trkpt>
      <trkpt lat="48.82382" lon="2.33358">
        <ele>112.3</ele>
        <time>2015-02-02T19:54:03.485Z</time>
      </trkpt>
      <trkpt lat="48.82381" lon="2.33352">
        <ele>112.1</ele>
        <time>2015-02-02T19:54:04.556Z</time>
      </trkpt>
      <trkpt lat="48.8238" lon="2.33344">
        <ele>111.8</ele>
        <time>2015-02-02T19:54:05.613Z</time>
      </trkpt>
      <trkpt lat="48.8238" lon="2.33336">
        <ele>111.2</ele>
        <time>2015-02-02T19:54:06.601Z</time>
      </trkpt>
      <trkpt lat="48.82379" lon="2.33328">
        <ele>110.9</ele>
        <time>2015-02-02T19:54:07.623Z</time>
      </trkpt>
      <trkpt lat="48.82378" lon="2.33319">
        <ele>110.8</ele>
        <time>2015-02-02T19:54:08.475Z</time>
      </trkpt>
      <trkpt lat="48.82377" lon="2.33311">
        <ele>110.5</ele>
        <time>2015-02-02T19:54:09.498Z</time>
      </trkpt>
      <trkpt lat="48.82376" lon="2.33302">
        <ele>110.5</ele>
        <time>2015-02-02T19:54:10.511Z</time>
      </trkpt>
      <trkpt lat="48.82374" lon="2.33293">
        <ele>110.5</ele>
        <time>2015-02-02T19:54:11.521Z</time>
      </trkpt>
      <trkpt lat="48.82373" lon="2.33283">
        <ele>109.8</ele>
        <time>2015-02-02T19:54:13.417Z</time>
      </trkpt>
      <trkpt lat="48.82372" lon="2.33274">
        <ele>109.6</ele>
        <time>2015-02-02T19:54:13.528Z</time>
      </trkpt>
      <trkpt lat="48.82372" lon="2.33266">
        <ele>109.4</ele>
        <time>2015-02-02T19:54:14.541Z</time>
      </trkpt>
      <trkpt lat="48.82371" lon="2.33258">
        <ele>109.5</ele>
        <time>2015-02-02T19:54:15.552Z</time>
      </trkpt>
      <trkpt lat="48.82371" lon="2.33249">
        <ele>109.6</ele>
        <time>2015-02-02T19:54:16.558Z</time>
      </trkpt>
      <trkpt lat="48.8237" lon="2.33241">
        <ele>109.4</ele>
        <time>2015-02-02T19:54:17.564Z</time>
      </trkpt>
      <trkpt lat="48.8237" lon="2.33232">
        <ele>109.4</ele>
        <time>2015-02-02T19:54:18.566Z</time>
      </trkpt>
      <trkpt lat="48.8237" lon="2.33225">
        <ele>109.8</ele>
        <time>2015-02-02T19:54:19.574Z</time>
      </trkpt>
      <trkpt lat="48.82369" lon="2.33217">
        <ele>110.4</ele>
        <time>2015-02-02T19:54:20.503Z</time>
      </trkpt>
      <trkpt lat="48.82369" lon="2.3321">
        <ele>110.8</ele>
        <time>2015-02-02T19:54:21.505Z</time>
      </trkpt>
      <trkpt lat="48.82371" lon="2.33197">
        <ele>112.2</ele>
        <time>2015-02-02T19:54:23.647Z</time>
      </trkpt>
      <trkpt lat="48.82373" lon="2.33191">
        <ele>112.6</ele>
        <time>2015-02-02T19:54:24.505Z</time>
      </trkpt>
      <trkpt lat="48.82376" lon="2.33179">
        <ele>113.8</ele>
        <time>2015-02-02T19:54:26.602Z</time>
      </trkpt>
      <trkpt lat="48.82378" lon="2.33173">
        <ele>114.2</ele>
        <time>2015-02-02T19:54:27.516Z</time>
      </trkpt>
      <trkpt lat="48.8238" lon="2.33163">
        <ele>114.6</ele>
        <time>2015-02-02T19:54:29.530Z</time>
      </trkpt>
      <trkpt lat="48.82381" lon="2.33157">
        <ele>114.6</ele>
        <time>2015-02-02T19:54:30.551Z</time>
      </trkpt>
      <trkpt lat="48.82384" lon="2.33148">
        <ele>114.5</ele>
        <time>2015-02-02T19:54:32.570Z</time>
      </trkpt>
      <trkpt lat="48.82384" lon="2.33143">
        <ele>114.5</ele>
        <time>2015-02-02T19:54:33.575Z</time>
      </trkpt>
      <trkpt lat="48.82387" lon="2.33133">
        <ele>114.8</ele>
        <time>2015-02-02T19:54:35.515Z</time>
      </trkpt>
      <trkpt lat="48.82388" lon="2.33128">
        <ele>114.9</ele>
        <time>2015-02-02T19:54:36.513Z</time>
      </trkpt>
      <trkpt lat="48.82391" lon="2.33117">
        <ele>115.2</ele>
        <time>2015-02-02T19:54:39.525Z</time>
      </trkpt>
      <trkpt lat="48.82391" lon="2.33113">
        <ele>115.3</ele>
        <time>2015-02-02T19:54:40.538Z</time>
      </trkpt>
      <trkpt lat="48.82392" lon="2.33108">
        <ele>116.2</ele>
        <time>2015-02-02T19:54:43.526Z</time>
      </trkpt>
      <trkpt lat="48.82392" lon="2.33108">
        <ele>116</ele>
        <time>2015-02-02T19:54:44.562Z</time>
      </trkpt>
      <trkpt lat="48.82392" lon="2.33107">
        <ele>116.1</ele>
        <time>2015-02-02T19:54:54.602Z</time>
      </trkpt>
      <trkpt lat="48.82392" lon="2.33107">
        <ele>116.7</ele>
        <time>2015-02-02T19:54:55.511Z</time>
      </trkpt>
      <trkpt lat="48.82392" lon="2.33107">
        <ele>116.7</ele>
        <time>2015-02-02T19:54:56.549Z</time>
      </trkpt>
      <trkpt lat="48.82392" lon="2.33108">
        <ele>116.5</ele>
        <time>2015-02-02T19:54:57.593Z</time>
      </trkpt>
      <trkpt lat="48.82392" lon="2.33108">
        <ele>116.6</ele>
        <time>2015-02-02T19:54:58.536Z</time>
      </trkpt>
      <trkpt lat="48.82392" lon="2.33108">
        <ele>116.7</ele>
        <time>2015-02-02T19:54:59.490Z</time>
      </trkpt>
      <trkpt lat="48.82391" lon="2.33108">
        <ele>116.9</ele>
        <time>2015-02-02T19:55:00.500Z</time>
      </trkpt>
      <trkpt lat="48.82392" lon="2.33108">
        <ele>116.9</ele>
        <time>2015-02-02T19:55:15.518Z</time>
      </trkpt>
      <trkpt lat="48.82393" lon="2.33107">
        <ele>117.5</ele>
        <time>2015-02-02T19:55:16.550Z</time>
      </trkpt>
      <trkpt lat="48.82397" lon="2.33097">
        <ele>119.6</ele>
        <time>2015-02-02T19:55:23.593Z</time>
      </trkpt>
      <trkpt lat="48.82398" lon="2.33094">
        <ele>119.5</ele>
        <time>2015-02-02T19:55:24.590Z</time>
      </trkpt>
      <trkpt lat="48.82402" lon="2.33083">
        <ele>119</ele>
        <time>2015-02-02T19:55:28.606Z</time>
      </trkpt>
      <trkpt lat="48.82403" lon="2.33079">
        <ele>118.6</ele>
        <time>2015-02-02T19:55:29.582Z</time>
      </trkpt>
      <trkpt lat="48.82404" lon="2.33067">
        <ele>118.4</ele>
        <time>2015-02-02T19:55:32.539Z</time>
      </trkpt>
      <trkpt lat="48.82404" lon="2.33063">
        <ele>118.2</ele>
        <time>2015-02-02T19:55:33.557Z</time>
      </trkpt>
      <trkpt lat="48.82407" lon="2.33054">
        <ele>118.2</ele>
        <time>2015-02-02T19:55:35.513Z</time>
      </trkpt>
      <trkpt lat="48.82408" lon="2.33049">
        <ele>118.2</ele>
        <time>2015-02-02T19:55:36.508Z</time>
      </trkpt>
      <trkpt lat="48.8241" lon="2.33039">
        <ele>118.2</ele>
        <time>2015-02-02T19:55:38.533Z</time>
      </trkpt>
      <trkpt lat="48.82411" lon="2.33034">
        <ele>118.1</ele>
        <time>2015-02-02T19:55:39.485Z</time>
      </trkpt>
      <trkpt lat="48.82415" lon="2.33022">
        <ele>117.9</ele>
        <time>2015-02-02T19:55:42.585Z</time>
      </trkpt>
      <trkpt lat="48.82417" lon="2.33018">
        <ele>117.9</ele>
        <time>2015-02-02T19:55:43.593Z</time>
      </trkpt>
      <trkpt lat="48.82418" lon="2.33009">
        <ele>117.7</ele>
        <time>2015-02-02T19:55:45.505Z</time>
      </trkpt>
      <trkpt lat="48.82419" lon="2.33004">
        <ele>117.6</ele>
        <time>2015-02-02T19:55:46.529Z</time>
      </trkpt>
      <trkpt lat="48.82421" lon="2.32993">
        <ele>117.5</ele>
        <time>2015-02-02T19:55:48.544Z</time>
      </trkpt>
      <trkpt lat="48.82422" lon="2.32988">
        <ele>117.5</ele>
        <time>2015-02-02T19:55:49.662Z</time>
      </trkpt>
      <trkpt lat="48.82425" lon="2.32976">
        <ele>117.4</ele>
        <time>2015-02-02T19:55:51.578Z</time>
      </trkpt>
      <trkpt lat="48.82427" lon="2.3297">
        <ele>117.2</ele>
        <time>2015-02-02T19:55:52.579Z</time>
      </trkpt>
      <trkpt lat="48.82431" lon="2.32959">
        <ele>117</ele>
        <time>2015-02-02T19:55:54.513Z</time>
      </trkpt>
      <trkpt lat="48.82433" lon="2.32955">
        <ele>116.9</ele>
        <time>2015-02-02T19:55:55.544Z</time>
      </trkpt>
      <trkpt lat="48.82438" lon="2.32947">
        <ele>116.7</ele>
        <time>2015-02-02T19:55:57.584Z</time>
      </trkpt>
      <trkpt lat="48.82441" lon="2.32943">
        <ele>116.6</ele>
        <time>2015-02-02T19:55:58.589Z</time>
      </trkpt>
      <trkpt lat="48.82446" lon="2.32934">
        <ele>116.6</ele>
        <time>2015-02-02T19:56:00.500Z</time>
      </trkpt>
      <trkpt lat="48.82448" lon="2.32929">
        <ele>116.6</ele>
        <time>2015-02-02T19:56:01.506Z</time>
      </trkpt>
      <trkpt lat="48.82449" lon="2.32921">
        <ele>116.5</ele>
        <time>2015-02-02T19:56:03.591Z</time>
      </trkpt>
      <trkpt lat="48.8245" lon="2.32916">
        <ele>116.4</ele>
        <time>2015-02-02T19:56:04.504Z</time>
      </trkpt>
      <trkpt lat="48.82451" lon="2.32905">
        <ele>116.2</ele>
        <time>2015-02-02T19:56:06.481Z</time>
      </trkpt>
      <trkpt lat="48.82453" lon="2.329">
        <ele>116.2</ele>
        <time>2015-02-02T19:56:07.520Z</time>
      </trkpt>
      <trkpt lat="48.82455" lon="2.3289">
        <ele>116</ele>
        <time>2015-02-02T19:56:09.502Z</time>
      </trkpt>
      <trkpt lat="48.82455" lon="2.32886">
        <ele>116</ele>
        <time>2015-02-02T19:56:10.573Z</time>
      </trkpt>
      <trkpt lat="48.82456" lon="2.32883">
        <ele>116</ele>
        <time>2015-02-02T19:56:11.479Z</time>
      </trkpt>
      <trkpt lat="48.82447" lon="2.32857">
        <ele>116</ele>
        <time>2015-02-02T19:56:15.506Z</time>
      </trkpt>
      <trkpt lat="48.82445" lon="2.32846">
        <ele>116.6</ele>
        <time>2015-02-02T19:56:18.551Z</time>
      </trkpt>
      <trkpt lat="48.82446" lon="2.32844">
        <ele>116.5</ele>
        <time>2015-02-02T19:56:19.633Z</time>
      </trkpt>
      <trkpt lat="48.82448" lon="2.32835">
        <ele>116.4</ele>
        <time>2015-02-02T19:56:22.568Z</time>
      </trkpt>
      <trkpt lat="48.8245" lon="2.32831">
        <ele>116.6</ele>
        <time>2015-02-02T19:56:23.510Z</time>
      </trkpt>
      <trkpt lat="48.82454" lon="2.32823">
        <ele>116.7</ele>
        <time>2015-02-02T19:56:25.533Z</time>
      </trkpt>
      <trkpt lat="48.82455" lon="2.32819">
        <ele>116.8</ele>
        <time>2015-02-02T19:56:26.544Z</time>
      </trkpt>
      <trkpt lat="48.82459" lon="2.3281">
        <ele>116.7</ele>
        <time>2015-02-02T19:56:28.546Z</time>
      </trkpt>
      <trkpt lat="48.82459" lon="2.32804">
        <ele>115.6</ele>
        <time>2015-02-02T19:56:29.561Z</time>
      </trkpt>
      <trkpt lat="48.8246" lon="2.32793">
        <ele>115.3</ele>
        <time>2015-02-02T19:56:31.498Z</time>
      </trkpt>
      <trkpt lat="48.82456" lon="2.32784">
        <ele>114.4</ele>
        <time>2015-02-02T19:56:32.510Z</time>
      </trkpt>
      <trkpt lat="48.82455" lon="2.32771">
        <ele>113.4</ele>
        <time>2015-02-02T19:56:34.584Z</time>
      </trkpt>
      <trkpt lat="48.82456" lon="2.32763">
        <ele>112.5</ele>
        <time>2015-02-02T19:56:35.505Z</time>
      </trkpt>
      <trkpt lat="48.82457" lon="2.32755">
        <ele>111.9</ele>
        <time>2015-02-02T19:56:36.572Z</time>
      </trkpt>
      <trkpt lat="48.82458" lon="2.32748">
        <ele>110.9</ele>
        <time>2015-02-02T19:56:37.586Z</time>
      </trkpt>
      <trkpt lat="48.82462" lon="2.32736">
        <ele>110.8</ele>
        <time>2015-02-02T19:56:39.527Z</time>
      </trkpt>
      <trkpt lat="48.82463" lon="2.32732">
        <ele>110.8</ele>
        <time>2015-02-02T19:56:40.550Z</time>
      </trkpt>
      <trkpt lat="48.82467" lon="2.32719">
        <ele>109.9</ele>
        <time>2015-02-02T19:56:42.515Z</time>
      </trkpt>
      <trkpt lat="48.82468" lon="2.32713">
        <ele>109.6</ele>
        <time>2015-02-02T19:56:43.530Z</time>
      </trkpt>
      <trkpt lat="48.82468" lon="2.32706">
        <ele>109.3</ele>
        <time>2015-02-02T19:56:44.492Z</time>
      </trkpt>
      <trkpt lat="48.82468" lon="2.32698">
        <ele>109.3</ele>
        <time>2015-02-02T19:56:45.511Z</time>
      </trkpt>
      <trkpt lat="48.82468" lon="2.32691">
        <ele>109</ele>
        <time>2015-02-02T19:56:46.650Z</time>
      </trkpt>
      <trkpt lat="48.82467" lon="2.32684">
        <ele>108.6</ele>
        <time>2015-02-02T19:56:47.514Z</time>
      </trkpt>
      <trkpt lat="48.82467" lon="2.32671">
        <ele>108.4</ele>
        <time>2015-02-02T19:56:49.497Z</time>
      </trkpt>
      <trkpt lat="48.82467" lon="2.32664">
        <ele>108.5</ele>
        <time>2015-02-02T19:56:50.512Z</time>
      </trkpt>
      <trkpt lat="48.82467" lon="2.32651">
        <ele>108.9</ele>
        <time>2015-02-02T19:56:52.533Z</time>
      </trkpt>
      <trkpt lat="48.82468" lon="2.32645">
        <ele>108.8</ele>
        <time>2015-02-02T19:56:53.585Z</time>
      </trkpt>
      <trkpt lat="48.82468" lon="2.32633">
        <ele>108.3</ele>
        <time>2015-02-02T19:56:55.494Z</time>
      </trkpt>
      <trkpt lat="48.82468" lon="2.32627">
        <ele>108.3</ele>
        <time>2015-02-02T19:56:56.509Z</time>
      </trkpt>
      <trkpt lat="48.82469" lon="2.32618">
        <ele>109</ele>
        <time>2015-02-02T19:56:58.548Z</time>
      </trkpt>
      <trkpt lat="48.82469" lon="2.32614">
        <ele>109.7</ele>
        <time>2015-02-02T19:56:59.556Z</time>
      </trkpt>
      <trkpt lat="48.82466" lon="2.32602">
        <ele>110.7</ele>
        <time>2015-02-02T19:57:03.533Z</time>
      </trkpt>
      <trkpt lat="48.82465" lon="2.326">
        <ele>110.6</ele>
        <time>2015-02-02T19:57:04.555Z</time>
      </trkpt>
      <trkpt lat="48.82465" lon="2.32599">
        <ele>110.7</ele>
        <time>2015-02-02T19:57:05.571Z</time>
      </trkpt>
      <trkpt lat="48.82465" lon="2.32598">
        <ele>110.9</ele>
        <time>2015-02-02T19:57:06.585Z</time>
      </trkpt>
      <trkpt lat="48.82465" lon="2.32597">
        <ele>111.1</ele>
        <time>2015-02-02T19:57:07.599Z</time>
      </trkpt>
      <trkpt lat="48.82464" lon="2.32585">
        <ele>112.5</ele>
        <time>2015-02-02T19:57:13.522Z</time>
      </trkpt>
      <trkpt lat="48.82459" lon="2.32584">
        <ele>111.7</ele>
        <time>2015-02-02T19:57:14.540Z</time>
      </trkpt>
      <trkpt lat="48.82454" lon="2.32582">
        <ele>111.6</ele>
        <time>2015-02-02T19:57:16.544Z</time>
      </trkpt>
      <trkpt lat="48.82451" lon="2.32581">
        <ele>111.6</ele>
        <time>2015-02-02T19:57:17.542Z</time>
      </trkpt>
      <trkpt lat="48.82442" lon="2.32584">
        <ele>111.7</ele>
        <time>2015-02-02T19:57:20.527Z</time>
      </trkpt>
      <trkpt lat="48.8244" lon="2.32583">
        <ele>111.7</ele>
        <time>2015-02-02T19:57:21.538Z</time>
      </trkpt>
      <trkpt lat="48.82445" lon="2.32572">
        <ele>111.6</ele>
        <time>2015-02-02T19:57:26.575Z</time>
      </trkpt>
      <trkpt lat="48.82447" lon="2.3257">
        <ele>111.6</ele>
        <time>2015-02-02T19:57:27.642Z</time>
      </trkpt>
      <trkpt lat="48.82451" lon="2.32563">
        <ele>111.6</ele>
        <time>2015-02-02T19:57:30.577Z</time>
      </trkpt>
      <trkpt lat="48.82453" lon="2.32559">
        <ele>111.5</ele>
        <time>2015-02-02T19:57:31.542Z</time>
      </trkpt>
      <trkpt lat="48.82457" lon="2.32548">
        <ele>111.1</ele>
        <time>2015-02-02T19:57:34.685Z</time>
      </trkpt>
      <trkpt lat="48.82459" lon="2.32545">
        <ele>110.9</ele>
        <time>2015-02-02T19:57:35.619Z</time>
      </trkpt>
      <trkpt lat="48.82465" lon="2.32537">
        <ele>110.7</ele>
        <time>2015-02-02T19:57:37.517Z</time>
      </trkpt>
      <trkpt lat="48.82468" lon="2.32533">
        <ele>110.5</ele>
        <time>2015-02-02T19:57:38.541Z</time>
      </trkpt>
      <trkpt lat="48.82476" lon="2.32527">
        <ele>110.4</ele>
        <time>2015-02-02T19:57:40.641Z</time>
      </trkpt>
      <trkpt lat="48.8248" lon="2.32524">
        <ele>110.2</ele>
        <time>2015-02-02T19:57:41.501Z</time>
      </trkpt>
      <trkpt lat="48.82484" lon="2.32521">
        <ele>110.1</ele>
        <time>2015-02-02T19:57:42.534Z</time>
      </trkpt>
      <trkpt lat="48.82488" lon="2.32519">
        <ele>110.2</ele>
        <time>2015-02-02T19:57:43.544Z</time>
      </trkpt>
      <trkpt lat="48.82493" lon="2.32516">
        <ele>110.3</ele>
        <time>2015-02-02T19:57:45.297Z</time>
      </trkpt>
      <trkpt lat="48.82497" lon="2.32512">
        <ele>110.3</ele>
        <time>2015-02-02T19:57:45.594Z</time>
      </trkpt>
      <trkpt lat="48.82501" lon="2.32508">
        <ele>110.4</ele>
        <time>2015-02-02T19:57:46.599Z</time>
      </trkpt>
      <trkpt lat="48.82504" lon="2.32502">
        <ele>110.4</ele>
        <time>2015-02-02T19:57:47.514Z</time>
      </trkpt>
      <trkpt lat="48.82507" lon="2.32496">
        <ele>110.5</ele>
        <time>2015-02-02T19:57:48.510Z</time>
      </trkpt>
      <trkpt lat="48.8251" lon="2.32491">
        <ele>110.7</ele>
        <time>2015-02-02T19:57:49.530Z</time>
      </trkpt>
      <trkpt lat="48.82514" lon="2.3248">
        <ele>111.3</ele>
        <time>2015-02-02T19:57:51.539Z</time>
      </trkpt>
      <trkpt lat="48.82515" lon="2.32476">
        <ele>111.5</ele>
        <time>2015-02-02T19:57:52.581Z</time>
      </trkpt>
      <trkpt lat="48.82516" lon="2.32463">
        <ele>112.2</ele>
        <time>2015-02-02T19:57:54.524Z</time>
      </trkpt>
      <trkpt lat="48.82516" lon="2.32457">
        <ele>112.5</ele>
        <time>2015-02-02T19:57:55.553Z</time>
      </trkpt>
      <trkpt lat="48.82517" lon="2.32448">
        <ele>112.4</ele>
        <time>2015-02-02T19:57:58.277Z</time>
      </trkpt>
      <trkpt lat="48.82518" lon="2.32444">
        <ele>112.3</ele>
        <time>2015-02-02T19:57:58.601Z</time>
      </trkpt>
      <trkpt lat="48.82518" lon="2.32433">
        <ele>112.7</ele>
        <time>2015-02-02T19:58:00.497Z</time>
      </trkpt>
      <trkpt lat="48.82517" lon="2.32427">
        <ele>112.9</ele>
        <time>2015-02-02T19:58:01.506Z</time>
      </trkpt>
      <trkpt lat="48.82516" lon="2.32416">
        <ele>112.1</ele>
        <time>2015-02-02T19:58:04.644Z</time>
      </trkpt>
      <trkpt lat="48.82517" lon="2.32412">
        <ele>112.3</ele>
        <time>2015-02-02T19:58:05.489Z</time>
      </trkpt>
      <trkpt lat="48.82524" lon="2.32411">
        <ele>113.7</ele>
        <time>2015-02-02T19:58:09.571Z</time>
      </trkpt>
      <trkpt lat="48.82526" lon="2.32413">
        <ele>113.9</ele>
        <time>2015-02-02T19:58:10.592Z</time>
      </trkpt>
      <trkpt lat="48.82532" lon="2.32417">
        <ele>114.3</ele>
        <time>2015-02-02T19:58:13.427Z</time>
      </trkpt>
      <trkpt lat="48.82535" lon="2.3242">
        <ele>114.4</ele>
        <time>2015-02-02T19:58:13.532Z</time>
      </trkpt>
      <trkpt lat="48.82538" lon="2.32428">
        <ele>114.7</ele>
        <time>2015-02-02T19:58:15.569Z</time>
      </trkpt>
      <trkpt lat="48.8254" lon="2.32432">
        <ele>114.9</ele>
        <time>2015-02-02T19:58:16.635Z</time>
      </trkpt>
      <trkpt lat="48.82545" lon="2.32437">
        <ele>115.3</ele>
        <time>2015-02-02T19:58:18.500Z</time>
      </trkpt>
      <trkpt lat="48.82548" lon="2.3244">
        <ele>115.5</ele>
        <time>2015-02-02T19:58:19.518Z</time>
      </trkpt>
      <trkpt lat="48.82554" lon="2.32446">
        <ele>115.8</ele>
        <time>2015-02-02T19:58:21.508Z</time>
      </trkpt>
      <trkpt lat="48.82558" lon="2.32448">
        <ele>116.1</ele>
        <time>2015-02-02T19:58:22.534Z</time>
      </trkpt>
      <trkpt lat="48.82564" lon="2.32454">
        <ele>115.9</ele>
        <time>2015-02-02T19:58:24.642Z</time>
      </trkpt>
      <trkpt lat="48.82568" lon="2.32456">
        <ele>115.9</ele>
        <time>2015-02-02T19:58:25.502Z</time>
      </trkpt>
      <trkpt lat="48.82576" lon="2.3246">
        <ele>116.1</ele>
        <time>2015-02-02T19:58:27.532Z</time>
      </trkpt>
      <trkpt lat="48.8258" lon="2.32463">
        <ele>116.3</ele>
        <time>2015-02-02T19:58:28.673Z</time>
      </trkpt>
      <trkpt lat="48.82584" lon="2.32466">
        <ele>116.4</ele>
        <time>2015-02-02T19:58:30.475Z</time>
      </trkpt>
      <trkpt lat="48.82588" lon="2.3247">
        <ele>116.5</ele>
        <time>2015-02-02T19:58:30.526Z</time>
      </trkpt>
      <trkpt lat="48.82593" lon="2.32473">
        <ele>116.5</ele>
        <time>2015-02-02T19:58:31.555Z</time>
      </trkpt>
      <trkpt lat="48.82598" lon="2.32476">
        <ele>116.5</ele>
        <time>2015-02-02T19:58:32.565Z</time>
      </trkpt>
      <trkpt lat="48.82603" lon="2.32479">
        <ele>116.4</ele>
        <time>2015-02-02T19:58:33.776Z</time>
      </trkpt>
      <trkpt lat="48.82608" lon="2.32482">
        <ele>116.4</ele>
        <time>2015-02-02T19:58:34.582Z</time>
      </trkpt>
      <trkpt lat="48.82612" lon="2.32485">
        <ele>116.4</ele>
        <time>2015-02-02T19:58:35.485Z</time>
      </trkpt>
      <trkpt lat="48.82616" lon="2.32488">
        <ele>116.4</ele>
        <time>2015-02-02T19:58:36.493Z</time>
      </trkpt>
      <trkpt lat="48.82632" lon="2.32501">
        <ele>116.1</ele>
        <time>2015-02-02T19:58:40.527Z</time>
      </trkpt>
      <trkpt lat="48.82637" lon="2.32504">
        <ele>116.2</ele>
        <time>2015-02-02T19:58:41.488Z</time>
      </trkpt>
      <trkpt lat="48.82641" lon="2.32506">
        <ele>116.2</ele>
        <time>2015-02-02T19:58:42.542Z</time>
      </trkpt>
      <trkpt lat="48.82646" lon="2.32508">
        <ele>116.1</ele>
        <time>2015-02-02T19:58:43.455Z</time>
      </trkpt>
      <trkpt lat="48.8265" lon="2.32511">
        <ele>116.2</ele>
        <time>2015-02-02T19:58:44.470Z</time>
      </trkpt>
      <trkpt lat="48.82658" lon="2.32516">
        <ele>116.2</ele>
        <time>2015-02-02T19:58:46.504Z</time>
      </trkpt>
      <trkpt lat="48.82664" lon="2.32516">
        <ele>116</ele>
        <time>2015-02-02T19:58:47.563Z</time>
      </trkpt>
      <trkpt lat="48.82668" lon="2.32518">
        <ele>116</ele>
        <time>2015-02-02T19:58:48.506Z</time>
      </trkpt>
      <trkpt lat="48.82673" lon="2.32522">
        <ele>115.3</ele>
        <time>2015-02-02T19:58:49.509Z</time>
      </trkpt>
      <trkpt lat="48.82681" lon="2.32518">
        <ele>113.8</ele>
        <time>2015-02-02T19:58:53.592Z</time>
      </trkpt>
      <trkpt lat="48.82682" lon="2.32518">
        <ele>113.7</ele>
        <time>2015-02-02T19:58:54.561Z</time>
      </trkpt>
      <trkpt lat="48.82691" lon="2.32514">
        <ele>114.1</ele>
        <time>2015-02-02T19:58:57.511Z</time>
      </trkpt>
      <trkpt lat="48.82698" lon="2.32509">
        <ele>114.7</ele>
        <time>2015-02-02T19:58:58.541Z</time>
      </trkpt>
      <trkpt lat="48.82706" lon="2.32503">
        <ele>115</ele>
        <time>2015-02-02T19:59:00.492Z</time>
      </trkpt>
      <trkpt lat="48.82709" lon="2.32499">
        <ele>115</ele>
        <time>2015-02-02T19:59:01.588Z</time>
      </trkpt>
      <trkpt lat="48.82713" lon="2.32489">
        <ele>115.1</ele>
        <time>2015-02-02T19:59:03.482Z</time>
      </trkpt>
      <trkpt lat="48.82715" lon="2.32483">
        <ele>115</ele>
        <time>2015-02-02T19:59:04.604Z</time>
      </trkpt>
      <trkpt lat="48.82719" lon="2.32473">
        <ele>115.1</ele>
        <time>2015-02-02T19:59:06.536Z</time>
      </trkpt>
      <trkpt lat="48.82721" lon="2.32468">
        <ele>115</ele>
        <time>2015-02-02T19:59:07.545Z</time>
      </trkpt>
      <trkpt lat="48.82724" lon="2.32455">
        <ele>115</ele>
        <time>2015-02-02T19:59:09.497Z</time>
      </trkpt>
      <trkpt lat="48.82726" lon="2.3245">
        <ele>115.2</ele>
        <time>2015-02-02T19:59:10.598Z</time>
      </trkpt>
      <trkpt lat="48.82729" lon="2.32444">
        <ele>115.3</ele>
        <time>2015-02-02T19:59:11.496Z</time>
      </trkpt>
      <trkpt lat="48.82732" lon="2.32438">
        <ele>115.5</ele>
        <time>2015-02-02T19:59:12.498Z</time>
      </trkpt>
      <trkpt lat="48.82734" lon="2.32432">
        <ele>115.4</ele>
        <time>2015-02-02T19:59:13.552Z</time>
      </trkpt>
      <trkpt lat="48.82737" lon="2.32425">
        <ele>115.2</ele>
        <time>2015-02-02T19:59:14.449Z</time>
      </trkpt>
      <trkpt lat="48.82739" lon="2.32418">
        <ele>115.2</ele>
        <time>2015-02-02T19:59:15.505Z</time>
      </trkpt>
      <trkpt lat="48.82741" lon="2.32412">
        <ele>115.1</ele>
        <time>2015-02-02T19:59:16.590Z</time>
      </trkpt>
      <trkpt lat="48.82747" lon="2.32403">
        <ele>115.1</ele>
        <time>2015-02-02T19:59:18.473Z</time>
      </trkpt>
      <trkpt lat="48.8275" lon="2.32398">
        <ele>115.1</ele>
        <time>2015-02-02T19:59:19.490Z</time>
      </trkpt>
      <trkpt lat="48.82753" lon="2.32387">
        <ele>115</ele>
        <time>2015-02-02T19:59:21.542Z</time>
      </trkpt>
      <trkpt lat="48.82756" lon="2.32382">
        <ele>114.9</ele>
        <time>2015-02-02T19:59:22.596Z</time>
      </trkpt>
      <trkpt lat="48.8276" lon="2.3237">
        <ele>114.8</ele>
        <time>2015-02-02T19:59:24.502Z</time>
      </trkpt>
      <trkpt lat="48.8276" lon="2.32362">
        <ele>114.6</ele>
        <time>2015-02-02T19:59:25.525Z</time>
      </trkpt>
      <trkpt lat="48.82763" lon="2.32351">
        <ele>114.6</ele>
        <time>2015-02-02T19:59:27.551Z</time>
      </trkpt>
      <trkpt lat="48.82766" lon="2.32345">
        <ele>114.5</ele>
        <time>2015-02-02T19:59:28.606Z</time>
      </trkpt>
      <trkpt lat="48.8277" lon="2.32333">
        <ele>114.5</ele>
        <time>2015-02-02T19:59:30.483Z</time>
      </trkpt>
      <trkpt lat="48.82772" lon="2.32326">
        <ele>114.6</ele>
        <time>2015-02-02T19:59:31.500Z</time>
      </trkpt>
      <trkpt lat="48.82775" lon="2.3232">
        <ele>114.7</ele>
        <time>2015-02-02T19:59:32.521Z</time>
      </trkpt>
      <trkpt lat="48.82778" lon="2.32314">
        <ele>114.9</ele>
        <time>2015-02-02T19:59:33.527Z</time>
      </trkpt>
      <trkpt lat="48.82778" lon="2.32305">
        <ele>115</ele>
        <time>2015-02-02T19:59:34.539Z</time>
      </trkpt>
      <trkpt lat="48.82778" lon="2.32296">
        <ele>115</ele>
        <time>2015-02-02T19:59:35.555Z</time>
      </trkpt>
      <trkpt lat="48.82779" lon="2.32288">
        <ele>115.1</ele>
        <time>2015-02-02T19:59:36.564Z</time>
      </trkpt>
      <trkpt lat="48.82781" lon="2.32282">
        <ele>115.4</ele>
        <time>2015-02-02T19:59:37.567Z</time>
      </trkpt>
      <trkpt lat="48.82783" lon="2.32275">
        <ele>115.6</ele>
        <time>2015-02-02T19:59:38.576Z</time>
      </trkpt>
      <trkpt lat="48.82785" lon="2.32268">
        <ele>115.6</ele>
        <time>2015-02-02T19:59:39.588Z</time>
      </trkpt>
      <trkpt lat="48.82789" lon="2.32257">
        <ele>116</ele>
        <time>2015-02-02T19:59:41.503Z</time>
      </trkpt>
      <trkpt lat="48.82791" lon="2.32251">
        <ele>115.9</ele>
        <time>2015-02-02T19:59:42.547Z</time>
      </trkpt>
      <trkpt lat="48.82794" lon="2.32246">
        <ele>116.1</ele>
        <time>2015-02-02T19:59:43.575Z</time>
      </trkpt>
      <trkpt lat="48.82796" lon="2.3224">
        <ele>116.1</ele>
        <time>2015-02-02T19:59:44.581Z</time>
      </trkpt>
      <trkpt lat="48.828" lon="2.32232">
        <ele>116.2</ele>
        <time>2015-02-02T19:59:45.587Z</time>
      </trkpt>
      <trkpt lat="48.82803" lon="2.32226">
        <ele>116.3</ele>
        <time>2015-02-02T19:59:46.530Z</time>
      </trkpt>
      <trkpt lat="48.82805" lon="2.32219">
        <ele>116.3</ele>
        <time>2015-02-02T19:59:47.536Z</time>
      </trkpt>
      <trkpt lat="48.82807" lon="2.32212">
        <ele>116.3</ele>
        <time>2015-02-02T19:59:48.563Z</time>
      </trkpt>
      <trkpt lat="48.82809" lon="2.32206">
        <ele>116.5</ele>
        <time>2015-02-02T19:59:49.482Z</time>
      </trkpt>
      <trkpt lat="48.82811" lon="2.322">
        <ele>116.6</ele>
        <time>2015-02-02T19:59:50.482Z</time>
      </trkpt>
      <trkpt lat="48.82814" lon="2.32189">
        <ele>116.8</ele>
        <time>2015-02-02T19:59:52.526Z</time>
      </trkpt>
      <trkpt lat="48.82813" lon="2.32184">
        <ele>116.7</ele>
        <time>2015-02-02T19:59:53.485Z</time>
      </trkpt>
      <trkpt lat="48.8281" lon="2.32171">
        <ele>117</ele>
        <time>2015-02-02T19:59:56.524Z</time>
      </trkpt>
      <trkpt lat="48.8281" lon="2.32166">
        <ele>117.6</ele>
        <time>2015-02-02T19:59:57.535Z</time>
      </trkpt>
      <trkpt lat="48.82807" lon="2.32161">
        <ele>117.7</ele>
        <time>2015-02-02T19:59:58.551Z</time>
      </trkpt>
      <trkpt lat="48.82804" lon="2.32154">
        <ele>117.5</ele>
        <time>2015-02-02T19:59:59.554Z</time>
      </trkpt>
      <trkpt lat="48.82799" lon="2.32146">
        <ele>117.2</ele>
        <time>2015-02-02T20:00:01.480Z</time>
      </trkpt>
      <trkpt lat="48.82796" lon="2.32143">
        <ele>117.2</ele>
        <time>2015-02-02T20:00:02.499Z</time>
      </trkpt>
      <trkpt lat="48.8279" lon="2.32135">
        <ele>116.7</ele>
        <time>2015-02-02T20:00:04.526Z</time>
      </trkpt>
      <trkpt lat="48.82787" lon="2.32132">
        <ele>116.6</ele>
        <time>2015-02-02T20:00:05.574Z</time>
      </trkpt>
      <trkpt lat="48.82781" lon="2.32124">
        <ele>116.3</ele>
        <time>2015-02-02T20:00:07.519Z</time>
      </trkpt>
      <trkpt lat="48.8278" lon="2.32118">
        <ele>116.3</ele>
        <time>2015-02-02T20:00:08.566Z</time>
      </trkpt>
      <trkpt lat="48.82775" lon="2.32109">
        <ele>116.3</ele>
        <time>2015-02-02T20:00:10.539Z</time>
      </trkpt>
      <trkpt lat="48.82776" lon="2.32102">
        <ele>117.6</ele>
        <time>2015-02-02T20:00:11.568Z</time>
      </trkpt>
      <trkpt lat="48.82778" lon="2.32092">
        <ele>117.8</ele>
        <time>2015-02-02T20:00:13.525Z</time>
      </trkpt>
      <trkpt lat="48.8278" lon="2.32087">
        <ele>117.8</ele>
        <time>2015-02-02T20:00:14.585Z</time>
      </trkpt>
      <trkpt lat="48.82785" lon="2.32077">
        <ele>118.3</ele>
        <time>2015-02-02T20:00:16.531Z</time>
      </trkpt>
      <trkpt lat="48.82788" lon="2.32072">
        <ele>118.4</ele>
        <time>2015-02-02T20:00:17.535Z</time>
      </trkpt>
      <trkpt lat="48.82794" lon="2.32062">
        <ele>118.5</ele>
        <time>2015-02-02T20:00:19.566Z</time>
      </trkpt>
      <trkpt lat="48.82797" lon="2.32056">
        <ele>118.4</ele>
        <time>2015-02-02T20:00:20.484Z</time>
      </trkpt>
      <trkpt lat="48.82801" lon="2.32045">
        <ele>118.4</ele>
        <time>2015-02-02T20:00:22.544Z</time>
      </trkpt>
      <trkpt lat="48.82804" lon="2.32039">
        <ele>118.6</ele>
        <time>2015-02-02T20:00:23.558Z</time>
      </trkpt>
      <trkpt lat="48.82809" lon="2.32028">
        <ele>118.9</ele>
        <time>2015-02-02T20:00:25.581Z</time>
      </trkpt>
      <trkpt lat="48.82812" lon="2.32023">
        <ele>119.1</ele>
        <time>2015-02-02T20:00:26.509Z</time>
      </trkpt>
      <trkpt lat="48.82817" lon="2.32012">
        <ele>119.2</ele>
        <time>2015-02-02T20:00:28.646Z</time>
      </trkpt>
      <trkpt lat="48.82818" lon="2.32007">
        <ele>118.9</ele>
        <time>2015-02-02T20:00:29.508Z</time>
      </trkpt>
      <trkpt lat="48.82822" lon="2.31996">
        <ele>118.3</ele>
        <time>2015-02-02T20:00:31.562Z</time>
      </trkpt>
      <trkpt lat="48.82825" lon="2.3199">
        <ele>118.2</ele>
        <time>2015-02-02T20:00:32.488Z</time>
      </trkpt>
      <trkpt lat="48.82827" lon="2.31984">
        <ele>118.1</ele>
        <time>2015-02-02T20:00:33.510Z</time>
      </trkpt>
      <trkpt lat="48.82828" lon="2.31976">
        <ele>118.3</ele>
        <time>2015-02-02T20:00:34.548Z</time>
      </trkpt>
      <trkpt lat="48.8283" lon="2.3197">
        <ele>118.5</ele>
        <time>2015-02-02T20:00:35.549Z</time>
      </trkpt>
      <trkpt lat="48.82832" lon="2.31963">
        <ele>118.7</ele>
        <time>2015-02-02T20:00:36.492Z</time>
      </trkpt>
      <trkpt lat="48.82834" lon="2.31957">
        <ele>119</ele>
        <time>2015-02-02T20:00:37.504Z</time>
      </trkpt>
      <trkpt lat="48.82837" lon="2.3195">
        <ele>119.2</ele>
        <time>2015-02-02T20:00:38.513Z</time>
      </trkpt>
      <trkpt lat="48.82839" lon="2.31944">
        <ele>119.4</ele>
        <time>2015-02-02T20:00:39.534Z</time>
      </trkpt>
      <trkpt lat="48.82842" lon="2.31937">
        <ele>119.7</ele>
        <time>2015-02-02T20:00:40.545Z</time>
      </trkpt>
      <trkpt lat="48.82845" lon="2.31932">
        <ele>119.7</ele>
        <time>2015-02-02T20:00:41.580Z</time>
      </trkpt>
      <trkpt lat="48.82847" lon="2.31925">
        <ele>119.7</ele>
        <time>2015-02-02T20:00:42.504Z</time>
      </trkpt>
      <trkpt lat="48.8285" lon="2.31919">
        <ele>119.8</ele>
        <time>2015-02-02T20:00:43.537Z</time>
      </trkpt>
      <trkpt lat="48.82852" lon="2.31912">
        <ele>119.9</ele>
        <time>2015-02-02T20:00:44.547Z</time>
      </trkpt>
      <trkpt lat="48.82855" lon="2.31905">
        <ele>120.1</ele>
        <time>2015-02-02T20:00:45.566Z</time>
      </trkpt>
      <trkpt lat="48.82858" lon="2.31898">
        <ele>120.3</ele>
        <time>2015-02-02T20:00:46.573Z</time>
      </trkpt>
      <trkpt lat="48.8286" lon="2.31892">
        <ele>120.6</ele>
        <time>2015-02-02T20:00:47.595Z</time>
      </trkpt>
      <trkpt lat="48.82863" lon="2.31884">
        <ele>120.8</ele>
        <time>2015-02-02T20:00:48.472Z</time>
      </trkpt>
      <trkpt lat="48.82866" lon="2.31877">
        <ele>121</ele>
        <time>2015-02-02T20:00:49.520Z</time>
      </trkpt>
      <trkpt lat="48.82868" lon="2.31869">
        <ele>121</ele>
        <time>2015-02-02T20:00:50.542Z</time>
      </trkpt>
      <trkpt lat="48.82871" lon="2.31863">
        <ele>121.2</ele>
        <time>2015-02-02T20:00:51.570Z</time>
      </trkpt>
      <trkpt lat="48.82873" lon="2.31856">
        <ele>121.4</ele>
        <time>2015-02-02T20:00:52.584Z</time>
      </trkpt>
      <trkpt lat="48.82876" lon="2.31849">
        <ele>121.7</ele>
        <time>2015-02-02T20:00:53.634Z</time>
      </trkpt>
      <trkpt lat="48.82878" lon="2.31843">
        <ele>121.8</ele>
        <time>2015-02-02T20:00:54.510Z</time>
      </trkpt>
      <trkpt lat="48.82881" lon="2.31837">
        <ele>122.1</ele>
        <time>2015-02-02T20:00:55.529Z</time>
      </trkpt>
      <trkpt lat="48.82883" lon="2.3183">
        <ele>122.3</ele>
        <time>2015-02-02T20:00:56.531Z</time>
      </trkpt>
      <trkpt lat="48.82889" lon="2.31821">
        <ele>121.9</ele>
        <time>2015-02-02T20:00:58.567Z</time>
      </trkpt>
      <trkpt lat="48.82891" lon="2.31816">
        <ele>121.8</ele>
        <time>2015-02-02T20:00:59.580Z</time>
      </trkpt>
      <trkpt lat="48.82896" lon="2.31807">
        <ele>121.5</ele>
        <time>2015-02-02T20:01:01.506Z</time>
      </trkpt>
      <trkpt lat="48.82897" lon="2.31803">
        <ele>121.3</ele>
        <time>2015-02-02T20:01:02.520Z</time>
      </trkpt>
      <trkpt lat="48.82902" lon="2.31795">
        <ele>120.9</ele>
        <time>2015-02-02T20:01:04.573Z</time>
      </trkpt>
      <trkpt lat="48.82904" lon="2.31791">
        <ele>120.7</ele>
        <time>2015-02-02T20:01:05.591Z</time>
      </trkpt>
      <trkpt lat="48.8291" lon="2.31782">
        <ele>120.4</ele>
        <time>2015-02-02T20:01:07.481Z</time>
      </trkpt>
      <trkpt lat="48.82913" lon="2.31777">
        <ele>120.3</ele>
        <time>2015-02-02T20:01:08.495Z</time>
      </trkpt>
      <trkpt lat="48.82918" lon="2.31768">
        <ele>119.6</ele>
        <time>2015-02-02T20:01:10.526Z</time>
      </trkpt>
      <trkpt lat="48.8292" lon="2.31764">
        <ele>119.4</ele>
        <time>2015-02-02T20:01:11.543Z</time>
      </trkpt>
      <trkpt lat="48.82925" lon="2.31755">
        <ele>119.1</ele>
        <time>2015-02-02T20:01:13.480Z</time>
      </trkpt>
      <trkpt lat="48.82926" lon="2.3175">
        <ele>119.2</ele>
        <time>2015-02-02T20:01:14.493Z</time>
      </trkpt>
      <trkpt lat="48.82924" lon="2.31736">
        <ele>118.9</ele>
        <time>2015-02-02T20:01:16.527Z</time>
      </trkpt>
      <trkpt lat="48.82925" lon="2.31734">
        <ele>118.5</ele>
        <time>2015-02-02T20:01:17.556Z</time>
      </trkpt>
      <trkpt lat="48.82926" lon="2.31733">
        <ele>118.2</ele>
        <time>2015-02-02T20:01:20.587Z</time>
      </trkpt>
      <trkpt lat="48.82927" lon="2.31733">
        <ele>118.2</ele>
        <time>2015-02-02T20:01:21.507Z</time>
      </trkpt>
      <trkpt lat="48.82927" lon="2.31733">
        <ele>118.1</ele>
        <time>2015-02-02T20:01:28.629Z</time>
      </trkpt>
      <trkpt lat="48.82928" lon="2.31733">
        <ele>117.8</ele>
        <time>2015-02-02T20:01:29.505Z</time>
      </trkpt>
      <trkpt lat="48.82934" lon="2.31728">
        <ele>117.7</ele>
        <time>2015-02-02T20:01:32.546Z</time>
      </trkpt>
      <trkpt lat="48.82938" lon="2.31725">
        <ele>117.5</ele>
        <time>2015-02-02T20:01:33.584Z</time>
      </trkpt>
      <trkpt lat="48.82945" lon="2.3172">
        <ele>117.2</ele>
        <time>2015-02-02T20:01:35.477Z</time>
      </trkpt>
      <trkpt lat="48.82949" lon="2.31716">
        <ele>117.2</ele>
        <time>2015-02-02T20:01:36.488Z</time>
      </trkpt>
      <trkpt lat="48.82956" lon="2.3171">
        <ele>117.1</ele>
        <time>2015-02-02T20:01:38.573Z</time>
      </trkpt>
      <trkpt lat="48.83005" lon="2.31629">
        <ele>116.5</ele>
        <time>2015-02-02T20:01:53.511Z</time>
      </trkpt>
      <trkpt lat="48.83072" lon="2.3143">
        <ele>112.8</ele>
        <time>2015-02-02T20:02:28.529Z</time>
      </trkpt>
      <trkpt lat="48.83069" lon="2.31423">
        <ele>112.8</ele>
        <time>2015-02-02T20:02:29.507Z</time>
      </trkpt>
      <trkpt lat="48.83065" lon="2.31418">
        <ele>112.6</ele>
        <time>2015-02-02T20:02:30.532Z</time>
      </trkpt>
      <trkpt lat="48.8306" lon="2.31413">
        <ele>112.7</ele>
        <time>2015-02-02T20:02:31.517Z</time>
      </trkpt>
      <trkpt lat="48.83056" lon="2.31407">
        <ele>112.9</ele>
        <time>2015-02-02T20:02:32.518Z</time>
      </trkpt>
      <trkpt lat="48.83052" lon="2.31401">
        <ele>113.2</ele>
        <time>2015-02-02T20:02:33.534Z</time>
      </trkpt>
      <trkpt lat="48.83048" lon="2.31395">
        <ele>113.4</ele>
        <time>2015-02-02T20:02:34.575Z</time>
      </trkpt>
      <trkpt lat="48.83043" lon="2.31389">
        <ele>113.6</ele>
        <time>2015-02-02T20:02:35.590Z</time>
      </trkpt>
      <trkpt lat="48.83039" lon="2.31384">
        <ele>114.1</ele>
        <time>2015-02-02T20:02:36.584Z</time>
      </trkpt>
      <trkpt lat="48.83033" lon="2.31379">
        <ele>114.8</ele>
        <time>2015-02-02T20:02:37.526Z</time>
      </trkpt>
      <trkpt lat="48.83027" lon="2.31374">
        <ele>115.1</ele>
        <time>2015-02-02T20:02:38.539Z</time>
      </trkpt>
      <trkpt lat="48.83022" lon="2.31369">
        <ele>115.1</ele>
        <time>2015-02-02T20:02:39.551Z</time>
      </trkpt>
      <trkpt lat="48.83016" lon="2.31364">
        <ele>115.2</ele>
        <time>2015-02-02T20:02:40.569Z</time>
      </trkpt>
      <trkpt lat="48.83011" lon="2.31355">
        <ele>115.4</ele>
        <time>2015-02-02T20:02:42.507Z</time>
      </trkpt>
      <trkpt lat="48.8301" lon="2.3135">
        <ele>115.6</ele>
        <time>2015-02-02T20:02:43.642Z</time>
      </trkpt>
      <trkpt lat="48.83007" lon="2.31337">
        <ele>116.4</ele>
        <time>2015-02-02T20:02:46.586Z</time>
      </trkpt>
      <trkpt lat="48.83037" lon="2.3131">
        <ele>115.7</ele>
        <time>2015-02-02T20:02:52.493Z</time>
      </trkpt>
      <trkpt lat="48.83041" lon="2.31307">
        <ele>115.8</ele>
        <time>2015-02-02T20:02:53.523Z</time>
      </trkpt>
      <trkpt lat="48.83045" lon="2.31301">
        <ele>115.8</ele>
        <time>2015-02-02T20:02:54.536Z</time>
      </trkpt>
      <trkpt lat="48.83049" lon="2.31295">
        <ele>116.1</ele>
        <time>2015-02-02T20:02:55.543Z</time>
      </trkpt>
      <trkpt lat="48.83053" lon="2.31292">
        <ele>116.2</ele>
        <time>2015-02-02T20:02:56.547Z</time>
      </trkpt>
      <trkpt lat="48.83056" lon="2.31288">
        <ele>116.3</ele>
        <time>2015-02-02T20:02:57.492Z</time>
      </trkpt>
      <trkpt lat="48.8306" lon="2.31283">
        <ele>116.7</ele>
        <time>2015-02-02T20:02:58.520Z</time>
      </trkpt>
      <trkpt lat="48.83067" lon="2.31275">
        <ele>117.1</ele>
        <time>2015-02-02T20:03:00.490Z</time>
      </trkpt>
      <trkpt lat="48.8307" lon="2.31271">
        <ele>117.2</ele>
        <time>2015-02-02T20:03:01.490Z</time>
      </trkpt>
      <trkpt lat="48.83075" lon="2.31262">
        <ele>117.8</ele>
        <time>2015-02-02T20:03:04.574Z</time>
      </trkpt>
      <trkpt lat="48.83079" lon="2.31257">
        <ele>118.3</ele>
        <time>2015-02-02T20:03:06.508Z</time>
      </trkpt>
      <trkpt lat="48.83085" lon="2.31249">
        <ele>118.4</ele>
        <time>2015-02-02T20:03:08.488Z</time>
      </trkpt>
      <trkpt lat="48.83089" lon="2.31247">
        <ele>117.7</ele>
        <time>2015-02-02T20:03:09.492Z</time>
      </trkpt>
      <trkpt lat="48.83094" lon="2.31237">
        <ele>117</ele>
        <time>2015-02-02T20:03:11.517Z</time>
      </trkpt>
      <trkpt lat="48.83096" lon="2.31232">
        <ele>117.1</ele>
        <time>2015-02-02T20:03:12.561Z</time>
      </trkpt>
      <trkpt lat="48.83099" lon="2.31223">
        <ele>117.4</ele>
        <time>2015-02-02T20:03:14.458Z</time>
      </trkpt>
      <trkpt lat="48.83101" lon="2.31219">
        <ele>117.5</ele>
        <time>2015-02-02T20:03:15.501Z</time>
      </trkpt>
      <trkpt lat="48.83107" lon="2.31211">
        <ele>117.8</ele>
        <time>2015-02-02T20:03:17.571Z</time>
      </trkpt>
      <trkpt lat="48.8311" lon="2.31207">
        <ele>117.8</ele>
        <time>2015-02-02T20:03:18.490Z</time>
      </trkpt>
      <trkpt lat="48.83115" lon="2.31197">
        <ele>118.1</ele>
        <time>2015-02-02T20:03:20.517Z</time>
      </trkpt>
      <trkpt lat="48.83118" lon="2.31192">
        <ele>118.2</ele>
        <time>2015-02-02T20:03:21.525Z</time>
      </trkpt>
      <trkpt lat="48.83122" lon="2.31186">
        <ele>118.3</ele>
        <time>2015-02-02T20:03:22.542Z</time>
      </trkpt>
      <trkpt lat="48.83125" lon="2.31181">
        <ele>118.3</ele>
        <time>2015-02-02T20:03:23.544Z</time>
      </trkpt>
      <trkpt lat="48.83129" lon="2.31176">
        <ele>118.5</ele>
        <time>2015-02-02T20:03:24.564Z</time>
      </trkpt>
      <trkpt lat="48.83133" lon="2.31172">
        <ele>118.4</ele>
        <time>2015-02-02T20:03:25.563Z</time>
      </trkpt>
      <trkpt lat="48.83137" lon="2.31168">
        <ele>118.2</ele>
        <time>2015-02-02T20:03:26.569Z</time>
      </trkpt>
      <trkpt lat="48.8314" lon="2.31163">
        <ele>118</ele>
        <time>2015-02-02T20:03:27.509Z</time>
      </trkpt>
      <trkpt lat="48.83146" lon="2.31154">
        <ele>117.6</ele>
        <time>2015-02-02T20:03:29.572Z</time>
      </trkpt>
      <trkpt lat="48.83148" lon="2.31151">
        <ele>117.3</ele>
        <time>2015-02-02T20:03:30.497Z</time>
      </trkpt>
      <trkpt lat="48.83154" lon="2.31142">
        <ele>117</ele>
        <time>2015-02-02T20:03:32.485Z</time>
      </trkpt>
      <trkpt lat="48.83162" lon="2.31127">
        <ele>116.7</ele>
        <time>2015-02-02T20:03:35.714Z</time>
      </trkpt>
      <trkpt lat="48.83168" lon="2.31117">
        <ele>115.9</ele>
        <time>2015-02-02T20:03:37.485Z</time>
      </trkpt>
      <trkpt lat="48.8317" lon="2.31112">
        <ele>115.7</ele>
        <time>2015-02-02T20:03:38.611Z</time>
      </trkpt>
      <trkpt lat="48.83173" lon="2.31106">
        <ele>115.4</ele>
        <time>2015-02-02T20:03:39.472Z</time>
      </trkpt>
      <trkpt lat="48.83202" lon="2.31065">
        <ele>114.6</ele>
        <time>2015-02-02T20:03:49.524Z</time>
      </trkpt>
      <trkpt lat="48.83207" lon="2.31053">
        <ele>114.4</ele>
        <time>2015-02-02T20:03:53.381Z</time>
      </trkpt>
      <trkpt lat="48.8321" lon="2.31054">
        <ele>114</ele>
        <time>2015-02-02T20:03:53.461Z</time>
      </trkpt>
      <trkpt lat="48.83213" lon="2.31052">
        <ele>111.5</ele>
        <time>2015-02-02T20:03:56.520Z</time>
      </trkpt>
      <trkpt lat="48.83212" lon="2.31052">
        <ele>110.5</ele>
        <time>2015-02-02T20:03:57.538Z</time>
      </trkpt>
      <trkpt lat="48.8321" lon="2.31051">
        <ele>108.9</ele>
        <time>2015-02-02T20:04:03.610Z</time>
      </trkpt>
      <trkpt lat="48.83212" lon="2.31051">
        <ele>108</ele>
        <time>2015-02-02T20:04:03.657Z</time>
      </trkpt>
      <trkpt lat="48.83219" lon="2.31059">
        <ele>105.1</ele>
        <time>2015-02-02T20:04:08.682Z</time>
      </trkpt>
      <trkpt lat="48.8322" lon="2.31061">
        <ele>104.8</ele>
        <time>2015-02-02T20:04:09.498Z</time>
      </trkpt>
      <trkpt lat="48.83226" lon="2.3107">
        <ele>103.9</ele>
        <time>2015-02-02T20:04:12.551Z</time>
      </trkpt>
      <trkpt lat="48.83228" lon="2.31074">
        <ele>103.8</ele>
        <time>2015-02-02T20:04:13.545Z</time>
      </trkpt>
      <trkpt lat="48.83231" lon="2.31081">
        <ele>103.7</ele>
        <time>2015-02-02T20:04:15.567Z</time>
      </trkpt>
      <trkpt lat="48.83233" lon="2.31085">
        <ele>103.3</ele>
        <time>2015-02-02T20:04:16.518Z</time>
      </trkpt>
      <trkpt lat="48.83236" lon="2.31094">
        <ele>102.8</ele>
        <time>2015-02-02T20:04:18.894Z</time>
      </trkpt>
      <trkpt lat="48.83238" lon="2.31098">
        <ele>102.7</ele>
        <time>2015-02-02T20:04:19.541Z</time>
      </trkpt>
      <trkpt lat="48.83243" lon="2.31108">
        <ele>103.4</ele>
        <time>2015-02-02T20:04:22.563Z</time>
      </trkpt>
      <trkpt lat="48.83246" lon="2.31113">
        <ele>103.5</ele>
        <time>2015-02-02T20:04:23.582Z</time>
      </trkpt>
      <trkpt lat="48.83251" lon="2.31122">
        <ele>103.6</ele>
        <time>2015-02-02T20:04:25.472Z</time>
      </trkpt>
      <trkpt lat="48.83253" lon="2.31126">
        <ele>103.5</ele>
        <time>2015-02-02T20:04:26.501Z</time>
      </trkpt>
      <trkpt lat="48.8326" lon="2.31133">
        <ele>103.7</ele>
        <time>2015-02-02T20:04:29.549Z</time>
      </trkpt>
      <trkpt lat="48.83262" lon="2.31135">
        <ele>103.9</ele>
        <time>2015-02-02T20:04:30.560Z</time>
      </trkpt>
      <trkpt lat="48.83269" lon="2.31129">
        <ele>105.1</ele>
        <time>2015-02-02T20:04:37.520Z</time>
      </trkpt>
      <trkpt lat="48.83269" lon="2.31129">
        <ele>105.3</ele>
        <time>2015-02-02T20:04:38.546Z</time>
      </trkpt>
      <trkpt lat="48.83269" lon="2.31129">
        <ele>105.3</ele>
        <time>2015-02-02T20:04:39.086Z</time>
      </trkpt>
      <trkpt lat="48.8327" lon="2.31128">
        <ele>105.5</ele>
        <time>2015-02-02T20:04:39.566Z</time>
      </trkpt>
      <trkpt lat="48.83265" lon="2.31118">
        <ele>104.7</ele>
        <time>2015-02-02T20:04:44.569Z</time>
      </trkpt>
      <trkpt lat="48.83263" lon="2.31115">
        <ele>104.9</ele>
        <time>2015-02-02T20:04:45.501Z</time>
      </trkpt>
      <trkpt lat="48.83257" lon="2.31106">
        <ele>104.5</ele>
        <time>2015-02-02T20:04:48.532Z</time>
      </trkpt>
      <trkpt lat="48.83255" lon="2.31104">
        <ele>104.4</ele>
        <time>2015-02-02T20:04:49.550Z</time>
      </trkpt>
      <trkpt lat="48.83261" lon="2.31111">
        <ele>104.1</ele>
        <time>2015-02-02T20:04:58.561Z</time>
      </trkpt>
      <trkpt lat="48.83263" lon="2.31113">
        <ele>104.2</ele>
        <time>2015-02-02T20:04:59.608Z</time>
      </trkpt>
      <trkpt lat="48.8327" lon="2.31107">
        <ele>103.5</ele>
        <time>2015-02-02T20:05:06.522Z</time>
      </trkpt>
      <trkpt lat="48.8327" lon="2.31103">
        <ele>103.3</ele>
        <time>2015-02-02T20:05:07.549Z</time>
      </trkpt>
      <trkpt lat="48.83271" lon="2.31092">
        <ele>103.1</ele>
        <time>2015-02-02T20:05:11.518Z</time>
      </trkpt>
      <trkpt lat="48.83273" lon="2.3109">
        <ele>103.5</ele>
        <time>2015-02-02T20:05:12.506Z</time>
      </trkpt>
      <trkpt lat="48.83281" lon="2.31087">
        <ele>103.9</ele>
        <time>2015-02-02T20:05:16.623Z</time>
      </trkpt>
      <trkpt lat="48.83282" lon="2.31086">
        <ele>103.8</ele>
        <time>2015-02-02T20:05:17.525Z</time>
      </trkpt>
      <trkpt lat="48.83286" lon="2.31097">
        <ele>103.8</ele>
        <time>2015-02-02T20:05:25.498Z</time>
      </trkpt>
      <trkpt lat="48.83287" lon="2.31098">
        <ele>103.8</ele>
        <time>2015-02-02T20:05:26.509Z</time>
      </trkpt>
      <trkpt lat="48.83294" lon="2.31103">
        <ele>104.2</ele>
        <time>2015-02-02T20:05:32.476Z</time>
      </trkpt>
      <trkpt lat="48.83296" lon="2.31104">
        <ele>104.5</ele>
        <time>2015-02-02T20:05:33.503Z</time>
      </trkpt>
      <trkpt lat="48.83299" lon="2.31116">
        <ele>105.7</ele>
        <time>2015-02-02T20:05:41.480Z</time>
      </trkpt>
      <trkpt lat="48.83299" lon="2.31118">
        <ele>105.7</ele>
        <time>2015-02-02T20:05:42.498Z</time>
      </trkpt>
      <trkpt lat="48.83297" lon="2.3113">
        <ele>105.3</ele>
        <time>2015-02-02T20:05:50.496Z</time>
      </trkpt>
      <trkpt lat="48.83296" lon="2.31132">
        <ele>105.3</ele>
        <time>2015-02-02T20:05:51.506Z</time>
      </trkpt>
      <trkpt lat="48.83296" lon="2.3114">
        <ele>104.8</ele>
        <time>2015-02-02T20:05:54.568Z</time>
      </trkpt>
      <trkpt lat="48.83299" lon="2.31147">
        <ele>102.9</ele>
        <time>2015-02-02T20:05:55.581Z</time>
      </trkpt>
      <trkpt lat="48.83303" lon="2.31157">
        <ele>102</ele>
        <time>2015-02-02T20:05:58.529Z</time>
      </trkpt>
      <trkpt lat="48.83305" lon="2.3116">
        <ele>102</ele>
        <time>2015-02-02T20:05:59.540Z</time>
      </trkpt>
      <trkpt lat="48.8331" lon="2.31168">
        <ele>102.1</ele>
        <time>2015-02-02T20:06:03.403Z</time>
      </trkpt>
      <trkpt lat="48.83312" lon="2.3117">
        <ele>102.1</ele>
        <time>2015-02-02T20:06:03.467Z</time>
      </trkpt>
      <trkpt lat="48.83318" lon="2.31175">
        <ele>101.4</ele>
        <time>2015-02-02T20:06:09.558Z</time>
      </trkpt>
      <trkpt lat="48.83318" lon="2.31174">
        <ele>100.7</ele>
        <time>2015-02-02T20:06:10.569Z</time>
      </trkpt>
      <trkpt lat="48.83319" lon="2.31173">
        <ele>100.1</ele>
        <time>2015-02-02T20:06:31.524Z</time>
      </trkpt>
      <trkpt lat="48.83319" lon="2.31179">
        <ele>101.4</ele>
        <time>2015-02-02T20:06:32.599Z</time>
      </trkpt>
      <trkpt lat="48.83312" lon="2.31174">
        <ele>101.8</ele>
        <time>2015-02-02T20:06:39.031Z</time>
      </trkpt>
      <trkpt lat="48.83309" lon="2.31171">
        <ele>101.8</ele>
        <time>2015-02-02T20:06:39.536Z</time>
      </trkpt>
      <trkpt lat="48.83303" lon="2.31163">
        <ele>102</ele>
        <time>2015-02-02T20:06:42.613Z</time>
      </trkpt>
      <trkpt lat="48.83301" lon="2.3116">
        <ele>101.8</ele>
        <time>2015-02-02T20:06:43.583Z</time>
      </trkpt>
      <trkpt lat="48.83295" lon="2.31151">
        <ele>101.4</ele>
        <time>2015-02-02T20:06:46.506Z</time>
      </trkpt>
      <trkpt lat="48.83294" lon="2.31148">
        <ele>101.3</ele>
        <time>2015-02-02T20:06:47.560Z</time>
      </trkpt>
      <trkpt lat="48.83293" lon="2.31136">
        <ele>101.6</ele>
        <time>2015-02-02T20:06:53.259Z</time>
      </trkpt>
      <trkpt lat="48.83294" lon="2.31133">
        <ele>101.6</ele>
        <time>2015-02-02T20:06:53.474Z</time>
      </trkpt>
      <trkpt lat="48.83299" lon="2.31123">
        <ele>102</ele>
        <time>2015-02-02T20:06:58.353Z</time>
      </trkpt>
      <trkpt lat="48.833" lon="2.31121">
        <ele>102.1</ele>
        <time>2015-02-02T20:06:58.605Z</time>
      </trkpt>
      <trkpt lat="48.83299" lon="2.31108">
        <ele>102.7</ele>
        <time>2015-02-02T20:07:05.544Z</time>
      </trkpt>
      <trkpt lat="48.83298" lon="2.31106">
        <ele>102.8</ele>
        <time>2015-02-02T20:07:06.560Z</time>
      </trkpt>
      <trkpt lat="48.833" lon="2.31091">
        <ele>103.8</ele>
        <time>2015-02-02T20:07:10.524Z</time>
      </trkpt>
      <trkpt lat="48.83298" lon="2.31082">
        <ele>103.6</ele>
        <time>2015-02-02T20:07:11.569Z</time>
      </trkpt>
      <trkpt lat="48.83295" lon="2.31069">
        <ele>103.5</ele>
        <time>2015-02-02T20:07:12.597Z</time>
      </trkpt>
      <trkpt lat="48.83294" lon="2.31058">
        <ele>103.7</ele>
        <time>2015-02-02T20:07:14.494Z</time>
      </trkpt>
      <trkpt lat="48.83293" lon="2.31055">
        <ele>103.8</ele>
        <time>2015-02-02T20:07:15.526Z</time>
      </trkpt>
      <trkpt lat="48.83293" lon="2.31046">
        <ele>104</ele>
        <time>2015-02-02T20:07:18.592Z</time>
      </trkpt>
      <trkpt lat="48.83296" lon="2.31041">
        <ele>104.4</ele>
        <time>2015-02-02T20:07:18.633Z</time>
      </trkpt>
      <trkpt lat="48.833" lon="2.3103">
        <ele>104.9</ele>
        <time>2015-02-02T20:07:21.489Z</time>
      </trkpt>
      <trkpt lat="48.83302" lon="2.31028">
        <ele>105</ele>
        <time>2015-02-02T20:07:22.523Z</time>
      </trkpt>
      <trkpt lat="48.83307" lon="2.31031">
        <ele>104.8</ele>
        <time>2015-02-02T20:07:24.497Z</time>
      </trkpt>
      <trkpt lat="48.83315" lon="2.31039">
        <ele>103.2</ele>
        <time>2015-02-02T20:07:25.571Z</time>
      </trkpt>
      <trkpt lat="48.83321" lon="2.31043">
        <ele>102.1</ele>
        <time>2015-02-02T20:07:26.490Z</time>
      </trkpt>
      <trkpt lat="48.83326" lon="2.31046">
        <ele>101.4</ele>
        <time>2015-02-02T20:07:27.601Z</time>
      </trkpt>
      <trkpt lat="48.83339" lon="2.31055">
        <ele>100.1</ele>
        <time>2015-02-02T20:07:30.583Z</time>
      </trkpt>
      <trkpt lat="48.83346" lon="2.3106">
        <ele>100.3</ele>
        <time>2015-02-02T20:07:32.462Z</time>
      </trkpt>
      <trkpt lat="48.8335" lon="2.31062">
        <ele>100.5</ele>
        <time>2015-02-02T20:07:33.591Z</time>
      </trkpt>
      <trkpt lat="48.83355" lon="2.31063">
        <ele>100.4</ele>
        <time>2015-02-02T20:07:34.613Z</time>
      </trkpt>
      <trkpt lat="48.8336" lon="2.31062">
        <ele>100.4</ele>
        <time>2015-02-02T20:07:35.484Z</time>
      </trkpt>
      <trkpt lat="48.83365" lon="2.31063">
        <ele>100.3</ele>
        <time>2015-02-02T20:07:36.489Z</time>
      </trkpt>
      <trkpt lat="48.8337" lon="2.31068">
        <ele>100.1</ele>
        <time>2015-02-02T20:07:37.500Z</time>
      </trkpt>
      <trkpt lat="48.83374" lon="2.31074">
        <ele>100</ele>
        <time>2015-02-02T20:07:38.518Z</time>
      </trkpt>
      <trkpt lat="48.83378" lon="2.31081">
        <ele>99.7</ele>
        <time>2015-02-02T20:07:39.521Z</time>
      </trkpt>
      <trkpt lat="48.83382" lon="2.3109">
        <ele>99.1</ele>
        <time>2015-02-02T20:07:40.543Z</time>
      </trkpt>
      <trkpt lat="48.83387" lon="2.311">
        <ele>99.1</ele>
        <time>2015-02-02T20:07:41.572Z</time>
      </trkpt>
      <trkpt lat="48.83398" lon="2.31113">
        <ele>98.1</ele>
        <time>2015-02-02T20:07:43.473Z</time>
      </trkpt>
      <trkpt lat="48.83402" lon="2.31119">
        <ele>97.8</ele>
        <time>2015-02-02T20:07:44.484Z</time>
      </trkpt>
      <trkpt lat="48.83407" lon="2.31123">
        <ele>97.6</ele>
        <time>2015-02-02T20:07:45.579Z</time>
      </trkpt>
      <trkpt lat="48.83412" lon="2.31128">
        <ele>97.4</ele>
        <time>2015-02-02T20:07:46.593Z</time>
      </trkpt>
      <trkpt lat="48.83417" lon="2.31132">
        <ele>97.1</ele>
        <time>2015-02-02T20:07:47.480Z</time>
      </trkpt>
      <trkpt lat="48.83423" lon="2.31135">
        <ele>97</ele>
        <time>2015-02-02T20:07:48.578Z</time>
      </trkpt>
      <trkpt lat="48.83429" lon="2.31138">
        <ele>96.8</ele>
        <time>2015-02-02T20:07:49.477Z</time>
      </trkpt>
      <trkpt lat="48.83434" lon="2.31141">
        <ele>96.6</ele>
        <time>2015-02-02T20:07:50.490Z</time>
      </trkpt>
      <trkpt lat="48.83439" lon="2.31145">
        <ele>96.4</ele>
        <time>2015-02-02T20:07:51.501Z</time>
      </trkpt>
      <trkpt lat="48.83443" lon="2.31149">
        <ele>96.1</ele>
        <time>2015-02-02T20:07:52.534Z</time>
      </trkpt>
      <trkpt lat="48.83448" lon="2.31154">
        <ele>96</ele>
        <time>2015-02-02T20:07:53.548Z</time>
      </trkpt>
      <trkpt lat="48.83453" lon="2.31159">
        <ele>96.4</ele>
        <time>2015-02-02T20:07:54.484Z</time>
      </trkpt>
      <trkpt lat="48.8346" lon="2.31163">
        <ele>96.8</ele>
        <time>2015-02-02T20:07:55.485Z</time>
      </trkpt>
      <trkpt lat="48.83466" lon="2.31168">
        <ele>97</ele>
        <time>2015-02-02T20:07:56.488Z</time>
      </trkpt>
      <trkpt lat="48.83472" lon="2.31172">
        <ele>97.2</ele>
        <time>2015-02-02T20:07:57.493Z</time>
      </trkpt>
      <trkpt lat="48.83485" lon="2.31177">
        <ele>97.6</ele>
        <time>2015-02-02T20:07:59.507Z</time>
      </trkpt>
      <trkpt lat="48.83491" lon="2.3118">
        <ele>97.7</ele>
        <time>2015-02-02T20:08:00.522Z</time>
      </trkpt>
      <trkpt lat="48.83497" lon="2.31182">
        <ele>97.7</ele>
        <time>2015-02-02T20:08:01.537Z</time>
      </trkpt>
      <trkpt lat="48.83503" lon="2.31183">
        <ele>97.8</ele>
        <time>2015-02-02T20:08:02.483Z</time>
      </trkpt>
      <trkpt lat="48.83508" lon="2.31185">
        <ele>98</ele>
        <time>2015-02-02T20:08:03.485Z</time>
      </trkpt>
      <trkpt lat="48.83512" lon="2.31189">
        <ele>98.3</ele>
        <time>2015-02-02T20:08:04.530Z</time>
      </trkpt>
      <trkpt lat="48.83516" lon="2.31193">
        <ele>98.4</ele>
        <time>2015-02-02T20:08:05.524Z</time>
      </trkpt>
      <trkpt lat="48.83521" lon="2.31198">
        <ele>98.5</ele>
        <time>2015-02-02T20:08:07.533Z</time>
      </trkpt>
      <trkpt lat="48.83525" lon="2.31195">
        <ele>98.5</ele>
        <time>2015-02-02T20:08:08.547Z</time>
      </trkpt>
      <trkpt lat="48.83533" lon="2.31189">
        <ele>98.9</ele>
        <time>2015-02-02T20:08:12.496Z</time>
      </trkpt>
      <trkpt lat="48.83534" lon="2.31188">
        <ele>99.3</ele>
        <time>2015-02-02T20:08:13.529Z</time>
      </trkpt>
      <trkpt lat="48.83541" lon="2.31182">
        <ele>102.4</ele>
        <time>2015-02-02T20:08:29.524Z</time>
      </trkpt>
      <trkpt lat="48.83542" lon="2.3118">
        <ele>102.3</ele>
        <time>2015-02-02T20:08:30.536Z</time>
      </trkpt>
      <trkpt lat="48.83546" lon="2.31173">
        <ele>102.6</ele>
        <time>2015-02-02T20:08:34.526Z</time>
      </trkpt>
      <trkpt lat="48.83548" lon="2.3117">
        <ele>102.5</ele>
        <time>2015-02-02T20:08:35.551Z</time>
      </trkpt>
      <trkpt lat="48.8356" lon="2.31156">
        <ele>102.5</ele>
        <time>2015-02-02T20:08:41.563Z</time>
      </trkpt>
      <trkpt lat="48.83565" lon="2.31147">
        <ele>102.5</ele>
        <time>2015-02-02T20:08:43.473Z</time>
      </trkpt>
      <trkpt lat="48.83569" lon="2.31145">
        <ele>102.8</ele>
        <time>2015-02-02T20:08:44.474Z</time>
      </trkpt>
      <trkpt lat="48.83576" lon="2.31139">
        <ele>103.1</ele>
        <time>2015-02-02T20:08:46.643Z</time>
      </trkpt>
      <trkpt lat="48.83579" lon="2.31136">
        <ele>103.2</ele>
        <time>2015-02-02T20:08:47.487Z</time>
      </trkpt>
      <trkpt lat="48.83585" lon="2.3113">
        <ele>103.6</ele>
        <time>2015-02-02T20:08:49.544Z</time>
      </trkpt>
      <trkpt lat="48.83588" lon="2.31127">
        <ele>103.8</ele>
        <time>2015-02-02T20:08:50.612Z</time>
      </trkpt>
      <trkpt lat="48.83596" lon="2.31122">
        <ele>104</ele>
        <time>2015-02-02T20:08:52.507Z</time>
      </trkpt>
      <trkpt lat="48.83599" lon="2.31119">
        <ele>104.1</ele>
        <time>2015-02-02T20:08:53.511Z</time>
      </trkpt>
      <trkpt lat="48.83605" lon="2.31111">
        <ele>104.3</ele>
        <time>2015-02-02T20:08:55.482Z</time>
      </trkpt>
      <trkpt lat="48.83607" lon="2.31107">
        <ele>104.4</ele>
        <time>2015-02-02T20:08:56.485Z</time>
      </trkpt>
      <trkpt lat="48.83612" lon="2.31096">
        <ele>104.6</ele>
        <time>2015-02-02T20:08:58.521Z</time>
      </trkpt>
      <trkpt lat="48.83615" lon="2.31091">
        <ele>104.5</ele>
        <time>2015-02-02T20:08:59.533Z</time>
      </trkpt>
      <trkpt lat="48.8362" lon="2.31084">
        <ele>104.5</ele>
        <time>2015-02-02T20:09:01.558Z</time>
      </trkpt>
      <trkpt lat="48.83623" lon="2.31079">
        <ele>104.7</ele>
        <time>2015-02-02T20:09:02.476Z</time>
      </trkpt>
      <trkpt lat="48.83637" lon="2.31045">
        <ele>104.2</ele>
        <time>2015-02-02T20:09:09.476Z</time>
      </trkpt>
      <trkpt lat="48.83639" lon="2.31033">
        <ele>102.6</ele>
        <time>2015-02-02T20:09:11.510Z</time>
      </trkpt>
      <trkpt lat="48.83639" lon="2.31027">
        <ele>102</ele>
        <time>2015-02-02T20:09:12.595Z</time>
      </trkpt>
      <trkpt lat="48.83636" lon="2.31016">
        <ele>97.8</ele>
        <time>2015-02-02T20:09:13.475Z</time>
      </trkpt>
      <trkpt lat="48.83637" lon="2.31011">
        <ele>97.7</ele>
        <time>2015-02-02T20:09:14.477Z</time>
      </trkpt>
      <trkpt lat="48.8364" lon="2.31006">
        <ele>97.7</ele>
        <time>2015-02-02T20:09:15.496Z</time>
      </trkpt>
      <trkpt lat="48.83644" lon="2.31">
        <ele>99.6</ele>
        <time>2015-02-02T20:09:16.501Z</time>
      </trkpt>
      <trkpt lat="48.83651" lon="2.30991">
        <ele>99.8</ele>
        <time>2015-02-02T20:09:18.518Z</time>
      </trkpt>
      <trkpt lat="48.83654" lon="2.30987">
        <ele>99.8</ele>
        <time>2015-02-02T20:09:19.523Z</time>
      </trkpt>
      <trkpt lat="48.83657" lon="2.30981">
        <ele>99.9</ele>
        <time>2015-02-02T20:09:20.558Z</time>
      </trkpt>
      <trkpt lat="48.8366" lon="2.30975">
        <ele>100</ele>
        <time>2015-02-02T20:09:21.563Z</time>
      </trkpt>
      <trkpt lat="48.83664" lon="2.30969">
        <ele>99.9</ele>
        <time>2015-02-02T20:09:22.585Z</time>
      </trkpt>
      <trkpt lat="48.83667" lon="2.30963">
        <ele>99.8</ele>
        <time>2015-02-02T20:09:23.490Z</time>
      </trkpt>
      <trkpt lat="48.8367" lon="2.30958">
        <ele>99.6</ele>
        <time>2015-02-02T20:09:24.496Z</time>
      </trkpt>
      <trkpt lat="48.83674" lon="2.30953">
        <ele>99.5</ele>
        <time>2015-02-02T20:09:25.498Z</time>
      </trkpt>
      <trkpt lat="48.83677" lon="2.30948">
        <ele>99.5</ele>
        <time>2015-02-02T20:09:26.528Z</time>
      </trkpt>
      <trkpt lat="48.83681" lon="2.30943">
        <ele>99.4</ele>
        <time>2015-02-02T20:09:27.531Z</time>
      </trkpt>
      <trkpt lat="48.83685" lon="2.30938">
        <ele>99.2</ele>
        <time>2015-02-02T20:09:28.547Z</time>
      </trkpt>
      <trkpt lat="48.83688" lon="2.30933">
        <ele>99.2</ele>
        <time>2015-02-02T20:09:29.592Z</time>
      </trkpt>
      <trkpt lat="48.83692" lon="2.30928">
        <ele>99.1</ele>
        <time>2015-02-02T20:09:30.524Z</time>
      </trkpt>
      <trkpt lat="48.83696" lon="2.30923">
        <ele>99.1</ele>
        <time>2015-02-02T20:09:31.537Z</time>
      </trkpt>
      <trkpt lat="48.83699" lon="2.30917">
        <ele>99</ele>
        <time>2015-02-02T20:09:32.495Z</time>
      </trkpt>
      <trkpt lat="48.83703" lon="2.30912">
        <ele>99</ele>
        <time>2015-02-02T20:09:33.511Z</time>
      </trkpt>
      <trkpt lat="48.83707" lon="2.30905">
        <ele>99</ele>
        <time>2015-02-02T20:09:34.565Z</time>
      </trkpt>
      <trkpt lat="48.8371" lon="2.30898">
        <ele>99</ele>
        <time>2015-02-02T20:09:35.655Z</time>
      </trkpt>
      <trkpt lat="48.83714" lon="2.30893">
        <ele>99.1</ele>
        <time>2015-02-02T20:09:36.491Z</time>
      </trkpt>
      <trkpt lat="48.83718" lon="2.30888">
        <ele>99.3</ele>
        <time>2015-02-02T20:09:37.512Z</time>
      </trkpt>
      <trkpt lat="48.83722" lon="2.30883">
        <ele>99.4</ele>
        <time>2015-02-02T20:09:39.317Z</time>
      </trkpt>
      <trkpt lat="48.83727" lon="2.30879">
        <ele>99.4</ele>
        <time>2015-02-02T20:09:39.538Z</time>
      </trkpt>
      <trkpt lat="48.83732" lon="2.30873">
        <ele>99.5</ele>
        <time>2015-02-02T20:09:40.546Z</time>
      </trkpt>
      <trkpt lat="48.83736" lon="2.30868">
        <ele>99.6</ele>
        <time>2015-02-02T20:09:41.551Z</time>
      </trkpt>
      <trkpt lat="48.8374" lon="2.30861">
        <ele>99.8</ele>
        <time>2015-02-02T20:09:42.577Z</time>
      </trkpt>
      <trkpt lat="48.83744" lon="2.30856">
        <ele>99.9</ele>
        <time>2015-02-02T20:09:43.488Z</time>
      </trkpt>
      <trkpt lat="48.83749" lon="2.30849">
        <ele>100</ele>
        <time>2015-02-02T20:09:44.491Z</time>
      </trkpt>
      <trkpt lat="48.83753" lon="2.30844">
        <ele>100.1</ele>
        <time>2015-02-02T20:09:45.496Z</time>
      </trkpt>
      <trkpt lat="48.83758" lon="2.30834">
        <ele>100.3</ele>
        <time>2015-02-02T20:09:47.532Z</time>
      </trkpt>
      <trkpt lat="48.8376" lon="2.3083">
        <ele>100.4</ele>
        <time>2015-02-02T20:09:48.583Z</time>
      </trkpt>
      <trkpt lat="48.83761" lon="2.30819">
        <ele>100.7</ele>
        <time>2015-02-02T20:09:50.495Z</time>
      </trkpt>
      <trkpt lat="48.83761" lon="2.30814">
        <ele>100.8</ele>
        <time>2015-02-02T20:09:51.507Z</time>
      </trkpt>
      <trkpt lat="48.83764" lon="2.30806">
        <ele>101.1</ele>
        <time>2015-02-02T20:09:53.551Z</time>
      </trkpt>
      <trkpt lat="48.83767" lon="2.30803">
        <ele>101.2</ele>
        <time>2015-02-02T20:09:54.571Z</time>
      </trkpt>
      <trkpt lat="48.83774" lon="2.30795">
        <ele>101.1</ele>
        <time>2015-02-02T20:09:56.486Z</time>
      </trkpt>
      <trkpt lat="48.83776" lon="2.30793">
        <ele>101</ele>
        <time>2015-02-02T20:09:57.496Z</time>
      </trkpt>
      <trkpt lat="48.83783" lon="2.30786">
        <ele>101.1</ele>
        <time>2015-02-02T20:09:59.523Z</time>
      </trkpt>
      <trkpt lat="48.83786" lon="2.30781">
        <ele>101</ele>
        <time>2015-02-02T20:10:00.550Z</time>
      </trkpt>
      <trkpt lat="48.8379" lon="2.30776">
        <ele>101</ele>
        <time>2015-02-02T20:10:01.615Z</time>
      </trkpt>
      <trkpt lat="48.83794" lon="2.30772">
        <ele>100.9</ele>
        <time>2015-02-02T20:10:02.468Z</time>
      </trkpt>
      <trkpt lat="48.838" lon="2.30768">
        <ele>100.8</ele>
        <time>2015-02-02T20:10:03.481Z</time>
      </trkpt>
      <trkpt lat="48.83804" lon="2.30763">
        <ele>100.8</ele>
        <time>2015-02-02T20:10:04.551Z</time>
      </trkpt>
      <trkpt lat="48.83808" lon="2.30757">
        <ele>101.1</ele>
        <time>2015-02-02T20:10:05.570Z</time>
      </trkpt>
      <trkpt lat="48.83811" lon="2.30751">
        <ele>101.4</ele>
        <time>2015-02-02T20:10:06.480Z</time>
      </trkpt>
      <trkpt lat="48.83815" lon="2.30744">
        <ele>101.7</ele>
        <time>2015-02-02T20:10:07.483Z</time>
      </trkpt>
      <trkpt lat="48.83819" lon="2.30738">
        <ele>101.9</ele>
        <time>2015-02-02T20:10:08.481Z</time>
      </trkpt>
      <trkpt lat="48.83823" lon="2.30731">
        <ele>102</ele>
        <time>2015-02-02T20:10:09.488Z</time>
      </trkpt>
      <trkpt lat="48.83826" lon="2.30725">
        <ele>102.2</ele>
        <time>2015-02-02T20:10:10.499Z</time>
      </trkpt>
      <trkpt lat="48.8383" lon="2.30719">
        <ele>102.3</ele>
        <time>2015-02-02T20:10:11.521Z</time>
      </trkpt>
      <trkpt lat="48.83833" lon="2.30714">
        <ele>102.5</ele>
        <time>2015-02-02T20:10:12.535Z</time>
      </trkpt>
      <trkpt lat="48.83838" lon="2.30708">
        <ele>102.7</ele>
        <time>2015-02-02T20:10:13.482Z</time>
      </trkpt>
      <trkpt lat="48.83842" lon="2.30703">
        <ele>102.8</ele>
        <time>2015-02-02T20:10:14.485Z</time>
      </trkpt>
      <trkpt lat="48.83846" lon="2.30698">
        <ele>102.8</ele>
        <time>2015-02-02T20:10:15.512Z</time>
      </trkpt>
      <trkpt lat="48.8385" lon="2.30693">
        <ele>102.9</ele>
        <time>2015-02-02T20:10:16.516Z</time>
      </trkpt>
      <trkpt lat="48.83855" lon="2.30689">
        <ele>103</ele>
        <time>2015-02-02T20:10:17.536Z</time>
      </trkpt>
      <trkpt lat="48.83859" lon="2.30684">
        <ele>102.9</ele>
        <time>2015-02-02T20:10:18.544Z</time>
      </trkpt>
      <trkpt lat="48.83864" lon="2.30679">
        <ele>102.9</ele>
        <time>2015-02-02T20:10:19.578Z</time>
      </trkpt>
      <trkpt lat="48.83869" lon="2.30674">
        <ele>102.9</ele>
        <time>2015-02-02T20:10:20.569Z</time>
      </trkpt>
      <trkpt lat="48.83874" lon="2.3067">
        <ele>103</ele>
        <time>2015-02-02T20:10:21.459Z</time>
      </trkpt>
      <trkpt lat="48.83879" lon="2.30666">
        <ele>103.1</ele>
        <time>2015-02-02T20:10:22.494Z</time>
      </trkpt>
      <trkpt lat="48.83884" lon="2.30661">
        <ele>103.1</ele>
        <time>2015-02-02T20:10:23.497Z</time>
      </trkpt>
      <trkpt lat="48.83888" lon="2.30657">
        <ele>103.1</ele>
        <time>2015-02-02T20:10:24.499Z</time>
      </trkpt>
      <trkpt lat="48.83894" lon="2.30649">
        <ele>103.2</ele>
        <time>2015-02-02T20:10:26.501Z</time>
      </trkpt>
      <trkpt lat="48.83896" lon="2.30646">
        <ele>103.3</ele>
        <time>2015-02-02T20:10:27.508Z</time>
      </trkpt>
      <trkpt lat="48.83902" lon="2.30639">
        <ele>103.5</ele>
        <time>2015-02-02T20:10:32.513Z</time>
      </trkpt>
      <trkpt lat="48.83903" lon="2.30639">
        <ele>103.5</ele>
        <time>2015-02-02T20:10:33.539Z</time>
      </trkpt>
      <trkpt lat="48.83911" lon="2.30635">
        <ele>103.5</ele>
        <time>2015-02-02T20:10:36.483Z</time>
      </trkpt>
      <trkpt lat="48.83913" lon="2.30634">
        <ele>103.8</ele>
        <time>2015-02-02T20:10:37.495Z</time>
      </trkpt>
      <trkpt lat="48.8392" lon="2.30626">
        <ele>104.2</ele>
        <time>2015-02-02T20:10:40.603Z</time>
      </trkpt>
      <trkpt lat="48.83927" lon="2.30617">
        <ele>104.3</ele>
        <time>2015-02-02T20:10:42.498Z</time>
      </trkpt>
      <trkpt lat="48.83975" lon="2.30576">
        <ele>103.7</ele>
        <time>2015-02-02T20:10:58.520Z</time>
      </trkpt>
      <trkpt lat="48.83984" lon="2.30574">
        <ele>104.8</ele>
        <time>2015-02-02T20:11:01.515Z</time>
      </trkpt>
      <trkpt lat="48.84" lon="2.30561">
        <ele>104.7</ele>
        <time>2015-02-02T20:11:05.492Z</time>
      </trkpt>
      <trkpt lat="48.84005" lon="2.30555">
        <ele>105.1</ele>
        <time>2015-02-02T20:11:07.561Z</time>
      </trkpt>
      <trkpt lat="48.84008" lon="2.30554">
        <ele>105.3</ele>
        <time>2015-02-02T20:11:08.485Z</time>
      </trkpt>
      <trkpt lat="48.84015" lon="2.30549">
        <ele>105.3</ele>
        <time>2015-02-02T20:11:11.535Z</time>
      </trkpt>
      <trkpt lat="48.84017" lon="2.30547">
        <ele>105.5</ele>
        <time>2015-02-02T20:11:12.549Z</time>
      </trkpt>
      <trkpt lat="48.84021" lon="2.30542">
        <ele>105.8</ele>
        <time>2015-02-02T20:11:14.493Z</time>
      </trkpt>
      <trkpt lat="48.84025" lon="2.30537">
        <ele>106.1</ele>
        <time>2015-02-02T20:11:16.525Z</time>
      </trkpt>
      <trkpt lat="48.84056" lon="2.30508">
        <ele>104.9</ele>
        <time>2015-02-02T20:11:26.497Z</time>
      </trkpt>
      <trkpt lat="48.84063" lon="2.30507">
        <ele>105.8</ele>
        <time>2015-02-02T20:11:33.551Z</time>
      </trkpt>
      <trkpt lat="48.84065" lon="2.30509">
        <ele>106.1</ele>
        <time>2015-02-02T20:11:34.565Z</time>
      </trkpt>
      <trkpt lat="48.84073" lon="2.30516">
        <ele>106.3</ele>
        <time>2015-02-02T20:11:37.491Z</time>
      </trkpt>
      <trkpt lat="48.84075" lon="2.30518">
        <ele>106.2</ele>
        <time>2015-02-02T20:11:38.501Z</time>
      </trkpt>
      <trkpt lat="48.84082" lon="2.30525">
        <ele>106.2</ele>
        <time>2015-02-02T20:11:42.545Z</time>
      </trkpt>
      <trkpt lat="48.84084" lon="2.30525">
        <ele>106.4</ele>
        <time>2015-02-02T20:11:43.479Z</time>
      </trkpt>
      <trkpt lat="48.84217" lon="2.30456">
        <ele>101.9</ele>
        <time>2015-02-02T20:12:32.510Z</time>
      </trkpt>
      <trkpt lat="48.84217" lon="2.3046">
        <ele>102</ele>
        <time>2015-02-02T20:12:34.586Z</time>
      </trkpt>
      <trkpt lat="48.84232" lon="2.30502">
        <ele>101.9</ele>
        <time>2015-02-02T20:12:42.531Z</time>
      </trkpt>
      <trkpt lat="48.84234" lon="2.30512">
        <ele>101.8</ele>
        <time>2015-02-02T20:12:44.676Z</time>
      </trkpt>
      <trkpt lat="48.84236" lon="2.30517">
        <ele>101.8</ele>
        <time>2015-02-02T20:12:45.561Z</time>
      </trkpt>
      <trkpt lat="48.84239" lon="2.30527">
        <ele>101.7</ele>
        <time>2015-02-02T20:12:47.502Z</time>
      </trkpt>
      <trkpt lat="48.84241" lon="2.30532">
        <ele>101.7</ele>
        <time>2015-02-02T20:12:48.611Z</time>
      </trkpt>
      <trkpt lat="48.84244" lon="2.30538">
        <ele>101.7</ele>
        <time>2015-02-02T20:12:49.587Z</time>
      </trkpt>
      <trkpt lat="48.84247" lon="2.30544">
        <ele>101.7</ele>
        <time>2015-02-02T20:12:50.524Z</time>
      </trkpt>
      <trkpt lat="48.84339" lon="2.30671">
        <ele>100.3</ele>
        <time>2015-02-02T20:13:29.496Z</time>
      </trkpt>
      <trkpt lat="48.84344" lon="2.30667">
        <ele>99.2</ele>
        <time>2015-02-02T20:13:30.512Z</time>
      </trkpt>
      <trkpt lat="48.84349" lon="2.30663">
        <ele>98.1</ele>
        <time>2015-02-02T20:13:31.534Z</time>
      </trkpt>
      <trkpt lat="48.84353" lon="2.30652">
        <ele>98.3</ele>
        <time>2015-02-02T20:13:37.562Z</time>
      </trkpt>
      <trkpt lat="48.84352" lon="2.3065">
        <ele>98.5</ele>
        <time>2015-02-02T20:13:38.471Z</time>
      </trkpt>
      <trkpt lat="48.8436" lon="2.30645">
        <ele>101.3</ele>
        <time>2015-02-02T20:13:44.535Z</time>
      </trkpt>
      <trkpt lat="48.8436" lon="2.30644">
        <ele>101.7</ele>
        <time>2015-02-02T20:13:45.555Z</time>
      </trkpt>
      <trkpt lat="48.8436" lon="2.30643">
        <ele>102.1</ele>
        <time>2015-02-02T20:13:46.592Z</time>
      </trkpt>
      <trkpt lat="48.8436" lon="2.30639">
        <ele>104.2</ele>
        <time>2015-02-02T20:13:51.459Z</time>
      </trkpt>
      <trkpt lat="48.84359" lon="2.30638">
        <ele>104.8</ele>
        <time>2015-02-02T20:13:52.496Z</time>
      </trkpt>
      <trkpt lat="48.84359" lon="2.30638">
        <ele>105.5</ele>
        <time>2015-02-02T20:13:53.495Z</time>
      </trkpt>
      <trkpt lat="48.84367" lon="2.30631">
        <ele>107.4</ele>
        <time>2015-02-02T20:14:01.503Z</time>
      </trkpt>
      <trkpt lat="48.84369" lon="2.30631">
        <ele>107.7</ele>
        <time>2015-02-02T20:14:02.523Z</time>
      </trkpt>
      <trkpt lat="48.84376" lon="2.30634">
        <ele>108.3</ele>
        <time>2015-02-02T20:14:05.574Z</time>
      </trkpt>
      <trkpt lat="48.84378" lon="2.30635">
        <ele>108.4</ele>
        <time>2015-02-02T20:14:06.490Z</time>
      </trkpt>
      <trkpt lat="48.84384" lon="2.30625">
        <ele>108.5</ele>
        <time>2015-02-02T20:14:09.511Z</time>
      </trkpt>
      <trkpt lat="48.84386" lon="2.30621">
        <ele>108.4</ele>
        <time>2015-02-02T20:14:10.531Z</time>
      </trkpt>
      <trkpt lat="48.84394" lon="2.30614">
        <ele>108.2</ele>
        <time>2015-02-02T20:14:13.485Z</time>
      </trkpt>
      <trkpt lat="48.84397" lon="2.30614">
        <ele>108.4</ele>
        <time>2015-02-02T20:14:14.518Z</time>
      </trkpt>
      <trkpt lat="48.84403" lon="2.30612">
        <ele>108.8</ele>
        <time>2015-02-02T20:14:16.585Z</time>
      </trkpt>
      <trkpt lat="48.84407" lon="2.30611">
        <ele>109.2</ele>
        <time>2015-02-02T20:14:17.475Z</time>
      </trkpt>
      <trkpt lat="48.84412" lon="2.30611">
        <ele>109.3</ele>
        <time>2015-02-02T20:14:18.525Z</time>
      </trkpt>
      <trkpt lat="48.8442" lon="2.30608">
        <ele>108.5</ele>
        <time>2015-02-02T20:14:19.533Z</time>
      </trkpt>
      <trkpt lat="48.84432" lon="2.30606">
        <ele>107.1</ele>
        <time>2015-02-02T20:14:20.546Z</time>
      </trkpt>
      <trkpt lat="48.84442" lon="2.30604">
        <ele>105.9</ele>
        <time>2015-02-02T20:14:21.553Z</time>
      </trkpt>
      <trkpt lat="48.84448" lon="2.30601">
        <ele>105.3</ele>
        <time>2015-02-02T20:14:22.559Z</time>
      </trkpt>
      <trkpt lat="48.84451" lon="2.30597">
        <ele>105.1</ele>
        <time>2015-02-02T20:14:23.496Z</time>
      </trkpt>
      <trkpt lat="48.84458" lon="2.30594">
        <ele>105.1</ele>
        <time>2015-02-02T20:14:25.508Z</time>
      </trkpt>
      <trkpt lat="48.84463" lon="2.30592">
        <ele>105</ele>
        <time>2015-02-02T20:14:26.522Z</time>
      </trkpt>
      <trkpt lat="48.8447" lon="2.30589">
        <ele>104.9</ele>
        <time>2015-02-02T20:14:28.539Z</time>
      </trkpt>
      <trkpt lat="48.84472" lon="2.30588">
        <ele>104.8</ele>
        <time>2015-02-02T20:14:29.549Z</time>
      </trkpt>
      <trkpt lat="48.84473" lon="2.30583">
        <ele>104.5</ele>
        <time>2015-02-02T20:14:30.569Z</time>
      </trkpt>
      <trkpt lat="48.84486" lon="2.30567">
        <ele>103.6</ele>
        <time>2015-02-02T20:14:35.517Z</time>
      </trkpt>
      <trkpt lat="48.84495" lon="2.30563">
        <ele>103</ele>
        <time>2015-02-02T20:14:38.493Z</time>
      </trkpt>
      <trkpt lat="48.84496" lon="2.30562">
        <ele>102.9</ele>
        <time>2015-02-02T20:14:39.462Z</time>
      </trkpt>
      <trkpt lat="48.84588" lon="2.30495">
        <ele>98.7</ele>
        <time>2015-02-02T20:15:03.483Z</time>
      </trkpt>
      <trkpt lat="48.84596" lon="2.30492">
        <ele>99.2</ele>
        <time>2015-02-02T20:15:06.543Z</time>
      </trkpt>
      <trkpt lat="48.84598" lon="2.30492">
        <ele>99.2</ele>
        <time>2015-02-02T20:15:07.492Z</time>
      </trkpt>
      <trkpt lat="48.84599" lon="2.30493">
        <ele>99.3</ele>
        <time>2015-02-02T20:15:08.575Z</time>
      </trkpt>
      <trkpt lat="48.84691" lon="2.30426">
        <ele>96.4</ele>
        <time>2015-02-02T20:15:53.478Z</time>
      </trkpt>
      <trkpt lat="48.84694" lon="2.30428">
        <ele>96.2</ele>
        <time>2015-02-02T20:15:55.589Z</time>
      </trkpt>
      <trkpt lat="48.84695" lon="2.3043">
        <ele>96.2</ele>
        <time>2015-02-02T20:15:56.520Z</time>
      </trkpt>
      <trkpt lat="48.84697" lon="2.30432">
        <ele>96.3</ele>
        <time>2015-02-02T20:15:58.309Z</time>
      </trkpt>
      <trkpt lat="48.84699" lon="2.30435">
        <ele>96.4</ele>
        <time>2015-02-02T20:15:58.546Z</time>
      </trkpt>
      <trkpt lat="48.84703" lon="2.30438">
        <ele>96.6</ele>
        <time>2015-02-02T20:16:00.475Z</time>
      </trkpt>
      <trkpt lat="48.84708" lon="2.30442">
        <ele>97.1</ele>
        <time>2015-02-02T20:16:01.601Z</time>
      </trkpt>
      <trkpt lat="48.84712" lon="2.30444">
        <ele>97.3</ele>
        <time>2015-02-02T20:16:03.399Z</time>
      </trkpt>
      <trkpt lat="48.84716" lon="2.30448">
        <ele>97.5</ele>
        <time>2015-02-02T20:16:03.486Z</time>
      </trkpt>
      <trkpt lat="48.84722" lon="2.30452">
        <ele>97.4</ele>
        <time>2015-02-02T20:16:14.590Z</time>
      </trkpt>
      <trkpt lat="48.84735" lon="2.30452">
        <ele>94.7</ele>
        <time>2015-02-02T20:16:15.614Z</time>
      </trkpt>
      <trkpt lat="48.84731" lon="2.3044">
        <ele>94.8</ele>
        <time>2015-02-02T20:16:24.529Z</time>
      </trkpt>
      <trkpt lat="48.84732" lon="2.30439">
        <ele>95</ele>
        <time>2015-02-02T20:16:25.620Z</time>
      </trkpt>
      <trkpt lat="48.84727" lon="2.30431">
        <ele>96.5</ele>
        <time>2015-02-02T20:16:30.567Z</time>
      </trkpt>
      <trkpt lat="48.84726" lon="2.30429">
        <ele>97</ele>
        <time>2015-02-02T20:16:31.583Z</time>
      </trkpt>
      <trkpt lat="48.84725" lon="2.30427">
        <ele>97.4</ele>
        <time>2015-02-02T20:16:32.485Z</time>
      </trkpt>
      <trkpt lat="48.84725" lon="2.30425">
        <ele>97.7</ele>
        <time>2015-02-02T20:16:34.513Z</time>
      </trkpt>
      <trkpt lat="48.84725" lon="2.30424">
        <ele>98</ele>
        <time>2015-02-02T20:16:35.515Z</time>
      </trkpt>
      <trkpt lat="48.84726" lon="2.30416">
        <ele>100.3</ele>
        <time>2015-02-02T20:16:44.064Z</time>
      </trkpt>
      <trkpt lat="48.84726" lon="2.30414">
        <ele>100.4</ele>
        <time>2015-02-02T20:16:44.576Z</time>
      </trkpt>
      <trkpt lat="48.84725" lon="2.30412">
        <ele>100.6</ele>
        <time>2015-02-02T20:16:45.492Z</time>
      </trkpt>
      <trkpt lat="48.84722" lon="2.30404">
        <ele>102</ele>
        <time>2015-02-02T20:16:48.552Z</time>
      </trkpt>
      <trkpt lat="48.8472" lon="2.30401">
        <ele>102.5</ele>
        <time>2015-02-02T20:16:49.551Z</time>
      </trkpt>
      <trkpt lat="48.84714" lon="2.30391">
        <ele>104</ele>
        <time>2015-02-02T20:16:53.221Z</time>
      </trkpt>
      <trkpt lat="48.84712" lon="2.30389">
        <ele>104.4</ele>
        <time>2015-02-02T20:16:53.489Z</time>
      </trkpt>
      <trkpt lat="48.84707" lon="2.3038">
        <ele>105.4</ele>
        <time>2015-02-02T20:16:56.544Z</time>
      </trkpt>
      <trkpt lat="48.84705" lon="2.30377">
        <ele>105.7</ele>
        <time>2015-02-02T20:16:57.590Z</time>
      </trkpt>
      <trkpt lat="48.84701" lon="2.30374">
        <ele>106.1</ele>
        <time>2015-02-02T20:17:00.542Z</time>
      </trkpt>
      <trkpt lat="48.84703" lon="2.30363">
        <ele>106.6</ele>
        <time>2015-02-02T20:17:05.478Z</time>
      </trkpt>
      <trkpt lat="48.84707" lon="2.30353">
        <ele>107.7</ele>
        <time>2015-02-02T20:17:09.486Z</time>
      </trkpt>
      <trkpt lat="48.84706" lon="2.30349">
        <ele>107.8</ele>
        <time>2015-02-02T20:17:10.529Z</time>
      </trkpt>
      <trkpt lat="48.84704" lon="2.30339">
        <ele>107.9</ele>
        <time>2015-02-02T20:17:12.544Z</time>
      </trkpt>
      <trkpt lat="48.84704" lon="2.30335">
        <ele>107.6</ele>
        <time>2015-02-02T20:17:13.551Z</time>
      </trkpt>
      <trkpt lat="48.84701" lon="2.30327">
        <ele>106.9</ele>
        <time>2015-02-02T20:17:15.582Z</time>
      </trkpt>
      <trkpt lat="48.84698" lon="2.30323">
        <ele>106.5</ele>
        <time>2015-02-02T20:17:16.585Z</time>
      </trkpt>
      <trkpt lat="48.84694" lon="2.30318">
        <ele>106.1</ele>
        <time>2015-02-02T20:17:17.452Z</time>
      </trkpt>
      <trkpt lat="48.8469" lon="2.30312">
        <ele>105.6</ele>
        <time>2015-02-02T20:17:18.476Z</time>
      </trkpt>
      <trkpt lat="48.8469" lon="2.30312">
        <ele>105.6</ele>
        <time>2015-02-02T20:17:18.842Z</time>
      </trkpt>
      <trkpt lat="48.84642" lon="2.30202">
        <ele>102.1</ele>
        <time>2015-02-02T20:17:37.490Z</time>
      </trkpt>
      <trkpt lat="48.84638" lon="2.30194">
        <ele>99</ele>
        <time>2015-02-02T20:17:42.501Z</time>
      </trkpt>
      <trkpt lat="48.84635" lon="2.30192">
        <ele>98.2</ele>
        <time>2015-02-02T20:17:43.571Z</time>
      </trkpt>
      <trkpt lat="48.84627" lon="2.30189">
        <ele>96.8</ele>
        <time>2015-02-02T20:17:46.522Z</time>
      </trkpt>
      <trkpt lat="48.84624" lon="2.30188">
        <ele>96.5</ele>
        <time>2015-02-02T20:17:47.551Z</time>
      </trkpt>
      <trkpt lat="48.84618" lon="2.30189">
        <ele>95.4</ele>
        <time>2015-02-02T20:17:49.464Z</time>
      </trkpt>
      <trkpt lat="48.84614" lon="2.3019">
        <ele>95.1</ele>
        <time>2015-02-02T20:17:50.500Z</time>
      </trkpt>
      <trkpt lat="48.84606" lon="2.30191">
        <ele>94.9</ele>
        <time>2015-02-02T20:17:53.435Z</time>
      </trkpt>
      <trkpt lat="48.84602" lon="2.30192">
        <ele>94.5</ele>
        <time>2015-02-02T20:17:53.552Z</time>
      </trkpt>
      <trkpt lat="48.84594" lon="2.30194">
        <ele>94.1</ele>
        <time>2015-02-02T20:17:55.477Z</time>
      </trkpt>
      <trkpt lat="48.84591" lon="2.30195">
        <ele>93.8</ele>
        <time>2015-02-02T20:17:56.479Z</time>
      </trkpt>
      <trkpt lat="48.84584" lon="2.30196">
        <ele>93.3</ele>
        <time>2015-02-02T20:17:58.502Z</time>
      </trkpt>
      <trkpt lat="48.8458" lon="2.30195">
        <ele>92.9</ele>
        <time>2015-02-02T20:17:59.515Z</time>
      </trkpt>
      <trkpt lat="48.84573" lon="2.30196">
        <ele>92.2</ele>
        <time>2015-02-02T20:18:01.464Z</time>
      </trkpt>
      <trkpt lat="48.8457" lon="2.30196">
        <ele>91.9</ele>
        <time>2015-02-02T20:18:02.483Z</time>
      </trkpt>
      <trkpt lat="48.84563" lon="2.30188">
        <ele>92.1</ele>
        <time>2015-02-02T20:18:05.521Z</time>
      </trkpt>
      <trkpt lat="48.84563" lon="2.30183">
        <ele>92.2</ele>
        <time>2015-02-02T20:18:06.485Z</time>
      </trkpt>
      <trkpt lat="48.84562" lon="2.30174">
        <ele>92.6</ele>
        <time>2015-02-02T20:18:08.631Z</time>
      </trkpt>
      <trkpt lat="48.8456" lon="2.30169">
        <ele>92.9</ele>
        <time>2015-02-02T20:18:09.499Z</time>
      </trkpt>
      <trkpt lat="48.84559" lon="2.30163">
        <ele>93.1</ele>
        <time>2015-02-02T20:18:10.499Z</time>
      </trkpt>
      <trkpt lat="48.84508" lon="2.29936">
        <ele>96.4</ele>
        <time>2015-02-02T20:19:04.529Z</time>
      </trkpt>
      <trkpt lat="48.84508" lon="2.29923">
        <ele>96.5</ele>
        <time>2015-02-02T20:19:13.489Z</time>
      </trkpt>
      <trkpt lat="48.84508" lon="2.29921">
        <ele>96.5</ele>
        <time>2015-02-02T20:19:13.523Z</time>
      </trkpt>
      <trkpt lat="48.84509" lon="2.29912">
        <ele>96.6</ele>
        <time>2015-02-02T20:19:16.528Z</time>
      </trkpt>
      <trkpt lat="48.84693" lon="2.29617">
        <ele>84.9</ele>
        <time>2015-02-02T20:20:27.477Z</time>
      </trkpt>
      <trkpt lat="48.84699" lon="2.29609">
        <ele>85</ele>
        <time>2015-02-02T20:20:30.510Z</time>
      </trkpt>
      <trkpt lat="48.84701" lon="2.29606">
        <ele>85.2</ele>
        <time>2015-02-02T20:20:31.527Z</time>
      </trkpt>
      <trkpt lat="48.84703" lon="2.29596">
        <ele>85.7</ele>
        <time>2015-02-02T20:20:34.587Z</time>
      </trkpt>
      <trkpt lat="48.84703" lon="2.29593">
        <ele>85.8</ele>
        <time>2015-02-02T20:20:35.495Z</time>
      </trkpt>
      <trkpt lat="48.84707" lon="2.29584">
        <ele>86.1</ele>
        <time>2015-02-02T20:20:39.027Z</time>
      </trkpt>
      <trkpt lat="48.84709" lon="2.29581">
        <ele>85.8</ele>
        <time>2015-02-02T20:20:39.559Z</time>
      </trkpt>
      <trkpt lat="48.84714" lon="2.29576">
        <ele>85.7</ele>
        <time>2015-02-02T20:20:41.476Z</time>
      </trkpt>
      <trkpt lat="48.84875" lon="2.29184">
        <ele>77.7</ele>
        <time>2015-02-02T20:21:52.516Z</time>
      </trkpt>
      <trkpt lat="48.84877" lon="2.29172">
        <ele>79</ele>
        <time>2015-02-02T20:21:54.476Z</time>
      </trkpt>
      <trkpt lat="48.84879" lon="2.29165">
        <ele>79.8</ele>
        <time>2015-02-02T20:21:55.545Z</time>
      </trkpt>
      <trkpt lat="48.8488" lon="2.29158">
        <ele>80.4</ele>
        <time>2015-02-02T20:21:56.455Z</time>
      </trkpt>
      <trkpt lat="48.8488" lon="2.2915">
        <ele>81.1</ele>
        <time>2015-02-02T20:21:57.467Z</time>
      </trkpt>
      <trkpt lat="48.8488" lon="2.29143">
        <ele>81.5</ele>
        <time>2015-02-02T20:21:58.470Z</time>
      </trkpt>
      <trkpt lat="48.8488" lon="2.29136">
        <ele>81.9</ele>
        <time>2015-02-02T20:21:59.483Z</time>
      </trkpt>
      <trkpt lat="48.8488" lon="2.29123">
        <ele>82.4</ele>
        <time>2015-02-02T20:22:01.514Z</time>
      </trkpt>
      <trkpt lat="48.84882" lon="2.29119">
        <ele>82.4</ele>
        <time>2015-02-02T20:22:02.535Z</time>
      </trkpt>
      <trkpt lat="48.84882" lon="2.29119">
        <ele>82.4</ele>
        <time>2015-02-02T20:22:03.389Z</time>
      </trkpt>
      <trkpt lat="48.84892" lon="2.2911">
        <ele>82.2</ele>
        <time>2015-02-02T20:22:05.499Z</time>
      </trkpt>
      <trkpt lat="48.84897" lon="2.29103">
        <ele>83.2</ele>
        <time>2015-02-02T20:22:10.597Z</time>
      </trkpt>
      <trkpt lat="48.84899" lon="2.291">
        <ele>83.3</ele>
        <time>2015-02-02T20:22:11.486Z</time>
      </trkpt>
      <trkpt lat="48.84903" lon="2.29093">
        <ele>83.6</ele>
        <time>2015-02-02T20:22:13.555Z</time>
      </trkpt>
      <trkpt lat="48.84964" lon="2.28624">
        <ele>80.1</ele>
        <time>2015-02-02T20:24:26.506Z</time>
      </trkpt>
      <trkpt lat="48.84957" lon="2.28617">
        <ele>81.7</ele>
        <time>2015-02-02T20:24:34.669Z</time>
      </trkpt>
      <trkpt lat="48.84956" lon="2.28617">
        <ele>81.8</ele>
        <time>2015-02-02T20:24:35.540Z</time>
      </trkpt>
      <trkpt lat="48.84951" lon="2.28612">
        <ele>81.9</ele>
        <time>2015-02-02T20:24:41.543Z</time>
      </trkpt>
      <trkpt lat="48.84947" lon="2.2861">
        <ele>81.9</ele>
        <time>2015-02-02T20:24:42.555Z</time>
      </trkpt>
      <trkpt lat="48.84942" lon="2.28604">
        <ele>81.9</ele>
        <time>2015-02-02T20:24:44.822Z</time>
      </trkpt>
      <trkpt lat="48.8494" lon="2.28598">
        <ele>81.8</ele>
        <time>2015-02-02T20:24:45.488Z</time>
      </trkpt>
      <trkpt lat="48.84935" lon="2.28589">
        <ele>81.8</ele>
        <time>2015-02-02T20:24:48.190Z</time>
      </trkpt>
      <trkpt lat="48.84914" lon="2.28559">
        <ele>81</ele>
        <time>2015-02-02T20:24:54.564Z</time>
      </trkpt>
      <trkpt lat="48.8491" lon="2.28555">
        <ele>81.3</ele>
        <time>2015-02-02T20:24:55.576Z</time>
      </trkpt>
      <trkpt lat="48.84906" lon="2.28551">
        <ele>81.4</ele>
        <time>2015-02-02T20:24:56.578Z</time>
      </trkpt>
      <trkpt lat="48.84899" lon="2.28547">
        <ele>82</ele>
        <time>2015-02-02T20:24:58.286Z</time>
      </trkpt>
      <trkpt lat="48.84895" lon="2.28544">
        <ele>81.9</ele>
        <time>2015-02-02T20:24:58.497Z</time>
      </trkpt>
      <trkpt lat="48.84889" lon="2.28536">
        <ele>82.1</ele>
        <time>2015-02-02T20:25:00.523Z</time>
      </trkpt>
      <trkpt lat="48.84831" lon="2.28471">
        <ele>81.9</ele>
        <time>2015-02-02T20:25:16.590Z</time>
      </trkpt>
      <trkpt lat="48.84825" lon="2.28468">
        <ele>82.1</ele>
        <time>2015-02-02T20:25:18.564Z</time>
      </trkpt>
      <trkpt lat="48.84819" lon="2.28464">
        <ele>82</ele>
        <time>2015-02-02T20:25:18.613Z</time>
      </trkpt>
      <trkpt lat="48.84814" lon="2.28461">
        <ele>82</ele>
        <time>2015-02-02T20:25:19.483Z</time>
      </trkpt>
      <trkpt lat="48.8481" lon="2.28457">
        <ele>81.9</ele>
        <time>2015-02-02T20:25:20.490Z</time>
      </trkpt>
      <trkpt lat="48.84806" lon="2.28453">
        <ele>81.8</ele>
        <time>2015-02-02T20:25:21.507Z</time>
      </trkpt>
      <trkpt lat="48.84799" lon="2.28445">
        <ele>81.8</ele>
        <time>2015-02-02T20:25:23.523Z</time>
      </trkpt>
      <trkpt lat="48.84791" lon="2.28439">
        <ele>81.8</ele>
        <time>2015-02-02T20:25:25.508Z</time>
      </trkpt>
      <trkpt lat="48.84788" lon="2.28436">
        <ele>81.6</ele>
        <time>2015-02-02T20:25:26.521Z</time>
      </trkpt>
      <trkpt lat="48.84782" lon="2.28431">
        <ele>81.3</ele>
        <time>2015-02-02T20:25:28.537Z</time>
      </trkpt>
      <trkpt lat="48.84779" lon="2.28429">
        <ele>81.2</ele>
        <time>2015-02-02T20:25:29.550Z</time>
      </trkpt>
      <trkpt lat="48.84771" lon="2.28424">
        <ele>81.2</ele>
        <time>2015-02-02T20:25:32.500Z</time>
      </trkpt>
      <trkpt lat="48.84769" lon="2.28422">
        <ele>81.4</ele>
        <time>2015-02-02T20:25:33.513Z</time>
      </trkpt>
      <trkpt lat="48.84765" lon="2.28419">
        <ele>81.3</ele>
        <time>2015-02-02T20:25:34.525Z</time>
      </trkpt>
      <trkpt lat="48.8476" lon="2.28415">
        <ele>81.3</ele>
        <time>2015-02-02T20:25:35.543Z</time>
      </trkpt>
      <trkpt lat="48.84756" lon="2.28411">
        <ele>81.2</ele>
        <time>2015-02-02T20:25:36.470Z</time>
      </trkpt>
      <trkpt lat="48.84751" lon="2.28407">
        <ele>81.2</ele>
        <time>2015-02-02T20:25:37.472Z</time>
      </trkpt>
      <trkpt lat="48.84744" lon="2.28403">
        <ele>81.3</ele>
        <time>2015-02-02T20:25:38.485Z</time>
      </trkpt>
      <trkpt lat="48.84739" lon="2.28401">
        <ele>81.3</ele>
        <time>2015-02-02T20:25:39.485Z</time>
      </trkpt>
      <trkpt lat="48.84735" lon="2.28398">
        <ele>81.1</ele>
        <time>2015-02-02T20:25:40.529Z</time>
      </trkpt>
      <trkpt lat="48.84732" lon="2.28393">
        <ele>81.1</ele>
        <time>2015-02-02T20:25:41.538Z</time>
      </trkpt>
      <trkpt lat="48.8472" lon="2.28379">
        <ele>81.2</ele>
        <time>2015-02-02T20:25:44.481Z</time>
      </trkpt>
      <trkpt lat="48.84533" lon="2.28248">
        <ele>80.3</ele>
        <time>2015-02-02T20:26:33.506Z</time>
      </trkpt>
      <trkpt lat="48.84528" lon="2.28244">
        <ele>80.4</ele>
        <time>2015-02-02T20:26:34.524Z</time>
      </trkpt>
      <trkpt lat="48.84517" lon="2.28234">
        <ele>80.8</ele>
        <time>2015-02-02T20:26:37.450Z</time>
      </trkpt>
      <trkpt lat="48.84509" lon="2.28228">
        <ele>81.3</ele>
        <time>2015-02-02T20:26:39.626Z</time>
      </trkpt>
      <trkpt lat="48.84505" lon="2.28225">
        <ele>81.7</ele>
        <time>2015-02-02T20:26:40.503Z</time>
      </trkpt>
      <trkpt lat="48.84497" lon="2.28219">
        <ele>82.2</ele>
        <time>2015-02-02T20:26:42.538Z</time>
      </trkpt>
      <trkpt lat="48.84493" lon="2.28217">
        <ele>82.5</ele>
        <time>2015-02-02T20:26:43.620Z</time>
      </trkpt>
      <trkpt lat="48.84486" lon="2.28211">
        <ele>83</ele>
        <time>2015-02-02T20:26:45.481Z</time>
      </trkpt>
      <trkpt lat="48.84481" lon="2.28208">
        <ele>83.3</ele>
        <time>2015-02-02T20:26:46.623Z</time>
      </trkpt>
      <trkpt lat="48.84474" lon="2.28202">
        <ele>84</ele>
        <time>2015-02-02T20:26:48.461Z</time>
      </trkpt>
      <trkpt lat="48.84469" lon="2.28199">
        <ele>84.4</ele>
        <time>2015-02-02T20:26:49.473Z</time>
      </trkpt>
      <trkpt lat="48.84464" lon="2.28195">
        <ele>84.7</ele>
        <time>2015-02-02T20:26:50.509Z</time>
      </trkpt>
      <trkpt lat="48.84461" lon="2.28192">
        <ele>85.1</ele>
        <time>2015-02-02T20:26:51.529Z</time>
      </trkpt>
      <trkpt lat="48.84456" lon="2.28189">
        <ele>85.3</ele>
        <time>2015-02-02T20:26:52.483Z</time>
      </trkpt>
      <trkpt lat="48.84451" lon="2.28186">
        <ele>85.6</ele>
        <time>2015-02-02T20:26:53.449Z</time>
      </trkpt>
      <trkpt lat="48.84446" lon="2.28182">
        <ele>86.1</ele>
        <time>2015-02-02T20:26:54.451Z</time>
      </trkpt>
      <trkpt lat="48.84439" lon="2.28176">
        <ele>86.6</ele>
        <time>2015-02-02T20:26:55.457Z</time>
      </trkpt>
      <trkpt lat="48.84431" lon="2.2817">
        <ele>87.3</ele>
        <time>2015-02-02T20:26:57.491Z</time>
      </trkpt>
      <trkpt lat="48.84429" lon="2.28167">
        <ele>87.4</ele>
        <time>2015-02-02T20:26:58.519Z</time>
      </trkpt>
      <trkpt lat="48.84424" lon="2.28159">
        <ele>87.3</ele>
        <time>2015-02-02T20:27:00.449Z</time>
      </trkpt>
      <trkpt lat="48.84423" lon="2.28156">
        <ele>87.4</ele>
        <time>2015-02-02T20:27:01.464Z</time>
      </trkpt>
      <trkpt lat="48.84419" lon="2.28147">
        <ele>87.2</ele>
        <time>2015-02-02T20:27:04.572Z</time>
      </trkpt>
      <trkpt lat="48.84225" lon="2.27948">
        <ele>83.9</ele>
        <time>2015-02-02T20:28:29.471Z</time>
      </trkpt>
      <trkpt lat="48.8422" lon="2.27944">
        <ele>84</ele>
        <time>2015-02-02T20:28:30.499Z</time>
      </trkpt>
      <trkpt lat="48.84217" lon="2.27941">
        <ele>83.9</ele>
        <time>2015-02-02T20:28:31.501Z</time>
      </trkpt>
      <trkpt lat="48.8421" lon="2.27935">
        <ele>83.6</ele>
        <time>2015-02-02T20:28:33.461Z</time>
      </trkpt>
      <trkpt lat="48.84205" lon="2.27931">
        <ele>83.6</ele>
        <time>2015-02-02T20:28:34.518Z</time>
      </trkpt>
      <trkpt lat="48.84197" lon="2.27925">
        <ele>83.3</ele>
        <time>2015-02-02T20:28:36.554Z</time>
      </trkpt>
      <trkpt lat="48.8419" lon="2.2792">
        <ele>83.1</ele>
        <time>2015-02-02T20:28:38.496Z</time>
      </trkpt>
      <trkpt lat="48.84185" lon="2.27915">
        <ele>82.9</ele>
        <time>2015-02-02T20:28:40.541Z</time>
      </trkpt>
      <trkpt lat="48.84109" lon="2.27847">
        <ele>82.6</ele>
        <time>2015-02-02T20:29:04.612Z</time>
      </trkpt>
      <trkpt lat="48.84104" lon="2.27843">
        <ele>82.5</ele>
        <time>2015-02-02T20:29:05.482Z</time>
      </trkpt>
      <trkpt lat="48.841" lon="2.2784">
        <ele>82.5</ele>
        <time>2015-02-02T20:29:06.481Z</time>
      </trkpt>
      <trkpt lat="48.84094" lon="2.27832">
        <ele>82.5</ele>
        <time>2015-02-02T20:29:08.503Z</time>
      </trkpt>
      <trkpt lat="48.8409" lon="2.2783">
        <ele>82.6</ele>
        <time>2015-02-02T20:29:09.514Z</time>
      </trkpt>
      <trkpt lat="48.84084" lon="2.2783">
        <ele>82.7</ele>
        <time>2015-02-02T20:29:11.543Z</time>
      </trkpt>
      <trkpt lat="48.84081" lon="2.27829">
        <ele>82.7</ele>
        <time>2015-02-02T20:29:12.569Z</time>
      </trkpt>
      <trkpt lat="48.84074" lon="2.2783">
        <ele>82.8</ele>
        <time>2015-02-02T20:29:15.666Z</time>
      </trkpt>
      <trkpt lat="48.84071" lon="2.2783">
        <ele>82.8</ele>
        <time>2015-02-02T20:29:16.520Z</time>
      </trkpt>
      <trkpt lat="48.84063" lon="2.2783">
        <ele>83</ele>
        <time>2015-02-02T20:29:19.537Z</time>
      </trkpt>
      <trkpt lat="48.84061" lon="2.27831">
        <ele>83</ele>
        <time>2015-02-02T20:29:20.572Z</time>
      </trkpt>
      <trkpt lat="48.84055" lon="2.27827">
        <ele>83.2</ele>
        <time>2015-02-02T20:29:28.544Z</time>
      </trkpt>
      <trkpt lat="48.84053" lon="2.27824">
        <ele>83.3</ele>
        <time>2015-02-02T20:29:29.517Z</time>
      </trkpt>
      <trkpt lat="48.84046" lon="2.27817">
        <ele>84</ele>
        <time>2015-02-02T20:29:34.588Z</time>
      </trkpt>
      <trkpt lat="48.84044" lon="2.27816">
        <ele>83.9</ele>
        <time>2015-02-02T20:29:35.608Z</time>
      </trkpt>
      <trkpt lat="48.84037" lon="2.27812">
        <ele>83.9</ele>
        <time>2015-02-02T20:29:38.502Z</time>
      </trkpt>
      <trkpt lat="48.84034" lon="2.27812">
        <ele>83.9</ele>
        <time>2015-02-02T20:29:39.517Z</time>
      </trkpt>
      <trkpt lat="48.84026" lon="2.27812">
        <ele>83.6</ele>
        <time>2015-02-02T20:29:43.692Z</time>
      </trkpt>
      <trkpt lat="48.84024" lon="2.27812">
        <ele>83.6</ele>
        <time>2015-02-02T20:29:44.508Z</time>
      </trkpt>
      <trkpt lat="48.84016" lon="2.27818">
        <ele>83.6</ele>
        <time>2015-02-02T20:29:48.629Z</time>
      </trkpt>
      <trkpt lat="48.84013" lon="2.27819">
        <ele>83.5</ele>
        <time>2015-02-02T20:29:49.492Z</time>
      </trkpt>
      <trkpt lat="48.84006" lon="2.27822">
        <ele>83.7</ele>
        <time>2015-02-02T20:29:51.497Z</time>
      </trkpt>
      <trkpt lat="48.84002" lon="2.27822">
        <ele>83.6</ele>
        <time>2015-02-02T20:29:52.579Z</time>
      </trkpt>
      <trkpt lat="48.83996" lon="2.27821">
        <ele>83.5</ele>
        <time>2015-02-02T20:29:54.496Z</time>
      </trkpt>
      <trkpt lat="48.83993" lon="2.2782">
        <ele>83.5</ele>
        <time>2015-02-02T20:29:55.511Z</time>
      </trkpt>
      <trkpt lat="48.83985" lon="2.27821">
        <ele>84</ele>
        <time>2015-02-02T20:29:59.491Z</time>
      </trkpt>
      <trkpt lat="48.83984" lon="2.27822">
        <ele>84.2</ele>
        <time>2015-02-02T20:30:00.504Z</time>
      </trkpt>
      <trkpt lat="48.83984" lon="2.27823">
        <ele>84.6</ele>
        <time>2015-02-02T20:30:04.567Z</time>
      </trkpt>
      <trkpt lat="48.83985" lon="2.27823">
        <ele>84.6</ele>
        <time>2015-02-02T20:30:05.487Z</time>
      </trkpt>
      <trkpt lat="48.83985" lon="2.27823">
        <ele>84.6</ele>
        <time>2015-02-02T20:30:06.489Z</time>
      </trkpt>
      <trkpt lat="48.83993" lon="2.27821">
        <ele>84.2</ele>
        <time>2015-02-02T20:30:16.543Z</time>
      </trkpt>
      <trkpt lat="48.83996" lon="2.27821">
        <ele>84.1</ele>
        <time>2015-02-02T20:30:17.572Z</time>
      </trkpt>
      <trkpt lat="48.84002" lon="2.27817">
        <ele>83.2</ele>
        <time>2015-02-02T20:30:19.478Z</time>
      </trkpt>
      <trkpt lat="48.84004" lon="2.27815">
        <ele>82.9</ele>
        <time>2015-02-02T20:30:20.492Z</time>
      </trkpt>
      <trkpt lat="48.8401" lon="2.27816">
        <ele>81.4</ele>
        <time>2015-02-02T20:30:21.483Z</time>
      </trkpt>
      <trkpt lat="48.84019" lon="2.2782">
        <ele>78.9</ele>
        <time>2015-02-02T20:30:22.545Z</time>
      </trkpt>
      <trkpt lat="48.84024" lon="2.27829">
        <ele>78</ele>
        <time>2015-02-02T20:30:24.520Z</time>
      </trkpt>
      <trkpt lat="48.84025" lon="2.27833">
        <ele>77.8</ele>
        <time>2015-02-02T20:30:25.592Z</time>
      </trkpt>
      <trkpt lat="48.84013" lon="2.27851">
        <ele>77.6</ele>
        <time>2015-02-02T20:30:32.505Z</time>
      </trkpt>
      <trkpt lat="48.84015" lon="2.27863">
        <ele>77.6</ele>
        <time>2015-02-02T20:30:34.564Z</time>
      </trkpt>
      <trkpt lat="48.84018" lon="2.27884">
        <ele>78.2</ele>
        <time>2015-02-02T20:30:37.577Z</time>
      </trkpt>
      <trkpt lat="48.84019" lon="2.27891">
        <ele>78.2</ele>
        <time>2015-02-02T20:30:38.473Z</time>
      </trkpt>
      <trkpt lat="48.8402" lon="2.27898">
        <ele>77.9</ele>
        <time>2015-02-02T20:30:39.480Z</time>
      </trkpt>
      <trkpt lat="48.84021" lon="2.2791">
        <ele>78</ele>
        <time>2015-02-02T20:30:41.536Z</time>
      </trkpt>
      <trkpt lat="48.8402" lon="2.27915">
        <ele>78</ele>
        <time>2015-02-02T20:30:42.556Z</time>
      </trkpt>
      <trkpt lat="48.84018" lon="2.2792">
        <ele>78</ele>
        <time>2015-02-02T20:30:43.465Z</time>
      </trkpt>
      <trkpt lat="48.83994" lon="2.27964">
        <ele>77.6</ele>
        <time>2015-02-02T20:30:54.458Z</time>
      </trkpt>
      <trkpt lat="48.83999" lon="2.27974">
        <ele>77.7</ele>
        <time>2015-02-02T20:30:58.408Z</time>
      </trkpt>
      <trkpt lat="48.83999" lon="2.27976">
        <ele>77.7</ele>
        <time>2015-02-02T20:30:59.540Z</time>
      </trkpt>
      <trkpt lat="48.8399" lon="2.27975">
        <ele>77.7</ele>
        <time>2015-02-02T20:31:05.484Z</time>
      </trkpt>
      <trkpt lat="48.83984" lon="2.27971">
        <ele>77.8</ele>
        <time>2015-02-02T20:31:07.500Z</time>
      </trkpt>
      <trkpt lat="48.83976" lon="2.27973">
        <ele>78.3</ele>
        <time>2015-02-02T20:31:10.594Z</time>
      </trkpt>
      <trkpt lat="48.83972" lon="2.27972">
        <ele>78.4</ele>
        <time>2015-02-02T20:31:11.484Z</time>
      </trkpt>
      <trkpt lat="48.83968" lon="2.27968">
        <ele>78.7</ele>
        <time>2015-02-02T20:31:12.501Z</time>
      </trkpt>
      <trkpt lat="48.83962" lon="2.27959">
        <ele>79.1</ele>
        <time>2015-02-02T20:31:14.616Z</time>
      </trkpt>
      <trkpt lat="48.83958" lon="2.27952">
        <ele>79.8</ele>
        <time>2015-02-02T20:31:15.554Z</time>
      </trkpt>
      <trkpt lat="48.83955" lon="2.27946">
        <ele>80</ele>
        <time>2015-02-02T20:31:16.563Z</time>
      </trkpt>
      <trkpt lat="48.83952" lon="2.2794">
        <ele>80.4</ele>
        <time>2015-02-02T20:31:17.457Z</time>
      </trkpt>
      <trkpt lat="48.83948" lon="2.27936">
        <ele>80.6</ele>
        <time>2015-02-02T20:31:18.461Z</time>
      </trkpt>
      <trkpt lat="48.83943" lon="2.27929">
        <ele>80.7</ele>
        <time>2015-02-02T20:31:20.617Z</time>
      </trkpt>
      <trkpt lat="48.83936" lon="2.2792">
        <ele>81.2</ele>
        <time>2015-02-02T20:31:23.506Z</time>
      </trkpt>
      <trkpt lat="48.83928" lon="2.27915">
        <ele>81.6</ele>
        <time>2015-02-02T20:31:25.537Z</time>
      </trkpt>
      <trkpt lat="48.83925" lon="2.27912">
        <ele>81.6</ele>
        <time>2015-02-02T20:31:26.541Z</time>
      </trkpt>
      <trkpt lat="48.83918" lon="2.27911">
        <ele>82.4</ele>
        <time>2015-02-02T20:31:28.678Z</time>
      </trkpt>
      <trkpt lat="48.83913" lon="2.27909">
        <ele>82.6</ele>
        <time>2015-02-02T20:31:29.457Z</time>
      </trkpt>
      <trkpt lat="48.83908" lon="2.27906">
        <ele>82.7</ele>
        <time>2015-02-02T20:31:30.455Z</time>
      </trkpt>
      <trkpt lat="48.83901" lon="2.27903">
        <ele>82.1</ele>
        <time>2015-02-02T20:31:31.483Z</time>
      </trkpt>
      <trkpt lat="48.83895" lon="2.279">
        <ele>81.8</ele>
        <time>2015-02-02T20:31:32.425Z</time>
      </trkpt>
      <trkpt lat="48.8389" lon="2.27896">
        <ele>81.5</ele>
        <time>2015-02-02T20:31:33.454Z</time>
      </trkpt>
      <trkpt lat="48.83885" lon="2.27892">
        <ele>81.2</ele>
        <time>2015-02-02T20:31:34.485Z</time>
      </trkpt>
      <trkpt lat="48.8388" lon="2.27888">
        <ele>80.8</ele>
        <time>2015-02-02T20:31:35.493Z</time>
      </trkpt>
      <trkpt lat="48.83876" lon="2.27885">
        <ele>80.6</ele>
        <time>2015-02-02T20:31:36.538Z</time>
      </trkpt>
      <trkpt lat="48.83871" lon="2.27881">
        <ele>80.4</ele>
        <time>2015-02-02T20:31:37.467Z</time>
      </trkpt>
      <trkpt lat="48.83867" lon="2.27878">
        <ele>80</ele>
        <time>2015-02-02T20:31:38.892Z</time>
      </trkpt>
      <trkpt lat="48.83863" lon="2.27874">
        <ele>79.8</ele>
        <time>2015-02-02T20:31:39.495Z</time>
      </trkpt>
      <trkpt lat="48.83856" lon="2.27867">
        <ele>79.5</ele>
        <time>2015-02-02T20:31:41.527Z</time>
      </trkpt>
      <trkpt lat="48.83853" lon="2.27865">
        <ele>79.4</ele>
        <time>2015-02-02T20:31:42.455Z</time>
      </trkpt>
      <trkpt lat="48.83846" lon="2.27859">
        <ele>79.5</ele>
        <time>2015-02-02T20:31:46.564Z</time>
      </trkpt>
      <trkpt lat="48.83844" lon="2.27859">
        <ele>79.3</ele>
        <time>2015-02-02T20:31:47.457Z</time>
      </trkpt>
      <trkpt lat="48.83837" lon="2.27859">
        <ele>79</ele>
        <time>2015-02-02T20:31:55.489Z</time>
      </trkpt>
      <trkpt lat="48.83837" lon="2.2786">
        <ele>79.1</ele>
        <time>2015-02-02T20:31:56.475Z</time>
      </trkpt>
      <trkpt lat="48.83839" lon="2.2786">
        <ele>79.2</ele>
        <time>2015-02-02T20:31:57.493Z</time>
      </trkpt>
      <trkpt lat="48.8384" lon="2.27872">
        <ele>79.6</ele>
        <time>2015-02-02T20:32:03.434Z</time>
      </trkpt>
      <trkpt lat="48.83841" lon="2.27874">
        <ele>79.5</ele>
        <time>2015-02-02T20:32:04.504Z</time>
      </trkpt>
      <trkpt lat="48.83842" lon="2.27884">
        <ele>79.8</ele>
        <time>2015-02-02T20:32:09.486Z</time>
      </trkpt>
      <trkpt lat="48.83824" lon="2.2786">
        <ele>80.8</ele>
        <time>2015-02-02T20:32:36.589Z</time>
      </trkpt>
      <trkpt lat="48.83823" lon="2.27858">
        <ele>80.8</ele>
        <time>2015-02-02T20:32:37.468Z</time>
      </trkpt>
      <trkpt lat="48.83824" lon="2.27858">
        <ele>81</ele>
        <time>2015-02-02T20:32:38.477Z</time>
      </trkpt>
      <trkpt lat="48.8383" lon="2.27858">
        <ele>81.5</ele>
        <time>2015-02-02T20:32:42.515Z</time>
      </trkpt>
      <trkpt lat="48.83832" lon="2.27854">
        <ele>82.3</ele>
        <time>2015-02-02T20:32:43.603Z</time>
      </trkpt>
      <trkpt lat="48.83825" lon="2.27859">
        <ele>81.5</ele>
        <time>2015-02-02T20:32:48.545Z</time>
      </trkpt>
      <trkpt lat="48.83822" lon="2.27861">
        <ele>81.3</ele>
        <time>2015-02-02T20:32:49.484Z</time>
      </trkpt>
      <trkpt lat="48.83816" lon="2.27863">
        <ele>80.9</ele>
        <time>2015-02-02T20:32:51.491Z</time>
      </trkpt>
      <trkpt lat="48.83812" lon="2.27864">
        <ele>80.7</ele>
        <time>2015-02-02T20:32:52.488Z</time>
      </trkpt>
      <trkpt lat="48.83804" lon="2.27867">
        <ele>80.3</ele>
        <time>2015-02-02T20:32:55.435Z</time>
      </trkpt>
      <trkpt lat="48.83801" lon="2.27868">
        <ele>80.2</ele>
        <time>2015-02-02T20:32:56.432Z</time>
      </trkpt>
      <trkpt lat="48.83794" lon="2.2787">
        <ele>79.8</ele>
        <time>2015-02-02T20:32:58.486Z</time>
      </trkpt>
      <trkpt lat="48.83792" lon="2.2787">
        <ele>79.7</ele>
        <time>2015-02-02T20:32:59.504Z</time>
      </trkpt>
      <trkpt lat="48.83783" lon="2.27868">
        <ele>79.1</ele>
        <time>2015-02-02T20:33:01.525Z</time>
      </trkpt>
      <trkpt lat="48.83779" lon="2.27868">
        <ele>78.8</ele>
        <time>2015-02-02T20:33:02.475Z</time>
      </trkpt>
      <trkpt lat="48.83775" lon="2.27867">
        <ele>78.5</ele>
        <time>2015-02-02T20:33:03.430Z</time>
      </trkpt>
      <trkpt lat="48.8377" lon="2.27866">
        <ele>78.1</ele>
        <time>2015-02-02T20:33:04.527Z</time>
      </trkpt>
      <trkpt lat="48.83763" lon="2.27868">
        <ele>77.4</ele>
        <time>2015-02-02T20:33:06.535Z</time>
      </trkpt>
      <trkpt lat="48.83758" lon="2.27868">
        <ele>76.9</ele>
        <time>2015-02-02T20:33:07.435Z</time>
      </trkpt>
      <trkpt lat="48.83751" lon="2.27866">
        <ele>76</ele>
        <time>2015-02-02T20:33:08.466Z</time>
      </trkpt>
      <trkpt lat="48.83744" lon="2.27863">
        <ele>75</ele>
        <time>2015-02-02T20:33:09.479Z</time>
      </trkpt>
      <trkpt lat="48.83739" lon="2.27861">
        <ele>74.5</ele>
        <time>2015-02-02T20:33:10.487Z</time>
      </trkpt>
      <trkpt lat="48.83731" lon="2.27858">
        <ele>73.7</ele>
        <time>2015-02-02T20:33:11.493Z</time>
      </trkpt>
      <trkpt lat="48.83726" lon="2.27857">
        <ele>73.3</ele>
        <time>2015-02-02T20:33:13.486Z</time>
      </trkpt>
      <trkpt lat="48.83721" lon="2.27856">
        <ele>73</ele>
        <time>2015-02-02T20:33:13.512Z</time>
      </trkpt>
      <trkpt lat="48.83713" lon="2.27853">
        <ele>72.7</ele>
        <time>2015-02-02T20:33:15.523Z</time>
      </trkpt>
      <trkpt lat="48.8371" lon="2.27852">
        <ele>72.6</ele>
        <time>2015-02-02T20:33:16.534Z</time>
      </trkpt>
      <trkpt lat="48.83704" lon="2.2785">
        <ele>72.4</ele>
        <time>2015-02-02T20:33:18.509Z</time>
      </trkpt>
      <trkpt lat="48.83701" lon="2.27849">
        <ele>72.3</ele>
        <time>2015-02-02T20:33:19.490Z</time>
      </trkpt>
      <trkpt lat="48.83693" lon="2.27849">
        <ele>72.1</ele>
        <time>2015-02-02T20:33:22.487Z</time>
      </trkpt>
      <trkpt lat="48.8369" lon="2.27848">
        <ele>72</ele>
        <time>2015-02-02T20:33:23.491Z</time>
      </trkpt>
      <trkpt lat="48.83682" lon="2.27846">
        <ele>72</ele>
        <time>2015-02-02T20:33:26.524Z</time>
      </trkpt>
      <trkpt lat="48.83679" lon="2.27846">
        <ele>72</ele>
        <time>2015-02-02T20:33:27.489Z</time>
      </trkpt>
      <trkpt lat="48.83659" lon="2.27839">
        <ele>74.2</ele>
        <time>2015-02-02T20:33:33.512Z</time>
      </trkpt>
      <trkpt lat="48.83651" lon="2.27839">
        <ele>74.4</ele>
        <time>2015-02-02T20:33:36.466Z</time>
      </trkpt>
      <trkpt lat="48.83647" lon="2.27837">
        <ele>74.3</ele>
        <time>2015-02-02T20:33:37.473Z</time>
      </trkpt>
      <trkpt lat="48.83641" lon="2.27833">
        <ele>74.1</ele>
        <time>2015-02-02T20:33:39.507Z</time>
      </trkpt>
      <trkpt lat="48.83638" lon="2.27831">
        <ele>74.2</ele>
        <time>2015-02-02T20:33:40.524Z</time>
      </trkpt>
      <trkpt lat="48.83631" lon="2.27827">
        <ele>74.4</ele>
        <time>2015-02-02T20:33:42.452Z</time>
      </trkpt>
      <trkpt lat="48.83629" lon="2.27826">
        <ele>74.4</ele>
        <time>2015-02-02T20:33:43.491Z</time>
      </trkpt>
      <trkpt lat="48.83625" lon="2.2782">
        <ele>74.9</ele>
        <time>2015-02-02T20:33:48.524Z</time>
      </trkpt>
      <trkpt lat="48.83626" lon="2.27818">
        <ele>75.6</ele>
        <time>2015-02-02T20:33:49.471Z</time>
      </trkpt>
      <trkpt lat="48.83627" lon="2.27816">
        <ele>76.6</ele>
        <time>2015-02-02T20:33:50.497Z</time>
      </trkpt>
      <trkpt lat="48.83632" lon="2.27808">
        <ele>77.3</ele>
        <time>2015-02-02T20:33:56.535Z</time>
      </trkpt>
      <trkpt lat="48.83633" lon="2.27805">
        <ele>77.6</ele>
        <time>2015-02-02T20:33:57.445Z</time>
      </trkpt>
      <trkpt lat="48.83635" lon="2.27794">
        <ele>78</ele>
        <time>2015-02-02T20:34:01.524Z</time>
      </trkpt>
      <trkpt lat="48.83636" lon="2.2779">
        <ele>77.7</ele>
        <time>2015-02-02T20:34:02.528Z</time>
      </trkpt>
      <trkpt lat="48.83639" lon="2.27778">
        <ele>77.3</ele>
        <time>2015-02-02T20:34:05.504Z</time>
      </trkpt>
      <trkpt lat="48.8364" lon="2.27775">
        <ele>77.3</ele>
        <time>2015-02-02T20:34:06.516Z</time>
      </trkpt>
      <trkpt lat="48.83643" lon="2.27767">
        <ele>77.3</ele>
        <time>2015-02-02T20:34:08.682Z</time>
      </trkpt>
      <trkpt lat="48.83645" lon="2.27763">
        <ele>77.2</ele>
        <time>2015-02-02T20:34:09.560Z</time>
      </trkpt>
      <trkpt lat="48.83647" lon="2.27754">
        <ele>77.8</ele>
        <time>2015-02-02T20:34:11.459Z</time>
      </trkpt>
      <trkpt lat="48.83648" lon="2.2775">
        <ele>77.9</ele>
        <time>2015-02-02T20:34:12.466Z</time>
      </trkpt>
      <trkpt lat="48.83651" lon="2.2774">
        <ele>78.1</ele>
        <time>2015-02-02T20:34:14.481Z</time>
      </trkpt>
      <trkpt lat="48.83653" lon="2.27735">
        <ele>77.8</ele>
        <time>2015-02-02T20:34:15.490Z</time>
      </trkpt>
      <trkpt lat="48.83655" lon="2.27725">
        <ele>77.9</ele>
        <time>2015-02-02T20:34:17.535Z</time>
      </trkpt>
      <trkpt lat="48.83656" lon="2.27719">
        <ele>78</ele>
        <time>2015-02-02T20:34:18.446Z</time>
      </trkpt>
      <trkpt lat="48.83659" lon="2.27711">
        <ele>78.3</ele>
        <time>2015-02-02T20:34:20.460Z</time>
      </trkpt>
      <trkpt lat="48.83661" lon="2.27706">
        <ele>78.4</ele>
        <time>2015-02-02T20:34:21.486Z</time>
      </trkpt>
      <trkpt lat="48.83665" lon="2.27694">
        <ele>78.4</ele>
        <time>2015-02-02T20:34:23.869Z</time>
      </trkpt>
      <trkpt lat="48.83667" lon="2.27689">
        <ele>78.5</ele>
        <time>2015-02-02T20:34:24.459Z</time>
      </trkpt>
      <trkpt lat="48.8367" lon="2.27683">
        <ele>78.5</ele>
        <time>2015-02-02T20:34:25.464Z</time>
      </trkpt>
      <trkpt lat="48.83673" lon="2.27678">
        <ele>78.6</ele>
        <time>2015-02-02T20:34:26.469Z</time>
      </trkpt>
      <trkpt lat="48.83679" lon="2.2767">
        <ele>79</ele>
        <time>2015-02-02T20:34:28.881Z</time>
      </trkpt>
      <trkpt lat="48.83682" lon="2.27665">
        <ele>79.3</ele>
        <time>2015-02-02T20:34:29.512Z</time>
      </trkpt>
      <trkpt lat="48.83686" lon="2.27654">
        <ele>79.6</ele>
        <time>2015-02-02T20:34:31.548Z</time>
      </trkpt>
      <trkpt lat="48.83688" lon="2.27649">
        <ele>79.7</ele>
        <time>2015-02-02T20:34:32.458Z</time>
      </trkpt>
      <trkpt lat="48.83691" lon="2.27639">
        <ele>80</ele>
        <time>2015-02-02T20:34:34.504Z</time>
      </trkpt>
      <trkpt lat="48.83692" lon="2.27632">
        <ele>80</ele>
        <time>2015-02-02T20:34:35.492Z</time>
      </trkpt>
      <trkpt lat="48.83693" lon="2.27626">
        <ele>80</ele>
        <time>2015-02-02T20:34:36.530Z</time>
      </trkpt>
      <trkpt lat="48.83694" lon="2.27618">
        <ele>80.1</ele>
        <time>2015-02-02T20:34:37.438Z</time>
      </trkpt>
      <trkpt lat="48.83695" lon="2.27611">
        <ele>80.2</ele>
        <time>2015-02-02T20:34:39.323Z</time>
      </trkpt>
      <trkpt lat="48.83696" lon="2.27603">
        <ele>79.9</ele>
        <time>2015-02-02T20:34:39.458Z</time>
      </trkpt>
      <trkpt lat="48.83697" lon="2.27595">
        <ele>79.9</ele>
        <time>2015-02-02T20:34:40.491Z</time>
      </trkpt>
      <trkpt lat="48.83698" lon="2.27589">
        <ele>79.9</ele>
        <time>2015-02-02T20:34:41.490Z</time>
      </trkpt>
      <trkpt lat="48.83699" lon="2.2758">
        <ele>79.9</ele>
        <time>2015-02-02T20:34:42.736Z</time>
      </trkpt>
      <trkpt lat="48.837" lon="2.27574">
        <ele>79.9</ele>
        <time>2015-02-02T20:34:43.457Z</time>
      </trkpt>
      <trkpt lat="48.83701" lon="2.27566">
        <ele>80.1</ele>
        <time>2015-02-02T20:34:44.461Z</time>
      </trkpt>
      <trkpt lat="48.83702" lon="2.27558">
        <ele>80.2</ele>
        <time>2015-02-02T20:34:45.489Z</time>
      </trkpt>
      <trkpt lat="48.83704" lon="2.2755">
        <ele>80.4</ele>
        <time>2015-02-02T20:34:46.514Z</time>
      </trkpt>
      <trkpt lat="48.83705" lon="2.27544">
        <ele>80.5</ele>
        <time>2015-02-02T20:34:47.517Z</time>
      </trkpt>
      <trkpt lat="48.83705" lon="2.27536">
        <ele>80.8</ele>
        <time>2015-02-02T20:34:48.470Z</time>
      </trkpt>
      <trkpt lat="48.83707" lon="2.27529">
        <ele>80.8</ele>
        <time>2015-02-02T20:34:49.539Z</time>
      </trkpt>
      <trkpt lat="48.83708" lon="2.27521">
        <ele>80.9</ele>
        <time>2015-02-02T20:34:50.556Z</time>
      </trkpt>
      <trkpt lat="48.8371" lon="2.27514">
        <ele>81</ele>
        <time>2015-02-02T20:34:51.438Z</time>
      </trkpt>
      <trkpt lat="48.83713" lon="2.27503">
        <ele>81.6</ele>
        <time>2015-02-02T20:34:53.574Z</time>
      </trkpt>
      <trkpt lat="48.83715" lon="2.27496">
        <ele>81.9</ele>
        <time>2015-02-02T20:34:54.488Z</time>
      </trkpt>
      <trkpt lat="48.83719" lon="2.27489">
        <ele>82.9</ele>
        <time>2015-02-02T20:34:55.511Z</time>
      </trkpt>
      <trkpt lat="48.8372" lon="2.27478">
        <ele>82.5</ele>
        <time>2015-02-02T20:34:56.516Z</time>
      </trkpt>
      <trkpt lat="48.83721" lon="2.27467">
        <ele>82.6</ele>
        <time>2015-02-02T20:34:57.520Z</time>
      </trkpt>
      <trkpt lat="48.83722" lon="2.27456">
        <ele>82.4</ele>
        <time>2015-02-02T20:34:58.528Z</time>
      </trkpt>
      <trkpt lat="48.83723" lon="2.27446">
        <ele>81.5</ele>
        <time>2015-02-02T20:34:59.557Z</time>
      </trkpt>
      <trkpt lat="48.83726" lon="2.27437">
        <ele>81.7</ele>
        <time>2015-02-02T20:35:00.435Z</time>
      </trkpt>
      <trkpt lat="48.83728" lon="2.27426">
        <ele>81.9</ele>
        <time>2015-02-02T20:35:01.454Z</time>
      </trkpt>
      <trkpt lat="48.83731" lon="2.27417">
        <ele>82</ele>
        <time>2015-02-02T20:35:02.462Z</time>
      </trkpt>
      <trkpt lat="48.83735" lon="2.27409">
        <ele>82</ele>
        <time>2015-02-02T20:35:03.698Z</time>
      </trkpt>
      <trkpt lat="48.83738" lon="2.274">
        <ele>82.2</ele>
        <time>2015-02-02T20:35:04.486Z</time>
      </trkpt>
      <trkpt lat="48.83741" lon="2.27391">
        <ele>82.6</ele>
        <time>2015-02-02T20:35:05.510Z</time>
      </trkpt>
      <trkpt lat="48.83743" lon="2.27382">
        <ele>82.7</ele>
        <time>2015-02-02T20:35:06.520Z</time>
      </trkpt>
      <trkpt lat="48.83744" lon="2.27371">
        <ele>82.7</ele>
        <time>2015-02-02T20:35:07.449Z</time>
      </trkpt>
      <trkpt lat="48.83746" lon="2.27361">
        <ele>83</ele>
        <time>2015-02-02T20:35:08.452Z</time>
      </trkpt>
      <trkpt lat="48.83748" lon="2.27351">
        <ele>83</ele>
        <time>2015-02-02T20:35:09.463Z</time>
      </trkpt>
      <trkpt lat="48.8375" lon="2.27342">
        <ele>83.2</ele>
        <time>2015-02-02T20:35:10.498Z</time>
      </trkpt>
      <trkpt lat="48.83752" lon="2.27333">
        <ele>83.4</ele>
        <time>2015-02-02T20:35:11.529Z</time>
      </trkpt>
      <trkpt lat="48.83755" lon="2.27324">
        <ele>83.6</ele>
        <time>2015-02-02T20:35:12.543Z</time>
      </trkpt>
      <trkpt lat="48.83756" lon="2.27315">
        <ele>83.9</ele>
        <time>2015-02-02T20:35:13.554Z</time>
      </trkpt>
      <trkpt lat="48.83759" lon="2.27306">
        <ele>84</ele>
        <time>2015-02-02T20:35:14.448Z</time>
      </trkpt>
      <trkpt lat="48.83761" lon="2.27297">
        <ele>84</ele>
        <time>2015-02-02T20:35:15.456Z</time>
      </trkpt>
      <trkpt lat="48.83764" lon="2.27288">
        <ele>83.9</ele>
        <time>2015-02-02T20:35:16.495Z</time>
      </trkpt>
      <trkpt lat="48.83767" lon="2.27279">
        <ele>83.7</ele>
        <time>2015-02-02T20:35:17.504Z</time>
      </trkpt>
      <trkpt lat="48.83769" lon="2.27271">
        <ele>83.6</ele>
        <time>2015-02-02T20:35:18.509Z</time>
      </trkpt>
      <trkpt lat="48.83772" lon="2.27263">
        <ele>83.3</ele>
        <time>2015-02-02T20:35:19.528Z</time>
      </trkpt>
      <trkpt lat="48.83775" lon="2.27255">
        <ele>83.2</ele>
        <time>2015-02-02T20:35:20.545Z</time>
      </trkpt>
      <trkpt lat="48.83777" lon="2.27247">
        <ele>83.3</ele>
        <time>2015-02-02T20:35:21.447Z</time>
      </trkpt>
      <trkpt lat="48.8378" lon="2.27239">
        <ele>83.3</ele>
        <time>2015-02-02T20:35:22.487Z</time>
      </trkpt>
      <trkpt lat="48.83782" lon="2.2723">
        <ele>83.2</ele>
        <time>2015-02-02T20:35:23.491Z</time>
      </trkpt>
      <trkpt lat="48.83785" lon="2.27223">
        <ele>82.8</ele>
        <time>2015-02-02T20:35:24.513Z</time>
      </trkpt>
      <trkpt lat="48.83788" lon="2.27216">
        <ele>82.9</ele>
        <time>2015-02-02T20:35:25.539Z</time>
      </trkpt>
      <trkpt lat="48.83791" lon="2.2721">
        <ele>82.8</ele>
        <time>2015-02-02T20:35:26.450Z</time>
      </trkpt>
      <trkpt lat="48.83794" lon="2.27204">
        <ele>82.7</ele>
        <time>2015-02-02T20:35:27.480Z</time>
      </trkpt>
      <trkpt lat="48.83796" lon="2.27197">
        <ele>82.5</ele>
        <time>2015-02-02T20:35:28.542Z</time>
      </trkpt>
      <trkpt lat="48.83799" lon="2.27191">
        <ele>82.4</ele>
        <time>2015-02-02T20:35:29.461Z</time>
      </trkpt>
      <trkpt lat="48.83801" lon="2.27185">
        <ele>82.2</ele>
        <time>2015-02-02T20:35:30.470Z</time>
      </trkpt>
      <trkpt lat="48.83806" lon="2.27175">
        <ele>82.5</ele>
        <time>2015-02-02T20:35:32.481Z</time>
      </trkpt>
      <trkpt lat="48.83809" lon="2.2717">
        <ele>82.7</ele>
        <time>2015-02-02T20:35:33.498Z</time>
      </trkpt>
      <trkpt lat="48.83813" lon="2.27165">
        <ele>83.3</ele>
        <time>2015-02-02T20:35:35.220Z</time>
      </trkpt>
      <trkpt lat="48.83817" lon="2.2716">
        <ele>84.3</ele>
        <time>2015-02-02T20:35:35.551Z</time>
      </trkpt>
      <trkpt lat="48.8382" lon="2.27155">
        <ele>85.4</ele>
        <time>2015-02-02T20:35:36.561Z</time>
      </trkpt>
      <trkpt lat="48.83823" lon="2.27151">
        <ele>85.9</ele>
        <time>2015-02-02T20:35:37.455Z</time>
      </trkpt>
      <trkpt lat="48.83826" lon="2.27146">
        <ele>86.4</ele>
        <time>2015-02-02T20:35:38.509Z</time>
      </trkpt>
      <trkpt lat="48.8383" lon="2.27141">
        <ele>87</ele>
        <time>2015-02-02T20:35:39.556Z</time>
      </trkpt>
      <trkpt lat="48.83835" lon="2.27131">
        <ele>87.2</ele>
        <time>2015-02-02T20:35:41.513Z</time>
      </trkpt>
      <trkpt lat="48.83837" lon="2.27125">
        <ele>87.3</ele>
        <time>2015-02-02T20:35:42.485Z</time>
      </trkpt>
      <trkpt lat="48.83839" lon="2.27114">
        <ele>87.6</ele>
        <time>2015-02-02T20:35:45.364Z</time>
      </trkpt>
      <trkpt lat="48.8384" lon="2.27109">
        <ele>87.7</ele>
        <time>2015-02-02T20:35:45.533Z</time>
      </trkpt>
      <trkpt lat="48.83843" lon="2.27101">
        <ele>88.4</ele>
        <time>2015-02-02T20:35:48.137Z</time>
      </trkpt>
      <trkpt lat="48.83844" lon="2.27097">
        <ele>88.8</ele>
        <time>2015-02-02T20:35:48.473Z</time>
      </trkpt>
      <trkpt lat="48.83846" lon="2.27087">
        <ele>89.5</ele>
        <time>2015-02-02T20:35:50.603Z</time>
      </trkpt>
      <trkpt lat="48.83847" lon="2.27083">
        <ele>89.7</ele>
        <time>2015-02-02T20:35:51.505Z</time>
      </trkpt>
      <trkpt lat="48.83851" lon="2.27072">
        <ele>90.6</ele>
        <time>2015-02-02T20:35:54.489Z</time>
      </trkpt>
      <trkpt lat="48.83852" lon="2.27069">
        <ele>90.7</ele>
        <time>2015-02-02T20:35:55.507Z</time>
      </trkpt>
      <trkpt lat="48.83859" lon="2.27061">
        <ele>88.3</ele>
        <time>2015-02-02T20:35:58.551Z</time>
      </trkpt>
      <trkpt lat="48.83861" lon="2.27058">
        <ele>87.9</ele>
        <time>2015-02-02T20:35:59.493Z</time>
      </trkpt>
      <trkpt lat="48.83866" lon="2.2705">
        <ele>86.5</ele>
        <time>2015-02-02T20:36:03.476Z</time>
      </trkpt>
      <trkpt lat="48.83867" lon="2.27047">
        <ele>86.1</ele>
        <time>2015-02-02T20:36:03.551Z</time>
      </trkpt>
      <trkpt lat="48.8387" lon="2.27037">
        <ele>86.1</ele>
        <time>2015-02-02T20:36:06.512Z</time>
      </trkpt>
      <trkpt lat="48.83871" lon="2.27035">
        <ele>86.4</ele>
        <time>2015-02-02T20:36:07.477Z</time>
      </trkpt>
      <trkpt lat="48.83876" lon="2.27025">
        <ele>86.3</ele>
        <time>2015-02-02T20:36:11.587Z</time>
      </trkpt>
      <trkpt lat="48.83877" lon="2.27022">
        <ele>86.1</ele>
        <time>2015-02-02T20:36:12.475Z</time>
      </trkpt>
      <trkpt lat="48.83876" lon="2.27017">
        <ele>86.2</ele>
        <time>2015-02-02T20:36:15.540Z</time>
      </trkpt>
      <trkpt lat="48.83876" lon="2.27019">
        <ele>87.2</ele>
        <time>2015-02-02T20:36:16.559Z</time>
      </trkpt>
      <trkpt lat="48.83875" lon="2.27023">
        <ele>88</ele>
        <time>2015-02-02T20:36:17.497Z</time>
      </trkpt>
      <trkpt lat="48.83877" lon="2.27011">
        <ele>89.9</ele>
        <time>2015-02-02T20:37:19.541Z</time>
      </trkpt>
      <trkpt lat="48.83878" lon="2.2701">
        <ele>89.8</ele>
        <time>2015-02-02T20:37:20.591Z</time>
      </trkpt>
      <trkpt lat="48.83883" lon="2.27002">
        <ele>89.9</ele>
        <time>2015-02-02T20:37:26.506Z</time>
      </trkpt>
      <trkpt lat="48.83882" lon="2.27001">
        <ele>90.7</ele>
        <time>2015-02-02T20:37:27.478Z</time>
      </trkpt>
      <trkpt lat="48.83882" lon="2.27001">
        <ele>90.7</ele>
        <time>2015-02-02T20:37:31.516Z</time>
      </trkpt>
      <trkpt lat="48.83882" lon="2.27">
        <ele>91.6</ele>
        <time>2015-02-02T20:37:32.567Z</time>
      </trkpt>
      <trkpt lat="48.83886" lon="2.26989">
        <ele>93.4</ele>
        <time>2015-02-02T20:37:36.621Z</time>
      </trkpt>
      <trkpt lat="48.83888" lon="2.26985">
        <ele>93.4</ele>
        <time>2015-02-02T20:37:37.489Z</time>
      </trkpt>
      <trkpt lat="48.83891" lon="2.26978">
        <ele>93.1</ele>
        <time>2015-02-02T20:37:39.543Z</time>
      </trkpt>
      <trkpt lat="48.83892" lon="2.26973">
        <ele>93</ele>
        <time>2015-02-02T20:37:40.556Z</time>
      </trkpt>
      <trkpt lat="48.83895" lon="2.26964">
        <ele>93.4</ele>
        <time>2015-02-02T20:37:42.593Z</time>
      </trkpt>
      <trkpt lat="48.83897" lon="2.26959">
        <ele>93.1</ele>
        <time>2015-02-02T20:37:43.501Z</time>
      </trkpt>
      <trkpt lat="48.83901" lon="2.26951">
        <ele>92.7</ele>
        <time>2015-02-02T20:37:45.521Z</time>
      </trkpt>
      <trkpt lat="48.83903" lon="2.26946">
        <ele>92.6</ele>
        <time>2015-02-02T20:37:46.556Z</time>
      </trkpt>
      <trkpt lat="48.83907" lon="2.26937">
        <ele>92.2</ele>
        <time>2015-02-02T20:37:48.479Z</time>
      </trkpt>
      <trkpt lat="48.83909" lon="2.26933">
        <ele>92</ele>
        <time>2015-02-02T20:37:49.521Z</time>
      </trkpt>
      <trkpt lat="48.83913" lon="2.26925">
        <ele>91.3</ele>
        <time>2015-02-02T20:37:51.535Z</time>
      </trkpt>
      <trkpt lat="48.83915" lon="2.2692">
        <ele>91.1</ele>
        <time>2015-02-02T20:37:52.576Z</time>
      </trkpt>
      <trkpt lat="48.83919" lon="2.2691">
        <ele>90.7</ele>
        <time>2015-02-02T20:37:54.487Z</time>
      </trkpt>
      <trkpt lat="48.83921" lon="2.26905">
        <ele>90.5</ele>
        <time>2015-02-02T20:37:55.524Z</time>
      </trkpt>
      <trkpt lat="48.83925" lon="2.26896">
        <ele>90.2</ele>
        <time>2015-02-02T20:37:58.363Z</time>
      </trkpt>
      <trkpt lat="48.83927" lon="2.26891">
        <ele>90.1</ele>
        <time>2015-02-02T20:37:58.595Z</time>
      </trkpt>
      <trkpt lat="48.83932" lon="2.26881">
        <ele>90</ele>
        <time>2015-02-02T20:38:00.501Z</time>
      </trkpt>
      <trkpt lat="48.83934" lon="2.26876">
        <ele>89.9</ele>
        <time>2015-02-02T20:38:01.551Z</time>
      </trkpt>
      <trkpt lat="48.83939" lon="2.26866">
        <ele>89.8</ele>
        <time>2015-02-02T20:38:03.475Z</time>
      </trkpt>
      <trkpt lat="48.83942" lon="2.2686">
        <ele>89.7</ele>
        <time>2015-02-02T20:38:04.589Z</time>
      </trkpt>
      <trkpt lat="48.83945" lon="2.26854">
        <ele>89.7</ele>
        <time>2015-02-02T20:38:05.582Z</time>
      </trkpt>
      <trkpt lat="48.83947" lon="2.26848">
        <ele>89.6</ele>
        <time>2015-02-02T20:38:06.694Z</time>
      </trkpt>
      <trkpt lat="48.8395" lon="2.26842">
        <ele>89.5</ele>
        <time>2015-02-02T20:38:08.401Z</time>
      </trkpt>
      <trkpt lat="48.83953" lon="2.26837">
        <ele>89.4</ele>
        <time>2015-02-02T20:38:08.506Z</time>
      </trkpt>
      <trkpt lat="48.83956" lon="2.26831">
        <ele>89.4</ele>
        <time>2015-02-02T20:38:09.518Z</time>
      </trkpt>
      <trkpt lat="48.83959" lon="2.26825">
        <ele>89.4</ele>
        <time>2015-02-02T20:38:10.523Z</time>
      </trkpt>
      <trkpt lat="48.83962" lon="2.26819">
        <ele>89.3</ele>
        <time>2015-02-02T20:38:11.521Z</time>
      </trkpt>
      <trkpt lat="48.83965" lon="2.26813">
        <ele>89.3</ele>
        <time>2015-02-02T20:38:12.540Z</time>
      </trkpt>
      <trkpt lat="48.83968" lon="2.26808">
        <ele>89.2</ele>
        <time>2015-02-02T20:38:13.536Z</time>
      </trkpt>
      <trkpt lat="48.83971" lon="2.26802">
        <ele>89.1</ele>
        <time>2015-02-02T20:38:14.548Z</time>
      </trkpt>
      <trkpt lat="48.83975" lon="2.26794">
        <ele>89</ele>
        <time>2015-02-02T20:38:15.565Z</time>
      </trkpt>
      <trkpt lat="48.83977" lon="2.26786">
        <ele>88.9</ele>
        <time>2015-02-02T20:38:16.569Z</time>
      </trkpt>
      <trkpt lat="48.83981" lon="2.26779">
        <ele>88.9</ele>
        <time>2015-02-02T20:38:17.571Z</time>
      </trkpt>
      <trkpt lat="48.83984" lon="2.26771">
        <ele>88.9</ele>
        <time>2015-02-02T20:38:18.489Z</time>
      </trkpt>
      <trkpt lat="48.83987" lon="2.26763">
        <ele>88.8</ele>
        <time>2015-02-02T20:38:19.503Z</time>
      </trkpt>
      <trkpt lat="48.8399" lon="2.26755">
        <ele>88.8</ele>
        <time>2015-02-02T20:38:20.514Z</time>
      </trkpt>
      <trkpt lat="48.83993" lon="2.26747">
        <ele>88.9</ele>
        <time>2015-02-02T20:38:21.522Z</time>
      </trkpt>
      <trkpt lat="48.83996" lon="2.26739">
        <ele>88.8</ele>
        <time>2015-02-02T20:38:22.540Z</time>
      </trkpt>
      <trkpt lat="48.84" lon="2.26731">
        <ele>88.8</ele>
        <time>2015-02-02T20:38:23.546Z</time>
      </trkpt>
      <trkpt lat="48.84004" lon="2.26724">
        <ele>88.7</ele>
        <time>2015-02-02T20:38:24.555Z</time>
      </trkpt>
      <trkpt lat="48.84008" lon="2.26717">
        <ele>88.8</ele>
        <time>2015-02-02T20:38:25.470Z</time>
      </trkpt>
      <trkpt lat="48.84012" lon="2.26708">
        <ele>88.8</ele>
        <time>2015-02-02T20:38:26.472Z</time>
      </trkpt>
      <trkpt lat="48.84016" lon="2.267">
        <ele>88.9</ele>
        <time>2015-02-02T20:38:27.503Z</time>
      </trkpt>
      <trkpt lat="48.8402" lon="2.26691">
        <ele>89</ele>
        <time>2015-02-02T20:38:28.527Z</time>
      </trkpt>
      <trkpt lat="48.84024" lon="2.26684">
        <ele>89</ele>
        <time>2015-02-02T20:38:29.548Z</time>
      </trkpt>
      <trkpt lat="48.84029" lon="2.26677">
        <ele>89.1</ele>
        <time>2015-02-02T20:38:30.561Z</time>
      </trkpt>
      <trkpt lat="48.84035" lon="2.2667">
        <ele>88.9</ele>
        <time>2015-02-02T20:38:31.477Z</time>
      </trkpt>
      <trkpt lat="48.84037" lon="2.2666">
        <ele>89.1</ele>
        <time>2015-02-02T20:38:32.483Z</time>
      </trkpt>
      <trkpt lat="48.84041" lon="2.2665">
        <ele>89.2</ele>
        <time>2015-02-02T20:38:33.485Z</time>
      </trkpt>
      <trkpt lat="48.84046" lon="2.26642">
        <ele>89.3</ele>
        <time>2015-02-02T20:38:34.536Z</time>
      </trkpt>
      <trkpt lat="48.84051" lon="2.26635">
        <ele>89.4</ele>
        <time>2015-02-02T20:38:35.543Z</time>
      </trkpt>
      <trkpt lat="48.84056" lon="2.26627">
        <ele>89.5</ele>
        <time>2015-02-02T20:38:36.453Z</time>
      </trkpt>
      <trkpt lat="48.84061" lon="2.26623">
        <ele>89.6</ele>
        <time>2015-02-02T20:38:37.476Z</time>
      </trkpt>
      <trkpt lat="48.84065" lon="2.26615">
        <ele>89.7</ele>
        <time>2015-02-02T20:38:38.643Z</time>
      </trkpt>
      <trkpt lat="48.84068" lon="2.26607">
        <ele>89.7</ele>
        <time>2015-02-02T20:38:39.480Z</time>
      </trkpt>
      <trkpt lat="48.84069" lon="2.26598">
        <ele>89.7</ele>
        <time>2015-02-02T20:38:40.488Z</time>
      </trkpt>
      <trkpt lat="48.84074" lon="2.26588">
        <ele>89.9</ele>
        <time>2015-02-02T20:38:42.471Z</time>
      </trkpt>
      <trkpt lat="48.84077" lon="2.26581">
        <ele>90</ele>
        <time>2015-02-02T20:38:43.576Z</time>
      </trkpt>
      <trkpt lat="48.84083" lon="2.26573">
        <ele>90.3</ele>
        <time>2015-02-02T20:38:45.480Z</time>
      </trkpt>
      <trkpt lat="48.84085" lon="2.26569">
        <ele>90.4</ele>
        <time>2015-02-02T20:38:46.506Z</time>
      </trkpt>
      <trkpt lat="48.84087" lon="2.26556">
        <ele>90.5</ele>
        <time>2015-02-02T20:38:49.456Z</time>
      </trkpt>
      <trkpt lat="48.84087" lon="2.26553">
        <ele>90.6</ele>
        <time>2015-02-02T20:38:50.474Z</time>
      </trkpt>
      <trkpt lat="48.84092" lon="2.26542">
        <ele>91.4</ele>
        <time>2015-02-02T20:38:54.537Z</time>
      </trkpt>
      <trkpt lat="48.84094" lon="2.2654">
        <ele>91.5</ele>
        <time>2015-02-02T20:38:55.472Z</time>
      </trkpt>
      <trkpt lat="48.84094" lon="2.26527">
        <ele>92.1</ele>
        <time>2015-02-02T20:38:59.539Z</time>
      </trkpt>
      <trkpt lat="48.84095" lon="2.26523">
        <ele>92.2</ele>
        <time>2015-02-02T20:39:00.563Z</time>
      </trkpt>
      <trkpt lat="48.84099" lon="2.26514">
        <ele>92.3</ele>
        <time>2015-02-02T20:39:02.473Z</time>
      </trkpt>
      <trkpt lat="48.841" lon="2.26509">
        <ele>92.4</ele>
        <time>2015-02-02T20:39:03.479Z</time>
      </trkpt>
      <trkpt lat="48.84103" lon="2.26497">
        <ele>92.3</ele>
        <time>2015-02-02T20:39:05.542Z</time>
      </trkpt>
      <trkpt lat="48.84105" lon="2.26492">
        <ele>92.4</ele>
        <time>2015-02-02T20:39:06.556Z</time>
      </trkpt>
      <trkpt lat="48.84108" lon="2.26489">
        <ele>92.5</ele>
        <time>2015-02-02T20:39:07.469Z</time>
      </trkpt>
      <trkpt lat="48.84113" lon="2.26483">
        <ele>89.9</ele>
        <time>2015-02-02T20:39:08.465Z</time>
      </trkpt>
      <trkpt lat="48.84117" lon="2.26479">
        <ele>88.6</ele>
        <time>2015-02-02T20:39:09.469Z</time>
      </trkpt>
      <trkpt lat="48.84122" lon="2.26474">
        <ele>87.2</ele>
        <time>2015-02-02T20:39:10.520Z</time>
      </trkpt>
      <trkpt lat="48.84128" lon="2.26471">
        <ele>86</ele>
        <time>2015-02-02T20:39:11.493Z</time>
      </trkpt>
      <trkpt lat="48.84133" lon="2.26467">
        <ele>85</ele>
        <time>2015-02-02T20:39:12.490Z</time>
      </trkpt>
      <trkpt lat="48.84137" lon="2.26461">
        <ele>84.4</ele>
        <time>2015-02-02T20:39:13.527Z</time>
      </trkpt>
      <trkpt lat="48.84142" lon="2.26457">
        <ele>83.8</ele>
        <time>2015-02-02T20:39:14.535Z</time>
      </trkpt>
      <trkpt lat="48.84146" lon="2.26452">
        <ele>83.5</ele>
        <time>2015-02-02T20:39:15.562Z</time>
      </trkpt>
      <trkpt lat="48.8415" lon="2.26446">
        <ele>83.3</ele>
        <time>2015-02-02T20:39:16.563Z</time>
      </trkpt>
      <trkpt lat="48.84154" lon="2.2644">
        <ele>83.4</ele>
        <time>2015-02-02T20:39:17.473Z</time>
      </trkpt>
      <trkpt lat="48.84157" lon="2.26434">
        <ele>83.3</ele>
        <time>2015-02-02T20:39:18.501Z</time>
      </trkpt>
      <trkpt lat="48.84162" lon="2.26423">
        <ele>83.2</ele>
        <time>2015-02-02T20:39:20.532Z</time>
      </trkpt>
      <trkpt lat="48.84164" lon="2.26418">
        <ele>83.3</ele>
        <time>2015-02-02T20:39:21.540Z</time>
      </trkpt>
      <trkpt lat="48.84167" lon="2.26413">
        <ele>83.3</ele>
        <time>2015-02-02T20:39:22.603Z</time>
      </trkpt>
      <trkpt lat="48.84168" lon="2.26406">
        <ele>83.5</ele>
        <time>2015-02-02T20:39:23.467Z</time>
      </trkpt>
      <trkpt lat="48.84168" lon="2.26398">
        <ele>83</ele>
        <time>2015-02-02T20:39:24.480Z</time>
      </trkpt>
      <trkpt lat="48.84169" lon="2.26391">
        <ele>82.4</ele>
        <time>2015-02-02T20:39:25.547Z</time>
      </trkpt>
      <trkpt lat="48.84171" lon="2.26384">
        <ele>82.7</ele>
        <time>2015-02-02T20:39:26.486Z</time>
      </trkpt>
      <trkpt lat="48.84174" lon="2.26377">
        <ele>82.9</ele>
        <time>2015-02-02T20:39:27.509Z</time>
      </trkpt>
      <trkpt lat="48.84176" lon="2.26369">
        <ele>83.1</ele>
        <time>2015-02-02T20:39:28.524Z</time>
      </trkpt>
      <trkpt lat="48.84179" lon="2.26362">
        <ele>83</ele>
        <time>2015-02-02T20:39:29.545Z</time>
      </trkpt>
      <trkpt lat="48.84181" lon="2.26354">
        <ele>82.9</ele>
        <time>2015-02-02T20:39:30.599Z</time>
      </trkpt>
      <trkpt lat="48.84184" lon="2.26345">
        <ele>82.7</ele>
        <time>2015-02-02T20:39:31.445Z</time>
      </trkpt>
      <trkpt lat="48.84186" lon="2.26338">
        <ele>82.8</ele>
        <time>2015-02-02T20:39:32.470Z</time>
      </trkpt>
      <trkpt lat="48.8419" lon="2.2633">
        <ele>82.7</ele>
        <time>2015-02-02T20:39:33.478Z</time>
      </trkpt>
      <trkpt lat="48.84193" lon="2.26323">
        <ele>82.6</ele>
        <time>2015-02-02T20:39:34.542Z</time>
      </trkpt>
      <trkpt lat="48.84196" lon="2.26316">
        <ele>82.9</ele>
        <time>2015-02-02T20:39:35.568Z</time>
      </trkpt>
      <trkpt lat="48.842" lon="2.26309">
        <ele>83.2</ele>
        <time>2015-02-02T20:39:36.470Z</time>
      </trkpt>
      <trkpt lat="48.84204" lon="2.26303">
        <ele>83.4</ele>
        <time>2015-02-02T20:39:37.468Z</time>
      </trkpt>
      <trkpt lat="48.84207" lon="2.26297">
        <ele>83.6</ele>
        <time>2015-02-02T20:39:38.482Z</time>
      </trkpt>
      <trkpt lat="48.8421" lon="2.2629">
        <ele>83.8</ele>
        <time>2015-02-02T20:39:39.487Z</time>
      </trkpt>
      <trkpt lat="48.84212" lon="2.26284">
        <ele>83.6</ele>
        <time>2015-02-02T20:39:40.506Z</time>
      </trkpt>
      <trkpt lat="48.84216" lon="2.26279">
        <ele>83.8</ele>
        <time>2015-02-02T20:39:41.506Z</time>
      </trkpt>
      <trkpt lat="48.84218" lon="2.26273">
        <ele>84</ele>
        <time>2015-02-02T20:39:42.511Z</time>
      </trkpt>
      <trkpt lat="48.84221" lon="2.26266">
        <ele>84.2</ele>
        <time>2015-02-02T20:39:43.522Z</time>
      </trkpt>
      <trkpt lat="48.84224" lon="2.26257">
        <ele>84.4</ele>
        <time>2015-02-02T20:39:44.533Z</time>
      </trkpt>
      <trkpt lat="48.84227" lon="2.26249">
        <ele>84.6</ele>
        <time>2015-02-02T20:39:45.547Z</time>
      </trkpt>
      <trkpt lat="48.84229" lon="2.26242">
        <ele>84.8</ele>
        <time>2015-02-02T20:39:46.605Z</time>
      </trkpt>
      <trkpt lat="48.84232" lon="2.26234">
        <ele>85</ele>
        <time>2015-02-02T20:39:47.459Z</time>
      </trkpt>
      <trkpt lat="48.84234" lon="2.26227">
        <ele>85.1</ele>
        <time>2015-02-02T20:39:48.481Z</time>
      </trkpt>
      <trkpt lat="48.84236" lon="2.26218">
        <ele>85.3</ele>
        <time>2015-02-02T20:39:49.488Z</time>
      </trkpt>
      <trkpt lat="48.84239" lon="2.2621">
        <ele>85.4</ele>
        <time>2015-02-02T20:39:50.543Z</time>
      </trkpt>
      <trkpt lat="48.8424" lon="2.26203">
        <ele>85.6</ele>
        <time>2015-02-02T20:39:51.557Z</time>
      </trkpt>
      <trkpt lat="48.84243" lon="2.26196">
        <ele>85.7</ele>
        <time>2015-02-02T20:39:52.591Z</time>
      </trkpt>
      <trkpt lat="48.84246" lon="2.26191">
        <ele>85.9</ele>
        <time>2015-02-02T20:39:53.466Z</time>
      </trkpt>
      <trkpt lat="48.84249" lon="2.26185">
        <ele>86</ele>
        <time>2015-02-02T20:39:54.467Z</time>
      </trkpt>
      <trkpt lat="48.84252" lon="2.2618">
        <ele>86.2</ele>
        <time>2015-02-02T20:39:55.466Z</time>
      </trkpt>
      <trkpt lat="48.84256" lon="2.26174">
        <ele>86.4</ele>
        <time>2015-02-02T20:39:56.466Z</time>
      </trkpt>
      <trkpt lat="48.84259" lon="2.2617">
        <ele>86.5</ele>
        <time>2015-02-02T20:39:57.504Z</time>
      </trkpt>
      <trkpt lat="48.84265" lon="2.2616">
        <ele>86.8</ele>
        <time>2015-02-02T20:39:59.531Z</time>
      </trkpt>
      <trkpt lat="48.84268" lon="2.26155">
        <ele>86.9</ele>
        <time>2015-02-02T20:40:00.553Z</time>
      </trkpt>
      <trkpt lat="48.84272" lon="2.2615">
        <ele>87</ele>
        <time>2015-02-02T20:40:01.471Z</time>
      </trkpt>
      <trkpt lat="48.84276" lon="2.26144">
        <ele>87.1</ele>
        <time>2015-02-02T20:40:02.592Z</time>
      </trkpt>
      <trkpt lat="48.8428" lon="2.2614">
        <ele>87.2</ele>
        <time>2015-02-02T20:40:03.485Z</time>
      </trkpt>
      <trkpt lat="48.84283" lon="2.26135">
        <ele>87.4</ele>
        <time>2015-02-02T20:40:04.544Z</time>
      </trkpt>
      <trkpt lat="48.84288" lon="2.26125">
        <ele>87.6</ele>
        <time>2015-02-02T20:40:06.461Z</time>
      </trkpt>
      <trkpt lat="48.8429" lon="2.26115">
        <ele>87.6</ele>
        <time>2015-02-02T20:40:07.514Z</time>
      </trkpt>
      <trkpt lat="48.8429" lon="2.26104">
        <ele>87.5</ele>
        <time>2015-02-02T20:40:08.446Z</time>
      </trkpt>
      <trkpt lat="48.84292" lon="2.26096">
        <ele>87.4</ele>
        <time>2015-02-02T20:40:09.445Z</time>
      </trkpt>
      <trkpt lat="48.84295" lon="2.26085">
        <ele>87.2</ele>
        <time>2015-02-02T20:40:11.534Z</time>
      </trkpt>
      <trkpt lat="48.84297" lon="2.26081">
        <ele>87.3</ele>
        <time>2015-02-02T20:40:12.462Z</time>
      </trkpt>
      <trkpt lat="48.84301" lon="2.2607">
        <ele>87.1</ele>
        <time>2015-02-02T20:40:14.488Z</time>
      </trkpt>
      <trkpt lat="48.84303" lon="2.26065">
        <ele>87.1</ele>
        <time>2015-02-02T20:40:15.517Z</time>
      </trkpt>
      <trkpt lat="48.84306" lon="2.26055">
        <ele>87.3</ele>
        <time>2015-02-02T20:40:17.563Z</time>
      </trkpt>
      <trkpt lat="48.84308" lon="2.2605">
        <ele>87.5</ele>
        <time>2015-02-02T20:40:18.518Z</time>
      </trkpt>
      <trkpt lat="48.84313" lon="2.26041">
        <ele>87.5</ele>
        <time>2015-02-02T20:40:22.491Z</time>
      </trkpt>
      <trkpt lat="48.84315" lon="2.2604">
        <ele>87.8</ele>
        <time>2015-02-02T20:40:23.469Z</time>
      </trkpt>
      <trkpt lat="48.84314" lon="2.26034">
        <ele>87.4</ele>
        <time>2015-02-02T20:40:27.479Z</time>
      </trkpt>
      <trkpt lat="48.84314" lon="2.26034">
        <ele>87.5</ele>
        <time>2015-02-02T20:40:28.494Z</time>
      </trkpt>
      <trkpt lat="48.84313" lon="2.26034">
        <ele>87.4</ele>
        <time>2015-02-02T20:40:47.509Z</time>
      </trkpt>
      <trkpt lat="48.8431" lon="2.26029">
        <ele>89.4</ele>
        <time>2015-02-02T20:40:48.452Z</time>
      </trkpt>
      <trkpt lat="48.84314" lon="2.26021">
        <ele>89.8</ele>
        <time>2015-02-02T20:40:51.526Z</time>
      </trkpt>
      <trkpt lat="48.84315" lon="2.26017">
        <ele>89.9</ele>
        <time>2015-02-02T20:40:52.534Z</time>
      </trkpt>
      <trkpt lat="48.8432" lon="2.2601">
        <ele>89.9</ele>
        <time>2015-02-02T20:40:54.462Z</time>
      </trkpt>
      <trkpt lat="48.84322" lon="2.26007">
        <ele>90.3</ele>
        <time>2015-02-02T20:40:55.471Z</time>
      </trkpt>
      <trkpt lat="48.84326" lon="2.25999">
        <ele>90.5</ele>
        <time>2015-02-02T20:40:57.512Z</time>
      </trkpt>
      <trkpt lat="48.84329" lon="2.25995">
        <ele>90.7</ele>
        <time>2015-02-02T20:40:58.537Z</time>
      </trkpt>
      <trkpt lat="48.84332" lon="2.25991">
        <ele>91.1</ele>
        <time>2015-02-02T20:40:59.458Z</time>
      </trkpt>
      <trkpt lat="48.84336" lon="2.25986">
        <ele>91.4</ele>
        <time>2015-02-02T20:41:00.425Z</time>
      </trkpt>
      <trkpt lat="48.8434" lon="2.25983">
        <ele>91.5</ele>
        <time>2015-02-02T20:41:01.483Z</time>
      </trkpt>
      <trkpt lat="48.84344" lon="2.25979">
        <ele>91.7</ele>
        <time>2015-02-02T20:41:02.493Z</time>
      </trkpt>
      <trkpt lat="48.84352" lon="2.25972">
        <ele>91.9</ele>
        <time>2015-02-02T20:41:04.557Z</time>
      </trkpt>
      <trkpt lat="48.84355" lon="2.25969">
        <ele>92.1</ele>
        <time>2015-02-02T20:41:05.450Z</time>
      </trkpt>
      <trkpt lat="48.84363" lon="2.25964">
        <ele>92.4</ele>
        <time>2015-02-02T20:41:07.492Z</time>
      </trkpt>
      <trkpt lat="48.84367" lon="2.25963">
        <ele>92.6</ele>
        <time>2015-02-02T20:41:08.504Z</time>
      </trkpt>
      <trkpt lat="48.84374" lon="2.25959">
        <ele>92.9</ele>
        <time>2015-02-02T20:41:10.487Z</time>
      </trkpt>
      <trkpt lat="48.84377" lon="2.25956">
        <ele>93.1</ele>
        <time>2015-02-02T20:41:11.478Z</time>
      </trkpt>
      <trkpt lat="48.84381" lon="2.25953">
        <ele>93.4</ele>
        <time>2015-02-02T20:41:12.507Z</time>
      </trkpt>
      <trkpt lat="48.84385" lon="2.2595">
        <ele>93.5</ele>
        <time>2015-02-02T20:41:13.589Z</time>
      </trkpt>
      <trkpt lat="48.8439" lon="2.25947">
        <ele>93.6</ele>
        <time>2015-02-02T20:41:14.528Z</time>
      </trkpt>
      <trkpt lat="48.84394" lon="2.25944">
        <ele>93.7</ele>
        <time>2015-02-02T20:41:15.539Z</time>
      </trkpt>
      <trkpt lat="48.84399" lon="2.2594">
        <ele>93.8</ele>
        <time>2015-02-02T20:41:16.550Z</time>
      </trkpt>
      <trkpt lat="48.84404" lon="2.25937">
        <ele>93.9</ele>
        <time>2015-02-02T20:41:17.449Z</time>
      </trkpt>
      <trkpt lat="48.8441" lon="2.25933">
        <ele>93.8</ele>
        <time>2015-02-02T20:41:18.462Z</time>
      </trkpt>
      <trkpt lat="48.84415" lon="2.25929">
        <ele>93.8</ele>
        <time>2015-02-02T20:41:19.471Z</time>
      </trkpt>
      <trkpt lat="48.84423" lon="2.25924">
        <ele>94.2</ele>
        <time>2015-02-02T20:41:21.492Z</time>
      </trkpt>
      <trkpt lat="48.84427" lon="2.2592">
        <ele>94.5</ele>
        <time>2015-02-02T20:41:22.529Z</time>
      </trkpt>
      <trkpt lat="48.84434" lon="2.25917">
        <ele>94.8</ele>
        <time>2015-02-02T20:41:23.521Z</time>
      </trkpt>
      <trkpt lat="48.84439" lon="2.25914">
        <ele>94.8</ele>
        <time>2015-02-02T20:41:24.530Z</time>
      </trkpt>
      <trkpt lat="48.84445" lon="2.25912">
        <ele>95.1</ele>
        <time>2015-02-02T20:41:25.544Z</time>
      </trkpt>
      <trkpt lat="48.8445" lon="2.2591">
        <ele>95.3</ele>
        <time>2015-02-02T20:41:26.432Z</time>
      </trkpt>
      <trkpt lat="48.84456" lon="2.25905">
        <ele>95.5</ele>
        <time>2015-02-02T20:41:29.214Z</time>
      </trkpt>
      <trkpt lat="48.84459" lon="2.25903">
        <ele>95.8</ele>
        <time>2015-02-02T20:41:29.430Z</time>
      </trkpt>
      <trkpt lat="48.84466" lon="2.25897">
        <ele>96.5</ele>
        <time>2015-02-02T20:41:32.480Z</time>
      </trkpt>
      <trkpt lat="48.8447" lon="2.25894">
        <ele>96.7</ele>
        <time>2015-02-02T20:41:33.504Z</time>
      </trkpt>
      <trkpt lat="48.84475" lon="2.25888">
        <ele>98.1</ele>
        <time>2015-02-02T20:41:36.465Z</time>
      </trkpt>
      <trkpt lat="48.84477" lon="2.25887">
        <ele>98.5</ele>
        <time>2015-02-02T20:41:37.480Z</time>
      </trkpt>
      <trkpt lat="48.84483" lon="2.25884">
        <ele>99.3</ele>
        <time>2015-02-02T20:41:39.449Z</time>
      </trkpt>
      <trkpt lat="48.84487" lon="2.25883">
        <ele>99.6</ele>
        <time>2015-02-02T20:41:40.564Z</time>
      </trkpt>
      <trkpt lat="48.84495" lon="2.25881">
        <ele>99.9</ele>
        <time>2015-02-02T20:41:43.482Z</time>
      </trkpt>
      <trkpt lat="48.84497" lon="2.25882">
        <ele>100.2</ele>
        <time>2015-02-02T20:41:44.517Z</time>
      </trkpt>
      <trkpt lat="48.84504" lon="2.25891">
        <ele>100.7</ele>
        <time>2015-02-02T20:41:48.467Z</time>
      </trkpt>
      <trkpt lat="48.84506" lon="2.25892">
        <ele>101</ele>
        <time>2015-02-02T20:41:49.474Z</time>
      </trkpt>
      <trkpt lat="48.84511" lon="2.25891">
        <ele>101.5</ele>
        <time>2015-02-02T20:41:51.485Z</time>
      </trkpt>
      <trkpt lat="48.84515" lon="2.25888">
        <ele>101.3</ele>
        <time>2015-02-02T20:41:52.500Z</time>
      </trkpt>
      <trkpt lat="48.84522" lon="2.25882">
        <ele>102.5</ele>
        <time>2015-02-02T20:41:54.519Z</time>
      </trkpt>
      <trkpt lat="48.84526" lon="2.25879">
        <ele>103.4</ele>
        <time>2015-02-02T20:41:55.532Z</time>
      </trkpt>
      <trkpt lat="48.84534" lon="2.25879">
        <ele>104.5</ele>
        <time>2015-02-02T20:41:59.457Z</time>
      </trkpt>
      <trkpt lat="48.84537" lon="2.2588">
        <ele>104.8</ele>
        <time>2015-02-02T20:42:00.504Z</time>
      </trkpt>
      <trkpt lat="48.84545" lon="2.25884">
        <ele>105.7</ele>
        <time>2015-02-02T20:42:04.549Z</time>
      </trkpt>
      <trkpt lat="48.84549" lon="2.25885">
        <ele>106</ele>
        <time>2015-02-02T20:42:05.593Z</time>
      </trkpt>
      <trkpt lat="48.84555" lon="2.25886">
        <ele>106.5</ele>
        <time>2015-02-02T20:42:07.467Z</time>
      </trkpt>
      <trkpt lat="48.84559" lon="2.25888">
        <ele>106.9</ele>
        <time>2015-02-02T20:42:08.515Z</time>
      </trkpt>
      <trkpt lat="48.84574" lon="2.25891">
        <ele>107.2</ele>
        <time>2015-02-02T20:42:12.447Z</time>
      </trkpt>
      <trkpt lat="48.84581" lon="2.25894">
        <ele>107.6</ele>
        <time>2015-02-02T20:42:14.507Z</time>
      </trkpt>
      <trkpt lat="48.84584" lon="2.25897">
        <ele>107.7</ele>
        <time>2015-02-02T20:42:15.505Z</time>
      </trkpt>
      <trkpt lat="48.84589" lon="2.259">
        <ele>108</ele>
        <time>2015-02-02T20:42:16.472Z</time>
      </trkpt>
      <trkpt lat="48.84594" lon="2.25903">
        <ele>108.2</ele>
        <time>2015-02-02T20:42:17.469Z</time>
      </trkpt>
      <trkpt lat="48.84599" lon="2.25906">
        <ele>108.5</ele>
        <time>2015-02-02T20:42:18.488Z</time>
      </trkpt>
      <trkpt lat="48.84604" lon="2.2591">
        <ele>108.7</ele>
        <time>2015-02-02T20:42:19.494Z</time>
      </trkpt>
      <trkpt lat="48.84612" lon="2.25915">
        <ele>109</ele>
        <time>2015-02-02T20:42:21.528Z</time>
      </trkpt>
      <trkpt lat="48.84616" lon="2.25916">
        <ele>109.1</ele>
        <time>2015-02-02T20:42:22.543Z</time>
      </trkpt>
      <trkpt lat="48.84623" lon="2.2592">
        <ele>109.4</ele>
        <time>2015-02-02T20:42:24.442Z</time>
      </trkpt>
      <trkpt lat="48.84627" lon="2.25922">
        <ele>109.6</ele>
        <time>2015-02-02T20:42:25.516Z</time>
      </trkpt>
      <trkpt lat="48.84631" lon="2.25924">
        <ele>109.7</ele>
        <time>2015-02-02T20:42:26.493Z</time>
      </trkpt>
      <trkpt lat="48.84636" lon="2.25927">
        <ele>109.8</ele>
        <time>2015-02-02T20:42:27.505Z</time>
      </trkpt>
      <trkpt lat="48.84643" lon="2.25931">
        <ele>110</ele>
        <time>2015-02-02T20:42:28.519Z</time>
      </trkpt>
      <trkpt lat="48.84645" lon="2.25933">
        <ele>110.1</ele>
        <time>2015-02-02T20:42:29.430Z</time>
      </trkpt>
      <trkpt lat="48.84651" lon="2.25939">
        <ele>110.3</ele>
        <time>2015-02-02T20:42:31.456Z</time>
      </trkpt>
      <trkpt lat="48.84655" lon="2.25943">
        <ele>110.4</ele>
        <time>2015-02-02T20:42:32.476Z</time>
      </trkpt>
      <trkpt lat="48.84655" lon="2.25943">
        <ele>110.4</ele>
        <time>2015-02-02T20:42:32.812Z</time>
      </trkpt>
      <trkpt lat="48.84682" lon="2.25956">
        <ele>107.4</ele>
        <time>2015-02-02T20:42:38.485Z</time>
      </trkpt>
      <trkpt lat="48.8469" lon="2.25961">
        <ele>107.5</ele>
        <time>2015-02-02T20:42:39.530Z</time>
      </trkpt>
      <trkpt lat="48.84694" lon="2.25964">
        <ele>107.6</ele>
        <time>2015-02-02T20:42:40.550Z</time>
      </trkpt>
      <trkpt lat="48.847" lon="2.25969">
        <ele>107.6</ele>
        <time>2015-02-02T20:42:41.485Z</time>
      </trkpt>
      <trkpt lat="48.84707" lon="2.25973">
        <ele>107.5</ele>
        <time>2015-02-02T20:42:42.488Z</time>
      </trkpt>
      <trkpt lat="48.84714" lon="2.25976">
        <ele>107.3</ele>
        <time>2015-02-02T20:42:43.518Z</time>
      </trkpt>
      <trkpt lat="48.84726" lon="2.25988">
        <ele>103.8</ele>
        <time>2015-02-02T20:42:44.527Z</time>
      </trkpt>
      <trkpt lat="48.84733" lon="2.25994">
        <ele>102.2</ele>
        <time>2015-02-02T20:42:45.448Z</time>
      </trkpt>
      <trkpt lat="48.84737" lon="2.25995">
        <ele>102.2</ele>
        <time>2015-02-02T20:42:46.553Z</time>
      </trkpt>
      <trkpt lat="48.84741" lon="2.25997">
        <ele>102.2</ele>
        <time>2015-02-02T20:42:47.436Z</time>
      </trkpt>
      <trkpt lat="48.84746" lon="2.26001">
        <ele>102</ele>
        <time>2015-02-02T20:42:48.451Z</time>
      </trkpt>
      <trkpt lat="48.84753" lon="2.26006">
        <ele>101.3</ele>
        <time>2015-02-02T20:42:50.458Z</time>
      </trkpt>
      <trkpt lat="48.84757" lon="2.26008">
        <ele>101</ele>
        <time>2015-02-02T20:42:51.464Z</time>
      </trkpt>
      <trkpt lat="48.84765" lon="2.26008">
        <ele>100</ele>
        <time>2015-02-02T20:42:55.719Z</time>
      </trkpt>
      <trkpt lat="48.84767" lon="2.26009">
        <ele>99.9</ele>
        <time>2015-02-02T20:42:56.476Z</time>
      </trkpt>
      <trkpt lat="48.84772" lon="2.2601">
        <ele>99.8</ele>
        <time>2015-02-02T20:43:00.487Z</time>
      </trkpt>
      <trkpt lat="48.84773" lon="2.2601">
        <ele>99.9</ele>
        <time>2015-02-02T20:43:01.491Z</time>
      </trkpt>
      <trkpt lat="48.84773" lon="2.26009">
        <ele>99.9</ele>
        <time>2015-02-02T20:43:06.477Z</time>
      </trkpt>
      <trkpt lat="48.84776" lon="2.26007">
        <ele>99.3</ele>
        <time>2015-02-02T20:43:07.491Z</time>
      </trkpt>
      <trkpt lat="48.84777" lon="2.26019">
        <ele>101</ele>
        <time>2015-02-02T20:43:14.470Z</time>
      </trkpt>
      <trkpt lat="48.84779" lon="2.2602">
        <ele>101.2</ele>
        <time>2015-02-02T20:43:15.480Z</time>
      </trkpt>
      <trkpt lat="48.84785" lon="2.2603">
        <ele>101.5</ele>
        <time>2015-02-02T20:43:21.477Z</time>
      </trkpt>
      <trkpt lat="48.84787" lon="2.26033">
        <ele>101.4</ele>
        <time>2015-02-02T20:43:22.568Z</time>
      </trkpt>
      <trkpt lat="48.84795" lon="2.26037">
        <ele>101.2</ele>
        <time>2015-02-02T20:43:27.515Z</time>
      </trkpt>
      <trkpt lat="48.84798" lon="2.26036">
        <ele>100.8</ele>
        <time>2015-02-02T20:43:28.525Z</time>
      </trkpt>
      <trkpt lat="48.84806" lon="2.26035">
        <ele>100.6</ele>
        <time>2015-02-02T20:43:31.481Z</time>
      </trkpt>
      <trkpt lat="48.8481" lon="2.26034">
        <ele>100.9</ele>
        <time>2015-02-02T20:43:32.510Z</time>
      </trkpt>
      <trkpt lat="48.84816" lon="2.26029">
        <ele>101.9</ele>
        <time>2015-02-02T20:43:34.526Z</time>
      </trkpt>
      <trkpt lat="48.8482" lon="2.26026">
        <ele>102.9</ele>
        <time>2015-02-02T20:43:35.536Z</time>
      </trkpt>
      <trkpt lat="48.84818" lon="2.26016">
        <ele>104.4</ele>
        <time>2015-02-02T20:43:39.495Z</time>
      </trkpt>
      <trkpt lat="48.84817" lon="2.26013">
        <ele>104.6</ele>
        <time>2015-02-02T20:43:40.569Z</time>
      </trkpt>
      <trkpt lat="48.84815" lon="2.26001">
        <ele>105.6</ele>
        <time>2015-02-02T20:43:43.496Z</time>
      </trkpt>
      <trkpt lat="48.84814" lon="2.25995">
        <ele>105.6</ele>
        <time>2015-02-02T20:43:44.524Z</time>
      </trkpt>
      <trkpt lat="48.84816" lon="2.25983">
        <ele>106.1</ele>
        <time>2015-02-02T20:43:47.477Z</time>
      </trkpt>
      <trkpt lat="48.84817" lon="2.2598">
        <ele>106.2</ele>
        <time>2015-02-02T20:43:48.512Z</time>
      </trkpt>
      <trkpt lat="48.8482" lon="2.2597">
        <ele>106</ele>
        <time>2015-02-02T20:43:51.569Z</time>
      </trkpt>
      <trkpt lat="48.84822" lon="2.25966">
        <ele>105.7</ele>
        <time>2015-02-02T20:43:52.581Z</time>
      </trkpt>
      <trkpt lat="48.84829" lon="2.25959">
        <ele>105.4</ele>
        <time>2015-02-02T20:43:55.485Z</time>
      </trkpt>
      <trkpt lat="48.84832" lon="2.25957">
        <ele>105.2</ele>
        <time>2015-02-02T20:43:56.525Z</time>
      </trkpt>
      <trkpt lat="48.8484" lon="2.25952">
        <ele>105</ele>
        <time>2015-02-02T20:44:01.471Z</time>
      </trkpt>
      <trkpt lat="48.84841" lon="2.25951">
        <ele>105.2</ele>
        <time>2015-02-02T20:44:02.470Z</time>
      </trkpt>
      <trkpt lat="48.84848" lon="2.2595">
        <ele>105.8</ele>
        <time>2015-02-02T20:44:06.635Z</time>
      </trkpt>
      <trkpt lat="48.84851" lon="2.25952">
        <ele>105.3</ele>
        <time>2015-02-02T20:44:07.470Z</time>
      </trkpt>
      <trkpt lat="48.84859" lon="2.25952">
        <ele>105.4</ele>
        <time>2015-02-02T20:44:11.548Z</time>
      </trkpt>
      <trkpt lat="48.84861" lon="2.25952">
        <ele>105.9</ele>
        <time>2015-02-02T20:44:12.462Z</time>
      </trkpt>
      <trkpt lat="48.84869" lon="2.25953">
        <ele>106.1</ele>
        <time>2015-02-02T20:44:15.507Z</time>
      </trkpt>
      <trkpt lat="48.84872" lon="2.25954">
        <ele>105.8</ele>
        <time>2015-02-02T20:44:16.555Z</time>
      </trkpt>
      <trkpt lat="48.84878" lon="2.25956">
        <ele>105.3</ele>
        <time>2015-02-02T20:44:19.501Z</time>
      </trkpt>
      <trkpt lat="48.84881" lon="2.25957">
        <ele>105.2</ele>
        <time>2015-02-02T20:44:20.507Z</time>
      </trkpt>
      <trkpt lat="48.84888" lon="2.2596">
        <ele>105.4</ele>
        <time>2015-02-02T20:44:24.135Z</time>
      </trkpt>
      <trkpt lat="48.8489" lon="2.25961">
        <ele>105.4</ele>
        <time>2015-02-02T20:44:24.459Z</time>
      </trkpt>
      <trkpt lat="48.84898" lon="2.25963">
        <ele>105.4</ele>
        <time>2015-02-02T20:44:27.496Z</time>
      </trkpt>
      <trkpt lat="48.84901" lon="2.25964">
        <ele>105.6</ele>
        <time>2015-02-02T20:44:28.541Z</time>
      </trkpt>
      <trkpt lat="48.84907" lon="2.25965">
        <ele>106.1</ele>
        <time>2015-02-02T20:44:30.471Z</time>
      </trkpt>
      <trkpt lat="48.84911" lon="2.25966">
        <ele>106.4</ele>
        <time>2015-02-02T20:44:31.583Z</time>
      </trkpt>
      <trkpt lat="48.84918" lon="2.25968">
        <ele>106.8</ele>
        <time>2015-02-02T20:44:34.194Z</time>
      </trkpt>
      <trkpt lat="48.84921" lon="2.2597">
        <ele>107.3</ele>
        <time>2015-02-02T20:44:34.508Z</time>
      </trkpt>
      <trkpt lat="48.84929" lon="2.25973">
        <ele>107.6</ele>
        <time>2015-02-02T20:44:36.521Z</time>
      </trkpt>
      <trkpt lat="48.84933" lon="2.25975">
        <ele>107.7</ele>
        <time>2015-02-02T20:44:37.528Z</time>
      </trkpt>
      <trkpt lat="48.84939" lon="2.25979">
        <ele>108.1</ele>
        <time>2015-02-02T20:44:39.429Z</time>
      </trkpt>
      <trkpt lat="48.84941" lon="2.25981">
        <ele>108.2</ele>
        <time>2015-02-02T20:44:40.526Z</time>
      </trkpt>
      <trkpt lat="48.84948" lon="2.25984">
        <ele>108.7</ele>
        <time>2015-02-02T20:44:42.457Z</time>
      </trkpt>
      <trkpt lat="48.84951" lon="2.25985">
        <ele>109.1</ele>
        <time>2015-02-02T20:44:43.460Z</time>
      </trkpt>
      <trkpt lat="48.84957" lon="2.25987">
        <ele>109.8</ele>
        <time>2015-02-02T20:44:45.508Z</time>
      </trkpt>
      <trkpt lat="48.84961" lon="2.25988">
        <ele>110.6</ele>
        <time>2015-02-02T20:44:46.521Z</time>
      </trkpt>
      <trkpt lat="48.84968" lon="2.25993">
        <ele>111</ele>
        <time>2015-02-02T20:44:49.552Z</time>
      </trkpt>
      <trkpt lat="48.84971" lon="2.25995">
        <ele>111.1</ele>
        <time>2015-02-02T20:44:50.575Z</time>
      </trkpt>
      <trkpt lat="48.84976" lon="2.25999">
        <ele>111.5</ele>
        <time>2015-02-02T20:44:53.294Z</time>
      </trkpt>
      <trkpt lat="48.84979" lon="2.26002">
        <ele>111.7</ele>
        <time>2015-02-02T20:44:53.530Z</time>
      </trkpt>
      <trkpt lat="48.84985" lon="2.26007">
        <ele>111.9</ele>
        <time>2015-02-02T20:44:55.577Z</time>
      </trkpt>
      <trkpt lat="48.84987" lon="2.2601">
        <ele>112.1</ele>
        <time>2015-02-02T20:44:56.445Z</time>
      </trkpt>
      <trkpt lat="48.84993" lon="2.26014">
        <ele>112.6</ele>
        <time>2015-02-02T20:44:59.515Z</time>
      </trkpt>
      <trkpt lat="48.84997" lon="2.26017">
        <ele>112.6</ele>
        <time>2015-02-02T20:45:00.531Z</time>
      </trkpt>
      <trkpt lat="48.85004" lon="2.26022">
        <ele>112.7</ele>
        <time>2015-02-02T20:45:03.444Z</time>
      </trkpt>
      <trkpt lat="48.85006" lon="2.26026">
        <ele>112.8</ele>
        <time>2015-02-02T20:45:04.521Z</time>
      </trkpt>
      <trkpt lat="48.85011" lon="2.26031">
        <ele>112.8</ele>
        <time>2015-02-02T20:45:06.441Z</time>
      </trkpt>
      <trkpt lat="48.85013" lon="2.26035">
        <ele>112.8</ele>
        <time>2015-02-02T20:45:07.465Z</time>
      </trkpt>
      <trkpt lat="48.85017" lon="2.26044">
        <ele>112.1</ele>
        <time>2015-02-02T20:45:11.495Z</time>
      </trkpt>
      <trkpt lat="48.85018" lon="2.26046">
        <ele>112</ele>
        <time>2015-02-02T20:45:12.528Z</time>
      </trkpt>
      <trkpt lat="48.8502" lon="2.26058">
        <ele>111.1</ele>
        <time>2015-02-02T20:45:18.371Z</time>
      </trkpt>
      <trkpt lat="48.85021" lon="2.26061">
        <ele>110.9</ele>
        <time>2015-02-02T20:45:18.482Z</time>
      </trkpt>
      <trkpt lat="48.85026" lon="2.26071">
        <ele>110.1</ele>
        <time>2015-02-02T20:45:22.520Z</time>
      </trkpt>
      <trkpt lat="48.85028" lon="2.26074">
        <ele>109.8</ele>
        <time>2015-02-02T20:45:23.540Z</time>
      </trkpt>
      <trkpt lat="48.85031" lon="2.26085">
        <ele>108.5</ele>
        <time>2015-02-02T20:45:26.461Z</time>
      </trkpt>
      <trkpt lat="48.85032" lon="2.2609">
        <ele>107.9</ele>
        <time>2015-02-02T20:45:27.465Z</time>
      </trkpt>
      <trkpt lat="48.85036" lon="2.26099">
        <ele>107.2</ele>
        <time>2015-02-02T20:45:29.528Z</time>
      </trkpt>
      <trkpt lat="48.85038" lon="2.26102">
        <ele>106.8</ele>
        <time>2015-02-02T20:45:30.537Z</time>
      </trkpt>
      <trkpt lat="48.85045" lon="2.26109">
        <ele>103.3</ele>
        <time>2015-02-02T20:45:33.952Z</time>
      </trkpt>
      <trkpt lat="48.85046" lon="2.26113">
        <ele>102.8</ele>
        <time>2015-02-02T20:45:34.516Z</time>
      </trkpt>
      <trkpt lat="48.85051" lon="2.26124">
        <ele>101.7</ele>
        <time>2015-02-02T20:45:38.988Z</time>
      </trkpt>
      <trkpt lat="48.85052" lon="2.26126">
        <ele>101.2</ele>
        <time>2015-02-02T20:45:39.547Z</time>
      </trkpt>
      <trkpt lat="48.85057" lon="2.26137">
        <ele>99.5</ele>
        <time>2015-02-02T20:45:44.103Z</time>
      </trkpt>
      <trkpt lat="48.85059" lon="2.2614">
        <ele>99</ele>
        <time>2015-02-02T20:45:44.478Z</time>
      </trkpt>
      <trkpt lat="48.85065" lon="2.26147">
        <ele>98.3</ele>
        <time>2015-02-02T20:45:46.526Z</time>
      </trkpt>
      <trkpt lat="48.85069" lon="2.2615">
        <ele>98</ele>
        <time>2015-02-02T20:45:47.526Z</time>
      </trkpt>
      <trkpt lat="48.85073" lon="2.26153">
        <ele>97.6</ele>
        <time>2015-02-02T20:45:48.528Z</time>
      </trkpt>
      <trkpt lat="48.85079" lon="2.26155">
        <ele>97.3</ele>
        <time>2015-02-02T20:45:49.456Z</time>
      </trkpt>
      <trkpt lat="48.85085" lon="2.26157">
        <ele>96.9</ele>
        <time>2015-02-02T20:45:50.461Z</time>
      </trkpt>
      <trkpt lat="48.8509" lon="2.2616">
        <ele>96.4</ele>
        <time>2015-02-02T20:45:51.487Z</time>
      </trkpt>
      <trkpt lat="48.85096" lon="2.26162">
        <ele>96.1</ele>
        <time>2015-02-02T20:45:53.246Z</time>
      </trkpt>
      <trkpt lat="48.85103" lon="2.26166">
        <ele>95.3</ele>
        <time>2015-02-02T20:45:53.509Z</time>
      </trkpt>
      <trkpt lat="48.85109" lon="2.26169">
        <ele>94.6</ele>
        <time>2015-02-02T20:45:54.589Z</time>
      </trkpt>
      <trkpt lat="48.85115" lon="2.26172">
        <ele>93.9</ele>
        <time>2015-02-02T20:45:55.458Z</time>
      </trkpt>
      <trkpt lat="48.85122" lon="2.26175">
        <ele>93.6</ele>
        <time>2015-02-02T20:45:56.463Z</time>
      </trkpt>
      <trkpt lat="48.8513" lon="2.26178">
        <ele>93.3</ele>
        <time>2015-02-02T20:45:57.493Z</time>
      </trkpt>
      <trkpt lat="48.85137" lon="2.26181">
        <ele>92.6</ele>
        <time>2015-02-02T20:45:58.514Z</time>
      </trkpt>
      <trkpt lat="48.85144" lon="2.26184">
        <ele>92.1</ele>
        <time>2015-02-02T20:45:59.523Z</time>
      </trkpt>
      <trkpt lat="48.8515" lon="2.26186">
        <ele>91.6</ele>
        <time>2015-02-02T20:46:00.543Z</time>
      </trkpt>
      <trkpt lat="48.85157" lon="2.26188">
        <ele>91.2</ele>
        <time>2015-02-02T20:46:01.553Z</time>
      </trkpt>
      <trkpt lat="48.85163" lon="2.26189">
        <ele>91.1</ele>
        <time>2015-02-02T20:46:03.366Z</time>
      </trkpt>
      <trkpt lat="48.85168" lon="2.2619">
        <ele>91.3</ele>
        <time>2015-02-02T20:46:03.473Z</time>
      </trkpt>
      <trkpt lat="48.85174" lon="2.26191">
        <ele>91.4</ele>
        <time>2015-02-02T20:46:04.519Z</time>
      </trkpt>
      <trkpt lat="48.8518" lon="2.26193">
        <ele>91.4</ele>
        <time>2015-02-02T20:46:05.528Z</time>
      </trkpt>
      <trkpt lat="48.85188" lon="2.26194">
        <ele>89.7</ele>
        <time>2015-02-02T20:46:06.534Z</time>
      </trkpt>
      <trkpt lat="48.85198" lon="2.26195">
        <ele>88.2</ele>
        <time>2015-02-02T20:46:07.550Z</time>
      </trkpt>
      <trkpt lat="48.85206" lon="2.26194">
        <ele>89.2</ele>
        <time>2015-02-02T20:46:08.547Z</time>
      </trkpt>
      <trkpt lat="48.85213" lon="2.26195">
        <ele>90.3</ele>
        <time>2015-02-02T20:46:09.465Z</time>
      </trkpt>
      <trkpt lat="48.85219" lon="2.26194">
        <ele>91.6</ele>
        <time>2015-02-02T20:46:10.489Z</time>
      </trkpt>
      <trkpt lat="48.85224" lon="2.26195">
        <ele>93</ele>
        <time>2015-02-02T20:46:11.498Z</time>
      </trkpt>
      <trkpt lat="48.85232" lon="2.26192">
        <ele>95.5</ele>
        <time>2015-02-02T20:46:12.447Z</time>
      </trkpt>
      <trkpt lat="48.85235" lon="2.26192">
        <ele>96.4</ele>
        <time>2015-02-02T20:46:13.473Z</time>
      </trkpt>
      <trkpt lat="48.85242" lon="2.26191">
        <ele>98.7</ele>
        <time>2015-02-02T20:46:15.509Z</time>
      </trkpt>
      <trkpt lat="48.85245" lon="2.26191">
        <ele>99.7</ele>
        <time>2015-02-02T20:46:16.568Z</time>
      </trkpt>
      <trkpt lat="48.85253" lon="2.26191">
        <ele>104.9</ele>
        <time>2015-02-02T20:46:24.521Z</time>
      </trkpt>
      <trkpt lat="48.85255" lon="2.26191">
        <ele>105.3</ele>
        <time>2015-02-02T20:46:25.544Z</time>
      </trkpt>
      <trkpt lat="48.85258" lon="2.26192">
        <ele>105.7</ele>
        <time>2015-02-02T20:46:28.644Z</time>
      </trkpt>
      <trkpt lat="48.85258" lon="2.26191">
        <ele>106</ele>
        <time>2015-02-02T20:46:29.587Z</time>
      </trkpt>
      <trkpt lat="48.8526" lon="2.26191">
        <ele>106.8</ele>
        <time>2015-02-02T20:46:33.667Z</time>
      </trkpt>
      <trkpt lat="48.85262" lon="2.26195">
        <ele>107.7</ele>
        <time>2015-02-02T20:46:34.609Z</time>
      </trkpt>
      <trkpt lat="48.85262" lon="2.26207">
        <ele>112.4</ele>
        <time>2015-02-02T20:46:40.715Z</time>
      </trkpt>
      <trkpt lat="48.85263" lon="2.2621">
        <ele>113.2</ele>
        <time>2015-02-02T20:46:40.759Z</time>
      </trkpt>
      <trkpt lat="48.85267" lon="2.26221">
        <ele>114.3</ele>
        <time>2015-02-02T20:46:43.749Z</time>
      </trkpt>
      <trkpt lat="48.85267" lon="2.26223">
        <ele>114.3</ele>
        <time>2015-02-02T20:46:44.580Z</time>
      </trkpt>
      <trkpt lat="48.85265" lon="2.26236">
        <ele>112.4</ele>
        <time>2015-02-02T20:46:48.471Z</time>
      </trkpt>
      <trkpt lat="48.85263" lon="2.26239">
        <ele>111.9</ele>
        <time>2015-02-02T20:46:49.477Z</time>
      </trkpt>
      <trkpt lat="48.85259" lon="2.26247">
        <ele>110</ele>
        <time>2015-02-02T20:46:51.550Z</time>
      </trkpt>
      <trkpt lat="48.85256" lon="2.2625">
        <ele>109.4</ele>
        <time>2015-02-02T20:46:52.565Z</time>
      </trkpt>
      <trkpt lat="48.85251" lon="2.26257">
        <ele>108.3</ele>
        <time>2015-02-02T20:46:54.468Z</time>
      </trkpt>
      <trkpt lat="48.85249" lon="2.26262">
        <ele>108</ele>
        <time>2015-02-02T20:46:55.503Z</time>
      </trkpt>
      <trkpt lat="48.85246" lon="2.26273">
        <ele>107.1</ele>
        <time>2015-02-02T20:46:58.384Z</time>
      </trkpt>
      <trkpt lat="48.85245" lon="2.26279">
        <ele>106.8</ele>
        <time>2015-02-02T20:46:58.539Z</time>
      </trkpt>
      <trkpt lat="48.85242" lon="2.26291">
        <ele>106.2</ele>
        <time>2015-02-02T20:47:00.435Z</time>
      </trkpt>
      <trkpt lat="48.85241" lon="2.26297">
        <ele>106.1</ele>
        <time>2015-02-02T20:47:01.501Z</time>
      </trkpt>
      <trkpt lat="48.85238" lon="2.26309">
        <ele>106.2</ele>
        <time>2015-02-02T20:47:03.528Z</time>
      </trkpt>
      <trkpt lat="48.85236" lon="2.26314">
        <ele>106.1</ele>
        <time>2015-02-02T20:47:04.566Z</time>
      </trkpt>
      <trkpt lat="48.85233" lon="2.2632">
        <ele>106.1</ele>
        <time>2015-02-02T20:47:05.451Z</time>
      </trkpt>
      <trkpt lat="48.8523" lon="2.26326">
        <ele>106.2</ele>
        <time>2015-02-02T20:47:06.464Z</time>
      </trkpt>
      <trkpt lat="48.85226" lon="2.26331">
        <ele>106.1</ele>
        <time>2015-02-02T20:47:08.452Z</time>
      </trkpt>
      <trkpt lat="48.85222" lon="2.26336">
        <ele>106.1</ele>
        <time>2015-02-02T20:47:08.486Z</time>
      </trkpt>
      <trkpt lat="48.85218" lon="2.2634">
        <ele>106.1</ele>
        <time>2015-02-02T20:47:09.497Z</time>
      </trkpt>
      <trkpt lat="48.8521" lon="2.26353">
        <ele>106.2</ele>
        <time>2015-02-02T20:47:12.540Z</time>
      </trkpt>
      <trkpt lat="48.85206" lon="2.26358">
        <ele>106.3</ele>
        <time>2015-02-02T20:47:13.450Z</time>
      </trkpt>
      <trkpt lat="48.85202" lon="2.26363">
        <ele>106.3</ele>
        <time>2015-02-02T20:47:14.453Z</time>
      </trkpt>
      <trkpt lat="48.85197" lon="2.26372">
        <ele>106.4</ele>
        <time>2015-02-02T20:47:16.480Z</time>
      </trkpt>
      <trkpt lat="48.85195" lon="2.26376">
        <ele>106.5</ele>
        <time>2015-02-02T20:47:17.502Z</time>
      </trkpt>
      <trkpt lat="48.85191" lon="2.26383">
        <ele>106.7</ele>
        <time>2015-02-02T20:47:19.523Z</time>
      </trkpt>
      <trkpt lat="48.8519" lon="2.26388">
        <ele>106.8</ele>
        <time>2015-02-02T20:47:20.434Z</time>
      </trkpt>
      <trkpt lat="48.85185" lon="2.26395">
        <ele>106.9</ele>
        <time>2015-02-02T20:47:22.468Z</time>
      </trkpt>
      <trkpt lat="48.85183" lon="2.26401">
        <ele>106.3</ele>
        <time>2015-02-02T20:47:23.578Z</time>
      </trkpt>
      <trkpt lat="48.85178" lon="2.2641">
        <ele>106.2</ele>
        <time>2015-02-02T20:47:25.481Z</time>
      </trkpt>
      <trkpt lat="48.85175" lon="2.26415">
        <ele>106.2</ele>
        <time>2015-02-02T20:47:26.572Z</time>
      </trkpt>
      <trkpt lat="48.85173" lon="2.2642">
        <ele>106.1</ele>
        <time>2015-02-02T20:47:27.453Z</time>
      </trkpt>
      <trkpt lat="48.8517" lon="2.26425">
        <ele>106.2</ele>
        <time>2015-02-02T20:47:28.484Z</time>
      </trkpt>
      <trkpt lat="48.85166" lon="2.26431">
        <ele>106.3</ele>
        <time>2015-02-02T20:47:29.581Z</time>
      </trkpt>
      <trkpt lat="48.85163" lon="2.26435">
        <ele>106.5</ele>
        <time>2015-02-02T20:47:30.590Z</time>
      </trkpt>
      <trkpt lat="48.85159" lon="2.2644">
        <ele>106.8</ele>
        <time>2015-02-02T20:47:31.444Z</time>
      </trkpt>
      <trkpt lat="48.85156" lon="2.26447">
        <ele>107.3</ele>
        <time>2015-02-02T20:47:32.449Z</time>
      </trkpt>
      <trkpt lat="48.85154" lon="2.26454">
        <ele>107.8</ele>
        <time>2015-02-02T20:47:33.452Z</time>
      </trkpt>
      <trkpt lat="48.85151" lon="2.26461">
        <ele>108.3</ele>
        <time>2015-02-02T20:47:34.491Z</time>
      </trkpt>
      <trkpt lat="48.85148" lon="2.26466">
        <ele>108.4</ele>
        <time>2015-02-02T20:47:35.490Z</time>
      </trkpt>
      <trkpt lat="48.85145" lon="2.26472">
        <ele>108.5</ele>
        <time>2015-02-02T20:47:36.499Z</time>
      </trkpt>
      <trkpt lat="48.85142" lon="2.26479">
        <ele>108.6</ele>
        <time>2015-02-02T20:47:37.525Z</time>
      </trkpt>
      <trkpt lat="48.85139" lon="2.26484">
        <ele>108.7</ele>
        <time>2015-02-02T20:47:38.426Z</time>
      </trkpt>
      <trkpt lat="48.85135" lon="2.26493">
        <ele>108.9</ele>
        <time>2015-02-02T20:47:40.429Z</time>
      </trkpt>
      <trkpt lat="48.85133" lon="2.26496">
        <ele>108.7</ele>
        <time>2015-02-02T20:47:41.444Z</time>
      </trkpt>
      <trkpt lat="48.85128" lon="2.26501">
        <ele>108.8</ele>
        <time>2015-02-02T20:47:43.470Z</time>
      </trkpt>
      <trkpt lat="48.85124" lon="2.26503">
        <ele>108.9</ele>
        <time>2015-02-02T20:47:44.510Z</time>
      </trkpt>
      <trkpt lat="48.8512" lon="2.26507">
        <ele>109</ele>
        <time>2015-02-02T20:47:45.473Z</time>
      </trkpt>
      <trkpt lat="48.85115" lon="2.26511">
        <ele>108.9</ele>
        <time>2015-02-02T20:47:46.462Z</time>
      </trkpt>
      <trkpt lat="48.85104" lon="2.2652">
        <ele>109.1</ele>
        <time>2015-02-02T20:47:48.552Z</time>
      </trkpt>
      <trkpt lat="48.85099" lon="2.26526">
        <ele>109.3</ele>
        <time>2015-02-02T20:47:49.427Z</time>
      </trkpt>
      <trkpt lat="48.85095" lon="2.26531">
        <ele>109.4</ele>
        <time>2015-02-02T20:47:50.435Z</time>
      </trkpt>
      <trkpt lat="48.85091" lon="2.26534">
        <ele>109.5</ele>
        <time>2015-02-02T20:47:51.441Z</time>
      </trkpt>
      <trkpt lat="48.85087" lon="2.26538">
        <ele>109.6</ele>
        <time>2015-02-02T20:47:52.457Z</time>
      </trkpt>
      <trkpt lat="48.85082" lon="2.26543">
        <ele>109.7</ele>
        <time>2015-02-02T20:47:53.470Z</time>
      </trkpt>
      <trkpt lat="48.85077" lon="2.26547">
        <ele>109.8</ele>
        <time>2015-02-02T20:47:54.485Z</time>
      </trkpt>
      <trkpt lat="48.85073" lon="2.26554">
        <ele>110</ele>
        <time>2015-02-02T20:47:55.519Z</time>
      </trkpt>
      <trkpt lat="48.85067" lon="2.26558">
        <ele>110.1</ele>
        <time>2015-02-02T20:47:56.522Z</time>
      </trkpt>
      <trkpt lat="48.85063" lon="2.26561">
        <ele>110.1</ele>
        <time>2015-02-02T20:47:57.431Z</time>
      </trkpt>
      <trkpt lat="48.85058" lon="2.26564">
        <ele>110.1</ele>
        <time>2015-02-02T20:47:58.453Z</time>
      </trkpt>
      <trkpt lat="48.85051" lon="2.2657">
        <ele>110.1</ele>
        <time>2015-02-02T20:48:00.477Z</time>
      </trkpt>
      <trkpt lat="48.85047" lon="2.26572">
        <ele>110.1</ele>
        <time>2015-02-02T20:48:01.482Z</time>
      </trkpt>
      <trkpt lat="48.85033" lon="2.26572">
        <ele>109.6</ele>
        <time>2015-02-02T20:48:03.530Z</time>
      </trkpt>
      <trkpt lat="48.85027" lon="2.2657">
        <ele>109.4</ele>
        <time>2015-02-02T20:48:04.476Z</time>
      </trkpt>
      <trkpt lat="48.85021" lon="2.2657">
        <ele>109.5</ele>
        <time>2015-02-02T20:48:05.469Z</time>
      </trkpt>
      <trkpt lat="48.85014" lon="2.26569">
        <ele>109.5</ele>
        <time>2015-02-02T20:48:06.479Z</time>
      </trkpt>
      <trkpt lat="48.85009" lon="2.2657">
        <ele>109.4</ele>
        <time>2015-02-02T20:48:07.532Z</time>
      </trkpt>
      <trkpt lat="48.85003" lon="2.26569">
        <ele>109.3</ele>
        <time>2015-02-02T20:48:08.433Z</time>
      </trkpt>
      <trkpt lat="48.84997" lon="2.26568">
        <ele>109.3</ele>
        <time>2015-02-02T20:48:09.430Z</time>
      </trkpt>
      <trkpt lat="48.84991" lon="2.26567">
        <ele>109.2</ele>
        <time>2015-02-02T20:48:10.457Z</time>
      </trkpt>
      <trkpt lat="48.84985" lon="2.26565">
        <ele>109.1</ele>
        <time>2015-02-02T20:48:11.481Z</time>
      </trkpt>
      <trkpt lat="48.8498" lon="2.26561">
        <ele>108.9</ele>
        <time>2015-02-02T20:48:12.481Z</time>
      </trkpt>
      <trkpt lat="48.8497" lon="2.26558">
        <ele>108.9</ele>
        <time>2015-02-02T20:48:14.408Z</time>
      </trkpt>
      <trkpt lat="48.84965" lon="2.26555">
        <ele>108.8</ele>
        <time>2015-02-02T20:48:15.454Z</time>
      </trkpt>
      <trkpt lat="48.84959" lon="2.26552">
        <ele>108.4</ele>
        <time>2015-02-02T20:48:16.457Z</time>
      </trkpt>
      <trkpt lat="48.84951" lon="2.26546">
        <ele>108.3</ele>
        <time>2015-02-02T20:48:18.531Z</time>
      </trkpt>
      <trkpt lat="48.84947" lon="2.26543">
        <ele>108.2</ele>
        <time>2015-02-02T20:48:19.441Z</time>
      </trkpt>
      <trkpt lat="48.84944" lon="2.26539">
        <ele>108.2</ele>
        <time>2015-02-02T20:48:20.474Z</time>
      </trkpt>
      <trkpt lat="48.8494" lon="2.26534">
        <ele>108.1</ele>
        <time>2015-02-02T20:48:21.475Z</time>
      </trkpt>
      <trkpt lat="48.84936" lon="2.26529">
        <ele>108.1</ele>
        <time>2015-02-02T20:48:22.487Z</time>
      </trkpt>
      <trkpt lat="48.84933" lon="2.26525">
        <ele>108</ele>
        <time>2015-02-02T20:48:23.574Z</time>
      </trkpt>
      <trkpt lat="48.84928" lon="2.26521">
        <ele>107.9</ele>
        <time>2015-02-02T20:48:24.441Z</time>
      </trkpt>
      <trkpt lat="48.84924" lon="2.26517">
        <ele>107.9</ele>
        <time>2015-02-02T20:48:25.457Z</time>
      </trkpt>
      <trkpt lat="48.84917" lon="2.26512">
        <ele>107.9</ele>
        <time>2015-02-02T20:48:27.399Z</time>
      </trkpt>
      <trkpt lat="48.84914" lon="2.2651">
        <ele>107.8</ele>
        <time>2015-02-02T20:48:28.451Z</time>
      </trkpt>
      <trkpt lat="48.84911" lon="2.26508">
        <ele>107.8</ele>
        <time>2015-02-02T20:48:29.453Z</time>
      </trkpt>
      <trkpt lat="48.84905" lon="2.26504">
        <ele>107.9</ele>
        <time>2015-02-02T20:48:31.464Z</time>
      </trkpt>
      <trkpt lat="48.84899" lon="2.26508">
        <ele>108.1</ele>
        <time>2015-02-02T20:48:33.504Z</time>
      </trkpt>
      <trkpt lat="48.84896" lon="2.26509">
        <ele>108.2</ele>
        <time>2015-02-02T20:48:34.530Z</time>
      </trkpt>
      <trkpt lat="48.84888" lon="2.26506">
        <ele>108</ele>
        <time>2015-02-02T20:48:38.459Z</time>
      </trkpt>
      <trkpt lat="48.84887" lon="2.26503">
        <ele>107.9</ele>
        <time>2015-02-02T20:48:39.488Z</time>
      </trkpt>
      <trkpt lat="48.84885" lon="2.26492">
        <ele>108</ele>
        <time>2015-02-02T20:48:43.460Z</time>
      </trkpt>
      <trkpt lat="48.84885" lon="2.26488">
        <ele>108</ele>
        <time>2015-02-02T20:48:44.489Z</time>
      </trkpt>
      <trkpt lat="48.8488" lon="2.26476">
        <ele>107.7</ele>
        <time>2015-02-02T20:48:49.621Z</time>
      </trkpt>
      <trkpt lat="48.84879" lon="2.26476">
        <ele>107.6</ele>
        <time>2015-02-02T20:48:50.446Z</time>
      </trkpt>
      <trkpt lat="48.84871" lon="2.26474">
        <ele>107.3</ele>
        <time>2015-02-02T20:48:55.475Z</time>
      </trkpt>
      <trkpt lat="48.84866" lon="2.26473">
        <ele>106.7</ele>
        <time>2015-02-02T20:48:56.486Z</time>
      </trkpt>
      <trkpt lat="48.84858" lon="2.26475">
        <ele>105.9</ele>
        <time>2015-02-02T20:48:58.546Z</time>
      </trkpt>
      <trkpt lat="48.84855" lon="2.26474">
        <ele>105.4</ele>
        <time>2015-02-02T20:48:59.533Z</time>
      </trkpt>
      <trkpt lat="48.84848" lon="2.26474">
        <ele>104.7</ele>
        <time>2015-02-02T20:49:01.550Z</time>
      </trkpt>
      <trkpt lat="48.84845" lon="2.26475">
        <ele>104.5</ele>
        <time>2015-02-02T20:49:02.452Z</time>
      </trkpt>
      <trkpt lat="48.84838" lon="2.26474">
        <ele>104</ele>
        <time>2015-02-02T20:49:06.533Z</time>
      </trkpt>
      <trkpt lat="48.84836" lon="2.26474">
        <ele>103.8</ele>
        <time>2015-02-02T20:49:07.458Z</time>
      </trkpt>
      <trkpt lat="48.84827" lon="2.26472">
        <ele>102.2</ele>
        <time>2015-02-02T20:49:11.534Z</time>
      </trkpt>
      <trkpt lat="48.84826" lon="2.26471">
        <ele>102.1</ele>
        <time>2015-02-02T20:49:12.423Z</time>
      </trkpt>
      <trkpt lat="48.84818" lon="2.26465">
        <ele>103.3</ele>
        <time>2015-02-02T20:49:17.526Z</time>
      </trkpt>
      <trkpt lat="48.84816" lon="2.26463">
        <ele>103.6</ele>
        <time>2015-02-02T20:49:18.460Z</time>
      </trkpt>
      <trkpt lat="48.84813" lon="2.26453">
        <ele>105.5</ele>
        <time>2015-02-02T20:49:22.519Z</time>
      </trkpt>
      <trkpt lat="48.84811" lon="2.26449">
        <ele>106</ele>
        <time>2015-02-02T20:49:23.488Z</time>
      </trkpt>
      <trkpt lat="48.84807" lon="2.2644">
        <ele>108.5</ele>
        <time>2015-02-02T20:49:26.538Z</time>
      </trkpt>
      <trkpt lat="48.84805" lon="2.26436">
        <ele>108.9</ele>
        <time>2015-02-02T20:49:27.511Z</time>
      </trkpt>
      <trkpt lat="48.84799" lon="2.26429">
        <ele>110.8</ele>
        <time>2015-02-02T20:49:31.533Z</time>
      </trkpt>
      <trkpt lat="48.84798" lon="2.26427">
        <ele>110.9</ele>
        <time>2015-02-02T20:49:32.462Z</time>
      </trkpt>
      <trkpt lat="48.84795" lon="2.26416">
        <ele>108.6</ele>
        <time>2015-02-02T20:49:42.449Z</time>
      </trkpt>
      <trkpt lat="48.84794" lon="2.26414">
        <ele>108.3</ele>
        <time>2015-02-02T20:49:43.460Z</time>
      </trkpt>
      <trkpt lat="48.84787" lon="2.2641">
        <ele>107.3</ele>
        <time>2015-02-02T20:49:47.536Z</time>
      </trkpt>
      <trkpt lat="48.84785" lon="2.26408">
        <ele>107.1</ele>
        <time>2015-02-02T20:49:48.467Z</time>
      </trkpt>
      <trkpt lat="48.84779" lon="2.26402">
        <ele>106.9</ele>
        <time>2015-02-02T20:49:51.461Z</time>
      </trkpt>
      <trkpt lat="48.84775" lon="2.264">
        <ele>106.4</ele>
        <time>2015-02-02T20:49:52.498Z</time>
      </trkpt>
      <trkpt lat="48.84769" lon="2.26398">
        <ele>105.6</ele>
        <time>2015-02-02T20:49:53.518Z</time>
      </trkpt>
      <trkpt lat="48.84763" lon="2.26396">
        <ele>104.9</ele>
        <time>2015-02-02T20:49:54.527Z</time>
      </trkpt>
      <trkpt lat="48.84758" lon="2.26395">
        <ele>104.3</ele>
        <time>2015-02-02T20:49:55.422Z</time>
      </trkpt>
      <trkpt lat="48.84752" lon="2.26393">
        <ele>103.4</ele>
        <time>2015-02-02T20:49:56.443Z</time>
      </trkpt>
      <trkpt lat="48.84748" lon="2.26392">
        <ele>103.2</ele>
        <time>2015-02-02T20:49:57.453Z</time>
      </trkpt>
      <trkpt lat="48.84743" lon="2.26392">
        <ele>102.7</ele>
        <time>2015-02-02T20:49:58.474Z</time>
      </trkpt>
      <trkpt lat="48.84737" lon="2.26391">
        <ele>102.1</ele>
        <time>2015-02-02T20:49:59.481Z</time>
      </trkpt>
      <trkpt lat="48.84732" lon="2.26388">
        <ele>101.7</ele>
        <time>2015-02-02T20:50:00.516Z</time>
      </trkpt>
      <trkpt lat="48.84726" lon="2.26386">
        <ele>101.3</ele>
        <time>2015-02-02T20:50:01.499Z</time>
      </trkpt>
      <trkpt lat="48.84722" lon="2.26383">
        <ele>100.8</ele>
        <time>2015-02-02T20:50:02.503Z</time>
      </trkpt>
      <trkpt lat="48.84717" lon="2.26379">
        <ele>100.4</ele>
        <time>2015-02-02T20:50:03.508Z</time>
      </trkpt>
      <trkpt lat="48.84712" lon="2.26375">
        <ele>100</ele>
        <time>2015-02-02T20:50:04.513Z</time>
      </trkpt>
      <trkpt lat="48.84707" lon="2.26372">
        <ele>99.5</ele>
        <time>2015-02-02T20:50:05.531Z</time>
      </trkpt>
      <trkpt lat="48.84702" lon="2.2637">
        <ele>99.1</ele>
        <time>2015-02-02T20:50:06.435Z</time>
      </trkpt>
      <trkpt lat="48.84698" lon="2.26367">
        <ele>98.8</ele>
        <time>2015-02-02T20:50:07.436Z</time>
      </trkpt>
      <trkpt lat="48.84694" lon="2.26364">
        <ele>98.7</ele>
        <time>2015-02-02T20:50:08.437Z</time>
      </trkpt>
      <trkpt lat="48.84689" lon="2.26361">
        <ele>98.5</ele>
        <time>2015-02-02T20:50:09.451Z</time>
      </trkpt>
      <trkpt lat="48.84684" lon="2.26356">
        <ele>98.2</ele>
        <time>2015-02-02T20:50:10.459Z</time>
      </trkpt>
      <trkpt lat="48.84679" lon="2.26353">
        <ele>97.9</ele>
        <time>2015-02-02T20:50:11.483Z</time>
      </trkpt>
      <trkpt lat="48.84675" lon="2.26349">
        <ele>97.6</ele>
        <time>2015-02-02T20:50:12.489Z</time>
      </trkpt>
      <trkpt lat="48.84671" lon="2.26343">
        <ele>97.3</ele>
        <time>2015-02-02T20:50:13.496Z</time>
      </trkpt>
      <trkpt lat="48.84664" lon="2.26337">
        <ele>96.9</ele>
        <time>2015-02-02T20:50:14.503Z</time>
      </trkpt>
      <trkpt lat="48.8466" lon="2.26334">
        <ele>96.8</ele>
        <time>2015-02-02T20:50:15.425Z</time>
      </trkpt>
      <trkpt lat="48.84654" lon="2.26333">
        <ele>96.7</ele>
        <time>2015-02-02T20:50:16.578Z</time>
      </trkpt>
      <trkpt lat="48.84646" lon="2.26329">
        <ele>96.5</ele>
        <time>2015-02-02T20:50:18.457Z</time>
      </trkpt>
      <trkpt lat="48.84642" lon="2.26327">
        <ele>96.3</ele>
        <time>2015-02-02T20:50:19.477Z</time>
      </trkpt>
      <trkpt lat="48.84633" lon="2.26322">
        <ele>96.1</ele>
        <time>2015-02-02T20:50:21.431Z</time>
      </trkpt>
      <trkpt lat="48.84626" lon="2.26323">
        <ele>96.4</ele>
        <time>2015-02-02T20:50:22.491Z</time>
      </trkpt>
      <trkpt lat="48.84621" lon="2.26322">
        <ele>96.4</ele>
        <time>2015-02-02T20:50:23.429Z</time>
      </trkpt>
      <trkpt lat="48.84616" lon="2.26315">
        <ele>96.3</ele>
        <time>2015-02-02T20:50:24.436Z</time>
      </trkpt>
      <trkpt lat="48.8461" lon="2.26306">
        <ele>96.2</ele>
        <time>2015-02-02T20:50:25.500Z</time>
      </trkpt>
      <trkpt lat="48.84603" lon="2.26292">
        <ele>95.9</ele>
        <time>2015-02-02T20:50:26.521Z</time>
      </trkpt>
      <trkpt lat="48.84597" lon="2.26283">
        <ele>95.7</ele>
        <time>2015-02-02T20:50:28.031Z</time>
      </trkpt>
      <trkpt lat="48.84591" lon="2.26273">
        <ele>95.7</ele>
        <time>2015-02-02T20:50:28.475Z</time>
      </trkpt>
      <trkpt lat="48.84585" lon="2.26265">
        <ele>95.7</ele>
        <time>2015-02-02T20:50:29.487Z</time>
      </trkpt>
      <trkpt lat="48.84581" lon="2.26258">
        <ele>95.9</ele>
        <time>2015-02-02T20:50:30.443Z</time>
      </trkpt>
      <trkpt lat="48.84576" lon="2.26253">
        <ele>96.1</ele>
        <time>2015-02-02T20:50:31.469Z</time>
      </trkpt>
      <trkpt lat="48.84571" lon="2.26246">
        <ele>96.5</ele>
        <time>2015-02-02T20:50:32.469Z</time>
      </trkpt>
      <trkpt lat="48.84566" lon="2.26242">
        <ele>96.9</ele>
        <time>2015-02-02T20:50:33.487Z</time>
      </trkpt>
      <trkpt lat="48.84562" lon="2.26239">
        <ele>97.1</ele>
        <time>2015-02-02T20:50:34.494Z</time>
      </trkpt>
      <trkpt lat="48.84557" lon="2.26235">
        <ele>98.3</ele>
        <time>2015-02-02T20:50:35.551Z</time>
      </trkpt>
      <trkpt lat="48.84552" lon="2.26231">
        <ele>98.7</ele>
        <time>2015-02-02T20:50:36.646Z</time>
      </trkpt>
      <trkpt lat="48.84545" lon="2.26223">
        <ele>99.8</ele>
        <time>2015-02-02T20:50:38.535Z</time>
      </trkpt>
      <trkpt lat="48.84542" lon="2.26219">
        <ele>99.9</ele>
        <time>2015-02-02T20:50:39.577Z</time>
      </trkpt>
      <trkpt lat="48.84536" lon="2.2621">
        <ele>100.3</ele>
        <time>2015-02-02T20:50:41.431Z</time>
      </trkpt>
      <trkpt lat="48.84533" lon="2.26207">
        <ele>100.3</ele>
        <time>2015-02-02T20:50:42.466Z</time>
      </trkpt>
      <trkpt lat="48.84529" lon="2.26203">
        <ele>100.4</ele>
        <time>2015-02-02T20:50:43.466Z</time>
      </trkpt>
      <trkpt lat="48.84525" lon="2.26198">
        <ele>101.4</ele>
        <time>2015-02-02T20:50:44.471Z</time>
      </trkpt>
      <trkpt lat="48.84519" lon="2.26188">
        <ele>103.6</ele>
        <time>2015-02-02T20:50:47.498Z</time>
      </trkpt>
      <trkpt lat="48.84518" lon="2.26186">
        <ele>104</ele>
        <time>2015-02-02T20:50:48.581Z</time>
      </trkpt>
      <trkpt lat="48.84509" lon="2.26183">
        <ele>103.3</ele>
        <time>2015-02-02T20:50:52.485Z</time>
      </trkpt>
      <trkpt lat="48.84507" lon="2.26182">
        <ele>103.1</ele>
        <time>2015-02-02T20:50:53.490Z</time>
      </trkpt>
      <trkpt lat="48.84499" lon="2.26178">
        <ele>102.8</ele>
        <time>2015-02-02T20:50:56.443Z</time>
      </trkpt>
      <trkpt lat="48.84496" lon="2.26177">
        <ele>102.8</ele>
        <time>2015-02-02T20:50:57.446Z</time>
      </trkpt>
      <trkpt lat="48.84488" lon="2.26174">
        <ele>103</ele>
        <time>2015-02-02T20:51:00.527Z</time>
      </trkpt>
      <trkpt lat="48.84485" lon="2.26171">
        <ele>102.9</ele>
        <time>2015-02-02T20:51:01.443Z</time>
      </trkpt>
      <trkpt lat="48.84478" lon="2.26168">
        <ele>102.6</ele>
        <time>2015-02-02T20:51:03.459Z</time>
      </trkpt>
      <trkpt lat="48.84475" lon="2.26166">
        <ele>102.5</ele>
        <time>2015-02-02T20:51:04.529Z</time>
      </trkpt>
      <trkpt lat="48.84466" lon="2.26162">
        <ele>102.2</ele>
        <time>2015-02-02T20:51:06.420Z</time>
      </trkpt>
      <trkpt lat="48.84462" lon="2.2616">
        <ele>102.1</ele>
        <time>2015-02-02T20:51:07.516Z</time>
      </trkpt>
      <trkpt lat="48.84457" lon="2.26158">
        <ele>102</ele>
        <time>2015-02-02T20:51:08.428Z</time>
      </trkpt>
      <trkpt lat="48.84452" lon="2.26155">
        <ele>101.7</ele>
        <time>2015-02-02T20:51:09.431Z</time>
      </trkpt>
      <trkpt lat="48.84448" lon="2.26153">
        <ele>101.6</ele>
        <time>2015-02-02T20:51:10.453Z</time>
      </trkpt>
      <trkpt lat="48.84443" lon="2.26151">
        <ele>101.5</ele>
        <time>2015-02-02T20:51:11.462Z</time>
      </trkpt>
      <trkpt lat="48.84438" lon="2.26148">
        <ele>101.2</ele>
        <time>2015-02-02T20:51:12.472Z</time>
      </trkpt>
      <trkpt lat="48.84432" lon="2.26145">
        <ele>100.9</ele>
        <time>2015-02-02T20:51:13.470Z</time>
      </trkpt>
      <trkpt lat="48.84427" lon="2.26141">
        <ele>100.6</ele>
        <time>2015-02-02T20:51:14.490Z</time>
      </trkpt>
      <trkpt lat="48.84422" lon="2.26133">
        <ele>100.1</ele>
        <time>2015-02-02T20:51:15.499Z</time>
      </trkpt>
      <trkpt lat="48.84417" lon="2.26125">
        <ele>99.8</ele>
        <time>2015-02-02T20:51:16.508Z</time>
      </trkpt>
      <trkpt lat="48.84413" lon="2.26116">
        <ele>99.9</ele>
        <time>2015-02-02T20:51:17.517Z</time>
      </trkpt>
      <trkpt lat="48.84408" lon="2.26107">
        <ele>100.6</ele>
        <time>2015-02-02T20:51:18.411Z</time>
      </trkpt>
      <trkpt lat="48.84405" lon="2.261">
        <ele>100.5</ele>
        <time>2015-02-02T20:51:19.429Z</time>
      </trkpt>
      <trkpt lat="48.84401" lon="2.26093">
        <ele>100.7</ele>
        <time>2015-02-02T20:51:20.273Z</time>
      </trkpt>
      <trkpt lat="48.84397" lon="2.26087">
        <ele>101</ele>
        <time>2015-02-02T20:51:21.457Z</time>
      </trkpt>
      <trkpt lat="48.84393" lon="2.26083">
        <ele>101.2</ele>
        <time>2015-02-02T20:51:22.472Z</time>
      </trkpt>
      <trkpt lat="48.84388" lon="2.26078">
        <ele>101.4</ele>
        <time>2015-02-02T20:51:23.475Z</time>
      </trkpt>
      <trkpt lat="48.84384" lon="2.26072">
        <ele>101.7</ele>
        <time>2015-02-02T20:51:24.485Z</time>
      </trkpt>
      <trkpt lat="48.8438" lon="2.26068">
        <ele>101.7</ele>
        <time>2015-02-02T20:51:25.493Z</time>
      </trkpt>
      <trkpt lat="48.84376" lon="2.26064">
        <ele>101.7</ele>
        <time>2015-02-02T20:51:26.497Z</time>
      </trkpt>
      <trkpt lat="48.84371" lon="2.2606">
        <ele>101.7</ele>
        <time>2015-02-02T20:51:27.500Z</time>
      </trkpt>
      <trkpt lat="48.84365" lon="2.26056">
        <ele>101.6</ele>
        <time>2015-02-02T20:51:28.523Z</time>
      </trkpt>
      <trkpt lat="48.8436" lon="2.26053">
        <ele>101.6</ele>
        <time>2015-02-02T20:51:29.434Z</time>
      </trkpt>
      <trkpt lat="48.84354" lon="2.26049">
        <ele>101.4</ele>
        <time>2015-02-02T20:51:30.434Z</time>
      </trkpt>
      <trkpt lat="48.84349" lon="2.26045">
        <ele>101.3</ele>
        <time>2015-02-02T20:51:31.440Z</time>
      </trkpt>
      <trkpt lat="48.84345" lon="2.26041">
        <ele>101.2</ele>
        <time>2015-02-02T20:51:32.458Z</time>
      </trkpt>
      <trkpt lat="48.8434" lon="2.26039">
        <ele>101.1</ele>
        <time>2015-02-02T20:51:33.465Z</time>
      </trkpt>
      <trkpt lat="48.84332" lon="2.26035">
        <ele>100.8</ele>
        <time>2015-02-02T20:51:35.534Z</time>
      </trkpt>
      <trkpt lat="48.84329" lon="2.26032">
        <ele>100.8</ele>
        <time>2015-02-02T20:51:36.436Z</time>
      </trkpt>
      <trkpt lat="48.84321" lon="2.26027">
        <ele>100.4</ele>
        <time>2015-02-02T20:51:39.423Z</time>
      </trkpt>
      <trkpt lat="48.84318" lon="2.26025">
        <ele>100.3</ele>
        <time>2015-02-02T20:51:40.526Z</time>
      </trkpt>
      <trkpt lat="48.84311" lon="2.2602">
        <ele>99.9</ele>
        <time>2015-02-02T20:51:43.429Z</time>
      </trkpt>
      <trkpt lat="48.84309" lon="2.26019">
        <ele>99.7</ele>
        <time>2015-02-02T20:51:44.468Z</time>
      </trkpt>
      <trkpt lat="48.84302" lon="2.26018">
        <ele>99.6</ele>
        <time>2015-02-02T20:51:49.474Z</time>
      </trkpt>
      <trkpt lat="48.84301" lon="2.26018">
        <ele>99.7</ele>
        <time>2015-02-02T20:51:50.488Z</time>
      </trkpt>
      <trkpt lat="48.84302" lon="2.26018">
        <ele>99.6</ele>
        <time>2015-02-02T20:52:11.591Z</time>
      </trkpt>
      <trkpt lat="48.84296" lon="2.26013">
        <ele>101.9</ele>
        <time>2015-02-02T20:52:12.449Z</time>
      </trkpt>
      <trkpt lat="48.84288" lon="2.26007">
        <ele>103.1</ele>
        <time>2015-02-02T20:52:17.506Z</time>
      </trkpt>
      <trkpt lat="48.84286" lon="2.26006">
        <ele>102.7</ele>
        <time>2015-02-02T20:52:18.551Z</time>
      </trkpt>
      <trkpt lat="48.84281" lon="2.25998">
        <ele>102.4</ele>
        <time>2015-02-02T20:52:21.484Z</time>
      </trkpt>
      <trkpt lat="48.8428" lon="2.25996">
        <ele>102.5</ele>
        <time>2015-02-02T20:52:22.496Z</time>
      </trkpt>
      <trkpt lat="48.84274" lon="2.25987">
        <ele>102.7</ele>
        <time>2015-02-02T20:52:25.445Z</time>
      </trkpt>
      <trkpt lat="48.84272" lon="2.25983">
        <ele>102.7</ele>
        <time>2015-02-02T20:52:26.492Z</time>
      </trkpt>
      <trkpt lat="48.84266" lon="2.25977">
        <ele>102.5</ele>
        <time>2015-02-02T20:52:28.484Z</time>
      </trkpt>
      <trkpt lat="48.84263" lon="2.25974">
        <ele>102.6</ele>
        <time>2015-02-02T20:52:29.449Z</time>
      </trkpt>
      <trkpt lat="48.84257" lon="2.25969">
        <ele>102.6</ele>
        <time>2015-02-02T20:52:31.594Z</time>
      </trkpt>
      <trkpt lat="48.84254" lon="2.25965">
        <ele>102.5</ele>
        <time>2015-02-02T20:52:32.445Z</time>
      </trkpt>
      <trkpt lat="48.84249" lon="2.25959">
        <ele>102.5</ele>
        <time>2015-02-02T20:52:34.525Z</time>
      </trkpt>
      <trkpt lat="48.84246" lon="2.25955">
        <ele>102.5</ele>
        <time>2015-02-02T20:52:35.624Z</time>
      </trkpt>
      <trkpt lat="48.8424" lon="2.2595">
        <ele>102.4</ele>
        <time>2015-02-02T20:52:37.620Z</time>
      </trkpt>
      <trkpt lat="48.84236" lon="2.25948">
        <ele>102.5</ele>
        <time>2015-02-02T20:52:38.551Z</time>
      </trkpt>
      <trkpt lat="48.84229" lon="2.25945">
        <ele>102.5</ele>
        <time>2015-02-02T20:52:40.588Z</time>
      </trkpt>
      <trkpt lat="48.84225" lon="2.25944">
        <ele>102.5</ele>
        <time>2015-02-02T20:52:41.625Z</time>
      </trkpt>
      <trkpt lat="48.84218" lon="2.25941">
        <ele>102.4</ele>
        <time>2015-02-02T20:52:43.435Z</time>
      </trkpt>
      <trkpt lat="48.84214" lon="2.2594">
        <ele>102.4</ele>
        <time>2015-02-02T20:52:44.519Z</time>
      </trkpt>
      <trkpt lat="48.84207" lon="2.25934">
        <ele>102.4</ele>
        <time>2015-02-02T20:52:46.480Z</time>
      </trkpt>
      <trkpt lat="48.84203" lon="2.25931">
        <ele>102.3</ele>
        <time>2015-02-02T20:52:47.503Z</time>
      </trkpt>
      <trkpt lat="48.84196" lon="2.25926">
        <ele>102.4</ele>
        <time>2015-02-02T20:52:49.426Z</time>
      </trkpt>
      <trkpt lat="48.84192" lon="2.25924">
        <ele>102.4</ele>
        <time>2015-02-02T20:52:50.439Z</time>
      </trkpt>
      <trkpt lat="48.84185" lon="2.25922">
        <ele>102.5</ele>
        <time>2015-02-02T20:52:52.512Z</time>
      </trkpt>
      <trkpt lat="48.84182" lon="2.2592">
        <ele>102.5</ele>
        <time>2015-02-02T20:52:53.574Z</time>
      </trkpt>
      <trkpt lat="48.84176" lon="2.25912">
        <ele>102.2</ele>
        <time>2015-02-02T20:52:55.421Z</time>
      </trkpt>
      <trkpt lat="48.84174" lon="2.25907">
        <ele>102.1</ele>
        <time>2015-02-02T20:52:56.535Z</time>
      </trkpt>
      <trkpt lat="48.84167" lon="2.25898">
        <ele>102.5</ele>
        <time>2015-02-02T20:52:58.521Z</time>
      </trkpt>
      <trkpt lat="48.84164" lon="2.25894">
        <ele>102.6</ele>
        <time>2015-02-02T20:52:59.435Z</time>
      </trkpt>
      <trkpt lat="48.84159" lon="2.25892">
        <ele>102.6</ele>
        <time>2015-02-02T20:53:00.453Z</time>
      </trkpt>
      <trkpt lat="48.84155" lon="2.25891">
        <ele>102.6</ele>
        <time>2015-02-02T20:53:01.463Z</time>
      </trkpt>
      <trkpt lat="48.84146" lon="2.2589">
        <ele>102.6</ele>
        <time>2015-02-02T20:53:03.492Z</time>
      </trkpt>
      <trkpt lat="48.84141" lon="2.25888">
        <ele>102.6</ele>
        <time>2015-02-02T20:53:04.506Z</time>
      </trkpt>
      <trkpt lat="48.84133" lon="2.25884">
        <ele>102.8</ele>
        <time>2015-02-02T20:53:06.548Z</time>
      </trkpt>
      <trkpt lat="48.84129" lon="2.25882">
        <ele>102.9</ele>
        <time>2015-02-02T20:53:07.562Z</time>
      </trkpt>
      <trkpt lat="48.84122" lon="2.25873">
        <ele>108.2</ele>
        <time>2015-02-02T20:53:08.576Z</time>
      </trkpt>
      <trkpt lat="48.84116" lon="2.25867">
        <ele>111.4</ele>
        <time>2015-02-02T20:53:09.617Z</time>
      </trkpt>
      <trkpt lat="48.84111" lon="2.25864">
        <ele>112.6</ele>
        <time>2015-02-02T20:53:10.444Z</time>
      </trkpt>
      <trkpt lat="48.84106" lon="2.2586">
        <ele>113.5</ele>
        <time>2015-02-02T20:53:11.447Z</time>
      </trkpt>
      <trkpt lat="48.84101" lon="2.25858">
        <ele>114</ele>
        <time>2015-02-02T20:53:12.454Z</time>
      </trkpt>
      <trkpt lat="48.84098" lon="2.25853">
        <ele>113.9</ele>
        <time>2015-02-02T20:53:13.475Z</time>
      </trkpt>
      <trkpt lat="48.84094" lon="2.25849">
        <ele>113.8</ele>
        <time>2015-02-02T20:53:14.478Z</time>
      </trkpt>
      <trkpt lat="48.84088" lon="2.25841">
        <ele>113.6</ele>
        <time>2015-02-02T20:53:16.655Z</time>
      </trkpt>
      <trkpt lat="48.84085" lon="2.25836">
        <ele>113.3</ele>
        <time>2015-02-02T20:53:17.508Z</time>
      </trkpt>
      <trkpt lat="48.8408" lon="2.25828">
        <ele>113.2</ele>
        <time>2015-02-02T20:53:19.526Z</time>
      </trkpt>
      <trkpt lat="48.84076" lon="2.25826">
        <ele>113.1</ele>
        <time>2015-02-02T20:53:20.422Z</time>
      </trkpt>
      <trkpt lat="48.84071" lon="2.25828">
        <ele>113.3</ele>
        <time>2015-02-02T20:53:21.453Z</time>
      </trkpt>
      <trkpt lat="48.84064" lon="2.25831">
        <ele>113.6</ele>
        <time>2015-02-02T20:53:22.479Z</time>
      </trkpt>
      <trkpt lat="48.84059" lon="2.25832">
        <ele>113.8</ele>
        <time>2015-02-02T20:53:23.532Z</time>
      </trkpt>
      <trkpt lat="48.84053" lon="2.25833">
        <ele>113.8</ele>
        <time>2015-02-02T20:53:24.445Z</time>
      </trkpt>
      <trkpt lat="48.84045" lon="2.25832">
        <ele>113.7</ele>
        <time>2015-02-02T20:53:26.526Z</time>
      </trkpt>
      <trkpt lat="48.8404" lon="2.25833">
        <ele>113.7</ele>
        <time>2015-02-02T20:53:27.446Z</time>
      </trkpt>
      <trkpt lat="48.84035" lon="2.25831">
        <ele>113.3</ele>
        <time>2015-02-02T20:53:28.547Z</time>
      </trkpt>
      <trkpt lat="48.8403" lon="2.25829">
        <ele>113.1</ele>
        <time>2015-02-02T20:53:29.417Z</time>
      </trkpt>
      <trkpt lat="48.84024" lon="2.25828">
        <ele>112.7</ele>
        <time>2015-02-02T20:53:30.475Z</time>
      </trkpt>
      <trkpt lat="48.84019" lon="2.25825">
        <ele>112.6</ele>
        <time>2015-02-02T20:53:31.562Z</time>
      </trkpt>
      <trkpt lat="48.84014" lon="2.25823">
        <ele>112.7</ele>
        <time>2015-02-02T20:53:33.231Z</time>
      </trkpt>
      <trkpt lat="48.84009" lon="2.25821">
        <ele>112.6</ele>
        <time>2015-02-02T20:53:33.476Z</time>
      </trkpt>
      <trkpt lat="48.84003" lon="2.25818">
        <ele>112.5</ele>
        <time>2015-02-02T20:53:34.548Z</time>
      </trkpt>
      <trkpt lat="48.83998" lon="2.25814">
        <ele>112.5</ele>
        <time>2015-02-02T20:53:35.603Z</time>
      </trkpt>
      <trkpt lat="48.83993" lon="2.25812">
        <ele>112.4</ele>
        <time>2015-02-02T20:53:36.631Z</time>
      </trkpt>
      <trkpt lat="48.83987" lon="2.2581">
        <ele>112.3</ele>
        <time>2015-02-02T20:53:37.533Z</time>
      </trkpt>
      <trkpt lat="48.83982" lon="2.25808">
        <ele>112.1</ele>
        <time>2015-02-02T20:53:38.548Z</time>
      </trkpt>
      <trkpt lat="48.83977" lon="2.25805">
        <ele>112</ele>
        <time>2015-02-02T20:53:39.569Z</time>
      </trkpt>
      <trkpt lat="48.83973" lon="2.258">
        <ele>111.5</ele>
        <time>2015-02-02T20:53:40.578Z</time>
      </trkpt>
      <trkpt lat="48.83968" lon="2.25794">
        <ele>111.2</ele>
        <time>2015-02-02T20:53:41.445Z</time>
      </trkpt>
      <trkpt lat="48.83964" lon="2.2579">
        <ele>111.2</ele>
        <time>2015-02-02T20:53:42.466Z</time>
      </trkpt>
      <trkpt lat="48.8396" lon="2.25786">
        <ele>111.2</ele>
        <time>2015-02-02T20:53:43.485Z</time>
      </trkpt>
      <trkpt lat="48.83955" lon="2.25783">
        <ele>111.2</ele>
        <time>2015-02-02T20:53:44.504Z</time>
      </trkpt>
      <trkpt lat="48.83951" lon="2.25781">
        <ele>111.3</ele>
        <time>2015-02-02T20:53:45.512Z</time>
      </trkpt>
      <trkpt lat="48.83945" lon="2.25777">
        <ele>111.2</ele>
        <time>2015-02-02T20:53:46.538Z</time>
      </trkpt>
      <trkpt lat="48.8394" lon="2.25774">
        <ele>111.1</ele>
        <time>2015-02-02T20:53:47.450Z</time>
      </trkpt>
      <trkpt lat="48.83935" lon="2.25771">
        <ele>111.1</ele>
        <time>2015-02-02T20:53:48.466Z</time>
      </trkpt>
      <trkpt lat="48.83931" lon="2.25768">
        <ele>111.1</ele>
        <time>2015-02-02T20:53:49.490Z</time>
      </trkpt>
      <trkpt lat="48.83926" lon="2.25766">
        <ele>111.1</ele>
        <time>2015-02-02T20:53:50.489Z</time>
      </trkpt>
      <trkpt lat="48.83922" lon="2.25763">
        <ele>111.1</ele>
        <time>2015-02-02T20:53:51.499Z</time>
      </trkpt>
      <trkpt lat="48.83917" lon="2.2576">
        <ele>111.1</ele>
        <time>2015-02-02T20:53:52.464Z</time>
      </trkpt>
      <trkpt lat="48.83913" lon="2.25758">
        <ele>111.1</ele>
        <time>2015-02-02T20:53:53.462Z</time>
      </trkpt>
      <trkpt lat="48.83905" lon="2.25754">
        <ele>111.1</ele>
        <time>2015-02-02T20:53:55.594Z</time>
      </trkpt>
      <trkpt lat="48.83901" lon="2.25752">
        <ele>111.1</ele>
        <time>2015-02-02T20:53:56.446Z</time>
      </trkpt>
      <trkpt lat="48.83894" lon="2.25748">
        <ele>111.2</ele>
        <time>2015-02-02T20:53:58.465Z</time>
      </trkpt>
      <trkpt lat="48.8389" lon="2.25748">
        <ele>111.5</ele>
        <time>2015-02-02T20:53:59.492Z</time>
      </trkpt>
      <trkpt lat="48.83884" lon="2.25746">
        <ele>111.6</ele>
        <time>2015-02-02T20:54:01.455Z</time>
      </trkpt>
      <trkpt lat="48.83881" lon="2.25746">
        <ele>111.7</ele>
        <time>2015-02-02T20:54:02.480Z</time>
      </trkpt>
      <trkpt lat="48.83874" lon="2.25747">
        <ele>111.8</ele>
        <time>2015-02-02T20:54:04.506Z</time>
      </trkpt>
      <trkpt lat="48.83864" lon="2.25744">
        <ele>111.9</ele>
        <time>2015-02-02T20:54:07.440Z</time>
      </trkpt>
      <trkpt lat="48.83857" lon="2.25744">
        <ele>112</ele>
        <time>2015-02-02T20:54:09.471Z</time>
      </trkpt>
      <trkpt lat="48.83854" lon="2.25744">
        <ele>112</ele>
        <time>2015-02-02T20:54:10.492Z</time>
      </trkpt>
      <trkpt lat="48.83846" lon="2.25743">
        <ele>112</ele>
        <time>2015-02-02T20:54:13.463Z</time>
      </trkpt>
      <trkpt lat="48.83842" lon="2.25743">
        <ele>111.9</ele>
        <time>2015-02-02T20:54:14.441Z</time>
      </trkpt>
      <trkpt lat="48.83834" lon="2.25744">
        <ele>111.9</ele>
        <time>2015-02-02T20:54:17.475Z</time>
      </trkpt>
      <trkpt lat="48.83832" lon="2.25742">
        <ele>112</ele>
        <time>2015-02-02T20:54:18.490Z</time>
      </trkpt>
      <trkpt lat="48.83827" lon="2.25737">
        <ele>113.3</ele>
        <time>2015-02-02T20:54:22.469Z</time>
      </trkpt>
      <trkpt lat="48.83828" lon="2.25736">
        <ele>113.4</ele>
        <time>2015-02-02T20:54:23.493Z</time>
      </trkpt>
      <trkpt lat="48.83828" lon="2.25735">
        <ele>113.5</ele>
        <time>2015-02-02T20:54:24.508Z</time>
      </trkpt>
      <trkpt lat="48.83829" lon="2.25734">
        <ele>113.5</ele>
        <time>2015-02-02T20:54:25.516Z</time>
      </trkpt>
      <trkpt lat="48.8383" lon="2.25734">
        <ele>113.3</ele>
        <time>2015-02-02T20:54:26.537Z</time>
      </trkpt>
      <trkpt lat="48.8383" lon="2.25734">
        <ele>113</ele>
        <time>2015-02-02T20:54:27.455Z</time>
      </trkpt>
      <trkpt lat="48.8383" lon="2.25733">
        <ele>112.6</ele>
        <time>2015-02-02T20:54:29.451Z</time>
      </trkpt>
      <trkpt lat="48.83829" lon="2.25732">
        <ele>112.3</ele>
        <time>2015-02-02T20:54:30.471Z</time>
      </trkpt>
      <trkpt lat="48.83826" lon="2.25723">
        <ele>112.9</ele>
        <time>2015-02-02T20:54:33.464Z</time>
      </trkpt>
      <trkpt lat="48.83825" lon="2.25719">
        <ele>113.3</ele>
        <time>2015-02-02T20:54:34.518Z</time>
      </trkpt>
      <trkpt lat="48.83825" lon="2.2571">
        <ele>114.2</ele>
        <time>2015-02-02T20:54:36.459Z</time>
      </trkpt>
      <trkpt lat="48.83824" lon="2.25704">
        <ele>114.5</ele>
        <time>2015-02-02T20:54:37.467Z</time>
      </trkpt>
      <trkpt lat="48.83823" lon="2.25693">
        <ele>115.4</ele>
        <time>2015-02-02T20:54:39.449Z</time>
      </trkpt>
      <trkpt lat="48.83822" lon="2.25688">
        <ele>115.7</ele>
        <time>2015-02-02T20:54:40.606Z</time>
      </trkpt>
      <trkpt lat="48.83819" lon="2.25677">
        <ele>115.8</ele>
        <time>2015-02-02T20:54:42.456Z</time>
      </trkpt>
      <trkpt lat="48.83817" lon="2.25671">
        <ele>116.1</ele>
        <time>2015-02-02T20:54:43.502Z</time>
      </trkpt>
      <trkpt lat="48.83814" lon="2.25666">
        <ele>116.5</ele>
        <time>2015-02-02T20:54:44.516Z</time>
      </trkpt>
      <trkpt lat="48.83811" lon="2.25661">
        <ele>116.8</ele>
        <time>2015-02-02T20:54:45.527Z</time>
      </trkpt>
      <trkpt lat="48.83806" lon="2.25657">
        <ele>117</ele>
        <time>2015-02-02T20:54:46.725Z</time>
      </trkpt>
      <trkpt lat="48.83801" lon="2.25653">
        <ele>116.9</ele>
        <time>2015-02-02T20:54:47.499Z</time>
      </trkpt>
      <trkpt lat="48.83796" lon="2.25651">
        <ele>117</ele>
        <time>2015-02-02T20:54:48.510Z</time>
      </trkpt>
      <trkpt lat="48.83792" lon="2.2565">
        <ele>116.5</ele>
        <time>2015-02-02T20:54:49.531Z</time>
      </trkpt>
      <trkpt lat="48.83787" lon="2.25654">
        <ele>114</ele>
        <time>2015-02-02T20:54:50.467Z</time>
      </trkpt>
      <trkpt lat="48.83783" lon="2.25659">
        <ele>110.8</ele>
        <time>2015-02-02T20:54:51.491Z</time>
      </trkpt>
      <trkpt lat="48.83778" lon="2.25663">
        <ele>109.1</ele>
        <time>2015-02-02T20:54:53.177Z</time>
      </trkpt>
      <trkpt lat="48.83772" lon="2.25667">
        <ele>107.8</ele>
        <time>2015-02-02T20:54:53.451Z</time>
      </trkpt>
      <trkpt lat="48.83767" lon="2.25672">
        <ele>106.4</ele>
        <time>2015-02-02T20:54:54.449Z</time>
      </trkpt>
      <trkpt lat="48.83761" lon="2.25678">
        <ele>105.7</ele>
        <time>2015-02-02T20:54:55.475Z</time>
      </trkpt>
      <trkpt lat="48.83759" lon="2.25686">
        <ele>103.2</ele>
        <time>2015-02-02T20:54:56.486Z</time>
      </trkpt>
      <trkpt lat="48.83757" lon="2.25696">
        <ele>100.8</ele>
        <time>2015-02-02T20:54:57.523Z</time>
      </trkpt>
      <trkpt lat="48.83755" lon="2.25705">
        <ele>100</ele>
        <time>2015-02-02T20:54:58.517Z</time>
      </trkpt>
      <trkpt lat="48.83754" lon="2.25711">
        <ele>97.9</ele>
        <time>2015-02-02T20:54:59.529Z</time>
      </trkpt>
      <trkpt lat="48.83754" lon="2.25724">
        <ele>94.5</ele>
        <time>2015-02-02T20:55:01.470Z</time>
      </trkpt>
      <trkpt lat="48.83754" lon="2.25732">
        <ele>93.9</ele>
        <time>2015-02-02T20:55:02.478Z</time>
      </trkpt>
      <trkpt lat="48.83755" lon="2.25745">
        <ele>91.1</ele>
        <time>2015-02-02T20:55:04.553Z</time>
      </trkpt>
      <trkpt lat="48.83755" lon="2.25752">
        <ele>90.3</ele>
        <time>2015-02-02T20:55:05.593Z</time>
      </trkpt>
      <trkpt lat="48.83755" lon="2.25759">
        <ele>89.8</ele>
        <time>2015-02-02T20:55:06.644Z</time>
      </trkpt>
      <trkpt lat="48.83754" lon="2.25766">
        <ele>89.5</ele>
        <time>2015-02-02T20:55:07.547Z</time>
      </trkpt>
      <trkpt lat="48.83752" lon="2.25777">
        <ele>89.4</ele>
        <time>2015-02-02T20:55:09.606Z</time>
      </trkpt>
      <trkpt lat="48.83751" lon="2.25783">
        <ele>89.2</ele>
        <time>2015-02-02T20:55:10.672Z</time>
      </trkpt>
      <trkpt lat="48.83745" lon="2.2579">
        <ele>89.1</ele>
        <time>2015-02-02T20:55:12.572Z</time>
      </trkpt>
      <trkpt lat="48.83742" lon="2.25793">
        <ele>89.1</ele>
        <time>2015-02-02T20:55:13.569Z</time>
      </trkpt>
      <trkpt lat="48.83739" lon="2.25803">
        <ele>88.5</ele>
        <time>2015-02-02T20:55:15.603Z</time>
      </trkpt>
      <trkpt lat="48.83739" lon="2.25809">
        <ele>88.7</ele>
        <time>2015-02-02T20:55:16.487Z</time>
      </trkpt>
      <trkpt lat="48.8374" lon="2.25817">
        <ele>88.3</ele>
        <time>2015-02-02T20:55:17.503Z</time>
      </trkpt>
      <trkpt lat="48.8374" lon="2.25825">
        <ele>87.9</ele>
        <time>2015-02-02T20:55:18.514Z</time>
      </trkpt>
      <trkpt lat="48.83738" lon="2.25834">
        <ele>87.4</ele>
        <time>2015-02-02T20:55:19.451Z</time>
      </trkpt>
      <trkpt lat="48.83737" lon="2.25841">
        <ele>86.9</ele>
        <time>2015-02-02T20:55:20.460Z</time>
      </trkpt>
      <trkpt lat="48.83736" lon="2.25848">
        <ele>86.8</ele>
        <time>2015-02-02T20:55:21.458Z</time>
      </trkpt>
      <trkpt lat="48.83734" lon="2.25857">
        <ele>86.7</ele>
        <time>2015-02-02T20:55:22.564Z</time>
      </trkpt>
      <trkpt lat="48.83734" lon="2.25864">
        <ele>86.4</ele>
        <time>2015-02-02T20:55:23.529Z</time>
      </trkpt>
      <trkpt lat="48.83732" lon="2.25871">
        <ele>86.1</ele>
        <time>2015-02-02T20:55:24.443Z</time>
      </trkpt>
      <trkpt lat="48.83731" lon="2.25879">
        <ele>86.2</ele>
        <time>2015-02-02T20:55:25.451Z</time>
      </trkpt>
      <trkpt lat="48.83729" lon="2.25886">
        <ele>85.8</ele>
        <time>2015-02-02T20:55:26.453Z</time>
      </trkpt>
      <trkpt lat="48.83727" lon="2.25894">
        <ele>85.6</ele>
        <time>2015-02-02T20:55:27.511Z</time>
      </trkpt>
      <trkpt lat="48.83725" lon="2.25902">
        <ele>85.2</ele>
        <time>2015-02-02T20:55:28.521Z</time>
      </trkpt>
      <trkpt lat="48.83724" lon="2.2591">
        <ele>84.8</ele>
        <time>2015-02-02T20:55:29.550Z</time>
      </trkpt>
      <trkpt lat="48.83722" lon="2.25919">
        <ele>84.6</ele>
        <time>2015-02-02T20:55:30.523Z</time>
      </trkpt>
      <trkpt lat="48.83721" lon="2.25928">
        <ele>84.4</ele>
        <time>2015-02-02T20:55:31.468Z</time>
      </trkpt>
      <trkpt lat="48.83722" lon="2.25939">
        <ele>83.9</ele>
        <time>2015-02-02T20:55:32.482Z</time>
      </trkpt>
      <trkpt lat="48.83721" lon="2.25949">
        <ele>83.5</ele>
        <time>2015-02-02T20:55:33.507Z</time>
      </trkpt>
      <trkpt lat="48.8372" lon="2.25959">
        <ele>83.3</ele>
        <time>2015-02-02T20:55:34.559Z</time>
      </trkpt>
      <trkpt lat="48.83719" lon="2.25969">
        <ele>83.2</ele>
        <time>2015-02-02T20:55:35.622Z</time>
      </trkpt>
      <trkpt lat="48.83718" lon="2.25978">
        <ele>83.3</ele>
        <time>2015-02-02T20:55:36.629Z</time>
      </trkpt>
      <trkpt lat="48.83718" lon="2.25988">
        <ele>83.5</ele>
        <time>2015-02-02T20:55:37.554Z</time>
      </trkpt>
      <trkpt lat="48.83717" lon="2.25997">
        <ele>83.8</ele>
        <time>2015-02-02T20:55:38.521Z</time>
      </trkpt>
      <trkpt lat="48.83717" lon="2.26005">
        <ele>84.1</ele>
        <time>2015-02-02T20:55:39.588Z</time>
      </trkpt>
      <trkpt lat="48.83716" lon="2.26013">
        <ele>84.3</ele>
        <time>2015-02-02T20:55:40.603Z</time>
      </trkpt>
      <trkpt lat="48.83715" lon="2.26021">
        <ele>84.5</ele>
        <time>2015-02-02T20:55:41.635Z</time>
      </trkpt>
      <trkpt lat="48.83714" lon="2.2603">
        <ele>84.7</ele>
        <time>2015-02-02T20:55:42.540Z</time>
      </trkpt>
      <trkpt lat="48.83714" lon="2.26038">
        <ele>84.8</ele>
        <time>2015-02-02T20:55:43.557Z</time>
      </trkpt>
      <trkpt lat="48.83712" lon="2.26045">
        <ele>85.2</ele>
        <time>2015-02-02T20:55:44.560Z</time>
      </trkpt>
      <trkpt lat="48.83711" lon="2.26052">
        <ele>85.5</ele>
        <time>2015-02-02T20:55:45.595Z</time>
      </trkpt>
      <trkpt lat="48.8371" lon="2.26059">
        <ele>85.8</ele>
        <time>2015-02-02T20:55:46.417Z</time>
      </trkpt>
      <trkpt lat="48.83709" lon="2.26066">
        <ele>86</ele>
        <time>2015-02-02T20:55:47.448Z</time>
      </trkpt>
      <trkpt lat="48.83708" lon="2.26073">
        <ele>86</ele>
        <time>2015-02-02T20:55:48.443Z</time>
      </trkpt>
      <trkpt lat="48.83706" lon="2.26086">
        <ele>85.9</ele>
        <time>2015-02-02T20:55:50.523Z</time>
      </trkpt>
      <trkpt lat="48.83704" lon="2.26092">
        <ele>85.8</ele>
        <time>2015-02-02T20:55:51.551Z</time>
      </trkpt>
      <trkpt lat="48.83703" lon="2.26099">
        <ele>85.9</ele>
        <time>2015-02-02T20:55:52.479Z</time>
      </trkpt>
      <trkpt lat="48.83701" lon="2.26105">
        <ele>85.9</ele>
        <time>2015-02-02T20:55:53.491Z</time>
      </trkpt>
      <trkpt lat="48.83699" lon="2.26112">
        <ele>85.7</ele>
        <time>2015-02-02T20:55:54.498Z</time>
      </trkpt>
      <trkpt lat="48.83699" lon="2.2612">
        <ele>86</ele>
        <time>2015-02-02T20:55:55.498Z</time>
      </trkpt>
      <trkpt lat="48.83698" lon="2.26129">
        <ele>86.4</ele>
        <time>2015-02-02T20:55:56.557Z</time>
      </trkpt>
      <trkpt lat="48.83697" lon="2.26136">
        <ele>86.4</ele>
        <time>2015-02-02T20:55:57.450Z</time>
      </trkpt>
      <trkpt lat="48.83696" lon="2.26149">
        <ele>86.1</ele>
        <time>2015-02-02T20:55:59.505Z</time>
      </trkpt>
      <trkpt lat="48.83696" lon="2.26154">
        <ele>85.7</ele>
        <time>2015-02-02T20:56:00.537Z</time>
      </trkpt>
      <trkpt lat="48.83698" lon="2.26163">
        <ele>85.4</ele>
        <time>2015-02-02T20:56:02.454Z</time>
      </trkpt>
      <trkpt lat="48.83699" lon="2.26167">
        <ele>85.3</ele>
        <time>2015-02-02T20:56:03.434Z</time>
      </trkpt>
      <trkpt lat="48.83705" lon="2.26177">
        <ele>85.6</ele>
        <time>2015-02-02T20:56:05.481Z</time>
      </trkpt>
      <trkpt lat="48.83707" lon="2.2618">
        <ele>85.7</ele>
        <time>2015-02-02T20:56:06.547Z</time>
      </trkpt>
      <trkpt lat="48.83713" lon="2.26187">
        <ele>85.8</ele>
        <time>2015-02-02T20:56:08.467Z</time>
      </trkpt>
      <trkpt lat="48.83715" lon="2.26191">
        <ele>85.7</ele>
        <time>2015-02-02T20:56:09.477Z</time>
      </trkpt>
      <trkpt lat="48.8372" lon="2.26199">
        <ele>85.4</ele>
        <time>2015-02-02T20:56:11.511Z</time>
      </trkpt>
      <trkpt lat="48.83722" lon="2.26204">
        <ele>85.5</ele>
        <time>2015-02-02T20:56:12.625Z</time>
      </trkpt>
      <trkpt lat="48.83727" lon="2.26212">
        <ele>85.7</ele>
        <time>2015-02-02T20:56:14.449Z</time>
      </trkpt>
      <trkpt lat="48.83729" lon="2.26216">
        <ele>85.8</ele>
        <time>2015-02-02T20:56:15.470Z</time>
      </trkpt>
      <trkpt lat="48.83732" lon="2.26221">
        <ele>85.8</ele>
        <time>2015-02-02T20:56:16.491Z</time>
      </trkpt>
      <trkpt lat="48.83737" lon="2.26228">
        <ele>84.9</ele>
        <time>2015-02-02T20:56:17.572Z</time>
      </trkpt>
      <trkpt lat="48.83743" lon="2.26232">
        <ele>84.7</ele>
        <time>2015-02-02T20:56:18.428Z</time>
      </trkpt>
      <trkpt lat="48.83747" lon="2.26238">
        <ele>84.4</ele>
        <time>2015-02-02T20:56:19.431Z</time>
      </trkpt>
      <trkpt lat="48.83751" lon="2.26244">
        <ele>84.2</ele>
        <time>2015-02-02T20:56:20.436Z</time>
      </trkpt>
      <trkpt lat="48.83755" lon="2.26249">
        <ele>84.2</ele>
        <time>2015-02-02T20:56:21.445Z</time>
      </trkpt>
      <trkpt lat="48.8376" lon="2.26253">
        <ele>84.1</ele>
        <time>2015-02-02T20:56:22.492Z</time>
      </trkpt>
      <trkpt lat="48.83766" lon="2.26258">
        <ele>83.9</ele>
        <time>2015-02-02T20:56:23.509Z</time>
      </trkpt>
      <trkpt lat="48.8377" lon="2.26264">
        <ele>83.9</ele>
        <time>2015-02-02T20:56:24.448Z</time>
      </trkpt>
      <trkpt lat="48.83774" lon="2.26269">
        <ele>83.9</ele>
        <time>2015-02-02T20:56:25.478Z</time>
      </trkpt>
      <trkpt lat="48.83779" lon="2.26273">
        <ele>83.9</ele>
        <time>2015-02-02T20:56:26.500Z</time>
      </trkpt>
      <trkpt lat="48.83782" lon="2.26278">
        <ele>84.3</ele>
        <time>2015-02-02T20:56:27.516Z</time>
      </trkpt>
      <trkpt lat="48.83786" lon="2.26283">
        <ele>84.6</ele>
        <time>2015-02-02T20:56:28.561Z</time>
      </trkpt>
      <trkpt lat="48.8379" lon="2.26288">
        <ele>84.7</ele>
        <time>2015-02-02T20:56:29.435Z</time>
      </trkpt>
      <trkpt lat="48.83794" lon="2.26293">
        <ele>84.9</ele>
        <time>2015-02-02T20:56:30.452Z</time>
      </trkpt>
      <trkpt lat="48.83799" lon="2.26301">
        <ele>84.6</ele>
        <time>2015-02-02T20:56:31.481Z</time>
      </trkpt>
      <trkpt lat="48.83804" lon="2.26307">
        <ele>84.2</ele>
        <time>2015-02-02T20:56:32.496Z</time>
      </trkpt>
      <trkpt lat="48.83808" lon="2.26313">
        <ele>83.9</ele>
        <time>2015-02-02T20:56:33.509Z</time>
      </trkpt>
      <trkpt lat="48.83812" lon="2.26319">
        <ele>83.6</ele>
        <time>2015-02-02T20:56:34.524Z</time>
      </trkpt>
      <trkpt lat="48.83819" lon="2.26325">
        <ele>83.1</ele>
        <time>2015-02-02T20:56:35.536Z</time>
      </trkpt>
      <trkpt lat="48.83823" lon="2.26331">
        <ele>83</ele>
        <time>2015-02-02T20:56:36.580Z</time>
      </trkpt>
      <trkpt lat="48.83828" lon="2.26337">
        <ele>83.1</ele>
        <time>2015-02-02T20:56:37.590Z</time>
      </trkpt>
      <trkpt lat="48.83834" lon="2.26343">
        <ele>83.1</ele>
        <time>2015-02-02T20:56:38.612Z</time>
      </trkpt>
      <trkpt lat="48.83839" lon="2.26349">
        <ele>83</ele>
        <time>2015-02-02T20:56:39.629Z</time>
      </trkpt>
      <trkpt lat="48.83844" lon="2.26354">
        <ele>82.7</ele>
        <time>2015-02-02T20:56:40.507Z</time>
      </trkpt>
      <trkpt lat="48.8385" lon="2.26359">
        <ele>82.5</ele>
        <time>2015-02-02T20:56:41.522Z</time>
      </trkpt>
      <trkpt lat="48.83856" lon="2.26365">
        <ele>82.2</ele>
        <time>2015-02-02T20:56:42.542Z</time>
      </trkpt>
      <trkpt lat="48.8386" lon="2.2637">
        <ele>82.1</ele>
        <time>2015-02-02T20:56:43.558Z</time>
      </trkpt>
      <trkpt lat="48.83865" lon="2.26376">
        <ele>81.9</ele>
        <time>2015-02-02T20:56:44.594Z</time>
      </trkpt>
      <trkpt lat="48.83869" lon="2.26382">
        <ele>81.8</ele>
        <time>2015-02-02T20:56:45.634Z</time>
      </trkpt>
      <trkpt lat="48.83872" lon="2.26388">
        <ele>82</ele>
        <time>2015-02-02T20:56:46.535Z</time>
      </trkpt>
      <trkpt lat="48.83876" lon="2.26393">
        <ele>82.2</ele>
        <time>2015-02-02T20:56:47.538Z</time>
      </trkpt>
      <trkpt lat="48.8388" lon="2.264">
        <ele>83</ele>
        <time>2015-02-02T20:56:48.554Z</time>
      </trkpt>
      <trkpt lat="48.83882" lon="2.26408">
        <ele>83.5</ele>
        <time>2015-02-02T20:56:49.567Z</time>
      </trkpt>
      <trkpt lat="48.83884" lon="2.26415">
        <ele>83.9</ele>
        <time>2015-02-02T20:56:50.579Z</time>
      </trkpt>
      <trkpt lat="48.83888" lon="2.26422">
        <ele>83.6</ele>
        <time>2015-02-02T20:56:51.587Z</time>
      </trkpt>
      <trkpt lat="48.83892" lon="2.2643">
        <ele>83.5</ele>
        <time>2015-02-02T20:56:52.606Z</time>
      </trkpt>
      <trkpt lat="48.83895" lon="2.26434">
        <ele>83.7</ele>
        <time>2015-02-02T20:56:53.506Z</time>
      </trkpt>
      <trkpt lat="48.83901" lon="2.26441">
        <ele>83.9</ele>
        <time>2015-02-02T20:56:55.538Z</time>
      </trkpt>
      <trkpt lat="48.83904" lon="2.26445">
        <ele>84.1</ele>
        <time>2015-02-02T20:56:56.549Z</time>
      </trkpt>
      <trkpt lat="48.83908" lon="2.2645">
        <ele>84.7</ele>
        <time>2015-02-02T20:56:57.583Z</time>
      </trkpt>
      <trkpt lat="48.83912" lon="2.26454">
        <ele>84.8</ele>
        <time>2015-02-02T20:56:58.586Z</time>
      </trkpt>
      <trkpt lat="48.83915" lon="2.2646">
        <ele>85.1</ele>
        <time>2015-02-02T20:57:03.620Z</time>
      </trkpt>
      <trkpt lat="48.83914" lon="2.2646">
        <ele>85</ele>
        <time>2015-02-02T20:57:04.594Z</time>
      </trkpt>
      <trkpt lat="48.83913" lon="2.2646">
        <ele>85</ele>
        <time>2015-02-02T20:57:13.646Z</time>
      </trkpt>
      <trkpt lat="48.83913" lon="2.2646">
        <ele>85.4</ele>
        <time>2015-02-02T20:57:14.529Z</time>
      </trkpt>
      <trkpt lat="48.83921" lon="2.26455">
        <ele>85.5</ele>
        <time>2015-02-02T20:57:22.625Z</time>
      </trkpt>
      <trkpt lat="48.83924" lon="2.26453">
        <ele>85.3</ele>
        <time>2015-02-02T20:57:23.637Z</time>
      </trkpt>
      <trkpt lat="48.83929" lon="2.26446">
        <ele>85.1</ele>
        <time>2015-02-02T20:57:25.549Z</time>
      </trkpt>
      <trkpt lat="48.83931" lon="2.26442">
        <ele>85</ele>
        <time>2015-02-02T20:57:26.563Z</time>
      </trkpt>
      <trkpt lat="48.83936" lon="2.26435">
        <ele>84.5</ele>
        <time>2015-02-02T20:57:28.630Z</time>
      </trkpt>
      <trkpt lat="48.83938" lon="2.26431">
        <ele>84.5</ele>
        <time>2015-02-02T20:57:29.640Z</time>
      </trkpt>
      <trkpt lat="48.83942" lon="2.26424">
        <ele>84.3</ele>
        <time>2015-02-02T20:57:31.543Z</time>
      </trkpt>
      <trkpt lat="48.83943" lon="2.26419">
        <ele>84.3</ele>
        <time>2015-02-02T20:57:32.553Z</time>
      </trkpt>
      <trkpt lat="48.83945" lon="2.2641">
        <ele>83.8</ele>
        <time>2015-02-02T20:57:34.578Z</time>
      </trkpt>
      <trkpt lat="48.83946" lon="2.26404">
        <ele>83.6</ele>
        <time>2015-02-02T20:57:35.588Z</time>
      </trkpt>
      <trkpt lat="48.83949" lon="2.26394">
        <ele>83.6</ele>
        <time>2015-02-02T20:57:37.513Z</time>
      </trkpt>
      <trkpt lat="48.83951" lon="2.26388">
        <ele>83.6</ele>
        <time>2015-02-02T20:57:38.554Z</time>
      </trkpt>
      <trkpt lat="48.83955" lon="2.26377">
        <ele>83.5</ele>
        <time>2015-02-02T20:57:40.585Z</time>
      </trkpt>
      <trkpt lat="48.83956" lon="2.26371">
        <ele>83.3</ele>
        <time>2015-02-02T20:57:41.515Z</time>
      </trkpt>
      <trkpt lat="48.83957" lon="2.26361">
        <ele>83.4</ele>
        <time>2015-02-02T20:57:43.584Z</time>
      </trkpt>
      <trkpt lat="48.83958" lon="2.26356">
        <ele>83.4</ele>
        <time>2015-02-02T20:57:44.610Z</time>
      </trkpt>
      <trkpt lat="48.83958" lon="2.26344">
        <ele>83.5</ele>
        <time>2015-02-02T20:57:47.553Z</time>
      </trkpt>
      <trkpt lat="48.83959" lon="2.2634">
        <ele>83.7</ele>
        <time>2015-02-02T20:57:48.566Z</time>
      </trkpt>
      <trkpt lat="48.83962" lon="2.26329">
        <ele>85</ele>
        <time>2015-02-02T20:57:51.623Z</time>
      </trkpt>
      <trkpt lat="48.83963" lon="2.26325">
        <ele>85.3</ele>
        <time>2015-02-02T20:57:52.638Z</time>
      </trkpt>
      <trkpt lat="48.83969" lon="2.26315">
        <ele>87.2</ele>
        <time>2015-02-02T20:57:56.597Z</time>
      </trkpt>
      <trkpt lat="48.8397" lon="2.26313">
        <ele>87.8</ele>
        <time>2015-02-02T20:57:57.649Z</time>
      </trkpt>
      <trkpt lat="48.83972" lon="2.26305">
        <ele>89.5</ele>
        <time>2015-02-02T20:58:00.593Z</time>
      </trkpt>
      <trkpt lat="48.83975" lon="2.26301">
        <ele>90.1</ele>
        <time>2015-02-02T20:58:01.608Z</time>
      </trkpt>
      <trkpt lat="48.8398" lon="2.26295">
        <ele>92</ele>
        <time>2015-02-02T20:58:06.576Z</time>
      </trkpt>
      <trkpt lat="48.83983" lon="2.26297">
        <ele>92.6</ele>
        <time>2015-02-02T20:58:07.611Z</time>
      </trkpt>
      <trkpt lat="48.83989" lon="2.263">
        <ele>92.9</ele>
        <time>2015-02-02T20:58:09.576Z</time>
      </trkpt>
      <trkpt lat="48.83992" lon="2.26301">
        <ele>93</ele>
        <time>2015-02-02T20:58:10.515Z</time>
      </trkpt>
      <trkpt lat="48.83999" lon="2.26308">
        <ele>93.2</ele>
        <time>2015-02-02T20:58:13.624Z</time>
      </trkpt>
      <trkpt lat="48.84001" lon="2.26311">
        <ele>93.3</ele>
        <time>2015-02-02T20:58:14.644Z</time>
      </trkpt>
      <trkpt lat="48.84009" lon="2.26317">
        <ele>93.6</ele>
        <time>2015-02-02T20:58:18.608Z</time>
      </trkpt>
      <trkpt lat="48.84011" lon="2.26318">
        <ele>93.7</ele>
        <time>2015-02-02T20:58:19.616Z</time>
      </trkpt>
      <trkpt lat="48.8402" lon="2.26319">
        <ele>94.1</ele>
        <time>2015-02-02T20:58:22.618Z</time>
      </trkpt>
      <trkpt lat="48.84023" lon="2.2632">
        <ele>94.3</ele>
        <time>2015-02-02T20:58:23.534Z</time>
      </trkpt>
      <trkpt lat="48.8403" lon="2.26324">
        <ele>94.5</ele>
        <time>2015-02-02T20:58:25.556Z</time>
      </trkpt>
      <trkpt lat="48.84033" lon="2.26325">
        <ele>94.6</ele>
        <time>2015-02-02T20:58:26.559Z</time>
      </trkpt>
      <trkpt lat="48.84039" lon="2.26329">
        <ele>94.7</ele>
        <time>2015-02-02T20:58:28.544Z</time>
      </trkpt>
      <trkpt lat="48.84041" lon="2.26331">
        <ele>94.8</ele>
        <time>2015-02-02T20:58:29.553Z</time>
      </trkpt>
      <trkpt lat="48.84047" lon="2.26335">
        <ele>94.9</ele>
        <time>2015-02-02T20:58:31.596Z</time>
      </trkpt>
      <trkpt lat="48.84049" lon="2.26338">
        <ele>95</ele>
        <time>2015-02-02T20:58:32.627Z</time>
      </trkpt>
      <trkpt lat="48.84056" lon="2.26341">
        <ele>95.2</ele>
        <time>2015-02-02T20:58:34.550Z</time>
      </trkpt>
      <trkpt lat="48.8406" lon="2.26343">
        <ele>95.2</ele>
        <time>2015-02-02T20:58:35.583Z</time>
      </trkpt>
      <trkpt lat="48.84064" lon="2.26344">
        <ele>95.1</ele>
        <time>2015-02-02T20:58:36.676Z</time>
      </trkpt>
      <trkpt lat="48.84069" lon="2.26345">
        <ele>95.2</ele>
        <time>2015-02-02T20:58:37.606Z</time>
      </trkpt>
      <trkpt lat="48.84074" lon="2.26347">
        <ele>95.2</ele>
        <time>2015-02-02T20:58:38.537Z</time>
      </trkpt>
      <trkpt lat="48.84078" lon="2.2635">
        <ele>94.8</ele>
        <time>2015-02-02T20:58:39.573Z</time>
      </trkpt>
      <trkpt lat="48.84085" lon="2.26356">
        <ele>93.8</ele>
        <time>2015-02-02T20:58:42.609Z</time>
      </trkpt>
      <trkpt lat="48.84088" lon="2.26356">
        <ele>94.1</ele>
        <time>2015-02-02T20:58:43.625Z</time>
      </trkpt>
      <trkpt lat="48.84095" lon="2.26358">
        <ele>94.5</ele>
        <time>2015-02-02T20:58:45.573Z</time>
      </trkpt>
      <trkpt lat="48.84098" lon="2.26359">
        <ele>94.4</ele>
        <time>2015-02-02T20:58:46.590Z</time>
      </trkpt>
      <trkpt lat="48.84106" lon="2.26363">
        <ele>94.7</ele>
        <time>2015-02-02T20:58:48.625Z</time>
      </trkpt>
      <trkpt lat="48.8411" lon="2.26363">
        <ele>95</ele>
        <time>2015-02-02T20:58:49.636Z</time>
      </trkpt>
      <trkpt lat="48.84115" lon="2.26362">
        <ele>93.2</ele>
        <time>2015-02-02T20:58:50.536Z</time>
      </trkpt>
      <trkpt lat="48.84121" lon="2.26363">
        <ele>92.2</ele>
        <time>2015-02-02T20:58:51.580Z</time>
      </trkpt>
      <trkpt lat="48.84128" lon="2.26365">
        <ele>92</ele>
        <time>2015-02-02T20:58:52.555Z</time>
      </trkpt>
      <trkpt lat="48.84135" lon="2.26366">
        <ele>91.4</ele>
        <time>2015-02-02T20:58:53.620Z</time>
      </trkpt>
      <trkpt lat="48.84141" lon="2.26368">
        <ele>91.3</ele>
        <time>2015-02-02T20:58:54.617Z</time>
      </trkpt>
      <trkpt lat="48.84145" lon="2.2637">
        <ele>90.9</ele>
        <time>2015-02-02T20:58:55.625Z</time>
      </trkpt>
      <trkpt lat="48.84152" lon="2.26374">
        <ele>90.4</ele>
        <time>2015-02-02T20:58:57.589Z</time>
      </trkpt>
      <trkpt lat="48.84154" lon="2.26376">
        <ele>90.6</ele>
        <time>2015-02-02T20:58:58.615Z</time>
      </trkpt>
      <trkpt lat="48.8416" lon="2.26383">
        <ele>91.3</ele>
        <time>2015-02-02T20:59:01.553Z</time>
      </trkpt>
      <trkpt lat="48.84162" lon="2.26385">
        <ele>91.4</ele>
        <time>2015-02-02T20:59:02.613Z</time>
      </trkpt>
      <trkpt lat="48.84169" lon="2.26391">
        <ele>92.3</ele>
        <time>2015-02-02T20:59:05.632Z</time>
      </trkpt>
      <trkpt lat="48.84171" lon="2.26394">
        <ele>92.5</ele>
        <time>2015-02-02T20:59:06.620Z</time>
      </trkpt>
      <trkpt lat="48.84179" lon="2.26401">
        <ele>93.4</ele>
        <time>2015-02-02T20:59:09.554Z</time>
      </trkpt>
      <trkpt lat="48.8418" lon="2.26403">
        <ele>93.7</ele>
        <time>2015-02-02T20:59:10.567Z</time>
      </trkpt>
      <trkpt lat="48.84186" lon="2.26411">
        <ele>94.1</ele>
        <time>2015-02-02T20:59:13.545Z</time>
      </trkpt>
      <trkpt lat="48.84188" lon="2.26413">
        <ele>94.4</ele>
        <time>2015-02-02T20:59:14.576Z</time>
      </trkpt>
      <trkpt lat="48.84194" lon="2.26417">
        <ele>94.7</ele>
        <time>2015-02-02T20:59:16.625Z</time>
      </trkpt>
      <trkpt lat="48.84197" lon="2.26419">
        <ele>94.8</ele>
        <time>2015-02-02T20:59:17.635Z</time>
      </trkpt>
      <trkpt lat="48.84204" lon="2.26424">
        <ele>95.2</ele>
        <time>2015-02-02T20:59:20.616Z</time>
      </trkpt>
      <trkpt lat="48.84207" lon="2.26425">
        <ele>95.4</ele>
        <time>2015-02-02T20:59:21.630Z</time>
      </trkpt>
      <trkpt lat="48.84213" lon="2.26429">
        <ele>95.7</ele>
        <time>2015-02-02T20:59:24.549Z</time>
      </trkpt>
      <trkpt lat="48.84216" lon="2.26431">
        <ele>95.8</ele>
        <time>2015-02-02T20:59:25.561Z</time>
      </trkpt>
      <trkpt lat="48.8422" lon="2.26434">
        <ele>95.9</ele>
        <time>2015-02-02T20:59:27.601Z</time>
      </trkpt>
      <trkpt lat="48.84224" lon="2.26437">
        <ele>96.1</ele>
        <time>2015-02-02T20:59:28.628Z</time>
      </trkpt>
      <trkpt lat="48.84232" lon="2.26443">
        <ele>96.6</ele>
        <time>2015-02-02T20:59:30.530Z</time>
      </trkpt>
      <trkpt lat="48.84235" lon="2.26444">
        <ele>96.7</ele>
        <time>2015-02-02T20:59:31.553Z</time>
      </trkpt>
      <trkpt lat="48.84242" lon="2.26448">
        <ele>96.9</ele>
        <time>2015-02-02T20:59:33.606Z</time>
      </trkpt>
      <trkpt lat="48.84245" lon="2.26449">
        <ele>97</ele>
        <time>2015-02-02T20:59:34.617Z</time>
      </trkpt>
      <trkpt lat="48.84253" lon="2.26454">
        <ele>97</ele>
        <time>2015-02-02T20:59:37.575Z</time>
      </trkpt>
      <trkpt lat="48.84255" lon="2.26455">
        <ele>97.1</ele>
        <time>2015-02-02T20:59:38.611Z</time>
      </trkpt>
      <trkpt lat="48.84262" lon="2.26456">
        <ele>97.2</ele>
        <time>2015-02-02T20:59:42.590Z</time>
      </trkpt>
      <trkpt lat="48.84264" lon="2.26457">
        <ele>97.2</ele>
        <time>2015-02-02T20:59:43.592Z</time>
      </trkpt>
      <trkpt lat="48.84271" lon="2.26463">
        <ele>97.3</ele>
        <time>2015-02-02T20:59:46.584Z</time>
      </trkpt>
      <trkpt lat="48.84274" lon="2.26467">
        <ele>96.8</ele>
        <time>2015-02-02T20:59:47.610Z</time>
      </trkpt>
      <trkpt lat="48.8428" lon="2.26472">
        <ele>95.4</ele>
        <time>2015-02-02T20:59:49.565Z</time>
      </trkpt>
      <trkpt lat="48.84282" lon="2.26475">
        <ele>95</ele>
        <time>2015-02-02T20:59:50.513Z</time>
      </trkpt>
      <trkpt lat="48.84287" lon="2.26484">
        <ele>95.3</ele>
        <time>2015-02-02T20:59:53.612Z</time>
      </trkpt>
      <trkpt lat="48.84289" lon="2.26489">
        <ele>95.5</ele>
        <time>2015-02-02T20:59:54.619Z</time>
      </trkpt>
      <trkpt lat="48.84296" lon="2.26497">
        <ele>96.1</ele>
        <time>2015-02-02T20:59:58.378Z</time>
      </trkpt>
      <trkpt lat="48.843" lon="2.26498">
        <ele>96.3</ele>
        <time>2015-02-02T20:59:58.527Z</time>
      </trkpt>
      <trkpt lat="48.84305" lon="2.26501">
        <ele>96.3</ele>
        <time>2015-02-02T20:59:59.547Z</time>
      </trkpt>
      <trkpt lat="48.8431" lon="2.26504">
        <ele>96.3</ele>
        <time>2015-02-02T21:00:00.549Z</time>
      </trkpt>
      <trkpt lat="48.84316" lon="2.26507">
        <ele>96.2</ele>
        <time>2015-02-02T21:00:01.564Z</time>
      </trkpt>
      <trkpt lat="48.84322" lon="2.26509">
        <ele>96.2</ele>
        <time>2015-02-02T21:00:02.575Z</time>
      </trkpt>
      <trkpt lat="48.84329" lon="2.26513">
        <ele>96.1</ele>
        <time>2015-02-02T21:00:03.603Z</time>
      </trkpt>
      <trkpt lat="48.84335" lon="2.26517">
        <ele>95.9</ele>
        <time>2015-02-02T21:00:04.620Z</time>
      </trkpt>
      <trkpt lat="48.8434" lon="2.2652">
        <ele>96.1</ele>
        <time>2015-02-02T21:00:05.510Z</time>
      </trkpt>
      <trkpt lat="48.84345" lon="2.26524">
        <ele>96</ele>
        <time>2015-02-02T21:00:06.536Z</time>
      </trkpt>
      <trkpt lat="48.84349" lon="2.26527">
        <ele>96</ele>
        <time>2015-02-02T21:00:08.471Z</time>
      </trkpt>
      <trkpt lat="48.84354" lon="2.2653">
        <ele>96.1</ele>
        <time>2015-02-02T21:00:08.547Z</time>
      </trkpt>
      <trkpt lat="48.84358" lon="2.26535">
        <ele>96.2</ele>
        <time>2015-02-02T21:00:09.573Z</time>
      </trkpt>
      <trkpt lat="48.84362" lon="2.26539">
        <ele>96.2</ele>
        <time>2015-02-02T21:00:10.572Z</time>
      </trkpt>
      <trkpt lat="48.84366" lon="2.26544">
        <ele>96.3</ele>
        <time>2015-02-02T21:00:11.573Z</time>
      </trkpt>
      <trkpt lat="48.84369" lon="2.26549">
        <ele>96.4</ele>
        <time>2015-02-02T21:00:12.586Z</time>
      </trkpt>
      <trkpt lat="48.84373" lon="2.26553">
        <ele>96.5</ele>
        <time>2015-02-02T21:00:13.602Z</time>
      </trkpt>
      <trkpt lat="48.84379" lon="2.26558">
        <ele>96.2</ele>
        <time>2015-02-02T21:00:14.608Z</time>
      </trkpt>
      <trkpt lat="48.84389" lon="2.26565">
        <ele>93.9</ele>
        <time>2015-02-02T21:00:15.618Z</time>
      </trkpt>
      <trkpt lat="48.84398" lon="2.26573">
        <ele>91.6</ele>
        <time>2015-02-02T21:00:16.533Z</time>
      </trkpt>
      <trkpt lat="48.84406" lon="2.2658">
        <ele>90.2</ele>
        <time>2015-02-02T21:00:17.553Z</time>
      </trkpt>
      <trkpt lat="48.84413" lon="2.26586">
        <ele>89.1</ele>
        <time>2015-02-02T21:00:18.568Z</time>
      </trkpt>
      <trkpt lat="48.84422" lon="2.26593">
        <ele>89.4</ele>
        <time>2015-02-02T21:00:19.579Z</time>
      </trkpt>
      <trkpt lat="48.84428" lon="2.26598">
        <ele>89</ele>
        <time>2015-02-02T21:00:20.603Z</time>
      </trkpt>
      <trkpt lat="48.84436" lon="2.26604">
        <ele>89.3</ele>
        <time>2015-02-02T21:00:21.609Z</time>
      </trkpt>
      <trkpt lat="48.84444" lon="2.2661">
        <ele>89.3</ele>
        <time>2015-02-02T21:00:22.538Z</time>
      </trkpt>
      <trkpt lat="48.8445" lon="2.26615">
        <ele>89.1</ele>
        <time>2015-02-02T21:00:23.514Z</time>
      </trkpt>
      <trkpt lat="48.84456" lon="2.26619">
        <ele>88.9</ele>
        <time>2015-02-02T21:00:24.536Z</time>
      </trkpt>
      <trkpt lat="48.84464" lon="2.26624">
        <ele>88.8</ele>
        <time>2015-02-02T21:00:25.548Z</time>
      </trkpt>
      <trkpt lat="48.84467" lon="2.26631">
        <ele>88.9</ele>
        <time>2015-02-02T21:00:26.572Z</time>
      </trkpt>
      <trkpt lat="48.8447" lon="2.26637">
        <ele>88.7</ele>
        <time>2015-02-02T21:00:27.580Z</time>
      </trkpt>
      <trkpt lat="48.84473" lon="2.26643">
        <ele>88.6</ele>
        <time>2015-02-02T21:00:28.577Z</time>
      </trkpt>
      <trkpt lat="48.84479" lon="2.26653">
        <ele>88.4</ele>
        <time>2015-02-02T21:00:30.513Z</time>
      </trkpt>
      <trkpt lat="48.84483" lon="2.26658">
        <ele>88.4</ele>
        <time>2015-02-02T21:00:31.547Z</time>
      </trkpt>
      <trkpt lat="48.84486" lon="2.26663">
        <ele>88.3</ele>
        <time>2015-02-02T21:00:32.584Z</time>
      </trkpt>
      <trkpt lat="48.84489" lon="2.26668">
        <ele>88.2</ele>
        <time>2015-02-02T21:00:33.594Z</time>
      </trkpt>
      <trkpt lat="48.84493" lon="2.26673">
        <ele>87.9</ele>
        <time>2015-02-02T21:00:34.543Z</time>
      </trkpt>
      <trkpt lat="48.84496" lon="2.26677">
        <ele>87.7</ele>
        <time>2015-02-02T21:00:35.669Z</time>
      </trkpt>
      <trkpt lat="48.84501" lon="2.26685">
        <ele>87.1</ele>
        <time>2015-02-02T21:00:37.624Z</time>
      </trkpt>
      <trkpt lat="48.84504" lon="2.26688">
        <ele>86.5</ele>
        <time>2015-02-02T21:00:38.635Z</time>
      </trkpt>
      <trkpt lat="48.84507" lon="2.26696">
        <ele>86.6</ele>
        <time>2015-02-02T21:00:40.558Z</time>
      </trkpt>
      <trkpt lat="48.84508" lon="2.267">
        <ele>86.5</ele>
        <time>2015-02-02T21:00:41.580Z</time>
      </trkpt>
      <trkpt lat="48.8451" lon="2.26708">
        <ele>86.2</ele>
        <time>2015-02-02T21:00:43.600Z</time>
      </trkpt>
      <trkpt lat="48.84512" lon="2.26713">
        <ele>86.1</ele>
        <time>2015-02-02T21:00:44.619Z</time>
      </trkpt>
      <trkpt lat="48.84515" lon="2.26723">
        <ele>85.7</ele>
        <time>2015-02-02T21:00:46.530Z</time>
      </trkpt>
      <trkpt lat="48.84519" lon="2.26727">
        <ele>85.9</ele>
        <time>2015-02-02T21:00:47.549Z</time>
      </trkpt>
      <trkpt lat="48.84523" lon="2.26737">
        <ele>85.9</ele>
        <time>2015-02-02T21:00:50.555Z</time>
      </trkpt>
      <trkpt lat="48.84524" lon="2.2674">
        <ele>86</ele>
        <time>2015-02-02T21:00:51.609Z</time>
      </trkpt>
      <trkpt lat="48.8453" lon="2.26746">
        <ele>86.2</ele>
        <time>2015-02-02T21:00:54.564Z</time>
      </trkpt>
      <trkpt lat="48.84532" lon="2.26748">
        <ele>86.4</ele>
        <time>2015-02-02T21:00:55.578Z</time>
      </trkpt>
      <trkpt lat="48.84539" lon="2.2675">
        <ele>87.2</ele>
        <time>2015-02-02T21:00:58.535Z</time>
      </trkpt>
      <trkpt lat="48.84541" lon="2.26753">
        <ele>87.4</ele>
        <time>2015-02-02T21:00:59.559Z</time>
      </trkpt>
      <trkpt lat="48.84546" lon="2.2676">
        <ele>86.8</ele>
        <time>2015-02-02T21:01:01.566Z</time>
      </trkpt>
      <trkpt lat="48.84547" lon="2.26763">
        <ele>87.1</ele>
        <time>2015-02-02T21:01:02.571Z</time>
      </trkpt>
      <trkpt lat="48.84553" lon="2.26772">
        <ele>88.3</ele>
        <time>2015-02-02T21:01:05.703Z</time>
      </trkpt>
      <trkpt lat="48.84553" lon="2.26775">
        <ele>88.5</ele>
        <time>2015-02-02T21:01:06.660Z</time>
      </trkpt>
      <trkpt lat="48.84558" lon="2.26784">
        <ele>88.8</ele>
        <time>2015-02-02T21:01:09.674Z</time>
      </trkpt>
      <trkpt lat="48.8456" lon="2.26789">
        <ele>89.1</ele>
        <time>2015-02-02T21:01:10.533Z</time>
      </trkpt>
      <trkpt lat="48.84562" lon="2.26801">
        <ele>87.9</ele>
        <time>2015-02-02T21:01:12.564Z</time>
      </trkpt>
      <trkpt lat="48.84565" lon="2.26807">
        <ele>87.4</ele>
        <time>2015-02-02T21:01:13.620Z</time>
      </trkpt>
      <trkpt lat="48.84568" lon="2.26815">
        <ele>87.2</ele>
        <time>2015-02-02T21:01:15.576Z</time>
      </trkpt>
      <trkpt lat="48.8457" lon="2.26819">
        <ele>87.5</ele>
        <time>2015-02-02T21:01:16.573Z</time>
      </trkpt>
      <trkpt lat="48.84574" lon="2.26825">
        <ele>87.8</ele>
        <time>2015-02-02T21:01:18.541Z</time>
      </trkpt>
      <trkpt lat="48.84577" lon="2.26829">
        <ele>88</ele>
        <time>2015-02-02T21:01:19.560Z</time>
      </trkpt>
      <trkpt lat="48.8458" lon="2.26838">
        <ele>88.4</ele>
        <time>2015-02-02T21:01:21.695Z</time>
      </trkpt>
      <trkpt lat="48.84583" lon="2.26844">
        <ele>88.8</ele>
        <time>2015-02-02T21:01:22.544Z</time>
      </trkpt>
      <trkpt lat="48.84587" lon="2.26854">
        <ele>89.4</ele>
        <time>2015-02-02T21:01:24.564Z</time>
      </trkpt>
      <trkpt lat="48.84589" lon="2.2686">
        <ele>89.5</ele>
        <time>2015-02-02T21:01:25.610Z</time>
      </trkpt>
      <trkpt lat="48.84592" lon="2.26872">
        <ele>89.8</ele>
        <time>2015-02-02T21:01:27.569Z</time>
      </trkpt>
      <trkpt lat="48.84597" lon="2.2688">
        <ele>88.2</ele>
        <time>2015-02-02T21:01:28.572Z</time>
      </trkpt>
      <trkpt lat="48.84601" lon="2.26888">
        <ele>87.1</ele>
        <time>2015-02-02T21:01:29.589Z</time>
      </trkpt>
      <trkpt lat="48.84603" lon="2.26894">
        <ele>87.2</ele>
        <time>2015-02-02T21:01:30.599Z</time>
      </trkpt>
      <trkpt lat="48.84602" lon="2.26903">
        <ele>86.4</ele>
        <time>2015-02-02T21:01:31.603Z</time>
      </trkpt>
      <trkpt lat="48.84603" lon="2.2691">
        <ele>86.2</ele>
        <time>2015-02-02T21:01:32.552Z</time>
      </trkpt>
      <trkpt lat="48.84605" lon="2.26917">
        <ele>86.1</ele>
        <time>2015-02-02T21:01:33.639Z</time>
      </trkpt>
      <trkpt lat="48.84607" lon="2.26925">
        <ele>86</ele>
        <time>2015-02-02T21:01:34.536Z</time>
      </trkpt>
      <trkpt lat="48.84608" lon="2.26932">
        <ele>85.6</ele>
        <time>2015-02-02T21:01:35.561Z</time>
      </trkpt>
      <trkpt lat="48.84612" lon="2.2694">
        <ele>84.6</ele>
        <time>2015-02-02T21:01:36.597Z</time>
      </trkpt>
      <trkpt lat="48.84615" lon="2.26948">
        <ele>83.8</ele>
        <time>2015-02-02T21:01:37.551Z</time>
      </trkpt>
      <trkpt lat="48.84619" lon="2.26954">
        <ele>83.2</ele>
        <time>2015-02-02T21:01:38.568Z</time>
      </trkpt>
      <trkpt lat="48.84623" lon="2.26966">
        <ele>83.3</ele>
        <time>2015-02-02T21:01:40.567Z</time>
      </trkpt>
      <trkpt lat="48.84624" lon="2.26971">
        <ele>83.6</ele>
        <time>2015-02-02T21:01:41.573Z</time>
      </trkpt>
      <trkpt lat="48.84626" lon="2.26983">
        <ele>83.6</ele>
        <time>2015-02-02T21:01:43.593Z</time>
      </trkpt>
      <trkpt lat="48.84628" lon="2.26988">
        <ele>83.5</ele>
        <time>2015-02-02T21:01:44.595Z</time>
      </trkpt>
      <trkpt lat="48.84633" lon="2.26999">
        <ele>85.1</ele>
        <time>2015-02-02T21:01:47.544Z</time>
      </trkpt>
      <trkpt lat="48.84636" lon="2.27005">
        <ele>86.4</ele>
        <time>2015-02-02T21:01:48.635Z</time>
      </trkpt>
      <trkpt lat="48.84641" lon="2.27015">
        <ele>87.7</ele>
        <time>2015-02-02T21:01:50.532Z</time>
      </trkpt>
      <trkpt lat="48.84642" lon="2.27022">
        <ele>88.9</ele>
        <time>2015-02-02T21:01:51.600Z</time>
      </trkpt>
      <trkpt lat="48.84643" lon="2.2703">
        <ele>89.1</ele>
        <time>2015-02-02T21:01:52.625Z</time>
      </trkpt>
      <trkpt lat="48.84645" lon="2.27038">
        <ele>89.5</ele>
        <time>2015-02-02T21:01:53.545Z</time>
      </trkpt>
      <trkpt lat="48.84645" lon="2.27048">
        <ele>89</ele>
        <time>2015-02-02T21:01:54.549Z</time>
      </trkpt>
      <trkpt lat="48.84648" lon="2.27057">
        <ele>88.6</ele>
        <time>2015-02-02T21:01:55.555Z</time>
      </trkpt>
      <trkpt lat="48.84649" lon="2.27064">
        <ele>88.4</ele>
        <time>2015-02-02T21:01:56.565Z</time>
      </trkpt>
      <trkpt lat="48.8465" lon="2.27071">
        <ele>88.5</ele>
        <time>2015-02-02T21:01:57.574Z</time>
      </trkpt>
      <trkpt lat="48.84653" lon="2.27078">
        <ele>88.5</ele>
        <time>2015-02-02T21:01:58.593Z</time>
      </trkpt>
      <trkpt lat="48.84655" lon="2.27083">
        <ele>88.4</ele>
        <time>2015-02-02T21:01:59.599Z</time>
      </trkpt>
      <trkpt lat="48.84658" lon="2.27088">
        <ele>88.4</ele>
        <time>2015-02-02T21:02:00.601Z</time>
      </trkpt>
      <trkpt lat="48.84661" lon="2.27094">
        <ele>88.3</ele>
        <time>2015-02-02T21:02:01.599Z</time>
      </trkpt>
      <trkpt lat="48.84665" lon="2.27105">
        <ele>88.3</ele>
        <time>2015-02-02T21:02:03.571Z</time>
      </trkpt>
      <trkpt lat="48.84667" lon="2.27111">
        <ele>88.4</ele>
        <time>2015-02-02T21:02:04.577Z</time>
      </trkpt>
      <trkpt lat="48.84668" lon="2.27117">
        <ele>88.5</ele>
        <time>2015-02-02T21:02:05.535Z</time>
      </trkpt>
      <trkpt lat="48.84671" lon="2.27123">
        <ele>88.6</ele>
        <time>2015-02-02T21:02:06.538Z</time>
      </trkpt>
      <trkpt lat="48.84675" lon="2.2713">
        <ele>89</ele>
        <time>2015-02-02T21:02:07.538Z</time>
      </trkpt>
      <trkpt lat="48.84679" lon="2.27136">
        <ele>89.5</ele>
        <time>2015-02-02T21:02:08.546Z</time>
      </trkpt>
      <trkpt lat="48.84683" lon="2.27143">
        <ele>90</ele>
        <time>2015-02-02T21:02:09.565Z</time>
      </trkpt>
      <trkpt lat="48.84687" lon="2.27148">
        <ele>90.3</ele>
        <time>2015-02-02T21:02:10.579Z</time>
      </trkpt>
      <trkpt lat="48.84692" lon="2.27155">
        <ele>90.6</ele>
        <time>2015-02-02T21:02:11.587Z</time>
      </trkpt>
      <trkpt lat="48.84695" lon="2.27162">
        <ele>90.5</ele>
        <time>2015-02-02T21:02:12.597Z</time>
      </trkpt>
      <trkpt lat="48.84699" lon="2.2717">
        <ele>90.2</ele>
        <time>2015-02-02T21:02:13.608Z</time>
      </trkpt>
      <trkpt lat="48.84702" lon="2.27178">
        <ele>89.9</ele>
        <time>2015-02-02T21:02:14.615Z</time>
      </trkpt>
      <trkpt lat="48.84705" lon="2.27187">
        <ele>89.8</ele>
        <time>2015-02-02T21:02:15.678Z</time>
      </trkpt>
      <trkpt lat="48.84708" lon="2.27195">
        <ele>89.6</ele>
        <time>2015-02-02T21:02:16.543Z</time>
      </trkpt>
      <trkpt lat="48.84712" lon="2.27208">
        <ele>89.4</ele>
        <time>2015-02-02T21:02:17.598Z</time>
      </trkpt>
      <trkpt lat="48.84714" lon="2.27217">
        <ele>89.2</ele>
        <time>2015-02-02T21:02:18.609Z</time>
      </trkpt>
      <trkpt lat="48.84715" lon="2.27225">
        <ele>89.2</ele>
        <time>2015-02-02T21:02:19.616Z</time>
      </trkpt>
      <trkpt lat="48.84717" lon="2.27235">
        <ele>89</ele>
        <time>2015-02-02T21:02:20.524Z</time>
      </trkpt>
      <trkpt lat="48.84718" lon="2.27243">
        <ele>88.9</ele>
        <time>2015-02-02T21:02:21.579Z</time>
      </trkpt>
      <trkpt lat="48.8472" lon="2.27251">
        <ele>88.9</ele>
        <time>2015-02-02T21:02:22.520Z</time>
      </trkpt>
      <trkpt lat="48.84721" lon="2.27258">
        <ele>88.9</ele>
        <time>2015-02-02T21:02:23.574Z</time>
      </trkpt>
      <trkpt lat="48.84723" lon="2.27264">
        <ele>88.8</ele>
        <time>2015-02-02T21:02:24.575Z</time>
      </trkpt>
      <trkpt lat="48.84725" lon="2.27271">
        <ele>88</ele>
        <time>2015-02-02T21:02:25.600Z</time>
      </trkpt>
      <trkpt lat="48.84728" lon="2.27278">
        <ele>87.4</ele>
        <time>2015-02-02T21:02:26.633Z</time>
      </trkpt>
      <trkpt lat="48.84731" lon="2.27285">
        <ele>86.6</ele>
        <time>2015-02-02T21:02:27.650Z</time>
      </trkpt>
      <trkpt lat="48.84734" lon="2.27292">
        <ele>85.9</ele>
        <time>2015-02-02T21:02:28.545Z</time>
      </trkpt>
      <trkpt lat="48.84736" lon="2.273">
        <ele>85.2</ele>
        <time>2015-02-02T21:02:29.553Z</time>
      </trkpt>
      <trkpt lat="48.84738" lon="2.27312">
        <ele>84.9</ele>
        <time>2015-02-02T21:02:30.600Z</time>
      </trkpt>
      <trkpt lat="48.84738" lon="2.27323">
        <ele>84.8</ele>
        <time>2015-02-02T21:02:31.602Z</time>
      </trkpt>
      <trkpt lat="48.84739" lon="2.27332">
        <ele>84.9</ele>
        <time>2015-02-02T21:02:32.595Z</time>
      </trkpt>
      <trkpt lat="48.84739" lon="2.27338">
        <ele>84.7</ele>
        <time>2015-02-02T21:02:33.626Z</time>
      </trkpt>
      <trkpt lat="48.84738" lon="2.27338">
        <ele>84.7</ele>
        <time>2015-02-02T21:02:34.630Z</time>
      </trkpt>
      <trkpt lat="48.84738" lon="2.2734">
        <ele>84.5</ele>
        <time>2015-02-02T21:02:35.640Z</time>
      </trkpt>
      <trkpt lat="48.84739" lon="2.27341">
        <ele>84.5</ele>
        <time>2015-02-02T21:02:36.536Z</time>
      </trkpt>
      <trkpt lat="48.84738" lon="2.27344">
        <ele>84.5</ele>
        <time>2015-02-02T21:02:37.531Z</time>
      </trkpt>
      <trkpt lat="48.84738" lon="2.27347">
        <ele>84.6</ele>
        <time>2015-02-02T21:02:38.554Z</time>
      </trkpt>
      <trkpt lat="48.84739" lon="2.27348">
        <ele>84</ele>
        <time>2015-02-02T21:02:40.543Z</time>
      </trkpt>
      <trkpt lat="48.8474" lon="2.27353">
        <ele>83.7</ele>
        <time>2015-02-02T21:02:41.554Z</time>
      </trkpt>
      <trkpt lat="48.84739" lon="2.27364">
        <ele>83.8</ele>
        <time>2015-02-02T21:02:44.624Z</time>
      </trkpt>
      <trkpt lat="48.8474" lon="2.27367">
        <ele>83.8</ele>
        <time>2015-02-02T21:02:45.646Z</time>
      </trkpt>
      <trkpt lat="48.8474" lon="2.2738">
        <ele>83.7</ele>
        <time>2015-02-02T21:02:49.565Z</time>
      </trkpt>
      <trkpt lat="48.84741" lon="2.27383">
        <ele>83.8</ele>
        <time>2015-02-02T21:02:50.579Z</time>
      </trkpt>
      <trkpt lat="48.84747" lon="2.27391">
        <ele>83.6</ele>
        <time>2015-02-02T21:02:54.552Z</time>
      </trkpt>
      <trkpt lat="48.84749" lon="2.27393">
        <ele>83.6</ele>
        <time>2015-02-02T21:02:55.573Z</time>
      </trkpt>
      <trkpt lat="48.84756" lon="2.27401">
        <ele>84</ele>
        <time>2015-02-02T21:02:57.633Z</time>
      </trkpt>
      <trkpt lat="48.84759" lon="2.27404">
        <ele>84.3</ele>
        <time>2015-02-02T21:02:58.548Z</time>
      </trkpt>
      <trkpt lat="48.84766" lon="2.2741">
        <ele>84.6</ele>
        <time>2015-02-02T21:03:00.600Z</time>
      </trkpt>
      <trkpt lat="48.84771" lon="2.27414">
        <ele>84.5</ele>
        <time>2015-02-02T21:03:01.619Z</time>
      </trkpt>
      <trkpt lat="48.84779" lon="2.2742">
        <ele>84.5</ele>
        <time>2015-02-02T21:03:03.576Z</time>
      </trkpt>
      <trkpt lat="48.84782" lon="2.27423">
        <ele>84.8</ele>
        <time>2015-02-02T21:03:04.580Z</time>
      </trkpt>
      <trkpt lat="48.84788" lon="2.27427">
        <ele>85.3</ele>
        <time>2015-02-02T21:03:06.524Z</time>
      </trkpt>
      <trkpt lat="48.84792" lon="2.27429">
        <ele>85.4</ele>
        <time>2015-02-02T21:03:07.535Z</time>
      </trkpt>
      <trkpt lat="48.84797" lon="2.27434">
        <ele>85.7</ele>
        <time>2015-02-02T21:03:09.578Z</time>
      </trkpt>
      <trkpt lat="48.848" lon="2.27437">
        <ele>85.8</ele>
        <time>2015-02-02T21:03:10.588Z</time>
      </trkpt>
      <trkpt lat="48.84805" lon="2.2744">
        <ele>86</ele>
        <time>2015-02-02T21:03:11.507Z</time>
      </trkpt>
      <trkpt lat="48.84809" lon="2.27445">
        <ele>86.1</ele>
        <time>2015-02-02T21:03:12.563Z</time>
      </trkpt>
      <trkpt lat="48.84812" lon="2.27451">
        <ele>86.2</ele>
        <time>2015-02-02T21:03:13.546Z</time>
      </trkpt>
      <trkpt lat="48.84814" lon="2.27457">
        <ele>86.3</ele>
        <time>2015-02-02T21:03:14.556Z</time>
      </trkpt>
      <trkpt lat="48.84817" lon="2.27463">
        <ele>86.5</ele>
        <time>2015-02-02T21:03:15.599Z</time>
      </trkpt>
      <trkpt lat="48.8482" lon="2.2747">
        <ele>86.6</ele>
        <time>2015-02-02T21:03:16.527Z</time>
      </trkpt>
      <trkpt lat="48.84822" lon="2.27476">
        <ele>86.7</ele>
        <time>2015-02-02T21:03:17.526Z</time>
      </trkpt>
      <trkpt lat="48.84825" lon="2.27483">
        <ele>86.7</ele>
        <time>2015-02-02T21:03:18.537Z</time>
      </trkpt>
      <trkpt lat="48.84828" lon="2.2749">
        <ele>86.9</ele>
        <time>2015-02-02T21:03:19.550Z</time>
      </trkpt>
      <trkpt lat="48.84833" lon="2.27497">
        <ele>86.8</ele>
        <time>2015-02-02T21:03:20.553Z</time>
      </trkpt>
      <trkpt lat="48.84838" lon="2.27504">
        <ele>86.7</ele>
        <time>2015-02-02T21:03:21.593Z</time>
      </trkpt>
      <trkpt lat="48.84845" lon="2.2751">
        <ele>87.1</ele>
        <time>2015-02-02T21:03:22.622Z</time>
      </trkpt>
      <trkpt lat="48.84852" lon="2.27516">
        <ele>87.4</ele>
        <time>2015-02-02T21:03:23.611Z</time>
      </trkpt>
      <trkpt lat="48.84857" lon="2.27523">
        <ele>87.6</ele>
        <time>2015-02-02T21:03:24.627Z</time>
      </trkpt>
      <trkpt lat="48.84862" lon="2.27527">
        <ele>88</ele>
        <time>2015-02-02T21:03:25.548Z</time>
      </trkpt>
      <trkpt lat="48.84871" lon="2.2753">
        <ele>88.4</ele>
        <time>2015-02-02T21:03:26.594Z</time>
      </trkpt>
      <trkpt lat="48.84882" lon="2.27531">
        <ele>89.1</ele>
        <time>2015-02-02T21:03:27.567Z</time>
      </trkpt>
      <trkpt lat="48.84891" lon="2.27533">
        <ele>89.8</ele>
        <time>2015-02-02T21:03:28.569Z</time>
      </trkpt>
      <trkpt lat="48.84902" lon="2.27538">
        <ele>89.8</ele>
        <time>2015-02-02T21:03:29.575Z</time>
      </trkpt>
      <trkpt lat="48.84913" lon="2.27544">
        <ele>90.6</ele>
        <time>2015-02-02T21:03:30.597Z</time>
      </trkpt>
      <trkpt lat="48.84923" lon="2.2755">
        <ele>91.2</ele>
        <time>2015-02-02T21:03:31.611Z</time>
      </trkpt>
      <trkpt lat="48.84933" lon="2.27556">
        <ele>91.9</ele>
        <time>2015-02-02T21:03:32.531Z</time>
      </trkpt>
      <trkpt lat="48.84944" lon="2.27561">
        <ele>92.3</ele>
        <time>2015-02-02T21:03:33.635Z</time>
      </trkpt>
      <trkpt lat="48.84954" lon="2.27568">
        <ele>92.5</ele>
        <time>2015-02-02T21:03:34.650Z</time>
      </trkpt>
      <trkpt lat="48.84964" lon="2.27572">
        <ele>92.7</ele>
        <time>2015-02-02T21:03:35.528Z</time>
      </trkpt>
      <trkpt lat="48.84973" lon="2.27577">
        <ele>93.5</ele>
        <time>2015-02-02T21:03:36.533Z</time>
      </trkpt>
      <trkpt lat="48.8498" lon="2.27582">
        <ele>94</ele>
        <time>2015-02-02T21:03:37.579Z</time>
      </trkpt>
      <trkpt lat="48.84988" lon="2.27587">
        <ele>94.7</ele>
        <time>2015-02-02T21:03:38.591Z</time>
      </trkpt>
      <trkpt lat="48.84994" lon="2.27591">
        <ele>94.9</ele>
        <time>2015-02-02T21:03:39.610Z</time>
      </trkpt>
      <trkpt lat="48.84999" lon="2.27596">
        <ele>95.5</ele>
        <time>2015-02-02T21:03:40.623Z</time>
      </trkpt>
      <trkpt lat="48.85005" lon="2.27601">
        <ele>96</ele>
        <time>2015-02-02T21:03:41.536Z</time>
      </trkpt>
      <trkpt lat="48.8501" lon="2.27608">
        <ele>96.3</ele>
        <time>2015-02-02T21:03:42.546Z</time>
      </trkpt>
      <trkpt lat="48.85012" lon="2.27616">
        <ele>96.9</ele>
        <time>2015-02-02T21:03:43.556Z</time>
      </trkpt>
      <trkpt lat="48.85015" lon="2.27623">
        <ele>97.5</ele>
        <time>2015-02-02T21:03:44.563Z</time>
      </trkpt>
      <trkpt lat="48.85019" lon="2.27631">
        <ele>97.3</ele>
        <time>2015-02-02T21:03:45.592Z</time>
      </trkpt>
      <trkpt lat="48.85024" lon="2.27639">
        <ele>96.2</ele>
        <time>2015-02-02T21:03:46.594Z</time>
      </trkpt>
      <trkpt lat="48.8503" lon="2.27648">
        <ele>95.8</ele>
        <time>2015-02-02T21:03:47.614Z</time>
      </trkpt>
      <trkpt lat="48.85037" lon="2.27656">
        <ele>95.2</ele>
        <time>2015-02-02T21:03:48.633Z</time>
      </trkpt>
      <trkpt lat="48.85044" lon="2.27664">
        <ele>94.9</ele>
        <time>2015-02-02T21:03:49.547Z</time>
      </trkpt>
      <trkpt lat="48.85049" lon="2.27672">
        <ele>95</ele>
        <time>2015-02-02T21:03:50.539Z</time>
      </trkpt>
      <trkpt lat="48.85054" lon="2.27681">
        <ele>95.2</ele>
        <time>2015-02-02T21:03:51.594Z</time>
      </trkpt>
      <trkpt lat="48.85058" lon="2.27689">
        <ele>95.1</ele>
        <time>2015-02-02T21:03:52.642Z</time>
      </trkpt>
      <trkpt lat="48.85063" lon="2.27698">
        <ele>95.1</ele>
        <time>2015-02-02T21:03:53.546Z</time>
      </trkpt>
      <trkpt lat="48.85069" lon="2.27706">
        <ele>94.5</ele>
        <time>2015-02-02T21:03:54.569Z</time>
      </trkpt>
      <trkpt lat="48.85074" lon="2.27714">
        <ele>93.6</ele>
        <time>2015-02-02T21:03:55.584Z</time>
      </trkpt>
      <trkpt lat="48.85079" lon="2.2772">
        <ele>92.5</ele>
        <time>2015-02-02T21:03:56.602Z</time>
      </trkpt>
      <trkpt lat="48.85084" lon="2.27727">
        <ele>92.1</ele>
        <time>2015-02-02T21:03:57.607Z</time>
      </trkpt>
      <trkpt lat="48.85088" lon="2.27734">
        <ele>91.5</ele>
        <time>2015-02-02T21:03:58.622Z</time>
      </trkpt>
      <trkpt lat="48.85093" lon="2.27741">
        <ele>90.6</ele>
        <time>2015-02-02T21:03:59.636Z</time>
      </trkpt>
      <trkpt lat="48.85096" lon="2.27748">
        <ele>89.9</ele>
        <time>2015-02-02T21:04:00.529Z</time>
      </trkpt>
      <trkpt lat="48.851" lon="2.27754">
        <ele>89.4</ele>
        <time>2015-02-02T21:04:01.590Z</time>
      </trkpt>
      <trkpt lat="48.85105" lon="2.27765">
        <ele>89.1</ele>
        <time>2015-02-02T21:04:03.608Z</time>
      </trkpt>
      <trkpt lat="48.85107" lon="2.27769">
        <ele>88.3</ele>
        <time>2015-02-02T21:04:04.676Z</time>
      </trkpt>
      <trkpt lat="48.85111" lon="2.27778">
        <ele>88.1</ele>
        <time>2015-02-02T21:04:06.538Z</time>
      </trkpt>
      <trkpt lat="48.85112" lon="2.27783">
        <ele>87.4</ele>
        <time>2015-02-02T21:04:07.616Z</time>
      </trkpt>
      <trkpt lat="48.85117" lon="2.27792">
        <ele>87.7</ele>
        <time>2015-02-02T21:04:09.588Z</time>
      </trkpt>
      <trkpt lat="48.8512" lon="2.27795">
        <ele>87.8</ele>
        <time>2015-02-02T21:04:10.626Z</time>
      </trkpt>
      <trkpt lat="48.85126" lon="2.27804">
        <ele>87.5</ele>
        <time>2015-02-02T21:04:12.535Z</time>
      </trkpt>
      <trkpt lat="48.85128" lon="2.27808">
        <ele>87.4</ele>
        <time>2015-02-02T21:04:13.549Z</time>
      </trkpt>
      <trkpt lat="48.85131" lon="2.27819">
        <ele>85.6</ele>
        <time>2015-02-02T21:04:16.543Z</time>
      </trkpt>
      <trkpt lat="48.8513" lon="2.27823">
        <ele>85.2</ele>
        <time>2015-02-02T21:04:17.556Z</time>
      </trkpt>
      <trkpt lat="48.85132" lon="2.27834">
        <ele>84.9</ele>
        <time>2015-02-02T21:04:20.637Z</time>
      </trkpt>
      <trkpt lat="48.85134" lon="2.27837">
        <ele>84.5</ele>
        <time>2015-02-02T21:04:21.590Z</time>
      </trkpt>
      <trkpt lat="48.85132" lon="2.2785">
        <ele>83.5</ele>
        <time>2015-02-02T21:04:24.641Z</time>
      </trkpt>
      <trkpt lat="48.85133" lon="2.27853">
        <ele>82.6</ele>
        <time>2015-02-02T21:04:25.555Z</time>
      </trkpt>
      <trkpt lat="48.85136" lon="2.27863">
        <ele>81.4</ele>
        <time>2015-02-02T21:04:29.639Z</time>
      </trkpt>
      <trkpt lat="48.85138" lon="2.27865">
        <ele>81.4</ele>
        <time>2015-02-02T21:04:30.559Z</time>
      </trkpt>
      <trkpt lat="48.85141" lon="2.27876">
        <ele>76.6</ele>
        <time>2015-02-02T21:04:59.623Z</time>
      </trkpt>
      <trkpt lat="48.85142" lon="2.27882">
        <ele>77</ele>
        <time>2015-02-02T21:05:00.650Z</time>
      </trkpt>
      <trkpt lat="48.85146" lon="2.27886">
        <ele>77.8</ele>
        <time>2015-02-02T21:05:01.557Z</time>
      </trkpt>
      <trkpt lat="48.8515" lon="2.27891">
        <ele>78.6</ele>
        <time>2015-02-02T21:05:02.589Z</time>
      </trkpt>
      <trkpt lat="48.85155" lon="2.27897">
        <ele>79.3</ele>
        <time>2015-02-02T21:05:03.592Z</time>
      </trkpt>
      <trkpt lat="48.85162" lon="2.27902">
        <ele>80.1</ele>
        <time>2015-02-02T21:05:04.604Z</time>
      </trkpt>
      <trkpt lat="48.85168" lon="2.27906">
        <ele>80.8</ele>
        <time>2015-02-02T21:05:05.606Z</time>
      </trkpt>
      <trkpt lat="48.85175" lon="2.27911">
        <ele>81.4</ele>
        <time>2015-02-02T21:05:06.538Z</time>
      </trkpt>
      <trkpt lat="48.85181" lon="2.27918">
        <ele>81.5</ele>
        <time>2015-02-02T21:05:07.532Z</time>
      </trkpt>
      <trkpt lat="48.85186" lon="2.27926">
        <ele>81.7</ele>
        <time>2015-02-02T21:05:08.548Z</time>
      </trkpt>
      <trkpt lat="48.85191" lon="2.27933">
        <ele>81.6</ele>
        <time>2015-02-02T21:05:09.569Z</time>
      </trkpt>
      <trkpt lat="48.85196" lon="2.2794">
        <ele>81.9</ele>
        <time>2015-02-02T21:05:10.580Z</time>
      </trkpt>
      <trkpt lat="48.85199" lon="2.27948">
        <ele>82.2</ele>
        <time>2015-02-02T21:05:11.607Z</time>
      </trkpt>
      <trkpt lat="48.85202" lon="2.27954">
        <ele>82.2</ele>
        <time>2015-02-02T21:05:12.532Z</time>
      </trkpt>
      <trkpt lat="48.85203" lon="2.2796">
        <ele>82.4</ele>
        <time>2015-02-02T21:05:13.517Z</time>
      </trkpt>
      <trkpt lat="48.85206" lon="2.27967">
        <ele>82.7</ele>
        <time>2015-02-02T21:05:14.505Z</time>
      </trkpt>
      <trkpt lat="48.85209" lon="2.27974">
        <ele>83.1</ele>
        <time>2015-02-02T21:05:15.612Z</time>
      </trkpt>
      <trkpt lat="48.85211" lon="2.27981">
        <ele>83.5</ele>
        <time>2015-02-02T21:05:16.626Z</time>
      </trkpt>
      <trkpt lat="48.85214" lon="2.27988">
        <ele>83.7</ele>
        <time>2015-02-02T21:05:17.551Z</time>
      </trkpt>
      <trkpt lat="48.85218" lon="2.27995">
        <ele>83.9</ele>
        <time>2015-02-02T21:05:18.604Z</time>
      </trkpt>
      <trkpt lat="48.85223" lon="2.28002">
        <ele>84.2</ele>
        <time>2015-02-02T21:05:19.626Z</time>
      </trkpt>
      <trkpt lat="48.85229" lon="2.28009">
        <ele>84.1</ele>
        <time>2015-02-02T21:05:20.544Z</time>
      </trkpt>
      <trkpt lat="48.85236" lon="2.28016">
        <ele>83.9</ele>
        <time>2015-02-02T21:05:21.569Z</time>
      </trkpt>
      <trkpt lat="48.85245" lon="2.28025">
        <ele>82.5</ele>
        <time>2015-02-02T21:05:22.573Z</time>
      </trkpt>
      <trkpt lat="48.8525" lon="2.28033">
        <ele>82.2</ele>
        <time>2015-02-02T21:05:23.587Z</time>
      </trkpt>
      <trkpt lat="48.85254" lon="2.2804">
        <ele>81.8</ele>
        <time>2015-02-02T21:05:24.594Z</time>
      </trkpt>
      <trkpt lat="48.85258" lon="2.28048">
        <ele>81.9</ele>
        <time>2015-02-02T21:05:25.618Z</time>
      </trkpt>
      <trkpt lat="48.85262" lon="2.28056">
        <ele>81.9</ele>
        <time>2015-02-02T21:05:26.624Z</time>
      </trkpt>
      <trkpt lat="48.85265" lon="2.28063">
        <ele>81.7</ele>
        <time>2015-02-02T21:05:27.678Z</time>
      </trkpt>
      <trkpt lat="48.85268" lon="2.28069">
        <ele>81.4</ele>
        <time>2015-02-02T21:05:28.533Z</time>
      </trkpt>
      <trkpt lat="48.85272" lon="2.28076">
        <ele>81.2</ele>
        <time>2015-02-02T21:05:29.537Z</time>
      </trkpt>
      <trkpt lat="48.85276" lon="2.28083">
        <ele>80.8</ele>
        <time>2015-02-02T21:05:30.549Z</time>
      </trkpt>
      <trkpt lat="48.85279" lon="2.28089">
        <ele>80.7</ele>
        <time>2015-02-02T21:05:31.560Z</time>
      </trkpt>
      <trkpt lat="48.85282" lon="2.28095">
        <ele>80.6</ele>
        <time>2015-02-02T21:05:32.563Z</time>
      </trkpt>
      <trkpt lat="48.85284" lon="2.281">
        <ele>80.5</ele>
        <time>2015-02-02T21:05:33.587Z</time>
      </trkpt>
      <trkpt lat="48.85287" lon="2.28106">
        <ele>80.4</ele>
        <time>2015-02-02T21:05:34.597Z</time>
      </trkpt>
      <trkpt lat="48.8529" lon="2.2811">
        <ele>80.6</ele>
        <time>2015-02-02T21:05:35.608Z</time>
      </trkpt>
      <trkpt lat="48.85294" lon="2.28115">
        <ele>80.5</ele>
        <time>2015-02-02T21:05:36.619Z</time>
      </trkpt>
      <trkpt lat="48.85298" lon="2.2812">
        <ele>80.7</ele>
        <time>2015-02-02T21:05:37.528Z</time>
      </trkpt>
      <trkpt lat="48.85302" lon="2.28126">
        <ele>81.4</ele>
        <time>2015-02-02T21:05:38.537Z</time>
      </trkpt>
      <trkpt lat="48.85307" lon="2.28132">
        <ele>81.4</ele>
        <time>2015-02-02T21:05:39.555Z</time>
      </trkpt>
      <trkpt lat="48.8531" lon="2.28136">
        <ele>81.9</ele>
        <time>2015-02-02T21:05:40.564Z</time>
      </trkpt>
      <trkpt lat="48.85314" lon="2.28141">
        <ele>82.2</ele>
        <time>2015-02-02T21:05:41.589Z</time>
      </trkpt>
      <trkpt lat="48.85318" lon="2.28145">
        <ele>82.5</ele>
        <time>2015-02-02T21:05:42.547Z</time>
      </trkpt>
      <trkpt lat="48.85322" lon="2.28148">
        <ele>83</ele>
        <time>2015-02-02T21:05:43.562Z</time>
      </trkpt>
      <trkpt lat="48.85326" lon="2.28151">
        <ele>83.5</ele>
        <time>2015-02-02T21:05:44.583Z</time>
      </trkpt>
      <trkpt lat="48.85334" lon="2.28157">
        <ele>85.1</ele>
        <time>2015-02-02T21:05:46.619Z</time>
      </trkpt>
      <trkpt lat="48.85337" lon="2.28161">
        <ele>85.4</ele>
        <time>2015-02-02T21:05:47.544Z</time>
      </trkpt>
      <trkpt lat="48.8534" lon="2.28167">
        <ele>85.6</ele>
        <time>2015-02-02T21:05:48.572Z</time>
      </trkpt>
      <trkpt lat="48.85343" lon="2.28172">
        <ele>85.3</ele>
        <time>2015-02-02T21:05:49.570Z</time>
      </trkpt>
      <trkpt lat="48.85347" lon="2.28177">
        <ele>85</ele>
        <time>2015-02-02T21:05:50.591Z</time>
      </trkpt>
      <trkpt lat="48.8535" lon="2.28183">
        <ele>85.1</ele>
        <time>2015-02-02T21:05:51.608Z</time>
      </trkpt>
      <trkpt lat="48.85356" lon="2.28191">
        <ele>84.8</ele>
        <time>2015-02-02T21:05:52.550Z</time>
      </trkpt>
      <trkpt lat="48.8536" lon="2.28198">
        <ele>84.2</ele>
        <time>2015-02-02T21:05:53.540Z</time>
      </trkpt>
      <trkpt lat="48.85362" lon="2.28206">
        <ele>83.3</ele>
        <time>2015-02-02T21:05:54.584Z</time>
      </trkpt>
      <trkpt lat="48.85365" lon="2.28212">
        <ele>82.8</ele>
        <time>2015-02-02T21:05:55.544Z</time>
      </trkpt>
      <trkpt lat="48.85368" lon="2.28219">
        <ele>82.6</ele>
        <time>2015-02-02T21:05:56.558Z</time>
      </trkpt>
      <trkpt lat="48.85373" lon="2.28226">
        <ele>82.3</ele>
        <time>2015-02-02T21:05:57.597Z</time>
      </trkpt>
      <trkpt lat="48.85377" lon="2.28232">
        <ele>81.7</ele>
        <time>2015-02-02T21:05:58.529Z</time>
      </trkpt>
      <trkpt lat="48.8538" lon="2.28238">
        <ele>81.6</ele>
        <time>2015-02-02T21:05:59.533Z</time>
      </trkpt>
      <trkpt lat="48.85384" lon="2.28244">
        <ele>81.5</ele>
        <time>2015-02-02T21:06:00.532Z</time>
      </trkpt>
      <trkpt lat="48.85387" lon="2.28249">
        <ele>81.3</ele>
        <time>2015-02-02T21:06:01.541Z</time>
      </trkpt>
      <trkpt lat="48.8539" lon="2.28255">
        <ele>81.4</ele>
        <time>2015-02-02T21:06:02.555Z</time>
      </trkpt>
      <trkpt lat="48.85393" lon="2.2826">
        <ele>81.5</ele>
        <time>2015-02-02T21:06:03.572Z</time>
      </trkpt>
      <trkpt lat="48.85397" lon="2.28272">
        <ele>81.7</ele>
        <time>2015-02-02T21:06:05.587Z</time>
      </trkpt>
      <trkpt lat="48.854" lon="2.28277">
        <ele>81.8</ele>
        <time>2015-02-02T21:06:06.611Z</time>
      </trkpt>
      <trkpt lat="48.85403" lon="2.28288">
        <ele>81.7</ele>
        <time>2015-02-02T21:06:08.826Z</time>
      </trkpt>
      <trkpt lat="48.85404" lon="2.28292">
        <ele>81.4</ele>
        <time>2015-02-02T21:06:09.581Z</time>
      </trkpt>
      <trkpt lat="48.85409" lon="2.28297">
        <ele>81.9</ele>
        <time>2015-02-02T21:06:11.595Z</time>
      </trkpt>
      <trkpt lat="48.85412" lon="2.283">
        <ele>81.9</ele>
        <time>2015-02-02T21:06:12.625Z</time>
      </trkpt>
      <trkpt lat="48.85418" lon="2.28306">
        <ele>82.9</ele>
        <time>2015-02-02T21:06:14.518Z</time>
      </trkpt>
      <trkpt lat="48.85421" lon="2.28309">
        <ele>82.9</ele>
        <time>2015-02-02T21:06:15.652Z</time>
      </trkpt>
      <trkpt lat="48.85424" lon="2.28314">
        <ele>83</ele>
        <time>2015-02-02T21:06:16.529Z</time>
      </trkpt>
      <trkpt lat="48.85428" lon="2.28318">
        <ele>83.1</ele>
        <time>2015-02-02T21:06:17.538Z</time>
      </trkpt>
      <trkpt lat="48.85434" lon="2.28323">
        <ele>82.3</ele>
        <time>2015-02-02T21:06:18.554Z</time>
      </trkpt>
      <trkpt lat="48.85439" lon="2.28326">
        <ele>81.6</ele>
        <time>2015-02-02T21:06:19.524Z</time>
      </trkpt>
      <trkpt lat="48.85444" lon="2.28329">
        <ele>81.3</ele>
        <time>2015-02-02T21:06:20.529Z</time>
      </trkpt>
      <trkpt lat="48.85448" lon="2.2833">
        <ele>81</ele>
        <time>2015-02-02T21:06:21.567Z</time>
      </trkpt>
      <trkpt lat="48.85457" lon="2.28335">
        <ele>80.9</ele>
        <time>2015-02-02T21:06:24.526Z</time>
      </trkpt>
      <trkpt lat="48.85459" lon="2.28336">
        <ele>80.6</ele>
        <time>2015-02-02T21:06:25.559Z</time>
      </trkpt>
      <trkpt lat="48.85467" lon="2.2834">
        <ele>79.6</ele>
        <time>2015-02-02T21:06:32.520Z</time>
      </trkpt>
      <trkpt lat="48.85468" lon="2.2834">
        <ele>79.6</ele>
        <time>2015-02-02T21:06:33.553Z</time>
      </trkpt>
      <trkpt lat="48.85475" lon="2.28333">
        <ele>78.9</ele>
        <time>2015-02-02T21:06:36.572Z</time>
      </trkpt>
      <trkpt lat="48.85477" lon="2.28332">
        <ele>79</ele>
        <time>2015-02-02T21:06:37.578Z</time>
      </trkpt>
      <trkpt lat="48.85484" lon="2.28325">
        <ele>78.2</ele>
        <time>2015-02-02T21:06:39.622Z</time>
      </trkpt>
      <trkpt lat="48.85488" lon="2.2832">
        <ele>78.1</ele>
        <time>2015-02-02T21:06:40.519Z</time>
      </trkpt>
      <trkpt lat="48.85492" lon="2.28315">
        <ele>78</ele>
        <time>2015-02-02T21:06:41.561Z</time>
      </trkpt>
      <trkpt lat="48.85494" lon="2.28309">
        <ele>78.2</ele>
        <time>2015-02-02T21:06:42.569Z</time>
      </trkpt>
      <trkpt lat="48.85497" lon="2.28303">
        <ele>78.6</ele>
        <time>2015-02-02T21:06:43.583Z</time>
      </trkpt>
      <trkpt lat="48.855" lon="2.28296">
        <ele>79</ele>
        <time>2015-02-02T21:06:44.596Z</time>
      </trkpt>
      <trkpt lat="48.85503" lon="2.2829">
        <ele>79.3</ele>
        <time>2015-02-02T21:06:45.642Z</time>
      </trkpt>
      <trkpt lat="48.85507" lon="2.28281">
        <ele>79.7</ele>
        <time>2015-02-02T21:06:46.540Z</time>
      </trkpt>
      <trkpt lat="48.8551" lon="2.28272">
        <ele>79.8</ele>
        <time>2015-02-02T21:06:47.558Z</time>
      </trkpt>
      <trkpt lat="48.85514" lon="2.28264">
        <ele>79.8</ele>
        <time>2015-02-02T21:06:48.566Z</time>
      </trkpt>
      <trkpt lat="48.85519" lon="2.28256">
        <ele>79.9</ele>
        <time>2015-02-02T21:06:49.572Z</time>
      </trkpt>
      <trkpt lat="48.85523" lon="2.28249">
        <ele>80.2</ele>
        <time>2015-02-02T21:06:50.584Z</time>
      </trkpt>
      <trkpt lat="48.85526" lon="2.28243">
        <ele>80.2</ele>
        <time>2015-02-02T21:06:51.588Z</time>
      </trkpt>
      <trkpt lat="48.85532" lon="2.28237">
        <ele>80.4</ele>
        <time>2015-02-02T21:06:52.603Z</time>
      </trkpt>
      <trkpt lat="48.85536" lon="2.28231">
        <ele>80.5</ele>
        <time>2015-02-02T21:06:53.531Z</time>
      </trkpt>
      <trkpt lat="48.85539" lon="2.28224">
        <ele>80.7</ele>
        <time>2015-02-02T21:06:54.528Z</time>
      </trkpt>
      <trkpt lat="48.85543" lon="2.28213">
        <ele>80.8</ele>
        <time>2015-02-02T21:06:56.541Z</time>
      </trkpt>
      <trkpt lat="48.85546" lon="2.28208">
        <ele>81</ele>
        <time>2015-02-02T21:06:57.614Z</time>
      </trkpt>
      <trkpt lat="48.85552" lon="2.28199">
        <ele>81.7</ele>
        <time>2015-02-02T21:06:59.543Z</time>
      </trkpt>
      <trkpt lat="48.85553" lon="2.28196">
        <ele>81.9</ele>
        <time>2015-02-02T21:07:00.536Z</time>
      </trkpt>
      <trkpt lat="48.85554" lon="2.28194">
        <ele>82.4</ele>
        <time>2015-02-02T21:07:58.369Z</time>
      </trkpt>
      <trkpt lat="48.8557" lon="2.28195">
        <ele>85.8</ele>
        <time>2015-02-02T21:07:58.592Z</time>
      </trkpt>
      <trkpt lat="48.85576" lon="2.28201">
        <ele>85</ele>
        <time>2015-02-02T21:08:01.571Z</time>
      </trkpt>
      <trkpt lat="48.85577" lon="2.28203">
        <ele>84.6</ele>
        <time>2015-02-02T21:08:02.601Z</time>
      </trkpt>
      <trkpt lat="48.85583" lon="2.2821">
        <ele>84.7</ele>
        <time>2015-02-02T21:08:08.544Z</time>
      </trkpt>
      <trkpt lat="48.85586" lon="2.28211">
        <ele>84.7</ele>
        <time>2015-02-02T21:08:08.576Z</time>
      </trkpt>
      <trkpt lat="48.85592" lon="2.28216">
        <ele>84.6</ele>
        <time>2015-02-02T21:08:11.503Z</time>
      </trkpt>
      <trkpt lat="48.85595" lon="2.2822">
        <ele>84.2</ele>
        <time>2015-02-02T21:08:12.524Z</time>
      </trkpt>
      <trkpt lat="48.856" lon="2.28227">
        <ele>83.8</ele>
        <time>2015-02-02T21:08:14.610Z</time>
      </trkpt>
      <trkpt lat="48.85603" lon="2.28231">
        <ele>83.9</ele>
        <time>2015-02-02T21:08:15.611Z</time>
      </trkpt>
      <trkpt lat="48.85606" lon="2.28238">
        <ele>84.1</ele>
        <time>2015-02-02T21:08:16.538Z</time>
      </trkpt>
      <trkpt lat="48.85608" lon="2.28245">
        <ele>84</ele>
        <time>2015-02-02T21:08:17.593Z</time>
      </trkpt>
      <trkpt lat="48.85615" lon="2.28253">
        <ele>83.8</ele>
        <time>2015-02-02T21:08:19.543Z</time>
      </trkpt>
      <trkpt lat="48.85618" lon="2.28256">
        <ele>83.6</ele>
        <time>2015-02-02T21:08:20.568Z</time>
      </trkpt>
      <trkpt lat="48.85627" lon="2.28259">
        <ele>83.7</ele>
        <time>2015-02-02T21:08:24.091Z</time>
      </trkpt>
      <trkpt lat="48.85629" lon="2.28259">
        <ele>83.9</ele>
        <time>2015-02-02T21:08:24.599Z</time>
      </trkpt>
      <trkpt lat="48.85632" lon="2.28268">
        <ele>84.6</ele>
        <time>2015-02-02T21:08:27.669Z</time>
      </trkpt>
      <trkpt lat="48.85635" lon="2.2827">
        <ele>85.4</ele>
        <time>2015-02-02T21:08:28.534Z</time>
      </trkpt>
      <trkpt lat="48.85643" lon="2.28268">
        <ele>86</ele>
        <time>2015-02-02T21:08:32.561Z</time>
      </trkpt>
      <trkpt lat="48.85645" lon="2.28267">
        <ele>86.1</ele>
        <time>2015-02-02T21:08:33.593Z</time>
      </trkpt>
      <trkpt lat="48.85651" lon="2.28265">
        <ele>86.6</ele>
        <time>2015-02-02T21:08:36.533Z</time>
      </trkpt>
      <trkpt lat="48.85654" lon="2.2827">
        <ele>86.7</ele>
        <time>2015-02-02T21:08:37.544Z</time>
      </trkpt>
      <trkpt lat="48.8566" lon="2.28279">
        <ele>86.3</ele>
        <time>2015-02-02T21:08:39.571Z</time>
      </trkpt>
      <trkpt lat="48.85674" lon="2.28337">
        <ele>88</ele>
        <time>2015-02-02T21:08:48.512Z</time>
      </trkpt>
      <trkpt lat="48.8567" lon="2.2835">
        <ele>88.6</ele>
        <time>2015-02-02T21:08:50.528Z</time>
      </trkpt>
      <trkpt lat="48.85667" lon="2.28358">
        <ele>88.8</ele>
        <time>2015-02-02T21:08:51.582Z</time>
      </trkpt>
      <trkpt lat="48.85663" lon="2.28366">
        <ele>89.2</ele>
        <time>2015-02-02T21:08:52.598Z</time>
      </trkpt>
      <trkpt lat="48.85658" lon="2.28376">
        <ele>90.1</ele>
        <time>2015-02-02T21:08:54.699Z</time>
      </trkpt>
      <trkpt lat="48.85656" lon="2.2838">
        <ele>90.5</ele>
        <time>2015-02-02T21:08:55.575Z</time>
      </trkpt>
      <trkpt lat="48.85658" lon="2.28393">
        <ele>90</ele>
        <time>2015-02-02T21:08:58.460Z</time>
      </trkpt>
      <trkpt lat="48.85662" lon="2.28411">
        <ele>90</ele>
        <time>2015-02-02T21:09:00.549Z</time>
      </trkpt>
      <trkpt lat="48.85668" lon="2.28419">
        <ele>90.8</ele>
        <time>2015-02-02T21:09:05.634Z</time>
      </trkpt>
      <trkpt lat="48.8567" lon="2.28421">
        <ele>91.2</ele>
        <time>2015-02-02T21:09:06.528Z</time>
      </trkpt>
      <trkpt lat="48.85673" lon="2.2843">
        <ele>91.8</ele>
        <time>2015-02-02T21:09:09.548Z</time>
      </trkpt>
      <trkpt lat="48.85675" lon="2.28434">
        <ele>92.2</ele>
        <time>2015-02-02T21:09:10.556Z</time>
      </trkpt>
      <trkpt lat="48.85681" lon="2.28441">
        <ele>93.2</ele>
        <time>2015-02-02T21:09:13.838Z</time>
      </trkpt>
      <trkpt lat="48.85684" lon="2.28444">
        <ele>94</ele>
        <time>2015-02-02T21:09:14.583Z</time>
      </trkpt>
      <trkpt lat="48.85691" lon="2.28449">
        <ele>94.9</ele>
        <time>2015-02-02T21:09:16.555Z</time>
      </trkpt>
      <trkpt lat="48.85695" lon="2.28451">
        <ele>95.6</ele>
        <time>2015-02-02T21:09:17.561Z</time>
      </trkpt>
      <trkpt lat="48.85703" lon="2.28454">
        <ele>96.6</ele>
        <time>2015-02-02T21:09:19.588Z</time>
      </trkpt>
      <trkpt lat="48.85707" lon="2.28455">
        <ele>97.1</ele>
        <time>2015-02-02T21:09:20.617Z</time>
      </trkpt>
      <trkpt lat="48.85715" lon="2.28458">
        <ele>97.7</ele>
        <time>2015-02-02T21:09:22.553Z</time>
      </trkpt>
      <trkpt lat="48.85717" lon="2.2846">
        <ele>98.1</ele>
        <time>2015-02-02T21:09:23.563Z</time>
      </trkpt>
      <trkpt lat="48.85718" lon="2.28465">
        <ele>100.1</ele>
        <time>2015-02-02T21:09:34.627Z</time>
      </trkpt>
      <trkpt lat="48.85722" lon="2.2848">
        <ele>102.2</ele>
        <time>2015-02-02T21:09:35.640Z</time>
      </trkpt>
      <trkpt lat="48.85728" lon="2.2848">
        <ele>102.5</ele>
        <time>2015-02-02T21:09:39.553Z</time>
      </trkpt>
      <trkpt lat="48.85759" lon="2.2838">
        <ele>93.6</ele>
        <time>2015-02-02T21:10:52.538Z</time>
      </trkpt>
      <trkpt lat="48.85759" lon="2.2838">
        <ele>93.6</ele>
        <time>2015-02-02T21:11:00.512Z</time>
      </trkpt>
      <trkpt lat="48.85777" lon="2.28384">
        <ele>96.2</ele>
        <time>2015-02-02T21:11:01.531Z</time>
      </trkpt>
      <trkpt lat="48.85783" lon="2.28392">
        <ele>98.3</ele>
        <time>2015-02-02T21:11:05.585Z</time>
      </trkpt>
      <trkpt lat="48.85785" lon="2.28394">
        <ele>98.9</ele>
        <time>2015-02-02T21:11:06.559Z</time>
      </trkpt>
      <trkpt lat="48.8579" lon="2.284">
        <ele>102</ele>
        <time>2015-02-02T21:11:08.615Z</time>
      </trkpt>
      <trkpt lat="48.85794" lon="2.28404">
        <ele>104.1</ele>
        <time>2015-02-02T21:11:09.567Z</time>
      </trkpt>
      <trkpt lat="48.858" lon="2.28412">
        <ele>106.9</ele>
        <time>2015-02-02T21:11:15.594Z</time>
      </trkpt>
      <trkpt lat="48.85804" lon="2.28416">
        <ele>109.6</ele>
        <time>2015-02-02T21:11:16.490Z</time>
      </trkpt>
      <trkpt lat="48.85809" lon="2.28418">
        <ele>111.2</ele>
        <time>2015-02-02T21:11:25.624Z</time>
      </trkpt>
      <trkpt lat="48.85814" lon="2.2842">
        <ele>111.6</ele>
        <time>2015-02-02T21:11:26.526Z</time>
      </trkpt>
      <trkpt lat="48.85821" lon="2.28424">
        <ele>110</ele>
        <time>2015-02-02T21:11:28.839Z</time>
      </trkpt>
      <trkpt lat="48.85824" lon="2.28426">
        <ele>108.8</ele>
        <time>2015-02-02T21:11:29.560Z</time>
      </trkpt>
      <trkpt lat="48.85831" lon="2.28431">
        <ele>106.7</ele>
        <time>2015-02-02T21:12:31.521Z</time>
      </trkpt>
      <trkpt lat="48.85863" lon="2.28456">
        <ele>114.8</ele>
        <time>2015-02-02T21:12:32.532Z</time>
      </trkpt>
      <trkpt lat="48.85869" lon="2.28455">
        <ele>115</ele>
        <time>2015-02-02T21:12:34.614Z</time>
      </trkpt>
      <trkpt lat="48.85872" lon="2.28454">
        <ele>115.4</ele>
        <time>2015-02-02T21:12:35.501Z</time>
      </trkpt>
      <trkpt lat="48.85877" lon="2.28463">
        <ele>115</ele>
        <time>2015-02-02T21:12:41.534Z</time>
      </trkpt>
      <trkpt lat="48.85878" lon="2.28466">
        <ele>115.1</ele>
        <time>2015-02-02T21:12:42.543Z</time>
      </trkpt>
      <trkpt lat="48.85882" lon="2.28475">
        <ele>117.2</ele>
        <time>2015-02-02T21:12:48.264Z</time>
      </trkpt>
      <trkpt lat="48.85885" lon="2.28476">
        <ele>117.4</ele>
        <time>2015-02-02T21:12:48.618Z</time>
      </trkpt>
      <trkpt lat="48.85893" lon="2.28482">
        <ele>117.4</ele>
        <time>2015-02-02T21:12:51.574Z</time>
      </trkpt>
      <trkpt lat="48.85896" lon="2.28485">
        <ele>117.4</ele>
        <time>2015-02-02T21:12:52.583Z</time>
      </trkpt>
      <trkpt lat="48.85903" lon="2.28491">
        <ele>117.3</ele>
        <time>2015-02-02T21:12:54.585Z</time>
      </trkpt>
      <trkpt lat="48.85906" lon="2.28494">
        <ele>117.3</ele>
        <time>2015-02-02T21:12:55.602Z</time>
      </trkpt>
      <trkpt lat="48.85912" lon="2.285">
        <ele>117.2</ele>
        <time>2015-02-02T21:12:58.284Z</time>
      </trkpt>
      <trkpt lat="48.85916" lon="2.28502">
        <ele>117.2</ele>
        <time>2015-02-02T21:12:58.530Z</time>
      </trkpt>
      <trkpt lat="48.85924" lon="2.28508">
        <ele>117</ele>
        <time>2015-02-02T21:13:00.554Z</time>
      </trkpt>
      <trkpt lat="48.85928" lon="2.28513">
        <ele>116.8</ele>
        <time>2015-02-02T21:13:01.568Z</time>
      </trkpt>
      <trkpt lat="48.85933" lon="2.28522">
        <ele>117</ele>
        <time>2015-02-02T21:13:03.601Z</time>
      </trkpt>
      <trkpt lat="48.85935" lon="2.28526">
        <ele>117.2</ele>
        <time>2015-02-02T21:13:04.655Z</time>
      </trkpt>
      <trkpt lat="48.85942" lon="2.28534">
        <ele>117.7</ele>
        <time>2015-02-02T21:13:06.545Z</time>
      </trkpt>
      <trkpt lat="48.85944" lon="2.28538">
        <ele>117.9</ele>
        <time>2015-02-02T21:13:07.598Z</time>
      </trkpt>
      <trkpt lat="48.85949" lon="2.28541">
        <ele>118.1</ele>
        <time>2015-02-02T21:13:08.615Z</time>
      </trkpt>
      <trkpt lat="48.85954" lon="2.28543">
        <ele>118.2</ele>
        <time>2015-02-02T21:13:09.633Z</time>
      </trkpt>
      <trkpt lat="48.85958" lon="2.28545">
        <ele>118.2</ele>
        <time>2015-02-02T21:13:10.494Z</time>
      </trkpt>
      <trkpt lat="48.85964" lon="2.28548">
        <ele>118.4</ele>
        <time>2015-02-02T21:13:11.526Z</time>
      </trkpt>
      <trkpt lat="48.85971" lon="2.28551">
        <ele>118.3</ele>
        <time>2015-02-02T21:13:13.499Z</time>
      </trkpt>
      <trkpt lat="48.85978" lon="2.28554">
        <ele>117.5</ele>
        <time>2015-02-02T21:13:13.549Z</time>
      </trkpt>
      <trkpt lat="48.85983" lon="2.28556">
        <ele>116.8</ele>
        <time>2015-02-02T21:13:14.581Z</time>
      </trkpt>
      <trkpt lat="48.85989" lon="2.28559">
        <ele>116.2</ele>
        <time>2015-02-02T21:13:15.586Z</time>
      </trkpt>
      <trkpt lat="48.85993" lon="2.28564">
        <ele>116.5</ele>
        <time>2015-02-02T21:13:16.656Z</time>
      </trkpt>
      <trkpt lat="48.85996" lon="2.2857">
        <ele>116.8</ele>
        <time>2015-02-02T21:13:17.530Z</time>
      </trkpt>
      <trkpt lat="48.86" lon="2.28576">
        <ele>116.8</ele>
        <time>2015-02-02T21:13:18.529Z</time>
      </trkpt>
      <trkpt lat="48.86003" lon="2.2858">
        <ele>116.8</ele>
        <time>2015-02-02T21:13:19.540Z</time>
      </trkpt>
      <trkpt lat="48.86009" lon="2.28587">
        <ele>117.2</ele>
        <time>2015-02-02T21:13:21.567Z</time>
      </trkpt>
      <trkpt lat="48.86012" lon="2.28591">
        <ele>116.8</ele>
        <time>2015-02-02T21:13:22.598Z</time>
      </trkpt>
      <trkpt lat="48.86018" lon="2.28595">
        <ele>115.6</ele>
        <time>2015-02-02T21:13:23.562Z</time>
      </trkpt>
      <trkpt lat="48.86024" lon="2.28596">
        <ele>114.9</ele>
        <time>2015-02-02T21:13:24.526Z</time>
      </trkpt>
      <trkpt lat="48.86029" lon="2.28597">
        <ele>115.2</ele>
        <time>2015-02-02T21:13:25.536Z</time>
      </trkpt>
      <trkpt lat="48.86034" lon="2.28598">
        <ele>115.5</ele>
        <time>2015-02-02T21:13:26.543Z</time>
      </trkpt>
      <trkpt lat="48.8604" lon="2.28599">
        <ele>115.6</ele>
        <time>2015-02-02T21:13:28.558Z</time>
      </trkpt>
      <trkpt lat="48.86045" lon="2.28601">
        <ele>115.7</ele>
        <time>2015-02-02T21:13:28.605Z</time>
      </trkpt>
      <trkpt lat="48.86052" lon="2.28604">
        <ele>115.4</ele>
        <time>2015-02-02T21:13:30.499Z</time>
      </trkpt>
      <trkpt lat="48.86055" lon="2.28605">
        <ele>115.3</ele>
        <time>2015-02-02T21:13:31.503Z</time>
      </trkpt>
      <trkpt lat="48.86062" lon="2.28608">
        <ele>114.5</ele>
        <time>2015-02-02T21:13:33.580Z</time>
      </trkpt>
      <trkpt lat="48.86066" lon="2.28609">
        <ele>113.7</ele>
        <time>2015-02-02T21:13:34.543Z</time>
      </trkpt>
      <trkpt lat="48.86072" lon="2.2861">
        <ele>112.2</ele>
        <time>2015-02-02T21:13:36.585Z</time>
      </trkpt>
      <trkpt lat="48.86075" lon="2.28611">
        <ele>111.4</ele>
        <time>2015-02-02T21:13:37.490Z</time>
      </trkpt>
      <trkpt lat="48.86081" lon="2.28619">
        <ele>106.1</ele>
        <time>2015-02-02T21:14:28.765Z</time>
      </trkpt>
      <trkpt lat="48.86085" lon="2.28618">
        <ele>105.9</ele>
        <time>2015-02-02T21:14:29.601Z</time>
      </trkpt>
      <trkpt lat="48.86091" lon="2.28621">
        <ele>105.8</ele>
        <time>2015-02-02T21:14:31.584Z</time>
      </trkpt>
      <trkpt lat="48.86094" lon="2.28623">
        <ele>105.7</ele>
        <time>2015-02-02T21:14:32.599Z</time>
      </trkpt>
      <trkpt lat="48.86102" lon="2.28629">
        <ele>105.8</ele>
        <time>2015-02-02T21:14:34.628Z</time>
      </trkpt>
      <trkpt lat="48.86105" lon="2.28633">
        <ele>106.6</ele>
        <time>2015-02-02T21:14:35.641Z</time>
      </trkpt>
      <trkpt lat="48.86112" lon="2.28638">
        <ele>108.4</ele>
        <time>2015-02-02T21:14:37.577Z</time>
      </trkpt>
      <trkpt lat="48.86114" lon="2.28642">
        <ele>109.1</ele>
        <time>2015-02-02T21:14:38.588Z</time>
      </trkpt>
      <trkpt lat="48.86121" lon="2.28647">
        <ele>110.2</ele>
        <time>2015-02-02T21:14:40.699Z</time>
      </trkpt>
      <trkpt lat="48.86123" lon="2.28651">
        <ele>110.7</ele>
        <time>2015-02-02T21:14:41.524Z</time>
      </trkpt>
      <trkpt lat="48.8613" lon="2.28658">
        <ele>111.7</ele>
        <time>2015-02-02T21:14:44.583Z</time>
      </trkpt>
      <trkpt lat="48.86135" lon="2.28661">
        <ele>112.5</ele>
        <time>2015-02-02T21:14:45.630Z</time>
      </trkpt>
      <trkpt lat="48.86143" lon="2.28665">
        <ele>112.8</ele>
        <time>2015-02-02T21:14:48.447Z</time>
      </trkpt>
      <trkpt lat="48.86149" lon="2.28665">
        <ele>112.3</ele>
        <time>2015-02-02T21:14:48.531Z</time>
      </trkpt>
      <trkpt lat="48.86156" lon="2.28664">
        <ele>111.2</ele>
        <time>2015-02-02T21:14:49.544Z</time>
      </trkpt>
      <trkpt lat="48.86162" lon="2.28666">
        <ele>111.5</ele>
        <time>2015-02-02T21:14:50.561Z</time>
      </trkpt>
      <trkpt lat="48.86171" lon="2.28667">
        <ele>112</ele>
        <time>2015-02-02T21:14:53.461Z</time>
      </trkpt>
      <trkpt lat="48.86175" lon="2.28666">
        <ele>111.8</ele>
        <time>2015-02-02T21:14:53.599Z</time>
      </trkpt>
      <trkpt lat="48.86184" lon="2.28665">
        <ele>110.7</ele>
        <time>2015-02-02T21:14:55.551Z</time>
      </trkpt>
      <trkpt lat="48.86188" lon="2.28664">
        <ele>110.7</ele>
        <time>2015-02-02T21:14:56.556Z</time>
      </trkpt>
      <trkpt lat="48.86195" lon="2.28667">
        <ele>111.4</ele>
        <time>2015-02-02T21:14:59.497Z</time>
      </trkpt>
      <trkpt lat="48.86198" lon="2.28669">
        <ele>111.4</ele>
        <time>2015-02-02T21:15:00.512Z</time>
      </trkpt>
      <trkpt lat="48.86205" lon="2.28676">
        <ele>111.7</ele>
        <time>2015-02-02T21:15:03.767Z</time>
      </trkpt>
      <trkpt lat="48.86208" lon="2.2868">
        <ele>111.4</ele>
        <time>2015-02-02T21:15:04.599Z</time>
      </trkpt>
      <trkpt lat="48.86213" lon="2.28687">
        <ele>111.5</ele>
        <time>2015-02-02T21:15:06.527Z</time>
      </trkpt>
      <trkpt lat="48.86215" lon="2.2869">
        <ele>111.3</ele>
        <time>2015-02-02T21:15:07.527Z</time>
      </trkpt>
      <trkpt lat="48.8622" lon="2.28699">
        <ele>110.8</ele>
        <time>2015-02-02T21:15:10.599Z</time>
      </trkpt>
      <trkpt lat="48.86222" lon="2.28702">
        <ele>110.4</ele>
        <time>2015-02-02T21:15:11.527Z</time>
      </trkpt>
      <trkpt lat="48.86226" lon="2.28707">
        <ele>109.9</ele>
        <time>2015-02-02T21:15:12.521Z</time>
      </trkpt>
      <trkpt lat="48.86229" lon="2.28712">
        <ele>109.6</ele>
        <time>2015-02-02T21:15:13.506Z</time>
      </trkpt>
      <trkpt lat="48.86233" lon="2.28721">
        <ele>109.3</ele>
        <time>2015-02-02T21:15:15.562Z</time>
      </trkpt>
      <trkpt lat="48.86236" lon="2.28725">
        <ele>109.4</ele>
        <time>2015-02-02T21:15:16.576Z</time>
      </trkpt>
      <trkpt lat="48.86241" lon="2.28732">
        <ele>109.8</ele>
        <time>2015-02-02T21:15:18.855Z</time>
      </trkpt>
      <trkpt lat="48.86243" lon="2.28737">
        <ele>109.5</ele>
        <time>2015-02-02T21:15:19.544Z</time>
      </trkpt>
      <trkpt lat="48.86246" lon="2.2875">
        <ele>107.9</ele>
        <time>2015-02-02T21:15:22.565Z</time>
      </trkpt>
      <trkpt lat="48.86247" lon="2.28754">
        <ele>107.5</ele>
        <time>2015-02-02T21:15:23.529Z</time>
      </trkpt>
      <trkpt lat="48.86249" lon="2.28763">
        <ele>107</ele>
        <time>2015-02-02T21:15:25.570Z</time>
      </trkpt>
      <trkpt lat="48.86251" lon="2.28767">
        <ele>106.4</ele>
        <time>2015-02-02T21:15:26.548Z</time>
      </trkpt>
      <trkpt lat="48.86258" lon="2.28774">
        <ele>106.7</ele>
        <time>2015-02-02T21:15:28.971Z</time>
      </trkpt>
      <trkpt lat="48.86261" lon="2.28776">
        <ele>106.9</ele>
        <time>2015-02-02T21:15:29.589Z</time>
      </trkpt>
      <trkpt lat="48.86268" lon="2.28783">
        <ele>108</ele>
        <time>2015-02-02T21:15:32.560Z</time>
      </trkpt>
      <trkpt lat="48.8627" lon="2.28786">
        <ele>107.9</ele>
        <time>2015-02-02T21:15:33.700Z</time>
      </trkpt>
      <trkpt lat="48.86274" lon="2.28797">
        <ele>108.2</ele>
        <time>2015-02-02T21:15:37.598Z</time>
      </trkpt>
      <trkpt lat="48.86276" lon="2.288">
        <ele>107.7</ele>
        <time>2015-02-02T21:15:38.533Z</time>
      </trkpt>
      <trkpt lat="48.86282" lon="2.28805">
        <ele>107.3</ele>
        <time>2015-02-02T21:15:40.515Z</time>
      </trkpt>
      <trkpt lat="48.86285" lon="2.28807">
        <ele>106.8</ele>
        <time>2015-02-02T21:15:41.553Z</time>
      </trkpt>
      <trkpt lat="48.86292" lon="2.28809">
        <ele>105.8</ele>
        <time>2015-02-02T21:15:44.370Z</time>
      </trkpt>
      <trkpt lat="48.86294" lon="2.2881">
        <ele>105.9</ele>
        <time>2015-02-02T21:15:44.494Z</time>
      </trkpt>
      <trkpt lat="48.86301" lon="2.28816">
        <ele>106.5</ele>
        <time>2015-02-02T21:15:48.216Z</time>
      </trkpt>
      <trkpt lat="48.86303" lon="2.28818">
        <ele>106.7</ele>
        <time>2015-02-02T21:15:48.552Z</time>
      </trkpt>
      <trkpt lat="48.86312" lon="2.28818">
        <ele>105.7</ele>
        <time>2015-02-02T21:15:53.356Z</time>
      </trkpt>
      <trkpt lat="48.86314" lon="2.28817">
        <ele>105.3</ele>
        <time>2015-02-02T21:15:53.527Z</time>
      </trkpt>
      <trkpt lat="48.8632" lon="2.28809">
        <ele>105.9</ele>
        <time>2015-02-02T21:15:58.474Z</time>
      </trkpt>
      <trkpt lat="48.86321" lon="2.28807">
        <ele>105.8</ele>
        <time>2015-02-02T21:15:58.551Z</time>
      </trkpt>
      <trkpt lat="48.86329" lon="2.28803">
        <ele>107.1</ele>
        <time>2015-02-02T21:16:08.530Z</time>
      </trkpt>
      <trkpt lat="48.86332" lon="2.28801">
        <ele>107.1</ele>
        <time>2015-02-02T21:16:08.563Z</time>
      </trkpt>
      <trkpt lat="48.86338" lon="2.28792">
        <ele>108</ele>
        <time>2015-02-02T21:16:13.556Z</time>
      </trkpt>
      <trkpt lat="48.8634" lon="2.2879">
        <ele>108.2</ele>
        <time>2015-02-02T21:16:13.590Z</time>
      </trkpt>
      <trkpt lat="48.86344" lon="2.28786">
        <ele>109.9</ele>
        <time>2015-02-02T21:16:22.517Z</time>
      </trkpt>
      <trkpt lat="48.86353" lon="2.28795">
        <ele>113.1</ele>
        <time>2015-02-02T21:16:23.535Z</time>
      </trkpt>
      <trkpt lat="48.8636" lon="2.28803">
        <ele>115.1</ele>
        <time>2015-02-02T21:16:29.569Z</time>
      </trkpt>
      <trkpt lat="48.86361" lon="2.28804">
        <ele>115.2</ele>
        <time>2015-02-02T21:16:30.559Z</time>
      </trkpt>
      <trkpt lat="48.86366" lon="2.28809">
        <ele>114.8</ele>
        <time>2015-02-02T21:16:33.796Z</time>
      </trkpt>
      <trkpt lat="48.86369" lon="2.28813">
        <ele>114.7</ele>
        <time>2015-02-02T21:16:34.586Z</time>
      </trkpt>
      <trkpt lat="48.86374" lon="2.28821">
        <ele>115.2</ele>
        <time>2015-02-02T21:16:37.524Z</time>
      </trkpt>
      <trkpt lat="48.86375" lon="2.28825">
        <ele>115.2</ele>
        <time>2015-02-02T21:16:38.546Z</time>
      </trkpt>
      <trkpt lat="48.86378" lon="2.28833">
        <ele>115.7</ele>
        <time>2015-02-02T21:16:41.585Z</time>
      </trkpt>
      <trkpt lat="48.86379" lon="2.28837">
        <ele>115.9</ele>
        <time>2015-02-02T21:16:42.483Z</time>
      </trkpt>
      <trkpt lat="48.86383" lon="2.28846">
        <ele>116.4</ele>
        <time>2015-02-02T21:16:45.598Z</time>
      </trkpt>
      <trkpt lat="48.86385" lon="2.28849">
        <ele>116.5</ele>
        <time>2015-02-02T21:16:46.512Z</time>
      </trkpt>
      <trkpt lat="48.86389" lon="2.28856">
        <ele>116.5</ele>
        <time>2015-02-02T21:16:48.579Z</time>
      </trkpt>
      <trkpt lat="48.86392" lon="2.28859">
        <ele>116.9</ele>
        <time>2015-02-02T21:16:49.593Z</time>
      </trkpt>
      <trkpt lat="48.86399" lon="2.28862">
        <ele>116.9</ele>
        <time>2015-02-02T21:16:51.581Z</time>
      </trkpt>
      <trkpt lat="48.86401" lon="2.28863">
        <ele>116.9</ele>
        <time>2015-02-02T21:16:52.592Z</time>
      </trkpt>
      <trkpt lat="48.86407" lon="2.28867">
        <ele>116.8</ele>
        <time>2015-02-02T21:16:54.511Z</time>
      </trkpt>
      <trkpt lat="48.86409" lon="2.28869">
        <ele>117.2</ele>
        <time>2015-02-02T21:16:55.521Z</time>
      </trkpt>
      <trkpt lat="48.86415" lon="2.28876">
        <ele>117.3</ele>
        <time>2015-02-02T21:16:57.540Z</time>
      </trkpt>
      <trkpt lat="48.86417" lon="2.28878">
        <ele>117.2</ele>
        <time>2015-02-02T21:16:58.544Z</time>
      </trkpt>
      <trkpt lat="48.86425" lon="2.28881">
        <ele>116.6</ele>
        <time>2015-02-02T21:17:00.490Z</time>
      </trkpt>
      <trkpt lat="48.8643" lon="2.28883">
        <ele>116.6</ele>
        <time>2015-02-02T21:17:01.526Z</time>
      </trkpt>
      <trkpt lat="48.86437" lon="2.28887">
        <ele>116.5</ele>
        <time>2015-02-02T21:17:04.164Z</time>
      </trkpt>
      <trkpt lat="48.8644" lon="2.28889">
        <ele>116.5</ele>
        <time>2015-02-02T21:17:04.555Z</time>
      </trkpt>
      <trkpt lat="48.86447" lon="2.2889">
        <ele>118.1</ele>
        <time>2015-02-02T21:17:06.576Z</time>
      </trkpt>
      <trkpt lat="48.8645" lon="2.28891">
        <ele>118.3</ele>
        <time>2015-02-02T21:17:07.595Z</time>
      </trkpt>
      <trkpt lat="48.86458" lon="2.28895">
        <ele>118.8</ele>
        <time>2015-02-02T21:17:09.616Z</time>
      </trkpt>
      <trkpt lat="48.86464" lon="2.28898">
        <ele>117</ele>
        <time>2015-02-02T21:17:10.487Z</time>
      </trkpt>
      <trkpt lat="48.86469" lon="2.28901">
        <ele>117.1</ele>
        <time>2015-02-02T21:17:11.515Z</time>
      </trkpt>
      <trkpt lat="48.86474" lon="2.28903">
        <ele>117.9</ele>
        <time>2015-02-02T21:17:12.526Z</time>
      </trkpt>
      <trkpt lat="48.86479" lon="2.28905">
        <ele>117.8</ele>
        <time>2015-02-02T21:17:13.733Z</time>
      </trkpt>
      <trkpt lat="48.86483" lon="2.28907">
        <ele>117.7</ele>
        <time>2015-02-02T21:17:14.556Z</time>
      </trkpt>
      <trkpt lat="48.86489" lon="2.28909">
        <ele>119.6</ele>
        <time>2015-02-02T21:17:16.523Z</time>
      </trkpt>
      <trkpt lat="48.86492" lon="2.2891">
        <ele>120.5</ele>
        <time>2015-02-02T21:17:17.525Z</time>
      </trkpt>
      <trkpt lat="48.865" lon="2.28912">
        <ele>122.4</ele>
        <time>2015-02-02T21:17:19.566Z</time>
      </trkpt>
      <trkpt lat="48.86503" lon="2.28914">
        <ele>123.5</ele>
        <time>2015-02-02T21:17:20.586Z</time>
      </trkpt>
      <trkpt lat="48.8651" lon="2.28919">
        <ele>124</ele>
        <time>2015-02-02T21:17:22.601Z</time>
      </trkpt>
      <trkpt lat="48.86513" lon="2.28921">
        <ele>124.1</ele>
        <time>2015-02-02T21:17:23.659Z</time>
      </trkpt>
      <trkpt lat="48.86521" lon="2.28926">
        <ele>127.3</ele>
        <time>2015-02-02T21:17:26.568Z</time>
      </trkpt>
      <trkpt lat="48.86522" lon="2.2893">
        <ele>127.6</ele>
        <time>2015-02-02T21:17:27.568Z</time>
      </trkpt>
      <trkpt lat="48.86523" lon="2.28939">
        <ele>127.9</ele>
        <time>2015-02-02T21:17:29.590Z</time>
      </trkpt>
      <trkpt lat="48.86524" lon="2.28944">
        <ele>128</ele>
        <time>2015-02-02T21:17:30.613Z</time>
      </trkpt>
      <trkpt lat="48.86526" lon="2.28955">
        <ele>128.8</ele>
        <time>2015-02-02T21:17:33.955Z</time>
      </trkpt>
      <trkpt lat="48.86527" lon="2.28958">
        <ele>129.2</ele>
        <time>2015-02-02T21:17:34.616Z</time>
      </trkpt>
      <trkpt lat="48.86533" lon="2.28968">
        <ele>130.1</ele>
        <time>2015-02-02T21:17:36.533Z</time>
      </trkpt>
      <trkpt lat="48.86538" lon="2.2897">
        <ele>130.6</ele>
        <time>2015-02-02T21:17:37.554Z</time>
      </trkpt>
      <trkpt lat="48.86543" lon="2.28973">
        <ele>130.9</ele>
        <time>2015-02-02T21:17:39.273Z</time>
      </trkpt>
      <trkpt lat="48.86549" lon="2.28975">
        <ele>130.5</ele>
        <time>2015-02-02T21:17:39.558Z</time>
      </trkpt>
      <trkpt lat="48.86555" lon="2.28976">
        <ele>129.1</ele>
        <time>2015-02-02T21:17:40.560Z</time>
      </trkpt>
      <trkpt lat="48.86558" lon="2.2898">
        <ele>129.2</ele>
        <time>2015-02-02T21:17:41.565Z</time>
      </trkpt>
      <trkpt lat="48.86562" lon="2.28983">
        <ele>129.3</ele>
        <time>2015-02-02T21:17:42.570Z</time>
      </trkpt>
      <trkpt lat="48.86568" lon="2.28981">
        <ele>131.3</ele>
        <time>2015-02-02T21:17:43.577Z</time>
      </trkpt>
      <trkpt lat="48.86574" lon="2.2898">
        <ele>132.9</ele>
        <time>2015-02-02T21:17:44.591Z</time>
      </trkpt>
      <trkpt lat="48.8658" lon="2.28981">
        <ele>134.1</ele>
        <time>2015-02-02T21:17:45.594Z</time>
      </trkpt>
      <trkpt lat="48.86587" lon="2.28982">
        <ele>134.8</ele>
        <time>2015-02-02T21:17:46.604Z</time>
      </trkpt>
      <trkpt lat="48.86593" lon="2.28984">
        <ele>135</ele>
        <time>2015-02-02T21:17:47.524Z</time>
      </trkpt>
      <trkpt lat="48.86601" lon="2.28985">
        <ele>135.4</ele>
        <time>2015-02-02T21:17:48.526Z</time>
      </trkpt>
      <trkpt lat="48.86609" lon="2.28986">
        <ele>135.9</ele>
        <time>2015-02-02T21:17:49.526Z</time>
      </trkpt>
      <trkpt lat="48.86615" lon="2.28989">
        <ele>135.5</ele>
        <time>2015-02-02T21:17:50.540Z</time>
      </trkpt>
      <trkpt lat="48.86621" lon="2.2899">
        <ele>134.6</ele>
        <time>2015-02-02T21:17:51.560Z</time>
      </trkpt>
      <trkpt lat="48.86626" lon="2.28993">
        <ele>134.8</ele>
        <time>2015-02-02T21:17:53.273Z</time>
      </trkpt>
      <trkpt lat="48.86631" lon="2.28996">
        <ele>135.2</ele>
        <time>2015-02-02T21:17:53.585Z</time>
      </trkpt>
      <trkpt lat="48.86635" lon="2.29001">
        <ele>135.9</ele>
        <time>2015-02-02T21:17:54.597Z</time>
      </trkpt>
      <trkpt lat="48.8664" lon="2.29006">
        <ele>136.9</ele>
        <time>2015-02-02T21:17:55.606Z</time>
      </trkpt>
      <trkpt lat="48.86646" lon="2.29013">
        <ele>136.3</ele>
        <time>2015-02-02T21:17:56.512Z</time>
      </trkpt>
      <trkpt lat="48.86651" lon="2.29019">
        <ele>135.7</ele>
        <time>2015-02-02T21:17:57.580Z</time>
      </trkpt>
      <trkpt lat="48.86657" lon="2.29024">
        <ele>135.1</ele>
        <time>2015-02-02T21:17:58.570Z</time>
      </trkpt>
      <trkpt lat="48.86664" lon="2.29028">
        <ele>134.5</ele>
        <time>2015-02-02T21:17:59.582Z</time>
      </trkpt>
      <trkpt lat="48.8667" lon="2.29031">
        <ele>134.9</ele>
        <time>2015-02-02T21:18:00.584Z</time>
      </trkpt>
      <trkpt lat="48.86674" lon="2.29035">
        <ele>135.1</ele>
        <time>2015-02-02T21:18:01.593Z</time>
      </trkpt>
      <trkpt lat="48.86679" lon="2.29039">
        <ele>135.4</ele>
        <time>2015-02-02T21:18:03.355Z</time>
      </trkpt>
      <trkpt lat="48.86683" lon="2.29043">
        <ele>135.3</ele>
        <time>2015-02-02T21:18:03.611Z</time>
      </trkpt>
      <trkpt lat="48.86688" lon="2.29047">
        <ele>135.4</ele>
        <time>2015-02-02T21:18:04.619Z</time>
      </trkpt>
      <trkpt lat="48.86693" lon="2.2905">
        <ele>135.8</ele>
        <time>2015-02-02T21:18:05.519Z</time>
      </trkpt>
      <trkpt lat="48.86697" lon="2.29053">
        <ele>136.5</ele>
        <time>2015-02-02T21:18:06.524Z</time>
      </trkpt>
      <trkpt lat="48.86703" lon="2.29056">
        <ele>136.9</ele>
        <time>2015-02-02T21:18:07.530Z</time>
      </trkpt>
      <trkpt lat="48.86711" lon="2.29057">
        <ele>138.1</ele>
        <time>2015-02-02T21:18:08.403Z</time>
      </trkpt>
      <trkpt lat="48.86718" lon="2.29061">
        <ele>138.5</ele>
        <time>2015-02-02T21:18:09.557Z</time>
      </trkpt>
      <trkpt lat="48.86727" lon="2.29063">
        <ele>139.4</ele>
        <time>2015-02-02T21:18:10.551Z</time>
      </trkpt>
      <trkpt lat="48.86739" lon="2.29066">
        <ele>137.6</ele>
        <time>2015-02-02T21:18:11.564Z</time>
      </trkpt>
      <trkpt lat="48.86752" lon="2.29068">
        <ele>137.1</ele>
        <time>2015-02-02T21:18:12.575Z</time>
      </trkpt>
      <trkpt lat="48.86752" lon="2.29068">
        <ele>137.1</ele>
        <time>2015-02-02T21:18:13.425Z</time>
      </trkpt>
      <trkpt lat="48.86763" lon="2.29072">
        <ele>138.5</ele>
        <time>2015-02-02T21:18:13.494Z</time>
      </trkpt>
      <trkpt lat="48.86774" lon="2.29077">
        <ele>139.5</ele>
        <time>2015-02-02T21:18:14.493Z</time>
      </trkpt>
      <trkpt lat="48.86809" lon="2.29099">
        <ele>139.9</ele>
        <time>2015-02-02T21:18:15.577Z</time>
      </trkpt>
      <trkpt lat="48.86817" lon="2.291">
        <ele>140.3</ele>
        <time>2015-02-02T21:18:16.588Z</time>
      </trkpt>
      <trkpt lat="48.86824" lon="2.29101">
        <ele>140.6</ele>
        <time>2015-02-02T21:18:17.605Z</time>
      </trkpt>
      <trkpt lat="48.86832" lon="2.29101">
        <ele>140.8</ele>
        <time>2015-02-02T21:18:18.517Z</time>
      </trkpt>
      <trkpt lat="48.86841" lon="2.29103">
        <ele>140.6</ele>
        <time>2015-02-02T21:18:19.518Z</time>
      </trkpt>
      <trkpt lat="48.86847" lon="2.29107">
        <ele>140.4</ele>
        <time>2015-02-02T21:18:20.566Z</time>
      </trkpt>
      <trkpt lat="48.86852" lon="2.2911">
        <ele>140.3</ele>
        <time>2015-02-02T21:18:21.585Z</time>
      </trkpt>
      <trkpt lat="48.86859" lon="2.29114">
        <ele>140.6</ele>
        <time>2015-02-02T21:18:22.578Z</time>
      </trkpt>
      <trkpt lat="48.86865" lon="2.29117">
        <ele>141</ele>
        <time>2015-02-02T21:18:23.589Z</time>
      </trkpt>
      <trkpt lat="48.8687" lon="2.2912">
        <ele>140.5</ele>
        <time>2015-02-02T21:18:24.598Z</time>
      </trkpt>
      <trkpt lat="48.86874" lon="2.29124">
        <ele>140.4</ele>
        <time>2015-02-02T21:18:25.515Z</time>
      </trkpt>
      <trkpt lat="48.86879" lon="2.29128">
        <ele>140.8</ele>
        <time>2015-02-02T21:18:26.513Z</time>
      </trkpt>
      <trkpt lat="48.86884" lon="2.29132">
        <ele>140.8</ele>
        <time>2015-02-02T21:18:27.551Z</time>
      </trkpt>
      <trkpt lat="48.86888" lon="2.29136">
        <ele>140.7</ele>
        <time>2015-02-02T21:18:28.567Z</time>
      </trkpt>
      <trkpt lat="48.86893" lon="2.2914">
        <ele>140.8</ele>
        <time>2015-02-02T21:18:29.575Z</time>
      </trkpt>
      <trkpt lat="48.86898" lon="2.29144">
        <ele>141.1</ele>
        <time>2015-02-02T21:18:30.581Z</time>
      </trkpt>
      <trkpt lat="48.86903" lon="2.29149">
        <ele>141.3</ele>
        <time>2015-02-02T21:18:31.589Z</time>
      </trkpt>
      <trkpt lat="48.86909" lon="2.29154">
        <ele>141.3</ele>
        <time>2015-02-02T21:18:32.514Z</time>
      </trkpt>
      <trkpt lat="48.86916" lon="2.2916">
        <ele>141</ele>
        <time>2015-02-02T21:18:33.551Z</time>
      </trkpt>
      <trkpt lat="48.86921" lon="2.29166">
        <ele>140.8</ele>
        <time>2015-02-02T21:18:34.562Z</time>
      </trkpt>
      <trkpt lat="48.86927" lon="2.29171">
        <ele>140.8</ele>
        <time>2015-02-02T21:18:35.575Z</time>
      </trkpt>
      <trkpt lat="48.86932" lon="2.29175">
        <ele>140.7</ele>
        <time>2015-02-02T21:18:36.594Z</time>
      </trkpt>
      <trkpt lat="48.86939" lon="2.29179">
        <ele>140.9</ele>
        <time>2015-02-02T21:18:37.509Z</time>
      </trkpt>
      <trkpt lat="48.86948" lon="2.29181">
        <ele>141.4</ele>
        <time>2015-02-02T21:18:38.523Z</time>
      </trkpt>
      <trkpt lat="48.86955" lon="2.29185">
        <ele>141.1</ele>
        <time>2015-02-02T21:18:39.560Z</time>
      </trkpt>
      <trkpt lat="48.86963" lon="2.29189">
        <ele>141.6</ele>
        <time>2015-02-02T21:18:40.654Z</time>
      </trkpt>
      <trkpt lat="48.86971" lon="2.29194">
        <ele>141.6</ele>
        <time>2015-02-02T21:18:41.516Z</time>
      </trkpt>
      <trkpt lat="48.86979" lon="2.29198">
        <ele>141.6</ele>
        <time>2015-02-02T21:18:42.524Z</time>
      </trkpt>
      <trkpt lat="48.86987" lon="2.29203">
        <ele>142.3</ele>
        <time>2015-02-02T21:18:43.537Z</time>
      </trkpt>
      <trkpt lat="48.86996" lon="2.29207">
        <ele>142.2</ele>
        <time>2015-02-02T21:18:44.568Z</time>
      </trkpt>
      <trkpt lat="48.87004" lon="2.29212">
        <ele>142.2</ele>
        <time>2015-02-02T21:18:45.574Z</time>
      </trkpt>
      <trkpt lat="48.87011" lon="2.29218">
        <ele>141.4</ele>
        <time>2015-02-02T21:18:46.601Z</time>
      </trkpt>
      <trkpt lat="48.87018" lon="2.29223">
        <ele>141.6</ele>
        <time>2015-02-02T21:18:47.513Z</time>
      </trkpt>
      <trkpt lat="48.87024" lon="2.29227">
        <ele>141.3</ele>
        <time>2015-02-02T21:18:48.515Z</time>
      </trkpt>
      <trkpt lat="48.8703" lon="2.29233">
        <ele>141.2</ele>
        <time>2015-02-02T21:18:49.532Z</time>
      </trkpt>
      <trkpt lat="48.87038" lon="2.29238">
        <ele>141.4</ele>
        <time>2015-02-02T21:18:50.546Z</time>
      </trkpt>
      <trkpt lat="48.87045" lon="2.29243">
        <ele>141.6</ele>
        <time>2015-02-02T21:18:51.591Z</time>
      </trkpt>
      <trkpt lat="48.87051" lon="2.29247">
        <ele>141.8</ele>
        <time>2015-02-02T21:18:52.601Z</time>
      </trkpt>
      <trkpt lat="48.87056" lon="2.29252">
        <ele>141.6</ele>
        <time>2015-02-02T21:18:53.611Z</time>
      </trkpt>
      <trkpt lat="48.87063" lon="2.29256">
        <ele>141.6</ele>
        <time>2015-02-02T21:18:54.526Z</time>
      </trkpt>
      <trkpt lat="48.8707" lon="2.29261">
        <ele>142</ele>
        <time>2015-02-02T21:18:55.575Z</time>
      </trkpt>
      <trkpt lat="48.87076" lon="2.29265">
        <ele>141.1</ele>
        <time>2015-02-02T21:18:56.598Z</time>
      </trkpt>
      <trkpt lat="48.87083" lon="2.2927">
        <ele>140.2</ele>
        <time>2015-02-02T21:18:57.646Z</time>
      </trkpt>
      <trkpt lat="48.8709" lon="2.29274">
        <ele>140.3</ele>
        <time>2015-02-02T21:18:58.513Z</time>
      </trkpt>
      <trkpt lat="48.87096" lon="2.29278">
        <ele>139.7</ele>
        <time>2015-02-02T21:18:59.527Z</time>
      </trkpt>
      <trkpt lat="48.87102" lon="2.29282">
        <ele>139.9</ele>
        <time>2015-02-02T21:19:00.559Z</time>
      </trkpt>
      <trkpt lat="48.87108" lon="2.29287">
        <ele>140.3</ele>
        <time>2015-02-02T21:19:01.569Z</time>
      </trkpt>
      <trkpt lat="48.87113" lon="2.29291">
        <ele>140.1</ele>
        <time>2015-02-02T21:19:02.581Z</time>
      </trkpt>
      <trkpt lat="48.87119" lon="2.29296">
        <ele>139.8</ele>
        <time>2015-02-02T21:19:03.639Z</time>
      </trkpt>
      <trkpt lat="48.87125" lon="2.293">
        <ele>139.3</ele>
        <time>2015-02-02T21:19:04.532Z</time>
      </trkpt>
      <trkpt lat="48.87131" lon="2.29305">
        <ele>138.9</ele>
        <time>2015-02-02T21:19:05.541Z</time>
      </trkpt>
      <trkpt lat="48.87138" lon="2.2931">
        <ele>138.5</ele>
        <time>2015-02-02T21:19:06.563Z</time>
      </trkpt>
      <trkpt lat="48.87144" lon="2.29315">
        <ele>137.8</ele>
        <time>2015-02-02T21:19:07.577Z</time>
      </trkpt>
      <trkpt lat="48.87148" lon="2.29319">
        <ele>137.8</ele>
        <time>2015-02-02T21:19:08.598Z</time>
      </trkpt>
      <trkpt lat="48.87154" lon="2.29328">
        <ele>138.5</ele>
        <time>2015-02-02T21:19:10.549Z</time>
      </trkpt>
      <trkpt lat="48.87158" lon="2.29332">
        <ele>139.2</ele>
        <time>2015-02-02T21:19:11.555Z</time>
      </trkpt>
      <trkpt lat="48.87162" lon="2.29336">
        <ele>139.9</ele>
        <time>2015-02-02T21:19:12.581Z</time>
      </trkpt>
      <trkpt lat="48.87168" lon="2.2934">
        <ele>140.7</ele>
        <time>2015-02-02T21:19:13.594Z</time>
      </trkpt>
      <trkpt lat="48.87173" lon="2.29343">
        <ele>140.7</ele>
        <time>2015-02-02T21:19:14.507Z</time>
      </trkpt>
      <trkpt lat="48.87179" lon="2.29346">
        <ele>140.5</ele>
        <time>2015-02-02T21:19:15.614Z</time>
      </trkpt>
      <trkpt lat="48.87183" lon="2.29349">
        <ele>141.4</ele>
        <time>2015-02-02T21:19:16.527Z</time>
      </trkpt>
      <trkpt lat="48.87188" lon="2.29351">
        <ele>141.7</ele>
        <time>2015-02-02T21:19:17.561Z</time>
      </trkpt>
      <trkpt lat="48.87192" lon="2.29354">
        <ele>141.5</ele>
        <time>2015-02-02T21:19:18.513Z</time>
      </trkpt>
      <trkpt lat="48.87196" lon="2.29357">
        <ele>141.8</ele>
        <time>2015-02-02T21:19:19.518Z</time>
      </trkpt>
      <trkpt lat="48.87201" lon="2.2936">
        <ele>142</ele>
        <time>2015-02-02T21:19:20.559Z</time>
      </trkpt>
      <trkpt lat="48.87205" lon="2.29364">
        <ele>142.5</ele>
        <time>2015-02-02T21:19:21.646Z</time>
      </trkpt>
      <trkpt lat="48.8721" lon="2.29367">
        <ele>142.5</ele>
        <time>2015-02-02T21:19:22.528Z</time>
      </trkpt>
      <trkpt lat="48.87215" lon="2.2937">
        <ele>142.1</ele>
        <time>2015-02-02T21:19:23.550Z</time>
      </trkpt>
      <trkpt lat="48.8722" lon="2.29373">
        <ele>142.2</ele>
        <time>2015-02-02T21:19:24.578Z</time>
      </trkpt>
      <trkpt lat="48.87224" lon="2.29375">
        <ele>142.6</ele>
        <time>2015-02-02T21:19:25.674Z</time>
      </trkpt>
      <trkpt lat="48.87227" lon="2.29379">
        <ele>142.5</ele>
        <time>2015-02-02T21:19:26.526Z</time>
      </trkpt>
      <trkpt lat="48.87232" lon="2.29382">
        <ele>142.4</ele>
        <time>2015-02-02T21:19:27.555Z</time>
      </trkpt>
      <trkpt lat="48.87238" lon="2.29387">
        <ele>141.9</ele>
        <time>2015-02-02T21:19:29.514Z</time>
      </trkpt>
      <trkpt lat="48.8724" lon="2.29391">
        <ele>141</ele>
        <time>2015-02-02T21:19:30.527Z</time>
      </trkpt>
      <trkpt lat="48.87244" lon="2.294">
        <ele>137.7</ele>
        <time>2015-02-02T21:19:32.487Z</time>
      </trkpt>
      <trkpt lat="48.87245" lon="2.29406">
        <ele>137.3</ele>
        <time>2015-02-02T21:19:33.562Z</time>
      </trkpt>
      <trkpt lat="48.87239" lon="2.29416">
        <ele>136.5</ele>
        <time>2015-02-02T21:20:32.525Z</time>
      </trkpt>
      <trkpt lat="48.87231" lon="2.29404">
        <ele>139.7</ele>
        <time>2015-02-02T21:20:33.573Z</time>
      </trkpt>
      <trkpt lat="48.87232" lon="2.29417">
        <ele>138.7</ele>
        <time>2015-02-02T21:20:35.504Z</time>
      </trkpt>
      <trkpt lat="48.87232" lon="2.29426">
        <ele>137.9</ele>
        <time>2015-02-02T21:20:36.518Z</time>
      </trkpt>
      <trkpt lat="48.87233" lon="2.29435">
        <ele>138</ele>
        <time>2015-02-02T21:20:37.540Z</time>
      </trkpt>
      <trkpt lat="48.87234" lon="2.29444">
        <ele>137.8</ele>
        <time>2015-02-02T21:20:38.550Z</time>
      </trkpt>
      <trkpt lat="48.87234" lon="2.29454">
        <ele>137.2</ele>
        <time>2015-02-02T21:20:39.562Z</time>
      </trkpt>
      <trkpt lat="48.87234" lon="2.29461">
        <ele>137</ele>
        <time>2015-02-02T21:20:40.578Z</time>
      </trkpt>
      <trkpt lat="48.87232" lon="2.2947">
        <ele>135.9</ele>
        <time>2015-02-02T21:20:41.582Z</time>
      </trkpt>
      <trkpt lat="48.87231" lon="2.29477">
        <ele>135.5</ele>
        <time>2015-02-02T21:20:42.487Z</time>
      </trkpt>
      <trkpt lat="48.87229" lon="2.29491">
        <ele>135</ele>
        <time>2015-02-02T21:20:44.508Z</time>
      </trkpt>
      <trkpt lat="48.87229" lon="2.29498">
        <ele>134.4</ele>
        <time>2015-02-02T21:20:45.649Z</time>
      </trkpt>
      <trkpt lat="48.87229" lon="2.29506">
        <ele>133.7</ele>
        <time>2015-02-02T21:20:46.516Z</time>
      </trkpt>
      <trkpt lat="48.87228" lon="2.29515">
        <ele>133.7</ele>
        <time>2015-02-02T21:20:47.519Z</time>
      </trkpt>
      <trkpt lat="48.87227" lon="2.29523">
        <ele>133.9</ele>
        <time>2015-02-02T21:20:48.541Z</time>
      </trkpt>
      <trkpt lat="48.87227" lon="2.2953">
        <ele>133.7</ele>
        <time>2015-02-02T21:20:49.542Z</time>
      </trkpt>
      <trkpt lat="48.87228" lon="2.29542">
        <ele>132.1</ele>
        <time>2015-02-02T21:20:51.560Z</time>
      </trkpt>
      <trkpt lat="48.87228" lon="2.29547">
        <ele>131.3</ele>
        <time>2015-02-02T21:20:52.575Z</time>
      </trkpt>
      <trkpt lat="48.87228" lon="2.29558">
        <ele>130.1</ele>
        <time>2015-02-02T21:20:54.508Z</time>
      </trkpt>
      <trkpt lat="48.87228" lon="2.29563">
        <ele>129.4</ele>
        <time>2015-02-02T21:20:55.524Z</time>
      </trkpt>
      <trkpt lat="48.87229" lon="2.29574">
        <ele>129.1</ele>
        <time>2015-02-02T21:20:57.592Z</time>
      </trkpt>
      <trkpt lat="48.87229" lon="2.29581">
        <ele>128.8</ele>
        <time>2015-02-02T21:20:58.611Z</time>
      </trkpt>
      <trkpt lat="48.87229" lon="2.29587">
        <ele>128.7</ele>
        <time>2015-02-02T21:20:59.525Z</time>
      </trkpt>
      <trkpt lat="48.87232" lon="2.29594">
        <ele>126.9</ele>
        <time>2015-02-02T21:21:00.578Z</time>
      </trkpt>
      <trkpt lat="48.87234" lon="2.29602">
        <ele>126.5</ele>
        <time>2015-02-02T21:21:01.595Z</time>
      </trkpt>
      <trkpt lat="48.87236" lon="2.29608">
        <ele>126.6</ele>
        <time>2015-02-02T21:21:02.611Z</time>
      </trkpt>
      <trkpt lat="48.87238" lon="2.29615">
        <ele>126.8</ele>
        <time>2015-02-02T21:21:03.630Z</time>
      </trkpt>
      <trkpt lat="48.8724" lon="2.29622">
        <ele>126.7</ele>
        <time>2015-02-02T21:21:04.508Z</time>
      </trkpt>
      <trkpt lat="48.87243" lon="2.29628">
        <ele>126.4</ele>
        <time>2015-02-02T21:21:05.538Z</time>
      </trkpt>
      <trkpt lat="48.87247" lon="2.29633">
        <ele>126.2</ele>
        <time>2015-02-02T21:21:06.532Z</time>
      </trkpt>
      <trkpt lat="48.87253" lon="2.29639">
        <ele>124.8</ele>
        <time>2015-02-02T21:21:08.541Z</time>
      </trkpt>
      <trkpt lat="48.87257" lon="2.29641">
        <ele>123.1</ele>
        <time>2015-02-02T21:21:09.645Z</time>
      </trkpt>
      <trkpt lat="48.87262" lon="2.29645">
        <ele>121.6</ele>
        <time>2015-02-02T21:21:10.615Z</time>
      </trkpt>
      <trkpt lat="48.87265" lon="2.29648">
        <ele>120.9</ele>
        <time>2015-02-02T21:21:11.517Z</time>
      </trkpt>
      <trkpt lat="48.87272" lon="2.29653">
        <ele>119.2</ele>
        <time>2015-02-02T21:21:13.548Z</time>
      </trkpt>
      <trkpt lat="48.87274" lon="2.29658">
        <ele>118.1</ele>
        <time>2015-02-02T21:21:14.588Z</time>
      </trkpt>
      <trkpt lat="48.8728" lon="2.29666">
        <ele>116.8</ele>
        <time>2015-02-02T21:21:16.504Z</time>
      </trkpt>
      <trkpt lat="48.87284" lon="2.29669">
        <ele>116.3</ele>
        <time>2015-02-02T21:21:17.541Z</time>
      </trkpt>
      <trkpt lat="48.87289" lon="2.29676">
        <ele>115.4</ele>
        <time>2015-02-02T21:21:20.601Z</time>
      </trkpt>
      <trkpt lat="48.87291" lon="2.2968">
        <ele>115</ele>
        <time>2015-02-02T21:21:21.607Z</time>
      </trkpt>
      <trkpt lat="48.87296" lon="2.29689">
        <ele>114.1</ele>
        <time>2015-02-02T21:21:23.575Z</time>
      </trkpt>
      <trkpt lat="48.87298" lon="2.29693">
        <ele>113.2</ele>
        <time>2015-02-02T21:21:24.576Z</time>
      </trkpt>
      <trkpt lat="48.87301" lon="2.29703">
        <ele>108.2</ele>
        <time>2015-02-02T21:22:11.509Z</time>
      </trkpt>
      <trkpt lat="48.87291" lon="2.29717">
        <ele>103.1</ele>
        <time>2015-02-02T21:22:12.507Z</time>
      </trkpt>
      <trkpt lat="48.87287" lon="2.29726">
        <ele>102.2</ele>
        <time>2015-02-02T21:22:15.565Z</time>
      </trkpt>
      <trkpt lat="48.87286" lon="2.29729">
        <ele>102.2</ele>
        <time>2015-02-02T21:22:16.585Z</time>
      </trkpt>
      <trkpt lat="48.87282" lon="2.29738">
        <ele>102.4</ele>
        <time>2015-02-02T21:22:19.530Z</time>
      </trkpt>
      <trkpt lat="48.8728" lon="2.29742">
        <ele>102.6</ele>
        <time>2015-02-02T21:22:20.561Z</time>
      </trkpt>
      <trkpt lat="48.87276" lon="2.2975">
        <ele>103.1</ele>
        <time>2015-02-02T21:22:22.510Z</time>
      </trkpt>
      <trkpt lat="48.87273" lon="2.29754">
        <ele>103.3</ele>
        <time>2015-02-02T21:22:23.539Z</time>
      </trkpt>
      <trkpt lat="48.87269" lon="2.29763">
        <ele>103.5</ele>
        <time>2015-02-02T21:22:25.555Z</time>
      </trkpt>
      <trkpt lat="48.87267" lon="2.29769">
        <ele>103.5</ele>
        <time>2015-02-02T21:22:26.556Z</time>
      </trkpt>
      <trkpt lat="48.87265" lon="2.29775">
        <ele>103.5</ele>
        <time>2015-02-02T21:22:27.602Z</time>
      </trkpt>
      <trkpt lat="48.87263" lon="2.29782">
        <ele>103.5</ele>
        <time>2015-02-02T21:22:28.505Z</time>
      </trkpt>
      <trkpt lat="48.87259" lon="2.29793">
        <ele>103.7</ele>
        <time>2015-02-02T21:22:30.521Z</time>
      </trkpt>
      <trkpt lat="48.87257" lon="2.29799">
        <ele>103.9</ele>
        <time>2015-02-02T21:22:31.581Z</time>
      </trkpt>
      <trkpt lat="48.87255" lon="2.29811">
        <ele>104</ele>
        <time>2015-02-02T21:22:33.620Z</time>
      </trkpt>
      <trkpt lat="48.87254" lon="2.29816">
        <ele>103.8</ele>
        <time>2015-02-02T21:22:34.525Z</time>
      </trkpt>
      <trkpt lat="48.87251" lon="2.29828">
        <ele>103.2</ele>
        <time>2015-02-02T21:22:37.566Z</time>
      </trkpt>
      <trkpt lat="48.87249" lon="2.29834">
        <ele>103</ele>
        <time>2015-02-02T21:22:38.521Z</time>
      </trkpt>
      <trkpt lat="48.87245" lon="2.29845">
        <ele>103.2</ele>
        <time>2015-02-02T21:22:40.533Z</time>
      </trkpt>
      <trkpt lat="48.87243" lon="2.29851">
        <ele>103.4</ele>
        <time>2015-02-02T21:22:41.596Z</time>
      </trkpt>
      <trkpt lat="48.8724" lon="2.29858">
        <ele>103.6</ele>
        <time>2015-02-02T21:22:42.512Z</time>
      </trkpt>
      <trkpt lat="48.87238" lon="2.29863">
        <ele>103.7</ele>
        <time>2015-02-02T21:22:43.522Z</time>
      </trkpt>
      <trkpt lat="48.87232" lon="2.29874">
        <ele>104</ele>
        <time>2015-02-02T21:22:45.588Z</time>
      </trkpt>
      <trkpt lat="48.8723" lon="2.29879">
        <ele>104.1</ele>
        <time>2015-02-02T21:22:46.514Z</time>
      </trkpt>
      <trkpt lat="48.87227" lon="2.29891">
        <ele>104.2</ele>
        <time>2015-02-02T21:22:48.595Z</time>
      </trkpt>
      <trkpt lat="48.87224" lon="2.29897">
        <ele>104.2</ele>
        <time>2015-02-02T21:22:49.608Z</time>
      </trkpt>
      <trkpt lat="48.87219" lon="2.29907">
        <ele>104.1</ele>
        <time>2015-02-02T21:22:51.544Z</time>
      </trkpt>
      <trkpt lat="48.87217" lon="2.29913">
        <ele>103.8</ele>
        <time>2015-02-02T21:22:52.539Z</time>
      </trkpt>
      <trkpt lat="48.87215" lon="2.29926">
        <ele>103</ele>
        <time>2015-02-02T21:22:55.517Z</time>
      </trkpt>
      <trkpt lat="48.87214" lon="2.29931">
        <ele>102.9</ele>
        <time>2015-02-02T21:22:56.597Z</time>
      </trkpt>
      <trkpt lat="48.8721" lon="2.29941">
        <ele>102.9</ele>
        <time>2015-02-02T21:22:58.507Z</time>
      </trkpt>
      <trkpt lat="48.87207" lon="2.29948">
        <ele>103</ele>
        <time>2015-02-02T21:22:59.501Z</time>
      </trkpt>
      <trkpt lat="48.87205" lon="2.29954">
        <ele>103.1</ele>
        <time>2015-02-02T21:23:00.535Z</time>
      </trkpt>
      <trkpt lat="48.87202" lon="2.2996">
        <ele>103.2</ele>
        <time>2015-02-02T21:23:01.556Z</time>
      </trkpt>
      <trkpt lat="48.87199" lon="2.29967">
        <ele>103.2</ele>
        <time>2015-02-02T21:23:02.580Z</time>
      </trkpt>
      <trkpt lat="48.87197" lon="2.29974">
        <ele>103.2</ele>
        <time>2015-02-02T21:23:03.638Z</time>
      </trkpt>
      <trkpt lat="48.87194" lon="2.29981">
        <ele>103.1</ele>
        <time>2015-02-02T21:23:04.502Z</time>
      </trkpt>
      <trkpt lat="48.87192" lon="2.29988">
        <ele>103.3</ele>
        <time>2015-02-02T21:23:05.506Z</time>
      </trkpt>
      <trkpt lat="48.87189" lon="2.29995">
        <ele>103.4</ele>
        <time>2015-02-02T21:23:06.563Z</time>
      </trkpt>
      <trkpt lat="48.87185" lon="2.30002">
        <ele>103.5</ele>
        <time>2015-02-02T21:23:07.569Z</time>
      </trkpt>
      <trkpt lat="48.87182" lon="2.30009">
        <ele>103.5</ele>
        <time>2015-02-02T21:23:08.673Z</time>
      </trkpt>
      <trkpt lat="48.8718" lon="2.30015">
        <ele>103.5</ele>
        <time>2015-02-02T21:23:09.556Z</time>
      </trkpt>
      <trkpt lat="48.87178" lon="2.30025">
        <ele>103.3</ele>
        <time>2015-02-02T21:23:11.666Z</time>
      </trkpt>
      <trkpt lat="48.87177" lon="2.30028">
        <ele>102.9</ele>
        <time>2015-02-02T21:23:12.526Z</time>
      </trkpt>
      <trkpt lat="48.87179" lon="2.30039">
        <ele>99.9</ele>
        <time>2015-02-02T21:23:18.594Z</time>
      </trkpt>
      <trkpt lat="48.8718" lon="2.30042">
        <ele>99.3</ele>
        <time>2015-02-02T21:23:19.521Z</time>
      </trkpt>
      <trkpt lat="48.87176" lon="2.30053">
        <ele>99</ele>
        <time>2015-02-02T21:23:22.529Z</time>
      </trkpt>
      <trkpt lat="48.87176" lon="2.30057">
        <ele>98.9</ele>
        <time>2015-02-02T21:23:23.544Z</time>
      </trkpt>
      <trkpt lat="48.87175" lon="2.3007">
        <ele>98.5</ele>
        <time>2015-02-02T21:23:26.607Z</time>
      </trkpt>
      <trkpt lat="48.87176" lon="2.30074">
        <ele>98.5</ele>
        <time>2015-02-02T21:23:27.530Z</time>
      </trkpt>
      <trkpt lat="48.87175" lon="2.30081">
        <ele>99</ele>
        <time>2015-02-02T21:23:53.538Z</time>
      </trkpt>
      <trkpt lat="48.87175" lon="2.30102">
        <ele>97</ele>
        <time>2015-02-02T21:23:54.550Z</time>
      </trkpt>
      <trkpt lat="48.87172" lon="2.30112">
        <ele>96.6</ele>
        <time>2015-02-02T21:23:57.560Z</time>
      </trkpt>
      <trkpt lat="48.87171" lon="2.30116">
        <ele>96.7</ele>
        <time>2015-02-02T21:23:58.571Z</time>
      </trkpt>
      <trkpt lat="48.87168" lon="2.30124">
        <ele>96.6</ele>
        <time>2015-02-02T21:24:01.540Z</time>
      </trkpt>
      <trkpt lat="48.87166" lon="2.30127">
        <ele>96.6</ele>
        <time>2015-02-02T21:24:02.564Z</time>
      </trkpt>
      <trkpt lat="48.8716" lon="2.30133">
        <ele>95.7</ele>
        <time>2015-02-02T21:24:04.606Z</time>
      </trkpt>
      <trkpt lat="48.87158" lon="2.30137">
        <ele>95.9</ele>
        <time>2015-02-02T21:24:05.585Z</time>
      </trkpt>
      <trkpt lat="48.87155" lon="2.30148">
        <ele>95.6</ele>
        <time>2015-02-02T21:24:07.501Z</time>
      </trkpt>
      <trkpt lat="48.87153" lon="2.30154">
        <ele>95.5</ele>
        <time>2015-02-02T21:24:08.584Z</time>
      </trkpt>
      <trkpt lat="48.87147" lon="2.30165">
        <ele>95.5</ele>
        <time>2015-02-02T21:24:10.510Z</time>
      </trkpt>
      <trkpt lat="48.87144" lon="2.30171">
        <ele>95.4</ele>
        <time>2015-02-02T21:24:11.599Z</time>
      </trkpt>
      <trkpt lat="48.87142" lon="2.30178">
        <ele>95.6</ele>
        <time>2015-02-02T21:24:12.511Z</time>
      </trkpt>
      <trkpt lat="48.87139" lon="2.30185">
        <ele>95.6</ele>
        <time>2015-02-02T21:24:13.515Z</time>
      </trkpt>
      <trkpt lat="48.87138" lon="2.30192">
        <ele>95.5</ele>
        <time>2015-02-02T21:24:14.539Z</time>
      </trkpt>
      <trkpt lat="48.87136" lon="2.30199">
        <ele>95.4</ele>
        <time>2015-02-02T21:24:15.569Z</time>
      </trkpt>
      <trkpt lat="48.87134" lon="2.30205">
        <ele>95.3</ele>
        <time>2015-02-02T21:24:16.574Z</time>
      </trkpt>
      <trkpt lat="48.87131" lon="2.30213">
        <ele>95.2</ele>
        <time>2015-02-02T21:24:17.619Z</time>
      </trkpt>
      <trkpt lat="48.87129" lon="2.3022">
        <ele>94.4</ele>
        <time>2015-02-02T21:24:18.505Z</time>
      </trkpt>
      <trkpt lat="48.87128" lon="2.30227">
        <ele>93.9</ele>
        <time>2015-02-02T21:24:19.505Z</time>
      </trkpt>
      <trkpt lat="48.87126" lon="2.30235">
        <ele>93.9</ele>
        <time>2015-02-02T21:24:20.517Z</time>
      </trkpt>
      <trkpt lat="48.87125" lon="2.30242">
        <ele>94.4</ele>
        <time>2015-02-02T21:24:21.543Z</time>
      </trkpt>
      <trkpt lat="48.87121" lon="2.30253">
        <ele>94.8</ele>
        <time>2015-02-02T21:24:23.482Z</time>
      </trkpt>
      <trkpt lat="48.87121" lon="2.30258">
        <ele>94.6</ele>
        <time>2015-02-02T21:24:24.503Z</time>
      </trkpt>
      <trkpt lat="48.87119" lon="2.30268">
        <ele>94.9</ele>
        <time>2015-02-02T21:24:26.601Z</time>
      </trkpt>
      <trkpt lat="48.87117" lon="2.30272">
        <ele>95.3</ele>
        <time>2015-02-02T21:24:27.632Z</time>
      </trkpt>
      <trkpt lat="48.87112" lon="2.3028">
        <ele>95.1</ele>
        <time>2015-02-02T21:24:29.512Z</time>
      </trkpt>
      <trkpt lat="48.87109" lon="2.30287">
        <ele>95.3</ele>
        <time>2015-02-02T21:24:30.520Z</time>
      </trkpt>
      <trkpt lat="48.87106" lon="2.30294">
        <ele>95.4</ele>
        <time>2015-02-02T21:24:31.541Z</time>
      </trkpt>
      <trkpt lat="48.87104" lon="2.30301">
        <ele>95.7</ele>
        <time>2015-02-02T21:24:32.555Z</time>
      </trkpt>
      <trkpt lat="48.87101" lon="2.30308">
        <ele>95.8</ele>
        <time>2015-02-02T21:24:33.564Z</time>
      </trkpt>
      <trkpt lat="48.87098" lon="2.30315">
        <ele>95.9</ele>
        <time>2015-02-02T21:24:34.571Z</time>
      </trkpt>
      <trkpt lat="48.87094" lon="2.30322">
        <ele>95.7</ele>
        <time>2015-02-02T21:24:35.575Z</time>
      </trkpt>
      <trkpt lat="48.8709" lon="2.30328">
        <ele>95.7</ele>
        <time>2015-02-02T21:24:36.603Z</time>
      </trkpt>
      <trkpt lat="48.87089" lon="2.30338">
        <ele>95.5</ele>
        <time>2015-02-02T21:24:38.533Z</time>
      </trkpt>
      <trkpt lat="48.87089" lon="2.30344">
        <ele>95.5</ele>
        <time>2015-02-02T21:24:39.555Z</time>
      </trkpt>
      <trkpt lat="48.87086" lon="2.30354">
        <ele>95.6</ele>
        <time>2015-02-02T21:24:41.597Z</time>
      </trkpt>
      <trkpt lat="48.87084" lon="2.30358">
        <ele>95.8</ele>
        <time>2015-02-02T21:24:42.606Z</time>
      </trkpt>
      <trkpt lat="48.87077" lon="2.30366">
        <ele>95.4</ele>
        <time>2015-02-02T21:24:45.568Z</time>
      </trkpt>
      <trkpt lat="48.87075" lon="2.30368">
        <ele>95.4</ele>
        <time>2015-02-02T21:24:46.483Z</time>
      </trkpt>
      <trkpt lat="48.87069" lon="2.30379">
        <ele>95</ele>
        <time>2015-02-02T21:24:48.487Z</time>
      </trkpt>
      <trkpt lat="48.87068" lon="2.30385">
        <ele>94.8</ele>
        <time>2015-02-02T21:24:49.500Z</time>
      </trkpt>
      <trkpt lat="48.87067" lon="2.30393">
        <ele>94.6</ele>
        <time>2015-02-02T21:24:50.568Z</time>
      </trkpt>
      <trkpt lat="48.87067" lon="2.30399">
        <ele>94.3</ele>
        <time>2015-02-02T21:24:51.581Z</time>
      </trkpt>
      <trkpt lat="48.87065" lon="2.30407">
        <ele>93.7</ele>
        <time>2015-02-02T21:24:52.592Z</time>
      </trkpt>
      <trkpt lat="48.87062" lon="2.30414">
        <ele>93.2</ele>
        <time>2015-02-02T21:24:53.481Z</time>
      </trkpt>
      <trkpt lat="48.8706" lon="2.30426">
        <ele>92.7</ele>
        <time>2015-02-02T21:24:55.585Z</time>
      </trkpt>
      <trkpt lat="48.8706" lon="2.30432">
        <ele>92.6</ele>
        <time>2015-02-02T21:24:56.595Z</time>
      </trkpt>
      <trkpt lat="48.87059" lon="2.30443">
        <ele>92.6</ele>
        <time>2015-02-02T21:24:58.570Z</time>
      </trkpt>
      <trkpt lat="48.87059" lon="2.30448">
        <ele>92.6</ele>
        <time>2015-02-02T21:24:59.586Z</time>
      </trkpt>
      <trkpt lat="48.87054" lon="2.30459">
        <ele>92.9</ele>
        <time>2015-02-02T21:25:01.526Z</time>
      </trkpt>
      <trkpt lat="48.87052" lon="2.30464">
        <ele>93</ele>
        <time>2015-02-02T21:25:02.540Z</time>
      </trkpt>
      <trkpt lat="48.8705" lon="2.30471">
        <ele>93.1</ele>
        <time>2015-02-02T21:25:03.596Z</time>
      </trkpt>
      <trkpt lat="48.87047" lon="2.30477">
        <ele>93.1</ele>
        <time>2015-02-02T21:25:04.613Z</time>
      </trkpt>
      <trkpt lat="48.87043" lon="2.30482">
        <ele>93.1</ele>
        <time>2015-02-02T21:25:05.482Z</time>
      </trkpt>
      <trkpt lat="48.87041" lon="2.30489">
        <ele>93.1</ele>
        <time>2015-02-02T21:25:06.502Z</time>
      </trkpt>
      <trkpt lat="48.87039" lon="2.30502">
        <ele>93.5</ele>
        <time>2015-02-02T21:25:09.565Z</time>
      </trkpt>
      <trkpt lat="48.8704" lon="2.30505">
        <ele>93.8</ele>
        <time>2015-02-02T21:25:10.561Z</time>
      </trkpt>
      <trkpt lat="48.8704" lon="2.30508">
        <ele>93.9</ele>
        <time>2015-02-02T21:25:16.560Z</time>
      </trkpt>
      <trkpt lat="48.87042" lon="2.30524">
        <ele>93</ele>
        <time>2015-02-02T21:25:17.673Z</time>
      </trkpt>
      <trkpt lat="48.87041" lon="2.30534">
        <ele>92.2</ele>
        <time>2015-02-02T21:25:19.534Z</time>
      </trkpt>
      <trkpt lat="48.87038" lon="2.30539">
        <ele>92.1</ele>
        <time>2015-02-02T21:25:20.550Z</time>
      </trkpt>
      <trkpt lat="48.87035" lon="2.30551">
        <ele>91.8</ele>
        <time>2015-02-02T21:25:22.503Z</time>
      </trkpt>
      <trkpt lat="48.87033" lon="2.30557">
        <ele>91.7</ele>
        <time>2015-02-02T21:25:23.604Z</time>
      </trkpt>
      <trkpt lat="48.87029" lon="2.30563">
        <ele>91.4</ele>
        <time>2015-02-02T21:25:24.504Z</time>
      </trkpt>
      <trkpt lat="48.87026" lon="2.3057">
        <ele>91.7</ele>
        <time>2015-02-02T21:25:25.507Z</time>
      </trkpt>
      <trkpt lat="48.87023" lon="2.30577">
        <ele>91.8</ele>
        <time>2015-02-02T21:25:26.567Z</time>
      </trkpt>
      <trkpt lat="48.87019" lon="2.30583">
        <ele>91.8</ele>
        <time>2015-02-02T21:25:27.586Z</time>
      </trkpt>
      <trkpt lat="48.87015" lon="2.3059">
        <ele>91.7</ele>
        <time>2015-02-02T21:25:28.504Z</time>
      </trkpt>
      <trkpt lat="48.87012" lon="2.30597">
        <ele>91.5</ele>
        <time>2015-02-02T21:25:29.504Z</time>
      </trkpt>
      <trkpt lat="48.8701" lon="2.30603">
        <ele>91.4</ele>
        <time>2015-02-02T21:25:30.520Z</time>
      </trkpt>
      <trkpt lat="48.87008" lon="2.3061">
        <ele>91.3</ele>
        <time>2015-02-02T21:25:31.532Z</time>
      </trkpt>
      <trkpt lat="48.87006" lon="2.30622">
        <ele>90.8</ele>
        <time>2015-02-02T21:25:33.543Z</time>
      </trkpt>
      <trkpt lat="48.87004" lon="2.30629">
        <ele>90.6</ele>
        <time>2015-02-02T21:25:34.570Z</time>
      </trkpt>
      <trkpt lat="48.87001" lon="2.30641">
        <ele>90.3</ele>
        <time>2015-02-02T21:25:36.509Z</time>
      </trkpt>
      <trkpt lat="48.86999" lon="2.30646">
        <ele>90.2</ele>
        <time>2015-02-02T21:25:37.523Z</time>
      </trkpt>
      <trkpt lat="48.86997" lon="2.30655">
        <ele>89.7</ele>
        <time>2015-02-02T21:25:39.564Z</time>
      </trkpt>
      <trkpt lat="48.86996" lon="2.30659">
        <ele>89.1</ele>
        <time>2015-02-02T21:25:40.605Z</time>
      </trkpt>
      <trkpt lat="48.86995" lon="2.3067">
        <ele>89</ele>
        <time>2015-02-02T21:25:43.527Z</time>
      </trkpt>
      <trkpt lat="48.86994" lon="2.30674">
        <ele>89.4</ele>
        <time>2015-02-02T21:25:44.548Z</time>
      </trkpt>
      <trkpt lat="48.8699" lon="2.30682">
        <ele>89.1</ele>
        <time>2015-02-02T21:25:47.603Z</time>
      </trkpt>
      <trkpt lat="48.86988" lon="2.30686">
        <ele>88.8</ele>
        <time>2015-02-02T21:25:48.528Z</time>
      </trkpt>
      <trkpt lat="48.86985" lon="2.30695">
        <ele>89.1</ele>
        <time>2015-02-02T21:25:50.558Z</time>
      </trkpt>
      <trkpt lat="48.86982" lon="2.307">
        <ele>89</ele>
        <time>2015-02-02T21:25:51.574Z</time>
      </trkpt>
      <trkpt lat="48.86977" lon="2.3071">
        <ele>88.5</ele>
        <time>2015-02-02T21:25:53.524Z</time>
      </trkpt>
      <trkpt lat="48.86973" lon="2.30714">
        <ele>88.2</ele>
        <time>2015-02-02T21:25:54.531Z</time>
      </trkpt>
      <trkpt lat="48.86968" lon="2.30724">
        <ele>87.7</ele>
        <time>2015-02-02T21:25:56.518Z</time>
      </trkpt>
      <trkpt lat="48.86965" lon="2.3073">
        <ele>87</ele>
        <time>2015-02-02T21:25:57.544Z</time>
      </trkpt>
      <trkpt lat="48.86964" lon="2.30737">
        <ele>86.4</ele>
        <time>2015-02-02T21:25:58.554Z</time>
      </trkpt>
      <trkpt lat="48.86964" lon="2.30744">
        <ele>85.9</ele>
        <time>2015-02-02T21:25:59.562Z</time>
      </trkpt>
      <trkpt lat="48.86961" lon="2.30757">
        <ele>84.9</ele>
        <time>2015-02-02T21:26:01.503Z</time>
      </trkpt>
      <trkpt lat="48.86959" lon="2.30765">
        <ele>84.5</ele>
        <time>2015-02-02T21:26:02.527Z</time>
      </trkpt>
      <trkpt lat="48.86958" lon="2.30773">
        <ele>84.5</ele>
        <time>2015-02-02T21:26:03.563Z</time>
      </trkpt>
      <trkpt lat="48.86957" lon="2.3078">
        <ele>84.3</ele>
        <time>2015-02-02T21:26:04.483Z</time>
      </trkpt>
      <trkpt lat="48.86955" lon="2.30788">
        <ele>84.1</ele>
        <time>2015-02-02T21:26:05.505Z</time>
      </trkpt>
      <trkpt lat="48.86953" lon="2.30793">
        <ele>83.8</ele>
        <time>2015-02-02T21:26:06.532Z</time>
      </trkpt>
      <trkpt lat="48.86948" lon="2.30804">
        <ele>83.4</ele>
        <time>2015-02-02T21:26:08.568Z</time>
      </trkpt>
      <trkpt lat="48.86946" lon="2.3081">
        <ele>82.7</ele>
        <time>2015-02-02T21:26:09.579Z</time>
      </trkpt>
      <trkpt lat="48.86944" lon="2.30819">
        <ele>82.5</ele>
        <time>2015-02-02T21:26:11.504Z</time>
      </trkpt>
      <trkpt lat="48.86944" lon="2.30823">
        <ele>82.5</ele>
        <time>2015-02-02T21:26:12.510Z</time>
      </trkpt>
      <trkpt lat="48.86945" lon="2.30837">
        <ele>83.8</ele>
        <time>2015-02-02T21:26:18.585Z</time>
      </trkpt>
      <trkpt lat="48.86944" lon="2.30841">
        <ele>83.9</ele>
        <time>2015-02-02T21:26:19.520Z</time>
      </trkpt>
      <trkpt lat="48.86943" lon="2.30849">
        <ele>83.7</ele>
        <time>2015-02-02T21:26:20.482Z</time>
      </trkpt>
      <trkpt lat="48.86941" lon="2.30857">
        <ele>83.3</ele>
        <time>2015-02-02T21:26:21.538Z</time>
      </trkpt>
      <trkpt lat="48.86934" lon="2.30865">
        <ele>82.6</ele>
        <time>2015-02-02T21:26:23.585Z</time>
      </trkpt>
      <trkpt lat="48.86931" lon="2.30865">
        <ele>82.5</ele>
        <time>2015-02-02T21:26:24.590Z</time>
      </trkpt>
      <trkpt lat="48.86929" lon="2.30863">
        <ele>82.7</ele>
        <time>2015-02-02T21:27:50.517Z</time>
      </trkpt>
      <trkpt lat="48.86916" lon="2.30878">
        <ele>80.5</ele>
        <time>2015-02-02T21:27:51.560Z</time>
      </trkpt>
      <trkpt lat="48.86915" lon="2.30887">
        <ele>79.2</ele>
        <time>2015-02-02T21:27:53.597Z</time>
      </trkpt>
      <trkpt lat="48.86914" lon="2.30891">
        <ele>78.6</ele>
        <time>2015-02-02T21:27:54.605Z</time>
      </trkpt>
      <trkpt lat="48.86911" lon="2.30899">
        <ele>78.1</ele>
        <time>2015-02-02T21:27:56.511Z</time>
      </trkpt>
      <trkpt lat="48.8691" lon="2.30904">
        <ele>77.9</ele>
        <time>2015-02-02T21:27:57.587Z</time>
      </trkpt>
      <trkpt lat="48.86903" lon="2.30909">
        <ele>78.5</ele>
        <time>2015-02-02T21:28:00.500Z</time>
      </trkpt>
      <trkpt lat="48.869" lon="2.30909">
        <ele>78.2</ele>
        <time>2015-02-02T21:28:01.525Z</time>
      </trkpt>
      <trkpt lat="48.86894" lon="2.30912">
        <ele>78.3</ele>
        <time>2015-02-02T21:28:03.610Z</time>
      </trkpt>
      <trkpt lat="48.86891" lon="2.30913">
        <ele>78.2</ele>
        <time>2015-02-02T21:28:04.578Z</time>
      </trkpt>
      <trkpt lat="48.86885" lon="2.30915">
        <ele>78.7</ele>
        <time>2015-02-02T21:28:06.500Z</time>
      </trkpt>
      <trkpt lat="48.86882" lon="2.30916">
        <ele>78.8</ele>
        <time>2015-02-02T21:28:07.515Z</time>
      </trkpt>
      <trkpt lat="48.86876" lon="2.30919">
        <ele>79</ele>
        <time>2015-02-02T21:28:09.566Z</time>
      </trkpt>
      <trkpt lat="48.86873" lon="2.30921">
        <ele>78.8</ele>
        <time>2015-02-02T21:28:10.651Z</time>
      </trkpt>
      <trkpt lat="48.86866" lon="2.30925">
        <ele>78.6</ele>
        <time>2015-02-02T21:28:12.525Z</time>
      </trkpt>
      <trkpt lat="48.86863" lon="2.30927">
        <ele>78.6</ele>
        <time>2015-02-02T21:28:13.538Z</time>
      </trkpt>
      <trkpt lat="48.86855" lon="2.3093">
        <ele>79.3</ele>
        <time>2015-02-02T21:28:17.595Z</time>
      </trkpt>
      <trkpt lat="48.86853" lon="2.30932">
        <ele>79.5</ele>
        <time>2015-02-02T21:28:18.607Z</time>
      </trkpt>
      <trkpt lat="48.86849" lon="2.30939">
        <ele>79.3</ele>
        <time>2015-02-02T21:28:21.562Z</time>
      </trkpt>
      <trkpt lat="48.86848" lon="2.30943">
        <ele>79.5</ele>
        <time>2015-02-02T21:28:22.589Z</time>
      </trkpt>
      <trkpt lat="48.86844" lon="2.30955">
        <ele>79.7</ele>
        <time>2015-02-02T21:28:27.568Z</time>
      </trkpt>
      <trkpt lat="48.86843" lon="2.30957">
        <ele>79.6</ele>
        <time>2015-02-02T21:28:28.575Z</time>
      </trkpt>
      <trkpt lat="48.8684" lon="2.30966">
        <ele>79.3</ele>
        <time>2015-02-02T21:28:31.519Z</time>
      </trkpt>
      <trkpt lat="48.86839" lon="2.3097">
        <ele>79.6</ele>
        <time>2015-02-02T21:28:32.551Z</time>
      </trkpt>
      <trkpt lat="48.86838" lon="2.30982">
        <ele>79.2</ele>
        <time>2015-02-02T21:28:35.599Z</time>
      </trkpt>
      <trkpt lat="48.86837" lon="2.30986">
        <ele>78.8</ele>
        <time>2015-02-02T21:28:36.612Z</time>
      </trkpt>
      <trkpt lat="48.86835" lon="2.30995">
        <ele>78.6</ele>
        <time>2015-02-02T21:28:38.523Z</time>
      </trkpt>
      <trkpt lat="48.86834" lon="2.30999">
        <ele>78.6</ele>
        <time>2015-02-02T21:28:39.554Z</time>
      </trkpt>
      <trkpt lat="48.86833" lon="2.31009">
        <ele>78.7</ele>
        <time>2015-02-02T21:28:41.586Z</time>
      </trkpt>
      <trkpt lat="48.86831" lon="2.31013">
        <ele>78.3</ele>
        <time>2015-02-02T21:28:42.602Z</time>
      </trkpt>
      <trkpt lat="48.86825" lon="2.31013">
        <ele>77.6</ele>
        <time>2015-02-02T21:28:45.582Z</time>
      </trkpt>
      <trkpt lat="48.86821" lon="2.31012">
        <ele>77.1</ele>
        <time>2015-02-02T21:28:46.613Z</time>
      </trkpt>
      <trkpt lat="48.86813" lon="2.31009">
        <ele>76.8</ele>
        <time>2015-02-02T21:28:49.659Z</time>
      </trkpt>
      <trkpt lat="48.86808" lon="2.31009">
        <ele>76.4</ele>
        <time>2015-02-02T21:28:50.487Z</time>
      </trkpt>
      <trkpt lat="48.86801" lon="2.3101">
        <ele>76.7</ele>
        <time>2015-02-02T21:28:52.552Z</time>
      </trkpt>
      <trkpt lat="48.86796" lon="2.31011">
        <ele>76.6</ele>
        <time>2015-02-02T21:28:53.564Z</time>
      </trkpt>
      <trkpt lat="48.86788" lon="2.31013">
        <ele>77</ele>
        <time>2015-02-02T21:28:55.499Z</time>
      </trkpt>
      <trkpt lat="48.86783" lon="2.31015">
        <ele>77.5</ele>
        <time>2015-02-02T21:28:56.521Z</time>
      </trkpt>
      <trkpt lat="48.86778" lon="2.31015">
        <ele>77.9</ele>
        <time>2015-02-02T21:28:57.568Z</time>
      </trkpt>
      <trkpt lat="48.86773" lon="2.31015">
        <ele>78</ele>
        <time>2015-02-02T21:28:58.518Z</time>
      </trkpt>
      <trkpt lat="48.86768" lon="2.31016">
        <ele>78.3</ele>
        <time>2015-02-02T21:28:59.555Z</time>
      </trkpt>
      <trkpt lat="48.86763" lon="2.31017">
        <ele>78.7</ele>
        <time>2015-02-02T21:29:00.486Z</time>
      </trkpt>
      <trkpt lat="48.86758" lon="2.3102">
        <ele>79.1</ele>
        <time>2015-02-02T21:29:01.530Z</time>
      </trkpt>
      <trkpt lat="48.86752" lon="2.31023">
        <ele>79.2</ele>
        <time>2015-02-02T21:29:02.542Z</time>
      </trkpt>
      <trkpt lat="48.86745" lon="2.31023">
        <ele>79.4</ele>
        <time>2015-02-02T21:29:04.572Z</time>
      </trkpt>
      <trkpt lat="48.86741" lon="2.31023">
        <ele>80.1</ele>
        <time>2015-02-02T21:29:05.641Z</time>
      </trkpt>
      <trkpt lat="48.86736" lon="2.31023">
        <ele>80.7</ele>
        <time>2015-02-02T21:29:06.499Z</time>
      </trkpt>
      <trkpt lat="48.8673" lon="2.31023">
        <ele>81.2</ele>
        <time>2015-02-02T21:29:07.497Z</time>
      </trkpt>
      <trkpt lat="48.86725" lon="2.31023">
        <ele>81.5</ele>
        <time>2015-02-02T21:29:08.515Z</time>
      </trkpt>
      <trkpt lat="48.86721" lon="2.31024">
        <ele>81.5</ele>
        <time>2015-02-02T21:29:09.552Z</time>
      </trkpt>
      <trkpt lat="48.86716" lon="2.31024">
        <ele>81.6</ele>
        <time>2015-02-02T21:29:10.565Z</time>
      </trkpt>
      <trkpt lat="48.86711" lon="2.31024">
        <ele>81.8</ele>
        <time>2015-02-02T21:29:11.572Z</time>
      </trkpt>
      <trkpt lat="48.86704" lon="2.31025">
        <ele>82.4</ele>
        <time>2015-02-02T21:29:13.510Z</time>
      </trkpt>
      <trkpt lat="48.867" lon="2.31024">
        <ele>82.5</ele>
        <time>2015-02-02T21:29:14.516Z</time>
      </trkpt>
      <trkpt lat="48.86692" lon="2.31024">
        <ele>82.7</ele>
        <time>2015-02-02T21:29:16.501Z</time>
      </trkpt>
      <trkpt lat="48.86687" lon="2.31025">
        <ele>82.8</ele>
        <time>2015-02-02T21:29:17.522Z</time>
      </trkpt>
      <trkpt lat="48.86682" lon="2.31027">
        <ele>82.6</ele>
        <time>2015-02-02T21:29:18.560Z</time>
      </trkpt>
      <trkpt lat="48.86678" lon="2.31028">
        <ele>82.6</ele>
        <time>2015-02-02T21:29:19.564Z</time>
      </trkpt>
      <trkpt lat="48.86669" lon="2.3103">
        <ele>83.1</ele>
        <time>2015-02-02T21:29:21.637Z</time>
      </trkpt>
      <trkpt lat="48.86664" lon="2.31031">
        <ele>83</ele>
        <time>2015-02-02T21:29:22.517Z</time>
      </trkpt>
      <trkpt lat="48.8666" lon="2.31031">
        <ele>83.3</ele>
        <time>2015-02-02T21:29:23.550Z</time>
      </trkpt>
      <trkpt lat="48.86655" lon="2.3103">
        <ele>83.7</ele>
        <time>2015-02-02T21:29:24.589Z</time>
      </trkpt>
      <trkpt lat="48.86647" lon="2.31029">
        <ele>84.6</ele>
        <time>2015-02-02T21:29:26.505Z</time>
      </trkpt>
      <trkpt lat="48.86643" lon="2.3103">
        <ele>85.1</ele>
        <time>2015-02-02T21:29:27.559Z</time>
      </trkpt>
      <trkpt lat="48.86635" lon="2.3103">
        <ele>85.9</ele>
        <time>2015-02-02T21:29:29.589Z</time>
      </trkpt>
      <trkpt lat="48.8663" lon="2.31031">
        <ele>86.2</ele>
        <time>2015-02-02T21:29:30.578Z</time>
      </trkpt>
      <trkpt lat="48.86625" lon="2.31032">
        <ele>86.2</ele>
        <time>2015-02-02T21:29:31.499Z</time>
      </trkpt>
      <trkpt lat="48.86619" lon="2.31033">
        <ele>86.3</ele>
        <time>2015-02-02T21:29:32.527Z</time>
      </trkpt>
      <trkpt lat="48.86614" lon="2.31033">
        <ele>86.7</ele>
        <time>2015-02-02T21:29:33.547Z</time>
      </trkpt>
      <trkpt lat="48.86609" lon="2.31033">
        <ele>87</ele>
        <time>2015-02-02T21:29:34.543Z</time>
      </trkpt>
      <trkpt lat="48.86603" lon="2.31034">
        <ele>87.3</ele>
        <time>2015-02-02T21:29:35.558Z</time>
      </trkpt>
      <trkpt lat="48.86598" lon="2.31036">
        <ele>87.8</ele>
        <time>2015-02-02T21:29:36.565Z</time>
      </trkpt>
      <trkpt lat="48.86589" lon="2.31036">
        <ele>88.8</ele>
        <time>2015-02-02T21:29:38.505Z</time>
      </trkpt>
      <trkpt lat="48.86585" lon="2.31035">
        <ele>89.1</ele>
        <time>2015-02-02T21:29:39.512Z</time>
      </trkpt>
      <trkpt lat="48.86578" lon="2.31035">
        <ele>90.1</ele>
        <time>2015-02-02T21:29:41.536Z</time>
      </trkpt>
      <trkpt lat="48.86574" lon="2.31035">
        <ele>90.7</ele>
        <time>2015-02-02T21:29:42.556Z</time>
      </trkpt>
      <trkpt lat="48.86565" lon="2.31036">
        <ele>91.4</ele>
        <time>2015-02-02T21:29:44.687Z</time>
      </trkpt>
      <trkpt lat="48.86562" lon="2.31035">
        <ele>91.8</ele>
        <time>2015-02-02T21:29:45.574Z</time>
      </trkpt>
      <trkpt lat="48.86555" lon="2.31034">
        <ele>92.7</ele>
        <time>2015-02-02T21:29:47.610Z</time>
      </trkpt>
      <trkpt lat="48.86552" lon="2.31033">
        <ele>92.6</ele>
        <time>2015-02-02T21:29:48.484Z</time>
      </trkpt>
      <trkpt lat="48.86544" lon="2.31037">
        <ele>92.3</ele>
        <time>2015-02-02T21:29:51.078Z</time>
      </trkpt>
      <trkpt lat="48.86541" lon="2.31038">
        <ele>91.8</ele>
        <time>2015-02-02T21:29:51.613Z</time>
      </trkpt>
      <trkpt lat="48.86532" lon="2.31039">
        <ele>90.7</ele>
        <time>2015-02-02T21:29:54.665Z</time>
      </trkpt>
      <trkpt lat="48.86529" lon="2.3104">
        <ele>90.5</ele>
        <time>2015-02-02T21:29:55.507Z</time>
      </trkpt>
      <trkpt lat="48.86522" lon="2.31043">
        <ele>89.4</ele>
        <time>2015-02-02T21:29:58.554Z</time>
      </trkpt>
      <trkpt lat="48.86518" lon="2.31045">
        <ele>88.7</ele>
        <time>2015-02-02T21:29:59.611Z</time>
      </trkpt>
      <trkpt lat="48.8651" lon="2.31049">
        <ele>87.3</ele>
        <time>2015-02-02T21:30:03.732Z</time>
      </trkpt>
      <trkpt lat="48.86506" lon="2.31052">
        <ele>87</ele>
        <time>2015-02-02T21:30:03.769Z</time>
      </trkpt>
      <trkpt lat="48.86497" lon="2.31054">
        <ele>85.9</ele>
        <time>2015-02-02T21:30:06.580Z</time>
      </trkpt>
      <trkpt lat="48.86495" lon="2.31053">
        <ele>85.9</ele>
        <time>2015-02-02T21:30:07.480Z</time>
      </trkpt>
      <trkpt lat="48.86491" lon="2.31057">
        <ele>84.2</ele>
        <time>2015-02-02T21:30:26.554Z</time>
      </trkpt>
      <trkpt lat="48.86484" lon="2.31052">
        <ele>76.8</ele>
        <time>2015-02-02T21:30:27.580Z</time>
      </trkpt>
      <trkpt lat="48.86475" lon="2.31053">
        <ele>76.7</ele>
        <time>2015-02-02T21:30:31.597Z</time>
      </trkpt>
      <trkpt lat="48.86473" lon="2.31053">
        <ele>76.5</ele>
        <time>2015-02-02T21:30:32.555Z</time>
      </trkpt>
      <trkpt lat="48.86465" lon="2.31054">
        <ele>75.6</ele>
        <time>2015-02-02T21:30:59.512Z</time>
      </trkpt>
      <trkpt lat="48.86463" lon="2.31054">
        <ele>75.6</ele>
        <time>2015-02-02T21:31:00.516Z</time>
      </trkpt>
      <trkpt lat="48.86455" lon="2.31054">
        <ele>75.4</ele>
        <time>2015-02-02T21:31:04.590Z</time>
      </trkpt>
      <trkpt lat="48.86453" lon="2.31054">
        <ele>75.4</ele>
        <time>2015-02-02T21:31:05.609Z</time>
      </trkpt>
      <trkpt lat="48.86452" lon="2.31066">
        <ele>74.9</ele>
        <time>2015-02-02T21:31:13.588Z</time>
      </trkpt>
      <trkpt lat="48.86452" lon="2.31068">
        <ele>75.1</ele>
        <time>2015-02-02T21:31:13.629Z</time>
      </trkpt>
      <trkpt lat="48.86452" lon="2.31081">
        <ele>75.7</ele>
        <time>2015-02-02T21:31:17.473Z</time>
      </trkpt>
      <trkpt lat="48.86452" lon="2.31086">
        <ele>76.1</ele>
        <time>2015-02-02T21:31:18.505Z</time>
      </trkpt>
      <trkpt lat="48.86453" lon="2.31095">
        <ele>76.2</ele>
        <time>2015-02-02T21:31:20.564Z</time>
      </trkpt>
      <trkpt lat="48.86453" lon="2.311">
        <ele>76.5</ele>
        <time>2015-02-02T21:31:21.605Z</time>
      </trkpt>
      <trkpt lat="48.86454" lon="2.3111">
        <ele>76.4</ele>
        <time>2015-02-02T21:31:23.660Z</time>
      </trkpt>
      <trkpt lat="48.86456" lon="2.31116">
        <ele>76.5</ele>
        <time>2015-02-02T21:31:24.569Z</time>
      </trkpt>
      <trkpt lat="48.86456" lon="2.31129">
        <ele>76.5</ele>
        <time>2015-02-02T21:31:26.516Z</time>
      </trkpt>
      <trkpt lat="48.86456" lon="2.31135">
        <ele>76.5</ele>
        <time>2015-02-02T21:31:27.527Z</time>
      </trkpt>
      <trkpt lat="48.86456" lon="2.31148">
        <ele>76.1</ele>
        <time>2015-02-02T21:31:29.562Z</time>
      </trkpt>
      <trkpt lat="48.86455" lon="2.31154">
        <ele>76.2</ele>
        <time>2015-02-02T21:31:30.590Z</time>
      </trkpt>
      <trkpt lat="48.86455" lon="2.31167">
        <ele>75.9</ele>
        <time>2015-02-02T21:31:32.522Z</time>
      </trkpt>
      <trkpt lat="48.86455" lon="2.31173">
        <ele>75.9</ele>
        <time>2015-02-02T21:31:33.527Z</time>
      </trkpt>
      <trkpt lat="48.86456" lon="2.31184">
        <ele>75.8</ele>
        <time>2015-02-02T21:31:35.567Z</time>
      </trkpt>
      <trkpt lat="48.86455" lon="2.31191">
        <ele>75.8</ele>
        <time>2015-02-02T21:31:36.582Z</time>
      </trkpt>
      <trkpt lat="48.86454" lon="2.31203">
        <ele>75.7</ele>
        <time>2015-02-02T21:31:38.884Z</time>
      </trkpt>
      <trkpt lat="48.86454" lon="2.31209">
        <ele>75.5</ele>
        <time>2015-02-02T21:31:39.513Z</time>
      </trkpt>
      <trkpt lat="48.86455" lon="2.31222">
        <ele>75.7</ele>
        <time>2015-02-02T21:31:41.610Z</time>
      </trkpt>
      <trkpt lat="48.86455" lon="2.31228">
        <ele>75.8</ele>
        <time>2015-02-02T21:31:42.578Z</time>
      </trkpt>
      <trkpt lat="48.86455" lon="2.3124">
        <ele>76</ele>
        <time>2015-02-02T21:31:44.501Z</time>
      </trkpt>
      <trkpt lat="48.86454" lon="2.31247">
        <ele>75.9</ele>
        <time>2015-02-02T21:31:45.546Z</time>
      </trkpt>
      <trkpt lat="48.86455" lon="2.31259">
        <ele>75.9</ele>
        <time>2015-02-02T21:31:48.266Z</time>
      </trkpt>
      <trkpt lat="48.86455" lon="2.31265">
        <ele>75.5</ele>
        <time>2015-02-02T21:31:48.573Z</time>
      </trkpt>
      <trkpt lat="48.86455" lon="2.31276">
        <ele>74.5</ele>
        <time>2015-02-02T21:31:50.505Z</time>
      </trkpt>
      <trkpt lat="48.86455" lon="2.31282">
        <ele>74.2</ele>
        <time>2015-02-02T21:31:51.581Z</time>
      </trkpt>
      <trkpt lat="48.86455" lon="2.31293">
        <ele>74.1</ele>
        <time>2015-02-02T21:31:53.480Z</time>
      </trkpt>
      <trkpt lat="48.86455" lon="2.31299">
        <ele>74</ele>
        <time>2015-02-02T21:31:54.583Z</time>
      </trkpt>
      <trkpt lat="48.86455" lon="2.31309">
        <ele>73.3</ele>
        <time>2015-02-02T21:31:56.607Z</time>
      </trkpt>
      <trkpt lat="48.86455" lon="2.31314">
        <ele>73.3</ele>
        <time>2015-02-02T21:31:57.668Z</time>
      </trkpt>
      <trkpt lat="48.86455" lon="2.31324">
        <ele>72.5</ele>
        <time>2015-02-02T21:32:00.064Z</time>
      </trkpt>
      <trkpt lat="48.86455" lon="2.31329">
        <ele>72.1</ele>
        <time>2015-02-02T21:32:00.563Z</time>
      </trkpt>
      <trkpt lat="48.86456" lon="2.31339">
        <ele>71.4</ele>
        <time>2015-02-02T21:32:03.473Z</time>
      </trkpt>
      <trkpt lat="48.86456" lon="2.31343">
        <ele>71.1</ele>
        <time>2015-02-02T21:32:03.556Z</time>
      </trkpt>
      <trkpt lat="48.86453" lon="2.31351">
        <ele>70.3</ele>
        <time>2015-02-02T21:33:40.597Z</time>
      </trkpt>
      <trkpt lat="48.86454" lon="2.31366">
        <ele>76.6</ele>
        <time>2015-02-02T21:33:41.491Z</time>
      </trkpt>
      <trkpt lat="48.86455" lon="2.31378">
        <ele>76</ele>
        <time>2015-02-02T21:33:45.604Z</time>
      </trkpt>
      <trkpt lat="48.86455" lon="2.3138">
        <ele>75.8</ele>
        <time>2015-02-02T21:33:46.508Z</time>
      </trkpt>
      <trkpt lat="48.86455" lon="2.31383">
        <ele>75.4</ele>
        <time>2015-02-02T21:34:42.505Z</time>
      </trkpt>
      <trkpt lat="48.8646" lon="2.31403">
        <ele>73.8</ele>
        <time>2015-02-02T21:34:43.529Z</time>
      </trkpt>
      <trkpt lat="48.86461" lon="2.31414">
        <ele>73.1</ele>
        <time>2015-02-02T21:34:46.588Z</time>
      </trkpt>
      <trkpt lat="48.86461" lon="2.31417">
        <ele>73.2</ele>
        <time>2015-02-02T21:34:47.611Z</time>
      </trkpt>
      <trkpt lat="48.86459" lon="2.31428">
        <ele>73.5</ele>
        <time>2015-02-02T21:34:50.557Z</time>
      </trkpt>
      <trkpt lat="48.86459" lon="2.31431">
        <ele>73.6</ele>
        <time>2015-02-02T21:34:51.537Z</time>
      </trkpt>
      <trkpt lat="48.8646" lon="2.31444">
        <ele>73.2</ele>
        <time>2015-02-02T21:34:54.503Z</time>
      </trkpt>
      <trkpt lat="48.86461" lon="2.31449">
        <ele>73.4</ele>
        <time>2015-02-02T21:34:55.526Z</time>
      </trkpt>
      <trkpt lat="48.86461" lon="2.3146">
        <ele>73.3</ele>
        <time>2015-02-02T21:34:58.621Z</time>
      </trkpt>
      <trkpt lat="48.86462" lon="2.31466">
        <ele>73.5</ele>
        <time>2015-02-02T21:34:58.662Z</time>
      </trkpt>
      <trkpt lat="48.86463" lon="2.3148">
        <ele>73.8</ele>
        <time>2015-02-02T21:35:00.511Z</time>
      </trkpt>
      <trkpt lat="48.86462" lon="2.31485">
        <ele>74.2</ele>
        <time>2015-02-02T21:35:01.578Z</time>
      </trkpt>
      <trkpt lat="48.86461" lon="2.31497">
        <ele>74.5</ele>
        <time>2015-02-02T21:35:03.676Z</time>
      </trkpt>
      <trkpt lat="48.86462" lon="2.31503">
        <ele>74.2</ele>
        <time>2015-02-02T21:35:04.591Z</time>
      </trkpt>
      <trkpt lat="48.86464" lon="2.31516">
        <ele>73.9</ele>
        <time>2015-02-02T21:35:06.509Z</time>
      </trkpt>
      <trkpt lat="48.86464" lon="2.31523">
        <ele>73.7</ele>
        <time>2015-02-02T21:35:07.513Z</time>
      </trkpt>
      <trkpt lat="48.86464" lon="2.3153">
        <ele>73.8</ele>
        <time>2015-02-02T21:35:08.822Z</time>
      </trkpt>
      <trkpt lat="48.86465" lon="2.31537">
        <ele>73.8</ele>
        <time>2015-02-02T21:35:09.612Z</time>
      </trkpt>
      <trkpt lat="48.86465" lon="2.3155">
        <ele>74.1</ele>
        <time>2015-02-02T21:35:11.506Z</time>
      </trkpt>
      <trkpt lat="48.86466" lon="2.31558">
        <ele>74.3</ele>
        <time>2015-02-02T21:35:12.601Z</time>
      </trkpt>
      <trkpt lat="48.86466" lon="2.31565">
        <ele>74.3</ele>
        <time>2015-02-02T21:35:13.849Z</time>
      </trkpt>
      <trkpt lat="48.86466" lon="2.31573">
        <ele>74.3</ele>
        <time>2015-02-02T21:35:14.507Z</time>
      </trkpt>
      <trkpt lat="48.86466" lon="2.31581">
        <ele>74.4</ele>
        <time>2015-02-02T21:35:15.544Z</time>
      </trkpt>
      <trkpt lat="48.86466" lon="2.31589">
        <ele>74.3</ele>
        <time>2015-02-02T21:35:16.531Z</time>
      </trkpt>
      <trkpt lat="48.86466" lon="2.31597">
        <ele>74.4</ele>
        <time>2015-02-02T21:35:17.545Z</time>
      </trkpt>
      <trkpt lat="48.86467" lon="2.31604">
        <ele>74.6</ele>
        <time>2015-02-02T21:35:18.558Z</time>
      </trkpt>
      <trkpt lat="48.86467" lon="2.31612">
        <ele>74.2</ele>
        <time>2015-02-02T21:35:19.513Z</time>
      </trkpt>
      <trkpt lat="48.86467" lon="2.31619">
        <ele>73.9</ele>
        <time>2015-02-02T21:35:20.508Z</time>
      </trkpt>
      <trkpt lat="48.86468" lon="2.31628">
        <ele>74.3</ele>
        <time>2015-02-02T21:35:21.539Z</time>
      </trkpt>
      <trkpt lat="48.86468" lon="2.31638">
        <ele>74.5</ele>
        <time>2015-02-02T21:35:22.541Z</time>
      </trkpt>
      <trkpt lat="48.86468" lon="2.31647">
        <ele>74</ele>
        <time>2015-02-02T21:35:23.988Z</time>
      </trkpt>
      <trkpt lat="48.86469" lon="2.31658">
        <ele>73.6</ele>
        <time>2015-02-02T21:35:24.565Z</time>
      </trkpt>
      <trkpt lat="48.86469" lon="2.31669">
        <ele>72.8</ele>
        <time>2015-02-02T21:35:25.588Z</time>
      </trkpt>
      <trkpt lat="48.8647" lon="2.3168">
        <ele>72.7</ele>
        <time>2015-02-02T21:35:26.511Z</time>
      </trkpt>
      <trkpt lat="48.8647" lon="2.31691">
        <ele>72.9</ele>
        <time>2015-02-02T21:35:27.551Z</time>
      </trkpt>
      <trkpt lat="48.86471" lon="2.31701">
        <ele>72.5</ele>
        <time>2015-02-02T21:35:28.470Z</time>
      </trkpt>
      <trkpt lat="48.86472" lon="2.31712">
        <ele>72.4</ele>
        <time>2015-02-02T21:35:29.507Z</time>
      </trkpt>
      <trkpt lat="48.86472" lon="2.31721">
        <ele>72.3</ele>
        <time>2015-02-02T21:35:30.516Z</time>
      </trkpt>
      <trkpt lat="48.86472" lon="2.3173">
        <ele>72.6</ele>
        <time>2015-02-02T21:35:31.576Z</time>
      </trkpt>
      <trkpt lat="48.86473" lon="2.31738">
        <ele>73.1</ele>
        <time>2015-02-02T21:35:32.590Z</time>
      </trkpt>
      <trkpt lat="48.86473" lon="2.31746">
        <ele>73.4</ele>
        <time>2015-02-02T21:35:33.547Z</time>
      </trkpt>
      <trkpt lat="48.86473" lon="2.31754">
        <ele>73.8</ele>
        <time>2015-02-02T21:35:34.562Z</time>
      </trkpt>
      <trkpt lat="48.86473" lon="2.31763">
        <ele>73.9</ele>
        <time>2015-02-02T21:35:35.573Z</time>
      </trkpt>
      <trkpt lat="48.86474" lon="2.3177">
        <ele>73.9</ele>
        <time>2015-02-02T21:35:36.585Z</time>
      </trkpt>
      <trkpt lat="48.86474" lon="2.31783">
        <ele>73.7</ele>
        <time>2015-02-02T21:35:38.493Z</time>
      </trkpt>
      <trkpt lat="48.86474" lon="2.31788">
        <ele>73.8</ele>
        <time>2015-02-02T21:35:39.545Z</time>
      </trkpt>
      <trkpt lat="48.86474" lon="2.31798">
        <ele>73.7</ele>
        <time>2015-02-02T21:35:41.571Z</time>
      </trkpt>
      <trkpt lat="48.86474" lon="2.31803">
        <ele>73.7</ele>
        <time>2015-02-02T21:35:42.513Z</time>
      </trkpt>
      <trkpt lat="48.86473" lon="2.31814">
        <ele>73.6</ele>
        <time>2015-02-02T21:35:44.546Z</time>
      </trkpt>
      <trkpt lat="48.86473" lon="2.31819">
        <ele>73.8</ele>
        <time>2015-02-02T21:35:45.563Z</time>
      </trkpt>
      <trkpt lat="48.86471" lon="2.31832">
        <ele>73.8</ele>
        <time>2015-02-02T21:35:47.511Z</time>
      </trkpt>
      <trkpt lat="48.86469" lon="2.31837">
        <ele>73.5</ele>
        <time>2015-02-02T21:35:48.511Z</time>
      </trkpt>
      <trkpt lat="48.86464" lon="2.31845">
        <ele>73.4</ele>
        <time>2015-02-02T21:35:50.558Z</time>
      </trkpt>
      <trkpt lat="48.86462" lon="2.31848">
        <ele>73.4</ele>
        <time>2015-02-02T21:35:51.635Z</time>
      </trkpt>
      <trkpt lat="48.86456" lon="2.31856">
        <ele>73.5</ele>
        <time>2015-02-02T21:35:54.521Z</time>
      </trkpt>
      <trkpt lat="48.86453" lon="2.31857">
        <ele>73.5</ele>
        <time>2015-02-02T21:35:55.537Z</time>
      </trkpt>
      <trkpt lat="48.86448" lon="2.31866">
        <ele>72.4</ele>
        <time>2015-02-02T21:35:58.471Z</time>
      </trkpt>
      <trkpt lat="48.86447" lon="2.3187">
        <ele>72.2</ele>
        <time>2015-02-02T21:35:59.500Z</time>
      </trkpt>
      <trkpt lat="48.86442" lon="2.31877">
        <ele>72.5</ele>
        <time>2015-02-02T21:36:02.578Z</time>
      </trkpt>
      <trkpt lat="48.8644" lon="2.31881">
        <ele>72.5</ele>
        <time>2015-02-02T21:36:03.593Z</time>
      </trkpt>
      <trkpt lat="48.86437" lon="2.31888">
        <ele>71.9</ele>
        <time>2015-02-02T21:36:05.494Z</time>
      </trkpt>
      <trkpt lat="48.86435" lon="2.31893">
        <ele>71.8</ele>
        <time>2015-02-02T21:36:06.579Z</time>
      </trkpt>
      <trkpt lat="48.86432" lon="2.31903">
        <ele>71.4</ele>
        <time>2015-02-02T21:36:08.556Z</time>
      </trkpt>
      <trkpt lat="48.86431" lon="2.31908">
        <ele>71.4</ele>
        <time>2015-02-02T21:36:09.563Z</time>
      </trkpt>
      <trkpt lat="48.86428" lon="2.3192">
        <ele>71.3</ele>
        <time>2015-02-02T21:36:11.512Z</time>
      </trkpt>
      <trkpt lat="48.86426" lon="2.31926">
        <ele>70.9</ele>
        <time>2015-02-02T21:36:12.529Z</time>
      </trkpt>
      <trkpt lat="48.86423" lon="2.31937">
        <ele>71.3</ele>
        <time>2015-02-02T21:36:14.574Z</time>
      </trkpt>
      <trkpt lat="48.86421" lon="2.31941">
        <ele>71.5</ele>
        <time>2015-02-02T21:36:15.599Z</time>
      </trkpt>
      <trkpt lat="48.86419" lon="2.3195">
        <ele>71.7</ele>
        <time>2015-02-02T21:36:17.490Z</time>
      </trkpt>
      <trkpt lat="48.86418" lon="2.31955">
        <ele>71.8</ele>
        <time>2015-02-02T21:36:18.505Z</time>
      </trkpt>
      <trkpt lat="48.86415" lon="2.31964">
        <ele>71.8</ele>
        <time>2015-02-02T21:36:20.539Z</time>
      </trkpt>
      <trkpt lat="48.86414" lon="2.31969">
        <ele>71.6</ele>
        <time>2015-02-02T21:36:21.551Z</time>
      </trkpt>
      <trkpt lat="48.86411" lon="2.31978">
        <ele>71.8</ele>
        <time>2015-02-02T21:36:23.490Z</time>
      </trkpt>
      <trkpt lat="48.8641" lon="2.31981">
        <ele>72.3</ele>
        <time>2015-02-02T21:36:24.506Z</time>
      </trkpt>
      <trkpt lat="48.86406" lon="2.31988">
        <ele>73.8</ele>
        <time>2015-02-02T21:37:05.489Z</time>
      </trkpt>
      <trkpt lat="48.86408" lon="2.31998">
        <ele>74.9</ele>
        <time>2015-02-02T21:37:06.505Z</time>
      </trkpt>
      <trkpt lat="48.86403" lon="2.32009">
        <ele>73.8</ele>
        <time>2015-02-02T21:37:10.571Z</time>
      </trkpt>
      <trkpt lat="48.86402" lon="2.32012">
        <ele>73.9</ele>
        <time>2015-02-02T21:37:11.474Z</time>
      </trkpt>
      <trkpt lat="48.864" lon="2.32025">
        <ele>73.3</ele>
        <time>2015-02-02T21:37:15.569Z</time>
      </trkpt>
      <trkpt lat="48.86399" lon="2.32028">
        <ele>73.3</ele>
        <time>2015-02-02T21:37:16.467Z</time>
      </trkpt>
      <trkpt lat="48.86395" lon="2.3204">
        <ele>72.8</ele>
        <time>2015-02-02T21:37:19.553Z</time>
      </trkpt>
      <trkpt lat="48.86394" lon="2.32044">
        <ele>72.8</ele>
        <time>2015-02-02T21:37:20.559Z</time>
      </trkpt>
      <trkpt lat="48.86392" lon="2.32053">
        <ele>72.8</ele>
        <time>2015-02-02T21:37:22.466Z</time>
      </trkpt>
      <trkpt lat="48.8639" lon="2.32058">
        <ele>72.7</ele>
        <time>2015-02-02T21:37:23.500Z</time>
      </trkpt>
      <trkpt lat="48.86386" lon="2.32068">
        <ele>72.2</ele>
        <time>2015-02-02T21:37:25.539Z</time>
      </trkpt>
      <trkpt lat="48.86385" lon="2.32073">
        <ele>72</ele>
        <time>2015-02-02T21:37:26.509Z</time>
      </trkpt>
      <trkpt lat="48.86381" lon="2.32085">
        <ele>72</ele>
        <time>2015-02-02T21:37:28.554Z</time>
      </trkpt>
      <trkpt lat="48.86379" lon="2.32091">
        <ele>72.1</ele>
        <time>2015-02-02T21:37:29.561Z</time>
      </trkpt>
      <trkpt lat="48.86378" lon="2.32098">
        <ele>72.2</ele>
        <time>2015-02-02T21:37:30.512Z</time>
      </trkpt>
      <trkpt lat="48.86376" lon="2.32104">
        <ele>72.4</ele>
        <time>2015-02-02T21:37:31.508Z</time>
      </trkpt>
      <trkpt lat="48.86372" lon="2.32115">
        <ele>72.4</ele>
        <time>2015-02-02T21:37:33.516Z</time>
      </trkpt>
      <trkpt lat="48.8637" lon="2.32119">
        <ele>72.4</ele>
        <time>2015-02-02T21:37:34.525Z</time>
      </trkpt>
      <trkpt lat="48.86367" lon="2.32129">
        <ele>72.1</ele>
        <time>2015-02-02T21:37:36.563Z</time>
      </trkpt>
      <trkpt lat="48.86365" lon="2.32134">
        <ele>71.9</ele>
        <time>2015-02-02T21:37:37.572Z</time>
      </trkpt>
      <trkpt lat="48.86363" lon="2.32141">
        <ele>72</ele>
        <time>2015-02-02T21:37:38.480Z</time>
      </trkpt>
      <trkpt lat="48.86361" lon="2.32147">
        <ele>72.2</ele>
        <time>2015-02-02T21:37:39.560Z</time>
      </trkpt>
      <trkpt lat="48.86359" lon="2.32154">
        <ele>72.3</ele>
        <time>2015-02-02T21:37:40.574Z</time>
      </trkpt>
      <trkpt lat="48.86356" lon="2.3216">
        <ele>72.2</ele>
        <time>2015-02-02T21:37:41.578Z</time>
      </trkpt>
      <trkpt lat="48.86354" lon="2.32167">
        <ele>72.3</ele>
        <time>2015-02-02T21:37:42.493Z</time>
      </trkpt>
      <trkpt lat="48.86352" lon="2.32173">
        <ele>72.5</ele>
        <time>2015-02-02T21:37:43.494Z</time>
      </trkpt>
      <trkpt lat="48.8635" lon="2.3218">
        <ele>72.6</ele>
        <time>2015-02-02T21:37:45.055Z</time>
      </trkpt>
      <trkpt lat="48.86347" lon="2.32187">
        <ele>72.6</ele>
        <time>2015-02-02T21:37:45.528Z</time>
      </trkpt>
      <trkpt lat="48.86345" lon="2.32194">
        <ele>72.6</ele>
        <time>2015-02-02T21:37:46.546Z</time>
      </trkpt>
      <trkpt lat="48.86343" lon="2.32202">
        <ele>72.5</ele>
        <time>2015-02-02T21:37:47.555Z</time>
      </trkpt>
      <trkpt lat="48.8634" lon="2.32211">
        <ele>72.4</ele>
        <time>2015-02-02T21:37:48.572Z</time>
      </trkpt>
      <trkpt lat="48.86338" lon="2.32218">
        <ele>72.3</ele>
        <time>2015-02-02T21:37:49.585Z</time>
      </trkpt>
      <trkpt lat="48.86335" lon="2.32227">
        <ele>72.2</ele>
        <time>2015-02-02T21:37:50.590Z</time>
      </trkpt>
      <trkpt lat="48.86332" lon="2.32235">
        <ele>72.2</ele>
        <time>2015-02-02T21:37:51.615Z</time>
      </trkpt>
      <trkpt lat="48.86329" lon="2.32243">
        <ele>72.3</ele>
        <time>2015-02-02T21:37:52.475Z</time>
      </trkpt>
      <trkpt lat="48.86326" lon="2.32252">
        <ele>72.4</ele>
        <time>2015-02-02T21:37:53.507Z</time>
      </trkpt>
      <trkpt lat="48.86324" lon="2.32261">
        <ele>72.6</ele>
        <time>2015-02-02T21:37:54.606Z</time>
      </trkpt>
      <trkpt lat="48.86321" lon="2.32271">
        <ele>72.8</ele>
        <time>2015-02-02T21:37:55.493Z</time>
      </trkpt>
      <trkpt lat="48.86319" lon="2.32281">
        <ele>73</ele>
        <time>2015-02-02T21:37:56.486Z</time>
      </trkpt>
      <trkpt lat="48.86315" lon="2.32291">
        <ele>73</ele>
        <time>2015-02-02T21:37:57.547Z</time>
      </trkpt>
      <trkpt lat="48.86312" lon="2.323">
        <ele>73.1</ele>
        <time>2015-02-02T21:37:58.654Z</time>
      </trkpt>
      <trkpt lat="48.8631" lon="2.3231">
        <ele>73.5</ele>
        <time>2015-02-02T21:37:59.503Z</time>
      </trkpt>
      <trkpt lat="48.86307" lon="2.3232">
        <ele>73.9</ele>
        <time>2015-02-02T21:38:00.518Z</time>
      </trkpt>
      <trkpt lat="48.86305" lon="2.32329">
        <ele>73.9</ele>
        <time>2015-02-02T21:38:01.531Z</time>
      </trkpt>
      <trkpt lat="48.86302" lon="2.32338">
        <ele>73.6</ele>
        <time>2015-02-02T21:38:02.546Z</time>
      </trkpt>
      <trkpt lat="48.86299" lon="2.32348">
        <ele>73.6</ele>
        <time>2015-02-02T21:38:03.552Z</time>
      </trkpt>
      <trkpt lat="48.86295" lon="2.32357">
        <ele>73.5</ele>
        <time>2015-02-02T21:38:04.569Z</time>
      </trkpt>
      <trkpt lat="48.86292" lon="2.32368">
        <ele>73.6</ele>
        <time>2015-02-02T21:38:05.591Z</time>
      </trkpt>
      <trkpt lat="48.86287" lon="2.32378">
        <ele>73.5</ele>
        <time>2015-02-02T21:38:06.551Z</time>
      </trkpt>
      <trkpt lat="48.86283" lon="2.32388">
        <ele>73.7</ele>
        <time>2015-02-02T21:38:07.559Z</time>
      </trkpt>
      <trkpt lat="48.8628" lon="2.32397">
        <ele>74</ele>
        <time>2015-02-02T21:38:08.566Z</time>
      </trkpt>
      <trkpt lat="48.86277" lon="2.32406">
        <ele>74.1</ele>
        <time>2015-02-02T21:38:09.577Z</time>
      </trkpt>
      <trkpt lat="48.86274" lon="2.32416">
        <ele>73.9</ele>
        <time>2015-02-02T21:38:10.504Z</time>
      </trkpt>
      <trkpt lat="48.8627" lon="2.32425">
        <ele>73.9</ele>
        <time>2015-02-02T21:38:11.517Z</time>
      </trkpt>
      <trkpt lat="48.86267" lon="2.32434">
        <ele>73.8</ele>
        <time>2015-02-02T21:38:12.542Z</time>
      </trkpt>
      <trkpt lat="48.86264" lon="2.32442">
        <ele>73.9</ele>
        <time>2015-02-02T21:38:13.504Z</time>
      </trkpt>
      <trkpt lat="48.86261" lon="2.32451">
        <ele>73.9</ele>
        <time>2015-02-02T21:38:14.533Z</time>
      </trkpt>
      <trkpt lat="48.86258" lon="2.32461">
        <ele>74</ele>
        <time>2015-02-02T21:38:15.536Z</time>
      </trkpt>
      <trkpt lat="48.86255" lon="2.3247">
        <ele>73.9</ele>
        <time>2015-02-02T21:38:16.562Z</time>
      </trkpt>
      <trkpt lat="48.86252" lon="2.32479">
        <ele>73.7</ele>
        <time>2015-02-02T21:38:17.569Z</time>
      </trkpt>
      <trkpt lat="48.8625" lon="2.32489">
        <ele>73.8</ele>
        <time>2015-02-02T21:38:18.581Z</time>
      </trkpt>
      <trkpt lat="48.86247" lon="2.32498">
        <ele>73.8</ele>
        <time>2015-02-02T21:38:19.472Z</time>
      </trkpt>
      <trkpt lat="48.86244" lon="2.32508">
        <ele>74</ele>
        <time>2015-02-02T21:38:20.490Z</time>
      </trkpt>
      <trkpt lat="48.86241" lon="2.32517">
        <ele>73.8</ele>
        <time>2015-02-02T21:38:21.526Z</time>
      </trkpt>
      <trkpt lat="48.86237" lon="2.32526">
        <ele>73.6</ele>
        <time>2015-02-02T21:38:22.550Z</time>
      </trkpt>
      <trkpt lat="48.86234" lon="2.32535">
        <ele>73.5</ele>
        <time>2015-02-02T21:38:23.554Z</time>
      </trkpt>
      <trkpt lat="48.86232" lon="2.32544">
        <ele>73.5</ele>
        <time>2015-02-02T21:38:24.564Z</time>
      </trkpt>
      <trkpt lat="48.86229" lon="2.32553">
        <ele>73.2</ele>
        <time>2015-02-02T21:38:25.581Z</time>
      </trkpt>
      <trkpt lat="48.86227" lon="2.32562">
        <ele>73.2</ele>
        <time>2015-02-02T21:38:26.504Z</time>
      </trkpt>
      <trkpt lat="48.86224" lon="2.32571">
        <ele>73.9</ele>
        <time>2015-02-02T21:38:27.549Z</time>
      </trkpt>
      <trkpt lat="48.8622" lon="2.3258">
        <ele>74.5</ele>
        <time>2015-02-02T21:38:28.489Z</time>
      </trkpt>
      <trkpt lat="48.86217" lon="2.32591">
        <ele>74.6</ele>
        <time>2015-02-02T21:38:29.492Z</time>
      </trkpt>
      <trkpt lat="48.86214" lon="2.326">
        <ele>74.7</ele>
        <time>2015-02-02T21:38:30.522Z</time>
      </trkpt>
      <trkpt lat="48.8621" lon="2.32609">
        <ele>74.5</ele>
        <time>2015-02-02T21:38:31.561Z</time>
      </trkpt>
      <trkpt lat="48.86207" lon="2.32619">
        <ele>74.5</ele>
        <time>2015-02-02T21:38:32.489Z</time>
      </trkpt>
      <trkpt lat="48.86203" lon="2.32628">
        <ele>74.7</ele>
        <time>2015-02-02T21:38:33.525Z</time>
      </trkpt>
      <trkpt lat="48.86199" lon="2.32638">
        <ele>74.7</ele>
        <time>2015-02-02T21:38:34.545Z</time>
      </trkpt>
      <trkpt lat="48.86196" lon="2.32649">
        <ele>74.8</ele>
        <time>2015-02-02T21:38:35.552Z</time>
      </trkpt>
      <trkpt lat="48.86192" lon="2.32659">
        <ele>75.3</ele>
        <time>2015-02-02T21:38:36.557Z</time>
      </trkpt>
      <trkpt lat="48.8619" lon="2.32669">
        <ele>75.4</ele>
        <time>2015-02-02T21:38:37.505Z</time>
      </trkpt>
      <trkpt lat="48.86186" lon="2.32679">
        <ele>75.6</ele>
        <time>2015-02-02T21:38:38.503Z</time>
      </trkpt>
      <trkpt lat="48.86182" lon="2.3269">
        <ele>75.6</ele>
        <time>2015-02-02T21:38:39.532Z</time>
      </trkpt>
      <trkpt lat="48.8618" lon="2.32701">
        <ele>75.7</ele>
        <time>2015-02-02T21:38:40.530Z</time>
      </trkpt>
      <trkpt lat="48.86177" lon="2.32711">
        <ele>75.6</ele>
        <time>2015-02-02T21:38:41.472Z</time>
      </trkpt>
      <trkpt lat="48.86173" lon="2.32722">
        <ele>75.3</ele>
        <time>2015-02-02T21:38:42.505Z</time>
      </trkpt>
      <trkpt lat="48.8617" lon="2.32732">
        <ele>75.4</ele>
        <time>2015-02-02T21:38:43.533Z</time>
      </trkpt>
      <trkpt lat="48.86167" lon="2.32743">
        <ele>75.4</ele>
        <time>2015-02-02T21:38:44.549Z</time>
      </trkpt>
      <trkpt lat="48.86164" lon="2.32754">
        <ele>75.5</ele>
        <time>2015-02-02T21:38:45.560Z</time>
      </trkpt>
      <trkpt lat="48.86162" lon="2.32765">
        <ele>75.4</ele>
        <time>2015-02-02T21:38:46.486Z</time>
      </trkpt>
      <trkpt lat="48.86158" lon="2.32776">
        <ele>75.7</ele>
        <time>2015-02-02T21:38:47.490Z</time>
      </trkpt>
      <trkpt lat="48.86155" lon="2.32787">
        <ele>76</ele>
        <time>2015-02-02T21:38:48.560Z</time>
      </trkpt>
      <trkpt lat="48.86151" lon="2.32798">
        <ele>76.1</ele>
        <time>2015-02-02T21:38:49.566Z</time>
      </trkpt>
      <trkpt lat="48.86147" lon="2.32808">
        <ele>76.4</ele>
        <time>2015-02-02T21:38:50.585Z</time>
      </trkpt>
      <trkpt lat="48.86144" lon="2.32818">
        <ele>76.9</ele>
        <time>2015-02-02T21:38:51.521Z</time>
      </trkpt>
      <trkpt lat="48.86139" lon="2.32828">
        <ele>77</ele>
        <time>2015-02-02T21:38:52.537Z</time>
      </trkpt>
      <trkpt lat="48.86135" lon="2.32838">
        <ele>77</ele>
        <time>2015-02-02T21:38:53.510Z</time>
      </trkpt>
      <trkpt lat="48.86131" lon="2.32849">
        <ele>77</ele>
        <time>2015-02-02T21:38:54.492Z</time>
      </trkpt>
      <trkpt lat="48.86127" lon="2.3286">
        <ele>77</ele>
        <time>2015-02-02T21:38:55.494Z</time>
      </trkpt>
      <trkpt lat="48.86123" lon="2.32871">
        <ele>76.9</ele>
        <time>2015-02-02T21:38:56.542Z</time>
      </trkpt>
      <trkpt lat="48.8612" lon="2.32881">
        <ele>76.7</ele>
        <time>2015-02-02T21:38:57.558Z</time>
      </trkpt>
      <trkpt lat="48.86117" lon="2.3289">
        <ele>76.7</ele>
        <time>2015-02-02T21:38:58.493Z</time>
      </trkpt>
      <trkpt lat="48.86114" lon="2.329">
        <ele>76.6</ele>
        <time>2015-02-02T21:38:59.498Z</time>
      </trkpt>
      <trkpt lat="48.86111" lon="2.32908">
        <ele>76.1</ele>
        <time>2015-02-02T21:39:00.517Z</time>
      </trkpt>
      <trkpt lat="48.86108" lon="2.32917">
        <ele>75.3</ele>
        <time>2015-02-02T21:39:01.520Z</time>
      </trkpt>
      <trkpt lat="48.86106" lon="2.32925">
        <ele>74.4</ele>
        <time>2015-02-02T21:39:02.537Z</time>
      </trkpt>
      <trkpt lat="48.86104" lon="2.32933">
        <ele>73.8</ele>
        <time>2015-02-02T21:39:03.555Z</time>
      </trkpt>
      <trkpt lat="48.86102" lon="2.32941">
        <ele>73.3</ele>
        <time>2015-02-02T21:39:04.586Z</time>
      </trkpt>
      <trkpt lat="48.861" lon="2.32948">
        <ele>73</ele>
        <time>2015-02-02T21:39:05.487Z</time>
      </trkpt>
      <trkpt lat="48.86097" lon="2.32956">
        <ele>72.8</ele>
        <time>2015-02-02T21:39:06.503Z</time>
      </trkpt>
      <trkpt lat="48.86095" lon="2.32963">
        <ele>73.2</ele>
        <time>2015-02-02T21:39:07.554Z</time>
      </trkpt>
      <trkpt lat="48.86093" lon="2.32971">
        <ele>73.6</ele>
        <time>2015-02-02T21:39:08.579Z</time>
      </trkpt>
      <trkpt lat="48.86091" lon="2.32977">
        <ele>73.8</ele>
        <time>2015-02-02T21:39:09.583Z</time>
      </trkpt>
      <trkpt lat="48.86086" lon="2.32988">
        <ele>74.4</ele>
        <time>2015-02-02T21:39:11.499Z</time>
      </trkpt>
      <trkpt lat="48.86083" lon="2.3299">
        <ele>74.2</ele>
        <time>2015-02-02T21:39:12.506Z</time>
      </trkpt>
      <trkpt lat="48.86091" lon="2.32991">
        <ele>75.2</ele>
        <time>2015-02-02T21:39:44.588Z</time>
      </trkpt>
      <trkpt lat="48.86093" lon="2.32992">
        <ele>75.1</ele>
        <time>2015-02-02T21:39:45.614Z</time>
      </trkpt>
      <trkpt lat="48.861" lon="2.32996">
        <ele>75.1</ele>
        <time>2015-02-02T21:39:48.665Z</time>
      </trkpt>
      <trkpt lat="48.86102" lon="2.32999">
        <ele>75.2</ele>
        <time>2015-02-02T21:39:49.574Z</time>
      </trkpt>
      <trkpt lat="48.86106" lon="2.33009">
        <ele>75</ele>
        <time>2015-02-02T21:40:18.554Z</time>
      </trkpt>
      <trkpt lat="48.86108" lon="2.33012">
        <ele>74.9</ele>
        <time>2015-02-02T21:40:19.563Z</time>
      </trkpt>
      <trkpt lat="48.86113" lon="2.33019">
        <ele>74.3</ele>
        <time>2015-02-02T21:40:21.535Z</time>
      </trkpt>
      <trkpt lat="48.86117" lon="2.33023">
        <ele>74.2</ele>
        <time>2015-02-02T21:40:22.538Z</time>
      </trkpt>
      <trkpt lat="48.86121" lon="2.33027">
        <ele>74.1</ele>
        <time>2015-02-02T21:40:23.598Z</time>
      </trkpt>
      <trkpt lat="48.86126" lon="2.33031">
        <ele>74.4</ele>
        <time>2015-02-02T21:40:24.556Z</time>
      </trkpt>
      <trkpt lat="48.86132" lon="2.33036">
        <ele>74.7</ele>
        <time>2015-02-02T21:40:25.491Z</time>
      </trkpt>
      <trkpt lat="48.86138" lon="2.3304">
        <ele>74.9</ele>
        <time>2015-02-02T21:40:26.487Z</time>
      </trkpt>
      <trkpt lat="48.86145" lon="2.33045">
        <ele>74.9</ele>
        <time>2015-02-02T21:40:27.539Z</time>
      </trkpt>
      <trkpt lat="48.86152" lon="2.33051">
        <ele>74.8</ele>
        <time>2015-02-02T21:40:28.546Z</time>
      </trkpt>
      <trkpt lat="48.8616" lon="2.33056">
        <ele>75</ele>
        <time>2015-02-02T21:40:29.486Z</time>
      </trkpt>
      <trkpt lat="48.86168" lon="2.33062">
        <ele>75.4</ele>
        <time>2015-02-02T21:40:30.488Z</time>
      </trkpt>
      <trkpt lat="48.86322" lon="2.33164">
        <ele>77.1</ele>
        <time>2015-02-02T21:40:50.539Z</time>
      </trkpt>
      <trkpt lat="48.86332" lon="2.33167">
        <ele>77.1</ele>
        <time>2015-02-02T21:40:51.576Z</time>
      </trkpt>
      <trkpt lat="48.86337" lon="2.33177">
        <ele>77.6</ele>
        <time>2015-02-02T21:40:54.505Z</time>
      </trkpt>
      <trkpt lat="48.86338" lon="2.33181">
        <ele>78</ele>
        <time>2015-02-02T21:40:55.528Z</time>
      </trkpt>
      <trkpt lat="48.86344" lon="2.33185">
        <ele>77.5</ele>
        <time>2015-02-02T21:40:58.294Z</time>
      </trkpt>
      <trkpt lat="48.86347" lon="2.33186">
        <ele>77.1</ele>
        <time>2015-02-02T21:40:58.546Z</time>
      </trkpt>
      <trkpt lat="48.86355" lon="2.33188">
        <ele>82.2</ele>
        <time>2015-02-02T21:41:00.463Z</time>
      </trkpt>
      <trkpt lat="48.86358" lon="2.3319">
        <ele>83.8</ele>
        <time>2015-02-02T21:41:01.472Z</time>
      </trkpt>
      <trkpt lat="48.86365" lon="2.33194">
        <ele>85.8</ele>
        <time>2015-02-02T21:41:03.516Z</time>
      </trkpt>
      <trkpt lat="48.86368" lon="2.33197">
        <ele>88.1</ele>
        <time>2015-02-02T21:41:04.524Z</time>
      </trkpt>
      <trkpt lat="48.86375" lon="2.33202">
        <ele>91</ele>
        <time>2015-02-02T21:41:06.540Z</time>
      </trkpt>
      <trkpt lat="48.86378" lon="2.33203">
        <ele>91.7</ele>
        <time>2015-02-02T21:41:07.554Z</time>
      </trkpt>
      <trkpt lat="48.86381" lon="2.33204">
        <ele>92.6</ele>
        <time>2015-02-02T21:41:49.521Z</time>
      </trkpt>
      <trkpt lat="48.86369" lon="2.33223">
        <ele>103.4</ele>
        <time>2015-02-02T21:41:50.531Z</time>
      </trkpt>
      <trkpt lat="48.86372" lon="2.33229">
        <ele>100.8</ele>
        <time>2015-02-02T21:41:58.487Z</time>
      </trkpt>
      <trkpt lat="48.86369" lon="2.33237">
        <ele>98.7</ele>
        <time>2015-02-02T21:41:58.570Z</time>
      </trkpt>
      <trkpt lat="48.86366" lon="2.33242">
        <ele>98.1</ele>
        <time>2015-02-02T21:41:59.577Z</time>
      </trkpt>
      <trkpt lat="48.86362" lon="2.33247">
        <ele>97.7</ele>
        <time>2015-02-02T21:42:00.504Z</time>
      </trkpt>
      <trkpt lat="48.86358" lon="2.33252">
        <ele>97.3</ele>
        <time>2015-02-02T21:42:01.495Z</time>
      </trkpt>
      <trkpt lat="48.86355" lon="2.33257">
        <ele>96.8</ele>
        <time>2015-02-02T21:42:02.501Z</time>
      </trkpt>
      <trkpt lat="48.86348" lon="2.33264">
        <ele>95.9</ele>
        <time>2015-02-02T21:42:04.580Z</time>
      </trkpt>
      <trkpt lat="48.86345" lon="2.33268">
        <ele>95.3</ele>
        <time>2015-02-02T21:42:05.489Z</time>
      </trkpt>
      <trkpt lat="48.86341" lon="2.33273">
        <ele>95</ele>
        <time>2015-02-02T21:42:06.495Z</time>
      </trkpt>
      <trkpt lat="48.86338" lon="2.33278">
        <ele>94.4</ele>
        <time>2015-02-02T21:42:07.517Z</time>
      </trkpt>
      <trkpt lat="48.86334" lon="2.33284">
        <ele>94</ele>
        <time>2015-02-02T21:42:08.551Z</time>
      </trkpt>
      <trkpt lat="48.86331" lon="2.33289">
        <ele>93.7</ele>
        <time>2015-02-02T21:42:09.575Z</time>
      </trkpt>
      <trkpt lat="48.86325" lon="2.33299">
        <ele>93.1</ele>
        <time>2015-02-02T21:42:11.481Z</time>
      </trkpt>
      <trkpt lat="48.86323" lon="2.33303">
        <ele>92.9</ele>
        <time>2015-02-02T21:42:12.495Z</time>
      </trkpt>
      <trkpt lat="48.86318" lon="2.33312">
        <ele>92.3</ele>
        <time>2015-02-02T21:42:14.518Z</time>
      </trkpt>
      <trkpt lat="48.86316" lon="2.33318">
        <ele>91.9</ele>
        <time>2015-02-02T21:42:15.523Z</time>
      </trkpt>
      <trkpt lat="48.86312" lon="2.33329">
        <ele>91.5</ele>
        <time>2015-02-02T21:42:18.675Z</time>
      </trkpt>
      <trkpt lat="48.8631" lon="2.33333">
        <ele>91.4</ele>
        <time>2015-02-02T21:42:18.714Z</time>
      </trkpt>
      <trkpt lat="48.86307" lon="2.33346">
        <ele>90.6</ele>
        <time>2015-02-02T21:42:21.532Z</time>
      </trkpt>
      <trkpt lat="48.86307" lon="2.33351">
        <ele>90.4</ele>
        <time>2015-02-02T21:42:22.574Z</time>
      </trkpt>
      <trkpt lat="48.86306" lon="2.33363">
        <ele>91.7</ele>
        <time>2015-02-02T21:42:24.479Z</time>
      </trkpt>
      <trkpt lat="48.86309" lon="2.33371">
        <ele>93.3</ele>
        <time>2015-02-02T21:42:25.528Z</time>
      </trkpt>
      <trkpt lat="48.86311" lon="2.33381">
        <ele>95.3</ele>
        <time>2015-02-02T21:42:27.565Z</time>
      </trkpt>
      <trkpt lat="48.86311" lon="2.33385">
        <ele>95.7</ele>
        <time>2015-02-02T21:42:28.584Z</time>
      </trkpt>
      <trkpt lat="48.86307" lon="2.33396">
        <ele>96</ele>
        <time>2015-02-02T21:42:33.823Z</time>
      </trkpt>
      <trkpt lat="48.86306" lon="2.33399">
        <ele>96.1</ele>
        <time>2015-02-02T21:42:34.657Z</time>
      </trkpt>
      <trkpt lat="48.86299" lon="2.33407">
        <ele>96</ele>
        <time>2015-02-02T21:42:37.583Z</time>
      </trkpt>
      <trkpt lat="48.86296" lon="2.33409">
        <ele>96</ele>
        <time>2015-02-02T21:42:38.547Z</time>
      </trkpt>
      <trkpt lat="48.86291" lon="2.33416">
        <ele>95.8</ele>
        <time>2015-02-02T21:42:40.464Z</time>
      </trkpt>
      <trkpt lat="48.8629" lon="2.33421">
        <ele>95.7</ele>
        <time>2015-02-02T21:42:41.511Z</time>
      </trkpt>
      <trkpt lat="48.86288" lon="2.33425">
        <ele>95.7</ele>
        <time>2015-02-02T21:42:43.057Z</time>
      </trkpt>
      <trkpt lat="48.86271" lon="2.33501">
        <ele>94.7</ele>
        <time>2015-02-02T21:42:59.514Z</time>
      </trkpt>
      <trkpt lat="48.86271" lon="2.33506">
        <ele>95</ele>
        <time>2015-02-02T21:43:00.661Z</time>
      </trkpt>
      <trkpt lat="48.86281" lon="2.33514">
        <ele>95.7</ele>
        <time>2015-02-02T21:43:01.469Z</time>
      </trkpt>
      <trkpt lat="48.86287" lon="2.33522">
        <ele>97.3</ele>
        <time>2015-02-02T21:43:04.659Z</time>
      </trkpt>
      <trkpt lat="48.86287" lon="2.33524">
        <ele>97.3</ele>
        <time>2015-02-02T21:43:05.576Z</time>
      </trkpt>
      <trkpt lat="48.86284" lon="2.33528">
        <ele>97.4</ele>
        <time>2015-02-02T21:43:23.786Z</time>
      </trkpt>
      <trkpt lat="48.86274" lon="2.33539">
        <ele>101.3</ele>
        <time>2015-02-02T21:43:24.585Z</time>
      </trkpt>
      <trkpt lat="48.86271" lon="2.33549">
        <ele>99.4</ele>
        <time>2015-02-02T21:43:30.620Z</time>
      </trkpt>
      <trkpt lat="48.8627" lon="2.33554">
        <ele>99.1</ele>
        <time>2015-02-02T21:43:31.744Z</time>
      </trkpt>
      <trkpt lat="48.86265" lon="2.33558">
        <ele>98.7</ele>
        <time>2015-02-02T21:43:34.556Z</time>
      </trkpt>
      <trkpt lat="48.86261" lon="2.33558">
        <ele>98.6</ele>
        <time>2015-02-02T21:43:35.858Z</time>
      </trkpt>
      <trkpt lat="48.86244" lon="2.33586">
        <ele>97.6</ele>
        <time>2015-02-02T21:43:48.557Z</time>
      </trkpt>
      <trkpt lat="48.86248" lon="2.33589">
        <ele>97</ele>
        <time>2015-02-02T21:43:49.594Z</time>
      </trkpt>
      <trkpt lat="48.86251" lon="2.33594">
        <ele>96.4</ele>
        <time>2015-02-02T21:43:50.604Z</time>
      </trkpt>
      <trkpt lat="48.86252" lon="2.33608">
        <ele>94.7</ele>
        <time>2015-02-02T21:43:52.637Z</time>
      </trkpt>
      <trkpt lat="48.8625" lon="2.33615">
        <ele>93.7</ele>
        <time>2015-02-02T21:43:53.647Z</time>
      </trkpt>
      <trkpt lat="48.86249" lon="2.33625">
        <ele>91.2</ele>
        <time>2015-02-02T21:43:54.668Z</time>
      </trkpt>
      <trkpt lat="48.86248" lon="2.33632">
        <ele>89.1</ele>
        <time>2015-02-02T21:43:55.670Z</time>
      </trkpt>
      <trkpt lat="48.86249" lon="2.33644">
        <ele>86.8</ele>
        <time>2015-02-02T21:43:57.602Z</time>
      </trkpt>
      <trkpt lat="48.8625" lon="2.3365">
        <ele>85.5</ele>
        <time>2015-02-02T21:43:58.608Z</time>
      </trkpt>
      <trkpt lat="48.86253" lon="2.3366">
        <ele>84.1</ele>
        <time>2015-02-02T21:44:00.618Z</time>
      </trkpt>
      <trkpt lat="48.86254" lon="2.33664">
        <ele>83.2</ele>
        <time>2015-02-02T21:44:01.642Z</time>
      </trkpt>
      <trkpt lat="48.86258" lon="2.33673">
        <ele>81.7</ele>
        <time>2015-02-02T21:44:03.657Z</time>
      </trkpt>
      <trkpt lat="48.86259" lon="2.33677">
        <ele>81.7</ele>
        <time>2015-02-02T21:44:04.582Z</time>
      </trkpt>
      <trkpt lat="48.86263" lon="2.33689">
        <ele>82.8</ele>
        <time>2015-02-02T21:44:07.677Z</time>
      </trkpt>
      <trkpt lat="48.86263" lon="2.33692">
        <ele>83.1</ele>
        <time>2015-02-02T21:44:08.586Z</time>
      </trkpt>
      <trkpt lat="48.86264" lon="2.33705">
        <ele>83.3</ele>
        <time>2015-02-02T21:44:12.640Z</time>
      </trkpt>
      <trkpt lat="48.86265" lon="2.33709">
        <ele>83.4</ele>
        <time>2015-02-02T21:44:13.657Z</time>
      </trkpt>
      <trkpt lat="48.86266" lon="2.3372">
        <ele>83.6</ele>
        <time>2015-02-02T21:44:16.579Z</time>
      </trkpt>
      <trkpt lat="48.86266" lon="2.33724">
        <ele>83.3</ele>
        <time>2015-02-02T21:44:17.621Z</time>
      </trkpt>
      <trkpt lat="48.86266" lon="2.33733">
        <ele>83.9</ele>
        <time>2015-02-02T21:44:19.685Z</time>
      </trkpt>
      <trkpt lat="48.86266" lon="2.33738">
        <ele>84.6</ele>
        <time>2015-02-02T21:44:20.777Z</time>
      </trkpt>
      <trkpt lat="48.86265" lon="2.33749">
        <ele>85.4</ele>
        <time>2015-02-02T21:44:22.648Z</time>
      </trkpt>
      <trkpt lat="48.86263" lon="2.33754">
        <ele>85.5</ele>
        <time>2015-02-02T21:44:23.670Z</time>
      </trkpt>
      <trkpt lat="48.8626" lon="2.33767">
        <ele>85.8</ele>
        <time>2015-02-02T21:44:25.757Z</time>
      </trkpt>
      <trkpt lat="48.86259" lon="2.33772">
        <ele>85.8</ele>
        <time>2015-02-02T21:44:26.622Z</time>
      </trkpt>
      <trkpt lat="48.86258" lon="2.33785">
        <ele>86.2</ele>
        <time>2015-02-02T21:44:28.660Z</time>
      </trkpt>
      <trkpt lat="48.86257" lon="2.33791">
        <ele>86.5</ele>
        <time>2015-02-02T21:44:29.579Z</time>
      </trkpt>
      <trkpt lat="48.86255" lon="2.33803">
        <ele>86.2</ele>
        <time>2015-02-02T21:44:31.662Z</time>
      </trkpt>
      <trkpt lat="48.86253" lon="2.33811">
        <ele>85.6</ele>
        <time>2015-02-02T21:44:32.661Z</time>
      </trkpt>
      <trkpt lat="48.86252" lon="2.33819">
        <ele>85.5</ele>
        <time>2015-02-02T21:44:33.672Z</time>
      </trkpt>
      <trkpt lat="48.8625" lon="2.33826">
        <ele>85.8</ele>
        <time>2015-02-02T21:44:34.690Z</time>
      </trkpt>
      <trkpt lat="48.86248" lon="2.33833">
        <ele>85.8</ele>
        <time>2015-02-02T21:44:35.608Z</time>
      </trkpt>
      <trkpt lat="48.86247" lon="2.3384">
        <ele>86</ele>
        <time>2015-02-02T21:44:36.604Z</time>
      </trkpt>
      <trkpt lat="48.86244" lon="2.33852">
        <ele>86</ele>
        <time>2015-02-02T21:44:38.672Z</time>
      </trkpt>
      <trkpt lat="48.86242" lon="2.33859">
        <ele>85.8</ele>
        <time>2015-02-02T21:44:39.726Z</time>
      </trkpt>
      <trkpt lat="48.8624" lon="2.33865">
        <ele>85.8</ele>
        <time>2015-02-02T21:44:40.603Z</time>
      </trkpt>
      <trkpt lat="48.86239" lon="2.33872">
        <ele>85.9</ele>
        <time>2015-02-02T21:44:41.607Z</time>
      </trkpt>
      <trkpt lat="48.86238" lon="2.33879">
        <ele>85.7</ele>
        <time>2015-02-02T21:44:42.609Z</time>
      </trkpt>
      <trkpt lat="48.86236" lon="2.33889">
        <ele>86.2</ele>
        <time>2015-02-02T21:44:43.640Z</time>
      </trkpt>
      <trkpt lat="48.86235" lon="2.33897">
        <ele>87.2</ele>
        <time>2015-02-02T21:44:44.649Z</time>
      </trkpt>
      <trkpt lat="48.86234" lon="2.33903">
        <ele>87.9</ele>
        <time>2015-02-02T21:44:45.659Z</time>
      </trkpt>
      <trkpt lat="48.86232" lon="2.33909">
        <ele>89.2</ele>
        <time>2015-02-02T21:44:46.664Z</time>
      </trkpt>
      <trkpt lat="48.86231" lon="2.33916">
        <ele>90.2</ele>
        <time>2015-02-02T21:44:47.664Z</time>
      </trkpt>
      <trkpt lat="48.86229" lon="2.33924">
        <ele>90.5</ele>
        <time>2015-02-02T21:44:49.686Z</time>
      </trkpt>
      <trkpt lat="48.86228" lon="2.33929">
        <ele>90.5</ele>
        <time>2015-02-02T21:44:50.699Z</time>
      </trkpt>
      <trkpt lat="48.86225" lon="2.33938">
        <ele>90.8</ele>
        <time>2015-02-02T21:44:52.602Z</time>
      </trkpt>
      <trkpt lat="48.86224" lon="2.33944">
        <ele>91.2</ele>
        <time>2015-02-02T21:44:53.617Z</time>
      </trkpt>
      <trkpt lat="48.8622" lon="2.33955">
        <ele>91.5</ele>
        <time>2015-02-02T21:44:55.667Z</time>
      </trkpt>
      <trkpt lat="48.86219" lon="2.3396">
        <ele>91.8</ele>
        <time>2015-02-02T21:44:56.774Z</time>
      </trkpt>
      <trkpt lat="48.86214" lon="2.33972">
        <ele>92</ele>
        <time>2015-02-02T21:44:58.600Z</time>
      </trkpt>
      <trkpt lat="48.86211" lon="2.33978">
        <ele>92.2</ele>
        <time>2015-02-02T21:44:59.616Z</time>
      </trkpt>
      <trkpt lat="48.86206" lon="2.33988">
        <ele>92.4</ele>
        <time>2015-02-02T21:45:01.644Z</time>
      </trkpt>
      <trkpt lat="48.86203" lon="2.33993">
        <ele>92.3</ele>
        <time>2015-02-02T21:45:02.655Z</time>
      </trkpt>
      <trkpt lat="48.862" lon="2.34002">
        <ele>91.5</ele>
        <time>2015-02-02T21:45:04.585Z</time>
      </trkpt>
      <trkpt lat="48.862" lon="2.34006">
        <ele>91.4</ele>
        <time>2015-02-02T21:45:05.609Z</time>
      </trkpt>
      <trkpt lat="48.86196" lon="2.34017">
        <ele>91.8</ele>
        <time>2015-02-02T21:45:07.749Z</time>
      </trkpt>
      <trkpt lat="48.86192" lon="2.34022">
        <ele>92.1</ele>
        <time>2015-02-02T21:45:08.702Z</time>
      </trkpt>
      <trkpt lat="48.86187" lon="2.34033">
        <ele>93</ele>
        <time>2015-02-02T21:45:10.611Z</time>
      </trkpt>
      <trkpt lat="48.86183" lon="2.34039">
        <ele>93.6</ele>
        <time>2015-02-02T21:45:11.677Z</time>
      </trkpt>
      <trkpt lat="48.86181" lon="2.34045">
        <ele>93.9</ele>
        <time>2015-02-02T21:45:12.619Z</time>
      </trkpt>
      <trkpt lat="48.86179" lon="2.34052">
        <ele>94.2</ele>
        <time>2015-02-02T21:45:13.638Z</time>
      </trkpt>
      <trkpt lat="48.8618" lon="2.34062">
        <ele>94.2</ele>
        <time>2015-02-02T21:45:14.647Z</time>
      </trkpt>
      <trkpt lat="48.86178" lon="2.34072">
        <ele>94</ele>
        <time>2015-02-02T21:45:15.746Z</time>
      </trkpt>
      <trkpt lat="48.86178" lon="2.34084">
        <ele>94.3</ele>
        <time>2015-02-02T21:45:17.672Z</time>
      </trkpt>
      <trkpt lat="48.86177" lon="2.34089">
        <ele>94.6</ele>
        <time>2015-02-02T21:45:18.588Z</time>
      </trkpt>
      <trkpt lat="48.86176" lon="2.34096">
        <ele>95.2</ele>
        <time>2015-02-02T21:45:19.701Z</time>
      </trkpt>
      <trkpt lat="48.86174" lon="2.34103">
        <ele>96</ele>
        <time>2015-02-02T21:45:20.717Z</time>
      </trkpt>
      <trkpt lat="48.8617" lon="2.34112">
        <ele>96.9</ele>
        <time>2015-02-02T21:45:21.623Z</time>
      </trkpt>
      <trkpt lat="48.86167" lon="2.34119">
        <ele>97.5</ele>
        <time>2015-02-02T21:45:22.646Z</time>
      </trkpt>
      <trkpt lat="48.86166" lon="2.34126">
        <ele>97.7</ele>
        <time>2015-02-02T21:45:23.659Z</time>
      </trkpt>
      <trkpt lat="48.86164" lon="2.34134">
        <ele>98.2</ele>
        <time>2015-02-02T21:45:24.671Z</time>
      </trkpt>
      <trkpt lat="48.86161" lon="2.34147">
        <ele>99.6</ele>
        <time>2015-02-02T21:45:27.619Z</time>
      </trkpt>
      <trkpt lat="48.86161" lon="2.3415">
        <ele>99.9</ele>
        <time>2015-02-02T21:45:28.655Z</time>
      </trkpt>
      <trkpt lat="48.8616" lon="2.3416">
        <ele>100</ele>
        <time>2015-02-02T21:45:31.718Z</time>
      </trkpt>
      <trkpt lat="48.86158" lon="2.34165">
        <ele>100</ele>
        <time>2015-02-02T21:45:32.644Z</time>
      </trkpt>
      <trkpt lat="48.86154" lon="2.34178">
        <ele>100.1</ele>
        <time>2015-02-02T21:45:34.638Z</time>
      </trkpt>
      <trkpt lat="48.86152" lon="2.34185">
        <ele>100.2</ele>
        <time>2015-02-02T21:45:35.651Z</time>
      </trkpt>
      <trkpt lat="48.86148" lon="2.34193">
        <ele>100</ele>
        <time>2015-02-02T21:45:36.672Z</time>
      </trkpt>
      <trkpt lat="48.86146" lon="2.342">
        <ele>100.2</ele>
        <time>2015-02-02T21:45:37.799Z</time>
      </trkpt>
      <trkpt lat="48.86143" lon="2.34213">
        <ele>100.2</ele>
        <time>2015-02-02T21:45:39.675Z</time>
      </trkpt>
      <trkpt lat="48.86143" lon="2.34219">
        <ele>100.5</ele>
        <time>2015-02-02T21:45:40.589Z</time>
      </trkpt>
      <trkpt lat="48.86141" lon="2.34225">
        <ele>101.1</ele>
        <time>2015-02-02T21:45:41.563Z</time>
      </trkpt>
      <trkpt lat="48.86139" lon="2.34236">
        <ele>101.5</ele>
        <time>2015-02-02T21:45:42.586Z</time>
      </trkpt>
      <trkpt lat="48.86136" lon="2.34246">
        <ele>102.1</ele>
        <time>2015-02-02T21:45:43.674Z</time>
      </trkpt>
      <trkpt lat="48.86136" lon="2.34258">
        <ele>101.1</ele>
        <time>2015-02-02T21:45:44.704Z</time>
      </trkpt>
      <trkpt lat="48.86135" lon="2.34267">
        <ele>101</ele>
        <time>2015-02-02T21:45:45.602Z</time>
      </trkpt>
      <trkpt lat="48.86131" lon="2.34277">
        <ele>101.9</ele>
        <time>2015-02-02T21:45:46.616Z</time>
      </trkpt>
      <trkpt lat="48.86127" lon="2.34288">
        <ele>102.7</ele>
        <time>2015-02-02T21:45:47.608Z</time>
      </trkpt>
      <trkpt lat="48.86124" lon="2.34295">
        <ele>103.5</ele>
        <time>2015-02-02T21:45:48.614Z</time>
      </trkpt>
      <trkpt lat="48.86122" lon="2.34303">
        <ele>104.4</ele>
        <time>2015-02-02T21:45:49.630Z</time>
      </trkpt>
      <trkpt lat="48.86122" lon="2.34309">
        <ele>104.8</ele>
        <time>2015-02-02T21:45:50.642Z</time>
      </trkpt>
      <trkpt lat="48.86123" lon="2.34322">
        <ele>105.7</ele>
        <time>2015-02-02T21:45:53.689Z</time>
      </trkpt>
      <trkpt lat="48.86123" lon="2.34326">
        <ele>105.8</ele>
        <time>2015-02-02T21:45:54.610Z</time>
      </trkpt>
      <trkpt lat="48.86118" lon="2.34337">
        <ele>105</ele>
        <time>2015-02-02T21:45:57.696Z</time>
      </trkpt>
      <trkpt lat="48.86117" lon="2.34342">
        <ele>104.6</ele>
        <time>2015-02-02T21:45:58.632Z</time>
      </trkpt>
      <trkpt lat="48.86114" lon="2.34349">
        <ele>103.9</ele>
        <time>2015-02-02T21:46:00.595Z</time>
      </trkpt>
      <trkpt lat="48.86111" lon="2.34353">
        <ele>103.5</ele>
        <time>2015-02-02T21:46:01.640Z</time>
      </trkpt>
      <trkpt lat="48.86108" lon="2.34359">
        <ele>103.3</ele>
        <time>2015-02-02T21:46:02.667Z</time>
      </trkpt>
      <trkpt lat="48.86106" lon="2.34367">
        <ele>102.8</ele>
        <time>2015-02-02T21:46:03.707Z</time>
      </trkpt>
      <trkpt lat="48.86105" lon="2.34377">
        <ele>102.4</ele>
        <time>2015-02-02T21:46:04.592Z</time>
      </trkpt>
      <trkpt lat="48.86103" lon="2.34387">
        <ele>101.9</ele>
        <time>2015-02-02T21:46:05.588Z</time>
      </trkpt>
      <trkpt lat="48.86101" lon="2.34395">
        <ele>101.8</ele>
        <time>2015-02-02T21:46:06.596Z</time>
      </trkpt>
      <trkpt lat="48.861" lon="2.34402">
        <ele>101.6</ele>
        <time>2015-02-02T21:46:07.625Z</time>
      </trkpt>
      <trkpt lat="48.86099" lon="2.34408">
        <ele>101.5</ele>
        <time>2015-02-02T21:46:08.629Z</time>
      </trkpt>
      <trkpt lat="48.86097" lon="2.34415">
        <ele>101.4</ele>
        <time>2015-02-02T21:46:09.642Z</time>
      </trkpt>
      <trkpt lat="48.86095" lon="2.34424">
        <ele>101.8</ele>
        <time>2015-02-02T21:46:10.654Z</time>
      </trkpt>
      <trkpt lat="48.86093" lon="2.34433">
        <ele>102.2</ele>
        <time>2015-02-02T21:46:11.666Z</time>
      </trkpt>
      <trkpt lat="48.86092" lon="2.34441">
        <ele>102.7</ele>
        <time>2015-02-02T21:46:12.676Z</time>
      </trkpt>
      <trkpt lat="48.86091" lon="2.34448">
        <ele>102.7</ele>
        <time>2015-02-02T21:46:13.679Z</time>
      </trkpt>
      <trkpt lat="48.86089" lon="2.34456">
        <ele>102.6</ele>
        <time>2015-02-02T21:46:14.580Z</time>
      </trkpt>
      <trkpt lat="48.86087" lon="2.34466">
        <ele>103</ele>
        <time>2015-02-02T21:46:15.597Z</time>
      </trkpt>
      <trkpt lat="48.86088" lon="2.34474">
        <ele>103.5</ele>
        <time>2015-02-02T21:46:16.610Z</time>
      </trkpt>
      <trkpt lat="48.86087" lon="2.34482">
        <ele>104.3</ele>
        <time>2015-02-02T21:46:17.623Z</time>
      </trkpt>
      <trkpt lat="48.86089" lon="2.34489">
        <ele>103.6</ele>
        <time>2015-02-02T21:46:18.630Z</time>
      </trkpt>
      <trkpt lat="48.8609" lon="2.34498">
        <ele>102.8</ele>
        <time>2015-02-02T21:46:19.651Z</time>
      </trkpt>
      <trkpt lat="48.86088" lon="2.34504">
        <ele>103.2</ele>
        <time>2015-02-02T21:46:20.674Z</time>
      </trkpt>
      <trkpt lat="48.86087" lon="2.34511">
        <ele>103.8</ele>
        <time>2015-02-02T21:46:21.694Z</time>
      </trkpt>
      <trkpt lat="48.86086" lon="2.34523">
        <ele>105.3</ele>
        <time>2015-02-02T21:46:24.615Z</time>
      </trkpt>
      <trkpt lat="48.86087" lon="2.34527">
        <ele>105</ele>
        <time>2015-02-02T21:46:25.647Z</time>
      </trkpt>
      <trkpt lat="48.86087" lon="2.34534">
        <ele>104.8</ele>
        <time>2015-02-02T21:46:26.690Z</time>
      </trkpt>
      <trkpt lat="48.86085" lon="2.34541">
        <ele>104.7</ele>
        <time>2015-02-02T21:46:27.598Z</time>
      </trkpt>
      <trkpt lat="48.86085" lon="2.34549">
        <ele>104.9</ele>
        <time>2015-02-02T21:46:28.758Z</time>
      </trkpt>
      <trkpt lat="48.86083" lon="2.34556">
        <ele>104.1</ele>
        <time>2015-02-02T21:46:29.619Z</time>
      </trkpt>
      <trkpt lat="48.86077" lon="2.34565">
        <ele>102.1</ele>
        <time>2015-02-02T21:46:31.675Z</time>
      </trkpt>
      <trkpt lat="48.86074" lon="2.3457">
        <ele>101.6</ele>
        <time>2015-02-02T21:46:32.666Z</time>
      </trkpt>
      <trkpt lat="48.86071" lon="2.34575">
        <ele>100.9</ele>
        <time>2015-02-02T21:46:33.690Z</time>
      </trkpt>
      <trkpt lat="48.86068" lon="2.3458">
        <ele>100.3</ele>
        <time>2015-02-02T21:46:34.698Z</time>
      </trkpt>
      <trkpt lat="48.86062" lon="2.34589">
        <ele>99.3</ele>
        <time>2015-02-02T21:46:36.597Z</time>
      </trkpt>
      <trkpt lat="48.86059" lon="2.34594">
        <ele>98.7</ele>
        <time>2015-02-02T21:46:37.648Z</time>
      </trkpt>
      <trkpt lat="48.86055" lon="2.34598">
        <ele>98.3</ele>
        <time>2015-02-02T21:46:38.673Z</time>
      </trkpt>
      <trkpt lat="48.86051" lon="2.346">
        <ele>98</ele>
        <time>2015-02-02T21:46:39.684Z</time>
      </trkpt>
      <trkpt lat="48.86043" lon="2.34606">
        <ele>97.1</ele>
        <time>2015-02-02T21:46:41.580Z</time>
      </trkpt>
      <trkpt lat="48.86039" lon="2.3461">
        <ele>96.6</ele>
        <time>2015-02-02T21:46:42.616Z</time>
      </trkpt>
      <trkpt lat="48.86035" lon="2.34614">
        <ele>96.5</ele>
        <time>2015-02-02T21:46:43.644Z</time>
      </trkpt>
      <trkpt lat="48.8603" lon="2.34617">
        <ele>96.5</ele>
        <time>2015-02-02T21:46:44.689Z</time>
      </trkpt>
      <trkpt lat="48.86026" lon="2.3462">
        <ele>96.5</ele>
        <time>2015-02-02T21:46:45.604Z</time>
      </trkpt>
      <trkpt lat="48.86022" lon="2.34624">
        <ele>96.4</ele>
        <time>2015-02-02T21:46:46.602Z</time>
      </trkpt>
      <trkpt lat="48.86015" lon="2.34632">
        <ele>96.3</ele>
        <time>2015-02-02T21:46:48.619Z</time>
      </trkpt>
      <trkpt lat="48.86012" lon="2.34638">
        <ele>96.9</ele>
        <time>2015-02-02T21:46:49.653Z</time>
      </trkpt>
      <trkpt lat="48.86008" lon="2.34646">
        <ele>98.6</ele>
        <time>2015-02-02T21:46:50.620Z</time>
      </trkpt>
      <trkpt lat="48.86005" lon="2.34649">
        <ele>99.3</ele>
        <time>2015-02-02T21:46:51.630Z</time>
      </trkpt>
      <trkpt lat="48.86" lon="2.34655">
        <ele>99.1</ele>
        <time>2015-02-02T21:46:53.665Z</time>
      </trkpt>
      <trkpt lat="48.85997" lon="2.34657">
        <ele>99</ele>
        <time>2015-02-02T21:46:54.673Z</time>
      </trkpt>
      <trkpt lat="48.8599" lon="2.34663">
        <ele>99.3</ele>
        <time>2015-02-02T21:46:56.606Z</time>
      </trkpt>
      <trkpt lat="48.85986" lon="2.34665">
        <ele>99.4</ele>
        <time>2015-02-02T21:46:57.634Z</time>
      </trkpt>
      <trkpt lat="48.85979" lon="2.34671">
        <ele>99.2</ele>
        <time>2015-02-02T21:46:59.684Z</time>
      </trkpt>
      <trkpt lat="48.85976" lon="2.34674">
        <ele>99</ele>
        <time>2015-02-02T21:47:00.602Z</time>
      </trkpt>
      <trkpt lat="48.85971" lon="2.34681">
        <ele>98.1</ele>
        <time>2015-02-02T21:47:02.634Z</time>
      </trkpt>
      <trkpt lat="48.85968" lon="2.34685">
        <ele>97.9</ele>
        <time>2015-02-02T21:47:03.646Z</time>
      </trkpt>
      <trkpt lat="48.85964" lon="2.34692">
        <ele>97.8</ele>
        <time>2015-02-02T21:47:05.615Z</time>
      </trkpt>
      <trkpt lat="48.85962" lon="2.34696">
        <ele>98.1</ele>
        <time>2015-02-02T21:47:06.629Z</time>
      </trkpt>
      <trkpt lat="48.85956" lon="2.34704">
        <ele>98.4</ele>
        <time>2015-02-02T21:47:09.828Z</time>
      </trkpt>
      <trkpt lat="48.85956" lon="2.34706">
        <ele>98.2</ele>
        <time>2015-02-02T21:47:10.681Z</time>
      </trkpt>
      <trkpt lat="48.85958" lon="2.34718">
        <ele>94.9</ele>
        <time>2015-02-02T21:47:18.669Z</time>
      </trkpt>
      <trkpt lat="48.85957" lon="2.3472">
        <ele>95.7</ele>
        <time>2015-02-02T21:47:19.726Z</time>
      </trkpt>
      <trkpt lat="48.85953" lon="2.34719">
        <ele>100</ele>
        <time>2015-02-02T21:48:28.702Z</time>
      </trkpt>
      <trkpt lat="48.85953" lon="2.34719">
        <ele>100</ele>
        <time>2015-02-02T21:48:50.837Z</time>
      </trkpt>
    </trkseg>
  </trk>
</gpx>